<?xml version="1.0" encoding="UTF-8" standalone="no" ?>
<gpx xmlns="http://www.topografix.com/GPX/1/1" xmlns:xsi="http://www.w3.org/2001/XMLSchema-instance" xsi:schemaLocation="http://www.topografix.com/GPX/1/1 http://www.topografix.com/GPX/1/1/gpx.xsd" version="1.1" creator="VisuGPX - https://www.visugpx.com">
  <metadata>
    <name>Tour d'Europe: étape 034</name>
    <desc><![CDATA[Étape 034]]></desc>
  </metadata>
  <trk>
    <name><![CDATA[Tour d'Europe: étape 034]]></name>
    <trkseg>
      <trkpt lat="62.47239" lon="6.8132">
        <ele>72.944351</ele>
        <time>2020-08-01T07:03:43.599Z</time>
      </trkpt>
      <trkpt lat="62.47242" lon="6.81296">
        <ele>72.944351</ele>
        <time>2020-08-01T07:03:46.601Z</time>
      </trkpt>
      <trkpt lat="62.47245" lon="6.81274">
        <ele>72.944351</ele>
        <time>2020-08-01T07:03:49.611Z</time>
      </trkpt>
      <trkpt lat="62.47253" lon="6.81268">
        <ele>72.944351</ele>
        <time>2020-08-01T07:03:55.598Z</time>
      </trkpt>
      <trkpt lat="62.47261" lon="6.8128">
        <ele>72.944351</ele>
        <time>2020-08-01T07:04:01.615Z</time>
      </trkpt>
      <trkpt lat="62.47269" lon="6.81291">
        <ele>72.944351</ele>
        <time>2020-08-01T07:04:07.584Z</time>
      </trkpt>
      <trkpt lat="62.47277" lon="6.81306">
        <ele>72.944351</ele>
        <time>2020-08-01T07:04:14.591Z</time>
      </trkpt>
      <trkpt lat="62.47283" lon="6.81321">
        <ele>72.944351</ele>
        <time>2020-08-01T07:04:20.609Z</time>
      </trkpt>
      <trkpt lat="62.47288" lon="6.8134">
        <ele>72.944351</ele>
        <time>2020-08-01T07:04:27.588Z</time>
      </trkpt>
      <trkpt lat="62.47291" lon="6.81359">
        <ele>72.944351</ele>
        <time>2020-08-01T07:04:35.608Z</time>
      </trkpt>
      <trkpt lat="62.47292" lon="6.81379">
        <ele>73.278758</ele>
        <time>2020-08-01T07:04:40.591Z</time>
      </trkpt>
      <trkpt lat="62.47294" lon="6.81399">
        <ele>73.666645</ele>
        <time>2020-08-01T07:04:47.647Z</time>
      </trkpt>
      <trkpt lat="62.47294" lon="6.81422">
        <ele>74.093317</ele>
        <time>2020-08-01T07:04:53.604Z</time>
      </trkpt>
      <trkpt lat="62.47293" lon="6.81444">
        <ele>74.506336</ele>
        <time>2020-08-01T07:04:58.584Z</time>
      </trkpt>
      <trkpt lat="62.47291" lon="6.81463">
        <ele>74.873841</ele>
        <time>2020-08-01T07:05:03.586Z</time>
      </trkpt>
      <trkpt lat="62.47301" lon="6.81489">
        <ele>75.509763</ele>
        <time>2020-08-01T07:06:54.621Z</time>
      </trkpt>
      <trkpt lat="62.47305" lon="6.81506">
        <ele>75.881294</ele>
        <time>2020-08-01T07:07:00.588Z</time>
      </trkpt>
      <trkpt lat="62.4731" lon="6.81525">
        <ele>76.297859</ele>
        <time>2020-08-01T07:07:06.626Z</time>
      </trkpt>
      <trkpt lat="62.47318" lon="6.81539">
        <ele>76.714149</ele>
        <time>2020-08-01T07:07:11.640Z</time>
      </trkpt>
      <trkpt lat="62.47328" lon="6.81548">
        <ele>77.124396</ele>
        <time>2020-08-01T07:07:15.599Z</time>
      </trkpt>
      <trkpt lat="62.47336" lon="6.81554">
        <ele>77.495153</ele>
        <time>2020-08-01T07:07:18.593Z</time>
      </trkpt>
      <trkpt lat="62.47348" lon="6.81565">
        <ele>78.024311</ele>
        <time>2020-08-01T07:07:21.589Z</time>
      </trkpt>
      <trkpt lat="62.47359" lon="6.81577">
        <ele>78.521992</ele>
        <time>2020-08-01T07:07:23.591Z</time>
      </trkpt>
      <trkpt lat="62.47372" lon="6.81595">
        <ele>79.142573</ele>
        <time>2020-08-01T07:07:25.592Z</time>
      </trkpt>
      <trkpt lat="62.47385" lon="6.81617">
        <ele>79.83105</ele>
        <time>2020-08-01T07:07:27.620Z</time>
      </trkpt>
      <trkpt lat="62.47399" lon="6.81642">
        <ele>79.8286</ele>
        <time>2020-08-01T07:07:29.615Z</time>
      </trkpt>
      <trkpt lat="62.47406" lon="6.81654">
        <ele>79.292036</ele>
        <time>2020-08-01T07:07:30.628Z</time>
      </trkpt>
      <trkpt lat="62.47414" lon="6.81667">
        <ele>78.737319</ele>
        <time>2020-08-01T07:07:31.622Z</time>
      </trkpt>
      <trkpt lat="62.47422" lon="6.81678">
        <ele>78.194098</ele>
        <time>2020-08-01T07:07:32.605Z</time>
      </trkpt>
      <trkpt lat="62.47431" lon="6.81686">
        <ele>77.612719</ele>
        <time>2020-08-01T07:07:33.611Z</time>
      </trkpt>
      <trkpt lat="62.47442" lon="6.81693">
        <ele>76.967147</ele>
        <time>2020-08-01T07:07:34.642Z</time>
      </trkpt>
      <trkpt lat="62.47454" lon="6.81697">
        <ele>76.279123</ele>
        <time>2020-08-01T07:07:35.588Z</time>
      </trkpt>
      <trkpt lat="62.47466" lon="6.81699">
        <ele>75.586901</ele>
        <time>2020-08-01T07:07:36.635Z</time>
      </trkpt>
      <trkpt lat="62.47478" lon="6.81701">
        <ele>74.878865</ele>
        <time>2020-08-01T07:07:37.607Z</time>
      </trkpt>
      <trkpt lat="62.4749" lon="6.81702">
        <ele>74.18274</ele>
        <time>2020-08-01T07:07:38.621Z</time>
      </trkpt>
      <trkpt lat="62.47502" lon="6.81704">
        <ele>73.492068</ele>
        <time>2020-08-01T07:07:39.586Z</time>
      </trkpt>
      <trkpt lat="62.47514" lon="6.81706">
        <ele>72.806804</ele>
        <time>2020-08-01T07:07:40.618Z</time>
      </trkpt>
      <trkpt lat="62.47526" lon="6.81708">
        <ele>72.142685</ele>
        <time>2020-08-01T07:07:41.617Z</time>
      </trkpt>
      <trkpt lat="62.47536" lon="6.8171">
        <ele>71.530812</ele>
        <time>2020-08-01T07:07:42.598Z</time>
      </trkpt>
      <trkpt lat="62.47546" lon="6.81712">
        <ele>70.964947</ele>
        <time>2020-08-01T07:07:43.609Z</time>
      </trkpt>
      <trkpt lat="62.47563" lon="6.81715">
        <ele>70.008613</ele>
        <time>2020-08-01T07:07:45.591Z</time>
      </trkpt>
      <trkpt lat="62.47576" lon="6.81716">
        <ele>68.816308</ele>
        <time>2020-08-01T07:07:47.609Z</time>
      </trkpt>
      <trkpt lat="62.47589" lon="6.81718">
        <ele>67.635985</ele>
        <time>2020-08-01T07:07:49.592Z</time>
      </trkpt>
      <trkpt lat="62.47603" lon="6.81716">
        <ele>66.249862</ele>
        <time>2020-08-01T07:07:51.601Z</time>
      </trkpt>
      <trkpt lat="62.4762" lon="6.81707">
        <ele>64.666838</ele>
        <time>2020-08-01T07:07:53.602Z</time>
      </trkpt>
      <trkpt lat="62.47629" lon="6.81702">
        <ele>63.832603</ele>
        <time>2020-08-01T07:07:54.592Z</time>
      </trkpt>
      <trkpt lat="62.47638" lon="6.81699">
        <ele>62.926297</ele>
        <time>2020-08-01T07:07:55.627Z</time>
      </trkpt>
      <trkpt lat="62.47648" lon="6.81698">
        <ele>61.991133</ele>
        <time>2020-08-01T07:07:56.606Z</time>
      </trkpt>
      <trkpt lat="62.47658" lon="6.81697">
        <ele>61.037752</ele>
        <time>2020-08-01T07:07:57.609Z</time>
      </trkpt>
      <trkpt lat="62.47668" lon="6.81697">
        <ele>60.159877</ele>
        <time>2020-08-01T07:07:58.613Z</time>
      </trkpt>
      <trkpt lat="62.47682" lon="6.81697">
        <ele>58.852477</ele>
        <time>2020-08-01T07:08:00.591Z</time>
      </trkpt>
      <trkpt lat="62.47693" lon="6.81698">
        <ele>57.796931</ele>
        <time>2020-08-01T07:08:03.603Z</time>
      </trkpt>
      <trkpt lat="62.47703" lon="6.81699">
        <ele>56.833014</ele>
        <time>2020-08-01T07:08:06.599Z</time>
      </trkpt>
      <trkpt lat="62.47713" lon="6.81701">
        <ele>55.969659</ele>
        <time>2020-08-01T07:08:09.613Z</time>
      </trkpt>
      <trkpt lat="62.47723" lon="6.817">
        <ele>54.951154</ele>
        <time>2020-08-01T07:08:14.581Z</time>
      </trkpt>
      <trkpt lat="62.47734" lon="6.81699">
        <ele>53.995929</ele>
        <time>2020-08-01T07:08:18.586Z</time>
      </trkpt>
      <trkpt lat="62.47745" lon="6.81699">
        <ele>53.089909</ele>
        <time>2020-08-01T07:08:22.627Z</time>
      </trkpt>
      <trkpt lat="62.47756" lon="6.81698">
        <ele>52.923128</ele>
        <time>2020-08-01T07:08:26.593Z</time>
      </trkpt>
      <trkpt lat="62.47765" lon="6.81702">
        <ele>52.786648</ele>
        <time>2020-08-01T07:08:29.588Z</time>
      </trkpt>
      <trkpt lat="62.47776" lon="6.81707">
        <ele>52.62136</ele>
        <time>2020-08-01T07:08:33.611Z</time>
      </trkpt>
      <trkpt lat="62.47787" lon="6.81714">
        <ele>52.460266</ele>
        <time>2020-08-01T07:08:37.606Z</time>
      </trkpt>
      <trkpt lat="62.47797" lon="6.81725">
        <ele>52.288749</ele>
        <time>2020-08-01T07:08:41.585Z</time>
      </trkpt>
      <trkpt lat="62.47806" lon="6.81737">
        <ele>52.128627</ele>
        <time>2020-08-01T07:08:45.603Z</time>
      </trkpt>
      <trkpt lat="62.47816" lon="6.81751">
        <ele>51.957457</ele>
        <time>2020-08-01T07:08:49.605Z</time>
      </trkpt>
      <trkpt lat="62.47826" lon="6.81766">
        <ele>51.784741</ele>
        <time>2020-08-01T07:08:53.632Z</time>
      </trkpt>
      <trkpt lat="62.47834" lon="6.81776">
        <ele>51.637783</ele>
        <time>2020-08-01T07:08:56.597Z</time>
      </trkpt>
      <trkpt lat="62.47843" lon="6.81771">
        <ele>51.502127</ele>
        <time>2020-08-01T07:08:59.600Z</time>
      </trkpt>
      <trkpt lat="62.47849" lon="6.81753">
        <ele>51.352528</ele>
        <time>2020-08-01T07:09:02.597Z</time>
      </trkpt>
      <trkpt lat="62.47853" lon="6.81731">
        <ele>51.190979</ele>
        <time>2020-08-01T07:09:05.578Z</time>
      </trkpt>
      <trkpt lat="62.47859" lon="6.8171">
        <ele>51.023049</ele>
        <time>2020-08-01T07:09:09.593Z</time>
      </trkpt>
      <trkpt lat="62.47863" lon="6.81691">
        <ele>50.879723</ele>
        <time>2020-08-01T07:09:12.618Z</time>
      </trkpt>
      <trkpt lat="62.4787" lon="6.81668">
        <ele>50.699961</ele>
        <time>2020-08-01T07:09:15.601Z</time>
      </trkpt>
      <trkpt lat="62.47875" lon="6.81644">
        <ele>50.513069</ele>
        <time>2020-08-01T07:09:18.587Z</time>
      </trkpt>
      <trkpt lat="62.47878" lon="6.81621">
        <ele>50.501154</ele>
        <time>2020-08-01T07:09:21.596Z</time>
      </trkpt>
      <trkpt lat="62.47881" lon="6.81598">
        <ele>50.554364</ele>
        <time>2020-08-01T07:09:24.596Z</time>
      </trkpt>
      <trkpt lat="62.47885" lon="6.81574">
        <ele>50.610832</ele>
        <time>2020-08-01T07:09:27.585Z</time>
      </trkpt>
      <trkpt lat="62.4789" lon="6.81549">
        <ele>50.671926</ele>
        <time>2020-08-01T07:09:30.599Z</time>
      </trkpt>
      <trkpt lat="62.47894" lon="6.81524">
        <ele>50.731845</ele>
        <time>2020-08-01T07:09:33.587Z</time>
      </trkpt>
      <trkpt lat="62.47897" lon="6.81496">
        <ele>50.795097</ele>
        <time>2020-08-01T07:09:36.601Z</time>
      </trkpt>
      <trkpt lat="62.479" lon="6.81468">
        <ele>50.857952</ele>
        <time>2020-08-01T07:09:39.591Z</time>
      </trkpt>
      <trkpt lat="62.47902" lon="6.81441">
        <ele>50.920545</ele>
        <time>2020-08-01T07:09:42.573Z</time>
      </trkpt>
      <trkpt lat="62.4791" lon="6.81418">
        <ele>50.98179</ele>
        <time>2020-08-01T07:09:45.581Z</time>
      </trkpt>
      <trkpt lat="62.47921" lon="6.8141">
        <ele>51.040927</ele>
        <time>2020-08-01T07:09:48.585Z</time>
      </trkpt>
      <trkpt lat="62.47931" lon="6.81407">
        <ele>51.087265</ele>
        <time>2020-08-01T07:09:51.581Z</time>
      </trkpt>
      <trkpt lat="62.47941" lon="6.81406">
        <ele>51.138866</ele>
        <time>2020-08-01T07:09:55.598Z</time>
      </trkpt>
      <trkpt lat="62.47951" lon="6.81405">
        <ele>51.183756</ele>
        <time>2020-08-01T07:09:58.577Z</time>
      </trkpt>
      <trkpt lat="62.4796" lon="6.81407">
        <ele>51.227742</ele>
        <time>2020-08-01T07:10:01.670Z</time>
      </trkpt>
      <trkpt lat="62.47972" lon="6.81404">
        <ele>51.284844</ele>
        <time>2020-08-01T07:10:05.607Z</time>
      </trkpt>
      <trkpt lat="62.47983" lon="6.81404">
        <ele>51.393274</ele>
        <time>2020-08-01T07:10:08.595Z</time>
      </trkpt>
      <trkpt lat="62.47992" lon="6.81402">
        <ele>51.649268</ele>
        <time>2020-08-01T07:10:10.610Z</time>
      </trkpt>
      <trkpt lat="62.48002" lon="6.81402">
        <ele>51.921814</ele>
        <time>2020-08-01T07:10:12.621Z</time>
      </trkpt>
      <trkpt lat="62.48013" lon="6.81403">
        <ele>52.219954</ele>
        <time>2020-08-01T07:10:14.592Z</time>
      </trkpt>
      <trkpt lat="62.48022" lon="6.81404">
        <ele>52.490197</ele>
        <time>2020-08-01T07:10:16.587Z</time>
      </trkpt>
      <trkpt lat="62.48032" lon="6.81405">
        <ele>52.766107</ele>
        <time>2020-08-01T07:10:18.599Z</time>
      </trkpt>
      <trkpt lat="62.48042" lon="6.81406">
        <ele>53.0502</ele>
        <time>2020-08-01T07:10:20.580Z</time>
      </trkpt>
      <trkpt lat="62.48051" lon="6.81407">
        <ele>53.317146</ele>
        <time>2020-08-01T07:10:22.591Z</time>
      </trkpt>
      <trkpt lat="62.48063" lon="6.81407">
        <ele>53.666462</ele>
        <time>2020-08-01T07:10:25.596Z</time>
      </trkpt>
      <trkpt lat="62.48075" lon="6.81407">
        <ele>54.007151</ele>
        <time>2020-08-01T07:10:28.638Z</time>
      </trkpt>
      <trkpt lat="62.48087" lon="6.81406">
        <ele>54.342809</ele>
        <time>2020-08-01T07:10:31.590Z</time>
      </trkpt>
      <trkpt lat="62.48098" lon="6.81402">
        <ele>54.65492</ele>
        <time>2020-08-01T07:10:34.603Z</time>
      </trkpt>
      <trkpt lat="62.48111" lon="6.81398">
        <ele>55.02567</ele>
        <time>2020-08-01T07:10:37.619Z</time>
      </trkpt>
      <trkpt lat="62.48125" lon="6.81397">
        <ele>55.412149</ele>
        <time>2020-08-01T07:10:40.609Z</time>
      </trkpt>
      <trkpt lat="62.48138" lon="6.81397">
        <ele>55.78414</ele>
        <time>2020-08-01T07:10:43.605Z</time>
      </trkpt>
      <trkpt lat="62.4815" lon="6.81398">
        <ele>56.119205</ele>
        <time>2020-08-01T07:10:46.583Z</time>
      </trkpt>
      <trkpt lat="62.48161" lon="6.81399">
        <ele>56.43221</ele>
        <time>2020-08-01T07:10:49.593Z</time>
      </trkpt>
      <trkpt lat="62.48172" lon="6.81398">
        <ele>56.295898</ele>
        <time>2020-08-01T07:10:52.593Z</time>
      </trkpt>
      <trkpt lat="62.48182" lon="6.81398">
        <ele>56.153407</ele>
        <time>2020-08-01T07:10:55.594Z</time>
      </trkpt>
      <trkpt lat="62.48193" lon="6.81397">
        <ele>56.012099</ele>
        <time>2020-08-01T07:10:58.600Z</time>
      </trkpt>
      <trkpt lat="62.48204" lon="6.81396">
        <ele>55.87079</ele>
        <time>2020-08-01T07:11:01.588Z</time>
      </trkpt>
      <trkpt lat="62.48213" lon="6.81389">
        <ele>55.74047</ele>
        <time>2020-08-01T07:11:04.633Z</time>
      </trkpt>
      <trkpt lat="62.48223" lon="6.81375">
        <ele>55.589419</ele>
        <time>2020-08-01T07:11:08.609Z</time>
      </trkpt>
      <trkpt lat="62.48231" lon="6.81366">
        <ele>55.468981</ele>
        <time>2020-08-01T07:11:11.621Z</time>
      </trkpt>
      <trkpt lat="62.4824" lon="6.81359">
        <ele>55.348493</ele>
        <time>2020-08-01T07:11:14.600Z</time>
      </trkpt>
      <trkpt lat="62.48252" lon="6.81357">
        <ele>55.194646</ele>
        <time>2020-08-01T07:11:17.582Z</time>
      </trkpt>
      <trkpt lat="62.48265" lon="6.81355">
        <ele>55.02711</ele>
        <time>2020-08-01T07:11:20.605Z</time>
      </trkpt>
      <trkpt lat="62.48275" lon="6.81365">
        <ele>54.874545</ele>
        <time>2020-08-01T07:11:23.593Z</time>
      </trkpt>
      <trkpt lat="62.48285" lon="6.81369">
        <ele>54.745257</ele>
        <time>2020-08-01T07:11:27.604Z</time>
      </trkpt>
      <trkpt lat="62.48293" lon="6.81383">
        <ele>54.615853</ele>
        <time>2020-08-01T07:11:34.601Z</time>
      </trkpt>
      <trkpt lat="62.48301" lon="6.814">
        <ele>54.46989</ele>
        <time>2020-08-01T07:11:38.609Z</time>
      </trkpt>
      <trkpt lat="62.48305" lon="6.81424">
        <ele>54.311451</ele>
        <time>2020-08-01T07:11:42.605Z</time>
      </trkpt>
      <trkpt lat="62.48308" lon="6.81443">
        <ele>54.193725</ele>
        <time>2020-08-01T07:11:45.585Z</time>
      </trkpt>
      <trkpt lat="62.4831" lon="6.81462">
        <ele>54.136419</ele>
        <time>2020-08-01T07:11:48.591Z</time>
      </trkpt>
      <trkpt lat="62.48315" lon="6.81483">
        <ele>54.712683</ele>
        <time>2020-08-01T07:11:52.588Z</time>
      </trkpt>
      <trkpt lat="62.48325" lon="6.81494">
        <ele>55.266995</ele>
        <time>2020-08-01T07:11:56.606Z</time>
      </trkpt>
      <trkpt lat="62.48336" lon="6.81489">
        <ele>55.835835</ele>
        <time>2020-08-01T07:12:00.591Z</time>
      </trkpt>
      <trkpt lat="62.48344" lon="6.81477">
        <ele>56.372513</ele>
        <time>2020-08-01T07:12:04.618Z</time>
      </trkpt>
      <trkpt lat="62.4835" lon="6.8146">
        <ele>56.882984</ele>
        <time>2020-08-01T07:12:09.588Z</time>
      </trkpt>
      <trkpt lat="62.48353" lon="6.81437">
        <ele>57.447522</ele>
        <time>2020-08-01T07:12:15.592Z</time>
      </trkpt>
      <trkpt lat="62.48355" lon="6.81415">
        <ele>57.986286</ele>
        <time>2020-08-01T07:12:21.618Z</time>
      </trkpt>
      <trkpt lat="62.48357" lon="6.81394">
        <ele>58.492531</ele>
        <time>2020-08-01T07:12:27.599Z</time>
      </trkpt>
      <trkpt lat="62.48358" lon="6.81375">
        <ele>58.967135</ele>
        <time>2020-08-01T07:12:33.607Z</time>
      </trkpt>
      <trkpt lat="62.48359" lon="6.81353">
        <ele>59.493087</ele>
        <time>2020-08-01T07:12:39.590Z</time>
      </trkpt>
      <trkpt lat="62.48359" lon="6.81334">
        <ele>59.958962</ele>
        <time>2020-08-01T07:12:45.610Z</time>
      </trkpt>
      <trkpt lat="62.4836" lon="6.81312">
        <ele>60.49081</ele>
        <time>2020-08-01T07:12:52.603Z</time>
      </trkpt>
      <trkpt lat="62.48359" lon="6.81291">
        <ele>60.986912</ele>
        <time>2020-08-01T07:12:58.595Z</time>
      </trkpt>
      <trkpt lat="62.4836" lon="6.81272">
        <ele>61.454522</ele>
        <time>2020-08-01T07:13:04.599Z</time>
      </trkpt>
      <trkpt lat="62.4836" lon="6.81252">
        <ele>61.932539</ele>
        <time>2020-08-01T07:13:10.598Z</time>
      </trkpt>
      <trkpt lat="62.48361" lon="6.81232">
        <ele>62.406213</ele>
        <time>2020-08-01T07:13:16.598Z</time>
      </trkpt>
      <trkpt lat="62.48362" lon="6.81213">
        <ele>62.879974</ele>
        <time>2020-08-01T07:13:22.591Z</time>
      </trkpt>
      <trkpt lat="62.48363" lon="6.8119">
        <ele>63.418659</ele>
        <time>2020-08-01T07:13:30.589Z</time>
      </trkpt>
      <trkpt lat="62.48364" lon="6.81169">
        <ele>64.488316</ele>
        <time>2020-08-01T07:13:37.617Z</time>
      </trkpt>
      <trkpt lat="62.48365" lon="6.81147">
        <ele>65.560122</ele>
        <time>2020-08-01T07:13:45.590Z</time>
      </trkpt>
      <trkpt lat="62.48366" lon="6.81126">
        <ele>66.595197</ele>
        <time>2020-08-01T07:13:52.581Z</time>
      </trkpt>
      <trkpt lat="62.48366" lon="6.81106">
        <ele>67.576513</ele>
        <time>2020-08-01T07:13:59.611Z</time>
      </trkpt>
      <trkpt lat="62.48365" lon="6.81084">
        <ele>68.654785</ele>
        <time>2020-08-01T07:14:07.604Z</time>
      </trkpt>
      <trkpt lat="62.48365" lon="6.81064">
        <ele>69.664958</ele>
        <time>2020-08-01T07:14:14.588Z</time>
      </trkpt>
      <trkpt lat="62.48364" lon="6.81044">
        <ele>70.664936</ele>
        <time>2020-08-01T07:14:22.593Z</time>
      </trkpt>
      <trkpt lat="62.48361" lon="6.81025">
        <ele>71.627387</ele>
        <time>2020-08-01T07:14:29.591Z</time>
      </trkpt>
      <trkpt lat="62.48359" lon="6.81004">
        <ele>72.721893</ele>
        <time>2020-08-01T07:14:37.599Z</time>
      </trkpt>
      <trkpt lat="62.48357" lon="6.80983">
        <ele>73.780434</ele>
        <time>2020-08-01T07:14:45.583Z</time>
      </trkpt>
      <trkpt lat="62.48357" lon="6.80963">
        <ele>74.767193</ele>
        <time>2020-08-01T07:14:52.609Z</time>
      </trkpt>
      <trkpt lat="62.48362" lon="6.80946">
        <ele>75.75343</ele>
        <time>2020-08-01T07:14:59.628Z</time>
      </trkpt>
      <trkpt lat="62.4837" lon="6.80937">
        <ele>76.740605</ele>
        <time>2020-08-01T07:15:06.602Z</time>
      </trkpt>
      <trkpt lat="62.48379" lon="6.8094">
        <ele>77.722178</ele>
        <time>2020-08-01T07:15:13.587Z</time>
      </trkpt>
      <trkpt lat="62.48386" lon="6.80955">
        <ele>78.717806</ele>
        <time>2020-08-01T07:15:22.590Z</time>
      </trkpt>
      <trkpt lat="62.48392" lon="6.80971">
        <ele>79.74661</ele>
        <time>2020-08-01T07:15:30.591Z</time>
      </trkpt>
      <trkpt lat="62.48398" lon="6.80984">
        <ele>80.709396</ele>
        <time>2020-08-01T07:15:37.604Z</time>
      </trkpt>
      <trkpt lat="62.48404" lon="6.81">
        <ele>81.73614</ele>
        <time>2020-08-01T07:15:45.597Z</time>
      </trkpt>
      <trkpt lat="62.48411" lon="6.81015">
        <ele>82.717234</ele>
        <time>2020-08-01T07:15:53.628Z</time>
      </trkpt>
      <trkpt lat="62.48417" lon="6.81031">
        <ele>83.550872</ele>
        <time>2020-08-01T07:16:00.610Z</time>
      </trkpt>
      <trkpt lat="62.48423" lon="6.81046">
        <ele>84.454229</ele>
        <time>2020-08-01T07:16:08.630Z</time>
      </trkpt>
      <trkpt lat="62.48429" lon="6.81063">
        <ele>85.348652</ele>
        <time>2020-08-01T07:16:16.643Z</time>
      </trkpt>
      <trkpt lat="62.48435" lon="6.81078">
        <ele>86.190374</ele>
        <time>2020-08-01T07:16:24.580Z</time>
      </trkpt>
      <trkpt lat="62.48441" lon="6.81094">
        <ele>87.031436</ele>
        <time>2020-08-01T07:16:32.615Z</time>
      </trkpt>
      <trkpt lat="62.48445" lon="6.81113">
        <ele>87.899426</ele>
        <time>2020-08-01T07:16:40.619Z</time>
      </trkpt>
      <trkpt lat="62.4845" lon="6.81129">
        <ele>88.720725</ele>
        <time>2020-08-01T07:16:48.586Z</time>
      </trkpt>
      <trkpt lat="62.48456" lon="6.81146">
        <ele>89.628863</ele>
        <time>2020-08-01T07:16:56.623Z</time>
      </trkpt>
      <trkpt lat="62.48462" lon="6.81163">
        <ele>90.529204</ele>
        <time>2020-08-01T07:17:03.597Z</time>
      </trkpt>
      <trkpt lat="62.48466" lon="6.81181">
        <ele>91.382736</ele>
        <time>2020-08-01T07:17:10.577Z</time>
      </trkpt>
      <trkpt lat="62.4847" lon="6.812">
        <ele>92.252758</ele>
        <time>2020-08-01T07:17:18.597Z</time>
      </trkpt>
      <trkpt lat="62.48476" lon="6.81218">
        <ele>93.179505</ele>
        <time>2020-08-01T07:17:26.604Z</time>
      </trkpt>
      <trkpt lat="62.48482" lon="6.81234">
        <ele>94.04357</ele>
        <time>2020-08-01T07:17:34.587Z</time>
      </trkpt>
      <trkpt lat="62.48492" lon="6.81238">
        <ele>94.95076</ele>
        <time>2020-08-01T07:17:41.606Z</time>
      </trkpt>
      <trkpt lat="62.48502" lon="6.81239">
        <ele>95.872566</ele>
        <time>2020-08-01T07:17:49.596Z</time>
      </trkpt>
      <trkpt lat="62.4851" lon="6.81231">
        <ele>96.697881</ele>
        <time>2020-08-01T07:17:57.586Z</time>
      </trkpt>
      <trkpt lat="62.48513" lon="6.8121">
        <ele>97.626322</ele>
        <time>2020-08-01T07:18:05.592Z</time>
      </trkpt>
      <trkpt lat="62.48518" lon="6.81191">
        <ele>98.5211</ele>
        <time>2020-08-01T07:18:12.642Z</time>
      </trkpt>
      <trkpt lat="62.48521" lon="6.81173">
        <ele>99.278598</ele>
        <time>2020-08-01T07:18:19.587Z</time>
      </trkpt>
      <trkpt lat="62.48528" lon="6.81158">
        <ele>99.919847</ele>
        <time>2020-08-01T07:18:26.598Z</time>
      </trkpt>
      <trkpt lat="62.48537" lon="6.81152">
        <ele>100.587273</ele>
        <time>2020-08-01T07:18:33.600Z</time>
      </trkpt>
      <trkpt lat="62.48544" lon="6.81168">
        <ele>101.260937</ele>
        <time>2020-08-01T07:18:40.592Z</time>
      </trkpt>
      <trkpt lat="62.48545" lon="6.81188">
        <ele>101.89876</ele>
        <time>2020-08-01T07:18:47.602Z</time>
      </trkpt>
      <trkpt lat="62.48544" lon="6.8121">
        <ele>102.579948</ele>
        <time>2020-08-01T07:18:54.582Z</time>
      </trkpt>
      <trkpt lat="62.48541" lon="6.81228">
        <ele>103.195811</ele>
        <time>2020-08-01T07:18:59.607Z</time>
      </trkpt>
      <trkpt lat="62.4854" lon="6.81248">
        <ele>103.847055</ele>
        <time>2020-08-01T07:19:04.598Z</time>
      </trkpt>
      <trkpt lat="62.48538" lon="6.81271">
        <ele>104.573532</ele>
        <time>2020-08-01T07:19:10.581Z</time>
      </trkpt>
      <trkpt lat="62.48537" lon="6.81291">
        <ele>105.211203</ele>
        <time>2020-08-01T07:19:16.617Z</time>
      </trkpt>
      <trkpt lat="62.48535" lon="6.81311">
        <ele>105.854062</ele>
        <time>2020-08-01T07:19:22.602Z</time>
      </trkpt>
      <trkpt lat="62.48534" lon="6.81332">
        <ele>106.514693</ele>
        <time>2020-08-01T07:19:29.583Z</time>
      </trkpt>
      <trkpt lat="62.48531" lon="6.81352">
        <ele>107.166509</ele>
        <time>2020-08-01T07:19:36.606Z</time>
      </trkpt>
      <trkpt lat="62.4853" lon="6.81372">
        <ele>107.815294</ele>
        <time>2020-08-01T07:19:43.581Z</time>
      </trkpt>
      <trkpt lat="62.48529" lon="6.81394">
        <ele>108.525001</ele>
        <time>2020-08-01T07:19:51.589Z</time>
      </trkpt>
      <trkpt lat="62.48528" lon="6.81415">
        <ele>109.20085</ele>
        <time>2020-08-01T07:19:58.626Z</time>
      </trkpt>
      <trkpt lat="62.48527" lon="6.81437">
        <ele>109.882608</ele>
        <time>2020-08-01T07:20:06.598Z</time>
      </trkpt>
      <trkpt lat="62.48527" lon="6.81458">
        <ele>110.538547</ele>
        <time>2020-08-01T07:20:14.584Z</time>
      </trkpt>
      <trkpt lat="62.4853" lon="6.81479">
        <ele>111.237072</ele>
        <time>2020-08-01T07:20:21.600Z</time>
      </trkpt>
      <trkpt lat="62.48534" lon="6.81498">
        <ele>112.042334</ele>
        <time>2020-08-01T07:20:29.603Z</time>
      </trkpt>
      <trkpt lat="62.48538" lon="6.81516">
        <ele>112.826402</ele>
        <time>2020-08-01T07:20:36.602Z</time>
      </trkpt>
      <trkpt lat="62.48544" lon="6.81531">
        <ele>113.594698</ele>
        <time>2020-08-01T07:20:43.588Z</time>
      </trkpt>
      <trkpt lat="62.48552" lon="6.81542">
        <ele>114.418781</ele>
        <time>2020-08-01T07:20:50.572Z</time>
      </trkpt>
      <trkpt lat="62.4856" lon="6.81549">
        <ele>115.205823</ele>
        <time>2020-08-01T07:20:56.609Z</time>
      </trkpt>
      <trkpt lat="62.4857" lon="6.8155">
        <ele>115.999976</ele>
        <time>2020-08-01T07:21:03.620Z</time>
      </trkpt>
      <trkpt lat="62.48579" lon="6.81542">
        <ele>116.828926</ele>
        <time>2020-08-01T07:21:11.583Z</time>
      </trkpt>
      <trkpt lat="62.48585" lon="6.81527">
        <ele>117.605357</ele>
        <time>2020-08-01T07:21:19.585Z</time>
      </trkpt>
      <trkpt lat="62.48591" lon="6.81509">
        <ele>118.501538</ele>
        <time>2020-08-01T07:21:27.579Z</time>
      </trkpt>
      <trkpt lat="62.48596" lon="6.81492">
        <ele>119.311793</ele>
        <time>2020-08-01T07:21:33.593Z</time>
      </trkpt>
      <trkpt lat="62.486" lon="6.81472">
        <ele>120.163974</ele>
        <time>2020-08-01T07:21:40.597Z</time>
      </trkpt>
      <trkpt lat="62.48605" lon="6.81455">
        <ele>120.959709</ele>
        <time>2020-08-01T07:21:47.598Z</time>
      </trkpt>
      <trkpt lat="62.48609" lon="6.81434">
        <ele>121.827546</ele>
        <time>2020-08-01T07:21:55.597Z</time>
      </trkpt>
      <trkpt lat="62.48613" lon="6.81415">
        <ele>122.661588</ele>
        <time>2020-08-01T07:22:02.574Z</time>
      </trkpt>
      <trkpt lat="62.48617" lon="6.81397">
        <ele>123.456315</ele>
        <time>2020-08-01T07:22:09.595Z</time>
      </trkpt>
      <trkpt lat="62.4862" lon="6.81377">
        <ele>124.295616</ele>
        <time>2020-08-01T07:22:17.603Z</time>
      </trkpt>
      <trkpt lat="62.48621" lon="6.81356">
        <ele>125.119365</ele>
        <time>2020-08-01T07:22:25.628Z</time>
      </trkpt>
      <trkpt lat="62.48624" lon="6.81335">
        <ele>125.984999</ele>
        <time>2020-08-01T07:22:34.618Z</time>
      </trkpt>
      <trkpt lat="62.48626" lon="6.81314">
        <ele>126.826102</ele>
        <time>2020-08-01T07:22:42.596Z</time>
      </trkpt>
      <trkpt lat="62.48628" lon="6.81293">
        <ele>127.631531</ele>
        <time>2020-08-01T07:22:49.608Z</time>
      </trkpt>
      <trkpt lat="62.48632" lon="6.81272">
        <ele>128.434887</ele>
        <time>2020-08-01T07:22:56.601Z</time>
      </trkpt>
      <trkpt lat="62.48636" lon="6.81254">
        <ele>129.181798</ele>
        <time>2020-08-01T07:23:04.587Z</time>
      </trkpt>
      <trkpt lat="62.48639" lon="6.81235">
        <ele>129.93048</ele>
        <time>2020-08-01T07:23:12.587Z</time>
      </trkpt>
      <trkpt lat="62.48641" lon="6.81214">
        <ele>130.715017</ele>
        <time>2020-08-01T07:23:19.614Z</time>
      </trkpt>
      <trkpt lat="62.48645" lon="6.81195">
        <ele>131.471758</ele>
        <time>2020-08-01T07:23:26.593Z</time>
      </trkpt>
      <trkpt lat="62.4865" lon="6.81178">
        <ele>132.212531</ele>
        <time>2020-08-01T07:23:34.605Z</time>
      </trkpt>
      <trkpt lat="62.48656" lon="6.81163">
        <ele>132.967667</ele>
        <time>2020-08-01T07:23:41.624Z</time>
      </trkpt>
      <trkpt lat="62.48664" lon="6.81149">
        <ele>133.755477</ele>
        <time>2020-08-01T07:23:48.598Z</time>
      </trkpt>
      <trkpt lat="62.48672" lon="6.81137">
        <ele>134.522157</ele>
        <time>2020-08-01T07:23:55.579Z</time>
      </trkpt>
      <trkpt lat="62.4868" lon="6.81128">
        <ele>135.255266</ele>
        <time>2020-08-01T07:24:02.581Z</time>
      </trkpt>
      <trkpt lat="62.48689" lon="6.81121">
        <ele>136.009356</ele>
        <time>2020-08-01T07:24:11.589Z</time>
      </trkpt>
      <trkpt lat="62.48698" lon="6.8112">
        <ele>136.74478</ele>
        <time>2020-08-01T07:24:19.589Z</time>
      </trkpt>
      <trkpt lat="62.48708" lon="6.81123">
        <ele>137.534806</ele>
        <time>2020-08-01T07:24:27.583Z</time>
      </trkpt>
      <trkpt lat="62.48718" lon="6.81124">
        <ele>138.357602</ele>
        <time>2020-08-01T07:24:34.615Z</time>
      </trkpt>
      <trkpt lat="62.48728" lon="6.81129">
        <ele>139.156719</ele>
        <time>2020-08-01T07:24:42.579Z</time>
      </trkpt>
      <trkpt lat="62.48737" lon="6.81136">
        <ele>139.943522</ele>
        <time>2020-08-01T07:24:50.594Z</time>
      </trkpt>
      <trkpt lat="62.48745" lon="6.81144">
        <ele>140.668326</ele>
        <time>2020-08-01T07:24:57.638Z</time>
      </trkpt>
      <trkpt lat="62.48754" lon="6.8115">
        <ele>141.444429</ele>
        <time>2020-08-01T07:25:05.580Z</time>
      </trkpt>
      <trkpt lat="62.48763" lon="6.81155">
        <ele>142.236288</ele>
        <time>2020-08-01T07:25:12.609Z</time>
      </trkpt>
      <trkpt lat="62.48773" lon="6.81161">
        <ele>143.102439</ele>
        <time>2020-08-01T07:25:20.606Z</time>
      </trkpt>
      <trkpt lat="62.48781" lon="6.81169">
        <ele>143.889013</ele>
        <time>2020-08-01T07:25:27.587Z</time>
      </trkpt>
      <trkpt lat="62.4879" lon="6.81175">
        <ele>144.692067</ele>
        <time>2020-08-01T07:25:35.589Z</time>
      </trkpt>
      <trkpt lat="62.48799" lon="6.81182">
        <ele>145.523481</ele>
        <time>2020-08-01T07:25:44.609Z</time>
      </trkpt>
      <trkpt lat="62.48808" lon="6.81186">
        <ele>146.320442</ele>
        <time>2020-08-01T07:25:51.581Z</time>
      </trkpt>
      <trkpt lat="62.48817" lon="6.81191">
        <ele>147.101999</ele>
        <time>2020-08-01T07:25:57.621Z</time>
      </trkpt>
      <trkpt lat="62.48824" lon="6.81207">
        <ele>148.017735</ele>
        <time>2020-08-01T07:26:04.587Z</time>
      </trkpt>
      <trkpt lat="62.48832" lon="6.8122">
        <ele>148.845167</ele>
        <time>2020-08-01T07:26:09.609Z</time>
      </trkpt>
      <trkpt lat="62.48842" lon="6.81226">
        <ele>149.706706</ele>
        <time>2020-08-01T07:26:16.578Z</time>
      </trkpt>
      <trkpt lat="62.48851" lon="6.81229">
        <ele>150.490729</ele>
        <time>2020-08-01T07:26:25.607Z</time>
      </trkpt>
      <trkpt lat="62.48861" lon="6.81232">
        <ele>151.361803</ele>
        <time>2020-08-01T07:26:34.592Z</time>
      </trkpt>
      <trkpt lat="62.4887" lon="6.81236">
        <ele>152.220284</ele>
        <time>2020-08-01T07:26:43.621Z</time>
      </trkpt>
      <trkpt lat="62.4888" lon="6.81239">
        <ele>153.039586</ele>
        <time>2020-08-01T07:26:52.587Z</time>
      </trkpt>
      <trkpt lat="62.48887" lon="6.81252">
        <ele>153.854414</ele>
        <time>2020-08-01T07:27:02.606Z</time>
      </trkpt>
      <trkpt lat="62.48896" lon="6.81262">
        <ele>154.69824</ele>
        <time>2020-08-01T07:27:10.601Z</time>
      </trkpt>
      <trkpt lat="62.48905" lon="6.8127">
        <ele>155.553139</ele>
        <time>2020-08-01T07:27:18.600Z</time>
      </trkpt>
      <trkpt lat="62.48913" lon="6.81279">
        <ele>156.353586</ele>
        <time>2020-08-01T07:27:26.595Z</time>
      </trkpt>
      <trkpt lat="62.48922" lon="6.81286">
        <ele>156.984381</ele>
        <time>2020-08-01T07:27:33.602Z</time>
      </trkpt>
      <trkpt lat="62.48931" lon="6.81293">
        <ele>157.640435</ele>
        <time>2020-08-01T07:27:40.648Z</time>
      </trkpt>
      <trkpt lat="62.4894" lon="6.813">
        <ele>158.223075</ele>
        <time>2020-08-01T07:27:47.584Z</time>
      </trkpt>
      <trkpt lat="62.48949" lon="6.81305">
        <ele>158.805529</ele>
        <time>2020-08-01T07:27:53.588Z</time>
      </trkpt>
      <trkpt lat="62.48958" lon="6.81317">
        <ele>159.490953</ele>
        <time>2020-08-01T07:28:00.598Z</time>
      </trkpt>
      <trkpt lat="62.48968" lon="6.81324">
        <ele>160.173384</ele>
        <time>2020-08-01T07:28:06.630Z</time>
      </trkpt>
      <trkpt lat="62.48976" lon="6.81331">
        <ele>160.758851</ele>
        <time>2020-08-01T07:28:11.594Z</time>
      </trkpt>
      <trkpt lat="62.48986" lon="6.81338">
        <ele>161.390792</ele>
        <time>2020-08-01T07:28:17.577Z</time>
      </trkpt>
      <trkpt lat="62.48994" lon="6.81347">
        <ele>162.006868</ele>
        <time>2020-08-01T07:28:24.603Z</time>
      </trkpt>
      <trkpt lat="62.49003" lon="6.81356">
        <ele>162.615129</ele>
        <time>2020-08-01T07:28:32.587Z</time>
      </trkpt>
      <trkpt lat="62.49011" lon="6.81368">
        <ele>163.253012</ele>
        <time>2020-08-01T07:28:41.606Z</time>
      </trkpt>
      <trkpt lat="62.49019" lon="6.81379">
        <ele>163.835931</ele>
        <time>2020-08-01T07:28:47.619Z</time>
      </trkpt>
      <trkpt lat="62.49028" lon="6.81383">
        <ele>164.439392</ele>
        <time>2020-08-01T07:28:52.586Z</time>
      </trkpt>
      <trkpt lat="62.49038" lon="6.81388">
        <ele>165.086994</ele>
        <time>2020-08-01T07:28:57.587Z</time>
      </trkpt>
      <trkpt lat="62.49047" lon="6.81396">
        <ele>165.705948</ele>
        <time>2020-08-01T07:29:03.607Z</time>
      </trkpt>
      <trkpt lat="62.49056" lon="6.81404">
        <ele>166.347144</ele>
        <time>2020-08-01T07:29:12.620Z</time>
      </trkpt>
      <trkpt lat="62.49064" lon="6.81413">
        <ele>166.964136</ele>
        <time>2020-08-01T07:29:20.578Z</time>
      </trkpt>
      <trkpt lat="62.49074" lon="6.81419">
        <ele>167.602704</ele>
        <time>2020-08-01T07:29:25.586Z</time>
      </trkpt>
      <trkpt lat="62.49084" lon="6.81425">
        <ele>168.076748</ele>
        <time>2020-08-01T07:29:31.604Z</time>
      </trkpt>
      <trkpt lat="62.49095" lon="6.81428">
        <ele>168.071477</ele>
        <time>2020-08-01T07:29:38.596Z</time>
      </trkpt>
      <trkpt lat="62.49104" lon="6.81435">
        <ele>168.067077</ele>
        <time>2020-08-01T07:29:43.603Z</time>
      </trkpt>
      <trkpt lat="62.49113" lon="6.81442">
        <ele>168.06237</ele>
        <time>2020-08-01T07:29:48.603Z</time>
      </trkpt>
      <trkpt lat="62.49123" lon="6.81449">
        <ele>168.057131</ele>
        <time>2020-08-01T07:29:54.590Z</time>
      </trkpt>
      <trkpt lat="62.49132" lon="6.81462">
        <ele>168.052019</ele>
        <time>2020-08-01T07:29:59.590Z</time>
      </trkpt>
      <trkpt lat="62.49142" lon="6.81473">
        <ele>168.04669</ele>
        <time>2020-08-01T07:30:04.592Z</time>
      </trkpt>
      <trkpt lat="62.49152" lon="6.81481">
        <ele>168.041894</ele>
        <time>2020-08-01T07:30:08.588Z</time>
      </trkpt>
      <trkpt lat="62.4916" lon="6.81488">
        <ele>168.037425</ele>
        <time>2020-08-01T07:30:11.600Z</time>
      </trkpt>
      <trkpt lat="62.4917" lon="6.81493">
        <ele>168.032896</ele>
        <time>2020-08-01T07:30:14.594Z</time>
      </trkpt>
      <trkpt lat="62.49179" lon="6.81495">
        <ele>168.028324</ele>
        <time>2020-08-01T07:30:17.636Z</time>
      </trkpt>
      <trkpt lat="62.4919" lon="6.81497">
        <ele>168.02314</ele>
        <time>2020-08-01T07:30:20.617Z</time>
      </trkpt>
      <trkpt lat="62.49202" lon="6.81501">
        <ele>168.017481</ele>
        <time>2020-08-01T07:30:23.599Z</time>
      </trkpt>
      <trkpt lat="62.49211" lon="6.81506">
        <ele>168.013033</ele>
        <time>2020-08-01T07:30:25.592Z</time>
      </trkpt>
      <trkpt lat="62.4922" lon="6.8151">
        <ele>168.008449</ele>
        <time>2020-08-01T07:30:27.622Z</time>
      </trkpt>
      <trkpt lat="62.4923" lon="6.81514">
        <ele>168.003587</ele>
        <time>2020-08-01T07:30:29.594Z</time>
      </trkpt>
      <trkpt lat="62.49241" lon="6.81518">
        <ele>167.998353</ele>
        <time>2020-08-01T07:30:31.630Z</time>
      </trkpt>
      <trkpt lat="62.49252" lon="6.81522">
        <ele>167.993095</ele>
        <time>2020-08-01T07:30:33.596Z</time>
      </trkpt>
      <trkpt lat="62.49262" lon="6.81526">
        <ele>167.853848</ele>
        <time>2020-08-01T07:30:35.590Z</time>
      </trkpt>
      <trkpt lat="62.49272" lon="6.81529">
        <ele>167.689771</ele>
        <time>2020-08-01T07:30:37.586Z</time>
      </trkpt>
      <trkpt lat="62.49282" lon="6.81531">
        <ele>167.532199</ele>
        <time>2020-08-01T07:30:39.602Z</time>
      </trkpt>
      <trkpt lat="62.49291" lon="6.81534">
        <ele>167.374097</ele>
        <time>2020-08-01T07:30:41.596Z</time>
      </trkpt>
      <trkpt lat="62.49302" lon="6.81536">
        <ele>167.193945</ele>
        <time>2020-08-01T07:30:43.600Z</time>
      </trkpt>
      <trkpt lat="62.49316" lon="6.81542">
        <ele>166.971728</ele>
        <time>2020-08-01T07:30:45.585Z</time>
      </trkpt>
      <trkpt lat="62.49329" lon="6.81551">
        <ele>166.748527</ele>
        <time>2020-08-01T07:30:47.577Z</time>
      </trkpt>
      <trkpt lat="62.49341" lon="6.8156">
        <ele>166.536266</ele>
        <time>2020-08-01T07:30:49.588Z</time>
      </trkpt>
      <trkpt lat="62.49353" lon="6.8157">
        <ele>166.342997</ele>
        <time>2020-08-01T07:30:51.580Z</time>
      </trkpt>
      <trkpt lat="62.49362" lon="6.81578">
        <ele>166.180802</ele>
        <time>2020-08-01T07:30:53.580Z</time>
      </trkpt>
      <trkpt lat="62.49373" lon="6.81586">
        <ele>165.996468</ele>
        <time>2020-08-01T07:30:56.620Z</time>
      </trkpt>
      <trkpt lat="62.49383" lon="6.81595">
        <ele>165.822379</ele>
        <time>2020-08-01T07:31:00.619Z</time>
      </trkpt>
      <trkpt lat="62.49392" lon="6.81604">
        <ele>165.649761</ele>
        <time>2020-08-01T07:31:05.583Z</time>
      </trkpt>
      <trkpt lat="62.49402" lon="6.81612">
        <ele>165.489938</ele>
        <time>2020-08-01T07:31:10.595Z</time>
      </trkpt>
      <trkpt lat="62.49411" lon="6.81619">
        <ele>165.335182</ele>
        <time>2020-08-01T07:31:15.593Z</time>
      </trkpt>
      <trkpt lat="62.4942" lon="6.81627">
        <ele>165.171557</ele>
        <time>2020-08-01T07:31:21.599Z</time>
      </trkpt>
      <trkpt lat="62.49429" lon="6.81634">
        <ele>165.314538</ele>
        <time>2020-08-01T07:31:26.619Z</time>
      </trkpt>
      <trkpt lat="62.49439" lon="6.8164">
        <ele>165.930381</ele>
        <time>2020-08-01T07:31:31.620Z</time>
      </trkpt>
      <trkpt lat="62.4945" lon="6.81648">
        <ele>166.61029</ele>
        <time>2020-08-01T07:31:35.592Z</time>
      </trkpt>
      <trkpt lat="62.49459" lon="6.81656">
        <ele>167.172793</ele>
        <time>2020-08-01T07:31:38.589Z</time>
      </trkpt>
      <trkpt lat="62.4947" lon="6.81666">
        <ele>167.834338</ele>
        <time>2020-08-01T07:31:42.602Z</time>
      </trkpt>
      <trkpt lat="62.4948" lon="6.81675">
        <ele>168.496355</ele>
        <time>2020-08-01T07:31:46.578Z</time>
      </trkpt>
      <trkpt lat="62.49491" lon="6.81682">
        <ele>169.1096</ele>
        <time>2020-08-01T07:31:50.625Z</time>
      </trkpt>
      <trkpt lat="62.49503" lon="6.81689">
        <ele>169.850382</ele>
        <time>2020-08-01T07:31:55.588Z</time>
      </trkpt>
      <trkpt lat="62.49512" lon="6.81695">
        <ele>170.39123</ele>
        <time>2020-08-01T07:31:59.597Z</time>
      </trkpt>
      <trkpt lat="62.49522" lon="6.817">
        <ele>170.996186</ele>
        <time>2020-08-01T07:32:04.587Z</time>
      </trkpt>
      <trkpt lat="62.49531" lon="6.81707">
        <ele>171.54251</ele>
        <time>2020-08-01T07:32:08.588Z</time>
      </trkpt>
      <trkpt lat="62.49542" lon="6.81713">
        <ele>172.177876</ele>
        <time>2020-08-01T07:32:12.579Z</time>
      </trkpt>
      <trkpt lat="62.49552" lon="6.81723">
        <ele>172.802385</ele>
        <time>2020-08-01T07:32:17.605Z</time>
      </trkpt>
      <trkpt lat="62.49561" lon="6.81732">
        <ele>173.407838</ele>
        <time>2020-08-01T07:32:22.590Z</time>
      </trkpt>
      <trkpt lat="62.4957" lon="6.81743">
        <ele>173.971247</ele>
        <time>2020-08-01T07:32:26.601Z</time>
      </trkpt>
      <trkpt lat="62.4958" lon="6.81752">
        <ele>174.594783</ele>
        <time>2020-08-01T07:32:30.587Z</time>
      </trkpt>
      <trkpt lat="62.49589" lon="6.81756">
        <ele>175.14616</ele>
        <time>2020-08-01T07:32:34.608Z</time>
      </trkpt>
      <trkpt lat="62.49598" lon="6.81764">
        <ele>175.886439</ele>
        <time>2020-08-01T07:32:38.606Z</time>
      </trkpt>
      <trkpt lat="62.49608" lon="6.8177">
        <ele>177.072221</ele>
        <time>2020-08-01T07:32:43.629Z</time>
      </trkpt>
      <trkpt lat="62.49616" lon="6.81778">
        <ele>178.10514</ele>
        <time>2020-08-01T07:32:48.600Z</time>
      </trkpt>
      <trkpt lat="62.49625" lon="6.81786">
        <ele>179.16283</ele>
        <time>2020-08-01T07:32:54.600Z</time>
      </trkpt>
      <trkpt lat="62.49633" lon="6.81794">
        <ele>180.199711</ele>
        <time>2020-08-01T07:33:02.589Z</time>
      </trkpt>
      <trkpt lat="62.49642" lon="6.81799">
        <ele>181.291228</ele>
        <time>2020-08-01T07:33:11.604Z</time>
      </trkpt>
      <trkpt lat="62.49651" lon="6.81806">
        <ele>182.372195</ele>
        <time>2020-08-01T07:33:20.596Z</time>
      </trkpt>
      <trkpt lat="62.4966" lon="6.81815">
        <ele>183.480862</ele>
        <time>2020-08-01T07:33:29.580Z</time>
      </trkpt>
      <trkpt lat="62.49669" lon="6.81823">
        <ele>184.544982</ele>
        <time>2020-08-01T07:33:38.620Z</time>
      </trkpt>
      <trkpt lat="62.49677" lon="6.81832">
        <ele>185.560911</ele>
        <time>2020-08-01T07:33:48.620Z</time>
      </trkpt>
      <trkpt lat="62.49686" lon="6.81838">
        <ele>186.635078</ele>
        <time>2020-08-01T07:33:58.586Z</time>
      </trkpt>
      <trkpt lat="62.49694" lon="6.81844">
        <ele>187.659764</ele>
        <time>2020-08-01T07:34:09.602Z</time>
      </trkpt>
      <trkpt lat="62.49705" lon="6.81849">
        <ele>188.874389</ele>
        <time>2020-08-01T07:34:17.619Z</time>
      </trkpt>
      <trkpt lat="62.49713" lon="6.81858">
        <ele>189.912888</ele>
        <time>2020-08-01T07:34:23.592Z</time>
      </trkpt>
      <trkpt lat="62.49722" lon="6.81866">
        <ele>191.013448</ele>
        <time>2020-08-01T07:34:34.585Z</time>
      </trkpt>
      <trkpt lat="62.49731" lon="6.81872">
        <ele>192.073583</ele>
        <time>2020-08-01T07:34:44.590Z</time>
      </trkpt>
      <trkpt lat="62.4974" lon="6.81881">
        <ele>193.212867</ele>
        <time>2020-08-01T07:34:52.590Z</time>
      </trkpt>
      <trkpt lat="62.49749" lon="6.81891">
        <ele>194.335641</ele>
        <time>2020-08-01T07:35:00.601Z</time>
      </trkpt>
      <trkpt lat="62.49757" lon="6.819">
        <ele>195.377405</ele>
        <time>2020-08-01T07:35:10.595Z</time>
      </trkpt>
      <trkpt lat="62.49766" lon="6.81908">
        <ele>196.38467</ele>
        <time>2020-08-01T07:35:21.629Z</time>
      </trkpt>
      <trkpt lat="62.49775" lon="6.81917">
        <ele>197.274657</ele>
        <time>2020-08-01T07:35:29.579Z</time>
      </trkpt>
      <trkpt lat="62.49785" lon="6.81921">
        <ele>198.255486</ele>
        <time>2020-08-01T07:35:35.595Z</time>
      </trkpt>
      <trkpt lat="62.49794" lon="6.81929">
        <ele>199.203184</ele>
        <time>2020-08-01T07:35:45.597Z</time>
      </trkpt>
      <trkpt lat="62.49803" lon="6.81936">
        <ele>200.106977</ele>
        <time>2020-08-01T07:35:54.588Z</time>
      </trkpt>
      <trkpt lat="62.49812" lon="6.81939">
        <ele>200.974224</ele>
        <time>2020-08-01T07:36:03.593Z</time>
      </trkpt>
      <trkpt lat="62.49821" lon="6.81936">
        <ele>201.85282</ele>
        <time>2020-08-01T07:36:16.595Z</time>
      </trkpt>
      <trkpt lat="62.49831" lon="6.81937">
        <ele>202.780731</ele>
        <time>2020-08-01T07:36:24.613Z</time>
      </trkpt>
      <trkpt lat="62.4984" lon="6.81932">
        <ele>203.706765</ele>
        <time>2020-08-01T07:36:33.641Z</time>
      </trkpt>
      <trkpt lat="62.49849" lon="6.81926">
        <ele>204.604691</ele>
        <time>2020-08-01T07:36:41.621Z</time>
      </trkpt>
      <trkpt lat="62.49858" lon="6.81918">
        <ele>205.502594</ele>
        <time>2020-08-01T07:36:51.605Z</time>
      </trkpt>
      <trkpt lat="62.49867" lon="6.81913">
        <ele>206.434327</ele>
        <time>2020-08-01T07:36:59.606Z</time>
      </trkpt>
      <trkpt lat="62.49877" lon="6.81907">
        <ele>207.398432</ele>
        <time>2020-08-01T07:37:07.601Z</time>
      </trkpt>
      <trkpt lat="62.49886" lon="6.819">
        <ele>208.352074</ele>
        <time>2020-08-01T07:37:15.607Z</time>
      </trkpt>
      <trkpt lat="62.49896" lon="6.81899">
        <ele>209.306729</ele>
        <time>2020-08-01T07:37:23.591Z</time>
      </trkpt>
      <trkpt lat="62.49906" lon="6.81894">
        <ele>210.234983</ele>
        <time>2020-08-01T07:37:30.616Z</time>
      </trkpt>
      <trkpt lat="62.49915" lon="6.8189">
        <ele>211.101697</ele>
        <time>2020-08-01T07:37:36.581Z</time>
      </trkpt>
      <trkpt lat="62.49925" lon="6.81892">
        <ele>212.107407</ele>
        <time>2020-08-01T07:37:43.595Z</time>
      </trkpt>
      <trkpt lat="62.49935" lon="6.81896">
        <ele>212.979161</ele>
        <time>2020-08-01T07:37:48.627Z</time>
      </trkpt>
      <trkpt lat="62.49943" lon="6.81903">
        <ele>212.690452</ele>
        <time>2020-08-01T07:37:52.597Z</time>
      </trkpt>
      <trkpt lat="62.49953" lon="6.81921">
        <ele>212.287333</ele>
        <time>2020-08-01T07:37:56.592Z</time>
      </trkpt>
      <trkpt lat="62.4996" lon="6.81937">
        <ele>211.941586</ele>
        <time>2020-08-01T07:37:58.597Z</time>
      </trkpt>
      <trkpt lat="62.4997" lon="6.8196">
        <ele>211.488165</ele>
        <time>2020-08-01T07:38:00.640Z</time>
      </trkpt>
      <trkpt lat="62.49983" lon="6.81987">
        <ele>210.904661</ele>
        <time>2020-08-01T07:38:02.602Z</time>
      </trkpt>
      <trkpt lat="62.49991" lon="6.82001">
        <ele>210.575209</ele>
        <time>2020-08-01T07:38:03.620Z</time>
      </trkpt>
      <trkpt lat="62.5" lon="6.82015">
        <ele>210.229477</ele>
        <time>2020-08-01T07:38:04.591Z</time>
      </trkpt>
      <trkpt lat="62.50009" lon="6.82029">
        <ele>209.875157</ele>
        <time>2020-08-01T07:38:05.620Z</time>
      </trkpt>
      <trkpt lat="62.50018" lon="6.82043">
        <ele>209.532864</ele>
        <time>2020-08-01T07:38:06.581Z</time>
      </trkpt>
      <trkpt lat="62.50026" lon="6.82056">
        <ele>209.206082</ele>
        <time>2020-08-01T07:38:07.613Z</time>
      </trkpt>
      <trkpt lat="62.50034" lon="6.82068">
        <ele>208.900038</ele>
        <time>2020-08-01T07:38:08.600Z</time>
      </trkpt>
      <trkpt lat="62.50041" lon="6.8208">
        <ele>208.608607</ele>
        <time>2020-08-01T07:38:09.571Z</time>
      </trkpt>
      <trkpt lat="62.50057" lon="6.82097">
        <ele>208.054552</ele>
        <time>2020-08-01T07:38:11.590Z</time>
      </trkpt>
      <trkpt lat="62.50073" lon="6.82106">
        <ele>207.527257</ele>
        <time>2020-08-01T07:38:13.622Z</time>
      </trkpt>
      <trkpt lat="62.50089" lon="6.82108">
        <ele>206.900445</ele>
        <time>2020-08-01T07:38:15.588Z</time>
      </trkpt>
      <trkpt lat="62.50106" lon="6.82103">
        <ele>206.173348</ele>
        <time>2020-08-01T07:38:17.582Z</time>
      </trkpt>
      <trkpt lat="62.50123" lon="6.8209">
        <ele>205.380015</ele>
        <time>2020-08-01T07:38:19.586Z</time>
      </trkpt>
      <trkpt lat="62.50131" lon="6.8208">
        <ele>204.952575</ele>
        <time>2020-08-01T07:38:20.586Z</time>
      </trkpt>
      <trkpt lat="62.50139" lon="6.82067">
        <ele>204.523192</ele>
        <time>2020-08-01T07:38:21.586Z</time>
      </trkpt>
      <trkpt lat="62.50147" lon="6.82052">
        <ele>204.07879</ele>
        <time>2020-08-01T07:38:22.599Z</time>
      </trkpt>
      <trkpt lat="62.50153" lon="6.82034">
        <ele>203.624002</ele>
        <time>2020-08-01T07:38:23.617Z</time>
      </trkpt>
      <trkpt lat="62.50158" lon="6.82013">
        <ele>203.145004</ele>
        <time>2020-08-01T07:38:24.601Z</time>
      </trkpt>
      <trkpt lat="62.50162" lon="6.81988">
        <ele>202.605335</ele>
        <time>2020-08-01T07:38:25.593Z</time>
      </trkpt>
      <trkpt lat="62.50166" lon="6.81962">
        <ele>202.042167</ele>
        <time>2020-08-01T07:38:26.604Z</time>
      </trkpt>
      <trkpt lat="62.50167" lon="6.81933">
        <ele>201.458926</ele>
        <time>2020-08-01T07:38:27.597Z</time>
      </trkpt>
      <trkpt lat="62.50166" lon="6.81903">
        <ele>200.85785</ele>
        <time>2020-08-01T07:38:28.604Z</time>
      </trkpt>
      <trkpt lat="62.50163" lon="6.81874">
        <ele>200.243824</ele>
        <time>2020-08-01T07:38:29.609Z</time>
      </trkpt>
      <trkpt lat="62.50158" lon="6.81848">
        <ele>199.6802</ele>
        <time>2020-08-01T07:38:30.593Z</time>
      </trkpt>
      <trkpt lat="62.50151" lon="6.81828">
        <ele>198.99969</ele>
        <time>2020-08-01T07:38:31.604Z</time>
      </trkpt>
      <trkpt lat="62.50144" lon="6.81811">
        <ele>198.081978</ele>
        <time>2020-08-01T07:38:32.624Z</time>
      </trkpt>
      <trkpt lat="62.50136" lon="6.81798">
        <ele>197.237603</ele>
        <time>2020-08-01T07:38:33.604Z</time>
      </trkpt>
      <trkpt lat="62.50124" lon="6.81784">
        <ele>196.057432</ele>
        <time>2020-08-01T07:38:35.609Z</time>
      </trkpt>
      <trkpt lat="62.50115" lon="6.81774">
        <ele>195.218276</ele>
        <time>2020-08-01T07:38:37.595Z</time>
      </trkpt>
      <trkpt lat="62.50106" lon="6.81764">
        <ele>194.364589</ele>
        <time>2020-08-01T07:38:39.584Z</time>
      </trkpt>
      <trkpt lat="62.50097" lon="6.81755">
        <ele>193.468572</ele>
        <time>2020-08-01T07:38:41.613Z</time>
      </trkpt>
      <trkpt lat="62.50087" lon="6.81749">
        <ele>192.591518</ele>
        <time>2020-08-01T07:38:43.609Z</time>
      </trkpt>
      <trkpt lat="62.50076" lon="6.81743">
        <ele>191.597625</ele>
        <time>2020-08-01T07:38:46.600Z</time>
      </trkpt>
      <trkpt lat="62.50065" lon="6.81737">
        <ele>190.63971</ele>
        <time>2020-08-01T07:38:50.585Z</time>
      </trkpt>
      <trkpt lat="62.50055" lon="6.81732">
        <ele>189.803449</ele>
        <time>2020-08-01T07:38:54.590Z</time>
      </trkpt>
      <trkpt lat="62.50046" lon="6.81726">
        <ele>188.964212</ele>
        <time>2020-08-01T07:38:58.600Z</time>
      </trkpt>
      <trkpt lat="62.50037" lon="6.81717">
        <ele>188.132475</ele>
        <time>2020-08-01T07:39:02.582Z</time>
      </trkpt>
      <trkpt lat="62.50028" lon="6.81711">
        <ele>187.29967</ele>
        <time>2020-08-01T07:39:07.615Z</time>
      </trkpt>
      <trkpt lat="62.50018" lon="6.81703">
        <ele>186.408106</ele>
        <time>2020-08-01T07:39:12.621Z</time>
      </trkpt>
      <trkpt lat="62.5001" lon="6.81692">
        <ele>185.594239</ele>
        <time>2020-08-01T07:39:16.614Z</time>
      </trkpt>
      <trkpt lat="62.50002" lon="6.81678">
        <ele>184.74874</ele>
        <time>2020-08-01T07:39:19.611Z</time>
      </trkpt>
      <trkpt lat="62.49992" lon="6.8166">
        <ele>183.645926</ele>
        <time>2020-08-01T07:39:22.596Z</time>
      </trkpt>
      <trkpt lat="62.49985" lon="6.81643">
        <ele>182.824227</ele>
        <time>2020-08-01T07:39:24.594Z</time>
      </trkpt>
      <trkpt lat="62.49979" lon="6.81621">
        <ele>181.883844</ele>
        <time>2020-08-01T07:39:26.586Z</time>
      </trkpt>
      <trkpt lat="62.49974" lon="6.81595">
        <ele>180.801634</ele>
        <time>2020-08-01T07:39:28.598Z</time>
      </trkpt>
      <trkpt lat="62.4997" lon="6.81563">
        <ele>179.613145</ele>
        <time>2020-08-01T07:39:30.599Z</time>
      </trkpt>
      <trkpt lat="62.49968" lon="6.81526">
        <ele>178.229424</ele>
        <time>2020-08-01T07:39:32.584Z</time>
      </trkpt>
      <trkpt lat="62.49968" lon="6.81505">
        <ele>177.451427</ele>
        <time>2020-08-01T07:39:33.620Z</time>
      </trkpt>
      <trkpt lat="62.49968" lon="6.81483">
        <ele>176.636445</ele>
        <time>2020-08-01T07:39:34.592Z</time>
      </trkpt>
      <trkpt lat="62.49967" lon="6.81461">
        <ele>175.796029</ele>
        <time>2020-08-01T07:39:35.618Z</time>
      </trkpt>
      <trkpt lat="62.49968" lon="6.81438">
        <ele>174.951722</ele>
        <time>2020-08-01T07:39:36.645Z</time>
      </trkpt>
      <trkpt lat="62.49969" lon="6.81415">
        <ele>174.112707</ele>
        <time>2020-08-01T07:39:37.606Z</time>
      </trkpt>
      <trkpt lat="62.4997" lon="6.81393">
        <ele>173.286992</ele>
        <time>2020-08-01T07:39:38.620Z</time>
      </trkpt>
      <trkpt lat="62.49972" lon="6.81371">
        <ele>172.448172</ele>
        <time>2020-08-01T07:39:39.602Z</time>
      </trkpt>
      <trkpt lat="62.49975" lon="6.81348">
        <ele>171.586039</ele>
        <time>2020-08-01T07:39:40.578Z</time>
      </trkpt>
      <trkpt lat="62.49978" lon="6.81325">
        <ele>170.701359</ele>
        <time>2020-08-01T07:39:41.603Z</time>
      </trkpt>
      <trkpt lat="62.49981" lon="6.81302">
        <ele>169.810955</ele>
        <time>2020-08-01T07:39:42.623Z</time>
      </trkpt>
      <trkpt lat="62.49985" lon="6.8128">
        <ele>168.916979</ele>
        <time>2020-08-01T07:39:43.637Z</time>
      </trkpt>
      <trkpt lat="62.49988" lon="6.81258">
        <ele>168.028748</ele>
        <time>2020-08-01T07:39:44.609Z</time>
      </trkpt>
      <trkpt lat="62.49991" lon="6.81235">
        <ele>167.114332</ele>
        <time>2020-08-01T07:39:45.577Z</time>
      </trkpt>
      <trkpt lat="62.49995" lon="6.81211">
        <ele>166.173414</ele>
        <time>2020-08-01T07:39:46.589Z</time>
      </trkpt>
      <trkpt lat="62.49998" lon="6.81187">
        <ele>165.233303</ele>
        <time>2020-08-01T07:39:47.627Z</time>
      </trkpt>
      <trkpt lat="62.50002" lon="6.81163">
        <ele>164.268069</ele>
        <time>2020-08-01T07:39:48.601Z</time>
      </trkpt>
      <trkpt lat="62.50006" lon="6.81138">
        <ele>163.262673</ele>
        <time>2020-08-01T07:39:49.602Z</time>
      </trkpt>
      <trkpt lat="62.50009" lon="6.81113">
        <ele>162.278156</ele>
        <time>2020-08-01T07:39:50.632Z</time>
      </trkpt>
      <trkpt lat="62.50012" lon="6.81087">
        <ele>161.27274</ele>
        <time>2020-08-01T07:39:51.589Z</time>
      </trkpt>
      <trkpt lat="62.50014" lon="6.81061">
        <ele>160.25596</ele>
        <time>2020-08-01T07:39:52.598Z</time>
      </trkpt>
      <trkpt lat="62.50015" lon="6.81034">
        <ele>159.251363</ele>
        <time>2020-08-01T07:39:53.608Z</time>
      </trkpt>
      <trkpt lat="62.50014" lon="6.81008">
        <ele>158.255409</ele>
        <time>2020-08-01T07:39:54.590Z</time>
      </trkpt>
      <trkpt lat="62.50014" lon="6.80982">
        <ele>157.271962</ele>
        <time>2020-08-01T07:39:55.597Z</time>
      </trkpt>
      <trkpt lat="62.50012" lon="6.80956">
        <ele>156.292675</ele>
        <time>2020-08-01T07:39:56.603Z</time>
      </trkpt>
      <trkpt lat="62.50009" lon="6.80932">
        <ele>155.331587</ele>
        <time>2020-08-01T07:39:57.583Z</time>
      </trkpt>
      <trkpt lat="62.50006" lon="6.80907">
        <ele>154.480553</ele>
        <time>2020-08-01T07:39:58.617Z</time>
      </trkpt>
      <trkpt lat="62.50001" lon="6.80883">
        <ele>153.740884</ele>
        <time>2020-08-01T07:39:59.594Z</time>
      </trkpt>
      <trkpt lat="62.49997" lon="6.80858">
        <ele>152.986296</ele>
        <time>2020-08-01T07:40:00.591Z</time>
      </trkpt>
      <trkpt lat="62.49992" lon="6.80833">
        <ele>152.240026</ele>
        <time>2020-08-01T07:40:01.608Z</time>
      </trkpt>
      <trkpt lat="62.49988" lon="6.80809">
        <ele>151.506129</ele>
        <time>2020-08-01T07:40:02.604Z</time>
      </trkpt>
      <trkpt lat="62.49984" lon="6.80785">
        <ele>150.772987</ele>
        <time>2020-08-01T07:40:03.585Z</time>
      </trkpt>
      <trkpt lat="62.49979" lon="6.8076">
        <ele>150.025864</ele>
        <time>2020-08-01T07:40:04.587Z</time>
      </trkpt>
      <trkpt lat="62.49975" lon="6.80735">
        <ele>149.245735</ele>
        <time>2020-08-01T07:40:05.581Z</time>
      </trkpt>
      <trkpt lat="62.49969" lon="6.80708">
        <ele>148.436151</ele>
        <time>2020-08-01T07:40:06.587Z</time>
      </trkpt>
      <trkpt lat="62.49964" lon="6.80682">
        <ele>147.611143</ele>
        <time>2020-08-01T07:40:07.601Z</time>
      </trkpt>
      <trkpt lat="62.49959" lon="6.80656">
        <ele>146.804243</ele>
        <time>2020-08-01T07:40:08.611Z</time>
      </trkpt>
      <trkpt lat="62.49953" lon="6.80631">
        <ele>146.001762</ele>
        <time>2020-08-01T07:40:09.608Z</time>
      </trkpt>
      <trkpt lat="62.49946" lon="6.80606">
        <ele>145.192182</ele>
        <time>2020-08-01T07:40:10.600Z</time>
      </trkpt>
      <trkpt lat="62.49938" lon="6.80582">
        <ele>144.363006</ele>
        <time>2020-08-01T07:40:11.595Z</time>
      </trkpt>
      <trkpt lat="62.49929" lon="6.80559">
        <ele>143.450676</ele>
        <time>2020-08-01T07:40:12.594Z</time>
      </trkpt>
      <trkpt lat="62.49921" lon="6.80535">
        <ele>142.36904</ele>
        <time>2020-08-01T07:40:13.581Z</time>
      </trkpt>
      <trkpt lat="62.49912" lon="6.80511">
        <ele>141.290136</ele>
        <time>2020-08-01T07:40:14.598Z</time>
      </trkpt>
      <trkpt lat="62.49905" lon="6.80487">
        <ele>140.274308</ele>
        <time>2020-08-01T07:40:15.600Z</time>
      </trkpt>
      <trkpt lat="62.49899" lon="6.80463">
        <ele>139.320314</ele>
        <time>2020-08-01T07:40:16.593Z</time>
      </trkpt>
      <trkpt lat="62.49897" lon="6.8044">
        <ele>138.465282</ele>
        <time>2020-08-01T07:40:17.604Z</time>
      </trkpt>
      <trkpt lat="62.49896" lon="6.80417">
        <ele>137.64348</ele>
        <time>2020-08-01T07:40:18.620Z</time>
      </trkpt>
      <trkpt lat="62.49896" lon="6.80395">
        <ele>136.876801</ele>
        <time>2020-08-01T07:40:19.601Z</time>
      </trkpt>
      <trkpt lat="62.49897" lon="6.80374">
        <ele>136.126675</ele>
        <time>2020-08-01T07:40:20.606Z</time>
      </trkpt>
      <trkpt lat="62.49899" lon="6.80353">
        <ele>135.363982</ele>
        <time>2020-08-01T07:40:21.601Z</time>
      </trkpt>
      <trkpt lat="62.499" lon="6.80331">
        <ele>134.589654</ele>
        <time>2020-08-01T07:40:22.640Z</time>
      </trkpt>
      <trkpt lat="62.49902" lon="6.80309">
        <ele>133.810648</ele>
        <time>2020-08-01T07:40:23.601Z</time>
      </trkpt>
      <trkpt lat="62.49903" lon="6.80288">
        <ele>133.062254</ele>
        <time>2020-08-01T07:40:24.597Z</time>
      </trkpt>
      <trkpt lat="62.49904" lon="6.80267">
        <ele>132.315279</ele>
        <time>2020-08-01T07:40:25.600Z</time>
      </trkpt>
      <trkpt lat="62.49905" lon="6.80247">
        <ele>131.574693</ele>
        <time>2020-08-01T07:40:26.604Z</time>
      </trkpt>
      <trkpt lat="62.49905" lon="6.80227">
        <ele>130.86774</ele>
        <time>2020-08-01T07:40:27.583Z</time>
      </trkpt>
      <trkpt lat="62.49906" lon="6.80189">
        <ele>129.618949</ele>
        <time>2020-08-01T07:40:29.610Z</time>
      </trkpt>
      <trkpt lat="62.49905" lon="6.80154">
        <ele>128.595863</ele>
        <time>2020-08-01T07:40:31.613Z</time>
      </trkpt>
      <trkpt lat="62.49904" lon="6.80117">
        <ele>127.505987</ele>
        <time>2020-08-01T07:40:33.606Z</time>
      </trkpt>
      <trkpt lat="62.49903" lon="6.80097">
        <ele>126.918049</ele>
        <time>2020-08-01T07:40:34.584Z</time>
      </trkpt>
      <trkpt lat="62.49901" lon="6.80078">
        <ele>126.329389</ele>
        <time>2020-08-01T07:40:35.601Z</time>
      </trkpt>
      <trkpt lat="62.499" lon="6.80057">
        <ele>125.731979</ele>
        <time>2020-08-01T07:40:36.601Z</time>
      </trkpt>
      <trkpt lat="62.49899" lon="6.80036">
        <ele>125.092194</ele>
        <time>2020-08-01T07:40:37.620Z</time>
      </trkpt>
      <trkpt lat="62.49897" lon="6.80013">
        <ele>124.42835</ele>
        <time>2020-08-01T07:40:38.593Z</time>
      </trkpt>
      <trkpt lat="62.49895" lon="6.79991">
        <ele>123.743823</ele>
        <time>2020-08-01T07:40:39.599Z</time>
      </trkpt>
      <trkpt lat="62.49893" lon="6.79967">
        <ele>123.039084</ele>
        <time>2020-08-01T07:40:40.637Z</time>
      </trkpt>
      <trkpt lat="62.49891" lon="6.79943">
        <ele>122.312969</ele>
        <time>2020-08-01T07:40:41.624Z</time>
      </trkpt>
      <trkpt lat="62.49889" lon="6.79918">
        <ele>121.563746</ele>
        <time>2020-08-01T07:40:42.610Z</time>
      </trkpt>
      <trkpt lat="62.49887" lon="6.79892">
        <ele>120.796499</ele>
        <time>2020-08-01T07:40:43.616Z</time>
      </trkpt>
      <trkpt lat="62.49884" lon="6.79866">
        <ele>120.007835</ele>
        <time>2020-08-01T07:40:44.636Z</time>
      </trkpt>
      <trkpt lat="62.49882" lon="6.79838">
        <ele>119.191995</ele>
        <time>2020-08-01T07:40:45.610Z</time>
      </trkpt>
      <trkpt lat="62.49879" lon="6.79811">
        <ele>118.45553</ele>
        <time>2020-08-01T07:40:46.596Z</time>
      </trkpt>
      <trkpt lat="62.49876" lon="6.79784">
        <ele>117.981525</ele>
        <time>2020-08-01T07:40:47.581Z</time>
      </trkpt>
      <trkpt lat="62.49874" lon="6.79756">
        <ele>117.511239</ele>
        <time>2020-08-01T07:40:48.585Z</time>
      </trkpt>
      <trkpt lat="62.49872" lon="6.7973">
        <ele>117.061972</ele>
        <time>2020-08-01T07:40:49.649Z</time>
      </trkpt>
      <trkpt lat="62.49872" lon="6.79704">
        <ele>116.625591</ele>
        <time>2020-08-01T07:40:50.592Z</time>
      </trkpt>
      <trkpt lat="62.49872" lon="6.79679">
        <ele>116.204761</ele>
        <time>2020-08-01T07:40:51.586Z</time>
      </trkpt>
      <trkpt lat="62.49873" lon="6.79655">
        <ele>115.801989</ele>
        <time>2020-08-01T07:40:52.584Z</time>
      </trkpt>
      <trkpt lat="62.49874" lon="6.79632">
        <ele>115.418893</ele>
        <time>2020-08-01T07:40:53.631Z</time>
      </trkpt>
      <trkpt lat="62.49874" lon="6.7961">
        <ele>115.043356</ele>
        <time>2020-08-01T07:40:54.587Z</time>
      </trkpt>
      <trkpt lat="62.49875" lon="6.79587">
        <ele>114.667466</ele>
        <time>2020-08-01T07:40:55.588Z</time>
      </trkpt>
      <trkpt lat="62.49875" lon="6.79565">
        <ele>114.286728</ele>
        <time>2020-08-01T07:40:56.606Z</time>
      </trkpt>
      <trkpt lat="62.49876" lon="6.79542">
        <ele>113.902438</ele>
        <time>2020-08-01T07:40:57.596Z</time>
      </trkpt>
      <trkpt lat="62.49876" lon="6.79519">
        <ele>113.514977</ele>
        <time>2020-08-01T07:40:58.583Z</time>
      </trkpt>
      <trkpt lat="62.49877" lon="6.79496">
        <ele>113.123967</ele>
        <time>2020-08-01T07:40:59.579Z</time>
      </trkpt>
      <trkpt lat="62.49877" lon="6.79473">
        <ele>112.73666</ele>
        <time>2020-08-01T07:41:00.583Z</time>
      </trkpt>
      <trkpt lat="62.49878" lon="6.7945">
        <ele>112.35256</ele>
        <time>2020-08-01T07:41:01.613Z</time>
      </trkpt>
      <trkpt lat="62.49878" lon="6.79428">
        <ele>112.079101</ele>
        <time>2020-08-01T07:41:02.582Z</time>
      </trkpt>
      <trkpt lat="62.49879" lon="6.79408">
        <ele>112.785376</ele>
        <time>2020-08-01T07:41:03.600Z</time>
      </trkpt>
      <trkpt lat="62.49879" lon="6.79388">
        <ele>113.456937</ele>
        <time>2020-08-01T07:41:04.608Z</time>
      </trkpt>
      <trkpt lat="62.4988" lon="6.79353">
        <ele>114.650877</ele>
        <time>2020-08-01T07:41:06.636Z</time>
      </trkpt>
      <trkpt lat="62.49881" lon="6.79324">
        <ele>115.642121</ele>
        <time>2020-08-01T07:41:08.597Z</time>
      </trkpt>
      <trkpt lat="62.49882" lon="6.79301">
        <ele>116.439634</ele>
        <time>2020-08-01T07:41:10.600Z</time>
      </trkpt>
      <trkpt lat="62.49882" lon="6.79282">
        <ele>117.107769</ele>
        <time>2020-08-01T07:41:12.625Z</time>
      </trkpt>
      <trkpt lat="62.49883" lon="6.79258">
        <ele>117.913989</ele>
        <time>2020-08-01T07:41:15.599Z</time>
      </trkpt>
      <trkpt lat="62.49883" lon="6.79235">
        <ele>118.693306</ele>
        <time>2020-08-01T07:41:19.594Z</time>
      </trkpt>
      <trkpt lat="62.49884" lon="6.79212">
        <ele>119.485463</ele>
        <time>2020-08-01T07:41:24.588Z</time>
      </trkpt>
      <trkpt lat="62.49885" lon="6.79191">
        <ele>120.214646</ele>
        <time>2020-08-01T07:41:29.603Z</time>
      </trkpt>
      <trkpt lat="62.49886" lon="6.79169">
        <ele>120.986664</ele>
        <time>2020-08-01T07:41:35.598Z</time>
      </trkpt>
      <trkpt lat="62.49888" lon="6.79146">
        <ele>121.760887</ele>
        <time>2020-08-01T07:41:41.620Z</time>
      </trkpt>
      <trkpt lat="62.49889" lon="6.79126">
        <ele>122.454961</ele>
        <time>2020-08-01T07:41:46.589Z</time>
      </trkpt>
      <trkpt lat="62.4989" lon="6.79107">
        <ele>123.14242</ele>
        <time>2020-08-01T07:41:51.610Z</time>
      </trkpt>
      <trkpt lat="62.49891" lon="6.79085">
        <ele>123.879831</ele>
        <time>2020-08-01T07:41:56.588Z</time>
      </trkpt>
      <trkpt lat="62.49892" lon="6.79062">
        <ele>124.677997</ele>
        <time>2020-08-01T07:42:01.607Z</time>
      </trkpt>
      <trkpt lat="62.49891" lon="6.79038">
        <ele>125.464446</ele>
        <time>2020-08-01T07:42:06.580Z</time>
      </trkpt>
      <trkpt lat="62.49894" lon="6.79013">
        <ele>126.120874</ele>
        <time>2020-08-01T07:42:10.620Z</time>
      </trkpt>
      <trkpt lat="62.49896" lon="6.78994">
        <ele>126.639639</ele>
        <time>2020-08-01T07:42:13.595Z</time>
      </trkpt>
      <trkpt lat="62.49897" lon="6.78973">
        <ele>127.211773</ele>
        <time>2020-08-01T07:42:17.599Z</time>
      </trkpt>
      <trkpt lat="62.499" lon="6.78951">
        <ele>127.794158</ele>
        <time>2020-08-01T07:42:21.584Z</time>
      </trkpt>
      <trkpt lat="62.49903" lon="6.78931">
        <ele>128.354088</ele>
        <time>2020-08-01T07:42:25.599Z</time>
      </trkpt>
      <trkpt lat="62.49906" lon="6.7891">
        <ele>128.923231</ele>
        <time>2020-08-01T07:42:29.621Z</time>
      </trkpt>
      <trkpt lat="62.49908" lon="6.78889">
        <ele>129.485179</ele>
        <time>2020-08-01T07:42:33.597Z</time>
      </trkpt>
      <trkpt lat="62.4991" lon="6.78867">
        <ele>130.070153</ele>
        <time>2020-08-01T07:42:37.607Z</time>
      </trkpt>
      <trkpt lat="62.49912" lon="6.78843">
        <ele>130.702586</ele>
        <time>2020-08-01T07:42:41.606Z</time>
      </trkpt>
      <trkpt lat="62.49913" lon="6.78823">
        <ele>131.223137</ele>
        <time>2020-08-01T07:42:44.590Z</time>
      </trkpt>
      <trkpt lat="62.49914" lon="6.78802">
        <ele>131.792945</ele>
        <time>2020-08-01T07:42:47.599Z</time>
      </trkpt>
      <trkpt lat="62.49914" lon="6.7878">
        <ele>132.351042</ele>
        <time>2020-08-01T07:42:50.601Z</time>
      </trkpt>
      <trkpt lat="62.49913" lon="6.78758">
        <ele>132.932084</ele>
        <time>2020-08-01T07:42:53.592Z</time>
      </trkpt>
      <trkpt lat="62.49911" lon="6.78734">
        <ele>133.573499</ele>
        <time>2020-08-01T07:42:56.598Z</time>
      </trkpt>
      <trkpt lat="62.49907" lon="6.78716">
        <ele>134.095934</ele>
        <time>2020-08-01T07:42:58.615Z</time>
      </trkpt>
      <trkpt lat="62.49901" lon="6.78694">
        <ele>134.762541</ele>
        <time>2020-08-01T07:43:00.602Z</time>
      </trkpt>
      <trkpt lat="62.49896" lon="6.78669">
        <ele>135.48219</ele>
        <time>2020-08-01T07:43:02.627Z</time>
      </trkpt>
      <trkpt lat="62.4989" lon="6.78641">
        <ele>134.596986</ele>
        <time>2020-08-01T07:43:04.618Z</time>
      </trkpt>
      <trkpt lat="62.49885" lon="6.78612">
        <ele>133.55967</ele>
        <time>2020-08-01T07:43:06.591Z</time>
      </trkpt>
      <trkpt lat="62.49881" lon="6.7858">
        <ele>132.474447</ele>
        <time>2020-08-01T07:43:08.581Z</time>
      </trkpt>
      <trkpt lat="62.49878" lon="6.78546">
        <ele>131.322581</ele>
        <time>2020-08-01T07:43:10.597Z</time>
      </trkpt>
      <trkpt lat="62.49876" lon="6.7851">
        <ele>130.112776</ele>
        <time>2020-08-01T07:43:12.610Z</time>
      </trkpt>
      <trkpt lat="62.49875" lon="6.78476">
        <ele>128.949136</ele>
        <time>2020-08-01T07:43:14.588Z</time>
      </trkpt>
      <trkpt lat="62.49873" lon="6.78443">
        <ele>127.836907</ele>
        <time>2020-08-01T07:43:16.591Z</time>
      </trkpt>
      <trkpt lat="62.49872" lon="6.78411">
        <ele>126.77433</ele>
        <time>2020-08-01T07:43:18.635Z</time>
      </trkpt>
      <trkpt lat="62.4987" lon="6.78382">
        <ele>125.793375</ele>
        <time>2020-08-01T07:43:20.636Z</time>
      </trkpt>
      <trkpt lat="62.49869" lon="6.78354">
        <ele>124.845596</ele>
        <time>2020-08-01T07:43:22.581Z</time>
      </trkpt>
      <trkpt lat="62.49867" lon="6.78325">
        <ele>123.899362</ele>
        <time>2020-08-01T07:43:24.587Z</time>
      </trkpt>
      <trkpt lat="62.49866" lon="6.78298">
        <ele>122.972695</ele>
        <time>2020-08-01T07:43:26.618Z</time>
      </trkpt>
      <trkpt lat="62.49865" lon="6.7827">
        <ele>122.414676</ele>
        <time>2020-08-01T07:43:28.587Z</time>
      </trkpt>
      <trkpt lat="62.49864" lon="6.78244">
        <ele>122.184465</ele>
        <time>2020-08-01T07:43:30.596Z</time>
      </trkpt>
      <trkpt lat="62.49862" lon="6.78219">
        <ele>121.965398</ele>
        <time>2020-08-01T07:43:32.605Z</time>
      </trkpt>
      <trkpt lat="62.49861" lon="6.78193">
        <ele>121.745029</ele>
        <time>2020-08-01T07:43:34.590Z</time>
      </trkpt>
      <trkpt lat="62.49861" lon="6.78168">
        <ele>121.528103</ele>
        <time>2020-08-01T07:43:36.593Z</time>
      </trkpt>
      <trkpt lat="62.49859" lon="6.78142">
        <ele>121.304479</ele>
        <time>2020-08-01T07:43:38.591Z</time>
      </trkpt>
      <trkpt lat="62.49858" lon="6.78116">
        <ele>121.078957</ele>
        <time>2020-08-01T07:43:40.607Z</time>
      </trkpt>
      <trkpt lat="62.49857" lon="6.78092">
        <ele>120.868888</ele>
        <time>2020-08-01T07:43:42.611Z</time>
      </trkpt>
      <trkpt lat="62.49856" lon="6.78069">
        <ele>120.665365</ele>
        <time>2020-08-01T07:43:44.606Z</time>
      </trkpt>
      <trkpt lat="62.49855" lon="6.78047">
        <ele>120.473176</ele>
        <time>2020-08-01T07:43:46.624Z</time>
      </trkpt>
      <trkpt lat="62.49854" lon="6.78026">
        <ele>120.291401</ele>
        <time>2020-08-01T07:43:48.596Z</time>
      </trkpt>
      <trkpt lat="62.49854" lon="6.78006">
        <ele>120.11928</ele>
        <time>2020-08-01T07:43:50.638Z</time>
      </trkpt>
      <trkpt lat="62.49853" lon="6.77979">
        <ele>119.884777</ele>
        <time>2020-08-01T07:43:53.655Z</time>
      </trkpt>
      <trkpt lat="62.49851" lon="6.77952">
        <ele>119.654716</ele>
        <time>2020-08-01T07:43:56.582Z</time>
      </trkpt>
      <trkpt lat="62.4985" lon="6.77932">
        <ele>119.481602</ele>
        <time>2020-08-01T07:43:58.604Z</time>
      </trkpt>
      <trkpt lat="62.4985" lon="6.77911">
        <ele>119.300006</ele>
        <time>2020-08-01T07:44:00.612Z</time>
      </trkpt>
      <trkpt lat="62.4985" lon="6.77889">
        <ele>119.265729</ele>
        <time>2020-08-01T07:44:02.612Z</time>
      </trkpt>
      <trkpt lat="62.4985" lon="6.77866">
        <ele>119.505536</ele>
        <time>2020-08-01T07:44:04.610Z</time>
      </trkpt>
      <trkpt lat="62.4985" lon="6.77842">
        <ele>119.753777</ele>
        <time>2020-08-01T07:44:06.598Z</time>
      </trkpt>
      <trkpt lat="62.49851" lon="6.77818">
        <ele>120.004661</ele>
        <time>2020-08-01T07:44:08.587Z</time>
      </trkpt>
      <trkpt lat="62.49851" lon="6.77794">
        <ele>120.255149</ele>
        <time>2020-08-01T07:44:10.638Z</time>
      </trkpt>
      <trkpt lat="62.49852" lon="6.77771">
        <ele>120.498597</ele>
        <time>2020-08-01T07:44:12.585Z</time>
      </trkpt>
      <trkpt lat="62.49853" lon="6.77746">
        <ele>120.760437</ele>
        <time>2020-08-01T07:44:14.598Z</time>
      </trkpt>
      <trkpt lat="62.49854" lon="6.77718">
        <ele>121.050129</ele>
        <time>2020-08-01T07:44:16.607Z</time>
      </trkpt>
      <trkpt lat="62.49856" lon="6.77687">
        <ele>121.377432</ele>
        <time>2020-08-01T07:44:18.589Z</time>
      </trkpt>
      <trkpt lat="62.49857" lon="6.77654">
        <ele>121.720674</ele>
        <time>2020-08-01T07:44:20.599Z</time>
      </trkpt>
      <trkpt lat="62.49858" lon="6.77622">
        <ele>122.057495</ele>
        <time>2020-08-01T07:44:22.589Z</time>
      </trkpt>
      <trkpt lat="62.49859" lon="6.77594">
        <ele>122.34841</ele>
        <time>2020-08-01T07:44:24.629Z</time>
      </trkpt>
      <trkpt lat="62.49861" lon="6.77569">
        <ele>122.608644</ele>
        <time>2020-08-01T07:44:26.607Z</time>
      </trkpt>
      <trkpt lat="62.49861" lon="6.77546">
        <ele>122.84809</ele>
        <time>2020-08-01T07:44:28.597Z</time>
      </trkpt>
      <trkpt lat="62.49862" lon="6.77525">
        <ele>123.069483</ele>
        <time>2020-08-01T07:44:30.630Z</time>
      </trkpt>
      <trkpt lat="62.49864" lon="6.77503">
        <ele>123.293471</ele>
        <time>2020-08-01T07:44:32.585Z</time>
      </trkpt>
      <trkpt lat="62.49864" lon="6.7748">
        <ele>123.493822</ele>
        <time>2020-08-01T07:44:34.597Z</time>
      </trkpt>
      <trkpt lat="62.49865" lon="6.77458">
        <ele>123.694017</ele>
        <time>2020-08-01T07:44:36.593Z</time>
      </trkpt>
      <trkpt lat="62.49866" lon="6.77435">
        <ele>123.897008</ele>
        <time>2020-08-01T07:44:38.595Z</time>
      </trkpt>
      <trkpt lat="62.49867" lon="6.7741">
        <ele>124.113813</ele>
        <time>2020-08-01T07:44:40.604Z</time>
      </trkpt>
      <trkpt lat="62.49867" lon="6.77385">
        <ele>124.33642</ele>
        <time>2020-08-01T07:44:42.605Z</time>
      </trkpt>
      <trkpt lat="62.49868" lon="6.77361">
        <ele>124.550136</ele>
        <time>2020-08-01T07:44:44.582Z</time>
      </trkpt>
      <trkpt lat="62.49869" lon="6.77337">
        <ele>124.758126</ele>
        <time>2020-08-01T07:44:46.608Z</time>
      </trkpt>
      <trkpt lat="62.49869" lon="6.77313">
        <ele>124.970523</ele>
        <time>2020-08-01T07:44:48.597Z</time>
      </trkpt>
      <trkpt lat="62.49871" lon="6.77291">
        <ele>125.17057</ele>
        <time>2020-08-01T07:44:50.599Z</time>
      </trkpt>
      <trkpt lat="62.49872" lon="6.7727">
        <ele>125.354763</ele>
        <time>2020-08-01T07:44:52.640Z</time>
      </trkpt>
      <trkpt lat="62.49873" lon="6.77249">
        <ele>125.546697</ele>
        <time>2020-08-01T07:44:54.601Z</time>
      </trkpt>
      <trkpt lat="62.49874" lon="6.77228">
        <ele>125.725938</ele>
        <time>2020-08-01T07:44:56.622Z</time>
      </trkpt>
      <trkpt lat="62.49875" lon="6.77209">
        <ele>125.902955</ele>
        <time>2020-08-01T07:44:58.607Z</time>
      </trkpt>
      <trkpt lat="62.49876" lon="6.7718">
        <ele>126.15602</ele>
        <time>2020-08-01T07:45:01.604Z</time>
      </trkpt>
      <trkpt lat="62.49877" lon="6.77153">
        <ele>126.394906</ele>
        <time>2020-08-01T07:45:04.601Z</time>
      </trkpt>
      <trkpt lat="62.49879" lon="6.77126">
        <ele>126.633833</ele>
        <time>2020-08-01T07:45:07.585Z</time>
      </trkpt>
      <trkpt lat="62.4988" lon="6.77101">
        <ele>126.689775</ele>
        <time>2020-08-01T07:45:10.603Z</time>
      </trkpt>
      <trkpt lat="62.49882" lon="6.77075">
        <ele>126.702978</ele>
        <time>2020-08-01T07:45:13.584Z</time>
      </trkpt>
      <trkpt lat="62.49883" lon="6.7705">
        <ele>126.716046</ele>
        <time>2020-08-01T07:45:16.610Z</time>
      </trkpt>
      <trkpt lat="62.49883" lon="6.77026">
        <ele>126.728573</ele>
        <time>2020-08-01T07:45:19.603Z</time>
      </trkpt>
      <trkpt lat="62.49884" lon="6.77003">
        <ele>126.740372</ele>
        <time>2020-08-01T07:45:22.601Z</time>
      </trkpt>
      <trkpt lat="62.49885" lon="6.76981">
        <ele>126.751971</ele>
        <time>2020-08-01T07:45:25.582Z</time>
      </trkpt>
      <trkpt lat="62.49885" lon="6.76959">
        <ele>126.763443</ele>
        <time>2020-08-01T07:45:28.621Z</time>
      </trkpt>
      <trkpt lat="62.49886" lon="6.76934">
        <ele>126.776118</ele>
        <time>2020-08-01T07:45:31.608Z</time>
      </trkpt>
      <trkpt lat="62.49887" lon="6.76909">
        <ele>126.78895</ele>
        <time>2020-08-01T07:45:34.592Z</time>
      </trkpt>
      <trkpt lat="62.49889" lon="6.76883">
        <ele>126.803009</ele>
        <time>2020-08-01T07:45:37.593Z</time>
      </trkpt>
      <trkpt lat="62.4989" lon="6.76855">
        <ele>126.817407</ele>
        <time>2020-08-01T07:45:40.620Z</time>
      </trkpt>
      <trkpt lat="62.49891" lon="6.76829">
        <ele>126.830598</ele>
        <time>2020-08-01T07:45:43.588Z</time>
      </trkpt>
      <trkpt lat="62.49892" lon="6.76808">
        <ele>126.841766</ele>
        <time>2020-08-01T07:45:46.599Z</time>
      </trkpt>
      <trkpt lat="62.49894" lon="6.76785">
        <ele>126.853673</ele>
        <time>2020-08-01T07:45:50.620Z</time>
      </trkpt>
      <trkpt lat="62.49895" lon="6.76766">
        <ele>126.863835</ele>
        <time>2020-08-01T07:45:54.630Z</time>
      </trkpt>
      <trkpt lat="62.49897" lon="6.76743">
        <ele>126.875837</ele>
        <time>2020-08-01T07:46:00.613Z</time>
      </trkpt>
      <trkpt lat="62.49898" lon="6.76722">
        <ele>126.962574</ele>
        <time>2020-08-01T07:46:05.608Z</time>
      </trkpt>
      <trkpt lat="62.49899" lon="6.767">
        <ele>127.124575</ele>
        <time>2020-08-01T07:46:10.588Z</time>
      </trkpt>
      <trkpt lat="62.49899" lon="6.76677">
        <ele>127.287292</ele>
        <time>2020-08-01T07:46:15.608Z</time>
      </trkpt>
      <trkpt lat="62.49899" lon="6.76654">
        <ele>127.453398</ele>
        <time>2020-08-01T07:46:20.577Z</time>
      </trkpt>
      <trkpt lat="62.499" lon="6.76634">
        <ele>127.596505</ele>
        <time>2020-08-01T07:46:24.595Z</time>
      </trkpt>
      <trkpt lat="62.49902" lon="6.76614">
        <ele>127.742118</ele>
        <time>2020-08-01T07:46:28.600Z</time>
      </trkpt>
      <trkpt lat="62.49903" lon="6.76591">
        <ele>127.905588</ele>
        <time>2020-08-01T07:46:32.595Z</time>
      </trkpt>
      <trkpt lat="62.49905" lon="6.76568">
        <ele>128.071634</ele>
        <time>2020-08-01T07:46:36.608Z</time>
      </trkpt>
      <trkpt lat="62.49906" lon="6.76549">
        <ele>128.209753</ele>
        <time>2020-08-01T07:46:39.592Z</time>
      </trkpt>
      <trkpt lat="62.49907" lon="6.76529">
        <ele>128.351919</ele>
        <time>2020-08-01T07:46:42.625Z</time>
      </trkpt>
      <trkpt lat="62.49908" lon="6.76504">
        <ele>128.528429</ele>
        <time>2020-08-01T07:46:46.622Z</time>
      </trkpt>
      <trkpt lat="62.49909" lon="6.76485">
        <ele>128.668174</ele>
        <time>2020-08-01T07:46:49.617Z</time>
      </trkpt>
      <trkpt lat="62.4991" lon="6.76464">
        <ele>128.817674</ele>
        <time>2020-08-01T07:46:52.598Z</time>
      </trkpt>
      <trkpt lat="62.49911" lon="6.76436">
        <ele>129.016865</ele>
        <time>2020-08-01T07:46:55.613Z</time>
      </trkpt>
      <trkpt lat="62.49912" lon="6.76413">
        <ele>129.180283</ele>
        <time>2020-08-01T07:46:57.609Z</time>
      </trkpt>
      <trkpt lat="62.49913" lon="6.76387">
        <ele>129.369822</ele>
        <time>2020-08-01T07:46:59.619Z</time>
      </trkpt>
      <trkpt lat="62.49914" lon="6.76358">
        <ele>129.57702</ele>
        <time>2020-08-01T07:47:01.620Z</time>
      </trkpt>
      <trkpt lat="62.49915" lon="6.76328">
        <ele>129.977007</ele>
        <time>2020-08-01T07:47:03.629Z</time>
      </trkpt>
      <trkpt lat="62.49916" lon="6.76296">
        <ele>130.51811</ele>
        <time>2020-08-01T07:47:05.589Z</time>
      </trkpt>
      <trkpt lat="62.49917" lon="6.76265">
        <ele>131.056775</ele>
        <time>2020-08-01T07:47:07.578Z</time>
      </trkpt>
      <trkpt lat="62.49915" lon="6.76237">
        <ele>131.543851</ele>
        <time>2020-08-01T07:47:09.603Z</time>
      </trkpt>
      <trkpt lat="62.49913" lon="6.76213">
        <ele>131.946735</ele>
        <time>2020-08-01T07:47:11.602Z</time>
      </trkpt>
      <trkpt lat="62.49911" lon="6.76193">
        <ele>132.300778</ele>
        <time>2020-08-01T07:47:13.631Z</time>
      </trkpt>
      <trkpt lat="62.49908" lon="6.76173">
        <ele>132.666319</ele>
        <time>2020-08-01T07:47:15.618Z</time>
      </trkpt>
      <trkpt lat="62.49905" lon="6.76154">
        <ele>133.007659</ele>
        <time>2020-08-01T07:47:17.577Z</time>
      </trkpt>
      <trkpt lat="62.49901" lon="6.7613">
        <ele>133.448115</ele>
        <time>2020-08-01T07:47:20.599Z</time>
      </trkpt>
      <trkpt lat="62.49898" lon="6.76107">
        <ele>133.846365</ele>
        <time>2020-08-01T07:47:23.605Z</time>
      </trkpt>
      <trkpt lat="62.49896" lon="6.76086">
        <ele>134.227715</ele>
        <time>2020-08-01T07:47:26.597Z</time>
      </trkpt>
      <trkpt lat="62.49893" lon="6.76065">
        <ele>134.603748</ele>
        <time>2020-08-01T07:47:29.591Z</time>
      </trkpt>
      <trkpt lat="62.4989" lon="6.76043">
        <ele>134.983628</ele>
        <time>2020-08-01T07:47:32.621Z</time>
      </trkpt>
      <trkpt lat="62.49889" lon="6.76018">
        <ele>135.408709</ele>
        <time>2020-08-01T07:47:35.611Z</time>
      </trkpt>
      <trkpt lat="62.49887" lon="6.75991">
        <ele>135.883632</ele>
        <time>2020-08-01T07:47:38.589Z</time>
      </trkpt>
      <trkpt lat="62.49886" lon="6.75971">
        <ele>136.220426</ele>
        <time>2020-08-01T07:47:40.584Z</time>
      </trkpt>
      <trkpt lat="62.49886" lon="6.75951">
        <ele>135.880551</ele>
        <time>2020-08-01T07:47:42.618Z</time>
      </trkpt>
      <trkpt lat="62.49885" lon="6.7593">
        <ele>135.253341</ele>
        <time>2020-08-01T07:47:44.603Z</time>
      </trkpt>
      <trkpt lat="62.49885" lon="6.75909">
        <ele>134.622771</ele>
        <time>2020-08-01T07:47:46.601Z</time>
      </trkpt>
      <trkpt lat="62.49884" lon="6.75888">
        <ele>133.991266</ele>
        <time>2020-08-01T07:47:48.592Z</time>
      </trkpt>
      <trkpt lat="62.49882" lon="6.75868">
        <ele>133.380903</ele>
        <time>2020-08-01T07:47:50.618Z</time>
      </trkpt>
      <trkpt lat="62.4988" lon="6.75848">
        <ele>132.774657</ele>
        <time>2020-08-01T07:47:52.637Z</time>
      </trkpt>
      <trkpt lat="62.49879" lon="6.75828">
        <ele>132.173192</ele>
        <time>2020-08-01T07:47:54.583Z</time>
      </trkpt>
      <trkpt lat="62.49879" lon="6.75808">
        <ele>131.569924</ele>
        <time>2020-08-01T07:47:56.612Z</time>
      </trkpt>
      <trkpt lat="62.49878" lon="6.75788">
        <ele>130.960289</ele>
        <time>2020-08-01T07:47:58.609Z</time>
      </trkpt>
      <trkpt lat="62.49878" lon="6.75766">
        <ele>130.312419</ele>
        <time>2020-08-01T07:48:00.595Z</time>
      </trkpt>
      <trkpt lat="62.49878" lon="6.75743">
        <ele>129.62308</ele>
        <time>2020-08-01T07:48:02.590Z</time>
      </trkpt>
      <trkpt lat="62.49877" lon="6.75721">
        <ele>128.948632</ele>
        <time>2020-08-01T07:48:04.653Z</time>
      </trkpt>
      <trkpt lat="62.49877" lon="6.75701">
        <ele>128.351666</ele>
        <time>2020-08-01T07:48:06.601Z</time>
      </trkpt>
      <trkpt lat="62.49876" lon="6.75674">
        <ele>127.538547</ele>
        <time>2020-08-01T07:48:09.615Z</time>
      </trkpt>
      <trkpt lat="62.49876" lon="6.7565">
        <ele>126.839977</ele>
        <time>2020-08-01T07:48:11.624Z</time>
      </trkpt>
      <trkpt lat="62.49878" lon="6.75624">
        <ele>126.037615</ele>
        <time>2020-08-01T07:48:13.589Z</time>
      </trkpt>
      <trkpt lat="62.49881" lon="6.75596">
        <ele>125.181863</ele>
        <time>2020-08-01T07:48:15.594Z</time>
      </trkpt>
      <trkpt lat="62.49886" lon="6.75569">
        <ele>124.414463</ele>
        <time>2020-08-01T07:48:17.599Z</time>
      </trkpt>
      <trkpt lat="62.49892" lon="6.75543">
        <ele>123.852108</ele>
        <time>2020-08-01T07:48:19.593Z</time>
      </trkpt>
      <trkpt lat="62.49898" lon="6.75519">
        <ele>123.316916</ele>
        <time>2020-08-01T07:48:21.592Z</time>
      </trkpt>
      <trkpt lat="62.49903" lon="6.75494">
        <ele>122.776544</ele>
        <time>2020-08-01T07:48:23.604Z</time>
      </trkpt>
      <trkpt lat="62.49907" lon="6.7547">
        <ele>122.27823</ele>
        <time>2020-08-01T07:48:25.625Z</time>
      </trkpt>
      <trkpt lat="62.4991" lon="6.75447">
        <ele>121.827534</ele>
        <time>2020-08-01T07:48:27.633Z</time>
      </trkpt>
      <trkpt lat="62.49912" lon="6.75427">
        <ele>121.417785</ele>
        <time>2020-08-01T07:48:29.589Z</time>
      </trkpt>
      <trkpt lat="62.49914" lon="6.75406">
        <ele>121.004043</ele>
        <time>2020-08-01T07:48:31.620Z</time>
      </trkpt>
      <trkpt lat="62.49915" lon="6.75384">
        <ele>120.578502</ele>
        <time>2020-08-01T07:48:33.589Z</time>
      </trkpt>
      <trkpt lat="62.49915" lon="6.75362">
        <ele>120.152357</ele>
        <time>2020-08-01T07:48:35.630Z</time>
      </trkpt>
      <trkpt lat="62.49915" lon="6.75339">
        <ele>119.7016</ele>
        <time>2020-08-01T07:48:37.604Z</time>
      </trkpt>
      <trkpt lat="62.49916" lon="6.75316">
        <ele>119.256377</ele>
        <time>2020-08-01T07:48:39.611Z</time>
      </trkpt>
      <trkpt lat="62.49917" lon="6.75293">
        <ele>118.8063</ele>
        <time>2020-08-01T07:48:41.629Z</time>
      </trkpt>
      <trkpt lat="62.49917" lon="6.75272">
        <ele>118.380386</ele>
        <time>2020-08-01T07:48:43.659Z</time>
      </trkpt>
      <trkpt lat="62.49917" lon="6.75249">
        <ele>117.945158</ele>
        <time>2020-08-01T07:48:45.636Z</time>
      </trkpt>
      <trkpt lat="62.49918" lon="6.75229">
        <ele>117.552123</ele>
        <time>2020-08-01T07:48:47.614Z</time>
      </trkpt>
      <trkpt lat="62.49918" lon="6.75209">
        <ele>117.15403</ele>
        <time>2020-08-01T07:48:49.600Z</time>
      </trkpt>
      <trkpt lat="62.49919" lon="6.75182">
        <ele>116.888047</ele>
        <time>2020-08-01T07:48:52.598Z</time>
      </trkpt>
      <trkpt lat="62.4992" lon="6.75157">
        <ele>116.699596</ele>
        <time>2020-08-01T07:48:55.608Z</time>
      </trkpt>
      <trkpt lat="62.49921" lon="6.75133">
        <ele>116.526597</ele>
        <time>2020-08-01T07:48:58.606Z</time>
      </trkpt>
      <trkpt lat="62.49922" lon="6.75112">
        <ele>116.373394</ele>
        <time>2020-08-01T07:49:01.638Z</time>
      </trkpt>
      <trkpt lat="62.49923" lon="6.7509">
        <ele>116.206159</ele>
        <time>2020-08-01T07:49:04.612Z</time>
      </trkpt>
      <trkpt lat="62.49924" lon="6.75062">
        <ele>116.005144</ele>
        <time>2020-08-01T07:49:07.616Z</time>
      </trkpt>
      <trkpt lat="62.49925" lon="6.75034">
        <ele>115.798274</ele>
        <time>2020-08-01T07:49:10.596Z</time>
      </trkpt>
      <trkpt lat="62.49926" lon="6.75006">
        <ele>115.587013</ele>
        <time>2020-08-01T07:49:13.588Z</time>
      </trkpt>
      <trkpt lat="62.49926" lon="6.74979">
        <ele>115.391662</ele>
        <time>2020-08-01T07:49:16.597Z</time>
      </trkpt>
      <trkpt lat="62.49927" lon="6.74953">
        <ele>115.200058</ele>
        <time>2020-08-01T07:49:19.585Z</time>
      </trkpt>
      <trkpt lat="62.49926" lon="6.74926">
        <ele>115.003915</ele>
        <time>2020-08-01T07:49:22.584Z</time>
      </trkpt>
      <trkpt lat="62.49926" lon="6.74906">
        <ele>114.855636</ele>
        <time>2020-08-01T07:49:24.617Z</time>
      </trkpt>
      <trkpt lat="62.49926" lon="6.74884">
        <ele>114.697823</ele>
        <time>2020-08-01T07:49:26.592Z</time>
      </trkpt>
      <trkpt lat="62.49925" lon="6.74861">
        <ele>114.5262</ele>
        <time>2020-08-01T07:49:28.622Z</time>
      </trkpt>
      <trkpt lat="62.49924" lon="6.74836">
        <ele>114.342438</ele>
        <time>2020-08-01T07:49:30.611Z</time>
      </trkpt>
      <trkpt lat="62.49923" lon="6.74809">
        <ele>114.092073</ele>
        <time>2020-08-01T07:49:32.624Z</time>
      </trkpt>
      <trkpt lat="62.49923" lon="6.74783">
        <ele>113.637167</ele>
        <time>2020-08-01T07:49:34.589Z</time>
      </trkpt>
      <trkpt lat="62.49923" lon="6.74756">
        <ele>113.182217</ele>
        <time>2020-08-01T07:49:36.641Z</time>
      </trkpt>
      <trkpt lat="62.49921" lon="6.74726">
        <ele>112.681249</ele>
        <time>2020-08-01T07:49:38.589Z</time>
      </trkpt>
      <trkpt lat="62.4992" lon="6.74697">
        <ele>112.172826</ele>
        <time>2020-08-01T07:49:40.630Z</time>
      </trkpt>
      <trkpt lat="62.49919" lon="6.74668">
        <ele>111.678279</ele>
        <time>2020-08-01T07:49:42.614Z</time>
      </trkpt>
      <trkpt lat="62.49917" lon="6.74639">
        <ele>111.195556</ele>
        <time>2020-08-01T07:49:44.593Z</time>
      </trkpt>
      <trkpt lat="62.49917" lon="6.74611">
        <ele>110.721979</ele>
        <time>2020-08-01T07:49:46.619Z</time>
      </trkpt>
      <trkpt lat="62.49918" lon="6.74583">
        <ele>110.236312</ele>
        <time>2020-08-01T07:49:48.603Z</time>
      </trkpt>
      <trkpt lat="62.49918" lon="6.74554">
        <ele>109.753759</ele>
        <time>2020-08-01T07:49:50.617Z</time>
      </trkpt>
      <trkpt lat="62.49919" lon="6.74526">
        <ele>109.275896</ele>
        <time>2020-08-01T07:49:52.599Z</time>
      </trkpt>
      <trkpt lat="62.4992" lon="6.74498">
        <ele>108.801179</ele>
        <time>2020-08-01T07:49:54.584Z</time>
      </trkpt>
      <trkpt lat="62.4992" lon="6.74473">
        <ele>108.363015</ele>
        <time>2020-08-01T07:49:56.605Z</time>
      </trkpt>
      <trkpt lat="62.49921" lon="6.74445">
        <ele>107.897417</ele>
        <time>2020-08-01T07:49:58.595Z</time>
      </trkpt>
      <trkpt lat="62.49922" lon="6.74416">
        <ele>107.710732</ele>
        <time>2020-08-01T07:50:00.615Z</time>
      </trkpt>
      <trkpt lat="62.49922" lon="6.7439">
        <ele>108.048221</ele>
        <time>2020-08-01T07:50:02.605Z</time>
      </trkpt>
      <trkpt lat="62.49921" lon="6.74365">
        <ele>108.38218</ele>
        <time>2020-08-01T07:50:04.585Z</time>
      </trkpt>
      <trkpt lat="62.49919" lon="6.74339">
        <ele>108.729317</ele>
        <time>2020-08-01T07:50:06.585Z</time>
      </trkpt>
      <trkpt lat="62.49919" lon="6.74318">
        <ele>109.007963</ele>
        <time>2020-08-01T07:50:08.599Z</time>
      </trkpt>
      <trkpt lat="62.49919" lon="6.74292">
        <ele>109.348099</ele>
        <time>2020-08-01T07:50:11.603Z</time>
      </trkpt>
      <trkpt lat="62.49919" lon="6.74267">
        <ele>109.679406</ele>
        <time>2020-08-01T07:50:14.600Z</time>
      </trkpt>
      <trkpt lat="62.49921" lon="6.74242">
        <ele>110.014682</ele>
        <time>2020-08-01T07:50:17.600Z</time>
      </trkpt>
      <trkpt lat="62.49921" lon="6.74214">
        <ele>110.393879</ele>
        <time>2020-08-01T07:50:20.592Z</time>
      </trkpt>
      <trkpt lat="62.49921" lon="6.74187">
        <ele>110.748561</ele>
        <time>2020-08-01T07:50:23.616Z</time>
      </trkpt>
      <trkpt lat="62.49922" lon="6.7416">
        <ele>111.096921</ele>
        <time>2020-08-01T07:50:26.595Z</time>
      </trkpt>
      <trkpt lat="62.49922" lon="6.74136">
        <ele>111.4225</ele>
        <time>2020-08-01T07:50:29.629Z</time>
      </trkpt>
      <trkpt lat="62.49921" lon="6.74113">
        <ele>111.722707</ele>
        <time>2020-08-01T07:50:32.592Z</time>
      </trkpt>
      <trkpt lat="62.4992" lon="6.74091">
        <ele>112.023462</ele>
        <time>2020-08-01T07:50:35.601Z</time>
      </trkpt>
      <trkpt lat="62.4992" lon="6.74069">
        <ele>112.305486</ele>
        <time>2020-08-01T07:50:38.594Z</time>
      </trkpt>
      <trkpt lat="62.4992" lon="6.74049">
        <ele>112.575529</ele>
        <time>2020-08-01T07:50:41.601Z</time>
      </trkpt>
      <trkpt lat="62.4992" lon="6.74027">
        <ele>112.932653</ele>
        <time>2020-08-01T07:50:44.598Z</time>
      </trkpt>
      <trkpt lat="62.49921" lon="6.74005">
        <ele>113.389018</ele>
        <time>2020-08-01T07:50:47.608Z</time>
      </trkpt>
      <trkpt lat="62.49922" lon="6.7398">
        <ele>113.886388</ele>
        <time>2020-08-01T07:50:50.608Z</time>
      </trkpt>
      <trkpt lat="62.49922" lon="6.73956">
        <ele>114.365987</ele>
        <time>2020-08-01T07:50:53.596Z</time>
      </trkpt>
      <trkpt lat="62.49922" lon="6.73931">
        <ele>114.865544</ele>
        <time>2020-08-01T07:50:56.607Z</time>
      </trkpt>
      <trkpt lat="62.49921" lon="6.73904">
        <ele>115.403091</ele>
        <time>2020-08-01T07:50:59.600Z</time>
      </trkpt>
      <trkpt lat="62.4992" lon="6.73885">
        <ele>115.79712</ele>
        <time>2020-08-01T07:51:01.588Z</time>
      </trkpt>
      <trkpt lat="62.49919" lon="6.73864">
        <ele>116.2226</ele>
        <time>2020-08-01T07:51:03.616Z</time>
      </trkpt>
      <trkpt lat="62.49917" lon="6.73841">
        <ele>116.680662</ele>
        <time>2020-08-01T07:51:05.597Z</time>
      </trkpt>
      <trkpt lat="62.49916" lon="6.7382">
        <ele>117.103693</ele>
        <time>2020-08-01T07:51:07.612Z</time>
      </trkpt>
      <trkpt lat="62.49916" lon="6.73797">
        <ele>117.565573</ele>
        <time>2020-08-01T07:51:09.596Z</time>
      </trkpt>
      <trkpt lat="62.49915" lon="6.73773">
        <ele>118.045311</ele>
        <time>2020-08-01T07:51:11.595Z</time>
      </trkpt>
      <trkpt lat="62.49914" lon="6.73748">
        <ele>118.555062</ele>
        <time>2020-08-01T07:51:13.587Z</time>
      </trkpt>
      <trkpt lat="62.49913" lon="6.73724">
        <ele>119.043457</ele>
        <time>2020-08-01T07:51:15.588Z</time>
      </trkpt>
      <trkpt lat="62.49913" lon="6.737">
        <ele>119.520473</ele>
        <time>2020-08-01T07:51:17.591Z</time>
      </trkpt>
      <trkpt lat="62.49911" lon="6.73675">
        <ele>120.02548</ele>
        <time>2020-08-01T07:51:19.584Z</time>
      </trkpt>
      <trkpt lat="62.49909" lon="6.73649">
        <ele>120.53655</ele>
        <time>2020-08-01T07:51:21.593Z</time>
      </trkpt>
      <trkpt lat="62.49907" lon="6.73619">
        <ele>120.357548</ele>
        <time>2020-08-01T07:51:23.587Z</time>
      </trkpt>
      <trkpt lat="62.49904" lon="6.73591">
        <ele>120.186099</ele>
        <time>2020-08-01T07:51:25.621Z</time>
      </trkpt>
      <trkpt lat="62.499" lon="6.73566">
        <ele>120.023635</ele>
        <time>2020-08-01T07:51:27.605Z</time>
      </trkpt>
      <trkpt lat="62.49894" lon="6.73544">
        <ele>119.871253</ele>
        <time>2020-08-01T07:51:29.602Z</time>
      </trkpt>
      <trkpt lat="62.49887" lon="6.73526">
        <ele>119.734466</ele>
        <time>2020-08-01T07:51:31.589Z</time>
      </trkpt>
      <trkpt lat="62.49881" lon="6.73509">
        <ele>119.604756</ele>
        <time>2020-08-01T07:51:33.606Z</time>
      </trkpt>
      <trkpt lat="62.49876" lon="6.73492">
        <ele>119.485238</ele>
        <time>2020-08-01T07:51:35.594Z</time>
      </trkpt>
      <trkpt lat="62.4987" lon="6.73469">
        <ele>119.329991</ele>
        <time>2020-08-01T07:51:38.625Z</time>
      </trkpt>
      <trkpt lat="62.49865" lon="6.73445">
        <ele>119.171265</ele>
        <time>2020-08-01T07:51:41.598Z</time>
      </trkpt>
      <trkpt lat="62.4986" lon="6.73419">
        <ele>119.002281</ele>
        <time>2020-08-01T07:51:44.582Z</time>
      </trkpt>
      <trkpt lat="62.49857" lon="6.734">
        <ele>118.881802</ele>
        <time>2020-08-01T07:51:46.636Z</time>
      </trkpt>
      <trkpt lat="62.49854" lon="6.73379">
        <ele>118.753936</ele>
        <time>2020-08-01T07:51:48.582Z</time>
      </trkpt>
      <trkpt lat="62.49852" lon="6.73358">
        <ele>118.622549</ele>
        <time>2020-08-01T07:51:50.599Z</time>
      </trkpt>
      <trkpt lat="62.4985" lon="6.73337">
        <ele>118.498433</ele>
        <time>2020-08-01T07:51:52.590Z</time>
      </trkpt>
      <trkpt lat="62.49849" lon="6.73315">
        <ele>118.366354</ele>
        <time>2020-08-01T07:51:54.596Z</time>
      </trkpt>
      <trkpt lat="62.49847" lon="6.73293">
        <ele>118.229114</ele>
        <time>2020-08-01T07:51:56.632Z</time>
      </trkpt>
      <trkpt lat="62.49844" lon="6.7327">
        <ele>118.049282</ele>
        <time>2020-08-01T07:51:58.645Z</time>
      </trkpt>
      <trkpt lat="62.49843" lon="6.73247">
        <ele>117.874679</ele>
        <time>2020-08-01T07:52:00.593Z</time>
      </trkpt>
      <trkpt lat="62.49841" lon="6.73226">
        <ele>117.705523</ele>
        <time>2020-08-01T07:52:02.597Z</time>
      </trkpt>
      <trkpt lat="62.4984" lon="6.73203">
        <ele>117.531183</ele>
        <time>2020-08-01T07:52:04.600Z</time>
      </trkpt>
      <trkpt lat="62.49837" lon="6.73177">
        <ele>117.327004</ele>
        <time>2020-08-01T07:52:06.605Z</time>
      </trkpt>
      <trkpt lat="62.49835" lon="6.7315">
        <ele>117.111669</ele>
        <time>2020-08-01T07:52:08.589Z</time>
      </trkpt>
      <trkpt lat="62.49832" lon="6.73121">
        <ele>116.882157</ele>
        <time>2020-08-01T07:52:10.587Z</time>
      </trkpt>
      <trkpt lat="62.49831" lon="6.73092">
        <ele>116.662598</ele>
        <time>2020-08-01T07:52:12.585Z</time>
      </trkpt>
      <trkpt lat="62.49831" lon="6.73063">
        <ele>116.43639</ele>
        <time>2020-08-01T07:52:14.617Z</time>
      </trkpt>
      <trkpt lat="62.4983" lon="6.73031">
        <ele>116.188449</ele>
        <time>2020-08-01T07:52:16.619Z</time>
      </trkpt>
      <trkpt lat="62.49828" lon="6.72993">
        <ele>115.895949</ele>
        <time>2020-08-01T07:52:18.622Z</time>
      </trkpt>
      <trkpt lat="62.49828" lon="6.72974">
        <ele>115.744741</ele>
        <time>2020-08-01T07:52:19.630Z</time>
      </trkpt>
      <trkpt lat="62.49826" lon="6.72936">
        <ele>115.451353</ele>
        <time>2020-08-01T07:52:21.599Z</time>
      </trkpt>
      <trkpt lat="62.49824" lon="6.72903">
        <ele>115.156708</ele>
        <time>2020-08-01T07:52:23.610Z</time>
      </trkpt>
      <trkpt lat="62.49823" lon="6.72874">
        <ele>114.380188</ele>
        <time>2020-08-01T07:52:25.585Z</time>
      </trkpt>
      <trkpt lat="62.49821" lon="6.72842">
        <ele>113.529864</ele>
        <time>2020-08-01T07:52:27.618Z</time>
      </trkpt>
      <trkpt lat="62.49818" lon="6.72808">
        <ele>112.610361</ele>
        <time>2020-08-01T07:52:29.602Z</time>
      </trkpt>
      <trkpt lat="62.49812" lon="6.7277">
        <ele>111.551089</ele>
        <time>2020-08-01T07:52:31.608Z</time>
      </trkpt>
      <trkpt lat="62.4981" lon="6.72749">
        <ele>110.98171</ele>
        <time>2020-08-01T07:52:32.586Z</time>
      </trkpt>
      <trkpt lat="62.49807" lon="6.72728">
        <ele>110.415339</ele>
        <time>2020-08-01T07:52:33.615Z</time>
      </trkpt>
      <trkpt lat="62.49805" lon="6.72708">
        <ele>109.869757</ele>
        <time>2020-08-01T07:52:34.597Z</time>
      </trkpt>
      <trkpt lat="62.49802" lon="6.72687">
        <ele>109.299353</ele>
        <time>2020-08-01T07:52:35.610Z</time>
      </trkpt>
      <trkpt lat="62.498" lon="6.72665">
        <ele>108.697055</ele>
        <time>2020-08-01T07:52:36.597Z</time>
      </trkpt>
      <trkpt lat="62.49797" lon="6.72642">
        <ele>108.068497</ele>
        <time>2020-08-01T07:52:37.604Z</time>
      </trkpt>
      <trkpt lat="62.49794" lon="6.72618">
        <ele>107.398613</ele>
        <time>2020-08-01T07:52:38.601Z</time>
      </trkpt>
      <trkpt lat="62.4979" lon="6.72592">
        <ele>106.687403</ele>
        <time>2020-08-01T07:52:39.592Z</time>
      </trkpt>
      <trkpt lat="62.49787" lon="6.72565">
        <ele>105.936375</ele>
        <time>2020-08-01T07:52:40.623Z</time>
      </trkpt>
      <trkpt lat="62.49784" lon="6.72536">
        <ele>105.161059</ele>
        <time>2020-08-01T07:52:41.586Z</time>
      </trkpt>
      <trkpt lat="62.49783" lon="6.72507">
        <ele>103.614846</ele>
        <time>2020-08-01T07:52:42.588Z</time>
      </trkpt>
      <trkpt lat="62.49782" lon="6.72477">
        <ele>101.669563</ele>
        <time>2020-08-01T07:52:43.600Z</time>
      </trkpt>
      <trkpt lat="62.49782" lon="6.72449">
        <ele>99.826928</ele>
        <time>2020-08-01T07:52:44.592Z</time>
      </trkpt>
      <trkpt lat="62.49783" lon="6.72423">
        <ele>98.101865</ele>
        <time>2020-08-01T07:52:45.609Z</time>
      </trkpt>
      <trkpt lat="62.49784" lon="6.72397">
        <ele>96.40933</ele>
        <time>2020-08-01T07:52:46.595Z</time>
      </trkpt>
      <trkpt lat="62.49785" lon="6.72372">
        <ele>94.811405</ele>
        <time>2020-08-01T07:52:47.601Z</time>
      </trkpt>
      <trkpt lat="62.49786" lon="6.72349">
        <ele>93.255218</ele>
        <time>2020-08-01T07:52:48.626Z</time>
      </trkpt>
      <trkpt lat="62.49788" lon="6.72325">
        <ele>91.666668</ele>
        <time>2020-08-01T07:52:49.616Z</time>
      </trkpt>
      <trkpt lat="62.4979" lon="6.72301">
        <ele>90.084792</ele>
        <time>2020-08-01T07:52:50.635Z</time>
      </trkpt>
      <trkpt lat="62.49792" lon="6.72278">
        <ele>88.569627</ele>
        <time>2020-08-01T07:52:51.605Z</time>
      </trkpt>
      <trkpt lat="62.49794" lon="6.72255">
        <ele>87.048401</ele>
        <time>2020-08-01T07:52:52.589Z</time>
      </trkpt>
      <trkpt lat="62.49796" lon="6.72233">
        <ele>85.583687</ele>
        <time>2020-08-01T07:52:53.598Z</time>
      </trkpt>
      <trkpt lat="62.49799" lon="6.72213">
        <ele>84.185998</ele>
        <time>2020-08-01T07:52:54.639Z</time>
      </trkpt>
      <trkpt lat="62.49802" lon="6.72193">
        <ele>82.839539</ele>
        <time>2020-08-01T07:52:55.620Z</time>
      </trkpt>
      <trkpt lat="62.49804" lon="6.72174">
        <ele>81.532344</ele>
        <time>2020-08-01T07:52:56.622Z</time>
      </trkpt>
      <trkpt lat="62.49807" lon="6.72156">
        <ele>80.262305</ele>
        <time>2020-08-01T07:52:57.619Z</time>
      </trkpt>
      <trkpt lat="62.49814" lon="6.7212">
        <ele>78.707416</ele>
        <time>2020-08-01T07:52:59.584Z</time>
      </trkpt>
      <trkpt lat="62.4982" lon="6.72085">
        <ele>77.639249</ele>
        <time>2020-08-01T07:53:01.602Z</time>
      </trkpt>
      <trkpt lat="62.49826" lon="6.7205">
        <ele>76.542424</ele>
        <time>2020-08-01T07:53:03.610Z</time>
      </trkpt>
      <trkpt lat="62.4983" lon="6.72031">
        <ele>75.967026</ele>
        <time>2020-08-01T07:53:04.607Z</time>
      </trkpt>
      <trkpt lat="62.49833" lon="6.72012">
        <ele>75.37861</ele>
        <time>2020-08-01T07:53:05.603Z</time>
      </trkpt>
      <trkpt lat="62.49837" lon="6.71992">
        <ele>74.754412</ele>
        <time>2020-08-01T07:53:06.620Z</time>
      </trkpt>
      <trkpt lat="62.4984" lon="6.71972">
        <ele>74.15066</ele>
        <time>2020-08-01T07:53:07.621Z</time>
      </trkpt>
      <trkpt lat="62.49842" lon="6.71953">
        <ele>73.58535</ele>
        <time>2020-08-01T07:53:08.619Z</time>
      </trkpt>
      <trkpt lat="62.49844" lon="6.71933">
        <ele>73.016394</ele>
        <time>2020-08-01T07:53:09.592Z</time>
      </trkpt>
      <trkpt lat="62.49843" lon="6.71896">
        <ele>71.950033</ele>
        <time>2020-08-01T07:53:11.619Z</time>
      </trkpt>
      <trkpt lat="62.49838" lon="6.71864">
        <ele>70.974271</ele>
        <time>2020-08-01T07:53:13.585Z</time>
      </trkpt>
      <trkpt lat="62.49835" lon="6.71837">
        <ele>70.164867</ele>
        <time>2020-08-01T07:53:15.626Z</time>
      </trkpt>
      <trkpt lat="62.49837" lon="6.71816">
        <ele>69.526384</ele>
        <time>2020-08-01T07:53:17.627Z</time>
      </trkpt>
      <trkpt lat="62.49845" lon="6.71799">
        <ele>68.848281</ele>
        <time>2020-08-01T07:53:19.578Z</time>
      </trkpt>
      <trkpt lat="62.49852" lon="6.71787">
        <ele>68.282799</ele>
        <time>2020-08-01T07:53:21.628Z</time>
      </trkpt>
      <trkpt lat="62.49862" lon="6.71767">
        <ele>68.928713</ele>
        <time>2020-08-01T07:53:24.587Z</time>
      </trkpt>
      <trkpt lat="62.49869" lon="6.71746">
        <ele>69.575967</ele>
        <time>2020-08-01T07:53:27.613Z</time>
      </trkpt>
      <trkpt lat="62.49874" lon="6.71724">
        <ele>70.180619</ele>
        <time>2020-08-01T07:53:30.621Z</time>
      </trkpt>
      <trkpt lat="62.49878" lon="6.71704">
        <ele>70.739515</ele>
        <time>2020-08-01T07:53:33.586Z</time>
      </trkpt>
      <trkpt lat="62.49881" lon="6.71685">
        <ele>71.245671</ele>
        <time>2020-08-01T07:53:36.610Z</time>
      </trkpt>
      <trkpt lat="62.49885" lon="6.71664">
        <ele>71.79805</ele>
        <time>2020-08-01T07:53:40.632Z</time>
      </trkpt>
      <trkpt lat="62.49889" lon="6.71644">
        <ele>72.32764</ele>
        <time>2020-08-01T07:53:44.584Z</time>
      </trkpt>
      <trkpt lat="62.49894" lon="6.71625">
        <ele>72.875301</ele>
        <time>2020-08-01T07:53:49.586Z</time>
      </trkpt>
      <trkpt lat="62.49898" lon="6.71605">
        <ele>73.431992</ele>
        <time>2020-08-01T07:53:55.625Z</time>
      </trkpt>
      <trkpt lat="62.49903" lon="6.71583">
        <ele>74.015847</ele>
        <time>2020-08-01T07:54:00.591Z</time>
      </trkpt>
      <trkpt lat="62.49907" lon="6.71564">
        <ele>74.566022</ele>
        <time>2020-08-01T07:54:05.593Z</time>
      </trkpt>
      <trkpt lat="62.49912" lon="6.71544">
        <ele>75.117079</ele>
        <time>2020-08-01T07:54:10.618Z</time>
      </trkpt>
      <trkpt lat="62.49915" lon="6.71525">
        <ele>75.633105</ele>
        <time>2020-08-01T07:54:15.595Z</time>
      </trkpt>
      <trkpt lat="62.49919" lon="6.71506">
        <ele>76.128982</ele>
        <time>2020-08-01T07:54:20.600Z</time>
      </trkpt>
      <trkpt lat="62.49925" lon="6.7149">
        <ele>76.642463</ele>
        <time>2020-08-01T07:54:25.604Z</time>
      </trkpt>
      <trkpt lat="62.49929" lon="6.71472">
        <ele>77.134517</ele>
        <time>2020-08-01T07:54:30.576Z</time>
      </trkpt>
      <trkpt lat="62.49934" lon="6.71454">
        <ele>77.647345</ele>
        <time>2020-08-01T07:54:36.596Z</time>
      </trkpt>
      <trkpt lat="62.49938" lon="6.71434">
        <ele>78.040408</ele>
        <time>2020-08-01T07:54:42.639Z</time>
      </trkpt>
      <trkpt lat="62.49942" lon="6.71417">
        <ele>78.271216</ele>
        <time>2020-08-01T07:54:47.589Z</time>
      </trkpt>
      <trkpt lat="62.49946" lon="6.71399">
        <ele>78.50077</ele>
        <time>2020-08-01T07:54:52.605Z</time>
      </trkpt>
      <trkpt lat="62.4995" lon="6.71381">
        <ele>78.727489</ele>
        <time>2020-08-01T07:54:57.608Z</time>
      </trkpt>
      <trkpt lat="62.49955" lon="6.71361">
        <ele>78.991871</ele>
        <time>2020-08-01T07:55:03.589Z</time>
      </trkpt>
      <trkpt lat="62.49959" lon="6.71342">
        <ele>79.24138</ele>
        <time>2020-08-01T07:55:09.608Z</time>
      </trkpt>
      <trkpt lat="62.49965" lon="6.71321">
        <ele>79.508075</ele>
        <time>2020-08-01T07:55:15.585Z</time>
      </trkpt>
      <trkpt lat="62.4997" lon="6.71301">
        <ele>79.770534</ele>
        <time>2020-08-01T07:55:21.588Z</time>
      </trkpt>
      <trkpt lat="62.49974" lon="6.71284">
        <ele>80.00353</ele>
        <time>2020-08-01T07:55:26.603Z</time>
      </trkpt>
      <trkpt lat="62.4998" lon="6.71266">
        <ele>80.250187</ele>
        <time>2020-08-01T07:55:31.599Z</time>
      </trkpt>
      <trkpt lat="62.49984" lon="6.71248">
        <ele>80.491649</ele>
        <time>2020-08-01T07:55:36.591Z</time>
      </trkpt>
      <trkpt lat="62.49988" lon="6.71228">
        <ele>80.746243</ele>
        <time>2020-08-01T07:55:41.580Z</time>
      </trkpt>
      <trkpt lat="62.49994" lon="6.71208">
        <ele>81.013605</ele>
        <time>2020-08-01T07:55:46.597Z</time>
      </trkpt>
      <trkpt lat="62.49999" lon="6.71188">
        <ele>81.278713</ele>
        <time>2020-08-01T07:55:51.589Z</time>
      </trkpt>
      <trkpt lat="62.50004" lon="6.7117">
        <ele>81.511093</ele>
        <time>2020-08-01T07:55:55.619Z</time>
      </trkpt>
      <trkpt lat="62.50009" lon="6.71148">
        <ele>81.796578</ele>
        <time>2020-08-01T07:56:00.594Z</time>
      </trkpt>
      <trkpt lat="62.50012" lon="6.71128">
        <ele>82.042223</ele>
        <time>2020-08-01T07:56:04.596Z</time>
      </trkpt>
      <trkpt lat="62.50018" lon="6.71108">
        <ele>82.31458</ele>
        <time>2020-08-01T07:56:08.588Z</time>
      </trkpt>
      <trkpt lat="62.50024" lon="6.71086">
        <ele>82.39517</ele>
        <time>2020-08-01T07:56:12.599Z</time>
      </trkpt>
      <trkpt lat="62.50031" lon="6.71065">
        <ele>82.367359</ele>
        <time>2020-08-01T07:56:16.595Z</time>
      </trkpt>
      <trkpt lat="62.50037" lon="6.71046">
        <ele>82.342168</ele>
        <time>2020-08-01T07:56:19.599Z</time>
      </trkpt>
      <trkpt lat="62.50043" lon="6.71024">
        <ele>82.316319</ele>
        <time>2020-08-01T07:56:22.591Z</time>
      </trkpt>
      <trkpt lat="62.50047" lon="6.71004">
        <ele>82.293329</ele>
        <time>2020-08-01T07:56:25.585Z</time>
      </trkpt>
      <trkpt lat="62.50052" lon="6.70984">
        <ele>82.268199</ele>
        <time>2020-08-01T07:56:28.604Z</time>
      </trkpt>
      <trkpt lat="62.50057" lon="6.70965">
        <ele>82.244728</ele>
        <time>2020-08-01T07:56:31.605Z</time>
      </trkpt>
      <trkpt lat="62.50062" lon="6.70948">
        <ele>82.223287</ele>
        <time>2020-08-01T07:56:34.595Z</time>
      </trkpt>
      <trkpt lat="62.50067" lon="6.70927">
        <ele>82.198646</ele>
        <time>2020-08-01T07:56:38.599Z</time>
      </trkpt>
      <trkpt lat="62.50072" lon="6.70908">
        <ele>82.17503</ele>
        <time>2020-08-01T07:56:42.586Z</time>
      </trkpt>
      <trkpt lat="62.50076" lon="6.7089">
        <ele>82.154036</ele>
        <time>2020-08-01T07:56:45.600Z</time>
      </trkpt>
      <trkpt lat="62.5008" lon="6.70872">
        <ele>82.132205</ele>
        <time>2020-08-01T07:56:48.584Z</time>
      </trkpt>
      <trkpt lat="62.50085" lon="6.70849">
        <ele>82.10582</ele>
        <time>2020-08-01T07:56:52.641Z</time>
      </trkpt>
      <trkpt lat="62.50089" lon="6.70831">
        <ele>82.08438</ele>
        <time>2020-08-01T07:56:55.624Z</time>
      </trkpt>
      <trkpt lat="62.50094" lon="6.70813">
        <ele>82.062402</ele>
        <time>2020-08-01T07:56:58.589Z</time>
      </trkpt>
      <trkpt lat="62.50098" lon="6.70792">
        <ele>82.038064</ele>
        <time>2020-08-01T07:57:01.611Z</time>
      </trkpt>
      <trkpt lat="62.50103" lon="6.70771">
        <ele>82.012756</ele>
        <time>2020-08-01T07:57:04.597Z</time>
      </trkpt>
      <trkpt lat="62.50108" lon="6.70748">
        <ele>82.067553</ele>
        <time>2020-08-01T07:57:07.642Z</time>
      </trkpt>
      <trkpt lat="62.50115" lon="6.70722">
        <ele>82.224269</ele>
        <time>2020-08-01T07:57:10.611Z</time>
      </trkpt>
      <trkpt lat="62.5012" lon="6.70697">
        <ele>82.373984</ele>
        <time>2020-08-01T07:57:13.599Z</time>
      </trkpt>
      <trkpt lat="62.50126" lon="6.70673">
        <ele>82.517025</ele>
        <time>2020-08-01T07:57:16.598Z</time>
      </trkpt>
      <trkpt lat="62.50132" lon="6.70651">
        <ele>82.655636</ele>
        <time>2020-08-01T07:57:19.598Z</time>
      </trkpt>
      <trkpt lat="62.50137" lon="6.7063">
        <ele>82.783922</ele>
        <time>2020-08-01T07:57:22.594Z</time>
      </trkpt>
      <trkpt lat="62.50141" lon="6.70611">
        <ele>82.899327</ele>
        <time>2020-08-01T07:57:25.581Z</time>
      </trkpt>
      <trkpt lat="62.50146" lon="6.70592">
        <ele>83.015259</ele>
        <time>2020-08-01T07:57:28.600Z</time>
      </trkpt>
      <trkpt lat="62.50149" lon="6.70571">
        <ele>83.139221</ele>
        <time>2020-08-01T07:57:31.588Z</time>
      </trkpt>
      <trkpt lat="62.50154" lon="6.7055">
        <ele>83.263936</ele>
        <time>2020-08-01T07:57:34.592Z</time>
      </trkpt>
      <trkpt lat="62.50159" lon="6.70531">
        <ele>83.381235</ele>
        <time>2020-08-01T07:57:37.595Z</time>
      </trkpt>
      <trkpt lat="62.50164" lon="6.70513">
        <ele>83.496202</ele>
        <time>2020-08-01T07:57:40.618Z</time>
      </trkpt>
      <trkpt lat="62.5017" lon="6.70491">
        <ele>83.635628</ele>
        <time>2020-08-01T07:57:44.609Z</time>
      </trkpt>
      <trkpt lat="62.50175" lon="6.70473">
        <ele>83.74497</ele>
        <time>2020-08-01T07:57:47.596Z</time>
      </trkpt>
      <trkpt lat="62.50181" lon="6.70452">
        <ele>83.881209</ele>
        <time>2020-08-01T07:57:51.603Z</time>
      </trkpt>
      <trkpt lat="62.50187" lon="6.70436">
        <ele>83.98988</ele>
        <time>2020-08-01T07:57:55.629Z</time>
      </trkpt>
      <trkpt lat="62.50191" lon="6.70416">
        <ele>84.109849</ele>
        <time>2020-08-01T07:58:01.584Z</time>
      </trkpt>
      <trkpt lat="62.50195" lon="6.70398">
        <ele>84.228109</ele>
        <time>2020-08-01T07:58:05.590Z</time>
      </trkpt>
      <trkpt lat="62.50199" lon="6.70375">
        <ele>84.374551</ele>
        <time>2020-08-01T07:58:09.584Z</time>
      </trkpt>
      <trkpt lat="62.50204" lon="6.70352">
        <ele>84.527411</ele>
        <time>2020-08-01T07:58:12.605Z</time>
      </trkpt>
      <trkpt lat="62.5021" lon="6.70329">
        <ele>84.684943</ele>
        <time>2020-08-01T07:58:15.621Z</time>
      </trkpt>
      <trkpt lat="62.50214" lon="6.70309">
        <ele>84.819294</ele>
        <time>2020-08-01T07:58:18.608Z</time>
      </trkpt>
      <trkpt lat="62.50219" lon="6.70291">
        <ele>84.941244</ele>
        <time>2020-08-01T07:58:21.595Z</time>
      </trkpt>
      <trkpt lat="62.50223" lon="6.70273">
        <ele>85.064222</ele>
        <time>2020-08-01T07:58:24.612Z</time>
      </trkpt>
      <trkpt lat="62.50228" lon="6.7025">
        <ele>85.212773</ele>
        <time>2020-08-01T07:58:28.591Z</time>
      </trkpt>
      <trkpt lat="62.50231" lon="6.70233">
        <ele>85.329231</ele>
        <time>2020-08-01T07:58:31.602Z</time>
      </trkpt>
      <trkpt lat="62.50237" lon="6.70211">
        <ele>85.475439</ele>
        <time>2020-08-01T07:58:35.599Z</time>
      </trkpt>
      <trkpt lat="62.50241" lon="6.70193">
        <ele>85.600645</ele>
        <time>2020-08-01T07:58:38.602Z</time>
      </trkpt>
      <trkpt lat="62.50246" lon="6.70172">
        <ele>85.738803</ele>
        <time>2020-08-01T07:58:41.617Z</time>
      </trkpt>
      <trkpt lat="62.50252" lon="6.70149">
        <ele>85.896616</ele>
        <time>2020-08-01T07:58:44.591Z</time>
      </trkpt>
      <trkpt lat="62.50258" lon="6.7013">
        <ele>86.035787</ele>
        <time>2020-08-01T07:58:47.612Z</time>
      </trkpt>
      <trkpt lat="62.50262" lon="6.70112">
        <ele>86.157805</ele>
        <time>2020-08-01T07:58:50.584Z</time>
      </trkpt>
      <trkpt lat="62.50268" lon="6.70091">
        <ele>86.2992</ele>
        <time>2020-08-01T07:58:54.601Z</time>
      </trkpt>
      <trkpt lat="62.50272" lon="6.70072">
        <ele>86.428677</ele>
        <time>2020-08-01T07:58:58.642Z</time>
      </trkpt>
      <trkpt lat="62.50276" lon="6.70052">
        <ele>86.92207</ele>
        <time>2020-08-01T07:59:02.610Z</time>
      </trkpt>
      <trkpt lat="62.50278" lon="6.70032">
        <ele>87.429477</ele>
        <time>2020-08-01T07:59:06.620Z</time>
      </trkpt>
      <trkpt lat="62.50283" lon="6.70011">
        <ele>88.00274</ele>
        <time>2020-08-01T07:59:11.584Z</time>
      </trkpt>
      <trkpt lat="62.50288" lon="6.69991">
        <ele>88.571794</ele>
        <time>2020-08-01T07:59:16.593Z</time>
      </trkpt>
      <trkpt lat="62.50294" lon="6.69973">
        <ele>89.124075</ele>
        <time>2020-08-01T07:59:21.616Z</time>
      </trkpt>
      <trkpt lat="62.50298" lon="6.69952">
        <ele>89.67274</ele>
        <time>2020-08-01T07:59:26.612Z</time>
      </trkpt>
      <trkpt lat="62.50303" lon="6.69932">
        <ele>90.228008</ele>
        <time>2020-08-01T07:59:31.603Z</time>
      </trkpt>
      <trkpt lat="62.50304" lon="6.69912">
        <ele>90.735187</ele>
        <time>2020-08-01T07:59:36.588Z</time>
      </trkpt>
      <trkpt lat="62.50308" lon="6.69892">
        <ele>91.240256</ele>
        <time>2020-08-01T07:59:41.603Z</time>
      </trkpt>
      <trkpt lat="62.50311" lon="6.69873">
        <ele>91.737628</ele>
        <time>2020-08-01T07:59:46.599Z</time>
      </trkpt>
      <trkpt lat="62.50317" lon="6.69858">
        <ele>92.246721</ele>
        <time>2020-08-01T07:59:51.580Z</time>
      </trkpt>
      <trkpt lat="62.50325" lon="6.69842">
        <ele>92.825923</ele>
        <time>2020-08-01T07:59:56.618Z</time>
      </trkpt>
      <trkpt lat="62.50332" lon="6.69827">
        <ele>93.339267</ele>
        <time>2020-08-01T08:00:00.602Z</time>
      </trkpt>
      <trkpt lat="62.50338" lon="6.69809">
        <ele>93.920855</ele>
        <time>2020-08-01T08:00:05.608Z</time>
      </trkpt>
      <trkpt lat="62.50344" lon="6.69793">
        <ele>94.402185</ele>
        <time>2020-08-01T08:00:09.634Z</time>
      </trkpt>
      <trkpt lat="62.50348" lon="6.69775">
        <ele>94.901423</ele>
        <time>2020-08-01T08:00:13.597Z</time>
      </trkpt>
      <trkpt lat="62.50353" lon="6.69757">
        <ele>95.421508</ele>
        <time>2020-08-01T08:00:17.590Z</time>
      </trkpt>
      <trkpt lat="62.50359" lon="6.6974">
        <ele>95.940788</ele>
        <time>2020-08-01T08:00:21.600Z</time>
      </trkpt>
      <trkpt lat="62.50364" lon="6.69723">
        <ele>95.967215</ele>
        <time>2020-08-01T08:00:25.619Z</time>
      </trkpt>
      <trkpt lat="62.50369" lon="6.69702">
        <ele>95.852702</ele>
        <time>2020-08-01T08:00:30.586Z</time>
      </trkpt>
      <trkpt lat="62.50373" lon="6.69683">
        <ele>95.752685</ele>
        <time>2020-08-01T08:00:35.607Z</time>
      </trkpt>
      <trkpt lat="62.5038" lon="6.69663">
        <ele>95.630725</ele>
        <time>2020-08-01T08:00:39.590Z</time>
      </trkpt>
      <trkpt lat="62.50386" lon="6.69645">
        <ele>95.528995</ele>
        <time>2020-08-01T08:00:42.608Z</time>
      </trkpt>
      <trkpt lat="62.50393" lon="6.69622">
        <ele>95.397706</ele>
        <time>2020-08-01T08:00:45.593Z</time>
      </trkpt>
      <trkpt lat="62.50398" lon="6.69604">
        <ele>95.295589</ele>
        <time>2020-08-01T08:00:47.601Z</time>
      </trkpt>
      <trkpt lat="62.50404" lon="6.69586">
        <ele>95.1917</ele>
        <time>2020-08-01T08:00:49.596Z</time>
      </trkpt>
      <trkpt lat="62.50409" lon="6.69567">
        <ele>95.086908</ele>
        <time>2020-08-01T08:00:51.606Z</time>
      </trkpt>
      <trkpt lat="62.50414" lon="6.6955">
        <ele>94.990946</ele>
        <time>2020-08-01T08:00:53.600Z</time>
      </trkpt>
      <trkpt lat="62.50421" lon="6.69526">
        <ele>94.853274</ele>
        <time>2020-08-01T08:00:56.602Z</time>
      </trkpt>
      <trkpt lat="62.50428" lon="6.69502">
        <ele>94.721175</ele>
        <time>2020-08-01T08:00:59.605Z</time>
      </trkpt>
      <trkpt lat="62.50435" lon="6.69484">
        <ele>94.605183</ele>
        <time>2020-08-01T08:01:02.610Z</time>
      </trkpt>
      <trkpt lat="62.50442" lon="6.69463">
        <ele>94.485814</ele>
        <time>2020-08-01T08:01:05.614Z</time>
      </trkpt>
      <trkpt lat="62.50449" lon="6.69442">
        <ele>94.362731</ele>
        <time>2020-08-01T08:01:08.599Z</time>
      </trkpt>
      <trkpt lat="62.50455" lon="6.6942">
        <ele>94.237465</ele>
        <time>2020-08-01T08:01:11.594Z</time>
      </trkpt>
      <trkpt lat="62.50462" lon="6.69398">
        <ele>94.263136</ele>
        <time>2020-08-01T08:01:14.602Z</time>
      </trkpt>
      <trkpt lat="62.50468" lon="6.69376">
        <ele>94.39593</ele>
        <time>2020-08-01T08:01:17.598Z</time>
      </trkpt>
      <trkpt lat="62.50474" lon="6.69353">
        <ele>94.531538</ele>
        <time>2020-08-01T08:01:20.597Z</time>
      </trkpt>
      <trkpt lat="62.50477" lon="6.69328">
        <ele>94.661087</ele>
        <time>2020-08-01T08:01:23.599Z</time>
      </trkpt>
      <trkpt lat="62.5048" lon="6.69304">
        <ele>94.789249</ele>
        <time>2020-08-01T08:01:26.604Z</time>
      </trkpt>
      <trkpt lat="62.50482" lon="6.6928">
        <ele>94.916828</ele>
        <time>2020-08-01T08:01:29.597Z</time>
      </trkpt>
      <trkpt lat="62.50483" lon="6.69257">
        <ele>95.035786</ele>
        <time>2020-08-01T08:01:32.600Z</time>
      </trkpt>
      <trkpt lat="62.50486" lon="6.69233">
        <ele>95.160973</ele>
        <time>2020-08-01T08:01:35.585Z</time>
      </trkpt>
      <trkpt lat="62.50487" lon="6.69208">
        <ele>95.286921</ele>
        <time>2020-08-01T08:01:38.590Z</time>
      </trkpt>
      <trkpt lat="62.50487" lon="6.69186">
        <ele>95.400778</ele>
        <time>2020-08-01T08:01:41.592Z</time>
      </trkpt>
      <trkpt lat="62.50488" lon="6.69163">
        <ele>95.517948</ele>
        <time>2020-08-01T08:01:44.588Z</time>
      </trkpt>
      <trkpt lat="62.50488" lon="6.69141">
        <ele>95.633515</ele>
        <time>2020-08-01T08:01:47.589Z</time>
      </trkpt>
      <trkpt lat="62.50489" lon="6.69118">
        <ele>95.750443</ele>
        <time>2020-08-01T08:01:50.604Z</time>
      </trkpt>
      <trkpt lat="62.50491" lon="6.69096">
        <ele>95.863019</ele>
        <time>2020-08-01T08:01:53.592Z</time>
      </trkpt>
      <trkpt lat="62.50492" lon="6.69071">
        <ele>95.995132</ele>
        <time>2020-08-01T08:01:57.619Z</time>
      </trkpt>
      <trkpt lat="62.50494" lon="6.69051">
        <ele>96.099215</ele>
        <time>2020-08-01T08:02:00.579Z</time>
      </trkpt>
      <trkpt lat="62.50495" lon="6.69031">
        <ele>96.237057</ele>
        <time>2020-08-01T08:02:03.599Z</time>
      </trkpt>
      <trkpt lat="62.50496" lon="6.69005">
        <ele>96.685672</ele>
        <time>2020-08-01T08:02:07.589Z</time>
      </trkpt>
      <trkpt lat="62.50498" lon="6.68983">
        <ele>97.068027</ele>
        <time>2020-08-01T08:02:11.574Z</time>
      </trkpt>
      <trkpt lat="62.50499" lon="6.68963">
        <ele>97.421955</ele>
        <time>2020-08-01T08:02:15.596Z</time>
      </trkpt>
      <trkpt lat="62.50499" lon="6.68938">
        <ele>97.844456</ele>
        <time>2020-08-01T08:02:19.632Z</time>
      </trkpt>
      <trkpt lat="62.505" lon="6.68918">
        <ele>98.17968</ele>
        <time>2020-08-01T08:02:22.584Z</time>
      </trkpt>
      <trkpt lat="62.505" lon="6.68894">
        <ele>98.585541</ele>
        <time>2020-08-01T08:02:26.604Z</time>
      </trkpt>
      <trkpt lat="62.50502" lon="6.6887">
        <ele>99.007109</ele>
        <time>2020-08-01T08:02:30.585Z</time>
      </trkpt>
      <trkpt lat="62.50505" lon="6.68851">
        <ele>99.350569</ele>
        <time>2020-08-01T08:02:33.605Z</time>
      </trkpt>
      <trkpt lat="62.50506" lon="6.68826">
        <ele>99.77239</ele>
        <time>2020-08-01T08:02:37.641Z</time>
      </trkpt>
      <trkpt lat="62.50507" lon="6.68801">
        <ele>100.207089</ele>
        <time>2020-08-01T08:02:41.592Z</time>
      </trkpt>
      <trkpt lat="62.50508" lon="6.68778">
        <ele>100.595038</ele>
        <time>2020-08-01T08:02:45.587Z</time>
      </trkpt>
      <trkpt lat="62.50509" lon="6.68754">
        <ele>101.00291</ele>
        <time>2020-08-01T08:02:49.622Z</time>
      </trkpt>
      <trkpt lat="62.50511" lon="6.68734">
        <ele>101.350374</ele>
        <time>2020-08-01T08:02:52.584Z</time>
      </trkpt>
      <trkpt lat="62.50511" lon="6.68713">
        <ele>101.717908</ele>
        <time>2020-08-01T08:02:56.584Z</time>
      </trkpt>
      <trkpt lat="62.50511" lon="6.68691">
        <ele>102.088236</ele>
        <time>2020-08-01T08:03:00.601Z</time>
      </trkpt>
      <trkpt lat="62.50512" lon="6.6867">
        <ele>102.45799</ele>
        <time>2020-08-01T08:03:04.598Z</time>
      </trkpt>
      <trkpt lat="62.50514" lon="6.68647">
        <ele>102.834735</ele>
        <time>2020-08-01T08:03:08.633Z</time>
      </trkpt>
      <trkpt lat="62.50518" lon="6.68622">
        <ele>102.990403</ele>
        <time>2020-08-01T08:03:12.584Z</time>
      </trkpt>
      <trkpt lat="62.50521" lon="6.68599">
        <ele>103.134024</ele>
        <time>2020-08-01T08:03:16.592Z</time>
      </trkpt>
      <trkpt lat="62.50521" lon="6.68579">
        <ele>103.25419</ele>
        <time>2020-08-01T08:03:20.590Z</time>
      </trkpt>
      <trkpt lat="62.50523" lon="6.68559">
        <ele>103.375819</ele>
        <time>2020-08-01T08:03:24.591Z</time>
      </trkpt>
      <trkpt lat="62.50523" lon="6.68537">
        <ele>103.507438</ele>
        <time>2020-08-01T08:03:28.572Z</time>
      </trkpt>
      <trkpt lat="62.50524" lon="6.68515">
        <ele>103.642806</ele>
        <time>2020-08-01T08:03:32.591Z</time>
      </trkpt>
      <trkpt lat="62.50525" lon="6.68492">
        <ele>103.778622</ele>
        <time>2020-08-01T08:03:36.594Z</time>
      </trkpt>
      <trkpt lat="62.50525" lon="6.6847">
        <ele>103.910601</ele>
        <time>2020-08-01T08:03:40.588Z</time>
      </trkpt>
      <trkpt lat="62.50527" lon="6.68448">
        <ele>104.046068</ele>
        <time>2020-08-01T08:03:44.594Z</time>
      </trkpt>
      <trkpt lat="62.50529" lon="6.68425">
        <ele>104.185627</ele>
        <time>2020-08-01T08:03:48.587Z</time>
      </trkpt>
      <trkpt lat="62.50531" lon="6.68403">
        <ele>104.321157</ele>
        <time>2020-08-01T08:03:52.604Z</time>
      </trkpt>
      <trkpt lat="62.50534" lon="6.68381">
        <ele>104.456643</ele>
        <time>2020-08-01T08:03:56.611Z</time>
      </trkpt>
      <trkpt lat="62.50536" lon="6.6836">
        <ele>104.587733</ele>
        <time>2020-08-01T08:04:00.585Z</time>
      </trkpt>
      <trkpt lat="62.50538" lon="6.68339">
        <ele>104.716777</ele>
        <time>2020-08-01T08:04:04.588Z</time>
      </trkpt>
      <trkpt lat="62.5054" lon="6.6832">
        <ele>104.833855</ele>
        <time>2020-08-01T08:04:08.608Z</time>
      </trkpt>
      <trkpt lat="62.50541" lon="6.68299">
        <ele>104.961024</ele>
        <time>2020-08-01T08:04:12.608Z</time>
      </trkpt>
      <trkpt lat="62.50542" lon="6.68276">
        <ele>105.101308</ele>
        <time>2020-08-01T08:04:16.600Z</time>
      </trkpt>
      <trkpt lat="62.5054" lon="6.68255">
        <ele>105.219738</ele>
        <time>2020-08-01T08:04:19.615Z</time>
      </trkpt>
      <trkpt lat="62.50542" lon="6.68232">
        <ele>105.341517</ele>
        <time>2020-08-01T08:04:23.617Z</time>
      </trkpt>
      <trkpt lat="62.50544" lon="6.68209">
        <ele>105.465375</ele>
        <time>2020-08-01T08:04:27.581Z</time>
      </trkpt>
      <trkpt lat="62.50547" lon="6.68184">
        <ele>105.598335</ele>
        <time>2020-08-01T08:04:31.589Z</time>
      </trkpt>
      <trkpt lat="62.50549" lon="6.68164">
        <ele>105.70218</ele>
        <time>2020-08-01T08:04:34.582Z</time>
      </trkpt>
      <trkpt lat="62.50552" lon="6.6814">
        <ele>105.833873</ele>
        <time>2020-08-01T08:04:38.612Z</time>
      </trkpt>
      <trkpt lat="62.50553" lon="6.68116">
        <ele>105.954809</ele>
        <time>2020-08-01T08:04:42.586Z</time>
      </trkpt>
      <trkpt lat="62.50553" lon="6.68092">
        <ele>106.083805</ele>
        <time>2020-08-01T08:04:46.585Z</time>
      </trkpt>
      <trkpt lat="62.50553" lon="6.68067">
        <ele>106.211242</ele>
        <time>2020-08-01T08:04:50.606Z</time>
      </trkpt>
      <trkpt lat="62.50555" lon="6.68042">
        <ele>106.344733</ele>
        <time>2020-08-01T08:04:54.601Z</time>
      </trkpt>
      <trkpt lat="62.50556" lon="6.68016">
        <ele>106.47719</ele>
        <time>2020-08-01T08:04:58.601Z</time>
      </trkpt>
      <trkpt lat="62.50557" lon="6.67994">
        <ele>106.592425</ele>
        <time>2020-08-01T08:05:02.653Z</time>
      </trkpt>
      <trkpt lat="62.50558" lon="6.67971">
        <ele>106.712505</ele>
        <time>2020-08-01T08:05:06.601Z</time>
      </trkpt>
      <trkpt lat="62.5056" lon="6.67948">
        <ele>106.83806</ele>
        <time>2020-08-01T08:05:10.596Z</time>
      </trkpt>
      <trkpt lat="62.50561" lon="6.67927">
        <ele>106.945105</ele>
        <time>2020-08-01T08:05:14.606Z</time>
      </trkpt>
      <trkpt lat="62.50562" lon="6.67907">
        <ele>107.05215</ele>
        <time>2020-08-01T08:05:18.606Z</time>
      </trkpt>
      <trkpt lat="62.50563" lon="6.67885">
        <ele>107.165042</ele>
        <time>2020-08-01T08:05:22.594Z</time>
      </trkpt>
      <trkpt lat="62.50563" lon="6.67864">
        <ele>107.235088</ele>
        <time>2020-08-01T08:05:26.591Z</time>
      </trkpt>
      <trkpt lat="62.50564" lon="6.67842">
        <ele>107.299689</ele>
        <time>2020-08-01T08:05:30.602Z</time>
      </trkpt>
      <trkpt lat="62.50564" lon="6.67819">
        <ele>107.364323</ele>
        <time>2020-08-01T08:05:34.599Z</time>
      </trkpt>
      <trkpt lat="62.50566" lon="6.67796">
        <ele>107.430866</ele>
        <time>2020-08-01T08:05:38.601Z</time>
      </trkpt>
      <trkpt lat="62.50568" lon="6.67773">
        <ele>107.498421</ele>
        <time>2020-08-01T08:05:42.591Z</time>
      </trkpt>
      <trkpt lat="62.5057" lon="6.6775">
        <ele>107.564864</ele>
        <time>2020-08-01T08:05:46.620Z</time>
      </trkpt>
      <trkpt lat="62.50571" lon="6.67726">
        <ele>107.633045</ele>
        <time>2020-08-01T08:05:50.588Z</time>
      </trkpt>
      <trkpt lat="62.50572" lon="6.67706">
        <ele>107.691784</ele>
        <time>2020-08-01T08:05:53.598Z</time>
      </trkpt>
      <trkpt lat="62.50574" lon="6.67683">
        <ele>107.757373</ele>
        <time>2020-08-01T08:05:56.639Z</time>
      </trkpt>
      <trkpt lat="62.50575" lon="6.6766">
        <ele>107.824469</ele>
        <time>2020-08-01T08:05:59.590Z</time>
      </trkpt>
      <trkpt lat="62.50577" lon="6.67634">
        <ele>107.898228</ele>
        <time>2020-08-01T08:06:02.614Z</time>
      </trkpt>
      <trkpt lat="62.50579" lon="6.67609">
        <ele>107.97066</ele>
        <time>2020-08-01T08:06:05.584Z</time>
      </trkpt>
      <trkpt lat="62.5058" lon="6.67584">
        <ele>108.042424</ele>
        <time>2020-08-01T08:06:08.637Z</time>
      </trkpt>
      <trkpt lat="62.50581" lon="6.67558">
        <ele>108.116013</ele>
        <time>2020-08-01T08:06:11.618Z</time>
      </trkpt>
      <trkpt lat="62.50581" lon="6.67531">
        <ele>108.194247</ele>
        <time>2020-08-01T08:06:14.613Z</time>
      </trkpt>
      <trkpt lat="62.50581" lon="6.67511">
        <ele>108.250208</ele>
        <time>2020-08-01T08:06:16.607Z</time>
      </trkpt>
      <trkpt lat="62.50581" lon="6.67482">
        <ele>108.228987</ele>
        <time>2020-08-01T08:06:19.594Z</time>
      </trkpt>
      <trkpt lat="62.50581" lon="6.67462">
        <ele>108.094884</ele>
        <time>2020-08-01T08:06:21.620Z</time>
      </trkpt>
      <trkpt lat="62.50581" lon="6.67441">
        <ele>107.960781</ele>
        <time>2020-08-01T08:06:23.608Z</time>
      </trkpt>
      <trkpt lat="62.50581" lon="6.6742">
        <ele>107.823399</ele>
        <time>2020-08-01T08:06:25.590Z</time>
      </trkpt>
      <trkpt lat="62.50581" lon="6.67399">
        <ele>107.683979</ele>
        <time>2020-08-01T08:06:27.588Z</time>
      </trkpt>
      <trkpt lat="62.5058" lon="6.67378">
        <ele>107.542591</ele>
        <time>2020-08-01T08:06:29.620Z</time>
      </trkpt>
      <trkpt lat="62.50578" lon="6.67357">
        <ele>107.401546</ele>
        <time>2020-08-01T08:06:31.586Z</time>
      </trkpt>
      <trkpt lat="62.50576" lon="6.67336">
        <ele>107.265393</ele>
        <time>2020-08-01T08:06:33.592Z</time>
      </trkpt>
      <trkpt lat="62.50575" lon="6.67315">
        <ele>107.128069</ele>
        <time>2020-08-01T08:06:35.626Z</time>
      </trkpt>
      <trkpt lat="62.50573" lon="6.67287">
        <ele>106.938044</ele>
        <time>2020-08-01T08:06:38.608Z</time>
      </trkpt>
      <trkpt lat="62.50572" lon="6.67258">
        <ele>106.75005</ele>
        <time>2020-08-01T08:06:41.628Z</time>
      </trkpt>
      <trkpt lat="62.50569" lon="6.67231">
        <ele>106.566526</ele>
        <time>2020-08-01T08:06:44.587Z</time>
      </trkpt>
      <trkpt lat="62.50567" lon="6.67212">
        <ele>106.437733</ele>
        <time>2020-08-01T08:06:46.583Z</time>
      </trkpt>
      <trkpt lat="62.50563" lon="6.67194">
        <ele>106.309201</ele>
        <time>2020-08-01T08:06:48.596Z</time>
      </trkpt>
      <trkpt lat="62.50559" lon="6.67169">
        <ele>106.133065</ele>
        <time>2020-08-01T08:06:51.590Z</time>
      </trkpt>
      <trkpt lat="62.50554" lon="6.67142">
        <ele>105.943183</ele>
        <time>2020-08-01T08:06:54.617Z</time>
      </trkpt>
      <trkpt lat="62.5055" lon="6.67115">
        <ele>105.753223</ele>
        <time>2020-08-01T08:06:57.586Z</time>
      </trkpt>
      <trkpt lat="62.50547" lon="6.67096">
        <ele>105.342923</ele>
        <time>2020-08-01T08:06:59.598Z</time>
      </trkpt>
      <trkpt lat="62.50543" lon="6.67077">
        <ele>104.896558</ele>
        <time>2020-08-01T08:07:01.600Z</time>
      </trkpt>
      <trkpt lat="62.50539" lon="6.67056">
        <ele>104.428158</ele>
        <time>2020-08-01T08:07:03.602Z</time>
      </trkpt>
      <trkpt lat="62.50535" lon="6.67036">
        <ele>103.956041</ele>
        <time>2020-08-01T08:07:05.594Z</time>
      </trkpt>
      <trkpt lat="62.50532" lon="6.67015">
        <ele>103.465604</ele>
        <time>2020-08-01T08:07:07.631Z</time>
      </trkpt>
      <trkpt lat="62.50527" lon="6.66994">
        <ele>102.974524</ele>
        <time>2020-08-01T08:07:09.596Z</time>
      </trkpt>
      <trkpt lat="62.50523" lon="6.66972">
        <ele>102.465861</ele>
        <time>2020-08-01T08:07:11.632Z</time>
      </trkpt>
      <trkpt lat="62.50519" lon="6.6695">
        <ele>101.945209</ele>
        <time>2020-08-01T08:07:13.593Z</time>
      </trkpt>
      <trkpt lat="62.50514" lon="6.66926">
        <ele>101.404677</ele>
        <time>2020-08-01T08:07:15.601Z</time>
      </trkpt>
      <trkpt lat="62.5051" lon="6.66902">
        <ele>100.840473</ele>
        <time>2020-08-01T08:07:17.602Z</time>
      </trkpt>
      <trkpt lat="62.50506" lon="6.66876">
        <ele>100.253745</ele>
        <time>2020-08-01T08:07:19.586Z</time>
      </trkpt>
      <trkpt lat="62.50504" lon="6.66849">
        <ele>99.669697</ele>
        <time>2020-08-01T08:07:21.586Z</time>
      </trkpt>
      <trkpt lat="62.50503" lon="6.66822">
        <ele>99.081132</ele>
        <time>2020-08-01T08:07:23.619Z</time>
      </trkpt>
      <trkpt lat="62.50501" lon="6.66794">
        <ele>98.474395</ele>
        <time>2020-08-01T08:07:25.597Z</time>
      </trkpt>
      <trkpt lat="62.505" lon="6.66766">
        <ele>97.874209</ele>
        <time>2020-08-01T08:07:27.592Z</time>
      </trkpt>
      <trkpt lat="62.50498" lon="6.66741">
        <ele>97.35643</ele>
        <time>2020-08-01T08:07:29.618Z</time>
      </trkpt>
      <trkpt lat="62.50496" lon="6.6672">
        <ele>97.06312</ele>
        <time>2020-08-01T08:07:31.620Z</time>
      </trkpt>
      <trkpt lat="62.50495" lon="6.66697">
        <ele>96.758086</ele>
        <time>2020-08-01T08:07:33.596Z</time>
      </trkpt>
      <trkpt lat="62.50494" lon="6.66673">
        <ele>96.437375</ele>
        <time>2020-08-01T08:07:35.602Z</time>
      </trkpt>
      <trkpt lat="62.50494" lon="6.66648">
        <ele>96.09818</ele>
        <time>2020-08-01T08:07:37.592Z</time>
      </trkpt>
      <trkpt lat="62.50493" lon="6.66622">
        <ele>95.753225</ele>
        <time>2020-08-01T08:07:39.622Z</time>
      </trkpt>
      <trkpt lat="62.50492" lon="6.66596">
        <ele>95.404724</ele>
        <time>2020-08-01T08:07:41.595Z</time>
      </trkpt>
      <trkpt lat="62.50491" lon="6.66571">
        <ele>95.058307</ele>
        <time>2020-08-01T08:07:43.603Z</time>
      </trkpt>
      <trkpt lat="62.50489" lon="6.66544">
        <ele>94.69982</ele>
        <time>2020-08-01T08:07:45.605Z</time>
      </trkpt>
      <trkpt lat="62.50487" lon="6.66517">
        <ele>94.339063</ele>
        <time>2020-08-01T08:07:47.619Z</time>
      </trkpt>
      <trkpt lat="62.50486" lon="6.66491">
        <ele>93.976345</ele>
        <time>2020-08-01T08:07:49.601Z</time>
      </trkpt>
      <trkpt lat="62.50485" lon="6.66463">
        <ele>93.601149</ele>
        <time>2020-08-01T08:07:51.592Z</time>
      </trkpt>
      <trkpt lat="62.50484" lon="6.66434">
        <ele>93.220358</ele>
        <time>2020-08-01T08:07:53.589Z</time>
      </trkpt>
      <trkpt lat="62.50483" lon="6.66407">
        <ele>92.850502</ele>
        <time>2020-08-01T08:07:55.600Z</time>
      </trkpt>
      <trkpt lat="62.50482" lon="6.6638">
        <ele>92.483557</ele>
        <time>2020-08-01T08:07:57.600Z</time>
      </trkpt>
      <trkpt lat="62.5048" lon="6.66351">
        <ele>92.114765</ele>
        <time>2020-08-01T08:07:59.613Z</time>
      </trkpt>
      <trkpt lat="62.50479" lon="6.66321">
        <ele>91.811289</ele>
        <time>2020-08-01T08:08:01.587Z</time>
      </trkpt>
      <trkpt lat="62.50478" lon="6.66291">
        <ele>91.500027</ele>
        <time>2020-08-01T08:08:03.612Z</time>
      </trkpt>
      <trkpt lat="62.50477" lon="6.66261">
        <ele>91.193137</ele>
        <time>2020-08-01T08:08:05.605Z</time>
      </trkpt>
      <trkpt lat="62.50476" lon="6.66231">
        <ele>90.888054</ele>
        <time>2020-08-01T08:08:07.609Z</time>
      </trkpt>
      <trkpt lat="62.50475" lon="6.662">
        <ele>90.580845</ele>
        <time>2020-08-01T08:08:09.617Z</time>
      </trkpt>
      <trkpt lat="62.50473" lon="6.66171">
        <ele>90.281821</ele>
        <time>2020-08-01T08:08:11.586Z</time>
      </trkpt>
      <trkpt lat="62.50472" lon="6.66143">
        <ele>89.988806</ele>
        <time>2020-08-01T08:08:13.591Z</time>
      </trkpt>
      <trkpt lat="62.50471" lon="6.66114">
        <ele>89.697645</ele>
        <time>2020-08-01T08:08:15.597Z</time>
      </trkpt>
      <trkpt lat="62.5047" lon="6.66086">
        <ele>89.416915</ele>
        <time>2020-08-01T08:08:17.600Z</time>
      </trkpt>
      <trkpt lat="62.50468" lon="6.66059">
        <ele>89.140095</ele>
        <time>2020-08-01T08:08:19.608Z</time>
      </trkpt>
      <trkpt lat="62.50468" lon="6.66032">
        <ele>88.867022</ele>
        <time>2020-08-01T08:08:21.601Z</time>
      </trkpt>
      <trkpt lat="62.50469" lon="6.66005">
        <ele>88.590345</ele>
        <time>2020-08-01T08:08:23.612Z</time>
      </trkpt>
      <trkpt lat="62.5047" lon="6.65978">
        <ele>88.312057</ele>
        <time>2020-08-01T08:08:25.615Z</time>
      </trkpt>
      <trkpt lat="62.5047" lon="6.65951">
        <ele>88.089147</ele>
        <time>2020-08-01T08:08:27.596Z</time>
      </trkpt>
      <trkpt lat="62.50472" lon="6.65924">
        <ele>87.901799</ele>
        <time>2020-08-01T08:08:29.602Z</time>
      </trkpt>
      <trkpt lat="62.50473" lon="6.65896">
        <ele>87.711541</ele>
        <time>2020-08-01T08:08:31.588Z</time>
      </trkpt>
      <trkpt lat="62.50474" lon="6.6587">
        <ele>87.52921</ele>
        <time>2020-08-01T08:08:33.591Z</time>
      </trkpt>
      <trkpt lat="62.50476" lon="6.65844">
        <ele>87.342154</ele>
        <time>2020-08-01T08:08:35.585Z</time>
      </trkpt>
      <trkpt lat="62.50479" lon="6.65817">
        <ele>87.155048</ele>
        <time>2020-08-01T08:08:37.613Z</time>
      </trkpt>
      <trkpt lat="62.50481" lon="6.65792">
        <ele>86.974251</ele>
        <time>2020-08-01T08:08:39.584Z</time>
      </trkpt>
      <trkpt lat="62.50483" lon="6.65764">
        <ele>86.782792</ele>
        <time>2020-08-01T08:08:41.619Z</time>
      </trkpt>
      <trkpt lat="62.50484" lon="6.65737">
        <ele>86.591994</ele>
        <time>2020-08-01T08:08:43.590Z</time>
      </trkpt>
      <trkpt lat="62.50484" lon="6.6571">
        <ele>86.40757</ele>
        <time>2020-08-01T08:08:45.598Z</time>
      </trkpt>
      <trkpt lat="62.50483" lon="6.65684">
        <ele>86.223671</ele>
        <time>2020-08-01T08:08:47.609Z</time>
      </trkpt>
      <trkpt lat="62.50481" lon="6.65658">
        <ele>86.04001</ele>
        <time>2020-08-01T08:08:49.592Z</time>
      </trkpt>
      <trkpt lat="62.50478" lon="6.6563">
        <ele>85.845117</ele>
        <time>2020-08-01T08:08:51.616Z</time>
      </trkpt>
      <trkpt lat="62.50474" lon="6.65605">
        <ele>85.659729</ele>
        <time>2020-08-01T08:08:53.592Z</time>
      </trkpt>
      <trkpt lat="62.5047" lon="6.6558">
        <ele>85.433261</ele>
        <time>2020-08-01T08:08:55.600Z</time>
      </trkpt>
      <trkpt lat="62.50465" lon="6.65555">
        <ele>85.021953</ele>
        <time>2020-08-01T08:08:57.602Z</time>
      </trkpt>
      <trkpt lat="62.50461" lon="6.6553">
        <ele>84.60668</ele>
        <time>2020-08-01T08:08:59.599Z</time>
      </trkpt>
      <trkpt lat="62.50456" lon="6.65506">
        <ele>84.196816</ele>
        <time>2020-08-01T08:09:01.620Z</time>
      </trkpt>
      <trkpt lat="62.50451" lon="6.65481">
        <ele>83.774741</ele>
        <time>2020-08-01T08:09:03.602Z</time>
      </trkpt>
      <trkpt lat="62.50446" lon="6.65456">
        <ele>83.355425</ele>
        <time>2020-08-01T08:09:05.588Z</time>
      </trkpt>
      <trkpt lat="62.50441" lon="6.65431">
        <ele>82.924878</ele>
        <time>2020-08-01T08:09:07.593Z</time>
      </trkpt>
      <trkpt lat="62.50435" lon="6.65405">
        <ele>82.481508</ele>
        <time>2020-08-01T08:09:09.594Z</time>
      </trkpt>
      <trkpt lat="62.50429" lon="6.65379">
        <ele>82.026986</ele>
        <time>2020-08-01T08:09:11.599Z</time>
      </trkpt>
      <trkpt lat="62.50427" lon="6.65352">
        <ele>81.595315</ele>
        <time>2020-08-01T08:09:13.609Z</time>
      </trkpt>
      <trkpt lat="62.50425" lon="6.65324">
        <ele>81.167157</ele>
        <time>2020-08-01T08:09:15.601Z</time>
      </trkpt>
      <trkpt lat="62.50424" lon="6.65297">
        <ele>80.742474</ele>
        <time>2020-08-01T08:09:17.587Z</time>
      </trkpt>
      <trkpt lat="62.50422" lon="6.65269">
        <ele>80.299679</ele>
        <time>2020-08-01T08:09:19.603Z</time>
      </trkpt>
      <trkpt lat="62.5042" lon="6.65241">
        <ele>79.860238</ele>
        <time>2020-08-01T08:09:21.594Z</time>
      </trkpt>
      <trkpt lat="62.50418" lon="6.65213">
        <ele>79.439095</ele>
        <time>2020-08-01T08:09:23.607Z</time>
      </trkpt>
      <trkpt lat="62.50416" lon="6.65186">
        <ele>79.262568</ele>
        <time>2020-08-01T08:09:25.616Z</time>
      </trkpt>
      <trkpt lat="62.50415" lon="6.65158">
        <ele>79.083264</ele>
        <time>2020-08-01T08:09:27.581Z</time>
      </trkpt>
      <trkpt lat="62.50414" lon="6.65131">
        <ele>78.906367</ele>
        <time>2020-08-01T08:09:29.582Z</time>
      </trkpt>
      <trkpt lat="62.50413" lon="6.65103">
        <ele>78.726989</ele>
        <time>2020-08-01T08:09:31.638Z</time>
      </trkpt>
      <trkpt lat="62.50414" lon="6.65075">
        <ele>78.543206</ele>
        <time>2020-08-01T08:09:33.596Z</time>
      </trkpt>
      <trkpt lat="62.50415" lon="6.65046">
        <ele>78.360887</ele>
        <time>2020-08-01T08:09:35.617Z</time>
      </trkpt>
      <trkpt lat="62.50418" lon="6.6502">
        <ele>78.188857</ele>
        <time>2020-08-01T08:09:37.589Z</time>
      </trkpt>
      <trkpt lat="62.50421" lon="6.64994">
        <ele>78.014678</ele>
        <time>2020-08-01T08:09:39.605Z</time>
      </trkpt>
      <trkpt lat="62.50424" lon="6.64967">
        <ele>77.83633</ele>
        <time>2020-08-01T08:09:41.598Z</time>
      </trkpt>
      <trkpt lat="62.50428" lon="6.64941">
        <ele>77.663544</ele>
        <time>2020-08-01T08:09:43.595Z</time>
      </trkpt>
      <trkpt lat="62.5043" lon="6.64916">
        <ele>77.499689</ele>
        <time>2020-08-01T08:09:45.616Z</time>
      </trkpt>
      <trkpt lat="62.50432" lon="6.6489">
        <ele>77.327787</ele>
        <time>2020-08-01T08:09:47.590Z</time>
      </trkpt>
      <trkpt lat="62.50434" lon="6.64864">
        <ele>77.160923</ele>
        <time>2020-08-01T08:09:49.585Z</time>
      </trkpt>
      <trkpt lat="62.50434" lon="6.6484">
        <ele>77.00622</ele>
        <time>2020-08-01T08:09:51.596Z</time>
      </trkpt>
      <trkpt lat="62.50433" lon="6.64818">
        <ele>76.920011</ele>
        <time>2020-08-01T08:09:53.596Z</time>
      </trkpt>
      <trkpt lat="62.50433" lon="6.64798">
        <ele>76.875718</ele>
        <time>2020-08-01T08:09:55.612Z</time>
      </trkpt>
      <trkpt lat="62.5043" lon="6.64769">
        <ele>76.813512</ele>
        <time>2020-08-01T08:09:58.625Z</time>
      </trkpt>
      <trkpt lat="62.50428" lon="6.64745">
        <ele>76.759465</ele>
        <time>2020-08-01T08:10:01.588Z</time>
      </trkpt>
      <trkpt lat="62.50426" lon="6.64721">
        <ele>76.706489</ele>
        <time>2020-08-01T08:10:04.600Z</time>
      </trkpt>
      <trkpt lat="62.50424" lon="6.64702">
        <ele>76.662991</ele>
        <time>2020-08-01T08:10:06.604Z</time>
      </trkpt>
      <trkpt lat="62.50423" lon="6.64682">
        <ele>76.61903</ele>
        <time>2020-08-01T08:10:08.596Z</time>
      </trkpt>
      <trkpt lat="62.50422" lon="6.64662">
        <ele>76.575812</ele>
        <time>2020-08-01T08:10:10.610Z</time>
      </trkpt>
      <trkpt lat="62.50421" lon="6.64641">
        <ele>76.529781</ele>
        <time>2020-08-01T08:10:12.598Z</time>
      </trkpt>
      <trkpt lat="62.5042" lon="6.6462">
        <ele>76.483827</ele>
        <time>2020-08-01T08:10:14.601Z</time>
      </trkpt>
      <trkpt lat="62.5042" lon="6.64598">
        <ele>76.435135</ele>
        <time>2020-08-01T08:10:16.612Z</time>
      </trkpt>
      <trkpt lat="62.5042" lon="6.64575">
        <ele>76.385151</ele>
        <time>2020-08-01T08:10:18.592Z</time>
      </trkpt>
      <trkpt lat="62.50421" lon="6.64552">
        <ele>76.334843</ele>
        <time>2020-08-01T08:10:20.608Z</time>
      </trkpt>
      <trkpt lat="62.50422" lon="6.64529">
        <ele>76.283239</ele>
        <time>2020-08-01T08:10:22.592Z</time>
      </trkpt>
      <trkpt lat="62.50423" lon="6.64505">
        <ele>76.230891</ele>
        <time>2020-08-01T08:10:24.582Z</time>
      </trkpt>
      <trkpt lat="62.50426" lon="6.64481">
        <ele>76.177362</ele>
        <time>2020-08-01T08:10:26.586Z</time>
      </trkpt>
      <trkpt lat="62.50428" lon="6.64455">
        <ele>76.120613</ele>
        <time>2020-08-01T08:10:28.636Z</time>
      </trkpt>
      <trkpt lat="62.5043" lon="6.64429">
        <ele>76.083921</ele>
        <time>2020-08-01T08:10:30.609Z</time>
      </trkpt>
      <trkpt lat="62.50433" lon="6.64403">
        <ele>76.060481</ele>
        <time>2020-08-01T08:10:32.636Z</time>
      </trkpt>
      <trkpt lat="62.50435" lon="6.64376">
        <ele>76.036826</ele>
        <time>2020-08-01T08:10:34.614Z</time>
      </trkpt>
      <trkpt lat="62.50438" lon="6.64349">
        <ele>76.013125</ele>
        <time>2020-08-01T08:10:36.616Z</time>
      </trkpt>
      <trkpt lat="62.5044" lon="6.64323">
        <ele>75.989817</ele>
        <time>2020-08-01T08:10:38.632Z</time>
      </trkpt>
      <trkpt lat="62.50442" lon="6.64296">
        <ele>75.966452</ele>
        <time>2020-08-01T08:10:40.624Z</time>
      </trkpt>
      <trkpt lat="62.50442" lon="6.64268">
        <ele>75.942047</ele>
        <time>2020-08-01T08:10:42.608Z</time>
      </trkpt>
      <trkpt lat="62.50443" lon="6.64239">
        <ele>75.91748</ele>
        <time>2020-08-01T08:10:44.614Z</time>
      </trkpt>
      <trkpt lat="62.50443" lon="6.6421">
        <ele>75.89234</ele>
        <time>2020-08-01T08:10:46.633Z</time>
      </trkpt>
      <trkpt lat="62.50444" lon="6.64182">
        <ele>75.867617</ele>
        <time>2020-08-01T08:10:48.608Z</time>
      </trkpt>
      <trkpt lat="62.50444" lon="6.64155">
        <ele>75.844026</ele>
        <time>2020-08-01T08:10:50.627Z</time>
      </trkpt>
      <trkpt lat="62.50444" lon="6.64129">
        <ele>75.821394</ele>
        <time>2020-08-01T08:10:52.629Z</time>
      </trkpt>
      <trkpt lat="62.50446" lon="6.64103">
        <ele>75.799282</ele>
        <time>2020-08-01T08:10:54.625Z</time>
      </trkpt>
      <trkpt lat="62.50448" lon="6.64077">
        <ele>75.77592</ele>
        <time>2020-08-01T08:10:56.648Z</time>
      </trkpt>
      <trkpt lat="62.50451" lon="6.64052">
        <ele>75.724625</ele>
        <time>2020-08-01T08:10:58.590Z</time>
      </trkpt>
      <trkpt lat="62.50453" lon="6.64026">
        <ele>75.605522</ele>
        <time>2020-08-01T08:11:00.607Z</time>
      </trkpt>
      <trkpt lat="62.50456" lon="6.63999">
        <ele>75.483348</ele>
        <time>2020-08-01T08:11:02.611Z</time>
      </trkpt>
      <trkpt lat="62.50458" lon="6.63973">
        <ele>75.361951</ele>
        <time>2020-08-01T08:11:04.596Z</time>
      </trkpt>
      <trkpt lat="62.50461" lon="6.63947">
        <ele>75.242946</ele>
        <time>2020-08-01T08:11:06.585Z</time>
      </trkpt>
      <trkpt lat="62.50462" lon="6.63921">
        <ele>75.124855</ele>
        <time>2020-08-01T08:11:08.614Z</time>
      </trkpt>
      <trkpt lat="62.50463" lon="6.63895">
        <ele>75.007989</ele>
        <time>2020-08-01T08:11:10.604Z</time>
      </trkpt>
      <trkpt lat="62.50463" lon="6.63869">
        <ele>74.892697</ele>
        <time>2020-08-01T08:11:12.608Z</time>
      </trkpt>
      <trkpt lat="62.50463" lon="6.63845">
        <ele>74.781045</ele>
        <time>2020-08-01T08:11:14.590Z</time>
      </trkpt>
      <trkpt lat="62.50464" lon="6.63821">
        <ele>74.675227</ele>
        <time>2020-08-01T08:11:16.585Z</time>
      </trkpt>
      <trkpt lat="62.50463" lon="6.63799">
        <ele>74.577487</ele>
        <time>2020-08-01T08:11:18.605Z</time>
      </trkpt>
      <trkpt lat="62.50463" lon="6.63777">
        <ele>74.47842</ele>
        <time>2020-08-01T08:11:20.602Z</time>
      </trkpt>
      <trkpt lat="62.50464" lon="6.63756">
        <ele>74.380719</ele>
        <time>2020-08-01T08:11:22.581Z</time>
      </trkpt>
      <trkpt lat="62.50463" lon="6.63734">
        <ele>74.284369</ele>
        <time>2020-08-01T08:11:24.604Z</time>
      </trkpt>
      <trkpt lat="62.50463" lon="6.63713">
        <ele>74.189824</ele>
        <time>2020-08-01T08:11:26.605Z</time>
      </trkpt>
      <trkpt lat="62.50464" lon="6.63692">
        <ele>74.094359</ele>
        <time>2020-08-01T08:11:28.652Z</time>
      </trkpt>
      <trkpt lat="62.50463" lon="6.63672">
        <ele>74.000583</ele>
        <time>2020-08-01T08:11:30.605Z</time>
      </trkpt>
      <trkpt lat="62.50463" lon="6.63651">
        <ele>73.878087</ele>
        <time>2020-08-01T08:11:32.592Z</time>
      </trkpt>
      <trkpt lat="62.50462" lon="6.63629">
        <ele>73.745535</ele>
        <time>2020-08-01T08:11:34.589Z</time>
      </trkpt>
      <trkpt lat="62.50461" lon="6.63606">
        <ele>73.608649</ele>
        <time>2020-08-01T08:11:36.682Z</time>
      </trkpt>
      <trkpt lat="62.5046" lon="6.63582">
        <ele>73.469285</ele>
        <time>2020-08-01T08:11:38.600Z</time>
      </trkpt>
      <trkpt lat="62.50459" lon="6.63558">
        <ele>73.324607</ele>
        <time>2020-08-01T08:11:40.585Z</time>
      </trkpt>
      <trkpt lat="62.50458" lon="6.63533">
        <ele>73.178498</ele>
        <time>2020-08-01T08:11:42.588Z</time>
      </trkpt>
      <trkpt lat="62.50458" lon="6.6351">
        <ele>73.036762</ele>
        <time>2020-08-01T08:11:44.604Z</time>
      </trkpt>
      <trkpt lat="62.50458" lon="6.63484">
        <ele>72.887711</ele>
        <time>2020-08-01T08:11:46.601Z</time>
      </trkpt>
      <trkpt lat="62.50459" lon="6.6346">
        <ele>72.741209</ele>
        <time>2020-08-01T08:11:48.628Z</time>
      </trkpt>
      <trkpt lat="62.50458" lon="6.63435">
        <ele>72.594114</ele>
        <time>2020-08-01T08:11:50.641Z</time>
      </trkpt>
      <trkpt lat="62.50458" lon="6.6341">
        <ele>72.448543</ele>
        <time>2020-08-01T08:11:52.588Z</time>
      </trkpt>
      <trkpt lat="62.50457" lon="6.63385">
        <ele>72.29942</ele>
        <time>2020-08-01T08:11:54.585Z</time>
      </trkpt>
      <trkpt lat="62.50456" lon="6.6336">
        <ele>72.146947</ele>
        <time>2020-08-01T08:11:56.601Z</time>
      </trkpt>
      <trkpt lat="62.50456" lon="6.63334">
        <ele>71.993922</ele>
        <time>2020-08-01T08:11:58.600Z</time>
      </trkpt>
      <trkpt lat="62.50456" lon="6.63307">
        <ele>71.834349</ele>
        <time>2020-08-01T08:12:00.592Z</time>
      </trkpt>
      <trkpt lat="62.50456" lon="6.63281">
        <ele>71.679377</ele>
        <time>2020-08-01T08:12:02.600Z</time>
      </trkpt>
      <trkpt lat="62.50457" lon="6.63255">
        <ele>71.512455</ele>
        <time>2020-08-01T08:12:04.625Z</time>
      </trkpt>
      <trkpt lat="62.50459" lon="6.6323">
        <ele>71.347233</ele>
        <time>2020-08-01T08:12:06.601Z</time>
      </trkpt>
      <trkpt lat="62.50459" lon="6.63203">
        <ele>71.175653</ele>
        <time>2020-08-01T08:12:08.598Z</time>
      </trkpt>
      <trkpt lat="62.50459" lon="6.63177">
        <ele>71.007091</ele>
        <time>2020-08-01T08:12:10.587Z</time>
      </trkpt>
      <trkpt lat="62.50459" lon="6.63151">
        <ele>70.843605</ele>
        <time>2020-08-01T08:12:12.617Z</time>
      </trkpt>
      <trkpt lat="62.50458" lon="6.63127">
        <ele>70.685699</ele>
        <time>2020-08-01T08:12:14.600Z</time>
      </trkpt>
      <trkpt lat="62.50456" lon="6.63101">
        <ele>70.520947</ele>
        <time>2020-08-01T08:12:16.586Z</time>
      </trkpt>
      <trkpt lat="62.50453" lon="6.63075">
        <ele>70.350105</ele>
        <time>2020-08-01T08:12:18.603Z</time>
      </trkpt>
      <trkpt lat="62.50451" lon="6.63049">
        <ele>70.17587</ele>
        <time>2020-08-01T08:12:20.583Z</time>
      </trkpt>
      <trkpt lat="62.50448" lon="6.63022">
        <ele>69.998825</ele>
        <time>2020-08-01T08:12:22.604Z</time>
      </trkpt>
      <trkpt lat="62.50445" lon="6.62995">
        <ele>69.823965</ele>
        <time>2020-08-01T08:12:24.614Z</time>
      </trkpt>
      <trkpt lat="62.50443" lon="6.62969">
        <ele>69.656029</ele>
        <time>2020-08-01T08:12:26.625Z</time>
      </trkpt>
      <trkpt lat="62.50443" lon="6.62944">
        <ele>69.494943</ele>
        <time>2020-08-01T08:12:28.586Z</time>
      </trkpt>
      <trkpt lat="62.50443" lon="6.62919">
        <ele>69.331296</ele>
        <time>2020-08-01T08:12:30.586Z</time>
      </trkpt>
      <trkpt lat="62.50445" lon="6.62895">
        <ele>69.208602</ele>
        <time>2020-08-01T08:12:32.585Z</time>
      </trkpt>
      <trkpt lat="62.50449" lon="6.62873">
        <ele>69.273002</ele>
        <time>2020-08-01T08:12:34.666Z</time>
      </trkpt>
      <trkpt lat="62.50454" lon="6.62854">
        <ele>69.335833</ele>
        <time>2020-08-01T08:12:36.625Z</time>
      </trkpt>
      <trkpt lat="62.50461" lon="6.62837">
        <ele>69.396871</ele>
        <time>2020-08-01T08:12:38.610Z</time>
      </trkpt>
      <trkpt lat="62.50466" lon="6.62821">
        <ele>69.453126</ele>
        <time>2020-08-01T08:12:40.587Z</time>
      </trkpt>
      <trkpt lat="62.50471" lon="6.62803">
        <ele>69.510431</ele>
        <time>2020-08-01T08:12:42.619Z</time>
      </trkpt>
      <trkpt lat="62.50476" lon="6.62784">
        <ele>69.569982</ele>
        <time>2020-08-01T08:12:44.609Z</time>
      </trkpt>
      <trkpt lat="62.50478" lon="6.62762">
        <ele>69.632639</ele>
        <time>2020-08-01T08:12:46.585Z</time>
      </trkpt>
      <trkpt lat="62.5048" lon="6.62743">
        <ele>69.687093</ele>
        <time>2020-08-01T08:12:48.589Z</time>
      </trkpt>
      <trkpt lat="62.50479" lon="6.62723">
        <ele>69.742641</ele>
        <time>2020-08-01T08:12:50.596Z</time>
      </trkpt>
      <trkpt lat="62.50478" lon="6.62698">
        <ele>69.813748</ele>
        <time>2020-08-01T08:12:53.650Z</time>
      </trkpt>
      <trkpt lat="62.50477" lon="6.62672">
        <ele>69.887075</ele>
        <time>2020-08-01T08:12:56.625Z</time>
      </trkpt>
      <trkpt lat="62.50475" lon="6.62646">
        <ele>69.960542</ele>
        <time>2020-08-01T08:12:59.592Z</time>
      </trkpt>
      <trkpt lat="62.50472" lon="6.6262">
        <ele>70.035162</ele>
        <time>2020-08-01T08:13:02.654Z</time>
      </trkpt>
      <trkpt lat="62.50467" lon="6.62594">
        <ele>70.113178</ele>
        <time>2020-08-01T08:13:05.609Z</time>
      </trkpt>
      <trkpt lat="62.50463" lon="6.62576">
        <ele>70.168092</ele>
        <time>2020-08-01T08:13:07.636Z</time>
      </trkpt>
      <trkpt lat="62.50458" lon="6.62551">
        <ele>70.244799</ele>
        <time>2020-08-01T08:13:10.596Z</time>
      </trkpt>
      <trkpt lat="62.50454" lon="6.62524">
        <ele>70.516017</ele>
        <time>2020-08-01T08:13:13.605Z</time>
      </trkpt>
      <trkpt lat="62.50449" lon="6.62502">
        <ele>70.936059</ele>
        <time>2020-08-01T08:13:16.608Z</time>
      </trkpt>
      <trkpt lat="62.50444" lon="6.6248">
        <ele>71.361243</ele>
        <time>2020-08-01T08:13:19.594Z</time>
      </trkpt>
      <trkpt lat="62.50439" lon="6.62456">
        <ele>71.789429</ele>
        <time>2020-08-01T08:13:22.608Z</time>
      </trkpt>
      <trkpt lat="62.50437" lon="6.6243">
        <ele>72.231249</ele>
        <time>2020-08-01T08:13:25.621Z</time>
      </trkpt>
      <trkpt lat="62.50435" lon="6.62408">
        <ele>72.617464</ele>
        <time>2020-08-01T08:13:28.603Z</time>
      </trkpt>
      <trkpt lat="62.50433" lon="6.62386">
        <ele>72.997724</ele>
        <time>2020-08-01T08:13:31.598Z</time>
      </trkpt>
      <trkpt lat="62.5043" lon="6.62363">
        <ele>73.387718</ele>
        <time>2020-08-01T08:13:34.608Z</time>
      </trkpt>
      <trkpt lat="62.50428" lon="6.62342">
        <ele>73.757926</ele>
        <time>2020-08-01T08:13:38.611Z</time>
      </trkpt>
      <trkpt lat="62.50424" lon="6.62362">
        <ele>74.119721</ele>
        <time>2020-08-01T08:13:53.637Z</time>
      </trkpt>
      <trkpt lat="62.50427" lon="6.62381">
        <ele>74.460822</ele>
        <time>2020-08-01T08:13:57.601Z</time>
      </trkpt>
      <trkpt lat="62.50429" lon="6.62406">
        <ele>74.893631</ele>
        <time>2020-08-01T08:14:01.621Z</time>
      </trkpt>
      <trkpt lat="62.50432" lon="6.62426">
        <ele>75.249342</ele>
        <time>2020-08-01T08:14:04.596Z</time>
      </trkpt>
      <trkpt lat="62.50435" lon="6.62447">
        <ele>75.620004</ele>
        <time>2020-08-01T08:14:07.633Z</time>
      </trkpt>
      <trkpt lat="62.50438" lon="6.62468">
        <ele>76.000852</ele>
        <time>2020-08-01T08:14:10.592Z</time>
      </trkpt>
      <trkpt lat="62.50443" lon="6.62491">
        <ele>76.410467</ele>
        <time>2020-08-01T08:14:13.618Z</time>
      </trkpt>
      <trkpt lat="62.50448" lon="6.62517">
        <ele>76.87459</ele>
        <time>2020-08-01T08:14:16.586Z</time>
      </trkpt>
      <trkpt lat="62.50453" lon="6.62543">
        <ele>77.084509</ele>
        <time>2020-08-01T08:14:19.615Z</time>
      </trkpt>
      <trkpt lat="62.50457" lon="6.62561">
        <ele>77.230381</ele>
        <time>2020-08-01T08:14:21.622Z</time>
      </trkpt>
      <trkpt lat="62.50462" lon="6.62588">
        <ele>77.444825</ele>
        <time>2020-08-01T08:14:24.587Z</time>
      </trkpt>
      <trkpt lat="62.50467" lon="6.62605">
        <ele>77.589706</ele>
        <time>2020-08-01T08:14:26.606Z</time>
      </trkpt>
      <trkpt lat="62.50473" lon="6.62627">
        <ele>77.780265</ele>
        <time>2020-08-01T08:14:29.620Z</time>
      </trkpt>
      <trkpt lat="62.50481" lon="6.62644">
        <ele>77.957194</ele>
        <time>2020-08-01T08:14:32.623Z</time>
      </trkpt>
      <trkpt lat="62.50488" lon="6.62657">
        <ele>78.108757</ele>
        <time>2020-08-01T08:14:35.604Z</time>
      </trkpt>
      <trkpt lat="62.50493" lon="6.62678">
        <ele>78.272599</ele>
        <time>2020-08-01T08:14:40.609Z</time>
      </trkpt>
      <trkpt lat="62.50492" lon="6.627">
        <ele>78.433873</ele>
        <time>2020-08-01T08:14:46.622Z</time>
      </trkpt>
      <trkpt lat="62.50493" lon="6.62721">
        <ele>78.593652</ele>
        <time>2020-08-01T08:14:52.626Z</time>
      </trkpt>
      <trkpt lat="62.50493" lon="6.62742">
        <ele>78.749156</ele>
        <time>2020-08-01T08:14:58.593Z</time>
      </trkpt>
      <trkpt lat="62.50494" lon="6.62763">
        <ele>78.90401</ele>
        <time>2020-08-01T08:15:05.607Z</time>
      </trkpt>
      <trkpt lat="62.50496" lon="6.62783">
        <ele>79.053029</ele>
        <time>2020-08-01T08:15:12.608Z</time>
      </trkpt>
      <trkpt lat="62.50499" lon="6.62804">
        <ele>79.213525</ele>
        <time>2020-08-01T08:15:21.585Z</time>
      </trkpt>
      <trkpt lat="62.505" lon="6.62826">
        <ele>79.37165</ele>
        <time>2020-08-01T08:15:30.608Z</time>
      </trkpt>
      <trkpt lat="62.50504" lon="6.62845">
        <ele>79.528838</ele>
        <time>2020-08-01T08:15:36.586Z</time>
      </trkpt>
      <trkpt lat="62.50508" lon="6.62866">
        <ele>79.689514</ele>
        <time>2020-08-01T08:15:44.596Z</time>
      </trkpt>
      <trkpt lat="62.5051" lon="6.62886">
        <ele>80.197913</ele>
        <time>2020-08-01T08:15:50.589Z</time>
      </trkpt>
      <trkpt lat="62.50515" lon="6.62904">
        <ele>80.791418</ele>
        <time>2020-08-01T08:15:58.591Z</time>
      </trkpt>
      <trkpt lat="62.50522" lon="6.62917">
        <ele>81.348922</ele>
        <time>2020-08-01T08:16:07.578Z</time>
      </trkpt>
      <trkpt lat="62.5053" lon="6.62926">
        <ele>81.934299</ele>
        <time>2020-08-01T08:16:15.626Z</time>
      </trkpt>
      <trkpt lat="62.5054" lon="6.62929">
        <ele>82.54323</ele>
        <time>2020-08-01T08:16:22.589Z</time>
      </trkpt>
      <trkpt lat="62.50549" lon="6.62934">
        <ele>83.135164</ele>
        <time>2020-08-01T08:16:30.602Z</time>
      </trkpt>
      <trkpt lat="62.50559" lon="6.62926">
        <ele>83.770452</ele>
        <time>2020-08-01T08:16:36.611Z</time>
      </trkpt>
      <trkpt lat="62.50567" lon="6.62915">
        <ele>84.38654</ele>
        <time>2020-08-01T08:16:43.602Z</time>
      </trkpt>
      <trkpt lat="62.50573" lon="6.629">
        <ele>84.94561</ele>
        <time>2020-08-01T08:16:50.628Z</time>
      </trkpt>
      <trkpt lat="62.50577" lon="6.62881">
        <ele>85.548952</ele>
        <time>2020-08-01T08:16:58.601Z</time>
      </trkpt>
      <trkpt lat="62.5058" lon="6.62862">
        <ele>86.118276</ele>
        <time>2020-08-01T08:17:06.583Z</time>
      </trkpt>
      <trkpt lat="62.50584" lon="6.62844">
        <ele>86.677942</ele>
        <time>2020-08-01T08:17:14.583Z</time>
      </trkpt>
      <trkpt lat="62.50589" lon="6.62825">
        <ele>87.28642</ele>
        <time>2020-08-01T08:17:22.617Z</time>
      </trkpt>
      <trkpt lat="62.50592" lon="6.62805">
        <ele>87.906591</ele>
        <time>2020-08-01T08:17:31.598Z</time>
      </trkpt>
      <trkpt lat="62.50597" lon="6.62788">
        <ele>88.468498</ele>
        <time>2020-08-01T08:17:38.591Z</time>
      </trkpt>
      <trkpt lat="62.50603" lon="6.62771">
        <ele>89.062849</ele>
        <time>2020-08-01T08:17:44.599Z</time>
      </trkpt>
      <trkpt lat="62.50609" lon="6.62758">
        <ele>89.622325</ele>
        <time>2020-08-01T08:17:50.591Z</time>
      </trkpt>
      <trkpt lat="62.50617" lon="6.62748">
        <ele>90.196854</ele>
        <time>2020-08-01T08:17:57.596Z</time>
      </trkpt>
      <trkpt lat="62.50627" lon="6.62743">
        <ele>90.798822</ele>
        <time>2020-08-01T08:18:05.588Z</time>
      </trkpt>
      <trkpt lat="62.50636" lon="6.62738">
        <ele>91.346809</ele>
        <time>2020-08-01T08:18:12.592Z</time>
      </trkpt>
      <trkpt lat="62.50646" lon="6.62737">
        <ele>91.910239</ele>
        <time>2020-08-01T08:18:19.600Z</time>
      </trkpt>
      <trkpt lat="62.50657" lon="6.62737">
        <ele>92.536622</ele>
        <time>2020-08-01T08:18:25.599Z</time>
      </trkpt>
      <trkpt lat="62.50667" lon="6.62734">
        <ele>93.138822</ele>
        <time>2020-08-01T08:18:30.600Z</time>
      </trkpt>
      <trkpt lat="62.50677" lon="6.62737">
        <ele>93.713606</ele>
        <time>2020-08-01T08:18:36.617Z</time>
      </trkpt>
      <trkpt lat="62.50687" lon="6.62733">
        <ele>94.274855</ele>
        <time>2020-08-01T08:18:42.599Z</time>
      </trkpt>
      <trkpt lat="62.50697" lon="6.6273">
        <ele>94.857353</ele>
        <time>2020-08-01T08:18:49.590Z</time>
      </trkpt>
      <trkpt lat="62.50705" lon="6.62724">
        <ele>95.382913</ele>
        <time>2020-08-01T08:18:55.606Z</time>
      </trkpt>
      <trkpt lat="62.50715" lon="6.62723">
        <ele>95.913056</ele>
        <time>2020-08-01T08:19:03.620Z</time>
      </trkpt>
      <trkpt lat="62.50724" lon="6.62716">
        <ele>96.461646</ele>
        <time>2020-08-01T08:19:09.589Z</time>
      </trkpt>
      <trkpt lat="62.50733" lon="6.62716">
        <ele>96.996046</ele>
        <time>2020-08-01T08:19:15.599Z</time>
      </trkpt>
      <trkpt lat="62.50743" lon="6.62712">
        <ele>97.578115</ele>
        <time>2020-08-01T08:19:21.593Z</time>
      </trkpt>
      <trkpt lat="62.50752" lon="6.62708">
        <ele>98.099562</ele>
        <time>2020-08-01T08:19:27.595Z</time>
      </trkpt>
      <trkpt lat="62.50761" lon="6.62703">
        <ele>98.657237</ele>
        <time>2020-08-01T08:19:33.611Z</time>
      </trkpt>
      <trkpt lat="62.50771" lon="6.62697">
        <ele>99.245395</ele>
        <time>2020-08-01T08:19:40.611Z</time>
      </trkpt>
      <trkpt lat="62.50781" lon="6.62694">
        <ele>99.846665</ele>
        <time>2020-08-01T08:19:46.602Z</time>
      </trkpt>
      <trkpt lat="62.5079" lon="6.62685">
        <ele>100.393853</ele>
        <time>2020-08-01T08:19:51.623Z</time>
      </trkpt>
      <trkpt lat="62.508" lon="6.62678">
        <ele>101.022831</ele>
        <time>2020-08-01T08:19:56.602Z</time>
      </trkpt>
      <trkpt lat="62.50809" lon="6.62669">
        <ele>101.156351</ele>
        <time>2020-08-01T08:20:00.624Z</time>
      </trkpt>
      <trkpt lat="62.50818" lon="6.62658">
        <ele>101.139528</ele>
        <time>2020-08-01T08:20:04.625Z</time>
      </trkpt>
      <trkpt lat="62.50826" lon="6.62648">
        <ele>101.124813</ele>
        <time>2020-08-01T08:20:07.589Z</time>
      </trkpt>
      <trkpt lat="62.50834" lon="6.62636">
        <ele>101.109539</ele>
        <time>2020-08-01T08:20:10.589Z</time>
      </trkpt>
      <trkpt lat="62.50842" lon="6.62623">
        <ele>101.09328</ele>
        <time>2020-08-01T08:20:13.633Z</time>
      </trkpt>
      <trkpt lat="62.50851" lon="6.62609">
        <ele>101.076303</ele>
        <time>2020-08-01T08:20:16.621Z</time>
      </trkpt>
      <trkpt lat="62.5086" lon="6.62593">
        <ele>101.058617</ele>
        <time>2020-08-01T08:20:19.619Z</time>
      </trkpt>
      <trkpt lat="62.50867" lon="6.62576">
        <ele>101.041188</ele>
        <time>2020-08-01T08:20:22.617Z</time>
      </trkpt>
      <trkpt lat="62.50876" lon="6.62562">
        <ele>101.024208</ele>
        <time>2020-08-01T08:20:25.588Z</time>
      </trkpt>
      <trkpt lat="62.50884" lon="6.62548">
        <ele>101.008596</ele>
        <time>2020-08-01T08:20:28.609Z</time>
      </trkpt>
      <trkpt lat="62.5089" lon="6.62533">
        <ele>100.993377</ele>
        <time>2020-08-01T08:20:31.585Z</time>
      </trkpt>
      <trkpt lat="62.50897" lon="6.62517">
        <ele>100.977345</ele>
        <time>2020-08-01T08:20:34.598Z</time>
      </trkpt>
      <trkpt lat="62.50904" lon="6.62503">
        <ele>100.96274</ele>
        <time>2020-08-01T08:20:37.599Z</time>
      </trkpt>
      <trkpt lat="62.50911" lon="6.6249">
        <ele>100.948334</ele>
        <time>2020-08-01T08:20:40.640Z</time>
      </trkpt>
      <trkpt lat="62.50919" lon="6.62471">
        <ele>100.930285</ele>
        <time>2020-08-01T08:20:44.585Z</time>
      </trkpt>
      <trkpt lat="62.50926" lon="6.62454">
        <ele>100.913037</ele>
        <time>2020-08-01T08:20:48.622Z</time>
      </trkpt>
      <trkpt lat="62.50934" lon="6.62436">
        <ele>100.895467</ele>
        <time>2020-08-01T08:20:52.588Z</time>
      </trkpt>
      <trkpt lat="62.50942" lon="6.62421">
        <ele>100.775643</ele>
        <time>2020-08-01T08:20:56.619Z</time>
      </trkpt>
      <trkpt lat="62.50949" lon="6.62407">
        <ele>100.440152</ele>
        <time>2020-08-01T08:21:00.582Z</time>
      </trkpt>
      <trkpt lat="62.50958" lon="6.62393">
        <ele>100.065842</ele>
        <time>2020-08-01T08:21:04.582Z</time>
      </trkpt>
      <trkpt lat="62.50968" lon="6.62379">
        <ele>99.677135</ele>
        <time>2020-08-01T08:21:08.589Z</time>
      </trkpt>
      <trkpt lat="62.50977" lon="6.62366">
        <ele>99.31137</ele>
        <time>2020-08-01T08:21:12.610Z</time>
      </trkpt>
      <trkpt lat="62.50986" lon="6.62355">
        <ele>98.96122</ele>
        <time>2020-08-01T08:21:16.605Z</time>
      </trkpt>
      <trkpt lat="62.50997" lon="6.62342">
        <ele>98.555732</ele>
        <time>2020-08-01T08:21:20.600Z</time>
      </trkpt>
      <trkpt lat="62.51006" lon="6.62332">
        <ele>98.201866</ele>
        <time>2020-08-01T08:21:23.597Z</time>
      </trkpt>
      <trkpt lat="62.51018" lon="6.6232">
        <ele>97.771531</ele>
        <time>2020-08-01T08:21:26.610Z</time>
      </trkpt>
      <trkpt lat="62.51026" lon="6.62311">
        <ele>97.452378</ele>
        <time>2020-08-01T08:21:28.588Z</time>
      </trkpt>
      <trkpt lat="62.51034" lon="6.62301">
        <ele>97.144237</ele>
        <time>2020-08-01T08:21:30.594Z</time>
      </trkpt>
      <trkpt lat="62.51044" lon="6.62289">
        <ele>96.759442</ele>
        <time>2020-08-01T08:21:33.624Z</time>
      </trkpt>
      <trkpt lat="62.51053" lon="6.62276">
        <ele>96.392488</ele>
        <time>2020-08-01T08:21:36.594Z</time>
      </trkpt>
      <trkpt lat="62.51062" lon="6.62257">
        <ele>95.98158</ele>
        <time>2020-08-01T08:21:39.587Z</time>
      </trkpt>
      <trkpt lat="62.51065" lon="6.62238">
        <ele>95.667402</ele>
        <time>2020-08-01T08:21:41.618Z</time>
      </trkpt>
      <trkpt lat="62.51066" lon="6.62218">
        <ele>95.351525</ele>
        <time>2020-08-01T08:21:43.601Z</time>
      </trkpt>
      <trkpt lat="62.51063" lon="6.62194">
        <ele>94.971195</ele>
        <time>2020-08-01T08:21:46.592Z</time>
      </trkpt>
      <trkpt lat="62.51061" lon="6.62167">
        <ele>95.124247</ele>
        <time>2020-08-01T08:21:49.616Z</time>
      </trkpt>
      <trkpt lat="62.51064" lon="6.6214">
        <ele>95.504819</ele>
        <time>2020-08-01T08:21:52.600Z</time>
      </trkpt>
      <trkpt lat="62.51068" lon="6.62117">
        <ele>95.83234</ele>
        <time>2020-08-01T08:21:55.587Z</time>
      </trkpt>
      <trkpt lat="62.51072" lon="6.62094">
        <ele>96.166335</ele>
        <time>2020-08-01T08:21:59.599Z</time>
      </trkpt>
      <trkpt lat="62.51077" lon="6.62074">
        <ele>96.486377</ele>
        <time>2020-08-01T08:22:03.597Z</time>
      </trkpt>
      <trkpt lat="62.51082" lon="6.62057">
        <ele>96.760965</ele>
        <time>2020-08-01T08:22:06.582Z</time>
      </trkpt>
      <trkpt lat="62.51087" lon="6.6204">
        <ele>97.029548</ele>
        <time>2020-08-01T08:22:09.601Z</time>
      </trkpt>
      <trkpt lat="62.51093" lon="6.62018">
        <ele>97.377546</ele>
        <time>2020-08-01T08:22:13.585Z</time>
      </trkpt>
      <trkpt lat="62.51098" lon="6.61996">
        <ele>97.718098</ele>
        <time>2020-08-01T08:22:17.639Z</time>
      </trkpt>
      <trkpt lat="62.51103" lon="6.61976">
        <ele>98.036</ele>
        <time>2020-08-01T08:22:21.600Z</time>
      </trkpt>
      <trkpt lat="62.51108" lon="6.61957">
        <ele>98.322903</ele>
        <time>2020-08-01T08:22:25.601Z</time>
      </trkpt>
      <trkpt lat="62.51112" lon="6.61936">
        <ele>98.62953</ele>
        <time>2020-08-01T08:22:29.640Z</time>
      </trkpt>
      <trkpt lat="62.51115" lon="6.61912">
        <ele>98.970329</ele>
        <time>2020-08-01T08:22:33.606Z</time>
      </trkpt>
      <trkpt lat="62.51116" lon="6.61893">
        <ele>99.238148</ele>
        <time>2020-08-01T08:22:36.601Z</time>
      </trkpt>
      <trkpt lat="62.51119" lon="6.61869">
        <ele>99.570852</ele>
        <time>2020-08-01T08:22:40.587Z</time>
      </trkpt>
      <trkpt lat="62.51121" lon="6.61846">
        <ele>99.892551</ele>
        <time>2020-08-01T08:22:45.579Z</time>
      </trkpt>
      <trkpt lat="62.51122" lon="6.61825">
        <ele>100.187848</ele>
        <time>2020-08-01T08:22:49.606Z</time>
      </trkpt>
      <trkpt lat="62.51123" lon="6.61804">
        <ele>100.810618</ele>
        <time>2020-08-01T08:22:53.618Z</time>
      </trkpt>
      <trkpt lat="62.51122" lon="6.6178">
        <ele>101.510916</ele>
        <time>2020-08-01T08:22:58.589Z</time>
      </trkpt>
      <trkpt lat="62.51122" lon="6.61758">
        <ele>102.169437</ele>
        <time>2020-08-01T08:23:03.602Z</time>
      </trkpt>
      <trkpt lat="62.51122" lon="6.61736">
        <ele>102.804433</ele>
        <time>2020-08-01T08:23:08.625Z</time>
      </trkpt>
      <trkpt lat="62.51123" lon="6.61713">
        <ele>103.493787</ele>
        <time>2020-08-01T08:23:13.602Z</time>
      </trkpt>
      <trkpt lat="62.51125" lon="6.61691">
        <ele>104.165076</ele>
        <time>2020-08-01T08:23:18.586Z</time>
      </trkpt>
      <trkpt lat="62.51127" lon="6.61668">
        <ele>104.865856</ele>
        <time>2020-08-01T08:23:23.617Z</time>
      </trkpt>
      <trkpt lat="62.5113" lon="6.61649">
        <ele>105.450014</ele>
        <time>2020-08-01T08:23:27.608Z</time>
      </trkpt>
      <trkpt lat="62.51132" lon="6.61625">
        <ele>106.158537</ele>
        <time>2020-08-01T08:23:32.616Z</time>
      </trkpt>
      <trkpt lat="62.51134" lon="6.61601">
        <ele>106.882233</ele>
        <time>2020-08-01T08:23:37.611Z</time>
      </trkpt>
      <trkpt lat="62.51138" lon="6.61584">
        <ele>107.46152</ele>
        <time>2020-08-01T08:23:40.603Z</time>
      </trkpt>
      <trkpt lat="62.51143" lon="6.6156">
        <ele>108.225651</ele>
        <time>2020-08-01T08:23:44.580Z</time>
      </trkpt>
      <trkpt lat="62.51149" lon="6.61543">
        <ele>108.868494</ele>
        <time>2020-08-01T08:23:47.590Z</time>
      </trkpt>
      <trkpt lat="62.51156" lon="6.61527">
        <ele>109.478202</ele>
        <time>2020-08-01T08:23:50.592Z</time>
      </trkpt>
      <trkpt lat="62.51163" lon="6.61513">
        <ele>110.123237</ele>
        <time>2020-08-01T08:23:53.593Z</time>
      </trkpt>
      <trkpt lat="62.51172" lon="6.61496">
        <ele>110.868003</ele>
        <time>2020-08-01T08:23:57.610Z</time>
      </trkpt>
      <trkpt lat="62.51181" lon="6.61482">
        <ele>111.605041</ele>
        <time>2020-08-01T08:24:01.589Z</time>
      </trkpt>
      <trkpt lat="62.51191" lon="6.61473">
        <ele>111.398893</ele>
        <time>2020-08-01T08:24:05.634Z</time>
      </trkpt>
      <trkpt lat="62.512" lon="6.61466">
        <ele>111.082538</ele>
        <time>2020-08-01T08:24:09.595Z</time>
      </trkpt>
      <trkpt lat="62.51212" lon="6.61463">
        <ele>110.724382</ele>
        <time>2020-08-01T08:24:13.585Z</time>
      </trkpt>
      <trkpt lat="62.51223" lon="6.61465">
        <ele>110.386075</ele>
        <time>2020-08-01T08:24:16.608Z</time>
      </trkpt>
      <trkpt lat="62.51234" lon="6.6147">
        <ele>110.034911</ele>
        <time>2020-08-01T08:24:19.617Z</time>
      </trkpt>
      <trkpt lat="62.51245" lon="6.61476">
        <ele>109.700748</ele>
        <time>2020-08-01T08:24:22.598Z</time>
      </trkpt>
      <trkpt lat="62.51255" lon="6.61485">
        <ele>109.352734</ele>
        <time>2020-08-01T08:24:25.617Z</time>
      </trkpt>
      <trkpt lat="62.51264" lon="6.61498">
        <ele>109.032054</ele>
        <time>2020-08-01T08:24:28.622Z</time>
      </trkpt>
      <trkpt lat="62.51271" lon="6.61511">
        <ele>108.734022</ele>
        <time>2020-08-01T08:24:31.611Z</time>
      </trkpt>
      <trkpt lat="62.51278" lon="6.61526">
        <ele>108.440523</ele>
        <time>2020-08-01T08:24:34.586Z</time>
      </trkpt>
      <trkpt lat="62.51285" lon="6.61541">
        <ele>108.149388</ele>
        <time>2020-08-01T08:24:37.601Z</time>
      </trkpt>
      <trkpt lat="62.5129" lon="6.61558">
        <ele>107.852062</ele>
        <time>2020-08-01T08:24:40.638Z</time>
      </trkpt>
      <trkpt lat="62.51297" lon="6.61573">
        <ele>107.562899</ele>
        <time>2020-08-01T08:24:43.603Z</time>
      </trkpt>
      <trkpt lat="62.51304" lon="6.6159">
        <ele>107.236418</ele>
        <time>2020-08-01T08:24:46.619Z</time>
      </trkpt>
      <trkpt lat="62.51313" lon="6.61611">
        <ele>106.831822</ele>
        <time>2020-08-01T08:24:49.623Z</time>
      </trkpt>
      <trkpt lat="62.5132" lon="6.61624">
        <ele>106.534329</ele>
        <time>2020-08-01T08:24:51.626Z</time>
      </trkpt>
      <trkpt lat="62.51329" lon="6.61641">
        <ele>106.180643</ele>
        <time>2020-08-01T08:24:53.590Z</time>
      </trkpt>
      <trkpt lat="62.51338" lon="6.61661">
        <ele>105.68383</ele>
        <time>2020-08-01T08:24:55.594Z</time>
      </trkpt>
      <trkpt lat="62.51349" lon="6.61683">
        <ele>105.109223</ele>
        <time>2020-08-01T08:24:57.609Z</time>
      </trkpt>
      <trkpt lat="62.51361" lon="6.61708">
        <ele>104.469561</ele>
        <time>2020-08-01T08:24:59.588Z</time>
      </trkpt>
      <trkpt lat="62.51368" lon="6.61722">
        <ele>104.102371</ele>
        <time>2020-08-01T08:25:00.612Z</time>
      </trkpt>
      <trkpt lat="62.51376" lon="6.61736">
        <ele>103.705586</ele>
        <time>2020-08-01T08:25:01.604Z</time>
      </trkpt>
      <trkpt lat="62.51384" lon="6.61752">
        <ele>103.282069</ele>
        <time>2020-08-01T08:25:02.632Z</time>
      </trkpt>
      <trkpt lat="62.51392" lon="6.61768">
        <ele>102.861216</ele>
        <time>2020-08-01T08:25:03.619Z</time>
      </trkpt>
      <trkpt lat="62.514" lon="6.61784">
        <ele>102.456468</ele>
        <time>2020-08-01T08:25:04.606Z</time>
      </trkpt>
      <trkpt lat="62.51408" lon="6.618">
        <ele>102.035181</ele>
        <time>2020-08-01T08:25:05.607Z</time>
      </trkpt>
      <trkpt lat="62.51416" lon="6.61815">
        <ele>101.627395</ele>
        <time>2020-08-01T08:25:06.600Z</time>
      </trkpt>
      <trkpt lat="62.51423" lon="6.6183">
        <ele>101.23114</ele>
        <time>2020-08-01T08:25:07.587Z</time>
      </trkpt>
      <trkpt lat="62.51431" lon="6.61845">
        <ele>100.836884</ele>
        <time>2020-08-01T08:25:08.618Z</time>
      </trkpt>
      <trkpt lat="62.51438" lon="6.6186">
        <ele>100.457609</ele>
        <time>2020-08-01T08:25:09.609Z</time>
      </trkpt>
      <trkpt lat="62.51444" lon="6.61875">
        <ele>100.087541</ele>
        <time>2020-08-01T08:25:10.620Z</time>
      </trkpt>
      <trkpt lat="62.51451" lon="6.6189">
        <ele>99.717295</ele>
        <time>2020-08-01T08:25:11.589Z</time>
      </trkpt>
      <trkpt lat="62.51458" lon="6.61905">
        <ele>99.356502</ele>
        <time>2020-08-01T08:25:12.597Z</time>
      </trkpt>
      <trkpt lat="62.51464" lon="6.6192">
        <ele>99.087144</ele>
        <time>2020-08-01T08:25:13.619Z</time>
      </trkpt>
      <trkpt lat="62.51471" lon="6.61935">
        <ele>98.875179</ele>
        <time>2020-08-01T08:25:14.618Z</time>
      </trkpt>
      <trkpt lat="62.51477" lon="6.61949">
        <ele>98.664445</ele>
        <time>2020-08-01T08:25:15.604Z</time>
      </trkpt>
      <trkpt lat="62.51484" lon="6.61963">
        <ele>98.460476</ele>
        <time>2020-08-01T08:25:16.583Z</time>
      </trkpt>
      <trkpt lat="62.51491" lon="6.61977">
        <ele>98.257708</ele>
        <time>2020-08-01T08:25:17.594Z</time>
      </trkpt>
      <trkpt lat="62.51504" lon="6.62002">
        <ele>97.873103</ele>
        <time>2020-08-01T08:25:19.582Z</time>
      </trkpt>
      <trkpt lat="62.51517" lon="6.62026">
        <ele>97.485171</ele>
        <time>2020-08-01T08:25:21.599Z</time>
      </trkpt>
      <trkpt lat="62.5153" lon="6.62048">
        <ele>97.119275</ele>
        <time>2020-08-01T08:25:23.617Z</time>
      </trkpt>
      <trkpt lat="62.51542" lon="6.62068">
        <ele>96.780212</ele>
        <time>2020-08-01T08:25:25.598Z</time>
      </trkpt>
      <trkpt lat="62.51553" lon="6.62086">
        <ele>96.476061</ele>
        <time>2020-08-01T08:25:27.586Z</time>
      </trkpt>
      <trkpt lat="62.51562" lon="6.62102">
        <ele>96.207348</ele>
        <time>2020-08-01T08:25:29.620Z</time>
      </trkpt>
      <trkpt lat="62.51571" lon="6.62116">
        <ele>95.962165</ele>
        <time>2020-08-01T08:25:31.628Z</time>
      </trkpt>
      <trkpt lat="62.51579" lon="6.62129">
        <ele>95.747633</ele>
        <time>2020-08-01T08:25:33.628Z</time>
      </trkpt>
      <trkpt lat="62.51589" lon="6.62144">
        <ele>95.472221</ele>
        <time>2020-08-01T08:25:36.607Z</time>
      </trkpt>
      <trkpt lat="62.51599" lon="6.62155">
        <ele>95.238049</ele>
        <time>2020-08-01T08:25:39.657Z</time>
      </trkpt>
      <trkpt lat="62.51608" lon="6.62166">
        <ele>95.174404</ele>
        <time>2020-08-01T08:25:42.593Z</time>
      </trkpt>
      <trkpt lat="62.51618" lon="6.62178">
        <ele>95.120764</ele>
        <time>2020-08-01T08:25:45.605Z</time>
      </trkpt>
      <trkpt lat="62.51627" lon="6.62191">
        <ele>95.066824</ele>
        <time>2020-08-01T08:25:48.624Z</time>
      </trkpt>
      <trkpt lat="62.51637" lon="6.62201">
        <ele>95.014088</ele>
        <time>2020-08-01T08:25:51.624Z</time>
      </trkpt>
      <trkpt lat="62.51646" lon="6.6221">
        <ele>94.963661</ele>
        <time>2020-08-01T08:25:54.596Z</time>
      </trkpt>
      <trkpt lat="62.51655" lon="6.62224">
        <ele>94.913062</ele>
        <time>2020-08-01T08:25:57.597Z</time>
      </trkpt>
      <trkpt lat="62.51661" lon="6.62241">
        <ele>94.86514</ele>
        <time>2020-08-01T08:26:00.611Z</time>
      </trkpt>
      <trkpt lat="62.5166" lon="6.6226">
        <ele>94.820688</ele>
        <time>2020-08-01T08:26:03.600Z</time>
      </trkpt>
      <trkpt lat="62.51651" lon="6.62273">
        <ele>94.765719</ele>
        <time>2020-08-01T08:26:08.633Z</time>
      </trkpt>
      <trkpt lat="62.51654" lon="6.62295">
        <ele>94.713368</ele>
        <time>2020-08-01T08:26:12.621Z</time>
      </trkpt>
      <trkpt lat="62.51662" lon="6.62312">
        <ele>94.657923</ele>
        <time>2020-08-01T08:26:15.598Z</time>
      </trkpt>
      <trkpt lat="62.5167" lon="6.62329">
        <ele>94.602133</ele>
        <time>2020-08-01T08:26:18.574Z</time>
      </trkpt>
      <trkpt lat="62.51678" lon="6.62348">
        <ele>94.542914</ele>
        <time>2020-08-01T08:26:21.612Z</time>
      </trkpt>
      <trkpt lat="62.51687" lon="6.62369">
        <ele>94.479248</ele>
        <time>2020-08-01T08:26:24.601Z</time>
      </trkpt>
      <trkpt lat="62.51696" lon="6.62391">
        <ele>94.415556</ele>
        <time>2020-08-01T08:26:27.597Z</time>
      </trkpt>
      <trkpt lat="62.51702" lon="6.62405">
        <ele>94.371352</ele>
        <time>2020-08-01T08:26:29.607Z</time>
      </trkpt>
      <trkpt lat="62.51711" lon="6.62427">
        <ele>94.366523</ele>
        <time>2020-08-01T08:26:32.621Z</time>
      </trkpt>
      <trkpt lat="62.51719" lon="6.62449">
        <ele>94.391324</ele>
        <time>2020-08-01T08:26:35.601Z</time>
      </trkpt>
      <trkpt lat="62.51728" lon="6.6247">
        <ele>94.415788</ele>
        <time>2020-08-01T08:26:38.596Z</time>
      </trkpt>
      <trkpt lat="62.51736" lon="6.62493">
        <ele>94.440871</ele>
        <time>2020-08-01T08:26:41.584Z</time>
      </trkpt>
      <trkpt lat="62.51742" lon="6.62508">
        <ele>94.458218</ele>
        <time>2020-08-01T08:26:43.588Z</time>
      </trkpt>
      <trkpt lat="62.51748" lon="6.62524">
        <ele>94.475632</ele>
        <time>2020-08-01T08:26:45.655Z</time>
      </trkpt>
      <trkpt lat="62.51754" lon="6.6254">
        <ele>94.493334</ele>
        <time>2020-08-01T08:26:47.600Z</time>
      </trkpt>
      <trkpt lat="62.5176" lon="6.62556">
        <ele>94.511425</ele>
        <time>2020-08-01T08:26:49.584Z</time>
      </trkpt>
      <trkpt lat="62.51766" lon="6.62572">
        <ele>94.529202</ele>
        <time>2020-08-01T08:26:51.621Z</time>
      </trkpt>
      <trkpt lat="62.51772" lon="6.62588">
        <ele>94.547123</ele>
        <time>2020-08-01T08:26:53.603Z</time>
      </trkpt>
      <trkpt lat="62.51778" lon="6.62604">
        <ele>94.56523</ele>
        <time>2020-08-01T08:26:55.600Z</time>
      </trkpt>
      <trkpt lat="62.51785" lon="6.6262">
        <ele>94.583844</ele>
        <time>2020-08-01T08:26:57.606Z</time>
      </trkpt>
      <trkpt lat="62.51791" lon="6.62636">
        <ele>94.601952</ele>
        <time>2020-08-01T08:26:59.585Z</time>
      </trkpt>
      <trkpt lat="62.51797" lon="6.62651">
        <ele>94.619485</ele>
        <time>2020-08-01T08:27:01.609Z</time>
      </trkpt>
      <trkpt lat="62.51803" lon="6.62667">
        <ele>94.637067</ele>
        <time>2020-08-01T08:27:03.609Z</time>
      </trkpt>
      <trkpt lat="62.51809" lon="6.62682">
        <ele>94.655042</ele>
        <time>2020-08-01T08:27:05.588Z</time>
      </trkpt>
      <trkpt lat="62.51815" lon="6.62699">
        <ele>94.672812</ele>
        <time>2020-08-01T08:27:07.601Z</time>
      </trkpt>
      <trkpt lat="62.51821" lon="6.62715">
        <ele>94.699735</ele>
        <time>2020-08-01T08:27:09.599Z</time>
      </trkpt>
      <trkpt lat="62.51828" lon="6.6273">
        <ele>94.765151</ele>
        <time>2020-08-01T08:27:11.582Z</time>
      </trkpt>
      <trkpt lat="62.51835" lon="6.62746">
        <ele>94.829895</ele>
        <time>2020-08-01T08:27:13.608Z</time>
      </trkpt>
      <trkpt lat="62.51841" lon="6.62761">
        <ele>94.892829</ele>
        <time>2020-08-01T08:27:15.582Z</time>
      </trkpt>
      <trkpt lat="62.51848" lon="6.62776">
        <ele>94.957373</ele>
        <time>2020-08-01T08:27:17.599Z</time>
      </trkpt>
      <trkpt lat="62.51855" lon="6.6279">
        <ele>95.021046</ele>
        <time>2020-08-01T08:27:19.623Z</time>
      </trkpt>
      <trkpt lat="62.51862" lon="6.62805">
        <ele>95.084075</ele>
        <time>2020-08-01T08:27:21.580Z</time>
      </trkpt>
      <trkpt lat="62.51868" lon="6.62817">
        <ele>95.143389</ele>
        <time>2020-08-01T08:27:23.624Z</time>
      </trkpt>
      <trkpt lat="62.51878" lon="6.62835">
        <ele>95.227329</ele>
        <time>2020-08-01T08:27:26.589Z</time>
      </trkpt>
      <trkpt lat="62.51888" lon="6.62852">
        <ele>95.312252</ele>
        <time>2020-08-01T08:27:29.639Z</time>
      </trkpt>
      <trkpt lat="62.51898" lon="6.62868">
        <ele>95.39601</ele>
        <time>2020-08-01T08:27:32.584Z</time>
      </trkpt>
      <trkpt lat="62.51908" lon="6.62883">
        <ele>95.47656</ele>
        <time>2020-08-01T08:27:35.584Z</time>
      </trkpt>
      <trkpt lat="62.51918" lon="6.62898">
        <ele>95.55983</ele>
        <time>2020-08-01T08:27:38.580Z</time>
      </trkpt>
      <trkpt lat="62.51929" lon="6.62913">
        <ele>95.640805</ele>
        <time>2020-08-01T08:27:41.641Z</time>
      </trkpt>
      <trkpt lat="62.51939" lon="6.62927">
        <ele>95.719271</ele>
        <time>2020-08-01T08:27:44.600Z</time>
      </trkpt>
      <trkpt lat="62.51949" lon="6.62941">
        <ele>95.798629</ele>
        <time>2020-08-01T08:27:47.616Z</time>
      </trkpt>
      <trkpt lat="62.51958" lon="6.62954">
        <ele>95.87442</ele>
        <time>2020-08-01T08:27:50.601Z</time>
      </trkpt>
      <trkpt lat="62.51967" lon="6.62968">
        <ele>95.846853</ele>
        <time>2020-08-01T08:27:53.601Z</time>
      </trkpt>
      <trkpt lat="62.51976" lon="6.6298">
        <ele>95.805975</ele>
        <time>2020-08-01T08:27:56.612Z</time>
      </trkpt>
      <trkpt lat="62.51985" lon="6.62993">
        <ele>95.763636</ele>
        <time>2020-08-01T08:27:59.617Z</time>
      </trkpt>
      <trkpt lat="62.51995" lon="6.63006">
        <ele>95.721519</ele>
        <time>2020-08-01T08:28:02.584Z</time>
      </trkpt>
      <trkpt lat="62.52003" lon="6.63019">
        <ele>95.681493</ele>
        <time>2020-08-01T08:28:05.633Z</time>
      </trkpt>
      <trkpt lat="62.52011" lon="6.63031">
        <ele>95.643733</ele>
        <time>2020-08-01T08:28:08.582Z</time>
      </trkpt>
      <trkpt lat="62.52019" lon="6.63042">
        <ele>95.606969</ele>
        <time>2020-08-01T08:28:11.589Z</time>
      </trkpt>
      <trkpt lat="62.52027" lon="6.63053">
        <ele>95.570338</ele>
        <time>2020-08-01T08:28:14.606Z</time>
      </trkpt>
      <trkpt lat="62.52035" lon="6.63064">
        <ele>95.534153</ele>
        <time>2020-08-01T08:28:17.594Z</time>
      </trkpt>
      <trkpt lat="62.52044" lon="6.63076">
        <ele>95.495939</ele>
        <time>2020-08-01T08:28:20.609Z</time>
      </trkpt>
      <trkpt lat="62.52053" lon="6.6309">
        <ele>95.450099</ele>
        <time>2020-08-01T08:28:24.620Z</time>
      </trkpt>
      <trkpt lat="62.52062" lon="6.631">
        <ele>95.413069</ele>
        <time>2020-08-01T08:28:27.581Z</time>
      </trkpt>
      <trkpt lat="62.52072" lon="6.63112">
        <ele>95.367501</ele>
        <time>2020-08-01T08:28:31.589Z</time>
      </trkpt>
      <trkpt lat="62.52082" lon="6.63124">
        <ele>95.324131</ele>
        <time>2020-08-01T08:28:35.586Z</time>
      </trkpt>
      <trkpt lat="62.52091" lon="6.63134">
        <ele>95.285735</ele>
        <time>2020-08-01T08:28:39.603Z</time>
      </trkpt>
      <trkpt lat="62.521" lon="6.63142">
        <ele>95.248098</ele>
        <time>2020-08-01T08:28:43.588Z</time>
      </trkpt>
      <trkpt lat="62.5211" lon="6.63145">
        <ele>95.209459</ele>
        <time>2020-08-01T08:28:47.590Z</time>
      </trkpt>
      <trkpt lat="62.5212" lon="6.63151">
        <ele>95.419893</ele>
        <time>2020-08-01T08:28:51.616Z</time>
      </trkpt>
      <trkpt lat="62.52129" lon="6.63156">
        <ele>95.816922</ele>
        <time>2020-08-01T08:28:55.581Z</time>
      </trkpt>
      <trkpt lat="62.5214" lon="6.63161">
        <ele>96.301372</ele>
        <time>2020-08-01T08:29:00.593Z</time>
      </trkpt>
      <trkpt lat="62.5215" lon="6.63163">
        <ele>96.73185</ele>
        <time>2020-08-01T08:29:04.590Z</time>
      </trkpt>
      <trkpt lat="62.5216" lon="6.63163">
        <ele>97.190987</ele>
        <time>2020-08-01T08:29:09.578Z</time>
      </trkpt>
      <trkpt lat="62.52171" lon="6.63164">
        <ele>97.637305</ele>
        <time>2020-08-01T08:29:15.587Z</time>
      </trkpt>
      <trkpt lat="62.52181" lon="6.63162">
        <ele>98.08849</ele>
        <time>2020-08-01T08:29:21.578Z</time>
      </trkpt>
      <trkpt lat="62.52192" lon="6.63159">
        <ele>98.5346</ele>
        <time>2020-08-01T08:29:27.599Z</time>
      </trkpt>
      <trkpt lat="62.52202" lon="6.63155">
        <ele>98.994161</ele>
        <time>2020-08-01T08:29:33.590Z</time>
      </trkpt>
      <trkpt lat="62.52212" lon="6.63149">
        <ele>99.431637</ele>
        <time>2020-08-01T08:29:39.591Z</time>
      </trkpt>
      <trkpt lat="62.52222" lon="6.63144">
        <ele>99.879376</ele>
        <time>2020-08-01T08:29:45.609Z</time>
      </trkpt>
      <trkpt lat="62.52231" lon="6.63139">
        <ele>100.270677</ele>
        <time>2020-08-01T08:29:50.600Z</time>
      </trkpt>
      <trkpt lat="62.5224" lon="6.63133">
        <ele>100.690544</ele>
        <time>2020-08-01T08:29:56.617Z</time>
      </trkpt>
      <trkpt lat="62.5225" lon="6.6313">
        <ele>101.091962</ele>
        <time>2020-08-01T08:30:02.581Z</time>
      </trkpt>
      <trkpt lat="62.52259" lon="6.63125">
        <ele>101.528967</ele>
        <time>2020-08-01T08:30:08.627Z</time>
      </trkpt>
      <trkpt lat="62.52269" lon="6.63119">
        <ele>101.965306</ele>
        <time>2020-08-01T08:30:14.609Z</time>
      </trkpt>
      <trkpt lat="62.52279" lon="6.63113">
        <ele>102.403747</ele>
        <time>2020-08-01T08:30:20.630Z</time>
      </trkpt>
      <trkpt lat="62.52288" lon="6.63107">
        <ele>102.803018</ele>
        <time>2020-08-01T08:30:24.598Z</time>
      </trkpt>
      <trkpt lat="62.52297" lon="6.63102">
        <ele>102.944433</ele>
        <time>2020-08-01T08:30:28.598Z</time>
      </trkpt>
      <trkpt lat="62.52307" lon="6.63096">
        <ele>103.001439</ele>
        <time>2020-08-01T08:30:33.598Z</time>
      </trkpt>
      <trkpt lat="62.52317" lon="6.63089">
        <ele>103.059838</ele>
        <time>2020-08-01T08:30:38.604Z</time>
      </trkpt>
      <trkpt lat="62.52326" lon="6.63084">
        <ele>103.109117</ele>
        <time>2020-08-01T08:30:42.585Z</time>
      </trkpt>
      <trkpt lat="62.52336" lon="6.6308">
        <ele>103.166477</ele>
        <time>2020-08-01T08:30:46.609Z</time>
      </trkpt>
      <trkpt lat="62.52348" lon="6.63076">
        <ele>103.227801</ele>
        <time>2020-08-01T08:30:50.592Z</time>
      </trkpt>
      <trkpt lat="62.52357" lon="6.63071">
        <ele>103.278075</ele>
        <time>2020-08-01T08:30:53.604Z</time>
      </trkpt>
      <trkpt lat="62.52366" lon="6.63066">
        <ele>103.332339</ele>
        <time>2020-08-01T08:30:56.596Z</time>
      </trkpt>
      <trkpt lat="62.52376" lon="6.63061">
        <ele>103.385312</ele>
        <time>2020-08-01T08:30:59.584Z</time>
      </trkpt>
      <trkpt lat="62.52386" lon="6.63057">
        <ele>103.443536</ele>
        <time>2020-08-01T08:31:02.619Z</time>
      </trkpt>
      <trkpt lat="62.52397" lon="6.63052">
        <ele>103.505262</ele>
        <time>2020-08-01T08:31:05.590Z</time>
      </trkpt>
      <trkpt lat="62.52409" lon="6.63049">
        <ele>103.566749</ele>
        <time>2020-08-01T08:31:08.603Z</time>
      </trkpt>
      <trkpt lat="62.5242" lon="6.63045">
        <ele>103.630616</ele>
        <time>2020-08-01T08:31:11.604Z</time>
      </trkpt>
      <trkpt lat="62.52432" lon="6.63042">
        <ele>103.696015</ele>
        <time>2020-08-01T08:31:14.607Z</time>
      </trkpt>
      <trkpt lat="62.52444" lon="6.63041">
        <ele>103.760221</ele>
        <time>2020-08-01T08:31:17.598Z</time>
      </trkpt>
      <trkpt lat="62.52456" lon="6.63038">
        <ele>103.826723</ele>
        <time>2020-08-01T08:31:20.597Z</time>
      </trkpt>
      <trkpt lat="62.52469" lon="6.63037">
        <ele>103.875129</ele>
        <time>2020-08-01T08:31:23.601Z</time>
      </trkpt>
      <trkpt lat="62.52483" lon="6.63035">
        <ele>103.81633</ele>
        <time>2020-08-01T08:31:26.587Z</time>
      </trkpt>
      <trkpt lat="62.52492" lon="6.63034">
        <ele>103.776706</ele>
        <time>2020-08-01T08:31:28.605Z</time>
      </trkpt>
      <trkpt lat="62.52505" lon="6.63032">
        <ele>103.71971</ele>
        <time>2020-08-01T08:31:31.591Z</time>
      </trkpt>
      <trkpt lat="62.52518" lon="6.63032">
        <ele>103.662338</ele>
        <time>2020-08-01T08:31:34.641Z</time>
      </trkpt>
      <trkpt lat="62.52532" lon="6.63033">
        <ele>103.604092</ele>
        <time>2020-08-01T08:31:37.607Z</time>
      </trkpt>
      <trkpt lat="62.52541" lon="6.63033">
        <ele>103.56279</ele>
        <time>2020-08-01T08:31:39.594Z</time>
      </trkpt>
      <trkpt lat="62.5255" lon="6.63035">
        <ele>103.522562</ele>
        <time>2020-08-01T08:31:41.622Z</time>
      </trkpt>
      <trkpt lat="62.5256" lon="6.63037">
        <ele>103.481962</ele>
        <time>2020-08-01T08:31:43.584Z</time>
      </trkpt>
      <trkpt lat="62.52569" lon="6.63039">
        <ele>103.442619</ele>
        <time>2020-08-01T08:31:45.648Z</time>
      </trkpt>
      <trkpt lat="62.52578" lon="6.63041">
        <ele>103.401548</ele>
        <time>2020-08-01T08:31:47.585Z</time>
      </trkpt>
      <trkpt lat="62.52587" lon="6.63043">
        <ele>103.360622</ele>
        <time>2020-08-01T08:31:49.602Z</time>
      </trkpt>
      <trkpt lat="62.52597" lon="6.63045">
        <ele>103.318212</ele>
        <time>2020-08-01T08:31:51.603Z</time>
      </trkpt>
      <trkpt lat="62.52607" lon="6.63048">
        <ele>103.275223</ele>
        <time>2020-08-01T08:31:53.604Z</time>
      </trkpt>
      <trkpt lat="62.52617" lon="6.63051">
        <ele>103.230859</ele>
        <time>2020-08-01T08:31:55.623Z</time>
      </trkpt>
      <trkpt lat="62.52627" lon="6.63054">
        <ele>103.188301</ele>
        <time>2020-08-01T08:31:57.598Z</time>
      </trkpt>
      <trkpt lat="62.52636" lon="6.63056">
        <ele>103.145868</ele>
        <time>2020-08-01T08:31:59.604Z</time>
      </trkpt>
      <trkpt lat="62.52646" lon="6.63059">
        <ele>103.104225</ele>
        <time>2020-08-01T08:32:01.589Z</time>
      </trkpt>
      <trkpt lat="62.52656" lon="6.63061">
        <ele>103.481707</ele>
        <time>2020-08-01T08:32:03.604Z</time>
      </trkpt>
      <trkpt lat="62.52666" lon="6.63065">
        <ele>103.889971</ele>
        <time>2020-08-01T08:32:05.614Z</time>
      </trkpt>
      <trkpt lat="62.52676" lon="6.63067">
        <ele>104.300959</ele>
        <time>2020-08-01T08:32:07.628Z</time>
      </trkpt>
      <trkpt lat="62.52686" lon="6.6307">
        <ele>104.70824</ele>
        <time>2020-08-01T08:32:09.592Z</time>
      </trkpt>
      <trkpt lat="62.52697" lon="6.63073">
        <ele>105.122947</ele>
        <time>2020-08-01T08:32:11.627Z</time>
      </trkpt>
      <trkpt lat="62.52707" lon="6.63075">
        <ele>105.532763</ele>
        <time>2020-08-01T08:32:13.608Z</time>
      </trkpt>
      <trkpt lat="62.52717" lon="6.63078">
        <ele>105.936594</ele>
        <time>2020-08-01T08:32:15.588Z</time>
      </trkpt>
      <trkpt lat="62.52727" lon="6.6308">
        <ele>106.34641</ele>
        <time>2020-08-01T08:32:17.601Z</time>
      </trkpt>
      <trkpt lat="62.52738" lon="6.63082">
        <ele>106.751657</ele>
        <time>2020-08-01T08:32:19.605Z</time>
      </trkpt>
      <trkpt lat="62.52748" lon="6.63084">
        <ele>107.157891</ele>
        <time>2020-08-01T08:32:21.607Z</time>
      </trkpt>
      <trkpt lat="62.52758" lon="6.63086">
        <ele>107.575767</ele>
        <time>2020-08-01T08:32:23.591Z</time>
      </trkpt>
      <trkpt lat="62.52769" lon="6.63088">
        <ele>108.017655</ele>
        <time>2020-08-01T08:32:25.638Z</time>
      </trkpt>
      <trkpt lat="62.52781" lon="6.63092">
        <ele>108.468854</ele>
        <time>2020-08-01T08:32:27.626Z</time>
      </trkpt>
      <trkpt lat="62.52792" lon="6.63094">
        <ele>108.918807</ele>
        <time>2020-08-01T08:32:29.611Z</time>
      </trkpt>
      <trkpt lat="62.52803" lon="6.63097">
        <ele>109.374167</ele>
        <time>2020-08-01T08:32:31.587Z</time>
      </trkpt>
      <trkpt lat="62.52815" lon="6.631">
        <ele>109.831825</ele>
        <time>2020-08-01T08:32:33.603Z</time>
      </trkpt>
      <trkpt lat="62.52826" lon="6.63102">
        <ele>110.287964</ele>
        <time>2020-08-01T08:32:35.591Z</time>
      </trkpt>
      <trkpt lat="62.52837" lon="6.63104">
        <ele>110.709156</ele>
        <time>2020-08-01T08:32:37.622Z</time>
      </trkpt>
      <trkpt lat="62.52848" lon="6.63106">
        <ele>111.114559</ele>
        <time>2020-08-01T08:32:39.607Z</time>
      </trkpt>
      <trkpt lat="62.52857" lon="6.63109">
        <ele>111.498515</ele>
        <time>2020-08-01T08:32:41.597Z</time>
      </trkpt>
      <trkpt lat="62.52866" lon="6.63112">
        <ele>111.856054</ele>
        <time>2020-08-01T08:32:43.601Z</time>
      </trkpt>
      <trkpt lat="62.52879" lon="6.63117">
        <ele>112.342488</ele>
        <time>2020-08-01T08:32:46.600Z</time>
      </trkpt>
      <trkpt lat="62.5289" lon="6.6312">
        <ele>112.766926</ele>
        <time>2020-08-01T08:32:49.585Z</time>
      </trkpt>
      <trkpt lat="62.52899" lon="6.63123">
        <ele>113.143677</ele>
        <time>2020-08-01T08:32:52.629Z</time>
      </trkpt>
      <trkpt lat="62.52909" lon="6.63125">
        <ele>113.545209</ele>
        <time>2020-08-01T08:32:56.596Z</time>
      </trkpt>
      <trkpt lat="62.52919" lon="6.63128">
        <ele>113.921708</ele>
        <time>2020-08-01T08:33:00.598Z</time>
      </trkpt>
      <trkpt lat="62.52929" lon="6.6313">
        <ele>114.322952</ele>
        <time>2020-08-01T08:33:04.586Z</time>
      </trkpt>
      <trkpt lat="62.5294" lon="6.63131">
        <ele>114.739132</ele>
        <time>2020-08-01T08:33:08.593Z</time>
      </trkpt>
      <trkpt lat="62.52949" lon="6.63131">
        <ele>115.096531</ele>
        <time>2020-08-01T08:33:11.583Z</time>
      </trkpt>
      <trkpt lat="62.52959" lon="6.63131">
        <ele>115.481096</ele>
        <time>2020-08-01T08:33:14.601Z</time>
      </trkpt>
      <trkpt lat="62.52969" lon="6.63128">
        <ele>115.849654</ele>
        <time>2020-08-01T08:33:17.607Z</time>
      </trkpt>
      <trkpt lat="62.5298" lon="6.63123">
        <ele>116.299122</ele>
        <time>2020-08-01T08:33:21.614Z</time>
      </trkpt>
      <trkpt lat="62.52989" lon="6.63119">
        <ele>116.661282</ele>
        <time>2020-08-01T08:33:24.590Z</time>
      </trkpt>
      <trkpt lat="62.52998" lon="6.63112">
        <ele>117.040835</ele>
        <time>2020-08-01T08:33:27.620Z</time>
      </trkpt>
      <trkpt lat="62.53007" lon="6.63105">
        <ele>116.856648</ele>
        <time>2020-08-01T08:33:30.605Z</time>
      </trkpt>
      <trkpt lat="62.53016" lon="6.63097">
        <ele>116.174967</ele>
        <time>2020-08-01T08:33:33.598Z</time>
      </trkpt>
      <trkpt lat="62.53025" lon="6.63086">
        <ele>115.389099</ele>
        <time>2020-08-01T08:33:36.624Z</time>
      </trkpt>
      <trkpt lat="62.53036" lon="6.63072">
        <ele>114.433083</ele>
        <time>2020-08-01T08:33:39.578Z</time>
      </trkpt>
      <trkpt lat="62.53044" lon="6.6306">
        <ele>113.760588</ele>
        <time>2020-08-01T08:33:41.590Z</time>
      </trkpt>
      <trkpt lat="62.53051" lon="6.63047">
        <ele>113.082723</ele>
        <time>2020-08-01T08:33:43.588Z</time>
      </trkpt>
      <trkpt lat="62.53058" lon="6.63033">
        <ele>112.378089</ele>
        <time>2020-08-01T08:33:45.616Z</time>
      </trkpt>
      <trkpt lat="62.53064" lon="6.63017">
        <ele>111.648396</ele>
        <time>2020-08-01T08:33:47.637Z</time>
      </trkpt>
      <trkpt lat="62.5307" lon="6.62998">
        <ele>110.893667</ele>
        <time>2020-08-01T08:33:49.610Z</time>
      </trkpt>
      <trkpt lat="62.53076" lon="6.62978">
        <ele>110.048431</ele>
        <time>2020-08-01T08:33:51.605Z</time>
      </trkpt>
      <trkpt lat="62.53083" lon="6.62955">
        <ele>109.134958</ele>
        <time>2020-08-01T08:33:53.628Z</time>
      </trkpt>
      <trkpt lat="62.53088" lon="6.6293">
        <ele>108.218374</ele>
        <time>2020-08-01T08:33:55.622Z</time>
      </trkpt>
      <trkpt lat="62.53093" lon="6.62904">
        <ele>107.284806</ele>
        <time>2020-08-01T08:33:57.588Z</time>
      </trkpt>
      <trkpt lat="62.53097" lon="6.62878">
        <ele>106.338236</ele>
        <time>2020-08-01T08:33:59.608Z</time>
      </trkpt>
      <trkpt lat="62.53101" lon="6.62849">
        <ele>105.333687</ele>
        <time>2020-08-01T08:34:01.605Z</time>
      </trkpt>
      <trkpt lat="62.53105" lon="6.6282">
        <ele>104.296781</ele>
        <time>2020-08-01T08:34:03.603Z</time>
      </trkpt>
      <trkpt lat="62.53108" lon="6.62792">
        <ele>103.262426</ele>
        <time>2020-08-01T08:34:05.581Z</time>
      </trkpt>
      <trkpt lat="62.53111" lon="6.62764">
        <ele>102.20655</ele>
        <time>2020-08-01T08:34:07.589Z</time>
      </trkpt>
      <trkpt lat="62.53112" lon="6.62737">
        <ele>101.211101</ele>
        <time>2020-08-01T08:34:09.602Z</time>
      </trkpt>
      <trkpt lat="62.53113" lon="6.6271">
        <ele>100.214574</ele>
        <time>2020-08-01T08:34:11.593Z</time>
      </trkpt>
      <trkpt lat="62.53114" lon="6.62683">
        <ele>99.235672</ele>
        <time>2020-08-01T08:34:13.606Z</time>
      </trkpt>
      <trkpt lat="62.53115" lon="6.62657">
        <ele>98.30062</ele>
        <time>2020-08-01T08:34:15.610Z</time>
      </trkpt>
      <trkpt lat="62.53115" lon="6.62631">
        <ele>97.336761</ele>
        <time>2020-08-01T08:34:17.601Z</time>
      </trkpt>
      <trkpt lat="62.53116" lon="6.62605">
        <ele>96.399399</ele>
        <time>2020-08-01T08:34:19.595Z</time>
      </trkpt>
      <trkpt lat="62.53116" lon="6.6258">
        <ele>95.461801</ele>
        <time>2020-08-01T08:34:21.641Z</time>
      </trkpt>
      <trkpt lat="62.53117" lon="6.62555">
        <ele>94.536623</ele>
        <time>2020-08-01T08:34:23.602Z</time>
      </trkpt>
      <trkpt lat="62.53118" lon="6.62531">
        <ele>93.659364</ele>
        <time>2020-08-01T08:34:25.637Z</time>
      </trkpt>
      <trkpt lat="62.53119" lon="6.62508">
        <ele>92.810803</ele>
        <time>2020-08-01T08:34:27.610Z</time>
      </trkpt>
      <trkpt lat="62.5312" lon="6.62486">
        <ele>92.008198</ele>
        <time>2020-08-01T08:34:29.595Z</time>
      </trkpt>
      <trkpt lat="62.5312" lon="6.62465">
        <ele>91.249833</ele>
        <time>2020-08-01T08:34:31.589Z</time>
      </trkpt>
      <trkpt lat="62.5312" lon="6.62444">
        <ele>90.469808</ele>
        <time>2020-08-01T08:34:33.603Z</time>
      </trkpt>
      <trkpt lat="62.53121" lon="6.62424">
        <ele>89.735029</ele>
        <time>2020-08-01T08:34:35.603Z</time>
      </trkpt>
      <trkpt lat="62.53121" lon="6.62404">
        <ele>89.577023</ele>
        <time>2020-08-01T08:34:37.651Z</time>
      </trkpt>
      <trkpt lat="62.5312" lon="6.62375">
        <ele>89.35407</ele>
        <time>2020-08-01T08:34:40.596Z</time>
      </trkpt>
      <trkpt lat="62.5312" lon="6.62348">
        <ele>89.135064</ele>
        <time>2020-08-01T08:34:43.611Z</time>
      </trkpt>
      <trkpt lat="62.53119" lon="6.6232">
        <ele>88.915416</ele>
        <time>2020-08-01T08:34:46.606Z</time>
      </trkpt>
      <trkpt lat="62.53117" lon="6.62292">
        <ele>88.690523</ele>
        <time>2020-08-01T08:34:49.603Z</time>
      </trkpt>
      <trkpt lat="62.53114" lon="6.62273">
        <ele>88.534429</ele>
        <time>2020-08-01T08:34:51.612Z</time>
      </trkpt>
      <trkpt lat="62.53114" lon="6.62253">
        <ele>88.374695</ele>
        <time>2020-08-01T08:34:53.608Z</time>
      </trkpt>
      <trkpt lat="62.53113" lon="6.62232">
        <ele>88.210586</ele>
        <time>2020-08-01T08:34:55.592Z</time>
      </trkpt>
      <trkpt lat="62.53111" lon="6.62213">
        <ele>88.05596</ele>
        <time>2020-08-01T08:34:57.607Z</time>
      </trkpt>
      <trkpt lat="62.5311" lon="6.62193">
        <ele>87.902324</ele>
        <time>2020-08-01T08:34:59.632Z</time>
      </trkpt>
      <trkpt lat="62.5311" lon="6.62174">
        <ele>87.748116</ele>
        <time>2020-08-01T08:35:01.589Z</time>
      </trkpt>
      <trkpt lat="62.53109" lon="6.62154">
        <ele>87.589516</ele>
        <time>2020-08-01T08:35:03.628Z</time>
      </trkpt>
      <trkpt lat="62.53108" lon="6.62134">
        <ele>87.430214</ele>
        <time>2020-08-01T08:35:05.626Z</time>
      </trkpt>
      <trkpt lat="62.53106" lon="6.62114">
        <ele>87.271179</ele>
        <time>2020-08-01T08:35:07.631Z</time>
      </trkpt>
      <trkpt lat="62.53105" lon="6.62095">
        <ele>87.114995</ele>
        <time>2020-08-01T08:35:09.597Z</time>
      </trkpt>
      <trkpt lat="62.53103" lon="6.62075">
        <ele>86.95644</ele>
        <time>2020-08-01T08:35:11.591Z</time>
      </trkpt>
      <trkpt lat="62.53103" lon="6.62054">
        <ele>86.793904</ele>
        <time>2020-08-01T08:35:13.588Z</time>
      </trkpt>
      <trkpt lat="62.53102" lon="6.62034">
        <ele>86.704974</ele>
        <time>2020-08-01T08:35:15.625Z</time>
      </trkpt>
      <trkpt lat="62.53103" lon="6.62005">
        <ele>87.273199</ele>
        <time>2020-08-01T08:35:18.600Z</time>
      </trkpt>
      <trkpt lat="62.53103" lon="6.61985">
        <ele>87.65704</ele>
        <time>2020-08-01T08:35:20.605Z</time>
      </trkpt>
      <trkpt lat="62.53104" lon="6.61956">
        <ele>88.225827</ele>
        <time>2020-08-01T08:35:23.612Z</time>
      </trkpt>
      <trkpt lat="62.53106" lon="6.61928">
        <ele>88.78932</ele>
        <time>2020-08-01T08:35:26.611Z</time>
      </trkpt>
      <trkpt lat="62.53108" lon="6.61899">
        <ele>89.352087</ele>
        <time>2020-08-01T08:35:29.615Z</time>
      </trkpt>
      <trkpt lat="62.5311" lon="6.61879">
        <ele>89.744522</ele>
        <time>2020-08-01T08:35:31.602Z</time>
      </trkpt>
      <trkpt lat="62.53113" lon="6.6186">
        <ele>90.128222</ele>
        <time>2020-08-01T08:35:33.588Z</time>
      </trkpt>
      <trkpt lat="62.53116" lon="6.61842">
        <ele>90.508865</ele>
        <time>2020-08-01T08:35:35.609Z</time>
      </trkpt>
      <trkpt lat="62.53119" lon="6.61823">
        <ele>90.897723</ele>
        <time>2020-08-01T08:35:37.625Z</time>
      </trkpt>
      <trkpt lat="62.53123" lon="6.61804">
        <ele>91.302665</ele>
        <time>2020-08-01T08:35:39.648Z</time>
      </trkpt>
      <trkpt lat="62.53127" lon="6.61787">
        <ele>91.681283</ele>
        <time>2020-08-01T08:35:41.588Z</time>
      </trkpt>
      <trkpt lat="62.53134" lon="6.61763">
        <ele>92.227051</ele>
        <time>2020-08-01T08:35:44.596Z</time>
      </trkpt>
      <trkpt lat="62.53141" lon="6.6174">
        <ele>92.761814</ele>
        <time>2020-08-01T08:35:47.606Z</time>
      </trkpt>
      <trkpt lat="62.53147" lon="6.61719">
        <ele>93.25382</ele>
        <time>2020-08-01T08:35:50.584Z</time>
      </trkpt>
      <trkpt lat="62.53155" lon="6.617">
        <ele>93.74751</ele>
        <time>2020-08-01T08:35:53.605Z</time>
      </trkpt>
      <trkpt lat="62.53162" lon="6.61681">
        <ele>94.214214</ele>
        <time>2020-08-01T08:35:56.597Z</time>
      </trkpt>
      <trkpt lat="62.5317" lon="6.61663">
        <ele>94.923889</ele>
        <time>2020-08-01T08:35:59.603Z</time>
      </trkpt>
      <trkpt lat="62.53177" lon="6.61645">
        <ele>95.630718</ele>
        <time>2020-08-01T08:36:02.584Z</time>
      </trkpt>
      <trkpt lat="62.53183" lon="6.61629">
        <ele>96.258926</ele>
        <time>2020-08-01T08:36:05.597Z</time>
      </trkpt>
      <trkpt lat="62.53189" lon="6.61614">
        <ele>96.838035</ele>
        <time>2020-08-01T08:36:08.591Z</time>
      </trkpt>
      <trkpt lat="62.53197" lon="6.61595">
        <ele>97.572839</ele>
        <time>2020-08-01T08:36:12.613Z</time>
      </trkpt>
      <trkpt lat="62.53204" lon="6.61578">
        <ele>98.264387</ele>
        <time>2020-08-01T08:36:16.582Z</time>
      </trkpt>
      <trkpt lat="62.53212" lon="6.61561">
        <ele>98.986806</ele>
        <time>2020-08-01T08:36:20.598Z</time>
      </trkpt>
      <trkpt lat="62.5322" lon="6.61544">
        <ele>99.688143</ele>
        <time>2020-08-01T08:36:24.605Z</time>
      </trkpt>
      <trkpt lat="62.53228" lon="6.61528">
        <ele>100.38602</ele>
        <time>2020-08-01T08:36:28.629Z</time>
      </trkpt>
      <trkpt lat="62.53235" lon="6.61512">
        <ele>101.039291</ele>
        <time>2020-08-01T08:36:32.592Z</time>
      </trkpt>
      <trkpt lat="62.53242" lon="6.61496">
        <ele>101.706976</ele>
        <time>2020-08-01T08:36:36.590Z</time>
      </trkpt>
      <trkpt lat="62.53249" lon="6.61479">
        <ele>102.389861</ele>
        <time>2020-08-01T08:36:40.588Z</time>
      </trkpt>
      <trkpt lat="62.53257" lon="6.61463">
        <ele>103.073801</ele>
        <time>2020-08-01T08:36:44.611Z</time>
      </trkpt>
      <trkpt lat="62.53264" lon="6.61448">
        <ele>103.689834</ele>
        <time>2020-08-01T08:36:48.610Z</time>
      </trkpt>
      <trkpt lat="62.53271" lon="6.61433">
        <ele>104.305594</ele>
        <time>2020-08-01T08:36:52.594Z</time>
      </trkpt>
      <trkpt lat="62.53278" lon="6.61416">
        <ele>104.995703</ele>
        <time>2020-08-01T08:36:56.582Z</time>
      </trkpt>
      <trkpt lat="62.53286" lon="6.61399">
        <ele>105.689322</ele>
        <time>2020-08-01T08:37:00.639Z</time>
      </trkpt>
      <trkpt lat="62.53294" lon="6.61382">
        <ele>106.087759</ele>
        <time>2020-08-01T08:37:04.647Z</time>
      </trkpt>
      <trkpt lat="62.53301" lon="6.61366">
        <ele>106.446538</ele>
        <time>2020-08-01T08:37:08.594Z</time>
      </trkpt>
      <trkpt lat="62.53308" lon="6.61349">
        <ele>106.811012</ele>
        <time>2020-08-01T08:37:12.583Z</time>
      </trkpt>
      <trkpt lat="62.53316" lon="6.61329">
        <ele>107.221414</ele>
        <time>2020-08-01T08:37:16.589Z</time>
      </trkpt>
      <trkpt lat="62.53323" lon="6.61314">
        <ele>107.540139</ele>
        <time>2020-08-01T08:37:19.600Z</time>
      </trkpt>
      <trkpt lat="62.53329" lon="6.61298">
        <ele>107.857724</ele>
        <time>2020-08-01T08:37:22.600Z</time>
      </trkpt>
      <trkpt lat="62.53335" lon="6.61284">
        <ele>108.160559</ele>
        <time>2020-08-01T08:37:25.614Z</time>
      </trkpt>
      <trkpt lat="62.53342" lon="6.6127">
        <ele>108.473852</ele>
        <time>2020-08-01T08:37:28.590Z</time>
      </trkpt>
      <trkpt lat="62.53348" lon="6.61254">
        <ele>108.808556</ele>
        <time>2020-08-01T08:37:31.640Z</time>
      </trkpt>
      <trkpt lat="62.53355" lon="6.61238">
        <ele>109.134312</ele>
        <time>2020-08-01T08:37:34.626Z</time>
      </trkpt>
      <trkpt lat="62.53361" lon="6.61223">
        <ele>109.446158</ele>
        <time>2020-08-01T08:37:37.616Z</time>
      </trkpt>
      <trkpt lat="62.53369" lon="6.61205">
        <ele>109.835688</ele>
        <time>2020-08-01T08:37:41.618Z</time>
      </trkpt>
      <trkpt lat="62.53375" lon="6.6119">
        <ele>110.140682</ele>
        <time>2020-08-01T08:37:44.601Z</time>
      </trkpt>
      <trkpt lat="62.53381" lon="6.61174">
        <ele>110.469814</ele>
        <time>2020-08-01T08:37:47.606Z</time>
      </trkpt>
      <trkpt lat="62.53389" lon="6.61158">
        <ele>110.818234</ele>
        <time>2020-08-01T08:37:50.598Z</time>
      </trkpt>
      <trkpt lat="62.53395" lon="6.61143">
        <ele>111.128944</ele>
        <time>2020-08-01T08:37:53.616Z</time>
      </trkpt>
      <trkpt lat="62.53401" lon="6.61128">
        <ele>111.455653</ele>
        <time>2020-08-01T08:37:56.607Z</time>
      </trkpt>
      <trkpt lat="62.53408" lon="6.61112">
        <ele>111.794039</ele>
        <time>2020-08-01T08:37:59.603Z</time>
      </trkpt>
      <trkpt lat="62.53415" lon="6.61097">
        <ele>111.745721</ele>
        <time>2020-08-01T08:38:02.618Z</time>
      </trkpt>
      <trkpt lat="62.53422" lon="6.61082">
        <ele>111.692002</ele>
        <time>2020-08-01T08:38:05.607Z</time>
      </trkpt>
      <trkpt lat="62.5343" lon="6.61065">
        <ele>111.624625</ele>
        <time>2020-08-01T08:38:09.600Z</time>
      </trkpt>
      <trkpt lat="62.53437" lon="6.61047">
        <ele>111.561946</ele>
        <time>2020-08-01T08:38:13.610Z</time>
      </trkpt>
      <trkpt lat="62.53443" lon="6.61031">
        <ele>111.506004</ele>
        <time>2020-08-01T08:38:17.598Z</time>
      </trkpt>
      <trkpt lat="62.53448" lon="6.61014">
        <ele>111.452082</ele>
        <time>2020-08-01T08:38:21.603Z</time>
      </trkpt>
      <trkpt lat="62.53454" lon="6.60998">
        <ele>111.396468</ele>
        <time>2020-08-01T08:38:25.621Z</time>
      </trkpt>
      <trkpt lat="62.5346" lon="6.60983">
        <ele>111.344062</ele>
        <time>2020-08-01T08:38:29.600Z</time>
      </trkpt>
      <trkpt lat="62.53465" lon="6.60967">
        <ele>111.290576</ele>
        <time>2020-08-01T08:38:33.638Z</time>
      </trkpt>
      <trkpt lat="62.5347" lon="6.6095">
        <ele>111.236661</ele>
        <time>2020-08-01T08:38:37.590Z</time>
      </trkpt>
      <trkpt lat="62.53475" lon="6.60933">
        <ele>111.184051</ele>
        <time>2020-08-01T08:38:41.603Z</time>
      </trkpt>
      <trkpt lat="62.53478" lon="6.60914">
        <ele>111.130326</ele>
        <time>2020-08-01T08:38:46.611Z</time>
      </trkpt>
      <trkpt lat="62.53479" lon="6.60895">
        <ele>111.077282</ele>
        <time>2020-08-01T08:38:51.618Z</time>
      </trkpt>
      <trkpt lat="62.53473" lon="6.6088">
        <ele>111.024484</ele>
        <time>2020-08-01T08:38:55.605Z</time>
      </trkpt>
      <trkpt lat="62.53468" lon="6.60858">
        <ele>110.960562</ele>
        <time>2020-08-01T08:38:58.652Z</time>
      </trkpt>
      <trkpt lat="62.5347" lon="6.60836">
        <ele>110.901252</ele>
        <time>2020-08-01T08:39:00.598Z</time>
      </trkpt>
      <trkpt lat="62.53474" lon="6.60812">
        <ele>110.833367</ele>
        <time>2020-08-01T08:39:02.594Z</time>
      </trkpt>
      <trkpt lat="62.53477" lon="6.60789">
        <ele>110.766326</ele>
        <time>2020-08-01T08:39:04.601Z</time>
      </trkpt>
      <trkpt lat="62.53482" lon="6.60765">
        <ele>110.285514</ele>
        <time>2020-08-01T08:39:06.601Z</time>
      </trkpt>
      <trkpt lat="62.53485" lon="6.60742">
        <ele>109.73082</ele>
        <time>2020-08-01T08:39:08.608Z</time>
      </trkpt>
      <trkpt lat="62.53487" lon="6.60716">
        <ele>109.13624</ele>
        <time>2020-08-01T08:39:10.608Z</time>
      </trkpt>
      <trkpt lat="62.53487" lon="6.60688">
        <ele>108.495863</ele>
        <time>2020-08-01T08:39:12.609Z</time>
      </trkpt>
      <trkpt lat="62.53486" lon="6.60656">
        <ele>107.7644</ele>
        <time>2020-08-01T08:39:14.636Z</time>
      </trkpt>
      <trkpt lat="62.53486" lon="6.60622">
        <ele>107.000477</ele>
        <time>2020-08-01T08:39:16.625Z</time>
      </trkpt>
      <trkpt lat="62.53485" lon="6.60588">
        <ele>106.218338</ele>
        <time>2020-08-01T08:39:18.605Z</time>
      </trkpt>
      <trkpt lat="62.53484" lon="6.60553">
        <ele>105.405635</ele>
        <time>2020-08-01T08:39:20.592Z</time>
      </trkpt>
      <trkpt lat="62.53483" lon="6.60515">
        <ele>104.549761</ele>
        <time>2020-08-01T08:39:22.597Z</time>
      </trkpt>
      <trkpt lat="62.53482" lon="6.60495">
        <ele>104.09913</ele>
        <time>2020-08-01T08:39:23.609Z</time>
      </trkpt>
      <trkpt lat="62.53481" lon="6.60475">
        <ele>103.633629</ele>
        <time>2020-08-01T08:39:24.600Z</time>
      </trkpt>
      <trkpt lat="62.53481" lon="6.60454">
        <ele>103.143096</ele>
        <time>2020-08-01T08:39:25.605Z</time>
      </trkpt>
      <trkpt lat="62.5348" lon="6.60432">
        <ele>102.641184</ele>
        <time>2020-08-01T08:39:26.597Z</time>
      </trkpt>
      <trkpt lat="62.53479" lon="6.60409">
        <ele>102.135642</ele>
        <time>2020-08-01T08:39:27.612Z</time>
      </trkpt>
      <trkpt lat="62.53479" lon="6.60387">
        <ele>101.610631</ele>
        <time>2020-08-01T08:39:28.618Z</time>
      </trkpt>
      <trkpt lat="62.53478" lon="6.60365">
        <ele>101.053259</ele>
        <time>2020-08-01T08:39:29.619Z</time>
      </trkpt>
      <trkpt lat="62.53477" lon="6.60342">
        <ele>100.495508</ele>
        <time>2020-08-01T08:39:30.627Z</time>
      </trkpt>
      <trkpt lat="62.53476" lon="6.60319">
        <ele>99.930429</ele>
        <time>2020-08-01T08:39:31.593Z</time>
      </trkpt>
      <trkpt lat="62.53475" lon="6.60295">
        <ele>99.352254</ele>
        <time>2020-08-01T08:39:32.633Z</time>
      </trkpt>
      <trkpt lat="62.53475" lon="6.60272">
        <ele>98.772101</ele>
        <time>2020-08-01T08:39:33.602Z</time>
      </trkpt>
      <trkpt lat="62.53474" lon="6.60248">
        <ele>98.199692</ele>
        <time>2020-08-01T08:39:34.589Z</time>
      </trkpt>
      <trkpt lat="62.53473" lon="6.60224">
        <ele>97.608816</ele>
        <time>2020-08-01T08:39:35.605Z</time>
      </trkpt>
      <trkpt lat="62.53472" lon="6.602">
        <ele>96.999359</ele>
        <time>2020-08-01T08:39:36.640Z</time>
      </trkpt>
      <trkpt lat="62.53471" lon="6.60175">
        <ele>96.390296</ele>
        <time>2020-08-01T08:39:37.608Z</time>
      </trkpt>
      <trkpt lat="62.5347" lon="6.60151">
        <ele>95.793806</ele>
        <time>2020-08-01T08:39:38.584Z</time>
      </trkpt>
      <trkpt lat="62.53469" lon="6.60126">
        <ele>95.200492</ele>
        <time>2020-08-01T08:39:39.602Z</time>
      </trkpt>
      <trkpt lat="62.53468" lon="6.60102">
        <ele>94.608129</ele>
        <time>2020-08-01T08:39:40.612Z</time>
      </trkpt>
      <trkpt lat="62.53468" lon="6.60078">
        <ele>94.019285</ele>
        <time>2020-08-01T08:39:41.594Z</time>
      </trkpt>
      <trkpt lat="62.53467" lon="6.60055">
        <ele>93.457852</ele>
        <time>2020-08-01T08:39:42.596Z</time>
      </trkpt>
      <trkpt lat="62.53467" lon="6.60032">
        <ele>92.89397</ele>
        <time>2020-08-01T08:39:43.617Z</time>
      </trkpt>
      <trkpt lat="62.53466" lon="6.60009">
        <ele>92.324002</ele>
        <time>2020-08-01T08:39:44.587Z</time>
      </trkpt>
      <trkpt lat="62.53465" lon="6.59986">
        <ele>91.976778</ele>
        <time>2020-08-01T08:39:45.604Z</time>
      </trkpt>
      <trkpt lat="62.53464" lon="6.59963">
        <ele>91.636943</ele>
        <time>2020-08-01T08:39:46.600Z</time>
      </trkpt>
      <trkpt lat="62.53464" lon="6.5994">
        <ele>91.294157</ele>
        <time>2020-08-01T08:39:47.608Z</time>
      </trkpt>
      <trkpt lat="62.53463" lon="6.59918">
        <ele>90.959962</ele>
        <time>2020-08-01T08:39:48.605Z</time>
      </trkpt>
      <trkpt lat="62.53462" lon="6.59896">
        <ele>90.633138</ele>
        <time>2020-08-01T08:39:49.618Z</time>
      </trkpt>
      <trkpt lat="62.53461" lon="6.59874">
        <ele>90.318381</ele>
        <time>2020-08-01T08:39:50.633Z</time>
      </trkpt>
      <trkpt lat="62.5346" lon="6.59854">
        <ele>90.012472</ele>
        <time>2020-08-01T08:39:51.586Z</time>
      </trkpt>
      <trkpt lat="62.53459" lon="6.59834">
        <ele>89.716884</ele>
        <time>2020-08-01T08:39:52.625Z</time>
      </trkpt>
      <trkpt lat="62.53458" lon="6.59796">
        <ele>89.150306</ele>
        <time>2020-08-01T08:39:54.615Z</time>
      </trkpt>
      <trkpt lat="62.53457" lon="6.5976">
        <ele>88.621318</ele>
        <time>2020-08-01T08:39:56.592Z</time>
      </trkpt>
      <trkpt lat="62.53456" lon="6.59727">
        <ele>88.130667</ele>
        <time>2020-08-01T08:39:58.674Z</time>
      </trkpt>
      <trkpt lat="62.53455" lon="6.59696">
        <ele>87.67287</ele>
        <time>2020-08-01T08:40:00.592Z</time>
      </trkpt>
      <trkpt lat="62.53454" lon="6.59666">
        <ele>87.222852</ele>
        <time>2020-08-01T08:40:02.614Z</time>
      </trkpt>
      <trkpt lat="62.53452" lon="6.59637">
        <ele>86.790662</ele>
        <time>2020-08-01T08:40:04.599Z</time>
      </trkpt>
      <trkpt lat="62.53451" lon="6.59608">
        <ele>86.343598</ele>
        <time>2020-08-01T08:40:06.612Z</time>
      </trkpt>
      <trkpt lat="62.5345" lon="6.5958">
        <ele>85.871564</ele>
        <time>2020-08-01T08:40:08.599Z</time>
      </trkpt>
      <trkpt lat="62.53448" lon="6.59553">
        <ele>85.406993</ele>
        <time>2020-08-01T08:40:10.611Z</time>
      </trkpt>
      <trkpt lat="62.53447" lon="6.59526">
        <ele>84.952765</ele>
        <time>2020-08-01T08:40:12.645Z</time>
      </trkpt>
      <trkpt lat="62.53446" lon="6.595">
        <ele>84.517214</ele>
        <time>2020-08-01T08:40:14.636Z</time>
      </trkpt>
      <trkpt lat="62.53446" lon="6.59475">
        <ele>84.097256</ele>
        <time>2020-08-01T08:40:16.607Z</time>
      </trkpt>
      <trkpt lat="62.53445" lon="6.59451">
        <ele>83.689777</ele>
        <time>2020-08-01T08:40:18.599Z</time>
      </trkpt>
      <trkpt lat="62.53444" lon="6.59427">
        <ele>83.298132</ele>
        <time>2020-08-01T08:40:20.601Z</time>
      </trkpt>
      <trkpt lat="62.53442" lon="6.59405">
        <ele>82.917097</ele>
        <time>2020-08-01T08:40:22.622Z</time>
      </trkpt>
      <trkpt lat="62.53441" lon="6.59382">
        <ele>82.534463</ele>
        <time>2020-08-01T08:40:24.594Z</time>
      </trkpt>
      <trkpt lat="62.53439" lon="6.5936">
        <ele>82.16178</ele>
        <time>2020-08-01T08:40:26.599Z</time>
      </trkpt>
      <trkpt lat="62.53438" lon="6.59339">
        <ele>81.805665</ele>
        <time>2020-08-01T08:40:28.621Z</time>
      </trkpt>
      <trkpt lat="62.53435" lon="6.5932">
        <ele>81.475149</ele>
        <time>2020-08-01T08:40:30.617Z</time>
      </trkpt>
      <trkpt lat="62.5343" lon="6.59296">
        <ele>81.028541</ele>
        <time>2020-08-01T08:40:33.599Z</time>
      </trkpt>
      <trkpt lat="62.53424" lon="6.59272">
        <ele>80.575516</ele>
        <time>2020-08-01T08:40:36.613Z</time>
      </trkpt>
      <trkpt lat="62.53418" lon="6.59248">
        <ele>80.103312</ele>
        <time>2020-08-01T08:40:39.650Z</time>
      </trkpt>
      <trkpt lat="62.53413" lon="6.59229">
        <ele>79.980999</ele>
        <time>2020-08-01T08:40:41.601Z</time>
      </trkpt>
      <trkpt lat="62.53409" lon="6.59206">
        <ele>79.940077</ele>
        <time>2020-08-01T08:40:43.619Z</time>
      </trkpt>
      <trkpt lat="62.53405" lon="6.59181">
        <ele>79.895369</ele>
        <time>2020-08-01T08:40:45.604Z</time>
      </trkpt>
      <trkpt lat="62.53399" lon="6.59155">
        <ele>79.846122</ele>
        <time>2020-08-01T08:40:47.637Z</time>
      </trkpt>
      <trkpt lat="62.53394" lon="6.59127">
        <ele>79.795639</ele>
        <time>2020-08-01T08:40:49.585Z</time>
      </trkpt>
      <trkpt lat="62.53389" lon="6.591">
        <ele>79.745911</ele>
        <time>2020-08-01T08:40:51.626Z</time>
      </trkpt>
      <trkpt lat="62.53382" lon="6.59074">
        <ele>79.695181</ele>
        <time>2020-08-01T08:40:53.619Z</time>
      </trkpt>
      <trkpt lat="62.53376" lon="6.59047">
        <ele>79.645317</ele>
        <time>2020-08-01T08:40:55.608Z</time>
      </trkpt>
      <trkpt lat="62.53371" lon="6.59021">
        <ele>79.596073</ele>
        <time>2020-08-01T08:40:57.590Z</time>
      </trkpt>
      <trkpt lat="62.53366" lon="6.58997">
        <ele>79.552305</ele>
        <time>2020-08-01T08:40:59.596Z</time>
      </trkpt>
      <trkpt lat="62.53364" lon="6.58971">
        <ele>79.508263</ele>
        <time>2020-08-01T08:41:01.609Z</time>
      </trkpt>
      <trkpt lat="62.53367" lon="6.58942">
        <ele>79.457724</ele>
        <time>2020-08-01T08:41:03.589Z</time>
      </trkpt>
      <trkpt lat="62.53376" lon="6.58917">
        <ele>79.403785</ele>
        <time>2020-08-01T08:41:05.606Z</time>
      </trkpt>
      <trkpt lat="62.53386" lon="6.58901">
        <ele>79.356271</ele>
        <time>2020-08-01T08:41:07.618Z</time>
      </trkpt>
      <trkpt lat="62.53397" lon="6.58886">
        <ele>79.374794</ele>
        <time>2020-08-01T08:41:09.641Z</time>
      </trkpt>
      <trkpt lat="62.53405" lon="6.58872">
        <ele>79.402687</ele>
        <time>2020-08-01T08:41:11.587Z</time>
      </trkpt>
      <trkpt lat="62.53413" lon="6.58859">
        <ele>79.428156</ele>
        <time>2020-08-01T08:41:13.624Z</time>
      </trkpt>
      <trkpt lat="62.53421" lon="6.58849">
        <ele>79.452233</ele>
        <time>2020-08-01T08:41:15.632Z</time>
      </trkpt>
      <trkpt lat="62.5343" lon="6.58835">
        <ele>79.480682</ele>
        <time>2020-08-01T08:41:18.580Z</time>
      </trkpt>
      <trkpt lat="62.53438" lon="6.5882">
        <ele>79.507808</ele>
        <time>2020-08-01T08:41:22.618Z</time>
      </trkpt>
      <trkpt lat="62.53446" lon="6.58806">
        <ele>79.533692</ele>
        <time>2020-08-01T08:41:26.583Z</time>
      </trkpt>
      <trkpt lat="62.53453" lon="6.58794">
        <ele>79.556795</ele>
        <time>2020-08-01T08:41:30.591Z</time>
      </trkpt>
      <trkpt lat="62.53462" lon="6.5878">
        <ele>79.585323</ele>
        <time>2020-08-01T08:41:35.611Z</time>
      </trkpt>
      <trkpt lat="62.5347" lon="6.58768">
        <ele>79.609952</ele>
        <time>2020-08-01T08:41:40.614Z</time>
      </trkpt>
      <trkpt lat="62.53478" lon="6.58757">
        <ele>79.63417</ele>
        <time>2020-08-01T08:41:45.611Z</time>
      </trkpt>
      <trkpt lat="62.53487" lon="6.58745">
        <ele>79.66255</ele>
        <time>2020-08-01T08:41:50.599Z</time>
      </trkpt>
      <trkpt lat="62.53495" lon="6.58732">
        <ele>79.687233</ele>
        <time>2020-08-01T08:41:54.604Z</time>
      </trkpt>
      <trkpt lat="62.53502" lon="6.58719">
        <ele>79.710243</ele>
        <time>2020-08-01T08:41:58.619Z</time>
      </trkpt>
      <trkpt lat="62.5351" lon="6.58703">
        <ele>79.737794</ele>
        <time>2020-08-01T08:42:03.592Z</time>
      </trkpt>
      <trkpt lat="62.53519" lon="6.58693">
        <ele>79.764612</ele>
        <time>2020-08-01T08:42:08.592Z</time>
      </trkpt>
      <trkpt lat="62.53528" lon="6.58682">
        <ele>79.791989</ele>
        <time>2020-08-01T08:42:13.593Z</time>
      </trkpt>
      <trkpt lat="62.53536" lon="6.5867">
        <ele>80.037232</ele>
        <time>2020-08-01T08:42:18.591Z</time>
      </trkpt>
      <trkpt lat="62.53545" lon="6.58655">
        <ele>80.957946</ele>
        <time>2020-08-01T08:42:23.595Z</time>
      </trkpt>
      <trkpt lat="62.53553" lon="6.58641">
        <ele>81.838493</ele>
        <time>2020-08-01T08:42:28.625Z</time>
      </trkpt>
      <trkpt lat="62.53561" lon="6.58629">
        <ele>82.657986</ele>
        <time>2020-08-01T08:42:33.614Z</time>
      </trkpt>
      <trkpt lat="62.5357" lon="6.58614">
        <ele>83.55839</ele>
        <time>2020-08-01T08:42:39.605Z</time>
      </trkpt>
      <trkpt lat="62.53578" lon="6.58604">
        <ele>84.343228</ele>
        <time>2020-08-01T08:42:44.589Z</time>
      </trkpt>
      <trkpt lat="62.53586" lon="6.58592">
        <ele>85.164944</ele>
        <time>2020-08-01T08:42:49.602Z</time>
      </trkpt>
      <trkpt lat="62.53594" lon="6.58582">
        <ele>85.929192</ele>
        <time>2020-08-01T08:42:54.609Z</time>
      </trkpt>
      <trkpt lat="62.53601" lon="6.58569">
        <ele>86.721707</ele>
        <time>2020-08-01T08:42:59.594Z</time>
      </trkpt>
      <trkpt lat="62.53609" lon="6.58555">
        <ele>87.593809</ele>
        <time>2020-08-01T08:43:05.601Z</time>
      </trkpt>
      <trkpt lat="62.53617" lon="6.58541">
        <ele>88.452179</ele>
        <time>2020-08-01T08:43:12.588Z</time>
      </trkpt>
      <trkpt lat="62.53624" lon="6.58527">
        <ele>89.21711</ele>
        <time>2020-08-01T08:43:19.596Z</time>
      </trkpt>
      <trkpt lat="62.53632" lon="6.58517">
        <ele>90.005384</ele>
        <time>2020-08-01T08:43:25.634Z</time>
      </trkpt>
      <trkpt lat="62.5364" lon="6.58507">
        <ele>90.779756</ele>
        <time>2020-08-01T08:43:30.632Z</time>
      </trkpt>
      <trkpt lat="62.53649" lon="6.58496">
        <ele>91.672916</ele>
        <time>2020-08-01T08:43:35.601Z</time>
      </trkpt>
      <trkpt lat="62.53658" lon="6.58483">
        <ele>92.560783</ele>
        <time>2020-08-01T08:43:40.598Z</time>
      </trkpt>
      <trkpt lat="62.53664" lon="6.58469">
        <ele>93.32218</ele>
        <time>2020-08-01T08:43:44.653Z</time>
      </trkpt>
      <trkpt lat="62.53673" lon="6.58455">
        <ele>94.230239</ele>
        <time>2020-08-01T08:43:48.610Z</time>
      </trkpt>
      <trkpt lat="62.53683" lon="6.58442">
        <ele>94.808397</ele>
        <time>2020-08-01T08:43:52.661Z</time>
      </trkpt>
      <trkpt lat="62.53692" lon="6.58429">
        <ele>94.594114</ele>
        <time>2020-08-01T08:43:56.631Z</time>
      </trkpt>
      <trkpt lat="62.53701" lon="6.58416">
        <ele>94.39667</ele>
        <time>2020-08-01T08:44:00.612Z</time>
      </trkpt>
      <trkpt lat="62.53709" lon="6.58406">
        <ele>94.225929</ele>
        <time>2020-08-01T08:44:04.604Z</time>
      </trkpt>
      <trkpt lat="62.53716" lon="6.58396">
        <ele>94.0531</ele>
        <time>2020-08-01T08:44:08.605Z</time>
      </trkpt>
      <trkpt lat="62.53724" lon="6.58384">
        <ele>93.870404</ele>
        <time>2020-08-01T08:44:12.599Z</time>
      </trkpt>
      <trkpt lat="62.53734" lon="6.58372">
        <ele>93.660893</ele>
        <time>2020-08-01T08:44:17.588Z</time>
      </trkpt>
      <trkpt lat="62.53743" lon="6.58364">
        <ele>93.469511</ele>
        <time>2020-08-01T08:44:22.611Z</time>
      </trkpt>
      <trkpt lat="62.53752" lon="6.58357">
        <ele>93.282368</ele>
        <time>2020-08-01T08:44:27.603Z</time>
      </trkpt>
      <trkpt lat="62.5376" lon="6.58347">
        <ele>93.1043</ele>
        <time>2020-08-01T08:44:31.599Z</time>
      </trkpt>
      <trkpt lat="62.5377" lon="6.58336">
        <ele>92.902353</ele>
        <time>2020-08-01T08:44:35.665Z</time>
      </trkpt>
      <trkpt lat="62.5378" lon="6.58327">
        <ele>92.693441</ele>
        <time>2020-08-01T08:44:39.597Z</time>
      </trkpt>
      <trkpt lat="62.53788" lon="6.58318">
        <ele>92.50795</ele>
        <time>2020-08-01T08:44:42.600Z</time>
      </trkpt>
      <trkpt lat="62.53799" lon="6.58306">
        <ele>92.283751</ele>
        <time>2020-08-01T08:44:45.624Z</time>
      </trkpt>
      <trkpt lat="62.53809" lon="6.58295">
        <ele>92.063601</ele>
        <time>2020-08-01T08:44:48.600Z</time>
      </trkpt>
      <trkpt lat="62.53818" lon="6.58288">
        <ele>91.887286</ele>
        <time>2020-08-01T08:44:50.601Z</time>
      </trkpt>
      <trkpt lat="62.53826" lon="6.58279">
        <ele>91.70427</ele>
        <time>2020-08-01T08:44:52.610Z</time>
      </trkpt>
      <trkpt lat="62.53836" lon="6.5827">
        <ele>91.514993</ele>
        <time>2020-08-01T08:44:54.600Z</time>
      </trkpt>
      <trkpt lat="62.53844" lon="6.58263">
        <ele>91.046193</ele>
        <time>2020-08-01T08:44:56.616Z</time>
      </trkpt>
      <trkpt lat="62.53853" lon="6.58254">
        <ele>90.401861</ele>
        <time>2020-08-01T08:44:58.587Z</time>
      </trkpt>
      <trkpt lat="62.53863" lon="6.58242">
        <ele>89.560273</ele>
        <time>2020-08-01T08:45:01.592Z</time>
      </trkpt>
      <trkpt lat="62.53871" lon="6.58228">
        <ele>88.908592</ele>
        <time>2020-08-01T08:45:04.615Z</time>
      </trkpt>
      <trkpt lat="62.53882" lon="6.58219">
        <ele>88.0819</ele>
        <time>2020-08-01T08:45:07.585Z</time>
      </trkpt>
      <trkpt lat="62.53893" lon="6.58211">
        <ele>87.23899</ele>
        <time>2020-08-01T08:45:09.630Z</time>
      </trkpt>
      <trkpt lat="62.53908" lon="6.58199">
        <ele>86.18266</ele>
        <time>2020-08-01T08:45:11.591Z</time>
      </trkpt>
      <trkpt lat="62.53924" lon="6.58188">
        <ele>84.989515</ele>
        <time>2020-08-01T08:45:13.649Z</time>
      </trkpt>
      <trkpt lat="62.53941" lon="6.58177">
        <ele>83.747302</ele>
        <time>2020-08-01T08:45:15.602Z</time>
      </trkpt>
      <trkpt lat="62.53951" lon="6.5817">
        <ele>83.068936</ele>
        <time>2020-08-01T08:45:16.593Z</time>
      </trkpt>
      <trkpt lat="62.53961" lon="6.58163">
        <ele>82.332063</ele>
        <time>2020-08-01T08:45:17.615Z</time>
      </trkpt>
      <trkpt lat="62.53972" lon="6.58155">
        <ele>81.539014</ele>
        <time>2020-08-01T08:45:18.587Z</time>
      </trkpt>
      <trkpt lat="62.53983" lon="6.58146">
        <ele>80.703266</ele>
        <time>2020-08-01T08:45:19.628Z</time>
      </trkpt>
      <trkpt lat="62.53995" lon="6.58138">
        <ele>79.837277</ele>
        <time>2020-08-01T08:45:20.628Z</time>
      </trkpt>
      <trkpt lat="62.54007" lon="6.58129">
        <ele>78.954063</ele>
        <time>2020-08-01T08:45:21.600Z</time>
      </trkpt>
      <trkpt lat="62.5402" lon="6.58119">
        <ele>78.190994</ele>
        <time>2020-08-01T08:45:22.590Z</time>
      </trkpt>
      <trkpt lat="62.54033" lon="6.5811">
        <ele>77.393461</ele>
        <time>2020-08-01T08:45:23.624Z</time>
      </trkpt>
      <trkpt lat="62.54046" lon="6.581">
        <ele>76.609402</ele>
        <time>2020-08-01T08:45:24.620Z</time>
      </trkpt>
      <trkpt lat="62.54058" lon="6.58091">
        <ele>75.837967</ele>
        <time>2020-08-01T08:45:25.592Z</time>
      </trkpt>
      <trkpt lat="62.54071" lon="6.58082">
        <ele>75.078318</ele>
        <time>2020-08-01T08:45:26.605Z</time>
      </trkpt>
      <trkpt lat="62.54083" lon="6.58073">
        <ele>74.337601</ele>
        <time>2020-08-01T08:45:27.587Z</time>
      </trkpt>
      <trkpt lat="62.54095" lon="6.58065">
        <ele>73.606987</ele>
        <time>2020-08-01T08:45:28.588Z</time>
      </trkpt>
      <trkpt lat="62.54106" lon="6.58057">
        <ele>72.924623</ele>
        <time>2020-08-01T08:45:29.593Z</time>
      </trkpt>
      <trkpt lat="62.54117" lon="6.5805">
        <ele>72.269717</ele>
        <time>2020-08-01T08:45:30.599Z</time>
      </trkpt>
      <trkpt lat="62.54128" lon="6.58044">
        <ele>71.639192</ele>
        <time>2020-08-01T08:45:31.590Z</time>
      </trkpt>
      <trkpt lat="62.54138" lon="6.58037">
        <ele>71.023725</ele>
        <time>2020-08-01T08:45:32.600Z</time>
      </trkpt>
      <trkpt lat="62.54148" lon="6.5803">
        <ele>70.438167</ele>
        <time>2020-08-01T08:45:33.609Z</time>
      </trkpt>
      <trkpt lat="62.54157" lon="6.58024">
        <ele>69.872259</ele>
        <time>2020-08-01T08:45:34.588Z</time>
      </trkpt>
      <trkpt lat="62.54166" lon="6.58019">
        <ele>69.334376</ele>
        <time>2020-08-01T08:45:35.622Z</time>
      </trkpt>
      <trkpt lat="62.54175" lon="6.58014">
        <ele>68.818723</ele>
        <time>2020-08-01T08:45:36.620Z</time>
      </trkpt>
      <trkpt lat="62.54191" lon="6.58003">
        <ele>69.113438</ele>
        <time>2020-08-01T08:45:38.602Z</time>
      </trkpt>
      <trkpt lat="62.54207" lon="6.57993">
        <ele>69.669632</ele>
        <time>2020-08-01T08:45:40.601Z</time>
      </trkpt>
      <trkpt lat="62.54221" lon="6.57983">
        <ele>70.201535</ele>
        <time>2020-08-01T08:45:42.616Z</time>
      </trkpt>
      <trkpt lat="62.54235" lon="6.57971">
        <ele>70.713382</ele>
        <time>2020-08-01T08:45:44.601Z</time>
      </trkpt>
      <trkpt lat="62.54247" lon="6.57954">
        <ele>71.19836</ele>
        <time>2020-08-01T08:45:46.622Z</time>
      </trkpt>
      <trkpt lat="62.54258" lon="6.57936">
        <ele>71.663721</ele>
        <time>2020-08-01T08:45:48.643Z</time>
      </trkpt>
      <trkpt lat="62.54267" lon="6.57916">
        <ele>72.103946</ele>
        <time>2020-08-01T08:45:50.609Z</time>
      </trkpt>
      <trkpt lat="62.54274" lon="6.57898">
        <ele>72.485917</ele>
        <time>2020-08-01T08:45:52.604Z</time>
      </trkpt>
      <trkpt lat="62.54282" lon="6.57877">
        <ele>72.913689</ele>
        <time>2020-08-01T08:45:55.615Z</time>
      </trkpt>
      <trkpt lat="62.54289" lon="6.57862">
        <ele>73.238949</ele>
        <time>2020-08-01T08:45:58.598Z</time>
      </trkpt>
      <trkpt lat="62.54295" lon="6.57845">
        <ele>73.595569</ele>
        <time>2020-08-01T08:46:03.601Z</time>
      </trkpt>
      <trkpt lat="62.54302" lon="6.57828">
        <ele>73.952</ele>
        <time>2020-08-01T08:46:09.595Z</time>
      </trkpt>
      <trkpt lat="62.54309" lon="6.57814">
        <ele>74.270252</ele>
        <time>2020-08-01T08:46:14.609Z</time>
      </trkpt>
      <trkpt lat="62.54315" lon="6.57796">
        <ele>74.623004</ele>
        <time>2020-08-01T08:46:19.584Z</time>
      </trkpt>
      <trkpt lat="62.54321" lon="6.5778">
        <ele>74.97576</ele>
        <time>2020-08-01T08:46:24.635Z</time>
      </trkpt>
      <trkpt lat="62.54328" lon="6.57763">
        <ele>75.384808</ele>
        <time>2020-08-01T08:46:30.583Z</time>
      </trkpt>
      <trkpt lat="62.54334" lon="6.57745">
        <ele>75.78902</ele>
        <time>2020-08-01T08:46:37.598Z</time>
      </trkpt>
      <trkpt lat="62.54341" lon="6.57728">
        <ele>76.216251</ele>
        <time>2020-08-01T08:46:43.585Z</time>
      </trkpt>
      <trkpt lat="62.54347" lon="6.5771">
        <ele>76.633551</ele>
        <time>2020-08-01T08:46:49.621Z</time>
      </trkpt>
      <trkpt lat="62.54353" lon="6.57693">
        <ele>77.042597</ele>
        <time>2020-08-01T08:46:56.602Z</time>
      </trkpt>
      <trkpt lat="62.54358" lon="6.57674">
        <ele>77.444505</ele>
        <time>2020-08-01T08:47:03.605Z</time>
      </trkpt>
      <trkpt lat="62.54363" lon="6.57654">
        <ele>77.848446</ele>
        <time>2020-08-01T08:47:10.620Z</time>
      </trkpt>
      <trkpt lat="62.54366" lon="6.57633">
        <ele>78.265936</ele>
        <time>2020-08-01T08:47:17.588Z</time>
      </trkpt>
      <trkpt lat="62.5437" lon="6.57612">
        <ele>78.681179</ele>
        <time>2020-08-01T08:47:23.594Z</time>
      </trkpt>
      <trkpt lat="62.54375" lon="6.57592">
        <ele>79.098457</ele>
        <time>2020-08-01T08:47:29.603Z</time>
      </trkpt>
      <trkpt lat="62.5438" lon="6.57573">
        <ele>79.518354</ele>
        <time>2020-08-01T08:47:35.620Z</time>
      </trkpt>
      <trkpt lat="62.54385" lon="6.57554">
        <ele>79.906025</ele>
        <time>2020-08-01T08:47:41.616Z</time>
      </trkpt>
      <trkpt lat="62.54388" lon="6.57534">
        <ele>80.308179</ele>
        <time>2020-08-01T08:47:47.581Z</time>
      </trkpt>
      <trkpt lat="62.54391" lon="6.57514">
        <ele>80.69647</ele>
        <time>2020-08-01T08:47:53.602Z</time>
      </trkpt>
      <trkpt lat="62.54395" lon="6.57495">
        <ele>81.078097</ele>
        <time>2020-08-01T08:47:59.588Z</time>
      </trkpt>
      <trkpt lat="62.54398" lon="6.57475">
        <ele>81.476062</ele>
        <time>2020-08-01T08:48:05.604Z</time>
      </trkpt>
      <trkpt lat="62.54404" lon="6.57456">
        <ele>81.890958</ele>
        <time>2020-08-01T08:48:11.581Z</time>
      </trkpt>
      <trkpt lat="62.54409" lon="6.57437">
        <ele>82.265212</ele>
        <time>2020-08-01T08:48:17.599Z</time>
      </trkpt>
      <trkpt lat="62.54414" lon="6.5742">
        <ele>82.606259</ele>
        <time>2020-08-01T08:48:23.603Z</time>
      </trkpt>
      <trkpt lat="62.54418" lon="6.57403">
        <ele>82.928513</ele>
        <time>2020-08-01T08:48:29.601Z</time>
      </trkpt>
      <trkpt lat="62.54423" lon="6.57384">
        <ele>83.288262</ele>
        <time>2020-08-01T08:48:36.589Z</time>
      </trkpt>
      <trkpt lat="62.54427" lon="6.57365">
        <ele>83.63752</ele>
        <time>2020-08-01T08:48:43.614Z</time>
      </trkpt>
      <trkpt lat="62.54431" lon="6.57347">
        <ele>83.962478</ele>
        <time>2020-08-01T08:48:49.608Z</time>
      </trkpt>
      <trkpt lat="62.54432" lon="6.57326">
        <ele>84.313015</ele>
        <time>2020-08-01T08:48:55.597Z</time>
      </trkpt>
      <trkpt lat="62.54433" lon="6.57304">
        <ele>84.675284</ele>
        <time>2020-08-01T08:49:00.619Z</time>
      </trkpt>
      <trkpt lat="62.54434" lon="6.57285">
        <ele>84.999075</ele>
        <time>2020-08-01T08:49:04.598Z</time>
      </trkpt>
      <trkpt lat="62.54436" lon="6.57263">
        <ele>85.359841</ele>
        <time>2020-08-01T08:49:08.609Z</time>
      </trkpt>
      <trkpt lat="62.54437" lon="6.57243">
        <ele>85.706513</ele>
        <time>2020-08-01T08:49:12.616Z</time>
      </trkpt>
      <trkpt lat="62.54439" lon="6.57221">
        <ele>86.07229</ele>
        <time>2020-08-01T08:49:16.621Z</time>
      </trkpt>
      <trkpt lat="62.5444" lon="6.57197">
        <ele>86.470898</ele>
        <time>2020-08-01T08:49:20.599Z</time>
      </trkpt>
      <trkpt lat="62.54441" lon="6.57173">
        <ele>86.869557</ele>
        <time>2020-08-01T08:49:24.619Z</time>
      </trkpt>
      <trkpt lat="62.54442" lon="6.57149">
        <ele>87.259276</ele>
        <time>2020-08-01T08:49:28.619Z</time>
      </trkpt>
      <trkpt lat="62.54443" lon="6.57129">
        <ele>87.592415</ele>
        <time>2020-08-01T08:49:31.617Z</time>
      </trkpt>
      <trkpt lat="62.54444" lon="6.57108">
        <ele>87.950988</ele>
        <time>2020-08-01T08:49:34.597Z</time>
      </trkpt>
      <trkpt lat="62.54446" lon="6.57084">
        <ele>88.34831</ele>
        <time>2020-08-01T08:49:37.631Z</time>
      </trkpt>
      <trkpt lat="62.54447" lon="6.5706">
        <ele>88.465963</ele>
        <time>2020-08-01T08:49:40.604Z</time>
      </trkpt>
      <trkpt lat="62.54448" lon="6.57036">
        <ele>88.441798</ele>
        <time>2020-08-01T08:49:43.598Z</time>
      </trkpt>
      <trkpt lat="62.54448" lon="6.57012">
        <ele>88.41795</ele>
        <time>2020-08-01T08:49:46.608Z</time>
      </trkpt>
      <trkpt lat="62.54448" lon="6.56986">
        <ele>88.393234</ele>
        <time>2020-08-01T08:49:49.622Z</time>
      </trkpt>
      <trkpt lat="62.54448" lon="6.5696">
        <ele>88.367797</ele>
        <time>2020-08-01T08:49:52.598Z</time>
      </trkpt>
      <trkpt lat="62.54447" lon="6.56941">
        <ele>88.348562</ele>
        <time>2020-08-01T08:49:54.628Z</time>
      </trkpt>
      <trkpt lat="62.54447" lon="6.5692">
        <ele>88.328159</ele>
        <time>2020-08-01T08:49:56.591Z</time>
      </trkpt>
      <trkpt lat="62.54447" lon="6.56899">
        <ele>88.307372</ele>
        <time>2020-08-01T08:49:58.587Z</time>
      </trkpt>
      <trkpt lat="62.54447" lon="6.56879">
        <ele>88.287465</ele>
        <time>2020-08-01T08:50:00.602Z</time>
      </trkpt>
      <trkpt lat="62.54446" lon="6.56851">
        <ele>88.259983</ele>
        <time>2020-08-01T08:50:03.620Z</time>
      </trkpt>
      <trkpt lat="62.54446" lon="6.56822">
        <ele>88.231831</ele>
        <time>2020-08-01T08:50:06.605Z</time>
      </trkpt>
      <trkpt lat="62.54446" lon="6.56793">
        <ele>88.203888</ele>
        <time>2020-08-01T08:50:09.617Z</time>
      </trkpt>
      <trkpt lat="62.54446" lon="6.56766">
        <ele>88.176912</ele>
        <time>2020-08-01T08:50:12.599Z</time>
      </trkpt>
      <trkpt lat="62.54445" lon="6.5674">
        <ele>88.151964</ele>
        <time>2020-08-01T08:50:15.607Z</time>
      </trkpt>
      <trkpt lat="62.54445" lon="6.56717">
        <ele>88.129202</ele>
        <time>2020-08-01T08:50:18.598Z</time>
      </trkpt>
      <trkpt lat="62.54445" lon="6.56696">
        <ele>88.1079</ele>
        <time>2020-08-01T08:50:21.593Z</time>
      </trkpt>
      <trkpt lat="62.54445" lon="6.56675">
        <ele>88.106912</ele>
        <time>2020-08-01T08:50:24.600Z</time>
      </trkpt>
      <trkpt lat="62.54444" lon="6.56652">
        <ele>88.121827</ele>
        <time>2020-08-01T08:50:27.589Z</time>
      </trkpt>
      <trkpt lat="62.54445" lon="6.56631">
        <ele>88.135946</ele>
        <time>2020-08-01T08:50:30.601Z</time>
      </trkpt>
      <trkpt lat="62.54444" lon="6.5661">
        <ele>88.149754</ele>
        <time>2020-08-01T08:50:33.626Z</time>
      </trkpt>
      <trkpt lat="62.54443" lon="6.56588">
        <ele>88.164556</ele>
        <time>2020-08-01T08:50:36.627Z</time>
      </trkpt>
      <trkpt lat="62.54442" lon="6.56567">
        <ele>88.178431</ele>
        <time>2020-08-01T08:50:39.588Z</time>
      </trkpt>
      <trkpt lat="62.54441" lon="6.56544">
        <ele>88.194039</ele>
        <time>2020-08-01T08:50:42.596Z</time>
      </trkpt>
      <trkpt lat="62.54442" lon="6.56518">
        <ele>88.211278</ele>
        <time>2020-08-01T08:50:45.629Z</time>
      </trkpt>
      <trkpt lat="62.54442" lon="6.56495">
        <ele>88.226901</ele>
        <time>2020-08-01T08:50:48.613Z</time>
      </trkpt>
      <trkpt lat="62.54442" lon="6.56474">
        <ele>88.240662</ele>
        <time>2020-08-01T08:50:51.613Z</time>
      </trkpt>
      <trkpt lat="62.54441" lon="6.56452">
        <ele>88.25522</ele>
        <time>2020-08-01T08:50:54.612Z</time>
      </trkpt>
      <trkpt lat="62.54441" lon="6.56431">
        <ele>88.268962</ele>
        <time>2020-08-01T08:50:57.619Z</time>
      </trkpt>
      <trkpt lat="62.5444" lon="6.5641">
        <ele>88.282867</ele>
        <time>2020-08-01T08:51:00.599Z</time>
      </trkpt>
      <trkpt lat="62.5444" lon="6.56385">
        <ele>88.29982</ele>
        <time>2020-08-01T08:51:04.617Z</time>
      </trkpt>
      <trkpt lat="62.5444" lon="6.5636">
        <ele>88.316705</ele>
        <time>2020-08-01T08:51:08.595Z</time>
      </trkpt>
      <trkpt lat="62.54441" lon="6.56335">
        <ele>88.332735</ele>
        <time>2020-08-01T08:51:12.594Z</time>
      </trkpt>
      <trkpt lat="62.54441" lon="6.5631">
        <ele>88.349768</ele>
        <time>2020-08-01T08:51:16.605Z</time>
      </trkpt>
      <trkpt lat="62.54442" lon="6.5629">
        <ele>88.339773</ele>
        <time>2020-08-01T08:51:19.601Z</time>
      </trkpt>
      <trkpt lat="62.54441" lon="6.56266">
        <ele>88.273678</ele>
        <time>2020-08-01T08:51:23.598Z</time>
      </trkpt>
      <trkpt lat="62.54441" lon="6.56244">
        <ele>88.211207</ele>
        <time>2020-08-01T08:51:27.621Z</time>
      </trkpt>
      <trkpt lat="62.5444" lon="6.56223">
        <ele>88.153024</ele>
        <time>2020-08-01T08:51:32.598Z</time>
      </trkpt>
      <trkpt lat="62.54441" lon="6.56177">
        <ele>88.025477</ele>
        <time>2020-08-01T09:01:38.603Z</time>
      </trkpt>
      <trkpt lat="62.5444" lon="6.56153">
        <ele>87.960707</ele>
        <time>2020-08-01T09:01:43.609Z</time>
      </trkpt>
      <trkpt lat="62.5444" lon="6.56133">
        <ele>87.902946</ele>
        <time>2020-08-01T09:01:47.613Z</time>
      </trkpt>
      <trkpt lat="62.54441" lon="6.56113">
        <ele>87.84741</ele>
        <time>2020-08-01T09:01:51.602Z</time>
      </trkpt>
      <trkpt lat="62.54441" lon="6.5609">
        <ele>87.783834</ele>
        <time>2020-08-01T09:01:55.605Z</time>
      </trkpt>
      <trkpt lat="62.54441" lon="6.56065">
        <ele>87.7164</ele>
        <time>2020-08-01T09:01:59.593Z</time>
      </trkpt>
      <trkpt lat="62.5444" lon="6.56044">
        <ele>87.657294</ele>
        <time>2020-08-01T09:02:02.607Z</time>
      </trkpt>
      <trkpt lat="62.54439" lon="6.56024">
        <ele>87.601934</ele>
        <time>2020-08-01T09:02:05.604Z</time>
      </trkpt>
      <trkpt lat="62.54437" lon="6.56001">
        <ele>87.53765</ele>
        <time>2020-08-01T09:02:09.629Z</time>
      </trkpt>
      <trkpt lat="62.54435" lon="6.55979">
        <ele>87.473957</ele>
        <time>2020-08-01T09:02:13.599Z</time>
      </trkpt>
      <trkpt lat="62.54433" lon="6.55959">
        <ele>87.418229</ele>
        <time>2020-08-01T09:02:17.610Z</time>
      </trkpt>
      <trkpt lat="62.54432" lon="6.55936">
        <ele>87.356363</ele>
        <time>2020-08-01T09:02:20.607Z</time>
      </trkpt>
      <trkpt lat="62.54431" lon="6.55916">
        <ele>87.299941</ele>
        <time>2020-08-01T09:02:23.631Z</time>
      </trkpt>
      <trkpt lat="62.5443" lon="6.55896">
        <ele>87.315907</ele>
        <time>2020-08-01T09:02:26.604Z</time>
      </trkpt>
      <trkpt lat="62.5443" lon="6.55871">
        <ele>87.382197</ele>
        <time>2020-08-01T09:02:30.591Z</time>
      </trkpt>
      <trkpt lat="62.54428" lon="6.55847">
        <ele>87.448516</ele>
        <time>2020-08-01T09:02:34.615Z</time>
      </trkpt>
      <trkpt lat="62.54427" lon="6.55826">
        <ele>87.505401</ele>
        <time>2020-08-01T09:02:37.597Z</time>
      </trkpt>
      <trkpt lat="62.54426" lon="6.55802">
        <ele>87.571426</ele>
        <time>2020-08-01T09:02:40.606Z</time>
      </trkpt>
      <trkpt lat="62.54423" lon="6.55777">
        <ele>87.640565</ele>
        <time>2020-08-01T09:02:43.606Z</time>
      </trkpt>
      <trkpt lat="62.54423" lon="6.55754">
        <ele>87.701353</ele>
        <time>2020-08-01T09:02:46.615Z</time>
      </trkpt>
      <trkpt lat="62.54422" lon="6.55733">
        <ele>87.759581</ele>
        <time>2020-08-01T09:02:49.599Z</time>
      </trkpt>
      <trkpt lat="62.54421" lon="6.55709">
        <ele>87.824139</ele>
        <time>2020-08-01T09:02:52.603Z</time>
      </trkpt>
      <trkpt lat="62.54418" lon="6.55683">
        <ele>87.894599</ele>
        <time>2020-08-01T09:02:55.618Z</time>
      </trkpt>
      <trkpt lat="62.54416" lon="6.55658">
        <ele>87.963744</ele>
        <time>2020-08-01T09:02:58.608Z</time>
      </trkpt>
      <trkpt lat="62.54415" lon="6.55632">
        <ele>88.03524</ele>
        <time>2020-08-01T09:03:01.597Z</time>
      </trkpt>
      <trkpt lat="62.54413" lon="6.55605">
        <ele>88.108998</ele>
        <time>2020-08-01T09:03:04.594Z</time>
      </trkpt>
      <trkpt lat="62.54411" lon="6.55578">
        <ele>88.181599</ele>
        <time>2020-08-01T09:03:07.648Z</time>
      </trkpt>
      <trkpt lat="62.5441" lon="6.5555">
        <ele>88.257346</ele>
        <time>2020-08-01T09:03:10.588Z</time>
      </trkpt>
      <trkpt lat="62.54409" lon="6.55525">
        <ele>88.326544</ele>
        <time>2020-08-01T09:03:13.591Z</time>
      </trkpt>
      <trkpt lat="62.54408" lon="6.555">
        <ele>87.938672</ele>
        <time>2020-08-01T09:03:16.639Z</time>
      </trkpt>
      <trkpt lat="62.54407" lon="6.55472">
        <ele>87.451175</ele>
        <time>2020-08-01T09:03:19.625Z</time>
      </trkpt>
      <trkpt lat="62.54406" lon="6.55452">
        <ele>87.093966</ele>
        <time>2020-08-01T09:03:21.609Z</time>
      </trkpt>
      <trkpt lat="62.54406" lon="6.5543">
        <ele>86.717665</ele>
        <time>2020-08-01T09:03:23.592Z</time>
      </trkpt>
      <trkpt lat="62.54406" lon="6.55409">
        <ele>86.346609</ele>
        <time>2020-08-01T09:03:25.586Z</time>
      </trkpt>
      <trkpt lat="62.54404" lon="6.55381">
        <ele>85.85649</ele>
        <time>2020-08-01T09:03:28.597Z</time>
      </trkpt>
      <trkpt lat="62.54403" lon="6.55358">
        <ele>85.442858</ele>
        <time>2020-08-01T09:03:31.604Z</time>
      </trkpt>
      <trkpt lat="62.54401" lon="6.55336">
        <ele>85.049819</ele>
        <time>2020-08-01T09:03:34.601Z</time>
      </trkpt>
      <trkpt lat="62.54398" lon="6.55316">
        <ele>84.679029</ele>
        <time>2020-08-01T09:03:37.618Z</time>
      </trkpt>
      <trkpt lat="62.54397" lon="6.55291">
        <ele>84.242081</ele>
        <time>2020-08-01T09:03:41.596Z</time>
      </trkpt>
      <trkpt lat="62.54404" lon="6.55276">
        <ele>83.857763</ele>
        <time>2020-08-01T09:03:45.613Z</time>
      </trkpt>
      <trkpt lat="62.54411" lon="6.55257">
        <ele>83.438362</ele>
        <time>2020-08-01T09:03:50.600Z</time>
      </trkpt>
      <trkpt lat="62.54417" lon="6.55234">
        <ele>82.988197</ele>
        <time>2020-08-01T09:03:54.586Z</time>
      </trkpt>
      <trkpt lat="62.5442" lon="6.55211">
        <ele>82.574426</ele>
        <time>2020-08-01T09:03:57.604Z</time>
      </trkpt>
      <trkpt lat="62.54419" lon="6.55186">
        <ele>82.134729</ele>
        <time>2020-08-01T09:04:00.608Z</time>
      </trkpt>
      <trkpt lat="62.54418" lon="6.5516">
        <ele>81.679481</ele>
        <time>2020-08-01T09:04:03.618Z</time>
      </trkpt>
      <trkpt lat="62.54419" lon="6.55135">
        <ele>81.453622</ele>
        <time>2020-08-01T09:04:06.605Z</time>
      </trkpt>
      <trkpt lat="62.54417" lon="6.55108">
        <ele>81.361213</ele>
        <time>2020-08-01T09:04:09.597Z</time>
      </trkpt>
      <trkpt lat="62.54416" lon="6.55083">
        <ele>81.272276</ele>
        <time>2020-08-01T09:04:12.634Z</time>
      </trkpt>
      <trkpt lat="62.54415" lon="6.55055">
        <ele>81.176123</ele>
        <time>2020-08-01T09:04:15.633Z</time>
      </trkpt>
      <trkpt lat="62.54413" lon="6.5503">
        <ele>81.085608</ele>
        <time>2020-08-01T09:04:18.596Z</time>
      </trkpt>
      <trkpt lat="62.54412" lon="6.55001">
        <ele>80.987086</ele>
        <time>2020-08-01T09:04:21.612Z</time>
      </trkpt>
      <trkpt lat="62.54411" lon="6.54981">
        <ele>80.917294</ele>
        <time>2020-08-01T09:04:23.612Z</time>
      </trkpt>
      <trkpt lat="62.54412" lon="6.54952">
        <ele>80.816741</ele>
        <time>2020-08-01T09:04:26.614Z</time>
      </trkpt>
      <trkpt lat="62.54413" lon="6.54932">
        <ele>80.747177</ele>
        <time>2020-08-01T09:04:28.600Z</time>
      </trkpt>
      <trkpt lat="62.54413" lon="6.54903">
        <ele>80.646455</ele>
        <time>2020-08-01T09:04:31.629Z</time>
      </trkpt>
      <trkpt lat="62.54412" lon="6.54875">
        <ele>80.54724</ele>
        <time>2020-08-01T09:04:34.630Z</time>
      </trkpt>
      <trkpt lat="62.5441" lon="6.54846">
        <ele>80.447083</ele>
        <time>2020-08-01T09:04:37.617Z</time>
      </trkpt>
      <trkpt lat="62.5441" lon="6.54818">
        <ele>80.348691</ele>
        <time>2020-08-01T09:04:40.606Z</time>
      </trkpt>
      <trkpt lat="62.54409" lon="6.54791">
        <ele>80.254898</ele>
        <time>2020-08-01T09:04:43.605Z</time>
      </trkpt>
      <trkpt lat="62.54408" lon="6.54764">
        <ele>80.162266</ele>
        <time>2020-08-01T09:04:46.632Z</time>
      </trkpt>
      <trkpt lat="62.54408" lon="6.54738">
        <ele>80.645113</ele>
        <time>2020-08-01T09:04:49.598Z</time>
      </trkpt>
      <trkpt lat="62.54407" lon="6.54712">
        <ele>81.174727</ele>
        <time>2020-08-01T09:04:52.591Z</time>
      </trkpt>
      <trkpt lat="62.54406" lon="6.54685">
        <ele>81.718805</ele>
        <time>2020-08-01T09:04:55.616Z</time>
      </trkpt>
      <trkpt lat="62.54404" lon="6.54659">
        <ele>82.270683</ele>
        <time>2020-08-01T09:04:58.609Z</time>
      </trkpt>
      <trkpt lat="62.54403" lon="6.54633">
        <ele>82.813304</ele>
        <time>2020-08-01T09:05:01.601Z</time>
      </trkpt>
      <trkpt lat="62.54402" lon="6.54609">
        <ele>83.298637</ele>
        <time>2020-08-01T09:05:04.600Z</time>
      </trkpt>
      <trkpt lat="62.544" lon="6.54584">
        <ele>83.825872</ele>
        <time>2020-08-01T09:05:07.603Z</time>
      </trkpt>
      <trkpt lat="62.54397" lon="6.54557">
        <ele>84.380636</ele>
        <time>2020-08-01T09:05:10.589Z</time>
      </trkpt>
      <trkpt lat="62.54395" lon="6.5453">
        <ele>84.943522</ele>
        <time>2020-08-01T09:05:13.601Z</time>
      </trkpt>
      <trkpt lat="62.54393" lon="6.54511">
        <ele>85.346275</ele>
        <time>2020-08-01T09:05:15.611Z</time>
      </trkpt>
      <trkpt lat="62.54392" lon="6.54484">
        <ele>85.910504</ele>
        <time>2020-08-01T09:05:18.589Z</time>
      </trkpt>
      <trkpt lat="62.5439" lon="6.54456">
        <ele>86.483167</ele>
        <time>2020-08-01T09:05:21.645Z</time>
      </trkpt>
      <trkpt lat="62.54389" lon="6.54429">
        <ele>87.038004</ele>
        <time>2020-08-01T09:05:24.633Z</time>
      </trkpt>
      <trkpt lat="62.54387" lon="6.54402">
        <ele>87.603635</ele>
        <time>2020-08-01T09:05:27.590Z</time>
      </trkpt>
      <trkpt lat="62.54386" lon="6.54383">
        <ele>88.004785</ele>
        <time>2020-08-01T09:05:29.624Z</time>
      </trkpt>
      <trkpt lat="62.54384" lon="6.54355">
        <ele>87.979239</ele>
        <time>2020-08-01T09:05:32.624Z</time>
      </trkpt>
      <trkpt lat="62.54381" lon="6.54327">
        <ele>87.739271</ele>
        <time>2020-08-01T09:05:35.596Z</time>
      </trkpt>
      <trkpt lat="62.5438" lon="6.54307">
        <ele>87.568908</ele>
        <time>2020-08-01T09:05:37.611Z</time>
      </trkpt>
      <trkpt lat="62.5438" lon="6.54288">
        <ele>87.402936</ele>
        <time>2020-08-01T09:05:39.658Z</time>
      </trkpt>
      <trkpt lat="62.54378" lon="6.54259">
        <ele>87.16098</ele>
        <time>2020-08-01T09:05:42.597Z</time>
      </trkpt>
      <trkpt lat="62.54377" lon="6.54239">
        <ele>86.987227</ele>
        <time>2020-08-01T09:05:44.602Z</time>
      </trkpt>
      <trkpt lat="62.54376" lon="6.54218">
        <ele>86.80958</ele>
        <time>2020-08-01T09:05:46.581Z</time>
      </trkpt>
      <trkpt lat="62.54374" lon="6.54199">
        <ele>86.639318</ele>
        <time>2020-08-01T09:05:48.607Z</time>
      </trkpt>
      <trkpt lat="62.54372" lon="6.54179">
        <ele>86.466902</ele>
        <time>2020-08-01T09:05:50.636Z</time>
      </trkpt>
      <trkpt lat="62.54371" lon="6.54159">
        <ele>86.2953</ele>
        <time>2020-08-01T09:05:52.672Z</time>
      </trkpt>
      <trkpt lat="62.54369" lon="6.54139">
        <ele>86.127383</ele>
        <time>2020-08-01T09:05:54.617Z</time>
      </trkpt>
      <trkpt lat="62.54368" lon="6.5412">
        <ele>85.960345</ele>
        <time>2020-08-01T09:05:56.607Z</time>
      </trkpt>
      <trkpt lat="62.54367" lon="6.54099">
        <ele>85.787721</ele>
        <time>2020-08-01T09:05:58.588Z</time>
      </trkpt>
      <trkpt lat="62.54365" lon="6.54078">
        <ele>85.600575</ele>
        <time>2020-08-01T09:06:00.590Z</time>
      </trkpt>
      <trkpt lat="62.54363" lon="6.54056">
        <ele>85.415638</ele>
        <time>2020-08-01T09:06:02.609Z</time>
      </trkpt>
      <trkpt lat="62.54362" lon="6.54035">
        <ele>85.230449</ele>
        <time>2020-08-01T09:06:04.620Z</time>
      </trkpt>
      <trkpt lat="62.54361" lon="6.54014">
        <ele>85.056098</ele>
        <time>2020-08-01T09:06:06.618Z</time>
      </trkpt>
      <trkpt lat="62.54358" lon="6.53985">
        <ele>84.755489</ele>
        <time>2020-08-01T09:06:09.605Z</time>
      </trkpt>
      <trkpt lat="62.54357" lon="6.53965">
        <ele>84.337571</ele>
        <time>2020-08-01T09:06:11.597Z</time>
      </trkpt>
      <trkpt lat="62.54355" lon="6.53944">
        <ele>83.911752</ele>
        <time>2020-08-01T09:06:13.670Z</time>
      </trkpt>
      <trkpt lat="62.54354" lon="6.53922">
        <ele>83.465537</ele>
        <time>2020-08-01T09:06:15.617Z</time>
      </trkpt>
      <trkpt lat="62.54352" lon="6.53901">
        <ele>83.031811</ele>
        <time>2020-08-01T09:06:17.597Z</time>
      </trkpt>
      <trkpt lat="62.5435" lon="6.53879">
        <ele>82.596517</ele>
        <time>2020-08-01T09:06:19.595Z</time>
      </trkpt>
      <trkpt lat="62.54348" lon="6.53857">
        <ele>82.147424</ele>
        <time>2020-08-01T09:06:21.608Z</time>
      </trkpt>
      <trkpt lat="62.54346" lon="6.53834">
        <ele>81.677365</ele>
        <time>2020-08-01T09:06:23.602Z</time>
      </trkpt>
      <trkpt lat="62.54345" lon="6.53811">
        <ele>81.215935</ele>
        <time>2020-08-01T09:06:25.608Z</time>
      </trkpt>
      <trkpt lat="62.54343" lon="6.53789">
        <ele>80.754204</ele>
        <time>2020-08-01T09:06:27.628Z</time>
      </trkpt>
      <trkpt lat="62.54341" lon="6.53768">
        <ele>80.329117</ele>
        <time>2020-08-01T09:06:29.617Z</time>
      </trkpt>
      <trkpt lat="62.5434" lon="6.53747">
        <ele>79.901995</ele>
        <time>2020-08-01T09:06:31.606Z</time>
      </trkpt>
      <trkpt lat="62.54337" lon="6.53725">
        <ele>79.460097</ele>
        <time>2020-08-01T09:06:33.605Z</time>
      </trkpt>
      <trkpt lat="62.54336" lon="6.53705">
        <ele>79.053535</ele>
        <time>2020-08-01T09:06:35.628Z</time>
      </trkpt>
      <trkpt lat="62.54334" lon="6.53684">
        <ele>78.621016</ele>
        <time>2020-08-01T09:06:37.600Z</time>
      </trkpt>
      <trkpt lat="62.54332" lon="6.53664">
        <ele>78.197533</ele>
        <time>2020-08-01T09:06:39.600Z</time>
      </trkpt>
      <trkpt lat="62.54331" lon="6.53643">
        <ele>77.789661</ele>
        <time>2020-08-01T09:06:41.602Z</time>
      </trkpt>
      <trkpt lat="62.54332" lon="6.53624">
        <ele>77.390459</ele>
        <time>2020-08-01T09:06:43.588Z</time>
      </trkpt>
      <trkpt lat="62.54336" lon="6.53599">
        <ele>77.087926</ele>
        <time>2020-08-01T09:06:46.617Z</time>
      </trkpt>
      <trkpt lat="62.54338" lon="6.5358">
        <ele>77.268804</ele>
        <time>2020-08-01T09:06:49.603Z</time>
      </trkpt>
      <trkpt lat="62.54338" lon="6.53556">
        <ele>77.481025</ele>
        <time>2020-08-01T09:06:52.621Z</time>
      </trkpt>
      <trkpt lat="62.54337" lon="6.53529">
        <ele>77.724977</ele>
        <time>2020-08-01T09:06:55.586Z</time>
      </trkpt>
      <trkpt lat="62.54336" lon="6.53509">
        <ele>77.905559</ele>
        <time>2020-08-01T09:06:57.632Z</time>
      </trkpt>
      <trkpt lat="62.54333" lon="6.53482">
        <ele>78.158147</ele>
        <time>2020-08-01T09:07:00.602Z</time>
      </trkpt>
      <trkpt lat="62.54332" lon="6.53453">
        <ele>78.414255</ele>
        <time>2020-08-01T09:07:03.638Z</time>
      </trkpt>
      <trkpt lat="62.5433" lon="6.53428">
        <ele>78.645266</ele>
        <time>2020-08-01T09:07:06.616Z</time>
      </trkpt>
      <trkpt lat="62.54329" lon="6.53407">
        <ele>78.83698</ele>
        <time>2020-08-01T09:07:09.621Z</time>
      </trkpt>
      <trkpt lat="62.54328" lon="6.53386">
        <ele>79.027801</ele>
        <time>2020-08-01T09:07:12.604Z</time>
      </trkpt>
      <trkpt lat="62.54328" lon="6.53365">
        <ele>79.21383</ele>
        <time>2020-08-01T09:07:15.628Z</time>
      </trkpt>
      <trkpt lat="62.54329" lon="6.53343">
        <ele>79.410903</ele>
        <time>2020-08-01T09:07:18.609Z</time>
      </trkpt>
      <trkpt lat="62.5433" lon="6.53321">
        <ele>79.606696</ele>
        <time>2020-08-01T09:07:21.585Z</time>
      </trkpt>
      <trkpt lat="62.5433" lon="6.53299">
        <ele>79.809798</ele>
        <time>2020-08-01T09:07:24.621Z</time>
      </trkpt>
      <trkpt lat="62.5433" lon="6.53276">
        <ele>80.017612</ele>
        <time>2020-08-01T09:07:27.628Z</time>
      </trkpt>
      <trkpt lat="62.54331" lon="6.53252">
        <ele>80.230129</ele>
        <time>2020-08-01T09:07:30.600Z</time>
      </trkpt>
      <trkpt lat="62.54331" lon="6.53228">
        <ele>80.450374</ele>
        <time>2020-08-01T09:07:33.615Z</time>
      </trkpt>
      <trkpt lat="62.54331" lon="6.53202">
        <ele>80.756284</ele>
        <time>2020-08-01T09:07:36.611Z</time>
      </trkpt>
      <trkpt lat="62.54332" lon="6.53176">
        <ele>81.097479</ele>
        <time>2020-08-01T09:07:39.597Z</time>
      </trkpt>
      <trkpt lat="62.54332" lon="6.53151">
        <ele>81.444128</ele>
        <time>2020-08-01T09:07:42.610Z</time>
      </trkpt>
      <trkpt lat="62.54334" lon="6.53124">
        <ele>81.800817</ele>
        <time>2020-08-01T09:07:45.642Z</time>
      </trkpt>
      <trkpt lat="62.54335" lon="6.53097">
        <ele>82.162215</ele>
        <time>2020-08-01T09:07:48.595Z</time>
      </trkpt>
      <trkpt lat="62.54336" lon="6.5307">
        <ele>82.529533</ele>
        <time>2020-08-01T09:07:51.634Z</time>
      </trkpt>
      <trkpt lat="62.54338" lon="6.53042">
        <ele>82.911522</ele>
        <time>2020-08-01T09:07:54.587Z</time>
      </trkpt>
      <trkpt lat="62.5434" lon="6.53017">
        <ele>83.244979</ele>
        <time>2020-08-01T09:07:57.598Z</time>
      </trkpt>
      <trkpt lat="62.54341" lon="6.52992">
        <ele>83.573437</ele>
        <time>2020-08-01T09:08:00.603Z</time>
      </trkpt>
      <trkpt lat="62.54342" lon="6.52969">
        <ele>83.89127</ele>
        <time>2020-08-01T09:08:03.609Z</time>
      </trkpt>
      <trkpt lat="62.54343" lon="6.52945">
        <ele>84.207511</ele>
        <time>2020-08-01T09:08:06.594Z</time>
      </trkpt>
      <trkpt lat="62.54344" lon="6.52922">
        <ele>84.518056</ele>
        <time>2020-08-01T09:08:09.639Z</time>
      </trkpt>
      <trkpt lat="62.54346" lon="6.52899">
        <ele>84.830518</ele>
        <time>2020-08-01T09:08:12.596Z</time>
      </trkpt>
      <trkpt lat="62.54348" lon="6.52877">
        <ele>85.135892</ele>
        <time>2020-08-01T09:08:15.620Z</time>
      </trkpt>
      <trkpt lat="62.54349" lon="6.52852">
        <ele>85.463021</ele>
        <time>2020-08-01T09:08:18.615Z</time>
      </trkpt>
      <trkpt lat="62.54349" lon="6.52828">
        <ele>85.750699</ele>
        <time>2020-08-01T09:08:21.601Z</time>
      </trkpt>
      <trkpt lat="62.54349" lon="6.52806">
        <ele>85.815877</ele>
        <time>2020-08-01T09:08:24.617Z</time>
      </trkpt>
      <trkpt lat="62.54349" lon="6.52784">
        <ele>85.877883</ele>
        <time>2020-08-01T09:08:27.618Z</time>
      </trkpt>
      <trkpt lat="62.54349" lon="6.52762">
        <ele>85.941089</ele>
        <time>2020-08-01T09:08:30.605Z</time>
      </trkpt>
      <trkpt lat="62.5435" lon="6.52739">
        <ele>86.007606</ele>
        <time>2020-08-01T09:08:33.652Z</time>
      </trkpt>
      <trkpt lat="62.54351" lon="6.52717">
        <ele>86.072889</ele>
        <time>2020-08-01T09:08:36.590Z</time>
      </trkpt>
      <trkpt lat="62.54352" lon="6.52695">
        <ele>86.136549</ele>
        <time>2020-08-01T09:08:39.606Z</time>
      </trkpt>
      <trkpt lat="62.54353" lon="6.52673">
        <ele>86.199727</ele>
        <time>2020-08-01T09:08:42.615Z</time>
      </trkpt>
      <trkpt lat="62.54355" lon="6.52651">
        <ele>86.264473</ele>
        <time>2020-08-01T09:08:45.605Z</time>
      </trkpt>
      <trkpt lat="62.54356" lon="6.52628">
        <ele>86.330465</ele>
        <time>2020-08-01T09:08:48.636Z</time>
      </trkpt>
      <trkpt lat="62.54357" lon="6.52606">
        <ele>86.393422</ele>
        <time>2020-08-01T09:08:51.611Z</time>
      </trkpt>
      <trkpt lat="62.54358" lon="6.52586">
        <ele>86.452584</ele>
        <time>2020-08-01T09:08:54.594Z</time>
      </trkpt>
      <trkpt lat="62.54359" lon="6.52566">
        <ele>86.511605</ele>
        <time>2020-08-01T09:08:57.593Z</time>
      </trkpt>
      <trkpt lat="62.5436" lon="6.52542">
        <ele>86.580076</ele>
        <time>2020-08-01T09:09:01.601Z</time>
      </trkpt>
      <trkpt lat="62.54362" lon="6.52519">
        <ele>86.646779</ele>
        <time>2020-08-01T09:09:05.609Z</time>
      </trkpt>
      <trkpt lat="62.54362" lon="6.52494">
        <ele>86.718144</ele>
        <time>2020-08-01T09:09:09.609Z</time>
      </trkpt>
      <trkpt lat="62.54362" lon="6.52469">
        <ele>86.791973</ele>
        <time>2020-08-01T09:09:13.602Z</time>
      </trkpt>
      <trkpt lat="62.54362" lon="6.52445">
        <ele>86.86068</ele>
        <time>2020-08-01T09:09:17.597Z</time>
      </trkpt>
      <trkpt lat="62.54362" lon="6.5242">
        <ele>87.05357</ele>
        <time>2020-08-01T09:09:21.602Z</time>
      </trkpt>
      <trkpt lat="62.54361" lon="6.524">
        <ele>87.213785</ele>
        <time>2020-08-01T09:09:24.612Z</time>
      </trkpt>
      <trkpt lat="62.54361" lon="6.52378">
        <ele>87.388334</ele>
        <time>2020-08-01T09:09:27.600Z</time>
      </trkpt>
      <trkpt lat="62.54361" lon="6.52357">
        <ele>87.556438</ele>
        <time>2020-08-01T09:09:30.600Z</time>
      </trkpt>
      <trkpt lat="62.54361" lon="6.52331">
        <ele>87.762151</ele>
        <time>2020-08-01T09:09:34.598Z</time>
      </trkpt>
      <trkpt lat="62.5436" lon="6.52307">
        <ele>87.958721</ele>
        <time>2020-08-01T09:09:38.619Z</time>
      </trkpt>
      <trkpt lat="62.5436" lon="6.52282">
        <ele>88.15247</ele>
        <time>2020-08-01T09:09:42.632Z</time>
      </trkpt>
      <trkpt lat="62.54359" lon="6.5226">
        <ele>88.329395</ele>
        <time>2020-08-01T09:09:45.617Z</time>
      </trkpt>
      <trkpt lat="62.54358" lon="6.52237">
        <ele>88.515254</ele>
        <time>2020-08-01T09:09:48.627Z</time>
      </trkpt>
      <trkpt lat="62.54357" lon="6.52214">
        <ele>88.69999</ele>
        <time>2020-08-01T09:09:51.592Z</time>
      </trkpt>
      <trkpt lat="62.54355" lon="6.52193">
        <ele>88.872835</ele>
        <time>2020-08-01T09:09:54.596Z</time>
      </trkpt>
      <trkpt lat="62.54353" lon="6.52172">
        <ele>89.045236</ele>
        <time>2020-08-01T09:09:57.610Z</time>
      </trkpt>
      <trkpt lat="62.54352" lon="6.5215">
        <ele>89.222748</ele>
        <time>2020-08-01T09:10:00.634Z</time>
      </trkpt>
      <trkpt lat="62.54352" lon="6.52126">
        <ele>89.414097</ele>
        <time>2020-08-01T09:10:03.637Z</time>
      </trkpt>
      <trkpt lat="62.54352" lon="6.52101">
        <ele>89.613446</ele>
        <time>2020-08-01T09:10:06.600Z</time>
      </trkpt>
      <trkpt lat="62.54351" lon="6.52075">
        <ele>89.822406</ele>
        <time>2020-08-01T09:10:09.606Z</time>
      </trkpt>
      <trkpt lat="62.5435" lon="6.5205">
        <ele>89.944115</ele>
        <time>2020-08-01T09:10:12.635Z</time>
      </trkpt>
      <trkpt lat="62.54348" lon="6.52024">
        <ele>89.71547</ele>
        <time>2020-08-01T09:10:15.614Z</time>
      </trkpt>
      <trkpt lat="62.54347" lon="6.51999">
        <ele>89.498271</ele>
        <time>2020-08-01T09:10:18.606Z</time>
      </trkpt>
      <trkpt lat="62.54346" lon="6.51974">
        <ele>89.271745</ele>
        <time>2020-08-01T09:10:21.606Z</time>
      </trkpt>
      <trkpt lat="62.54345" lon="6.51947">
        <ele>89.033218</ele>
        <time>2020-08-01T09:10:24.582Z</time>
      </trkpt>
      <trkpt lat="62.54344" lon="6.51921">
        <ele>88.798879</ele>
        <time>2020-08-01T09:10:27.592Z</time>
      </trkpt>
      <trkpt lat="62.54342" lon="6.51893">
        <ele>88.548265</ele>
        <time>2020-08-01T09:10:30.622Z</time>
      </trkpt>
      <trkpt lat="62.5434" lon="6.51865">
        <ele>88.302411</ele>
        <time>2020-08-01T09:10:33.620Z</time>
      </trkpt>
      <trkpt lat="62.54339" lon="6.51838">
        <ele>88.057299</ele>
        <time>2020-08-01T09:10:36.620Z</time>
      </trkpt>
      <trkpt lat="62.54338" lon="6.51811">
        <ele>87.817049</ele>
        <time>2020-08-01T09:10:39.611Z</time>
      </trkpt>
      <trkpt lat="62.54337" lon="6.51784">
        <ele>87.581702</ele>
        <time>2020-08-01T09:10:42.595Z</time>
      </trkpt>
      <trkpt lat="62.54335" lon="6.51758">
        <ele>87.346358</ele>
        <time>2020-08-01T09:10:45.619Z</time>
      </trkpt>
      <trkpt lat="62.54334" lon="6.51731">
        <ele>87.10498</ele>
        <time>2020-08-01T09:10:48.598Z</time>
      </trkpt>
      <trkpt lat="62.54333" lon="6.51705">
        <ele>86.872613</ele>
        <time>2020-08-01T09:10:51.592Z</time>
      </trkpt>
      <trkpt lat="62.54331" lon="6.5168">
        <ele>86.652094</ele>
        <time>2020-08-01T09:10:54.594Z</time>
      </trkpt>
      <trkpt lat="62.5433" lon="6.51654">
        <ele>86.744297</ele>
        <time>2020-08-01T09:10:57.583Z</time>
      </trkpt>
      <trkpt lat="62.54327" lon="6.5163">
        <ele>87.16464</ele>
        <time>2020-08-01T09:11:00.590Z</time>
      </trkpt>
      <trkpt lat="62.54324" lon="6.51605">
        <ele>87.581515</ele>
        <time>2020-08-01T09:11:03.599Z</time>
      </trkpt>
      <trkpt lat="62.54321" lon="6.5158">
        <ele>88.002696</ele>
        <time>2020-08-01T09:11:06.649Z</time>
      </trkpt>
      <trkpt lat="62.54317" lon="6.51556">
        <ele>88.420138</ele>
        <time>2020-08-01T09:11:09.608Z</time>
      </trkpt>
      <trkpt lat="62.54313" lon="6.51533">
        <ele>88.832426</ele>
        <time>2020-08-01T09:11:12.605Z</time>
      </trkpt>
      <trkpt lat="62.54308" lon="6.51511">
        <ele>89.237103</ele>
        <time>2020-08-01T09:11:15.607Z</time>
      </trkpt>
      <trkpt lat="62.54304" lon="6.51489">
        <ele>89.631595</ele>
        <time>2020-08-01T09:11:18.606Z</time>
      </trkpt>
      <trkpt lat="62.543" lon="6.51468">
        <ele>90.013591</ele>
        <time>2020-08-01T09:11:21.596Z</time>
      </trkpt>
      <trkpt lat="62.54295" lon="6.51448">
        <ele>90.376253</ele>
        <time>2020-08-01T09:11:24.588Z</time>
      </trkpt>
      <trkpt lat="62.54291" lon="6.51429">
        <ele>90.726877</ele>
        <time>2020-08-01T09:11:27.638Z</time>
      </trkpt>
      <trkpt lat="62.54286" lon="6.51406">
        <ele>91.149886</ele>
        <time>2020-08-01T09:11:31.593Z</time>
      </trkpt>
      <trkpt lat="62.54279" lon="6.51386">
        <ele>91.556913</ele>
        <time>2020-08-01T09:11:35.621Z</time>
      </trkpt>
      <trkpt lat="62.54274" lon="6.51365">
        <ele>91.943515</ele>
        <time>2020-08-01T09:11:39.609Z</time>
      </trkpt>
      <trkpt lat="62.54269" lon="6.51344">
        <ele>92.339139</ele>
        <time>2020-08-01T09:11:43.609Z</time>
      </trkpt>
      <trkpt lat="62.54264" lon="6.51324">
        <ele>92.718792</ele>
        <time>2020-08-01T09:11:47.608Z</time>
      </trkpt>
      <trkpt lat="62.54259" lon="6.51303">
        <ele>93.020802</ele>
        <time>2020-08-01T09:11:51.607Z</time>
      </trkpt>
      <trkpt lat="62.54255" lon="6.51283">
        <ele>93.175082</ele>
        <time>2020-08-01T09:11:55.589Z</time>
      </trkpt>
      <trkpt lat="62.5425" lon="6.51263">
        <ele>93.326874</ele>
        <time>2020-08-01T09:11:59.590Z</time>
      </trkpt>
      <trkpt lat="62.54245" lon="6.51243">
        <ele>93.487318</ele>
        <time>2020-08-01T09:12:03.604Z</time>
      </trkpt>
      <trkpt lat="62.54238" lon="6.51223">
        <ele>93.6472</ele>
        <time>2020-08-01T09:12:07.589Z</time>
      </trkpt>
      <trkpt lat="62.54233" lon="6.51203">
        <ele>93.810484</ele>
        <time>2020-08-01T09:12:11.609Z</time>
      </trkpt>
      <trkpt lat="62.54227" lon="6.51182">
        <ele>93.972707</ele>
        <time>2020-08-01T09:12:15.600Z</time>
      </trkpt>
      <trkpt lat="62.54223" lon="6.51159">
        <ele>94.146216</ele>
        <time>2020-08-01T09:12:19.593Z</time>
      </trkpt>
      <trkpt lat="62.54219" lon="6.51138">
        <ele>94.303024</ele>
        <time>2020-08-01T09:12:23.585Z</time>
      </trkpt>
      <trkpt lat="62.54213" lon="6.51115">
        <ele>94.477136</ele>
        <time>2020-08-01T09:12:27.620Z</time>
      </trkpt>
      <trkpt lat="62.54209" lon="6.51096">
        <ele>94.620857</ele>
        <time>2020-08-01T09:12:30.592Z</time>
      </trkpt>
      <trkpt lat="62.54205" lon="6.51078">
        <ele>94.756114</ele>
        <time>2020-08-01T09:12:33.641Z</time>
      </trkpt>
      <trkpt lat="62.542" lon="6.51056">
        <ele>94.925242</ele>
        <time>2020-08-01T09:12:37.609Z</time>
      </trkpt>
      <trkpt lat="62.54195" lon="6.51032">
        <ele>95.100581</ele>
        <time>2020-08-01T09:12:41.597Z</time>
      </trkpt>
      <trkpt lat="62.54191" lon="6.51015">
        <ele>95.232838</ele>
        <time>2020-08-01T09:12:44.612Z</time>
      </trkpt>
      <trkpt lat="62.54186" lon="6.50997">
        <ele>95.379859</ele>
        <time>2020-08-01T09:12:47.596Z</time>
      </trkpt>
      <trkpt lat="62.54182" lon="6.50979">
        <ele>95.519252</ele>
        <time>2020-08-01T09:12:50.598Z</time>
      </trkpt>
      <trkpt lat="62.54177" lon="6.50961">
        <ele>95.668796</ele>
        <time>2020-08-01T09:12:53.582Z</time>
      </trkpt>
      <trkpt lat="62.54172" lon="6.50944">
        <ele>95.862622</ele>
        <time>2020-08-01T09:12:56.599Z</time>
      </trkpt>
      <trkpt lat="62.54168" lon="6.50927">
        <ele>96.059949</ele>
        <time>2020-08-01T09:12:59.605Z</time>
      </trkpt>
      <trkpt lat="62.54162" lon="6.50905">
        <ele>96.301496</ele>
        <time>2020-08-01T09:13:03.590Z</time>
      </trkpt>
      <trkpt lat="62.54156" lon="6.50884">
        <ele>96.544591</ele>
        <time>2020-08-01T09:13:07.608Z</time>
      </trkpt>
      <trkpt lat="62.54151" lon="6.50867">
        <ele>96.747349</ele>
        <time>2020-08-01T09:13:10.585Z</time>
      </trkpt>
      <trkpt lat="62.54144" lon="6.50845">
        <ele>97.000898</ele>
        <time>2020-08-01T09:13:14.599Z</time>
      </trkpt>
      <trkpt lat="62.54139" lon="6.50828">
        <ele>97.194416</ele>
        <time>2020-08-01T09:13:17.641Z</time>
      </trkpt>
      <trkpt lat="62.54134" lon="6.50808">
        <ele>97.42627</ele>
        <time>2020-08-01T09:13:21.612Z</time>
      </trkpt>
      <trkpt lat="62.54128" lon="6.5079">
        <ele>97.640043</ele>
        <time>2020-08-01T09:13:25.592Z</time>
      </trkpt>
      <trkpt lat="62.54123" lon="6.50769">
        <ele>97.875904</ele>
        <time>2020-08-01T09:13:30.604Z</time>
      </trkpt>
      <trkpt lat="62.54119" lon="6.5075">
        <ele>98.075301</ele>
        <time>2020-08-01T09:13:34.626Z</time>
      </trkpt>
      <trkpt lat="62.54116" lon="6.50732">
        <ele>98.269721</ele>
        <time>2020-08-01T09:13:38.587Z</time>
      </trkpt>
      <trkpt lat="62.54112" lon="6.50711">
        <ele>98.489635</ele>
        <time>2020-08-01T09:13:44.625Z</time>
      </trkpt>
      <trkpt lat="62.54108" lon="6.50693">
        <ele>98.682834</ele>
        <time>2020-08-01T09:13:50.619Z</time>
      </trkpt>
      <trkpt lat="62.541" lon="6.50684">
        <ele>98.877648</ele>
        <time>2020-08-01T09:13:56.597Z</time>
      </trkpt>
      <trkpt lat="62.54091" lon="6.50671">
        <ele>99.102333</ele>
        <time>2020-08-01T09:14:02.614Z</time>
      </trkpt>
      <trkpt lat="62.54082" lon="6.50663">
        <ele>99.309457</ele>
        <time>2020-08-01T09:14:06.601Z</time>
      </trkpt>
      <trkpt lat="62.54073" lon="6.50656">
        <ele>99.359954</ele>
        <time>2020-08-01T09:14:09.588Z</time>
      </trkpt>
      <trkpt lat="62.54065" lon="6.50636">
        <ele>98.877987</ele>
        <time>2020-08-01T09:14:12.596Z</time>
      </trkpt>
      <trkpt lat="62.5406" lon="6.50617">
        <ele>98.496648</ele>
        <time>2020-08-01T09:14:14.602Z</time>
      </trkpt>
      <trkpt lat="62.54055" lon="6.50596">
        <ele>98.083236</ele>
        <time>2020-08-01T09:14:16.609Z</time>
      </trkpt>
      <trkpt lat="62.54049" lon="6.50574">
        <ele>97.636599</ele>
        <time>2020-08-01T09:14:18.612Z</time>
      </trkpt>
      <trkpt lat="62.54044" lon="6.50551">
        <ele>97.170555</ele>
        <time>2020-08-01T09:14:20.598Z</time>
      </trkpt>
      <trkpt lat="62.54038" lon="6.50526">
        <ele>96.68218</ele>
        <time>2020-08-01T09:14:22.603Z</time>
      </trkpt>
      <trkpt lat="62.54032" lon="6.505">
        <ele>96.174482</ele>
        <time>2020-08-01T09:14:24.622Z</time>
      </trkpt>
      <trkpt lat="62.54026" lon="6.50472">
        <ele>95.631805</ele>
        <time>2020-08-01T09:14:26.656Z</time>
      </trkpt>
      <trkpt lat="62.54019" lon="6.50442">
        <ele>95.029474</ele>
        <time>2020-08-01T09:14:28.585Z</time>
      </trkpt>
      <trkpt lat="62.54011" lon="6.50411">
        <ele>94.41424</ele>
        <time>2020-08-01T09:14:30.607Z</time>
      </trkpt>
      <trkpt lat="62.54004" lon="6.50379">
        <ele>93.786096</ele>
        <time>2020-08-01T09:14:32.590Z</time>
      </trkpt>
      <trkpt lat="62.53996" lon="6.50347">
        <ele>93.147266</ele>
        <time>2020-08-01T09:14:34.588Z</time>
      </trkpt>
      <trkpt lat="62.53989" lon="6.50314">
        <ele>92.507342</ele>
        <time>2020-08-01T09:14:36.635Z</time>
      </trkpt>
      <trkpt lat="62.53981" lon="6.50279">
        <ele>91.897126</ele>
        <time>2020-08-01T09:14:38.622Z</time>
      </trkpt>
      <trkpt lat="62.53973" lon="6.50246">
        <ele>91.307971</ele>
        <time>2020-08-01T09:14:40.617Z</time>
      </trkpt>
      <trkpt lat="62.53966" lon="6.50212">
        <ele>90.713614</ele>
        <time>2020-08-01T09:14:42.619Z</time>
      </trkpt>
      <trkpt lat="62.53962" lon="6.50194">
        <ele>90.40355</ele>
        <time>2020-08-01T09:14:43.586Z</time>
      </trkpt>
      <trkpt lat="62.53958" lon="6.50176">
        <ele>90.092051</ele>
        <time>2020-08-01T09:14:44.625Z</time>
      </trkpt>
      <trkpt lat="62.53954" lon="6.50158">
        <ele>89.780526</ele>
        <time>2020-08-01T09:14:45.599Z</time>
      </trkpt>
      <trkpt lat="62.53951" lon="6.50139">
        <ele>89.45836</ele>
        <time>2020-08-01T09:14:46.597Z</time>
      </trkpt>
      <trkpt lat="62.53948" lon="6.5012">
        <ele>89.134909</ele>
        <time>2020-08-01T09:14:47.608Z</time>
      </trkpt>
      <trkpt lat="62.53945" lon="6.501">
        <ele>88.810552</ele>
        <time>2020-08-01T09:14:48.596Z</time>
      </trkpt>
      <trkpt lat="62.53942" lon="6.5008">
        <ele>88.480151</ele>
        <time>2020-08-01T09:14:49.667Z</time>
      </trkpt>
      <trkpt lat="62.5394" lon="6.5006">
        <ele>88.150728</ele>
        <time>2020-08-01T09:14:50.621Z</time>
      </trkpt>
      <trkpt lat="62.53937" lon="6.5004">
        <ele>87.819788</ele>
        <time>2020-08-01T09:14:51.623Z</time>
      </trkpt>
      <trkpt lat="62.53935" lon="6.5002">
        <ele>87.48545</ele>
        <time>2020-08-01T09:14:52.596Z</time>
      </trkpt>
      <trkpt lat="62.53932" lon="6.49999">
        <ele>87.14733</ele>
        <time>2020-08-01T09:14:53.597Z</time>
      </trkpt>
      <trkpt lat="62.5393" lon="6.49977">
        <ele>86.799198</ele>
        <time>2020-08-01T09:14:54.600Z</time>
      </trkpt>
      <trkpt lat="62.53928" lon="6.49956">
        <ele>86.448766</ele>
        <time>2020-08-01T09:14:55.650Z</time>
      </trkpt>
      <trkpt lat="62.53925" lon="6.49935">
        <ele>86.223946</ele>
        <time>2020-08-01T09:14:56.612Z</time>
      </trkpt>
      <trkpt lat="62.53923" lon="6.49913">
        <ele>86.012566</ele>
        <time>2020-08-01T09:14:57.596Z</time>
      </trkpt>
      <trkpt lat="62.53921" lon="6.49892">
        <ele>85.796941</ele>
        <time>2020-08-01T09:14:58.588Z</time>
      </trkpt>
      <trkpt lat="62.53918" lon="6.4987">
        <ele>85.583195</ele>
        <time>2020-08-01T09:14:59.598Z</time>
      </trkpt>
      <trkpt lat="62.53916" lon="6.49849">
        <ele>85.374751</ele>
        <time>2020-08-01T09:15:00.654Z</time>
      </trkpt>
      <trkpt lat="62.53913" lon="6.49828">
        <ele>85.161008</ele>
        <time>2020-08-01T09:15:01.599Z</time>
      </trkpt>
      <trkpt lat="62.53911" lon="6.49806">
        <ele>84.94349</ele>
        <time>2020-08-01T09:15:02.600Z</time>
      </trkpt>
      <trkpt lat="62.53909" lon="6.49785">
        <ele>84.739634</ele>
        <time>2020-08-01T09:15:03.610Z</time>
      </trkpt>
      <trkpt lat="62.53906" lon="6.49764">
        <ele>84.531398</ele>
        <time>2020-08-01T09:15:04.616Z</time>
      </trkpt>
      <trkpt lat="62.53904" lon="6.49744">
        <ele>84.33414</ele>
        <time>2020-08-01T09:15:05.609Z</time>
      </trkpt>
      <trkpt lat="62.53902" lon="6.49725">
        <ele>84.142504</ele>
        <time>2020-08-01T09:15:06.595Z</time>
      </trkpt>
      <trkpt lat="62.53899" lon="6.49688">
        <ele>83.777008</ele>
        <time>2020-08-01T09:15:08.587Z</time>
      </trkpt>
      <trkpt lat="62.53896" lon="6.49652">
        <ele>83.423824</ele>
        <time>2020-08-01T09:15:10.601Z</time>
      </trkpt>
      <trkpt lat="62.53893" lon="6.49619">
        <ele>83.098818</ele>
        <time>2020-08-01T09:15:12.589Z</time>
      </trkpt>
      <trkpt lat="62.5389" lon="6.49589">
        <ele>82.805364</ele>
        <time>2020-08-01T09:15:14.595Z</time>
      </trkpt>
      <trkpt lat="62.53887" lon="6.49563">
        <ele>82.934885</ele>
        <time>2020-08-01T09:15:16.585Z</time>
      </trkpt>
      <trkpt lat="62.53884" lon="6.4954">
        <ele>83.561139</ele>
        <time>2020-08-01T09:15:18.598Z</time>
      </trkpt>
      <trkpt lat="62.53881" lon="6.49521">
        <ele>84.108131</ele>
        <time>2020-08-01T09:15:20.587Z</time>
      </trkpt>
      <trkpt lat="62.53878" lon="6.49496">
        <ele>84.79746</ele>
        <time>2020-08-01T09:15:23.625Z</time>
      </trkpt>
      <trkpt lat="62.53875" lon="6.4947">
        <ele>85.507264</ele>
        <time>2020-08-01T09:15:26.627Z</time>
      </trkpt>
      <trkpt lat="62.53871" lon="6.49448">
        <ele>86.133521</ele>
        <time>2020-08-01T09:15:29.615Z</time>
      </trkpt>
      <trkpt lat="62.53868" lon="6.49428">
        <ele>86.693485</ele>
        <time>2020-08-01T09:15:32.586Z</time>
      </trkpt>
      <trkpt lat="62.53866" lon="6.49406">
        <ele>87.312825</ele>
        <time>2020-08-01T09:15:35.590Z</time>
      </trkpt>
      <trkpt lat="62.53864" lon="6.49383">
        <ele>87.927897</ele>
        <time>2020-08-01T09:15:38.643Z</time>
      </trkpt>
      <trkpt lat="62.53861" lon="6.49362">
        <ele>88.532037</ele>
        <time>2020-08-01T09:15:41.596Z</time>
      </trkpt>
      <trkpt lat="62.53858" lon="6.49341">
        <ele>89.101643</ele>
        <time>2020-08-01T09:15:44.594Z</time>
      </trkpt>
      <trkpt lat="62.53857" lon="6.4932">
        <ele>89.663878</ele>
        <time>2020-08-01T09:15:47.605Z</time>
      </trkpt>
      <trkpt lat="62.53855" lon="6.49299">
        <ele>90.227066</ele>
        <time>2020-08-01T09:15:50.620Z</time>
      </trkpt>
      <trkpt lat="62.53854" lon="6.49278">
        <ele>90.802393</ele>
        <time>2020-08-01T09:15:53.585Z</time>
      </trkpt>
      <trkpt lat="62.53851" lon="6.49258">
        <ele>91.368347</ele>
        <time>2020-08-01T09:15:56.616Z</time>
      </trkpt>
      <trkpt lat="62.5385" lon="6.49238">
        <ele>91.894352</ele>
        <time>2020-08-01T09:15:59.599Z</time>
      </trkpt>
      <trkpt lat="62.53848" lon="6.49216">
        <ele>92.48463</ele>
        <time>2020-08-01T09:16:02.616Z</time>
      </trkpt>
      <trkpt lat="62.53847" lon="6.49196">
        <ele>93.040605</ele>
        <time>2020-08-01T09:16:05.617Z</time>
      </trkpt>
      <trkpt lat="62.53845" lon="6.49174">
        <ele>93.071571</ele>
        <time>2020-08-01T09:16:08.612Z</time>
      </trkpt>
      <trkpt lat="62.53844" lon="6.49152">
        <ele>93.068085</ele>
        <time>2020-08-01T09:16:11.621Z</time>
      </trkpt>
      <trkpt lat="62.53843" lon="6.4913">
        <ele>93.064445</ele>
        <time>2020-08-01T09:16:14.604Z</time>
      </trkpt>
      <trkpt lat="62.53842" lon="6.49107">
        <ele>93.060762</ele>
        <time>2020-08-01T09:16:17.610Z</time>
      </trkpt>
      <trkpt lat="62.53842" lon="6.49082">
        <ele>93.056681</ele>
        <time>2020-08-01T09:16:20.623Z</time>
      </trkpt>
      <trkpt lat="62.53841" lon="6.49057">
        <ele>93.052577</ele>
        <time>2020-08-01T09:16:23.618Z</time>
      </trkpt>
      <trkpt lat="62.53842" lon="6.49029">
        <ele>93.048089</ele>
        <time>2020-08-01T09:16:26.599Z</time>
      </trkpt>
      <trkpt lat="62.53842" lon="6.49009">
        <ele>93.044883</ele>
        <time>2020-08-01T09:16:28.595Z</time>
      </trkpt>
      <trkpt lat="62.53841" lon="6.48989">
        <ele>93.041582</ele>
        <time>2020-08-01T09:16:30.602Z</time>
      </trkpt>
      <trkpt lat="62.5384" lon="6.48969">
        <ele>93.038264</ele>
        <time>2020-08-01T09:16:32.590Z</time>
      </trkpt>
      <trkpt lat="62.53839" lon="6.48949">
        <ele>93.035062</ele>
        <time>2020-08-01T09:16:34.601Z</time>
      </trkpt>
      <trkpt lat="62.53838" lon="6.48929">
        <ele>93.031801</ele>
        <time>2020-08-01T09:16:36.623Z</time>
      </trkpt>
      <trkpt lat="62.53837" lon="6.48908">
        <ele>93.028423</ele>
        <time>2020-08-01T09:16:38.628Z</time>
      </trkpt>
      <trkpt lat="62.53836" lon="6.48887">
        <ele>93.024961</ele>
        <time>2020-08-01T09:16:40.612Z</time>
      </trkpt>
      <trkpt lat="62.53834" lon="6.48865">
        <ele>93.021382</ele>
        <time>2020-08-01T09:16:42.621Z</time>
      </trkpt>
      <trkpt lat="62.53833" lon="6.48842">
        <ele>93.017678</ele>
        <time>2020-08-01T09:16:44.616Z</time>
      </trkpt>
      <trkpt lat="62.53832" lon="6.48819">
        <ele>93.013915</ele>
        <time>2020-08-01T09:16:46.601Z</time>
      </trkpt>
      <trkpt lat="62.53831" lon="6.48796">
        <ele>93.191805</ele>
        <time>2020-08-01T09:16:48.646Z</time>
      </trkpt>
      <trkpt lat="62.53829" lon="6.48773">
        <ele>93.586936</ele>
        <time>2020-08-01T09:16:50.608Z</time>
      </trkpt>
      <trkpt lat="62.53827" lon="6.48751">
        <ele>93.964631</ele>
        <time>2020-08-01T09:16:52.601Z</time>
      </trkpt>
      <trkpt lat="62.53825" lon="6.48728">
        <ele>94.365516</ele>
        <time>2020-08-01T09:16:54.601Z</time>
      </trkpt>
      <trkpt lat="62.53822" lon="6.48705">
        <ele>94.773989</ele>
        <time>2020-08-01T09:16:56.603Z</time>
      </trkpt>
      <trkpt lat="62.5382" lon="6.4868">
        <ele>95.195508</ele>
        <time>2020-08-01T09:16:58.588Z</time>
      </trkpt>
      <trkpt lat="62.53818" lon="6.48656">
        <ele>95.615994</ele>
        <time>2020-08-01T09:17:00.637Z</time>
      </trkpt>
      <trkpt lat="62.53819" lon="6.4863">
        <ele>96.056218</ele>
        <time>2020-08-01T09:17:02.605Z</time>
      </trkpt>
      <trkpt lat="62.53821" lon="6.48605">
        <ele>96.476079</ele>
        <time>2020-08-01T09:17:04.617Z</time>
      </trkpt>
      <trkpt lat="62.53824" lon="6.48581">
        <ele>96.901863</ele>
        <time>2020-08-01T09:17:07.612Z</time>
      </trkpt>
      <trkpt lat="62.53826" lon="6.4853">
        <ele>97.762751</ele>
        <time>2020-08-01T09:18:12.606Z</time>
      </trkpt>
      <trkpt lat="62.53827" lon="6.4851">
        <ele>98.103663</ele>
        <time>2020-08-01T09:18:19.596Z</time>
      </trkpt>
      <trkpt lat="62.53825" lon="6.48489">
        <ele>98.464852</ele>
        <time>2020-08-01T09:18:25.613Z</time>
      </trkpt>
      <trkpt lat="62.53824" lon="6.48467">
        <ele>98.849339</ele>
        <time>2020-08-01T09:18:31.596Z</time>
      </trkpt>
      <trkpt lat="62.53826" lon="6.48445">
        <ele>99.228171</ele>
        <time>2020-08-01T09:18:36.596Z</time>
      </trkpt>
      <trkpt lat="62.53828" lon="6.48425">
        <ele>99.576993</ele>
        <time>2020-08-01T09:18:40.592Z</time>
      </trkpt>
      <trkpt lat="62.5383" lon="6.48403">
        <ele>99.84354</ele>
        <time>2020-08-01T09:18:44.597Z</time>
      </trkpt>
      <trkpt lat="62.53831" lon="6.48382">
        <ele>100.1023</ele>
        <time>2020-08-01T09:18:48.644Z</time>
      </trkpt>
      <trkpt lat="62.5383" lon="6.48358">
        <ele>100.386655</ele>
        <time>2020-08-01T09:18:53.606Z</time>
      </trkpt>
      <trkpt lat="62.53829" lon="6.48334">
        <ele>100.673167</ele>
        <time>2020-08-01T09:18:58.588Z</time>
      </trkpt>
      <trkpt lat="62.53828" lon="6.48312">
        <ele>100.943804</ele>
        <time>2020-08-01T09:19:03.604Z</time>
      </trkpt>
      <trkpt lat="62.53831" lon="6.48293">
        <ele>101.176434</ele>
        <time>2020-08-01T09:19:08.600Z</time>
      </trkpt>
      <trkpt lat="62.53835" lon="6.48273">
        <ele>101.439043</ele>
        <time>2020-08-01T09:19:14.596Z</time>
      </trkpt>
      <trkpt lat="62.53839" lon="6.48255">
        <ele>101.674772</ele>
        <time>2020-08-01T09:19:20.584Z</time>
      </trkpt>
      <trkpt lat="62.53841" lon="6.48234">
        <ele>101.930911</ele>
        <time>2020-08-01T09:19:27.586Z</time>
      </trkpt>
      <trkpt lat="62.5384" lon="6.48214">
        <ele>102.175327</ele>
        <time>2020-08-01T09:19:33.597Z</time>
      </trkpt>
      <trkpt lat="62.53838" lon="6.4819">
        <ele>102.459494</ele>
        <time>2020-08-01T09:19:39.620Z</time>
      </trkpt>
      <trkpt lat="62.53836" lon="6.48171">
        <ele>102.695702</ele>
        <time>2020-08-01T09:19:43.589Z</time>
      </trkpt>
      <trkpt lat="62.53835" lon="6.48146">
        <ele>102.998141</ele>
        <time>2020-08-01T09:19:47.592Z</time>
      </trkpt>
      <trkpt lat="62.53833" lon="6.48124">
        <ele>103.26557</ele>
        <time>2020-08-01T09:19:50.604Z</time>
      </trkpt>
      <trkpt lat="62.53832" lon="6.48095">
        <ele>103.610456</ele>
        <time>2020-08-01T09:19:53.600Z</time>
      </trkpt>
      <trkpt lat="62.53829" lon="6.48076">
        <ele>103.848139</ele>
        <time>2020-08-01T09:19:55.593Z</time>
      </trkpt>
      <trkpt lat="62.53825" lon="6.48049">
        <ele>104.184376</ele>
        <time>2020-08-01T09:19:58.625Z</time>
      </trkpt>
      <trkpt lat="62.53822" lon="6.48022">
        <ele>103.659484</ele>
        <time>2020-08-01T09:20:01.613Z</time>
      </trkpt>
      <trkpt lat="62.53819" lon="6.47997">
        <ele>102.86172</ele>
        <time>2020-08-01T09:20:04.612Z</time>
      </trkpt>
      <trkpt lat="62.53818" lon="6.4797">
        <ele>102.046045</ele>
        <time>2020-08-01T09:20:07.597Z</time>
      </trkpt>
      <trkpt lat="62.53816" lon="6.47942">
        <ele>101.185071</ele>
        <time>2020-08-01T09:20:10.637Z</time>
      </trkpt>
      <trkpt lat="62.53817" lon="6.4792">
        <ele>100.523379</ele>
        <time>2020-08-01T09:20:12.603Z</time>
      </trkpt>
      <trkpt lat="62.53816" lon="6.47898">
        <ele>99.847552</ele>
        <time>2020-08-01T09:20:14.604Z</time>
      </trkpt>
      <trkpt lat="62.53814" lon="6.47876">
        <ele>99.148354</ele>
        <time>2020-08-01T09:20:16.592Z</time>
      </trkpt>
      <trkpt lat="62.53811" lon="6.47852">
        <ele>98.394384</ele>
        <time>2020-08-01T09:20:18.604Z</time>
      </trkpt>
      <trkpt lat="62.53805" lon="6.47825">
        <ele>97.494514</ele>
        <time>2020-08-01T09:20:20.620Z</time>
      </trkpt>
      <trkpt lat="62.53798" lon="6.47793">
        <ele>96.407988</ele>
        <time>2020-08-01T09:20:22.609Z</time>
      </trkpt>
      <trkpt lat="62.53789" lon="6.47762">
        <ele>95.293372</ele>
        <time>2020-08-01T09:20:24.626Z</time>
      </trkpt>
      <trkpt lat="62.5378" lon="6.47729">
        <ele>94.11718</ele>
        <time>2020-08-01T09:20:26.607Z</time>
      </trkpt>
      <trkpt lat="62.53771" lon="6.47699">
        <ele>93.019905</ele>
        <time>2020-08-01T09:20:28.630Z</time>
      </trkpt>
      <trkpt lat="62.53762" lon="6.4767">
        <ele>91.930865</ele>
        <time>2020-08-01T09:20:30.610Z</time>
      </trkpt>
      <trkpt lat="62.53754" lon="6.47637">
        <ele>90.685866</ele>
        <time>2020-08-01T09:20:32.588Z</time>
      </trkpt>
      <trkpt lat="62.5375" lon="6.4762">
        <ele>90.031965</ele>
        <time>2020-08-01T09:20:33.604Z</time>
      </trkpt>
      <trkpt lat="62.53745" lon="6.47602">
        <ele>89.378063</ele>
        <time>2020-08-01T09:20:34.621Z</time>
      </trkpt>
      <trkpt lat="62.53737" lon="6.4757">
        <ele>88.127096</ele>
        <time>2020-08-01T09:20:36.601Z</time>
      </trkpt>
      <trkpt lat="62.53732" lon="6.47552">
        <ele>87.447068</ele>
        <time>2020-08-01T09:20:37.639Z</time>
      </trkpt>
      <trkpt lat="62.53727" lon="6.47532">
        <ele>86.722556</ele>
        <time>2020-08-01T09:20:38.595Z</time>
      </trkpt>
      <trkpt lat="62.53723" lon="6.47511">
        <ele>85.956384</ele>
        <time>2020-08-01T09:20:39.593Z</time>
      </trkpt>
      <trkpt lat="62.53719" lon="6.4749">
        <ele>85.201757</ele>
        <time>2020-08-01T09:20:40.585Z</time>
      </trkpt>
      <trkpt lat="62.53716" lon="6.47471">
        <ele>84.50875</ele>
        <time>2020-08-01T09:20:41.624Z</time>
      </trkpt>
      <trkpt lat="62.5371" lon="6.47437">
        <ele>83.303382</ele>
        <time>2020-08-01T09:20:43.616Z</time>
      </trkpt>
      <trkpt lat="62.53705" lon="6.47404">
        <ele>82.151932</ele>
        <time>2020-08-01T09:20:45.597Z</time>
      </trkpt>
      <trkpt lat="62.53701" lon="6.47373">
        <ele>81.098747</ele>
        <time>2020-08-01T09:20:47.598Z</time>
      </trkpt>
      <trkpt lat="62.53696" lon="6.47348">
        <ele>80.174738</ele>
        <time>2020-08-01T09:20:49.591Z</time>
      </trkpt>
      <trkpt lat="62.53692" lon="6.47323">
        <ele>79.430402</ele>
        <time>2020-08-01T09:20:51.621Z</time>
      </trkpt>
      <trkpt lat="62.53689" lon="6.47297">
        <ele>79.439142</ele>
        <time>2020-08-01T09:20:53.589Z</time>
      </trkpt>
      <trkpt lat="62.53685" lon="6.47271">
        <ele>79.448651</ele>
        <time>2020-08-01T09:20:55.603Z</time>
      </trkpt>
      <trkpt lat="62.5368" lon="6.47243">
        <ele>79.458525</ele>
        <time>2020-08-01T09:20:57.642Z</time>
      </trkpt>
      <trkpt lat="62.53676" lon="6.47218">
        <ele>79.467547</ele>
        <time>2020-08-01T09:20:59.654Z</time>
      </trkpt>
      <trkpt lat="62.53671" lon="6.47194">
        <ele>79.476272</ele>
        <time>2020-08-01T09:21:01.624Z</time>
      </trkpt>
      <trkpt lat="62.53666" lon="6.47171">
        <ele>79.484689</ele>
        <time>2020-08-01T09:21:03.595Z</time>
      </trkpt>
      <trkpt lat="62.53662" lon="6.47149">
        <ele>79.49274</ele>
        <time>2020-08-01T09:21:05.599Z</time>
      </trkpt>
      <trkpt lat="62.53657" lon="6.47129">
        <ele>79.500316</ele>
        <time>2020-08-01T09:21:07.612Z</time>
      </trkpt>
      <trkpt lat="62.53652" lon="6.4711">
        <ele>79.507873</ele>
        <time>2020-08-01T09:21:09.582Z</time>
      </trkpt>
      <trkpt lat="62.53647" lon="6.47088">
        <ele>79.515955</ele>
        <time>2020-08-01T09:21:11.621Z</time>
      </trkpt>
      <trkpt lat="62.53643" lon="6.47063">
        <ele>79.524821</ele>
        <time>2020-08-01T09:21:13.603Z</time>
      </trkpt>
      <trkpt lat="62.5364" lon="6.47035">
        <ele>79.534365</ele>
        <time>2020-08-01T09:21:15.606Z</time>
      </trkpt>
      <trkpt lat="62.5364" lon="6.47009">
        <ele>79.543418</ele>
        <time>2020-08-01T09:21:17.598Z</time>
      </trkpt>
      <trkpt lat="62.53635" lon="6.46985">
        <ele>79.551991</ele>
        <time>2020-08-01T09:21:20.593Z</time>
      </trkpt>
      <trkpt lat="62.53631" lon="6.46952">
        <ele>79.808077</ele>
        <time>2020-08-01T09:21:55.594Z</time>
      </trkpt>
      <trkpt lat="62.53622" lon="6.46906">
        <ele>80.985123</ele>
        <time>2020-08-01T09:22:28.622Z</time>
      </trkpt>
      <trkpt lat="62.53618" lon="6.46885">
        <ele>81.540857</ele>
        <time>2020-08-01T09:22:33.616Z</time>
      </trkpt>
      <trkpt lat="62.53615" lon="6.46866">
        <ele>82.020269</ele>
        <time>2020-08-01T09:22:37.593Z</time>
      </trkpt>
      <trkpt lat="62.53612" lon="6.46844">
        <ele>82.550457</ele>
        <time>2020-08-01T09:22:42.599Z</time>
      </trkpt>
      <trkpt lat="62.5361" lon="6.46823">
        <ele>83.052937</ele>
        <time>2020-08-01T09:22:47.594Z</time>
      </trkpt>
      <trkpt lat="62.53608" lon="6.46803">
        <ele>83.545351</ele>
        <time>2020-08-01T09:22:53.594Z</time>
      </trkpt>
      <trkpt lat="62.53605" lon="6.46782">
        <ele>84.074517</ele>
        <time>2020-08-01T09:22:59.612Z</time>
      </trkpt>
      <trkpt lat="62.53602" lon="6.46762">
        <ele>84.573647</ele>
        <time>2020-08-01T09:23:05.600Z</time>
      </trkpt>
      <trkpt lat="62.53599" lon="6.46741">
        <ele>85.107028</ele>
        <time>2020-08-01T09:23:12.606Z</time>
      </trkpt>
      <trkpt lat="62.53596" lon="6.4672">
        <ele>85.62442</ele>
        <time>2020-08-01T09:23:19.588Z</time>
      </trkpt>
      <trkpt lat="62.53594" lon="6.46698">
        <ele>86.151261</ele>
        <time>2020-08-01T09:23:26.593Z</time>
      </trkpt>
      <trkpt lat="62.53591" lon="6.46679">
        <ele>86.629995</ele>
        <time>2020-08-01T09:23:31.633Z</time>
      </trkpt>
      <trkpt lat="62.53588" lon="6.4666">
        <ele>87.115583</ele>
        <time>2020-08-01T09:23:36.602Z</time>
      </trkpt>
      <trkpt lat="62.53586" lon="6.46639">
        <ele>87.613399</ele>
        <time>2020-08-01T09:23:41.592Z</time>
      </trkpt>
      <trkpt lat="62.53583" lon="6.46618">
        <ele>88.148351</ele>
        <time>2020-08-01T09:23:46.591Z</time>
      </trkpt>
      <trkpt lat="62.5358" lon="6.46599">
        <ele>88.621971</ele>
        <time>2020-08-01T09:23:50.594Z</time>
      </trkpt>
      <trkpt lat="62.53577" lon="6.46579">
        <ele>88.942595</ele>
        <time>2020-08-01T09:23:54.612Z</time>
      </trkpt>
      <trkpt lat="62.53573" lon="6.46559">
        <ele>89.131145</ele>
        <time>2020-08-01T09:23:59.629Z</time>
      </trkpt>
      <trkpt lat="62.53569" lon="6.46539">
        <ele>89.317294</ele>
        <time>2020-08-01T09:24:04.606Z</time>
      </trkpt>
      <trkpt lat="62.53566" lon="6.46519">
        <ele>89.495076</ele>
        <time>2020-08-01T09:24:09.603Z</time>
      </trkpt>
      <trkpt lat="62.53562" lon="6.46498">
        <ele>89.677645</ele>
        <time>2020-08-01T09:24:14.601Z</time>
      </trkpt>
      <trkpt lat="62.53559" lon="6.46478">
        <ele>89.858644</ele>
        <time>2020-08-01T09:24:19.589Z</time>
      </trkpt>
      <trkpt lat="62.53555" lon="6.46459">
        <ele>90.030452</ele>
        <time>2020-08-01T09:24:23.585Z</time>
      </trkpt>
      <trkpt lat="62.53553" lon="6.4644">
        <ele>90.196524</ele>
        <time>2020-08-01T09:24:27.639Z</time>
      </trkpt>
      <trkpt lat="62.5355" lon="6.46419">
        <ele>90.384398</ele>
        <time>2020-08-01T09:24:31.600Z</time>
      </trkpt>
      <trkpt lat="62.53548" lon="6.46394">
        <ele>90.602412</ele>
        <time>2020-08-01T09:24:35.611Z</time>
      </trkpt>
      <trkpt lat="62.53546" lon="6.46372">
        <ele>90.791932</ele>
        <time>2020-08-01T09:24:38.605Z</time>
      </trkpt>
      <trkpt lat="62.53544" lon="6.46351">
        <ele>90.96982</ele>
        <time>2020-08-01T09:24:41.588Z</time>
      </trkpt>
      <trkpt lat="62.53543" lon="6.46331">
        <ele>91.139087</ele>
        <time>2020-08-01T09:24:44.604Z</time>
      </trkpt>
      <trkpt lat="62.5354" lon="6.46311">
        <ele>91.317627</ele>
        <time>2020-08-01T09:24:48.614Z</time>
      </trkpt>
      <trkpt lat="62.5354" lon="6.46288">
        <ele>91.508355</ele>
        <time>2020-08-01T09:24:53.632Z</time>
      </trkpt>
      <trkpt lat="62.53539" lon="6.46265">
        <ele>91.705829</ele>
        <time>2020-08-01T09:24:58.593Z</time>
      </trkpt>
      <trkpt lat="62.5354" lon="6.46241">
        <ele>91.905216</ele>
        <time>2020-08-01T09:25:03.606Z</time>
      </trkpt>
      <trkpt lat="62.53539" lon="6.46221">
        <ele>92.077782</ele>
        <time>2020-08-01T09:25:07.619Z</time>
      </trkpt>
      <trkpt lat="62.53538" lon="6.46196">
        <ele>92.056478</ele>
        <time>2020-08-01T09:25:11.621Z</time>
      </trkpt>
      <trkpt lat="62.53537" lon="6.46175">
        <ele>91.964719</ele>
        <time>2020-08-01T09:25:14.608Z</time>
      </trkpt>
      <trkpt lat="62.53536" lon="6.46147">
        <ele>91.842657</ele>
        <time>2020-08-01T09:25:17.610Z</time>
      </trkpt>
      <trkpt lat="62.53535" lon="6.46125">
        <ele>91.745276</ele>
        <time>2020-08-01T09:25:19.602Z</time>
      </trkpt>
      <trkpt lat="62.53533" lon="6.46101">
        <ele>91.641028</ele>
        <time>2020-08-01T09:25:21.638Z</time>
      </trkpt>
      <trkpt lat="62.53531" lon="6.46076">
        <ele>91.530466</ele>
        <time>2020-08-01T09:25:23.605Z</time>
      </trkpt>
      <trkpt lat="62.53528" lon="6.46051">
        <ele>91.418654</ele>
        <time>2020-08-01T09:25:25.638Z</time>
      </trkpt>
      <trkpt lat="62.53526" lon="6.46027">
        <ele>91.310941</ele>
        <time>2020-08-01T09:25:27.581Z</time>
      </trkpt>
      <trkpt lat="62.53525" lon="6.46004">
        <ele>91.211522</ele>
        <time>2020-08-01T09:25:29.602Z</time>
      </trkpt>
      <trkpt lat="62.53523" lon="6.45985">
        <ele>91.124896</ele>
        <time>2020-08-01T09:25:31.628Z</time>
      </trkpt>
      <trkpt lat="62.5352" lon="6.45965">
        <ele>91.036572</ele>
        <time>2020-08-01T09:25:33.601Z</time>
      </trkpt>
      <trkpt lat="62.53517" lon="6.45937">
        <ele>90.910362</ele>
        <time>2020-08-01T09:25:36.601Z</time>
      </trkpt>
      <trkpt lat="62.53515" lon="6.45917">
        <ele>90.823327</ele>
        <time>2020-08-01T09:25:38.608Z</time>
      </trkpt>
      <trkpt lat="62.53512" lon="6.45898">
        <ele>90.734394</ele>
        <time>2020-08-01T09:25:40.588Z</time>
      </trkpt>
      <trkpt lat="62.53509" lon="6.45878">
        <ele>90.645872</ele>
        <time>2020-08-01T09:25:42.603Z</time>
      </trkpt>
      <trkpt lat="62.53507" lon="6.45858">
        <ele>90.555557</ele>
        <time>2020-08-01T09:25:44.608Z</time>
      </trkpt>
      <trkpt lat="62.53504" lon="6.45838">
        <ele>90.463604</ele>
        <time>2020-08-01T09:25:46.650Z</time>
      </trkpt>
      <trkpt lat="62.535" lon="6.45818">
        <ele>90.401768</ele>
        <time>2020-08-01T09:25:48.624Z</time>
      </trkpt>
      <trkpt lat="62.53495" lon="6.45795">
        <ele>90.34398</ele>
        <time>2020-08-01T09:25:50.596Z</time>
      </trkpt>
      <trkpt lat="62.5349" lon="6.45771">
        <ele>90.284499</ele>
        <time>2020-08-01T09:25:52.630Z</time>
      </trkpt>
      <trkpt lat="62.53486" lon="6.45748">
        <ele>90.227459</ele>
        <time>2020-08-01T09:25:54.639Z</time>
      </trkpt>
      <trkpt lat="62.53482" lon="6.45725">
        <ele>90.172091</ele>
        <time>2020-08-01T09:25:56.607Z</time>
      </trkpt>
      <trkpt lat="62.53478" lon="6.45703">
        <ele>90.117682</ele>
        <time>2020-08-01T09:25:58.616Z</time>
      </trkpt>
      <trkpt lat="62.53475" lon="6.45682">
        <ele>90.06817</ele>
        <time>2020-08-01T09:26:00.647Z</time>
      </trkpt>
      <trkpt lat="62.53472" lon="6.45663">
        <ele>90.021341</ele>
        <time>2020-08-01T09:26:02.593Z</time>
      </trkpt>
      <trkpt lat="62.5347" lon="6.45643">
        <ele>89.975036</ele>
        <time>2020-08-01T09:26:04.602Z</time>
      </trkpt>
      <trkpt lat="62.53466" lon="6.45622">
        <ele>89.922152</ele>
        <time>2020-08-01T09:26:06.588Z</time>
      </trkpt>
      <trkpt lat="62.53462" lon="6.45596">
        <ele>89.859857</ele>
        <time>2020-08-01T09:26:08.604Z</time>
      </trkpt>
      <trkpt lat="62.53458" lon="6.45568">
        <ele>89.792428</ele>
        <time>2020-08-01T09:26:10.638Z</time>
      </trkpt>
      <trkpt lat="62.53453" lon="6.45538">
        <ele>89.720403</ele>
        <time>2020-08-01T09:26:12.590Z</time>
      </trkpt>
      <trkpt lat="62.53448" lon="6.45508">
        <ele>89.647133</ele>
        <time>2020-08-01T09:26:14.590Z</time>
      </trkpt>
      <trkpt lat="62.53443" lon="6.45478">
        <ele>89.574127</ele>
        <time>2020-08-01T09:26:16.584Z</time>
      </trkpt>
      <trkpt lat="62.53438" lon="6.45449">
        <ele>89.341131</ele>
        <time>2020-08-01T09:26:18.617Z</time>
      </trkpt>
      <trkpt lat="62.53435" lon="6.4542">
        <ele>89.007599</ele>
        <time>2020-08-01T09:26:20.599Z</time>
      </trkpt>
      <trkpt lat="62.53431" lon="6.45392">
        <ele>88.681089</ele>
        <time>2020-08-01T09:26:22.600Z</time>
      </trkpt>
      <trkpt lat="62.53428" lon="6.45363">
        <ele>88.354415</ele>
        <time>2020-08-01T09:26:24.619Z</time>
      </trkpt>
      <trkpt lat="62.53425" lon="6.45335">
        <ele>88.036735</ele>
        <time>2020-08-01T09:26:26.608Z</time>
      </trkpt>
      <trkpt lat="62.53423" lon="6.45307">
        <ele>87.726</ele>
        <time>2020-08-01T09:26:28.592Z</time>
      </trkpt>
      <trkpt lat="62.53421" lon="6.4528">
        <ele>87.420411</ele>
        <time>2020-08-01T09:26:30.616Z</time>
      </trkpt>
      <trkpt lat="62.5342" lon="6.45252">
        <ele>87.113675</ele>
        <time>2020-08-01T09:26:32.639Z</time>
      </trkpt>
      <trkpt lat="62.53417" lon="6.45225">
        <ele>86.803612</ele>
        <time>2020-08-01T09:26:34.589Z</time>
      </trkpt>
      <trkpt lat="62.53415" lon="6.45197">
        <ele>86.496145</ele>
        <time>2020-08-01T09:26:36.619Z</time>
      </trkpt>
      <trkpt lat="62.53413" lon="6.4517">
        <ele>86.186499</ele>
        <time>2020-08-01T09:26:38.622Z</time>
      </trkpt>
      <trkpt lat="62.53412" lon="6.45142">
        <ele>85.873629</ele>
        <time>2020-08-01T09:26:40.622Z</time>
      </trkpt>
      <trkpt lat="62.5341" lon="6.45116">
        <ele>85.583314</ele>
        <time>2020-08-01T09:26:42.601Z</time>
      </trkpt>
      <trkpt lat="62.53408" lon="6.45093">
        <ele>85.324717</ele>
        <time>2020-08-01T09:26:44.626Z</time>
      </trkpt>
      <trkpt lat="62.53406" lon="6.45073">
        <ele>85.353196</ele>
        <time>2020-08-01T09:26:46.601Z</time>
      </trkpt>
      <trkpt lat="62.53405" lon="6.4505">
        <ele>85.589333</ele>
        <time>2020-08-01T09:26:49.595Z</time>
      </trkpt>
      <trkpt lat="62.53404" lon="6.45031">
        <ele>85.790005</ele>
        <time>2020-08-01T09:26:52.590Z</time>
      </trkpt>
      <trkpt lat="62.53403" lon="6.45008">
        <ele>86.017689</ele>
        <time>2020-08-01T09:26:56.600Z</time>
      </trkpt>
      <trkpt lat="62.53402" lon="6.44986">
        <ele>86.238924</ele>
        <time>2020-08-01T09:27:00.611Z</time>
      </trkpt>
      <trkpt lat="62.53402" lon="6.44965">
        <ele>86.459229</ele>
        <time>2020-08-01T09:27:04.638Z</time>
      </trkpt>
      <trkpt lat="62.53401" lon="6.44942">
        <ele>86.687417</ele>
        <time>2020-08-01T09:27:08.602Z</time>
      </trkpt>
      <trkpt lat="62.534" lon="6.44922">
        <ele>86.895735</ele>
        <time>2020-08-01T09:27:12.597Z</time>
      </trkpt>
      <trkpt lat="62.53399" lon="6.44902">
        <ele>87.101621</ele>
        <time>2020-08-01T09:27:16.608Z</time>
      </trkpt>
      <trkpt lat="62.53399" lon="6.4488">
        <ele>87.32272</ele>
        <time>2020-08-01T09:27:20.596Z</time>
      </trkpt>
      <trkpt lat="62.534" lon="6.44858">
        <ele>87.541003</ele>
        <time>2020-08-01T09:27:24.594Z</time>
      </trkpt>
      <trkpt lat="62.534" lon="6.44834">
        <ele>87.786288</ele>
        <time>2020-08-01T09:27:28.644Z</time>
      </trkpt>
      <trkpt lat="62.53401" lon="6.44814">
        <ele>87.989674</ele>
        <time>2020-08-01T09:27:31.613Z</time>
      </trkpt>
      <trkpt lat="62.53402" lon="6.44795">
        <ele>88.186877</ele>
        <time>2020-08-01T09:27:34.600Z</time>
      </trkpt>
      <trkpt lat="62.534" lon="6.44771">
        <ele>88.43395</ele>
        <time>2020-08-01T09:27:38.604Z</time>
      </trkpt>
      <trkpt lat="62.53398" lon="6.44745">
        <ele>88.694082</ele>
        <time>2020-08-01T09:27:42.585Z</time>
      </trkpt>
      <trkpt lat="62.53397" lon="6.44724">
        <ele>88.914388</ele>
        <time>2020-08-01T09:27:45.602Z</time>
      </trkpt>
      <trkpt lat="62.53396" lon="6.447">
        <ele>89.157589</ele>
        <time>2020-08-01T09:27:48.606Z</time>
      </trkpt>
      <trkpt lat="62.53395" lon="6.44675">
        <ele>89.175339</ele>
        <time>2020-08-01T09:27:51.613Z</time>
      </trkpt>
      <trkpt lat="62.53393" lon="6.4465">
        <ele>89.161263</ele>
        <time>2020-08-01T09:27:54.588Z</time>
      </trkpt>
      <trkpt lat="62.53391" lon="6.44628">
        <ele>89.148221</ele>
        <time>2020-08-01T09:27:57.588Z</time>
      </trkpt>
      <trkpt lat="62.5339" lon="6.44605">
        <ele>89.135214</ele>
        <time>2020-08-01T09:28:00.613Z</time>
      </trkpt>
      <trkpt lat="62.53388" lon="6.44582">
        <ele>89.121732</ele>
        <time>2020-08-01T09:28:03.612Z</time>
      </trkpt>
      <trkpt lat="62.53385" lon="6.44557">
        <ele>89.107139</ele>
        <time>2020-08-01T09:28:06.593Z</time>
      </trkpt>
      <trkpt lat="62.53384" lon="6.44532">
        <ele>89.092617</ele>
        <time>2020-08-01T09:28:09.642Z</time>
      </trkpt>
      <trkpt lat="62.53383" lon="6.44505">
        <ele>89.076996</ele>
        <time>2020-08-01T09:28:12.620Z</time>
      </trkpt>
      <trkpt lat="62.53383" lon="6.44485">
        <ele>89.065639</ele>
        <time>2020-08-01T09:28:14.605Z</time>
      </trkpt>
      <trkpt lat="62.53382" lon="6.44465">
        <ele>89.054449</ele>
        <time>2020-08-01T09:28:16.699Z</time>
      </trkpt>
      <trkpt lat="62.53382" lon="6.44437">
        <ele>89.03847</ele>
        <time>2020-08-01T09:28:19.605Z</time>
      </trkpt>
      <trkpt lat="62.53381" lon="6.44411">
        <ele>89.023493</ele>
        <time>2020-08-01T09:28:22.604Z</time>
      </trkpt>
      <trkpt lat="62.53381" lon="6.44385">
        <ele>89.008715</ele>
        <time>2020-08-01T09:28:25.593Z</time>
      </trkpt>
      <trkpt lat="62.53382" lon="6.44356">
        <ele>88.99188</ele>
        <time>2020-08-01T09:28:28.596Z</time>
      </trkpt>
      <trkpt lat="62.53384" lon="6.44333">
        <ele>88.978894</ele>
        <time>2020-08-01T09:28:30.597Z</time>
      </trkpt>
      <trkpt lat="62.53386" lon="6.4431">
        <ele>88.973676</ele>
        <time>2020-08-01T09:28:32.612Z</time>
      </trkpt>
      <trkpt lat="62.53388" lon="6.44288">
        <ele>89.284738</ele>
        <time>2020-08-01T09:28:34.587Z</time>
      </trkpt>
      <trkpt lat="62.5339" lon="6.44268">
        <ele>89.567932</ele>
        <time>2020-08-01T09:28:36.589Z</time>
      </trkpt>
      <trkpt lat="62.53392" lon="6.44242">
        <ele>89.926162</ele>
        <time>2020-08-01T09:28:39.590Z</time>
      </trkpt>
      <trkpt lat="62.53394" lon="6.44218">
        <ele>90.270946</ele>
        <time>2020-08-01T09:28:42.647Z</time>
      </trkpt>
      <trkpt lat="62.53396" lon="6.44196">
        <ele>90.586667</ele>
        <time>2020-08-01T09:28:45.623Z</time>
      </trkpt>
      <trkpt lat="62.53397" lon="6.44174">
        <ele>90.883506</ele>
        <time>2020-08-01T09:28:49.625Z</time>
      </trkpt>
      <trkpt lat="62.53398" lon="6.44153">
        <ele>91.187685</ele>
        <time>2020-08-01T09:28:53.621Z</time>
      </trkpt>
      <trkpt lat="62.534" lon="6.44133">
        <ele>91.466217</ele>
        <time>2020-08-01T09:28:56.589Z</time>
      </trkpt>
      <trkpt lat="62.53402" lon="6.44109">
        <ele>91.807646</ele>
        <time>2020-08-01T09:29:00.628Z</time>
      </trkpt>
      <trkpt lat="62.53404" lon="6.44085">
        <ele>92.137849</ele>
        <time>2020-08-01T09:29:04.613Z</time>
      </trkpt>
      <trkpt lat="62.53405" lon="6.44061">
        <ele>92.473345</ele>
        <time>2020-08-01T09:29:08.610Z</time>
      </trkpt>
      <trkpt lat="62.53407" lon="6.44042">
        <ele>92.750283</ele>
        <time>2020-08-01T09:29:11.623Z</time>
      </trkpt>
      <trkpt lat="62.53409" lon="6.44023">
        <ele>93.020471</ele>
        <time>2020-08-01T09:29:14.604Z</time>
      </trkpt>
      <trkpt lat="62.5341" lon="6.43998">
        <ele>93.364585</ele>
        <time>2020-08-01T09:29:18.617Z</time>
      </trkpt>
      <trkpt lat="62.53411" lon="6.43978">
        <ele>93.65442</ele>
        <time>2020-08-01T09:29:21.610Z</time>
      </trkpt>
      <trkpt lat="62.53413" lon="6.43957">
        <ele>93.954558</ele>
        <time>2020-08-01T09:29:24.603Z</time>
      </trkpt>
      <trkpt lat="62.53415" lon="6.43935">
        <ele>94.260972</ele>
        <time>2020-08-01T09:29:27.586Z</time>
      </trkpt>
      <trkpt lat="62.53417" lon="6.43912">
        <ele>94.357291</ele>
        <time>2020-08-01T09:29:30.604Z</time>
      </trkpt>
      <trkpt lat="62.53419" lon="6.4389">
        <ele>94.315213</ele>
        <time>2020-08-01T09:29:33.601Z</time>
      </trkpt>
      <trkpt lat="62.53422" lon="6.43868">
        <ele>94.271602</ele>
        <time>2020-08-01T09:29:36.617Z</time>
      </trkpt>
      <trkpt lat="62.53424" lon="6.43846">
        <ele>94.230466</ele>
        <time>2020-08-01T09:29:39.596Z</time>
      </trkpt>
      <trkpt lat="62.53426" lon="6.43822">
        <ele>94.184055</ele>
        <time>2020-08-01T09:29:43.626Z</time>
      </trkpt>
      <trkpt lat="62.53427" lon="6.43799">
        <ele>94.140924</ele>
        <time>2020-08-01T09:29:47.615Z</time>
      </trkpt>
      <trkpt lat="62.53427" lon="6.43775">
        <ele>94.093948</ele>
        <time>2020-08-01T09:29:51.604Z</time>
      </trkpt>
      <trkpt lat="62.53428" lon="6.43754">
        <ele>94.055223</ele>
        <time>2020-08-01T09:29:54.608Z</time>
      </trkpt>
      <trkpt lat="62.53429" lon="6.43735">
        <ele>94.017936</ele>
        <time>2020-08-01T09:29:57.596Z</time>
      </trkpt>
      <trkpt lat="62.53428" lon="6.43715">
        <ele>93.979853</ele>
        <time>2020-08-01T09:30:00.606Z</time>
      </trkpt>
      <trkpt lat="62.53426" lon="6.43691">
        <ele>93.935423</ele>
        <time>2020-08-01T09:30:03.590Z</time>
      </trkpt>
      <trkpt lat="62.53425" lon="6.43666">
        <ele>93.887135</ele>
        <time>2020-08-01T09:30:06.591Z</time>
      </trkpt>
      <trkpt lat="62.53422" lon="6.4364">
        <ele>93.835846</ele>
        <time>2020-08-01T09:30:09.618Z</time>
      </trkpt>
      <trkpt lat="62.53421" lon="6.43618">
        <ele>93.794121</ele>
        <time>2020-08-01T09:30:11.593Z</time>
      </trkpt>
      <trkpt lat="62.53419" lon="6.43591">
        <ele>93.742847</ele>
        <time>2020-08-01T09:30:13.617Z</time>
      </trkpt>
      <trkpt lat="62.53416" lon="6.43559">
        <ele>93.681709</ele>
        <time>2020-08-01T09:30:15.593Z</time>
      </trkpt>
      <trkpt lat="62.53415" lon="6.43524">
        <ele>93.582598</ele>
        <time>2020-08-01T09:30:17.647Z</time>
      </trkpt>
      <trkpt lat="62.53416" lon="6.43487">
        <ele>93.437487</ele>
        <time>2020-08-01T09:30:19.604Z</time>
      </trkpt>
      <trkpt lat="62.53418" lon="6.4345">
        <ele>93.293019</ele>
        <time>2020-08-01T09:30:21.610Z</time>
      </trkpt>
      <trkpt lat="62.53421" lon="6.43416">
        <ele>93.159026</ele>
        <time>2020-08-01T09:30:23.587Z</time>
      </trkpt>
      <trkpt lat="62.53422" lon="6.43386">
        <ele>93.043369</ele>
        <time>2020-08-01T09:30:25.640Z</time>
      </trkpt>
      <trkpt lat="62.53423" lon="6.4336">
        <ele>92.939758</ele>
        <time>2020-08-01T09:30:27.598Z</time>
      </trkpt>
      <trkpt lat="62.53424" lon="6.43338">
        <ele>92.853546</ele>
        <time>2020-08-01T09:30:29.605Z</time>
      </trkpt>
      <trkpt lat="62.53425" lon="6.43312">
        <ele>92.752466</ele>
        <time>2020-08-01T09:30:32.605Z</time>
      </trkpt>
      <trkpt lat="62.53426" lon="6.43292">
        <ele>92.676641</ele>
        <time>2020-08-01T09:30:35.608Z</time>
      </trkpt>
      <trkpt lat="62.53426" lon="6.43267">
        <ele>92.577726</ele>
        <time>2020-08-01T09:30:39.640Z</time>
      </trkpt>
      <trkpt lat="62.53428" lon="6.43243">
        <ele>92.484992</ele>
        <time>2020-08-01T09:30:42.623Z</time>
      </trkpt>
      <trkpt lat="62.5343" lon="6.43224">
        <ele>92.4098</ele>
        <time>2020-08-01T09:30:44.597Z</time>
      </trkpt>
      <trkpt lat="62.53433" lon="6.43204">
        <ele>92.328003</ele>
        <time>2020-08-01T09:30:46.585Z</time>
      </trkpt>
      <trkpt lat="62.53436" lon="6.43184">
        <ele>92.245246</ele>
        <time>2020-08-01T09:30:48.606Z</time>
      </trkpt>
      <trkpt lat="62.53439" lon="6.43157">
        <ele>92.138316</ele>
        <time>2020-08-01T09:30:51.589Z</time>
      </trkpt>
      <trkpt lat="62.5344" lon="6.43133">
        <ele>92.269491</ele>
        <time>2020-08-01T09:30:54.614Z</time>
      </trkpt>
      <trkpt lat="62.53442" lon="6.43109">
        <ele>92.409169</ele>
        <time>2020-08-01T09:30:57.596Z</time>
      </trkpt>
      <trkpt lat="62.53442" lon="6.43085">
        <ele>92.552293</ele>
        <time>2020-08-01T09:31:00.609Z</time>
      </trkpt>
      <trkpt lat="62.53442" lon="6.43062">
        <ele>92.684975</ele>
        <time>2020-08-01T09:31:03.600Z</time>
      </trkpt>
      <trkpt lat="62.5344" lon="6.43038">
        <ele>92.825475</ele>
        <time>2020-08-01T09:31:06.612Z</time>
      </trkpt>
      <trkpt lat="62.53438" lon="6.43015">
        <ele>92.959087</ele>
        <time>2020-08-01T09:31:09.592Z</time>
      </trkpt>
      <trkpt lat="62.53437" lon="6.42994">
        <ele>93.085345</ele>
        <time>2020-08-01T09:31:12.601Z</time>
      </trkpt>
      <trkpt lat="62.53436" lon="6.4297">
        <ele>93.221704</ele>
        <time>2020-08-01T09:31:15.601Z</time>
      </trkpt>
      <trkpt lat="62.53434" lon="6.42943">
        <ele>93.379425</ele>
        <time>2020-08-01T09:31:18.608Z</time>
      </trkpt>
      <trkpt lat="62.53433" lon="6.42924">
        <ele>93.49284</ele>
        <time>2020-08-01T09:31:20.611Z</time>
      </trkpt>
      <trkpt lat="62.53433" lon="6.42903">
        <ele>93.612948</ele>
        <time>2020-08-01T09:31:22.625Z</time>
      </trkpt>
      <trkpt lat="62.53432" lon="6.4288">
        <ele>93.747182</ele>
        <time>2020-08-01T09:31:24.619Z</time>
      </trkpt>
      <trkpt lat="62.53432" lon="6.42857">
        <ele>93.88314</ele>
        <time>2020-08-01T09:31:26.597Z</time>
      </trkpt>
      <trkpt lat="62.53432" lon="6.42834">
        <ele>94.014451</ele>
        <time>2020-08-01T09:31:28.599Z</time>
      </trkpt>
      <trkpt lat="62.53432" lon="6.42813">
        <ele>94.138203</ele>
        <time>2020-08-01T09:31:30.581Z</time>
      </trkpt>
      <trkpt lat="62.53433" lon="6.42793">
        <ele>94.255092</ele>
        <time>2020-08-01T09:31:32.592Z</time>
      </trkpt>
      <trkpt lat="62.53434" lon="6.42773">
        <ele>94.371309</ele>
        <time>2020-08-01T09:31:34.603Z</time>
      </trkpt>
      <trkpt lat="62.53435" lon="6.42753">
        <ele>94.267466</ele>
        <time>2020-08-01T09:31:36.594Z</time>
      </trkpt>
      <trkpt lat="62.53435" lon="6.42733">
        <ele>94.087522</ele>
        <time>2020-08-01T09:31:38.592Z</time>
      </trkpt>
      <trkpt lat="62.53436" lon="6.42712">
        <ele>93.904691</ele>
        <time>2020-08-01T09:31:40.606Z</time>
      </trkpt>
      <trkpt lat="62.53436" lon="6.4269">
        <ele>93.713932</ele>
        <time>2020-08-01T09:31:42.606Z</time>
      </trkpt>
      <trkpt lat="62.53436" lon="6.42667">
        <ele>93.506575</ele>
        <time>2020-08-01T09:31:44.649Z</time>
      </trkpt>
      <trkpt lat="62.53437" lon="6.42641">
        <ele>93.27712</ele>
        <time>2020-08-01T09:31:46.604Z</time>
      </trkpt>
      <trkpt lat="62.53438" lon="6.42613">
        <ele>93.034356</ele>
        <time>2020-08-01T09:31:48.623Z</time>
      </trkpt>
      <trkpt lat="62.53438" lon="6.42587">
        <ele>92.79866</ele>
        <time>2020-08-01T09:31:50.607Z</time>
      </trkpt>
      <trkpt lat="62.53439" lon="6.4256">
        <ele>92.563845</ele>
        <time>2020-08-01T09:31:52.586Z</time>
      </trkpt>
      <trkpt lat="62.53439" lon="6.42535">
        <ele>92.343262</ele>
        <time>2020-08-01T09:31:54.632Z</time>
      </trkpt>
      <trkpt lat="62.5344" lon="6.42512">
        <ele>92.139289</ele>
        <time>2020-08-01T09:31:56.624Z</time>
      </trkpt>
      <trkpt lat="62.5344" lon="6.42491">
        <ele>91.950379</ele>
        <time>2020-08-01T09:31:58.588Z</time>
      </trkpt>
      <trkpt lat="62.5344" lon="6.4247">
        <ele>91.766877</ele>
        <time>2020-08-01T09:32:00.598Z</time>
      </trkpt>
      <trkpt lat="62.53441" lon="6.42448">
        <ele>91.573627</ele>
        <time>2020-08-01T09:32:02.654Z</time>
      </trkpt>
      <trkpt lat="62.53441" lon="6.42427">
        <ele>91.392559</ele>
        <time>2020-08-01T09:32:04.624Z</time>
      </trkpt>
      <trkpt lat="62.53442" lon="6.424">
        <ele>91.147852</ele>
        <time>2020-08-01T09:32:07.622Z</time>
      </trkpt>
      <trkpt lat="62.53443" lon="6.42374">
        <ele>90.865706</ele>
        <time>2020-08-01T09:32:10.613Z</time>
      </trkpt>
      <trkpt lat="62.53444" lon="6.42344">
        <ele>90.232106</ele>
        <time>2020-08-01T09:32:13.602Z</time>
      </trkpt>
      <trkpt lat="62.53444" lon="6.42319">
        <ele>89.703002</ele>
        <time>2020-08-01T09:32:15.643Z</time>
      </trkpt>
      <trkpt lat="62.53444" lon="6.42291">
        <ele>89.114495</ele>
        <time>2020-08-01T09:32:17.609Z</time>
      </trkpt>
      <trkpt lat="62.53446" lon="6.42261">
        <ele>88.47515</ele>
        <time>2020-08-01T09:32:19.612Z</time>
      </trkpt>
      <trkpt lat="62.53448" lon="6.42227">
        <ele>87.760583</ele>
        <time>2020-08-01T09:32:21.590Z</time>
      </trkpt>
      <trkpt lat="62.5345" lon="6.42192">
        <ele>87.023112</ele>
        <time>2020-08-01T09:32:23.602Z</time>
      </trkpt>
      <trkpt lat="62.53453" lon="6.42157">
        <ele>86.286426</ele>
        <time>2020-08-01T09:32:25.601Z</time>
      </trkpt>
      <trkpt lat="62.53455" lon="6.42124">
        <ele>85.582944</ele>
        <time>2020-08-01T09:32:27.600Z</time>
      </trkpt>
      <trkpt lat="62.53458" lon="6.42094">
        <ele>84.924079</ele>
        <time>2020-08-01T09:32:29.598Z</time>
      </trkpt>
      <trkpt lat="62.53461" lon="6.42066">
        <ele>84.327713</ele>
        <time>2020-08-01T09:32:31.584Z</time>
      </trkpt>
      <trkpt lat="62.53463" lon="6.4204">
        <ele>83.769823</ele>
        <time>2020-08-01T09:32:33.622Z</time>
      </trkpt>
      <trkpt lat="62.53466" lon="6.42015">
        <ele>83.240958</ele>
        <time>2020-08-01T09:32:35.601Z</time>
      </trkpt>
      <trkpt lat="62.53469" lon="6.41991">
        <ele>82.801755</ele>
        <time>2020-08-01T09:32:37.643Z</time>
      </trkpt>
      <trkpt lat="62.53471" lon="6.41967">
        <ele>83.073863</ele>
        <time>2020-08-01T09:32:39.648Z</time>
      </trkpt>
      <trkpt lat="62.53473" lon="6.41942">
        <ele>83.351016</ele>
        <time>2020-08-01T09:32:41.591Z</time>
      </trkpt>
      <trkpt lat="62.53476" lon="6.41917">
        <ele>83.625258</ele>
        <time>2020-08-01T09:32:43.608Z</time>
      </trkpt>
      <trkpt lat="62.53479" lon="6.41895">
        <ele>83.874069</ele>
        <time>2020-08-01T09:32:45.582Z</time>
      </trkpt>
      <trkpt lat="62.53481" lon="6.41876">
        <ele>84.093594</ele>
        <time>2020-08-01T09:32:47.617Z</time>
      </trkpt>
      <trkpt lat="62.53484" lon="6.4185">
        <ele>84.384822</ele>
        <time>2020-08-01T09:32:50.626Z</time>
      </trkpt>
      <trkpt lat="62.53485" lon="6.41823">
        <ele>84.678678</ele>
        <time>2020-08-01T09:32:53.591Z</time>
      </trkpt>
      <trkpt lat="62.53486" lon="6.41798">
        <ele>84.957529</ele>
        <time>2020-08-01T09:32:56.609Z</time>
      </trkpt>
      <trkpt lat="62.53488" lon="6.41775">
        <ele>85.209154</ele>
        <time>2020-08-01T09:32:59.612Z</time>
      </trkpt>
      <trkpt lat="62.5349" lon="6.41753">
        <ele>85.455858</ele>
        <time>2020-08-01T09:33:02.641Z</time>
      </trkpt>
      <trkpt lat="62.53492" lon="6.41732">
        <ele>85.690731</ele>
        <time>2020-08-01T09:33:05.598Z</time>
      </trkpt>
      <trkpt lat="62.53495" lon="6.41708">
        <ele>85.958081</ele>
        <time>2020-08-01T09:33:09.590Z</time>
      </trkpt>
      <trkpt lat="62.53498" lon="6.41686">
        <ele>86.206253</ele>
        <time>2020-08-01T09:33:13.600Z</time>
      </trkpt>
      <trkpt lat="62.53499" lon="6.41666">
        <ele>86.423649</ele>
        <time>2020-08-01T09:33:17.637Z</time>
      </trkpt>
      <trkpt lat="62.53501" lon="6.41644">
        <ele>86.674837</ele>
        <time>2020-08-01T09:33:22.594Z</time>
      </trkpt>
      <trkpt lat="62.53503" lon="6.41621">
        <ele>86.923242</ele>
        <time>2020-08-01T09:33:27.588Z</time>
      </trkpt>
      <trkpt lat="62.53503" lon="6.41599">
        <ele>87.055413</ele>
        <time>2020-08-01T09:33:31.624Z</time>
      </trkpt>
      <trkpt lat="62.53504" lon="6.4158">
        <ele>87.100979</ele>
        <time>2020-08-01T09:33:34.587Z</time>
      </trkpt>
      <trkpt lat="62.53505" lon="6.41558">
        <ele>87.149509</ele>
        <time>2020-08-01T09:33:37.612Z</time>
      </trkpt>
      <trkpt lat="62.53507" lon="6.41534">
        <ele>87.20559</ele>
        <time>2020-08-01T09:33:40.596Z</time>
      </trkpt>
      <trkpt lat="62.53508" lon="6.41506">
        <ele>87.27112</ele>
        <time>2020-08-01T09:33:43.621Z</time>
      </trkpt>
      <trkpt lat="62.53507" lon="6.41485">
        <ele>87.318621</ele>
        <time>2020-08-01T09:33:45.589Z</time>
      </trkpt>
      <trkpt lat="62.53505" lon="6.41464">
        <ele>87.366464</ele>
        <time>2020-08-01T09:33:47.611Z</time>
      </trkpt>
      <trkpt lat="62.53504" lon="6.41442">
        <ele>87.418983</ele>
        <time>2020-08-01T09:33:49.625Z</time>
      </trkpt>
      <trkpt lat="62.53503" lon="6.41418">
        <ele>87.473944</ele>
        <time>2020-08-01T09:33:51.598Z</time>
      </trkpt>
      <trkpt lat="62.53502" lon="6.41393">
        <ele>87.531711</ele>
        <time>2020-08-01T09:33:53.606Z</time>
      </trkpt>
      <trkpt lat="62.53502" lon="6.41366">
        <ele>87.593547</ele>
        <time>2020-08-01T09:33:55.604Z</time>
      </trkpt>
      <trkpt lat="62.53503" lon="6.41337">
        <ele>87.658377</ele>
        <time>2020-08-01T09:33:57.596Z</time>
      </trkpt>
      <trkpt lat="62.53503" lon="6.41309">
        <ele>87.723513</ele>
        <time>2020-08-01T09:33:59.600Z</time>
      </trkpt>
      <trkpt lat="62.53504" lon="6.41282">
        <ele>87.785128</ele>
        <time>2020-08-01T09:34:01.613Z</time>
      </trkpt>
      <trkpt lat="62.53502" lon="6.41257">
        <ele>87.842692</ele>
        <time>2020-08-01T09:34:03.608Z</time>
      </trkpt>
      <trkpt lat="62.53502" lon="6.41232">
        <ele>87.900025</ele>
        <time>2020-08-01T09:34:05.599Z</time>
      </trkpt>
      <trkpt lat="62.53502" lon="6.41203">
        <ele>87.559197</ele>
        <time>2020-08-01T09:34:07.637Z</time>
      </trkpt>
      <trkpt lat="62.53503" lon="6.41173">
        <ele>87.010344</ele>
        <time>2020-08-01T09:34:09.610Z</time>
      </trkpt>
      <trkpt lat="62.53505" lon="6.41143">
        <ele>86.459585</ele>
        <time>2020-08-01T09:34:11.609Z</time>
      </trkpt>
      <trkpt lat="62.53507" lon="6.41114">
        <ele>85.915208</ele>
        <time>2020-08-01T09:34:13.599Z</time>
      </trkpt>
      <trkpt lat="62.53509" lon="6.41085">
        <ele>85.393534</ele>
        <time>2020-08-01T09:34:15.606Z</time>
      </trkpt>
      <trkpt lat="62.53511" lon="6.41058">
        <ele>84.88389</ele>
        <time>2020-08-01T09:34:17.621Z</time>
      </trkpt>
      <trkpt lat="62.53512" lon="6.41033">
        <ele>84.433185</ele>
        <time>2020-08-01T09:34:19.592Z</time>
      </trkpt>
      <trkpt lat="62.53513" lon="6.41011">
        <ele>84.025709</ele>
        <time>2020-08-01T09:34:21.604Z</time>
      </trkpt>
      <trkpt lat="62.53512" lon="6.40991">
        <ele>83.66753</ele>
        <time>2020-08-01T09:34:23.615Z</time>
      </trkpt>
      <trkpt lat="62.53512" lon="6.40962">
        <ele>83.140375</ele>
        <time>2020-08-01T09:34:26.612Z</time>
      </trkpt>
      <trkpt lat="62.53512" lon="6.40941">
        <ele>82.758143</ele>
        <time>2020-08-01T09:34:28.609Z</time>
      </trkpt>
      <trkpt lat="62.53511" lon="6.40918">
        <ele>82.339398</ele>
        <time>2020-08-01T09:34:30.643Z</time>
      </trkpt>
      <trkpt lat="62.5351" lon="6.40893">
        <ele>81.88902</ele>
        <time>2020-08-01T09:34:32.596Z</time>
      </trkpt>
      <trkpt lat="62.53509" lon="6.40867">
        <ele>81.411456</ele>
        <time>2020-08-01T09:34:34.601Z</time>
      </trkpt>
      <trkpt lat="62.53509" lon="6.4084">
        <ele>80.918788</ele>
        <time>2020-08-01T09:34:36.599Z</time>
      </trkpt>
      <trkpt lat="62.53509" lon="6.40813">
        <ele>80.575993</ele>
        <time>2020-08-01T09:34:38.602Z</time>
      </trkpt>
      <trkpt lat="62.5351" lon="6.40786">
        <ele>80.266053</ele>
        <time>2020-08-01T09:34:40.588Z</time>
      </trkpt>
      <trkpt lat="62.5351" lon="6.4076">
        <ele>79.963134</ele>
        <time>2020-08-01T09:34:42.617Z</time>
      </trkpt>
      <trkpt lat="62.5351" lon="6.40735">
        <ele>79.669615</ele>
        <time>2020-08-01T09:34:44.600Z</time>
      </trkpt>
      <trkpt lat="62.5351" lon="6.4071">
        <ele>79.386406</ele>
        <time>2020-08-01T09:34:46.591Z</time>
      </trkpt>
      <trkpt lat="62.5351" lon="6.40686">
        <ele>79.103253</ele>
        <time>2020-08-01T09:34:48.607Z</time>
      </trkpt>
      <trkpt lat="62.53509" lon="6.40659">
        <ele>78.798753</ele>
        <time>2020-08-01T09:34:50.626Z</time>
      </trkpt>
      <trkpt lat="62.53507" lon="6.40632">
        <ele>78.477312</ele>
        <time>2020-08-01T09:34:52.609Z</time>
      </trkpt>
      <trkpt lat="62.53506" lon="6.40603">
        <ele>78.139707</ele>
        <time>2020-08-01T09:34:54.616Z</time>
      </trkpt>
      <trkpt lat="62.53504" lon="6.40571">
        <ele>77.776046</ele>
        <time>2020-08-01T09:34:56.607Z</time>
      </trkpt>
      <trkpt lat="62.53503" lon="6.40539">
        <ele>77.40231</ele>
        <time>2020-08-01T09:34:58.642Z</time>
      </trkpt>
      <trkpt lat="62.53501" lon="6.40507">
        <ele>77.032385</ele>
        <time>2020-08-01T09:35:00.603Z</time>
      </trkpt>
      <trkpt lat="62.535" lon="6.40475">
        <ele>76.651968</ele>
        <time>2020-08-01T09:35:02.607Z</time>
      </trkpt>
      <trkpt lat="62.53499" lon="6.40442">
        <ele>76.318854</ele>
        <time>2020-08-01T09:35:04.608Z</time>
      </trkpt>
      <trkpt lat="62.53499" lon="6.40409">
        <ele>76.271839</ele>
        <time>2020-08-01T09:35:06.624Z</time>
      </trkpt>
      <trkpt lat="62.535" lon="6.40375">
        <ele>76.223754</ele>
        <time>2020-08-01T09:35:08.619Z</time>
      </trkpt>
      <trkpt lat="62.53501" lon="6.40343">
        <ele>76.177447</ele>
        <time>2020-08-01T09:35:10.607Z</time>
      </trkpt>
      <trkpt lat="62.53503" lon="6.40311">
        <ele>76.131591</ele>
        <time>2020-08-01T09:35:12.592Z</time>
      </trkpt>
      <trkpt lat="62.53505" lon="6.40279">
        <ele>76.086049</ele>
        <time>2020-08-01T09:35:14.629Z</time>
      </trkpt>
      <trkpt lat="62.53506" lon="6.40248">
        <ele>76.042169</ele>
        <time>2020-08-01T09:35:16.605Z</time>
      </trkpt>
      <trkpt lat="62.53509" lon="6.40219">
        <ele>75.999989</ele>
        <time>2020-08-01T09:35:18.594Z</time>
      </trkpt>
      <trkpt lat="62.53511" lon="6.40191">
        <ele>75.959466</ele>
        <time>2020-08-01T09:35:20.607Z</time>
      </trkpt>
      <trkpt lat="62.53513" lon="6.40163">
        <ele>75.918846</ele>
        <time>2020-08-01T09:35:22.585Z</time>
      </trkpt>
      <trkpt lat="62.53514" lon="6.40135">
        <ele>75.879093</ele>
        <time>2020-08-01T09:35:24.593Z</time>
      </trkpt>
      <trkpt lat="62.53516" lon="6.40109">
        <ele>75.842442</ele>
        <time>2020-08-01T09:35:26.597Z</time>
      </trkpt>
      <trkpt lat="62.53517" lon="6.40086">
        <ele>75.808862</ele>
        <time>2020-08-01T09:35:28.584Z</time>
      </trkpt>
      <trkpt lat="62.53518" lon="6.40065">
        <ele>75.778986</ele>
        <time>2020-08-01T09:35:30.611Z</time>
      </trkpt>
      <trkpt lat="62.53519" lon="6.40037">
        <ele>76.189667</ele>
        <time>2020-08-01T09:35:33.599Z</time>
      </trkpt>
      <trkpt lat="62.53518" lon="6.4001">
        <ele>76.703993</ele>
        <time>2020-08-01T09:35:36.606Z</time>
      </trkpt>
      <trkpt lat="62.53517" lon="6.39985">
        <ele>77.191396</ele>
        <time>2020-08-01T09:35:39.613Z</time>
      </trkpt>
      <trkpt lat="62.53519" lon="6.39957">
        <ele>77.730512</ele>
        <time>2020-08-01T09:35:42.629Z</time>
      </trkpt>
      <trkpt lat="62.53522" lon="6.39929">
        <ele>78.281624</ele>
        <time>2020-08-01T09:35:45.607Z</time>
      </trkpt>
      <trkpt lat="62.53525" lon="6.39902">
        <ele>78.809729</ele>
        <time>2020-08-01T09:35:48.608Z</time>
      </trkpt>
      <trkpt lat="62.53526" lon="6.3988">
        <ele>79.231296</ele>
        <time>2020-08-01T09:35:51.608Z</time>
      </trkpt>
      <trkpt lat="62.53524" lon="6.39855">
        <ele>79.700713</ele>
        <time>2020-08-01T09:35:54.594Z</time>
      </trkpt>
      <trkpt lat="62.53525" lon="6.39827">
        <ele>80.227298</ele>
        <time>2020-08-01T09:35:57.606Z</time>
      </trkpt>
      <trkpt lat="62.53526" lon="6.39808">
        <ele>80.606708</ele>
        <time>2020-08-01T09:35:59.600Z</time>
      </trkpt>
      <trkpt lat="62.53526" lon="6.39787">
        <ele>81.0091</ele>
        <time>2020-08-01T09:36:01.606Z</time>
      </trkpt>
      <trkpt lat="62.53526" lon="6.39765">
        <ele>81.426912</ele>
        <time>2020-08-01T09:36:03.594Z</time>
      </trkpt>
      <trkpt lat="62.53527" lon="6.39743">
        <ele>81.831951</ele>
        <time>2020-08-01T09:36:05.624Z</time>
      </trkpt>
      <trkpt lat="62.53528" lon="6.39722">
        <ele>82.241155</ele>
        <time>2020-08-01T09:36:07.603Z</time>
      </trkpt>
      <trkpt lat="62.53529" lon="6.39703">
        <ele>82.614483</ele>
        <time>2020-08-01T09:36:09.628Z</time>
      </trkpt>
      <trkpt lat="62.5353" lon="6.39675">
        <ele>83.139344</ele>
        <time>2020-08-01T09:36:12.603Z</time>
      </trkpt>
      <trkpt lat="62.53531" lon="6.39649">
        <ele>83.327687</ele>
        <time>2020-08-01T09:36:15.613Z</time>
      </trkpt>
      <trkpt lat="62.53532" lon="6.39622">
        <ele>83.463685</ele>
        <time>2020-08-01T09:36:18.607Z</time>
      </trkpt>
      <trkpt lat="62.53533" lon="6.39595">
        <ele>83.607203</ele>
        <time>2020-08-01T09:36:21.620Z</time>
      </trkpt>
      <trkpt lat="62.53533" lon="6.39568">
        <ele>83.747772</ele>
        <time>2020-08-01T09:36:24.598Z</time>
      </trkpt>
      <trkpt lat="62.53532" lon="6.39539">
        <ele>83.89541</ele>
        <time>2020-08-01T09:36:27.625Z</time>
      </trkpt>
      <trkpt lat="62.53532" lon="6.3952">
        <ele>83.99619</ele>
        <time>2020-08-01T09:36:29.626Z</time>
      </trkpt>
      <trkpt lat="62.53533" lon="6.395">
        <ele>84.098764</ele>
        <time>2020-08-01T09:36:31.606Z</time>
      </trkpt>
      <trkpt lat="62.53534" lon="6.39472">
        <ele>84.244122</ele>
        <time>2020-08-01T09:36:34.633Z</time>
      </trkpt>
      <trkpt lat="62.53534" lon="6.39451">
        <ele>84.349644</ele>
        <time>2020-08-01T09:36:36.585Z</time>
      </trkpt>
      <trkpt lat="62.53535" lon="6.39431">
        <ele>84.455682</ele>
        <time>2020-08-01T09:36:38.611Z</time>
      </trkpt>
      <trkpt lat="62.53535" lon="6.39409">
        <ele>84.568425</ele>
        <time>2020-08-01T09:36:40.600Z</time>
      </trkpt>
      <trkpt lat="62.53536" lon="6.39386">
        <ele>84.688825</ele>
        <time>2020-08-01T09:36:42.624Z</time>
      </trkpt>
      <trkpt lat="62.53536" lon="6.39363">
        <ele>84.806212</ele>
        <time>2020-08-01T09:36:44.611Z</time>
      </trkpt>
      <trkpt lat="62.53537" lon="6.39342">
        <ele>84.912906</ele>
        <time>2020-08-01T09:36:46.598Z</time>
      </trkpt>
      <trkpt lat="62.53537" lon="6.39323">
        <ele>85.013935</ele>
        <time>2020-08-01T09:36:48.599Z</time>
      </trkpt>
      <trkpt lat="62.53538" lon="6.39294">
        <ele>85.162088</ele>
        <time>2020-08-01T09:36:51.620Z</time>
      </trkpt>
      <trkpt lat="62.53539" lon="6.39266">
        <ele>85.081953</ele>
        <time>2020-08-01T09:36:54.585Z</time>
      </trkpt>
      <trkpt lat="62.53539" lon="6.39238">
        <ele>84.845409</ele>
        <time>2020-08-01T09:36:57.611Z</time>
      </trkpt>
      <trkpt lat="62.5354" lon="6.39218">
        <ele>84.67601</ele>
        <time>2020-08-01T09:36:59.624Z</time>
      </trkpt>
      <trkpt lat="62.53541" lon="6.39196">
        <ele>84.490149</ele>
        <time>2020-08-01T09:37:01.605Z</time>
      </trkpt>
      <trkpt lat="62.53542" lon="6.39174">
        <ele>84.298122</ele>
        <time>2020-08-01T09:37:03.601Z</time>
      </trkpt>
      <trkpt lat="62.53543" lon="6.39151">
        <ele>84.102989</ele>
        <time>2020-08-01T09:37:05.581Z</time>
      </trkpt>
      <trkpt lat="62.53545" lon="6.39129">
        <ele>83.910169</ele>
        <time>2020-08-01T09:37:07.599Z</time>
      </trkpt>
      <trkpt lat="62.53547" lon="6.39107">
        <ele>83.720086</ele>
        <time>2020-08-01T09:37:09.625Z</time>
      </trkpt>
      <trkpt lat="62.53548" lon="6.39084">
        <ele>83.52966</ele>
        <time>2020-08-01T09:37:11.597Z</time>
      </trkpt>
      <trkpt lat="62.53549" lon="6.39064">
        <ele>83.353334</ele>
        <time>2020-08-01T09:37:13.628Z</time>
      </trkpt>
      <trkpt lat="62.5355" lon="6.39044">
        <ele>83.187032</ele>
        <time>2020-08-01T09:37:15.594Z</time>
      </trkpt>
      <trkpt lat="62.53552" lon="6.39016">
        <ele>82.945868</ele>
        <time>2020-08-01T09:37:18.612Z</time>
      </trkpt>
      <trkpt lat="62.53553" lon="6.38989">
        <ele>82.713357</ele>
        <time>2020-08-01T09:37:21.604Z</time>
      </trkpt>
      <trkpt lat="62.53554" lon="6.38963">
        <ele>82.497694</ele>
        <time>2020-08-01T09:37:24.582Z</time>
      </trkpt>
      <trkpt lat="62.53556" lon="6.38942">
        <ele>82.317572</ele>
        <time>2020-08-01T09:37:27.603Z</time>
      </trkpt>
      <trkpt lat="62.53557" lon="6.38918">
        <ele>82.114796</ele>
        <time>2020-08-01T09:37:31.593Z</time>
      </trkpt>
      <trkpt lat="62.53558" lon="6.38898">
        <ele>81.935312</ele>
        <time>2020-08-01T09:37:34.621Z</time>
      </trkpt>
      <trkpt lat="62.53559" lon="6.38877">
        <ele>82.084398</ele>
        <time>2020-08-01T09:37:37.615Z</time>
      </trkpt>
      <trkpt lat="62.53559" lon="6.38854">
        <ele>82.284076</ele>
        <time>2020-08-01T09:37:40.621Z</time>
      </trkpt>
      <trkpt lat="62.53557" lon="6.38828">
        <ele>82.516887</ele>
        <time>2020-08-01T09:37:43.592Z</time>
      </trkpt>
      <trkpt lat="62.53556" lon="6.38804">
        <ele>82.729506</ele>
        <time>2020-08-01T09:37:45.606Z</time>
      </trkpt>
      <trkpt lat="62.53555" lon="6.38778">
        <ele>82.95986</ele>
        <time>2020-08-01T09:37:47.606Z</time>
      </trkpt>
      <trkpt lat="62.53555" lon="6.3875">
        <ele>83.210072</ele>
        <time>2020-08-01T09:37:49.633Z</time>
      </trkpt>
      <trkpt lat="62.53554" lon="6.38721">
        <ele>83.465431</ele>
        <time>2020-08-01T09:37:51.629Z</time>
      </trkpt>
      <trkpt lat="62.53555" lon="6.3869">
        <ele>83.73404</ele>
        <time>2020-08-01T09:37:53.635Z</time>
      </trkpt>
      <trkpt lat="62.53556" lon="6.38657">
        <ele>84.026103</ele>
        <time>2020-08-01T09:37:55.638Z</time>
      </trkpt>
      <trkpt lat="62.53557" lon="6.38627">
        <ele>84.30061</ele>
        <time>2020-08-01T09:37:57.614Z</time>
      </trkpt>
      <trkpt lat="62.53558" lon="6.38597">
        <ele>84.562617</ele>
        <time>2020-08-01T09:37:59.599Z</time>
      </trkpt>
      <trkpt lat="62.5356" lon="6.38568">
        <ele>84.820264</ele>
        <time>2020-08-01T09:38:01.611Z</time>
      </trkpt>
      <trkpt lat="62.53562" lon="6.38542">
        <ele>85.05695</ele>
        <time>2020-08-01T09:38:03.603Z</time>
      </trkpt>
      <trkpt lat="62.53564" lon="6.38518">
        <ele>85.267207</ele>
        <time>2020-08-01T09:38:05.592Z</time>
      </trkpt>
      <trkpt lat="62.53566" lon="6.38497">
        <ele>85.126262</ele>
        <time>2020-08-01T09:38:07.585Z</time>
      </trkpt>
      <trkpt lat="62.53567" lon="6.38478">
        <ele>84.662419</ele>
        <time>2020-08-01T09:38:09.631Z</time>
      </trkpt>
      <trkpt lat="62.53568" lon="6.38449">
        <ele>83.993146</ele>
        <time>2020-08-01T09:38:12.606Z</time>
      </trkpt>
      <trkpt lat="62.53568" lon="6.38428">
        <ele>83.521328</ele>
        <time>2020-08-01T09:38:14.636Z</time>
      </trkpt>
      <trkpt lat="62.53569" lon="6.38408">
        <ele>83.046775</ele>
        <time>2020-08-01T09:38:16.637Z</time>
      </trkpt>
      <trkpt lat="62.5357" lon="6.38388">
        <ele>82.581734</ele>
        <time>2020-08-01T09:38:18.591Z</time>
      </trkpt>
      <trkpt lat="62.53571" lon="6.3836">
        <ele>81.930118</ele>
        <time>2020-08-01T09:38:21.600Z</time>
      </trkpt>
      <trkpt lat="62.53573" lon="6.38333">
        <ele>81.299163</ele>
        <time>2020-08-01T09:38:24.605Z</time>
      </trkpt>
      <trkpt lat="62.53574" lon="6.38306">
        <ele>80.68082</ele>
        <time>2020-08-01T09:38:27.595Z</time>
      </trkpt>
      <trkpt lat="62.53576" lon="6.3828">
        <ele>80.074462</ele>
        <time>2020-08-01T09:38:30.642Z</time>
      </trkpt>
      <trkpt lat="62.53578" lon="6.38255">
        <ele>79.47408</ele>
        <time>2020-08-01T09:38:33.621Z</time>
      </trkpt>
      <trkpt lat="62.53581" lon="6.3823">
        <ele>78.881398</ele>
        <time>2020-08-01T09:38:36.592Z</time>
      </trkpt>
      <trkpt lat="62.53584" lon="6.38205">
        <ele>78.288835</ele>
        <time>2020-08-01T09:38:39.623Z</time>
      </trkpt>
      <trkpt lat="62.53585" lon="6.38177">
        <ele>77.646549</ele>
        <time>2020-08-01T09:38:42.593Z</time>
      </trkpt>
      <trkpt lat="62.53585" lon="6.3815">
        <ele>77.022384</ele>
        <time>2020-08-01T09:38:45.651Z</time>
      </trkpt>
      <trkpt lat="62.53585" lon="6.38123">
        <ele>76.393616</ele>
        <time>2020-08-01T09:38:48.595Z</time>
      </trkpt>
      <trkpt lat="62.53584" lon="6.38096">
        <ele>76.562136</ele>
        <time>2020-08-01T09:38:51.629Z</time>
      </trkpt>
      <trkpt lat="62.53584" lon="6.38069">
        <ele>76.795795</ele>
        <time>2020-08-01T09:38:54.584Z</time>
      </trkpt>
      <trkpt lat="62.53584" lon="6.38042">
        <ele>77.026048</ele>
        <time>2020-08-01T09:38:57.630Z</time>
      </trkpt>
      <trkpt lat="62.53583" lon="6.3802">
        <ele>77.215779</ele>
        <time>2020-08-01T09:39:00.605Z</time>
      </trkpt>
      <trkpt lat="62.53583" lon="6.37998">
        <ele>77.406568</ele>
        <time>2020-08-01T09:39:04.632Z</time>
      </trkpt>
      <trkpt lat="62.53581" lon="6.37971">
        <ele>77.635556</ele>
        <time>2020-08-01T09:39:08.611Z</time>
      </trkpt>
      <trkpt lat="62.53579" lon="6.3795">
        <ele>77.820602</ele>
        <time>2020-08-01T09:39:11.620Z</time>
      </trkpt>
      <trkpt lat="62.53577" lon="6.3793">
        <ele>77.996838</ele>
        <time>2020-08-01T09:39:14.632Z</time>
      </trkpt>
      <trkpt lat="62.53575" lon="6.37906">
        <ele>78.210258</ele>
        <time>2020-08-01T09:39:18.593Z</time>
      </trkpt>
      <trkpt lat="62.53573" lon="6.37886">
        <ele>78.381488</ele>
        <time>2020-08-01T09:39:21.624Z</time>
      </trkpt>
      <trkpt lat="62.53572" lon="6.37866">
        <ele>78.562443</ele>
        <time>2020-08-01T09:39:24.605Z</time>
      </trkpt>
      <trkpt lat="62.53569" lon="6.37845">
        <ele>78.744089</ele>
        <time>2020-08-01T09:39:27.600Z</time>
      </trkpt>
      <trkpt lat="62.53567" lon="6.37825">
        <ele>78.919126</ele>
        <time>2020-08-01T09:39:30.612Z</time>
      </trkpt>
      <trkpt lat="62.53565" lon="6.37801">
        <ele>79.126619</ele>
        <time>2020-08-01T09:39:34.604Z</time>
      </trkpt>
      <trkpt lat="62.53562" lon="6.3778">
        <ele>79.316058</ele>
        <time>2020-08-01T09:39:38.587Z</time>
      </trkpt>
      <trkpt lat="62.53559" lon="6.37762">
        <ele>79.483321</ele>
        <time>2020-08-01T09:39:42.607Z</time>
      </trkpt>
      <trkpt lat="62.53556" lon="6.37741">
        <ele>79.668223</ele>
        <time>2020-08-01T09:39:47.672Z</time>
      </trkpt>
      <trkpt lat="62.53552" lon="6.3772">
        <ele>79.836843</ele>
        <time>2020-08-01T09:39:53.631Z</time>
      </trkpt>
      <trkpt lat="62.53548" lon="6.377">
        <ele>79.985757</ele>
        <time>2020-08-01T09:39:58.580Z</time>
      </trkpt>
      <trkpt lat="62.53544" lon="6.37679">
        <ele>80.148644</ele>
        <time>2020-08-01T09:40:03.598Z</time>
      </trkpt>
      <trkpt lat="62.5354" lon="6.37659">
        <ele>80.296035</ele>
        <time>2020-08-01T09:40:07.616Z</time>
      </trkpt>
      <trkpt lat="62.53535" lon="6.37638">
        <ele>80.462766</ele>
        <time>2020-08-01T09:40:12.609Z</time>
      </trkpt>
      <trkpt lat="62.53533" lon="6.37618">
        <ele>80.607692</ele>
        <time>2020-08-01T09:40:17.616Z</time>
      </trkpt>
      <trkpt lat="62.53528" lon="6.37597">
        <ele>80.770506</ele>
        <time>2020-08-01T09:40:23.597Z</time>
      </trkpt>
      <trkpt lat="62.53525" lon="6.37574">
        <ele>80.939436</ele>
        <time>2020-08-01T09:40:28.591Z</time>
      </trkpt>
      <trkpt lat="62.53521" lon="6.37553">
        <ele>81.091812</ele>
        <time>2020-08-01T09:40:31.605Z</time>
      </trkpt>
      <trkpt lat="62.53517" lon="6.37526">
        <ele>81.293637</ele>
        <time>2020-08-01T09:40:34.617Z</time>
      </trkpt>
      <trkpt lat="62.53514" lon="6.37504">
        <ele>81.449086</ele>
        <time>2020-08-01T09:40:36.602Z</time>
      </trkpt>
      <trkpt lat="62.53511" lon="6.37485">
        <ele>81.590507</ele>
        <time>2020-08-01T09:40:38.659Z</time>
      </trkpt>
      <trkpt lat="62.53508" lon="6.37464">
        <ele>81.742337</ele>
        <time>2020-08-01T09:40:40.590Z</time>
      </trkpt>
      <trkpt lat="62.53506" lon="6.37441">
        <ele>81.90723</ele>
        <time>2020-08-01T09:40:42.657Z</time>
      </trkpt>
      <trkpt lat="62.53503" lon="6.37413">
        <ele>82.107442</ele>
        <time>2020-08-01T09:40:44.631Z</time>
      </trkpt>
      <trkpt lat="62.53502" lon="6.37379">
        <ele>82.3479</ele>
        <time>2020-08-01T09:40:46.591Z</time>
      </trkpt>
      <trkpt lat="62.53509" lon="6.37344">
        <ele>81.413456</ele>
        <time>2020-08-01T09:40:48.598Z</time>
      </trkpt>
      <trkpt lat="62.53516" lon="6.37324">
        <ele>80.523043</ele>
        <time>2020-08-01T09:40:49.618Z</time>
      </trkpt>
      <trkpt lat="62.53524" lon="6.37308">
        <ele>79.653548</ele>
        <time>2020-08-01T09:40:50.593Z</time>
      </trkpt>
      <trkpt lat="62.53533" lon="6.37294">
        <ele>78.789599</ele>
        <time>2020-08-01T09:40:51.585Z</time>
      </trkpt>
      <trkpt lat="62.53542" lon="6.37282">
        <ele>77.988018</ele>
        <time>2020-08-01T09:40:52.591Z</time>
      </trkpt>
      <trkpt lat="62.53549" lon="6.3727">
        <ele>77.288594</ele>
        <time>2020-08-01T09:40:53.595Z</time>
      </trkpt>
      <trkpt lat="62.53557" lon="6.37234">
        <ele>75.856601</ele>
        <time>2020-08-01T09:40:55.598Z</time>
      </trkpt>
      <trkpt lat="62.53558" lon="6.37212">
        <ele>75.04445</ele>
        <time>2020-08-01T09:40:56.608Z</time>
      </trkpt>
      <trkpt lat="62.53557" lon="6.37189">
        <ele>74.217251</ele>
        <time>2020-08-01T09:40:57.616Z</time>
      </trkpt>
      <trkpt lat="62.53556" lon="6.37166">
        <ele>73.382209</ele>
        <time>2020-08-01T09:40:58.633Z</time>
      </trkpt>
      <trkpt lat="62.53554" lon="6.37144">
        <ele>72.548536</ele>
        <time>2020-08-01T09:40:59.601Z</time>
      </trkpt>
      <trkpt lat="62.53553" lon="6.3712">
        <ele>71.687367</ele>
        <time>2020-08-01T09:41:00.618Z</time>
      </trkpt>
      <trkpt lat="62.53551" lon="6.37096">
        <ele>70.814718</ele>
        <time>2020-08-01T09:41:01.606Z</time>
      </trkpt>
      <trkpt lat="62.53551" lon="6.37073">
        <ele>69.970672</ele>
        <time>2020-08-01T09:41:02.605Z</time>
      </trkpt>
      <trkpt lat="62.5355" lon="6.37048">
        <ele>69.093036</ele>
        <time>2020-08-01T09:41:03.600Z</time>
      </trkpt>
      <trkpt lat="62.53549" lon="6.37025">
        <ele>68.230434</ele>
        <time>2020-08-01T09:41:04.594Z</time>
      </trkpt>
      <trkpt lat="62.53547" lon="6.37001">
        <ele>67.390899</ele>
        <time>2020-08-01T09:41:05.608Z</time>
      </trkpt>
      <trkpt lat="62.53545" lon="6.36977">
        <ele>66.536683</ele>
        <time>2020-08-01T09:41:06.644Z</time>
      </trkpt>
      <trkpt lat="62.53542" lon="6.36953">
        <ele>65.673237</ele>
        <time>2020-08-01T09:41:07.617Z</time>
      </trkpt>
      <trkpt lat="62.53537" lon="6.36931">
        <ele>64.82896</ele>
        <time>2020-08-01T09:41:08.630Z</time>
      </trkpt>
      <trkpt lat="62.53533" lon="6.3691">
        <ele>63.988396</ele>
        <time>2020-08-01T09:41:09.631Z</time>
      </trkpt>
      <trkpt lat="62.53527" lon="6.36889">
        <ele>63.138163</ele>
        <time>2020-08-01T09:41:10.636Z</time>
      </trkpt>
      <trkpt lat="62.53521" lon="6.36867">
        <ele>62.279488</ele>
        <time>2020-08-01T09:41:11.605Z</time>
      </trkpt>
      <trkpt lat="62.53516" lon="6.36846">
        <ele>61.415523</ele>
        <time>2020-08-01T09:41:12.601Z</time>
      </trkpt>
      <trkpt lat="62.5351" lon="6.36826">
        <ele>60.579262</ele>
        <time>2020-08-01T09:41:13.632Z</time>
      </trkpt>
      <trkpt lat="62.53504" lon="6.36807">
        <ele>59.788016</ele>
        <time>2020-08-01T09:41:14.622Z</time>
      </trkpt>
      <trkpt lat="62.53498" lon="6.36791">
        <ele>59.046816</ele>
        <time>2020-08-01T09:41:15.599Z</time>
      </trkpt>
      <trkpt lat="62.53486" lon="6.36766">
        <ele>57.810672</ele>
        <time>2020-08-01T09:41:17.620Z</time>
      </trkpt>
      <trkpt lat="62.53478" lon="6.36746">
        <ele>56.864826</ele>
        <time>2020-08-01T09:41:19.589Z</time>
      </trkpt>
      <trkpt lat="62.53475" lon="6.36723">
        <ele>56.012704</ele>
        <time>2020-08-01T09:41:21.618Z</time>
      </trkpt>
      <trkpt lat="62.53475" lon="6.367">
        <ele>55.209718</ele>
        <time>2020-08-01T09:41:23.607Z</time>
      </trkpt>
      <trkpt lat="62.53474" lon="6.3668">
        <ele>54.718628</ele>
        <time>2020-08-01T09:41:25.613Z</time>
      </trkpt>
      <trkpt lat="62.53473" lon="6.36656">
        <ele>55.087832</ele>
        <time>2020-08-01T09:41:28.642Z</time>
      </trkpt>
      <trkpt lat="62.53471" lon="6.36633">
        <ele>55.441116</ele>
        <time>2020-08-01T09:41:31.619Z</time>
      </trkpt>
      <trkpt lat="62.53469" lon="6.36611">
        <ele>55.779656</ele>
        <time>2020-08-01T09:41:34.592Z</time>
      </trkpt>
      <trkpt lat="62.53466" lon="6.36591">
        <ele>56.089176</ele>
        <time>2020-08-01T09:41:37.606Z</time>
      </trkpt>
      <trkpt lat="62.53465" lon="6.36571">
        <ele>56.399828</ele>
        <time>2020-08-01T09:41:40.612Z</time>
      </trkpt>
      <trkpt lat="62.53462" lon="6.36547">
        <ele>56.782017</ele>
        <time>2020-08-01T09:41:44.584Z</time>
      </trkpt>
      <trkpt lat="62.5346" lon="6.36523">
        <ele>57.153069</ele>
        <time>2020-08-01T09:41:48.590Z</time>
      </trkpt>
      <trkpt lat="62.53458" lon="6.365">
        <ele>57.518302</ele>
        <time>2020-08-01T09:41:52.575Z</time>
      </trkpt>
      <trkpt lat="62.53456" lon="6.36476">
        <ele>57.884176</ele>
        <time>2020-08-01T09:41:56.587Z</time>
      </trkpt>
      <trkpt lat="62.53457" lon="6.36451">
        <ele>58.26247</ele>
        <time>2020-08-01T09:42:00.576Z</time>
      </trkpt>
      <trkpt lat="62.53457" lon="6.36429">
        <ele>58.600116</ele>
        <time>2020-08-01T09:42:04.576Z</time>
      </trkpt>
      <trkpt lat="62.53455" lon="6.36408">
        <ele>58.924862</ele>
        <time>2020-08-01T09:42:08.599Z</time>
      </trkpt>
      <trkpt lat="62.53452" lon="6.36388">
        <ele>59.236427</ele>
        <time>2020-08-01T09:42:12.597Z</time>
      </trkpt>
      <trkpt lat="62.53449" lon="6.36368">
        <ele>59.576238</ele>
        <time>2020-08-01T09:42:16.579Z</time>
      </trkpt>
      <trkpt lat="62.53447" lon="6.36345">
        <ele>59.927667</ele>
        <time>2020-08-01T09:42:20.573Z</time>
      </trkpt>
      <trkpt lat="62.53445" lon="6.36325">
        <ele>60.239372</ele>
        <time>2020-08-01T09:42:24.578Z</time>
      </trkpt>
      <trkpt lat="62.53442" lon="6.36303">
        <ele>60.578116</ele>
        <time>2020-08-01T09:42:29.592Z</time>
      </trkpt>
      <trkpt lat="62.53441" lon="6.36282">
        <ele>61.054972</ele>
        <time>2020-08-01T09:42:35.595Z</time>
      </trkpt>
      <trkpt lat="62.53442" lon="6.36262">
        <ele>61.497602</ele>
        <time>2020-08-01T09:42:41.579Z</time>
      </trkpt>
      <trkpt lat="62.53442" lon="6.36242">
        <ele>61.945225</ele>
        <time>2020-08-01T09:42:47.572Z</time>
      </trkpt>
      <trkpt lat="62.53443" lon="6.36219">
        <ele>62.460319</ele>
        <time>2020-08-01T09:42:53.590Z</time>
      </trkpt>
      <trkpt lat="62.53446" lon="6.36199">
        <ele>62.937841</ele>
        <time>2020-08-01T09:42:58.573Z</time>
      </trkpt>
      <trkpt lat="62.5345" lon="6.3618">
        <ele>63.386808</ele>
        <time>2020-08-01T09:43:02.598Z</time>
      </trkpt>
      <trkpt lat="62.53454" lon="6.36162">
        <ele>63.828233</ele>
        <time>2020-08-01T09:43:06.578Z</time>
      </trkpt>
      <trkpt lat="62.53458" lon="6.36143">
        <ele>64.301906</ele>
        <time>2020-08-01T09:43:11.577Z</time>
      </trkpt>
      <trkpt lat="62.53462" lon="6.36125">
        <ele>64.755579</ele>
        <time>2020-08-01T09:43:16.576Z</time>
      </trkpt>
      <trkpt lat="62.53467" lon="6.36108">
        <ele>65.189701</ele>
        <time>2020-08-01T09:43:21.574Z</time>
      </trkpt>
      <trkpt lat="62.5347" lon="6.36087">
        <ele>65.670905</ele>
        <time>2020-08-01T09:43:27.577Z</time>
      </trkpt>
      <trkpt lat="62.53474" lon="6.36068">
        <ele>66.1518</ele>
        <time>2020-08-01T09:43:33.585Z</time>
      </trkpt>
      <trkpt lat="62.53479" lon="6.36048">
        <ele>66.645518</ele>
        <time>2020-08-01T09:43:39.573Z</time>
      </trkpt>
      <trkpt lat="62.53482" lon="6.36029">
        <ele>67.102741</ele>
        <time>2020-08-01T09:43:45.580Z</time>
      </trkpt>
      <trkpt lat="62.53483" lon="6.36006">
        <ele>67.612775</ele>
        <time>2020-08-01T09:43:52.579Z</time>
      </trkpt>
      <trkpt lat="62.53484" lon="6.35984">
        <ele>68.106845</ele>
        <time>2020-08-01T09:43:58.580Z</time>
      </trkpt>
      <trkpt lat="62.53484" lon="6.35964">
        <ele>68.565824</ele>
        <time>2020-08-01T09:44:04.576Z</time>
      </trkpt>
      <trkpt lat="62.53483" lon="6.35944">
        <ele>69.003393</ele>
        <time>2020-08-01T09:44:10.577Z</time>
      </trkpt>
      <trkpt lat="62.53482" lon="6.35925">
        <ele>69.336694</ele>
        <time>2020-08-01T09:44:15.571Z</time>
      </trkpt>
      <trkpt lat="62.5348" lon="6.35903">
        <ele>69.513098</ele>
        <time>2020-08-01T09:44:20.576Z</time>
      </trkpt>
      <trkpt lat="62.53478" lon="6.35884">
        <ele>69.678335</ele>
        <time>2020-08-01T09:44:24.578Z</time>
      </trkpt>
      <trkpt lat="62.53477" lon="6.35862">
        <ele>69.85489</ele>
        <time>2020-08-01T09:44:28.577Z</time>
      </trkpt>
      <trkpt lat="62.53475" lon="6.35839">
        <ele>70.043101</ele>
        <time>2020-08-01T09:44:32.572Z</time>
      </trkpt>
      <trkpt lat="62.53475" lon="6.35815">
        <ele>70.237137</ele>
        <time>2020-08-01T09:44:36.578Z</time>
      </trkpt>
      <trkpt lat="62.53472" lon="6.35793">
        <ele>70.425711</ele>
        <time>2020-08-01T09:44:40.579Z</time>
      </trkpt>
      <trkpt lat="62.5347" lon="6.35771">
        <ele>70.611117</ele>
        <time>2020-08-01T09:44:44.574Z</time>
      </trkpt>
      <trkpt lat="62.53467" lon="6.35749">
        <ele>70.7961</ele>
        <time>2020-08-01T09:44:48.578Z</time>
      </trkpt>
      <trkpt lat="62.53464" lon="6.35726">
        <ele>70.986777</ele>
        <time>2020-08-01T09:44:52.579Z</time>
      </trkpt>
      <trkpt lat="62.5346" lon="6.35703">
        <ele>71.187562</ele>
        <time>2020-08-01T09:44:56.582Z</time>
      </trkpt>
      <trkpt lat="62.53456" lon="6.3568">
        <ele>71.383726</ele>
        <time>2020-08-01T09:45:00.586Z</time>
      </trkpt>
      <trkpt lat="62.53452" lon="6.35659">
        <ele>71.575024</ele>
        <time>2020-08-01T09:45:04.571Z</time>
      </trkpt>
      <trkpt lat="62.53448" lon="6.35636">
        <ele>71.767569</ele>
        <time>2020-08-01T09:45:08.579Z</time>
      </trkpt>
      <trkpt lat="62.53446" lon="6.35618">
        <ele>71.927162</ele>
        <time>2020-08-01T09:45:11.592Z</time>
      </trkpt>
      <trkpt lat="62.53442" lon="6.35598">
        <ele>72.098709</ele>
        <time>2020-08-01T09:45:14.576Z</time>
      </trkpt>
      <trkpt lat="62.5344" lon="6.35577">
        <ele>72.271842</ele>
        <time>2020-08-01T09:45:17.576Z</time>
      </trkpt>
      <trkpt lat="62.53437" lon="6.35556">
        <ele>72.450038</ele>
        <time>2020-08-01T09:45:20.572Z</time>
      </trkpt>
      <trkpt lat="62.53435" lon="6.35534">
        <ele>72.524943</ele>
        <time>2020-08-01T09:45:23.577Z</time>
      </trkpt>
      <trkpt lat="62.53434" lon="6.35513">
        <ele>72.597496</ele>
        <time>2020-08-01T09:45:26.584Z</time>
      </trkpt>
      <trkpt lat="62.53432" lon="6.35491">
        <ele>72.672092</ele>
        <time>2020-08-01T09:45:29.573Z</time>
      </trkpt>
      <trkpt lat="62.53431" lon="6.35469">
        <ele>72.745544</ele>
        <time>2020-08-01T09:45:32.573Z</time>
      </trkpt>
      <trkpt lat="62.53428" lon="6.35448">
        <ele>72.818713</ele>
        <time>2020-08-01T09:45:35.578Z</time>
      </trkpt>
      <trkpt lat="62.53426" lon="6.35427">
        <ele>72.89271</ele>
        <time>2020-08-01T09:45:38.577Z</time>
      </trkpt>
      <trkpt lat="62.53425" lon="6.35406">
        <ele>72.964598</ele>
        <time>2020-08-01T09:45:41.617Z</time>
      </trkpt>
      <trkpt lat="62.53423" lon="6.35382">
        <ele>73.047053</ele>
        <time>2020-08-01T09:45:44.582Z</time>
      </trkpt>
      <trkpt lat="62.5342" lon="6.35356">
        <ele>73.136628</ele>
        <time>2020-08-01T09:45:47.578Z</time>
      </trkpt>
      <trkpt lat="62.53419" lon="6.35331">
        <ele>73.220857</ele>
        <time>2020-08-01T09:45:50.582Z</time>
      </trkpt>
      <trkpt lat="62.53417" lon="6.35306">
        <ele>73.303565</ele>
        <time>2020-08-01T09:45:53.576Z</time>
      </trkpt>
      <trkpt lat="62.53415" lon="6.35284">
        <ele>73.380534</ele>
        <time>2020-08-01T09:45:56.575Z</time>
      </trkpt>
      <trkpt lat="62.53413" lon="6.35264">
        <ele>73.448633</ele>
        <time>2020-08-01T09:45:59.573Z</time>
      </trkpt>
      <trkpt lat="62.53411" lon="6.35242">
        <ele>73.52641</ele>
        <time>2020-08-01T09:46:02.587Z</time>
      </trkpt>
      <trkpt lat="62.5341" lon="6.35218">
        <ele>73.607839</ele>
        <time>2020-08-01T09:46:05.572Z</time>
      </trkpt>
      <trkpt lat="62.53407" lon="6.35195">
        <ele>73.686605</ele>
        <time>2020-08-01T09:46:08.581Z</time>
      </trkpt>
      <trkpt lat="62.53405" lon="6.35173">
        <ele>73.763177</ele>
        <time>2020-08-01T09:46:11.621Z</time>
      </trkpt>
      <trkpt lat="62.53403" lon="6.35149">
        <ele>73.921077</ele>
        <time>2020-08-01T09:46:14.578Z</time>
      </trkpt>
      <trkpt lat="62.53401" lon="6.35125">
        <ele>74.082683</ele>
        <time>2020-08-01T09:46:17.592Z</time>
      </trkpt>
      <trkpt lat="62.53399" lon="6.35101">
        <ele>74.249273</ele>
        <time>2020-08-01T09:46:20.573Z</time>
      </trkpt>
      <trkpt lat="62.53396" lon="6.35076">
        <ele>74.415944</ele>
        <time>2020-08-01T09:46:23.580Z</time>
      </trkpt>
      <trkpt lat="62.53393" lon="6.35053">
        <ele>74.570762</ele>
        <time>2020-08-01T09:46:26.579Z</time>
      </trkpt>
      <trkpt lat="62.53391" lon="6.35031">
        <ele>74.719474</ele>
        <time>2020-08-01T09:46:29.587Z</time>
      </trkpt>
      <trkpt lat="62.53388" lon="6.3501">
        <ele>74.864779</ele>
        <time>2020-08-01T09:46:32.585Z</time>
      </trkpt>
      <trkpt lat="62.53385" lon="6.3499">
        <ele>75.007611</ele>
        <time>2020-08-01T09:46:35.590Z</time>
      </trkpt>
      <trkpt lat="62.53381" lon="6.34971">
        <ele>75.144396</ele>
        <time>2020-08-01T09:46:38.576Z</time>
      </trkpt>
      <trkpt lat="62.53376" lon="6.34952">
        <ele>75.282761</ele>
        <time>2020-08-01T09:46:41.578Z</time>
      </trkpt>
      <trkpt lat="62.53371" lon="6.34933">
        <ele>75.427003</ele>
        <time>2020-08-01T09:46:44.592Z</time>
      </trkpt>
      <trkpt lat="62.53367" lon="6.34914">
        <ele>75.566067</ele>
        <time>2020-08-01T09:46:47.581Z</time>
      </trkpt>
      <trkpt lat="62.53364" lon="6.34895">
        <ele>75.702852</ele>
        <time>2020-08-01T09:46:50.588Z</time>
      </trkpt>
      <trkpt lat="62.5336" lon="6.34876">
        <ele>75.8371</ele>
        <time>2020-08-01T09:46:53.577Z</time>
      </trkpt>
      <trkpt lat="62.53355" lon="6.34857">
        <ele>75.979826</ele>
        <time>2020-08-01T09:46:56.579Z</time>
      </trkpt>
      <trkpt lat="62.53352" lon="6.34839">
        <ele>76.110351</ele>
        <time>2020-08-01T09:46:59.576Z</time>
      </trkpt>
      <trkpt lat="62.53348" lon="6.34819">
        <ele>76.253658</ele>
        <time>2020-08-01T09:47:04.571Z</time>
      </trkpt>
      <trkpt lat="62.53344" lon="6.348">
        <ele>76.51177</ele>
        <time>2020-08-01T09:47:11.574Z</time>
      </trkpt>
      <trkpt lat="62.53339" lon="6.34782">
        <ele>76.947789</ele>
        <time>2020-08-01T09:47:18.572Z</time>
      </trkpt>
      <trkpt lat="62.53336" lon="6.34764">
        <ele>77.364813</ele>
        <time>2020-08-01T09:47:24.580Z</time>
      </trkpt>
      <trkpt lat="62.53333" lon="6.34743">
        <ele>77.835893</ele>
        <time>2020-08-01T09:47:31.584Z</time>
      </trkpt>
      <trkpt lat="62.53329" lon="6.34724">
        <ele>78.28554</ele>
        <time>2020-08-01T09:47:38.577Z</time>
      </trkpt>
      <trkpt lat="62.53324" lon="6.34705">
        <ele>78.73407</ele>
        <time>2020-08-01T09:47:45.589Z</time>
      </trkpt>
      <trkpt lat="62.53322" lon="6.34686">
        <ele>79.162115</ele>
        <time>2020-08-01T09:47:51.609Z</time>
      </trkpt>
      <trkpt lat="62.53319" lon="6.34666">
        <ele>79.610602</ele>
        <time>2020-08-01T09:47:57.579Z</time>
      </trkpt>
      <trkpt lat="62.53315" lon="6.34648">
        <ele>80.0329</ele>
        <time>2020-08-01T09:48:03.594Z</time>
      </trkpt>
      <trkpt lat="62.53311" lon="6.3463">
        <ele>80.46356</ele>
        <time>2020-08-01T09:48:09.577Z</time>
      </trkpt>
      <trkpt lat="62.53309" lon="6.34609">
        <ele>80.923996</ele>
        <time>2020-08-01T09:48:15.582Z</time>
      </trkpt>
      <trkpt lat="62.53305" lon="6.3459">
        <ele>81.36795</ele>
        <time>2020-08-01T09:48:21.577Z</time>
      </trkpt>
      <trkpt lat="62.53301" lon="6.34571">
        <ele>81.817255</ele>
        <time>2020-08-01T09:48:27.573Z</time>
      </trkpt>
      <trkpt lat="62.53298" lon="6.34549">
        <ele>82.286264</ele>
        <time>2020-08-01T09:48:33.570Z</time>
      </trkpt>
      <trkpt lat="62.53296" lon="6.34529">
        <ele>82.726963</ele>
        <time>2020-08-01T09:48:38.576Z</time>
      </trkpt>
      <trkpt lat="62.53291" lon="6.34508">
        <ele>83.220761</ele>
        <time>2020-08-01T09:48:42.577Z</time>
      </trkpt>
      <trkpt lat="62.53288" lon="6.34484">
        <ele>83.762081</ele>
        <time>2020-08-01T09:48:45.576Z</time>
      </trkpt>
      <trkpt lat="62.53287" lon="6.34456">
        <ele>84.350342</ele>
        <time>2020-08-01T09:48:48.574Z</time>
      </trkpt>
      <trkpt lat="62.53286" lon="6.34432">
        <ele>84.668089</ele>
        <time>2020-08-01T09:48:51.586Z</time>
      </trkpt>
      <trkpt lat="62.53285" lon="6.3441">
        <ele>84.706054</ele>
        <time>2020-08-01T09:48:54.577Z</time>
      </trkpt>
      <trkpt lat="62.53284" lon="6.34388">
        <ele>84.742071</ele>
        <time>2020-08-01T09:48:57.576Z</time>
      </trkpt>
      <trkpt lat="62.53283" lon="6.34364">
        <ele>84.783427</ele>
        <time>2020-08-01T09:49:01.576Z</time>
      </trkpt>
      <trkpt lat="62.53281" lon="6.34339">
        <ele>84.826751</ele>
        <time>2020-08-01T09:49:05.582Z</time>
      </trkpt>
      <trkpt lat="62.5328" lon="6.34317">
        <ele>84.863209</ele>
        <time>2020-08-01T09:49:08.570Z</time>
      </trkpt>
      <trkpt lat="62.53278" lon="6.34296">
        <ele>84.898969</ele>
        <time>2020-08-01T09:49:11.582Z</time>
      </trkpt>
      <trkpt lat="62.53276" lon="6.34272">
        <ele>84.940931</ele>
        <time>2020-08-01T09:49:15.584Z</time>
      </trkpt>
      <trkpt lat="62.53273" lon="6.34248">
        <ele>84.982078</ele>
        <time>2020-08-01T09:49:19.581Z</time>
      </trkpt>
      <trkpt lat="62.53271" lon="6.34227">
        <ele>85.018783</ele>
        <time>2020-08-01T09:49:23.594Z</time>
      </trkpt>
      <trkpt lat="62.5327" lon="6.34202">
        <ele>85.060205</ele>
        <time>2020-08-01T09:49:27.583Z</time>
      </trkpt>
      <trkpt lat="62.53271" lon="6.3418">
        <ele>85.098469</ele>
        <time>2020-08-01T09:49:30.580Z</time>
      </trkpt>
      <trkpt lat="62.53272" lon="6.34161">
        <ele>85.131341</ele>
        <time>2020-08-01T09:49:32.599Z</time>
      </trkpt>
      <trkpt lat="62.53274" lon="6.34133">
        <ele>85.178056</ele>
        <time>2020-08-01T09:49:34.577Z</time>
      </trkpt>
      <trkpt lat="62.53276" lon="6.34098">
        <ele>85.236781</ele>
        <time>2020-08-01T09:49:36.579Z</time>
      </trkpt>
      <trkpt lat="62.53276" lon="6.34078">
        <ele>85.270538</ele>
        <time>2020-08-01T09:49:37.577Z</time>
      </trkpt>
      <trkpt lat="62.53276" lon="6.34058">
        <ele>85.304919</ele>
        <time>2020-08-01T09:49:38.575Z</time>
      </trkpt>
      <trkpt lat="62.53276" lon="6.34038">
        <ele>84.866515</ele>
        <time>2020-08-01T09:49:39.571Z</time>
      </trkpt>
      <trkpt lat="62.53276" lon="6.34018">
        <ele>84.372694</ele>
        <time>2020-08-01T09:49:40.576Z</time>
      </trkpt>
      <trkpt lat="62.53274" lon="6.33997">
        <ele>83.874774</ele>
        <time>2020-08-01T09:49:41.575Z</time>
      </trkpt>
      <trkpt lat="62.53273" lon="6.33978">
        <ele>83.387141</ele>
        <time>2020-08-01T09:49:42.584Z</time>
      </trkpt>
      <trkpt lat="62.53271" lon="6.33958">
        <ele>82.909185</ele>
        <time>2020-08-01T09:49:43.580Z</time>
      </trkpt>
      <trkpt lat="62.5327" lon="6.33939">
        <ele>82.43262</ele>
        <time>2020-08-01T09:49:44.572Z</time>
      </trkpt>
      <trkpt lat="62.53267" lon="6.33901">
        <ele>81.516704</ele>
        <time>2020-08-01T09:49:46.572Z</time>
      </trkpt>
      <trkpt lat="62.53266" lon="6.33866">
        <ele>80.649749</ele>
        <time>2020-08-01T09:49:48.580Z</time>
      </trkpt>
      <trkpt lat="62.53264" lon="6.3383">
        <ele>79.783012</ele>
        <time>2020-08-01T09:49:50.581Z</time>
      </trkpt>
      <trkpt lat="62.53263" lon="6.33792">
        <ele>78.867241</ele>
        <time>2020-08-01T09:49:52.581Z</time>
      </trkpt>
      <trkpt lat="62.53263" lon="6.33773">
        <ele>78.384382</ele>
        <time>2020-08-01T09:49:53.580Z</time>
      </trkpt>
      <trkpt lat="62.53263" lon="6.33752">
        <ele>77.884656</ele>
        <time>2020-08-01T09:49:54.596Z</time>
      </trkpt>
      <trkpt lat="62.53263" lon="6.3373">
        <ele>77.341036</ele>
        <time>2020-08-01T09:49:55.578Z</time>
      </trkpt>
      <trkpt lat="62.53263" lon="6.33706">
        <ele>76.770936</ele>
        <time>2020-08-01T09:49:56.580Z</time>
      </trkpt>
      <trkpt lat="62.53263" lon="6.33682">
        <ele>76.186282</ele>
        <time>2020-08-01T09:49:57.575Z</time>
      </trkpt>
      <trkpt lat="62.53263" lon="6.33658">
        <ele>75.753621</ele>
        <time>2020-08-01T09:49:58.581Z</time>
      </trkpt>
      <trkpt lat="62.53264" lon="6.33634">
        <ele>75.533083</ele>
        <time>2020-08-01T09:49:59.575Z</time>
      </trkpt>
      <trkpt lat="62.53264" lon="6.3361">
        <ele>75.316228</ele>
        <time>2020-08-01T09:50:00.583Z</time>
      </trkpt>
      <trkpt lat="62.53264" lon="6.33587">
        <ele>75.104984</ele>
        <time>2020-08-01T09:50:01.580Z</time>
      </trkpt>
      <trkpt lat="62.53265" lon="6.33565">
        <ele>74.898412</ele>
        <time>2020-08-01T09:50:02.596Z</time>
      </trkpt>
      <trkpt lat="62.53265" lon="6.33543">
        <ele>74.697449</ele>
        <time>2020-08-01T09:50:03.588Z</time>
      </trkpt>
      <trkpt lat="62.53265" lon="6.33522">
        <ele>74.502016</ele>
        <time>2020-08-01T09:50:04.578Z</time>
      </trkpt>
      <trkpt lat="62.53265" lon="6.33501">
        <ele>74.310239</ele>
        <time>2020-08-01T09:50:05.577Z</time>
      </trkpt>
      <trkpt lat="62.53264" lon="6.33481">
        <ele>74.1211</ele>
        <time>2020-08-01T09:50:06.573Z</time>
      </trkpt>
      <trkpt lat="62.53263" lon="6.33461">
        <ele>73.936047</ele>
        <time>2020-08-01T09:50:07.595Z</time>
      </trkpt>
      <trkpt lat="62.53261" lon="6.33424">
        <ele>73.59651</ele>
        <time>2020-08-01T09:50:09.583Z</time>
      </trkpt>
      <trkpt lat="62.5326" lon="6.33388">
        <ele>73.260592</ele>
        <time>2020-08-01T09:50:11.582Z</time>
      </trkpt>
      <trkpt lat="62.53259" lon="6.33354">
        <ele>72.946027</ele>
        <time>2020-08-01T09:50:13.602Z</time>
      </trkpt>
      <trkpt lat="62.53259" lon="6.33325">
        <ele>72.676741</ele>
        <time>2020-08-01T09:50:15.607Z</time>
      </trkpt>
      <trkpt lat="62.53259" lon="6.33297">
        <ele>72.424134</ele>
        <time>2020-08-01T09:50:17.575Z</time>
      </trkpt>
      <trkpt lat="62.53259" lon="6.33272">
        <ele>72.39682</ele>
        <time>2020-08-01T09:50:19.577Z</time>
      </trkpt>
      <trkpt lat="62.5326" lon="6.3325">
        <ele>72.870944</ele>
        <time>2020-08-01T09:50:21.591Z</time>
      </trkpt>
      <trkpt lat="62.5326" lon="6.33225">
        <ele>73.417386</ele>
        <time>2020-08-01T09:50:24.571Z</time>
      </trkpt>
      <trkpt lat="62.53257" lon="6.33204">
        <ele>73.90492</ele>
        <time>2020-08-01T09:50:29.582Z</time>
      </trkpt>
      <trkpt lat="62.53253" lon="6.33184">
        <ele>74.366317</ele>
        <time>2020-08-01T09:50:38.581Z</time>
      </trkpt>
      <trkpt lat="62.53251" lon="6.33165">
        <ele>74.793707</ele>
        <time>2020-08-01T09:50:44.574Z</time>
      </trkpt>
      <trkpt lat="62.5325" lon="6.33144">
        <ele>75.250532</ele>
        <time>2020-08-01T09:50:51.576Z</time>
      </trkpt>
      <trkpt lat="62.53251" lon="6.33124">
        <ele>75.693193</ele>
        <time>2020-08-01T09:50:59.577Z</time>
      </trkpt>
      <trkpt lat="62.53253" lon="6.33102">
        <ele>76.16987</ele>
        <time>2020-08-01T09:51:07.575Z</time>
      </trkpt>
      <trkpt lat="62.53256" lon="6.33081">
        <ele>76.643402</ele>
        <time>2020-08-01T09:51:13.573Z</time>
      </trkpt>
      <trkpt lat="62.53257" lon="6.33061">
        <ele>77.06466</ele>
        <time>2020-08-01T09:51:18.577Z</time>
      </trkpt>
      <trkpt lat="62.53257" lon="6.33038">
        <ele>77.574387</ele>
        <time>2020-08-01T09:51:23.585Z</time>
      </trkpt>
      <trkpt lat="62.53256" lon="6.33018">
        <ele>78.002432</ele>
        <time>2020-08-01T09:51:26.577Z</time>
      </trkpt>
      <trkpt lat="62.53256" lon="6.32993">
        <ele>78.543105</ele>
        <time>2020-08-01T09:51:29.579Z</time>
      </trkpt>
      <trkpt lat="62.53256" lon="6.32974">
        <ele>78.963042</ele>
        <time>2020-08-01T09:51:31.584Z</time>
      </trkpt>
      <trkpt lat="62.53258" lon="6.32944">
        <ele>79.600842</ele>
        <time>2020-08-01T09:51:34.578Z</time>
      </trkpt>
      <trkpt lat="62.53259" lon="6.32925">
        <ele>80.022446</ele>
        <time>2020-08-01T09:51:36.576Z</time>
      </trkpt>
      <trkpt lat="62.53259" lon="6.32901">
        <ele>80.547291</ele>
        <time>2020-08-01T09:51:39.573Z</time>
      </trkpt>
      <trkpt lat="62.53259" lon="6.32879">
        <ele>80.55575</ele>
        <time>2020-08-01T09:51:42.582Z</time>
      </trkpt>
      <trkpt lat="62.5326" lon="6.32855">
        <ele>80.363901</ele>
        <time>2020-08-01T09:51:45.573Z</time>
      </trkpt>
      <trkpt lat="62.53261" lon="6.32832">
        <ele>80.177074</ele>
        <time>2020-08-01T09:51:48.577Z</time>
      </trkpt>
      <trkpt lat="62.53261" lon="6.32806">
        <ele>79.971697</ele>
        <time>2020-08-01T09:51:51.572Z</time>
      </trkpt>
      <trkpt lat="62.53261" lon="6.32781">
        <ele>79.770313</ele>
        <time>2020-08-01T09:51:54.581Z</time>
      </trkpt>
      <trkpt lat="62.53261" lon="6.32758">
        <ele>79.594166</ele>
        <time>2020-08-01T09:51:57.597Z</time>
      </trkpt>
      <trkpt lat="62.5326" lon="6.32738">
        <ele>79.43514</ele>
        <time>2020-08-01T09:52:00.586Z</time>
      </trkpt>
      <trkpt lat="62.5326" lon="6.32718">
        <ele>79.276533</ele>
        <time>2020-08-01T09:52:03.593Z</time>
      </trkpt>
      <trkpt lat="62.5326" lon="6.32697">
        <ele>79.10902</ele>
        <time>2020-08-01T09:52:07.579Z</time>
      </trkpt>
      <trkpt lat="62.53258" lon="6.32655">
        <ele>78.77269</ele>
        <time>2020-08-01T09:54:16.585Z</time>
      </trkpt>
      <trkpt lat="62.53257" lon="6.32628">
        <ele>78.55786</ele>
        <time>2020-08-01T09:54:19.579Z</time>
      </trkpt>
      <trkpt lat="62.53255" lon="6.32603">
        <ele>78.357977</ele>
        <time>2020-08-01T09:54:21.582Z</time>
      </trkpt>
      <trkpt lat="62.53253" lon="6.32573">
        <ele>78.118182</ele>
        <time>2020-08-01T09:54:23.578Z</time>
      </trkpt>
      <trkpt lat="62.5325" lon="6.32539">
        <ele>77.843083</ele>
        <time>2020-08-01T09:54:25.581Z</time>
      </trkpt>
      <trkpt lat="62.53247" lon="6.32501">
        <ele>77.563154</ele>
        <time>2020-08-01T09:54:27.580Z</time>
      </trkpt>
      <trkpt lat="62.53244" lon="6.32482">
        <ele>77.494797</ele>
        <time>2020-08-01T09:54:28.581Z</time>
      </trkpt>
      <trkpt lat="62.53242" lon="6.32462">
        <ele>77.422718</ele>
        <time>2020-08-01T09:54:29.587Z</time>
      </trkpt>
      <trkpt lat="62.53239" lon="6.32442">
        <ele>77.351849</ele>
        <time>2020-08-01T09:54:30.590Z</time>
      </trkpt>
      <trkpt lat="62.53235" lon="6.32424">
        <ele>77.283235</ele>
        <time>2020-08-01T09:54:31.600Z</time>
      </trkpt>
      <trkpt lat="62.5323" lon="6.32389">
        <ele>77.156161</ele>
        <time>2020-08-01T09:54:33.572Z</time>
      </trkpt>
      <trkpt lat="62.53224" lon="6.32359">
        <ele>77.046141</ele>
        <time>2020-08-01T09:54:35.591Z</time>
      </trkpt>
      <trkpt lat="62.53222" lon="6.32332">
        <ele>76.951946</ele>
        <time>2020-08-01T09:54:37.596Z</time>
      </trkpt>
      <trkpt lat="62.53223" lon="6.32307">
        <ele>76.863833</ele>
        <time>2020-08-01T09:54:39.571Z</time>
      </trkpt>
      <trkpt lat="62.53224" lon="6.32283">
        <ele>76.781272</ele>
        <time>2020-08-01T09:54:41.586Z</time>
      </trkpt>
      <trkpt lat="62.53223" lon="6.32261">
        <ele>76.705434</ele>
        <time>2020-08-01T09:54:43.572Z</time>
      </trkpt>
      <trkpt lat="62.53223" lon="6.32241">
        <ele>76.635541</ele>
        <time>2020-08-01T09:54:45.582Z</time>
      </trkpt>
      <trkpt lat="62.53222" lon="6.32213">
        <ele>76.540221</ele>
        <time>2020-08-01T09:54:48.581Z</time>
      </trkpt>
      <trkpt lat="62.53222" lon="6.32191">
        <ele>76.462806</ele>
        <time>2020-08-01T09:54:51.587Z</time>
      </trkpt>
      <trkpt lat="62.53221" lon="6.32169">
        <ele>76.389849</ele>
        <time>2020-08-01T09:54:54.573Z</time>
      </trkpt>
      <trkpt lat="62.53219" lon="6.32146">
        <ele>76.310155</ele>
        <time>2020-08-01T09:54:58.584Z</time>
      </trkpt>
      <trkpt lat="62.53218" lon="6.32125">
        <ele>76.27883</ele>
        <time>2020-08-01T09:55:02.574Z</time>
      </trkpt>
      <trkpt lat="62.53217" lon="6.32105">
        <ele>76.716956</ele>
        <time>2020-08-01T09:55:06.569Z</time>
      </trkpt>
      <trkpt lat="62.53214" lon="6.32084">
        <ele>77.169725</ele>
        <time>2020-08-01T09:55:11.572Z</time>
      </trkpt>
      <trkpt lat="62.53213" lon="6.32065">
        <ele>77.597941</ele>
        <time>2020-08-01T09:55:16.574Z</time>
      </trkpt>
      <trkpt lat="62.5321" lon="6.32042">
        <ele>78.08982</ele>
        <time>2020-08-01T09:55:22.572Z</time>
      </trkpt>
      <trkpt lat="62.53208" lon="6.32023">
        <ele>78.523075</ele>
        <time>2020-08-01T09:55:27.583Z</time>
      </trkpt>
      <trkpt lat="62.53206" lon="6.32002">
        <ele>78.978894</ele>
        <time>2020-08-01T09:55:32.583Z</time>
      </trkpt>
      <trkpt lat="62.53206" lon="6.31979">
        <ele>79.458445</ele>
        <time>2020-08-01T09:55:38.577Z</time>
      </trkpt>
      <trkpt lat="62.53206" lon="6.31956">
        <ele>79.953308</ele>
        <time>2020-08-01T09:55:44.573Z</time>
      </trkpt>
      <trkpt lat="62.53206" lon="6.31933">
        <ele>80.45031</ele>
        <time>2020-08-01T09:55:50.570Z</time>
      </trkpt>
      <trkpt lat="62.53205" lon="6.31912">
        <ele>80.909582</ele>
        <time>2020-08-01T09:55:55.583Z</time>
      </trkpt>
      <trkpt lat="62.53204" lon="6.31891">
        <ele>81.359576</ele>
        <time>2020-08-01T09:56:00.575Z</time>
      </trkpt>
      <trkpt lat="62.53203" lon="6.3187">
        <ele>81.806037</ele>
        <time>2020-08-01T09:56:05.573Z</time>
      </trkpt>
      <trkpt lat="62.53201" lon="6.31848">
        <ele>82.278593</ele>
        <time>2020-08-01T09:56:10.580Z</time>
      </trkpt>
      <trkpt lat="62.532" lon="6.31827">
        <ele>82.737743</ele>
        <time>2020-08-01T09:56:15.578Z</time>
      </trkpt>
      <trkpt lat="62.53199" lon="6.31806">
        <ele>83.181684</ele>
        <time>2020-08-01T09:56:20.582Z</time>
      </trkpt>
      <trkpt lat="62.53198" lon="6.31782">
        <ele>83.696493</ele>
        <time>2020-08-01T09:56:25.588Z</time>
      </trkpt>
      <trkpt lat="62.53197" lon="6.31761">
        <ele>84.162173</ele>
        <time>2020-08-01T09:56:29.593Z</time>
      </trkpt>
      <trkpt lat="62.53196" lon="6.3174">
        <ele>84.585775</ele>
        <time>2020-08-01T09:56:33.577Z</time>
      </trkpt>
      <trkpt lat="62.53194" lon="6.31718">
        <ele>84.486286</ele>
        <time>2020-08-01T09:56:37.593Z</time>
      </trkpt>
      <trkpt lat="62.53192" lon="6.31698">
        <ele>84.396925</ele>
        <time>2020-08-01T09:56:40.586Z</time>
      </trkpt>
      <trkpt lat="62.5319" lon="6.31672">
        <ele>84.283298</ele>
        <time>2020-08-01T09:56:44.589Z</time>
      </trkpt>
      <trkpt lat="62.53188" lon="6.31653">
        <ele>84.195411</ele>
        <time>2020-08-01T09:56:47.584Z</time>
      </trkpt>
      <trkpt lat="62.53187" lon="6.31631">
        <ele>84.100823</ele>
        <time>2020-08-01T09:56:50.576Z</time>
      </trkpt>
      <trkpt lat="62.53186" lon="6.31608">
        <ele>83.999287</ele>
        <time>2020-08-01T09:56:53.611Z</time>
      </trkpt>
      <trkpt lat="62.53185" lon="6.31583">
        <ele>83.890991</ele>
        <time>2020-08-01T09:56:56.570Z</time>
      </trkpt>
      <trkpt lat="62.53185" lon="6.31558">
        <ele>83.77794</ele>
        <time>2020-08-01T09:56:59.576Z</time>
      </trkpt>
      <trkpt lat="62.53184" lon="6.31531">
        <ele>83.661873</ele>
        <time>2020-08-01T09:57:02.575Z</time>
      </trkpt>
      <trkpt lat="62.53184" lon="6.31503">
        <ele>83.540955</ele>
        <time>2020-08-01T09:57:05.584Z</time>
      </trkpt>
      <trkpt lat="62.53182" lon="6.31476">
        <ele>83.420071</ele>
        <time>2020-08-01T09:57:08.580Z</time>
      </trkpt>
      <trkpt lat="62.53182" lon="6.31456">
        <ele>83.332109</ele>
        <time>2020-08-01T09:57:10.579Z</time>
      </trkpt>
      <trkpt lat="62.53182" lon="6.31435">
        <ele>83.241397</ele>
        <time>2020-08-01T09:57:12.576Z</time>
      </trkpt>
      <trkpt lat="62.53181" lon="6.31414">
        <ele>83.149373</ele>
        <time>2020-08-01T09:57:14.584Z</time>
      </trkpt>
      <trkpt lat="62.53181" lon="6.31392">
        <ele>83.054333</ele>
        <time>2020-08-01T09:57:16.588Z</time>
      </trkpt>
      <trkpt lat="62.53181" lon="6.31368">
        <ele>82.946661</ele>
        <time>2020-08-01T09:57:18.576Z</time>
      </trkpt>
      <trkpt lat="62.5318" lon="6.31343">
        <ele>82.829486</ele>
        <time>2020-08-01T09:57:20.580Z</time>
      </trkpt>
      <trkpt lat="62.5318" lon="6.31319">
        <ele>82.702773</ele>
        <time>2020-08-01T09:57:22.580Z</time>
      </trkpt>
      <trkpt lat="62.5318" lon="6.31295">
        <ele>82.577136</ele>
        <time>2020-08-01T09:57:24.585Z</time>
      </trkpt>
      <trkpt lat="62.53179" lon="6.31271">
        <ele>82.450423</ele>
        <time>2020-08-01T09:57:26.577Z</time>
      </trkpt>
      <trkpt lat="62.53179" lon="6.31247">
        <ele>82.324153</ele>
        <time>2020-08-01T09:57:28.583Z</time>
      </trkpt>
      <trkpt lat="62.53178" lon="6.31223">
        <ele>82.197301</ele>
        <time>2020-08-01T09:57:30.571Z</time>
      </trkpt>
      <trkpt lat="62.53178" lon="6.312">
        <ele>82.075103</ele>
        <time>2020-08-01T09:57:32.572Z</time>
      </trkpt>
      <trkpt lat="62.53177" lon="6.31178">
        <ele>81.959948</ele>
        <time>2020-08-01T09:57:34.591Z</time>
      </trkpt>
      <trkpt lat="62.53177" lon="6.31156">
        <ele>81.845319</ele>
        <time>2020-08-01T09:57:36.577Z</time>
      </trkpt>
      <trkpt lat="62.53177" lon="6.31135">
        <ele>81.732265</ele>
        <time>2020-08-01T09:57:38.571Z</time>
      </trkpt>
      <trkpt lat="62.53176" lon="6.31115">
        <ele>81.629149</ele>
        <time>2020-08-01T09:57:40.582Z</time>
      </trkpt>
      <trkpt lat="62.53175" lon="6.31088">
        <ele>81.48949</ele>
        <time>2020-08-01T09:57:43.574Z</time>
      </trkpt>
      <trkpt lat="62.53175" lon="6.31064">
        <ele>81.359789</ele>
        <time>2020-08-01T09:57:46.583Z</time>
      </trkpt>
      <trkpt lat="62.53174" lon="6.31042">
        <ele>81.242576</ele>
        <time>2020-08-01T09:57:49.573Z</time>
      </trkpt>
      <trkpt lat="62.53174" lon="6.31022">
        <ele>81.137482</ele>
        <time>2020-08-01T09:57:52.586Z</time>
      </trkpt>
      <trkpt lat="62.53173" lon="6.30996">
        <ele>81.002098</ele>
        <time>2020-08-01T09:57:56.574Z</time>
      </trkpt>
      <trkpt lat="62.53172" lon="6.3097">
        <ele>80.864536</ele>
        <time>2020-08-01T09:58:00.580Z</time>
      </trkpt>
      <trkpt lat="62.53171" lon="6.3095">
        <ele>81.069222</ele>
        <time>2020-08-01T09:58:03.576Z</time>
      </trkpt>
      <trkpt lat="62.5317" lon="6.30925">
        <ele>81.50458</ele>
        <time>2020-08-01T09:58:07.592Z</time>
      </trkpt>
      <trkpt lat="62.53169" lon="6.30902">
        <ele>81.913828</ele>
        <time>2020-08-01T09:58:11.582Z</time>
      </trkpt>
      <trkpt lat="62.53168" lon="6.30876">
        <ele>82.359536</ele>
        <time>2020-08-01T09:58:15.573Z</time>
      </trkpt>
      <trkpt lat="62.53167" lon="6.30851">
        <ele>82.789768</ele>
        <time>2020-08-01T09:58:19.579Z</time>
      </trkpt>
      <trkpt lat="62.53166" lon="6.30831">
        <ele>83.134493</ele>
        <time>2020-08-01T09:58:22.582Z</time>
      </trkpt>
      <trkpt lat="62.53165" lon="6.30811">
        <ele>83.481668</ele>
        <time>2020-08-01T09:58:25.573Z</time>
      </trkpt>
      <trkpt lat="62.53164" lon="6.30791">
        <ele>83.837853</ele>
        <time>2020-08-01T09:58:28.571Z</time>
      </trkpt>
      <trkpt lat="62.53162" lon="6.3077">
        <ele>84.191113</ele>
        <time>2020-08-01T09:58:31.578Z</time>
      </trkpt>
      <trkpt lat="62.53161" lon="6.30749">
        <ele>84.553432</ele>
        <time>2020-08-01T09:58:34.577Z</time>
      </trkpt>
      <trkpt lat="62.5316" lon="6.30728">
        <ele>84.931108</ele>
        <time>2020-08-01T09:58:37.599Z</time>
      </trkpt>
      <trkpt lat="62.53158" lon="6.30705">
        <ele>85.321327</ele>
        <time>2020-08-01T09:58:40.570Z</time>
      </trkpt>
      <trkpt lat="62.53156" lon="6.30682">
        <ele>85.734262</ele>
        <time>2020-08-01T09:58:43.578Z</time>
      </trkpt>
      <trkpt lat="62.53154" lon="6.3066">
        <ele>86.11759</ele>
        <time>2020-08-01T09:58:46.590Z</time>
      </trkpt>
      <trkpt lat="62.53153" lon="6.30638">
        <ele>86.497626</ele>
        <time>2020-08-01T09:58:49.578Z</time>
      </trkpt>
      <trkpt lat="62.53151" lon="6.30616">
        <ele>86.884612</ele>
        <time>2020-08-01T09:58:52.593Z</time>
      </trkpt>
      <trkpt lat="62.5315" lon="6.30592">
        <ele>87.291755</ele>
        <time>2020-08-01T09:58:55.577Z</time>
      </trkpt>
      <trkpt lat="62.53149" lon="6.30568">
        <ele>87.513998</ele>
        <time>2020-08-01T09:58:58.584Z</time>
      </trkpt>
      <trkpt lat="62.53148" lon="6.30543">
        <ele>87.404255</ele>
        <time>2020-08-01T09:59:01.581Z</time>
      </trkpt>
      <trkpt lat="62.53147" lon="6.30518">
        <ele>87.296378</ele>
        <time>2020-08-01T09:59:04.579Z</time>
      </trkpt>
      <trkpt lat="62.53146" lon="6.30491">
        <ele>87.182189</ele>
        <time>2020-08-01T09:59:07.573Z</time>
      </trkpt>
      <trkpt lat="62.53147" lon="6.30464">
        <ele>87.06137</ele>
        <time>2020-08-01T09:59:10.581Z</time>
      </trkpt>
      <trkpt lat="62.53147" lon="6.30437">
        <ele>86.947678</ele>
        <time>2020-08-01T09:59:13.594Z</time>
      </trkpt>
      <trkpt lat="62.53148" lon="6.3041">
        <ele>86.8291</ele>
        <time>2020-08-01T09:59:16.584Z</time>
      </trkpt>
      <trkpt lat="62.5315" lon="6.30391">
        <ele>86.744506</ele>
        <time>2020-08-01T09:59:18.581Z</time>
      </trkpt>
      <trkpt lat="62.53151" lon="6.30371">
        <ele>86.657608</ele>
        <time>2020-08-01T09:59:20.572Z</time>
      </trkpt>
      <trkpt lat="62.53153" lon="6.30343">
        <ele>86.537493</ele>
        <time>2020-08-01T09:59:23.582Z</time>
      </trkpt>
      <trkpt lat="62.53155" lon="6.30317">
        <ele>86.421496</ele>
        <time>2020-08-01T09:59:26.575Z</time>
      </trkpt>
      <trkpt lat="62.53157" lon="6.30291">
        <ele>86.308651</ele>
        <time>2020-08-01T09:59:29.582Z</time>
      </trkpt>
      <trkpt lat="62.53159" lon="6.30265">
        <ele>86.192805</ele>
        <time>2020-08-01T09:59:32.580Z</time>
      </trkpt>
      <trkpt lat="62.5316" lon="6.30238">
        <ele>86.076655</ele>
        <time>2020-08-01T09:59:35.581Z</time>
      </trkpt>
      <trkpt lat="62.53162" lon="6.30211">
        <ele>85.957085</ele>
        <time>2020-08-01T09:59:38.582Z</time>
      </trkpt>
      <trkpt lat="62.53164" lon="6.30192">
        <ele>85.872064</ele>
        <time>2020-08-01T09:59:40.582Z</time>
      </trkpt>
      <trkpt lat="62.53165" lon="6.30172">
        <ele>85.947615</ele>
        <time>2020-08-01T09:59:42.575Z</time>
      </trkpt>
      <trkpt lat="62.53167" lon="6.30152">
        <ele>86.035049</ele>
        <time>2020-08-01T09:59:44.577Z</time>
      </trkpt>
      <trkpt lat="62.53168" lon="6.30133">
        <ele>86.122466</ele>
        <time>2020-08-01T09:59:46.597Z</time>
      </trkpt>
      <trkpt lat="62.53169" lon="6.30104">
        <ele>86.249453</ele>
        <time>2020-08-01T09:59:49.581Z</time>
      </trkpt>
      <trkpt lat="62.53171" lon="6.30076">
        <ele>86.371142</ele>
        <time>2020-08-01T09:59:52.576Z</time>
      </trkpt>
      <trkpt lat="62.53173" lon="6.30048">
        <ele>86.496185</ele>
        <time>2020-08-01T09:59:55.581Z</time>
      </trkpt>
      <trkpt lat="62.53175" lon="6.30028">
        <ele>86.588212</ele>
        <time>2020-08-01T09:59:57.589Z</time>
      </trkpt>
      <trkpt lat="62.53177" lon="6.30007">
        <ele>86.681113</ele>
        <time>2020-08-01T09:59:59.575Z</time>
      </trkpt>
      <trkpt lat="62.53179" lon="6.29987">
        <ele>86.772927</ele>
        <time>2020-08-01T10:00:01.577Z</time>
      </trkpt>
      <trkpt lat="62.53181" lon="6.29966">
        <ele>86.864776</ele>
        <time>2020-08-01T10:00:03.576Z</time>
      </trkpt>
      <trkpt lat="62.53183" lon="6.29946">
        <ele>86.957056</ele>
        <time>2020-08-01T10:00:05.578Z</time>
      </trkpt>
      <trkpt lat="62.53185" lon="6.29925">
        <ele>87.048722</ele>
        <time>2020-08-01T10:00:07.599Z</time>
      </trkpt>
      <trkpt lat="62.53186" lon="6.29897">
        <ele>87.17334</ele>
        <time>2020-08-01T10:00:10.580Z</time>
      </trkpt>
      <trkpt lat="62.53189" lon="6.29871">
        <ele>87.289886</ele>
        <time>2020-08-01T10:00:13.580Z</time>
      </trkpt>
      <trkpt lat="62.5319" lon="6.29846">
        <ele>87.398449</ele>
        <time>2020-08-01T10:00:16.571Z</time>
      </trkpt>
      <trkpt lat="62.53191" lon="6.29824">
        <ele>87.497508</ele>
        <time>2020-08-01T10:00:19.576Z</time>
      </trkpt>
      <trkpt lat="62.53192" lon="6.29804">
        <ele>87.590309</ele>
        <time>2020-08-01T10:00:22.578Z</time>
      </trkpt>
      <trkpt lat="62.53193" lon="6.29781">
        <ele>87.858705</ele>
        <time>2020-08-01T10:00:26.577Z</time>
      </trkpt>
      <trkpt lat="62.53192" lon="6.29758">
        <ele>88.112486</ele>
        <time>2020-08-01T10:00:30.575Z</time>
      </trkpt>
      <trkpt lat="62.53192" lon="6.29734">
        <ele>88.386384</ele>
        <time>2020-08-01T10:00:34.576Z</time>
      </trkpt>
      <trkpt lat="62.53193" lon="6.2971">
        <ele>88.65846</ele>
        <time>2020-08-01T10:00:38.581Z</time>
      </trkpt>
      <trkpt lat="62.53195" lon="6.29687">
        <ele>88.916345</ele>
        <time>2020-08-01T10:00:42.571Z</time>
      </trkpt>
      <trkpt lat="62.53197" lon="6.29666">
        <ele>89.158834</ele>
        <time>2020-08-01T10:00:46.571Z</time>
      </trkpt>
      <trkpt lat="62.532" lon="6.29644">
        <ele>89.415396</ele>
        <time>2020-08-01T10:00:50.582Z</time>
      </trkpt>
      <trkpt lat="62.53203" lon="6.29623">
        <ele>89.669197</ele>
        <time>2020-08-01T10:00:54.574Z</time>
      </trkpt>
      <trkpt lat="62.53209" lon="6.29601">
        <ele>89.94387</ele>
        <time>2020-08-01T10:00:58.572Z</time>
      </trkpt>
      <trkpt lat="62.53216" lon="6.29585">
        <ele>90.199632</ele>
        <time>2020-08-01T10:01:03.576Z</time>
      </trkpt>
      <trkpt lat="62.53223" lon="6.29572">
        <ele>90.435009</ele>
        <time>2020-08-01T10:01:09.580Z</time>
      </trkpt>
      <trkpt lat="62.53231" lon="6.29558">
        <ele>90.673702</ele>
        <time>2020-08-01T10:01:15.591Z</time>
      </trkpt>
      <trkpt lat="62.53236" lon="6.29539">
        <ele>90.931756</ele>
        <time>2020-08-01T10:01:21.572Z</time>
      </trkpt>
      <trkpt lat="62.53242" lon="6.2952">
        <ele>91.179982</ele>
        <time>2020-08-01T10:01:27.607Z</time>
      </trkpt>
      <trkpt lat="62.53246" lon="6.29501">
        <ele>91.422342</ele>
        <time>2020-08-01T10:01:32.573Z</time>
      </trkpt>
      <trkpt lat="62.53252" lon="6.29479">
        <ele>91.699388</ele>
        <time>2020-08-01T10:01:36.584Z</time>
      </trkpt>
      <trkpt lat="62.53257" lon="6.29458">
        <ele>91.971977</ele>
        <time>2020-08-01T10:01:39.577Z</time>
      </trkpt>
      <trkpt lat="62.53261" lon="6.2944">
        <ele>92.236927</ele>
        <time>2020-08-01T10:01:41.574Z</time>
      </trkpt>
      <trkpt lat="62.53266" lon="6.2942">
        <ele>92.514365</ele>
        <time>2020-08-01T10:01:43.586Z</time>
      </trkpt>
      <trkpt lat="62.53269" lon="6.29401">
        <ele>92.77331</ele>
        <time>2020-08-01T10:01:45.579Z</time>
      </trkpt>
      <trkpt lat="62.53275" lon="6.29375">
        <ele>93.136658</ele>
        <time>2020-08-01T10:01:48.584Z</time>
      </trkpt>
      <trkpt lat="62.53279" lon="6.29351">
        <ele>93.467982</ele>
        <time>2020-08-01T10:01:51.575Z</time>
      </trkpt>
      <trkpt lat="62.53281" lon="6.29329">
        <ele>93.749509</ele>
        <time>2020-08-01T10:01:54.580Z</time>
      </trkpt>
      <trkpt lat="62.53282" lon="6.2931">
        <ele>93.998462</ele>
        <time>2020-08-01T10:01:57.578Z</time>
      </trkpt>
      <trkpt lat="62.53281" lon="6.29287">
        <ele>94.298169</ele>
        <time>2020-08-01T10:02:01.576Z</time>
      </trkpt>
      <trkpt lat="62.53279" lon="6.29263">
        <ele>94.608161</ele>
        <time>2020-08-01T10:02:06.578Z</time>
      </trkpt>
      <trkpt lat="62.53278" lon="6.29241">
        <ele>94.897101</ele>
        <time>2020-08-01T10:02:11.576Z</time>
      </trkpt>
      <trkpt lat="62.53273" lon="6.29222">
        <ele>95.161786</ele>
        <time>2020-08-01T10:02:16.572Z</time>
      </trkpt>
      <trkpt lat="62.53269" lon="6.29201">
        <ele>95.454365</ele>
        <time>2020-08-01T10:02:22.584Z</time>
      </trkpt>
      <trkpt lat="62.53264" lon="6.2918">
        <ele>95.750376</ele>
        <time>2020-08-01T10:02:27.587Z</time>
      </trkpt>
      <trkpt lat="62.53261" lon="6.2916">
        <ele>96.022861</ele>
        <time>2020-08-01T10:02:31.573Z</time>
      </trkpt>
      <trkpt lat="62.53259" lon="6.29136">
        <ele>96.329937</ele>
        <time>2020-08-01T10:02:35.578Z</time>
      </trkpt>
      <trkpt lat="62.53258" lon="6.29111">
        <ele>96.657341</ele>
        <time>2020-08-01T10:02:39.576Z</time>
      </trkpt>
      <trkpt lat="62.53259" lon="6.29087">
        <ele>96.951561</ele>
        <time>2020-08-01T10:02:42.574Z</time>
      </trkpt>
      <trkpt lat="62.53258" lon="6.29063">
        <ele>96.763353</ele>
        <time>2020-08-01T10:02:45.575Z</time>
      </trkpt>
      <trkpt lat="62.53258" lon="6.29037">
        <ele>96.565479</ele>
        <time>2020-08-01T10:02:48.570Z</time>
      </trkpt>
      <trkpt lat="62.53257" lon="6.29013">
        <ele>96.383257</ele>
        <time>2020-08-01T10:02:52.605Z</time>
      </trkpt>
      <trkpt lat="62.53255" lon="6.28991">
        <ele>96.213838</ele>
        <time>2020-08-01T10:02:57.577Z</time>
      </trkpt>
      <trkpt lat="62.53254" lon="6.28967">
        <ele>96.027501</ele>
        <time>2020-08-01T10:03:02.592Z</time>
      </trkpt>
      <trkpt lat="62.53253" lon="6.28947">
        <ele>95.869459</ele>
        <time>2020-08-01T10:03:05.594Z</time>
      </trkpt>
      <trkpt lat="62.53251" lon="6.28919">
        <ele>95.655624</ele>
        <time>2020-08-01T10:03:08.575Z</time>
      </trkpt>
      <trkpt lat="62.53249" lon="6.28898">
        <ele>95.487485</ele>
        <time>2020-08-01T10:03:10.577Z</time>
      </trkpt>
      <trkpt lat="62.53248" lon="6.28878">
        <ele>95.332696</ele>
        <time>2020-08-01T10:03:12.576Z</time>
      </trkpt>
      <trkpt lat="62.53247" lon="6.28857">
        <ele>95.173971</ele>
        <time>2020-08-01T10:03:15.579Z</time>
      </trkpt>
      <trkpt lat="62.53245" lon="6.28836">
        <ele>95.008104</ele>
        <time>2020-08-01T10:03:19.571Z</time>
      </trkpt>
      <trkpt lat="62.53243" lon="6.28816">
        <ele>94.853451</ele>
        <time>2020-08-01T10:03:22.573Z</time>
      </trkpt>
      <trkpt lat="62.5324" lon="6.28796">
        <ele>94.690225</ele>
        <time>2020-08-01T10:03:24.589Z</time>
      </trkpt>
      <trkpt lat="62.53237" lon="6.28766">
        <ele>94.457619</ele>
        <time>2020-08-01T10:03:26.578Z</time>
      </trkpt>
      <trkpt lat="62.53233" lon="6.28728">
        <ele>94.161555</ele>
        <time>2020-08-01T10:03:28.583Z</time>
      </trkpt>
      <trkpt lat="62.53228" lon="6.28692">
        <ele>93.658041</ele>
        <time>2020-08-01T10:03:30.575Z</time>
      </trkpt>
      <trkpt lat="62.53222" lon="6.28657">
        <ele>92.714753</ele>
        <time>2020-08-01T10:03:32.575Z</time>
      </trkpt>
      <trkpt lat="62.53216" lon="6.28623">
        <ele>91.783664</ele>
        <time>2020-08-01T10:03:34.579Z</time>
      </trkpt>
      <trkpt lat="62.53209" lon="6.28588">
        <ele>90.816894</ele>
        <time>2020-08-01T10:03:36.573Z</time>
      </trkpt>
      <trkpt lat="62.53203" lon="6.28556">
        <ele>89.930932</ele>
        <time>2020-08-01T10:03:38.579Z</time>
      </trkpt>
      <trkpt lat="62.53195" lon="6.28532">
        <ele>89.19524</ele>
        <time>2020-08-01T10:03:40.574Z</time>
      </trkpt>
      <trkpt lat="62.53189" lon="6.28513">
        <ele>88.608559</ele>
        <time>2020-08-01T10:03:42.579Z</time>
      </trkpt>
      <trkpt lat="62.53185" lon="6.28493">
        <ele>88.065489</ele>
        <time>2020-08-01T10:03:44.573Z</time>
      </trkpt>
      <trkpt lat="62.53182" lon="6.28473">
        <ele>87.523862</ele>
        <time>2020-08-01T10:03:46.589Z</time>
      </trkpt>
      <trkpt lat="62.53178" lon="6.28452">
        <ele>86.955702</ele>
        <time>2020-08-01T10:03:48.576Z</time>
      </trkpt>
      <trkpt lat="62.53176" lon="6.2843">
        <ele>86.374206</ele>
        <time>2020-08-01T10:03:50.576Z</time>
      </trkpt>
      <trkpt lat="62.53174" lon="6.28408">
        <ele>85.816186</ele>
        <time>2020-08-01T10:03:52.574Z</time>
      </trkpt>
      <trkpt lat="62.53172" lon="6.28388">
        <ele>85.307763</ele>
        <time>2020-08-01T10:03:54.575Z</time>
      </trkpt>
      <trkpt lat="62.5317" lon="6.28365">
        <ele>84.713917</ele>
        <time>2020-08-01T10:03:57.595Z</time>
      </trkpt>
      <trkpt lat="62.53169" lon="6.28341">
        <ele>84.086277</ele>
        <time>2020-08-01T10:04:00.597Z</time>
      </trkpt>
      <trkpt lat="62.53167" lon="6.28314">
        <ele>84.069126</ele>
        <time>2020-08-01T10:04:03.593Z</time>
      </trkpt>
      <trkpt lat="62.53166" lon="6.28292">
        <ele>84.054653</ele>
        <time>2020-08-01T10:04:06.580Z</time>
      </trkpt>
      <trkpt lat="62.53165" lon="6.28267">
        <ele>84.038512</ele>
        <time>2020-08-01T10:04:09.612Z</time>
      </trkpt>
      <trkpt lat="62.53165" lon="6.28239">
        <ele>84.020697</ele>
        <time>2020-08-01T10:04:12.572Z</time>
      </trkpt>
      <trkpt lat="62.53163" lon="6.28211">
        <ele>84.00288</ele>
        <time>2020-08-01T10:04:15.583Z</time>
      </trkpt>
      <trkpt lat="62.53161" lon="6.28183">
        <ele>83.984386</ele>
        <time>2020-08-01T10:04:18.585Z</time>
      </trkpt>
      <trkpt lat="62.5316" lon="6.28163">
        <ele>83.971649</ele>
        <time>2020-08-01T10:04:20.579Z</time>
      </trkpt>
      <trkpt lat="62.53158" lon="6.28136">
        <ele>83.953662</ele>
        <time>2020-08-01T10:04:23.584Z</time>
      </trkpt>
      <trkpt lat="62.53155" lon="6.28107">
        <ele>83.935018</ele>
        <time>2020-08-01T10:04:26.578Z</time>
      </trkpt>
      <trkpt lat="62.53153" lon="6.28088">
        <ele>83.922154</ele>
        <time>2020-08-01T10:04:28.573Z</time>
      </trkpt>
      <trkpt lat="62.53151" lon="6.28061">
        <ele>83.904673</ele>
        <time>2020-08-01T10:04:31.587Z</time>
      </trkpt>
      <trkpt lat="62.53149" lon="6.28036">
        <ele>83.888076</ele>
        <time>2020-08-01T10:04:34.578Z</time>
      </trkpt>
      <trkpt lat="62.53146" lon="6.28011">
        <ele>83.871774</ele>
        <time>2020-08-01T10:04:37.591Z</time>
      </trkpt>
      <trkpt lat="62.53144" lon="6.27988">
        <ele>83.856625</ele>
        <time>2020-08-01T10:04:40.580Z</time>
      </trkpt>
      <trkpt lat="62.53142" lon="6.27962">
        <ele>83.839883</ele>
        <time>2020-08-01T10:04:44.578Z</time>
      </trkpt>
      <trkpt lat="62.5314" lon="6.27942">
        <ele>83.887031</ele>
        <time>2020-08-01T10:04:47.588Z</time>
      </trkpt>
      <trkpt lat="62.53137" lon="6.27921">
        <ele>83.961967</ele>
        <time>2020-08-01T10:04:50.580Z</time>
      </trkpt>
      <trkpt lat="62.53135" lon="6.27902">
        <ele>84.030337</ele>
        <time>2020-08-01T10:04:53.571Z</time>
      </trkpt>
      <trkpt lat="62.53133" lon="6.27877">
        <ele>84.120017</ele>
        <time>2020-08-01T10:04:57.581Z</time>
      </trkpt>
      <trkpt lat="62.53131" lon="6.27855">
        <ele>84.197793</ele>
        <time>2020-08-01T10:05:00.577Z</time>
      </trkpt>
      <trkpt lat="62.53129" lon="6.27832">
        <ele>84.281373</ele>
        <time>2020-08-01T10:05:03.584Z</time>
      </trkpt>
      <trkpt lat="62.53127" lon="6.27808">
        <ele>84.36542</ele>
        <time>2020-08-01T10:05:06.574Z</time>
      </trkpt>
      <trkpt lat="62.53127" lon="6.27783">
        <ele>84.453262</ele>
        <time>2020-08-01T10:05:09.571Z</time>
      </trkpt>
      <trkpt lat="62.53129" lon="6.27758">
        <ele>84.541578</ele>
        <time>2020-08-01T10:05:12.584Z</time>
      </trkpt>
      <trkpt lat="62.5313" lon="6.27735">
        <ele>84.62114</ele>
        <time>2020-08-01T10:05:15.570Z</time>
      </trkpt>
      <trkpt lat="62.53132" lon="6.27713">
        <ele>84.70092</ele>
        <time>2020-08-01T10:05:18.581Z</time>
      </trkpt>
      <trkpt lat="62.53135" lon="6.27688">
        <ele>84.791461</ele>
        <time>2020-08-01T10:05:21.572Z</time>
      </trkpt>
      <trkpt lat="62.53137" lon="6.27665">
        <ele>84.874827</ele>
        <time>2020-08-01T10:05:24.580Z</time>
      </trkpt>
      <trkpt lat="62.53139" lon="6.27643">
        <ele>84.950943</ele>
        <time>2020-08-01T10:05:27.575Z</time>
      </trkpt>
      <trkpt lat="62.53142" lon="6.27621">
        <ele>85.030464</ele>
        <time>2020-08-01T10:05:30.581Z</time>
      </trkpt>
      <trkpt lat="62.53146" lon="6.27597">
        <ele>85.120415</ele>
        <time>2020-08-01T10:05:33.582Z</time>
      </trkpt>
      <trkpt lat="62.53151" lon="6.27573">
        <ele>85.174215</ele>
        <time>2020-08-01T10:05:36.594Z</time>
      </trkpt>
      <trkpt lat="62.53157" lon="6.27553">
        <ele>84.966629</ele>
        <time>2020-08-01T10:05:39.588Z</time>
      </trkpt>
      <trkpt lat="62.53163" lon="6.27535">
        <ele>84.775263</ele>
        <time>2020-08-01T10:05:42.580Z</time>
      </trkpt>
      <trkpt lat="62.53169" lon="6.27519">
        <ele>84.591203</ele>
        <time>2020-08-01T10:05:45.571Z</time>
      </trkpt>
      <trkpt lat="62.53175" lon="6.27504">
        <ele>84.417044</ele>
        <time>2020-08-01T10:05:48.571Z</time>
      </trkpt>
      <trkpt lat="62.53181" lon="6.27486">
        <ele>84.227051</ele>
        <time>2020-08-01T10:05:51.588Z</time>
      </trkpt>
      <trkpt lat="62.53188" lon="6.27469">
        <ele>84.024969</ele>
        <time>2020-08-01T10:05:54.579Z</time>
      </trkpt>
      <trkpt lat="62.53197" lon="6.27454">
        <ele>83.812884</ele>
        <time>2020-08-01T10:05:57.577Z</time>
      </trkpt>
      <trkpt lat="62.53208" lon="6.2744">
        <ele>83.570123</ele>
        <time>2020-08-01T10:06:00.567Z</time>
      </trkpt>
      <trkpt lat="62.53217" lon="6.27431">
        <ele>83.392421</ele>
        <time>2020-08-01T10:06:02.580Z</time>
      </trkpt>
      <trkpt lat="62.53227" lon="6.27423">
        <ele>83.190474</ele>
        <time>2020-08-01T10:06:04.578Z</time>
      </trkpt>
      <trkpt lat="62.53239" lon="6.27413">
        <ele>82.95114</ele>
        <time>2020-08-01T10:06:06.574Z</time>
      </trkpt>
      <trkpt lat="62.53253" lon="6.27403">
        <ele>82.671672</ele>
        <time>2020-08-01T10:06:08.579Z</time>
      </trkpt>
      <trkpt lat="62.53269" lon="6.27391">
        <ele>82.351447</ele>
        <time>2020-08-01T10:06:10.576Z</time>
      </trkpt>
      <trkpt lat="62.53278" lon="6.27384">
        <ele>82.172231</ele>
        <time>2020-08-01T10:06:11.577Z</time>
      </trkpt>
      <trkpt lat="62.53287" lon="6.27377">
        <ele>81.994228</ele>
        <time>2020-08-01T10:06:12.573Z</time>
      </trkpt>
      <trkpt lat="62.53296" lon="6.27369">
        <ele>81.787506</ele>
        <time>2020-08-01T10:06:13.573Z</time>
      </trkpt>
      <trkpt lat="62.53305" lon="6.27362">
        <ele>81.04762</ele>
        <time>2020-08-01T10:06:14.588Z</time>
      </trkpt>
      <trkpt lat="62.53314" lon="6.27354">
        <ele>80.310223</ele>
        <time>2020-08-01T10:06:15.589Z</time>
      </trkpt>
      <trkpt lat="62.53324" lon="6.27346">
        <ele>79.551318</ele>
        <time>2020-08-01T10:06:16.576Z</time>
      </trkpt>
      <trkpt lat="62.53333" lon="6.27338">
        <ele>78.814531</ele>
        <time>2020-08-01T10:06:17.579Z</time>
      </trkpt>
      <trkpt lat="62.53342" lon="6.2733">
        <ele>78.09481</ele>
        <time>2020-08-01T10:06:18.579Z</time>
      </trkpt>
      <trkpt lat="62.5335" lon="6.27323">
        <ele>77.422016</ele>
        <time>2020-08-01T10:06:19.580Z</time>
      </trkpt>
      <trkpt lat="62.53366" lon="6.27312">
        <ele>76.187896</ele>
        <time>2020-08-01T10:06:21.598Z</time>
      </trkpt>
      <trkpt lat="62.53379" lon="6.27302">
        <ele>75.140611</ele>
        <time>2020-08-01T10:06:23.583Z</time>
      </trkpt>
      <trkpt lat="62.53392" lon="6.27292">
        <ele>74.118002</ele>
        <time>2020-08-01T10:06:25.571Z</time>
      </trkpt>
      <trkpt lat="62.53406" lon="6.27281">
        <ele>73.021446</ele>
        <time>2020-08-01T10:06:27.583Z</time>
      </trkpt>
      <trkpt lat="62.53421" lon="6.27273">
        <ele>71.815819</ele>
        <time>2020-08-01T10:06:29.580Z</time>
      </trkpt>
      <trkpt lat="62.53439" lon="6.27271">
        <ele>70.517629</ele>
        <time>2020-08-01T10:06:31.572Z</time>
      </trkpt>
      <trkpt lat="62.53448" lon="6.27273">
        <ele>69.803668</ele>
        <time>2020-08-01T10:06:32.587Z</time>
      </trkpt>
      <trkpt lat="62.53458" lon="6.27276">
        <ele>69.084112</ele>
        <time>2020-08-01T10:06:33.578Z</time>
      </trkpt>
      <trkpt lat="62.53467" lon="6.27281">
        <ele>68.371131</ele>
        <time>2020-08-01T10:06:34.576Z</time>
      </trkpt>
      <trkpt lat="62.53476" lon="6.27288">
        <ele>67.775276</ele>
        <time>2020-08-01T10:06:35.581Z</time>
      </trkpt>
      <trkpt lat="62.53485" lon="6.27296">
        <ele>67.187273</ele>
        <time>2020-08-01T10:06:36.576Z</time>
      </trkpt>
      <trkpt lat="62.53493" lon="6.27305">
        <ele>66.603957</ele>
        <time>2020-08-01T10:06:37.591Z</time>
      </trkpt>
      <trkpt lat="62.53501" lon="6.27316">
        <ele>66.024317</ele>
        <time>2020-08-01T10:06:38.581Z</time>
      </trkpt>
      <trkpt lat="62.53509" lon="6.27328">
        <ele>65.422976</ele>
        <time>2020-08-01T10:06:39.585Z</time>
      </trkpt>
      <trkpt lat="62.53517" lon="6.27339">
        <ele>64.816101</ele>
        <time>2020-08-01T10:06:40.573Z</time>
      </trkpt>
      <trkpt lat="62.53526" lon="6.27352">
        <ele>64.194567</ele>
        <time>2020-08-01T10:06:41.579Z</time>
      </trkpt>
      <trkpt lat="62.53534" lon="6.27364">
        <ele>63.573309</ele>
        <time>2020-08-01T10:06:42.593Z</time>
      </trkpt>
      <trkpt lat="62.53541" lon="6.27378">
        <ele>62.952278</ele>
        <time>2020-08-01T10:06:43.577Z</time>
      </trkpt>
      <trkpt lat="62.53549" lon="6.27394">
        <ele>62.322964</ele>
        <time>2020-08-01T10:06:44.577Z</time>
      </trkpt>
      <trkpt lat="62.53556" lon="6.2741">
        <ele>61.688372</ele>
        <time>2020-08-01T10:06:45.572Z</time>
      </trkpt>
      <trkpt lat="62.53562" lon="6.27427">
        <ele>61.077141</ele>
        <time>2020-08-01T10:06:46.572Z</time>
      </trkpt>
      <trkpt lat="62.53568" lon="6.27443">
        <ele>60.47804</ele>
        <time>2020-08-01T10:06:47.596Z</time>
      </trkpt>
      <trkpt lat="62.53574" lon="6.27461">
        <ele>59.861545</ele>
        <time>2020-08-01T10:06:48.577Z</time>
      </trkpt>
      <trkpt lat="62.5358" lon="6.27477">
        <ele>59.255349</ele>
        <time>2020-08-01T10:06:49.585Z</time>
      </trkpt>
      <trkpt lat="62.53586" lon="6.27493">
        <ele>58.664744</ele>
        <time>2020-08-01T10:06:50.577Z</time>
      </trkpt>
      <trkpt lat="62.53592" lon="6.27507">
        <ele>58.091098</ele>
        <time>2020-08-01T10:06:51.589Z</time>
      </trkpt>
      <trkpt lat="62.53605" lon="6.27534">
        <ele>57.054047</ele>
        <time>2020-08-01T10:06:53.568Z</time>
      </trkpt>
      <trkpt lat="62.53618" lon="6.27558">
        <ele>56.275565</ele>
        <time>2020-08-01T10:06:55.577Z</time>
      </trkpt>
      <trkpt lat="62.53633" lon="6.2758">
        <ele>55.473055</ele>
        <time>2020-08-01T10:06:57.577Z</time>
      </trkpt>
      <trkpt lat="62.53641" lon="6.27589">
        <ele>55.063395</ele>
        <time>2020-08-01T10:06:58.581Z</time>
      </trkpt>
      <trkpt lat="62.53649" lon="6.27597">
        <ele>54.649426</ele>
        <time>2020-08-01T10:06:59.575Z</time>
      </trkpt>
      <trkpt lat="62.53657" lon="6.27606">
        <ele>54.234952</ele>
        <time>2020-08-01T10:07:00.571Z</time>
      </trkpt>
      <trkpt lat="62.53673" lon="6.27622">
        <ele>53.435625</ele>
        <time>2020-08-01T10:07:02.572Z</time>
      </trkpt>
      <trkpt lat="62.53688" lon="6.27639">
        <ele>52.652</ele>
        <time>2020-08-01T10:07:04.585Z</time>
      </trkpt>
      <trkpt lat="62.53703" lon="6.27658">
        <ele>51.882315</ele>
        <time>2020-08-01T10:07:06.576Z</time>
      </trkpt>
      <trkpt lat="62.53716" lon="6.27679">
        <ele>51.141072</ele>
        <time>2020-08-01T10:07:08.574Z</time>
      </trkpt>
      <trkpt lat="62.53727" lon="6.27703">
        <ele>50.441316</ele>
        <time>2020-08-01T10:07:10.574Z</time>
      </trkpt>
      <trkpt lat="62.53737" lon="6.27727">
        <ele>49.771921</ele>
        <time>2020-08-01T10:07:12.570Z</time>
      </trkpt>
      <trkpt lat="62.53746" lon="6.2775">
        <ele>49.141121</ele>
        <time>2020-08-01T10:07:14.607Z</time>
      </trkpt>
      <trkpt lat="62.53754" lon="6.27773">
        <ele>49.031392</ele>
        <time>2020-08-01T10:07:16.592Z</time>
      </trkpt>
      <trkpt lat="62.53761" lon="6.27796">
        <ele>49.01877</ele>
        <time>2020-08-01T10:07:18.575Z</time>
      </trkpt>
      <trkpt lat="62.53768" lon="6.27817">
        <ele>49.007564</ele>
        <time>2020-08-01T10:07:20.624Z</time>
      </trkpt>
      <trkpt lat="62.53773" lon="6.27838">
        <ele>48.996863</ele>
        <time>2020-08-01T10:07:22.577Z</time>
      </trkpt>
      <trkpt lat="62.53778" lon="6.27857">
        <ele>48.987065</ele>
        <time>2020-08-01T10:07:24.585Z</time>
      </trkpt>
      <trkpt lat="62.53783" lon="6.27875">
        <ele>48.977479</ele>
        <time>2020-08-01T10:07:26.577Z</time>
      </trkpt>
      <trkpt lat="62.53787" lon="6.27894">
        <ele>48.968203</ele>
        <time>2020-08-01T10:07:28.576Z</time>
      </trkpt>
      <trkpt lat="62.53791" lon="6.27913">
        <ele>48.959091</ele>
        <time>2020-08-01T10:07:30.584Z</time>
      </trkpt>
      <trkpt lat="62.53795" lon="6.2793">
        <ele>48.950091</ele>
        <time>2020-08-01T10:07:32.581Z</time>
      </trkpt>
      <trkpt lat="62.538" lon="6.27948">
        <ele>48.940826</ele>
        <time>2020-08-01T10:07:34.595Z</time>
      </trkpt>
      <trkpt lat="62.53805" lon="6.27967">
        <ele>48.931397</ele>
        <time>2020-08-01T10:07:36.581Z</time>
      </trkpt>
      <trkpt lat="62.5381" lon="6.27984">
        <ele>48.922062</ele>
        <time>2020-08-01T10:07:38.578Z</time>
      </trkpt>
      <trkpt lat="62.53815" lon="6.28002">
        <ele>48.913006</ele>
        <time>2020-08-01T10:07:40.591Z</time>
      </trkpt>
      <trkpt lat="62.53819" lon="6.28019">
        <ele>48.903848</ele>
        <time>2020-08-01T10:07:42.575Z</time>
      </trkpt>
      <trkpt lat="62.53825" lon="6.28035">
        <ele>48.895007</ele>
        <time>2020-08-01T10:07:44.574Z</time>
      </trkpt>
      <trkpt lat="62.53829" lon="6.28052">
        <ele>48.886156</ele>
        <time>2020-08-01T10:07:46.571Z</time>
      </trkpt>
      <trkpt lat="62.53835" lon="6.28068">
        <ele>48.877315</ele>
        <time>2020-08-01T10:07:48.575Z</time>
      </trkpt>
      <trkpt lat="62.5384" lon="6.28085">
        <ele>48.868164</ele>
        <time>2020-08-01T10:07:50.587Z</time>
      </trkpt>
      <trkpt lat="62.53846" lon="6.281">
        <ele>49.108748</ele>
        <time>2020-08-01T10:07:52.581Z</time>
      </trkpt>
      <trkpt lat="62.53852" lon="6.28116">
        <ele>49.372173</ele>
        <time>2020-08-01T10:07:54.582Z</time>
      </trkpt>
      <trkpt lat="62.53859" lon="6.28133">
        <ele>49.653043</ele>
        <time>2020-08-01T10:07:56.575Z</time>
      </trkpt>
      <trkpt lat="62.53866" lon="6.28149">
        <ele>49.923919</ele>
        <time>2020-08-01T10:07:58.572Z</time>
      </trkpt>
      <trkpt lat="62.53871" lon="6.28166">
        <ele>50.190003</ele>
        <time>2020-08-01T10:08:00.573Z</time>
      </trkpt>
      <trkpt lat="62.53877" lon="6.28182">
        <ele>50.454637</ele>
        <time>2020-08-01T10:08:02.586Z</time>
      </trkpt>
      <trkpt lat="62.53883" lon="6.28198">
        <ele>50.722765</ele>
        <time>2020-08-01T10:08:04.578Z</time>
      </trkpt>
      <trkpt lat="62.53889" lon="6.28214">
        <ele>50.984235</ele>
        <time>2020-08-01T10:08:06.572Z</time>
      </trkpt>
      <trkpt lat="62.53896" lon="6.28228">
        <ele>51.236213</ele>
        <time>2020-08-01T10:08:08.580Z</time>
      </trkpt>
      <trkpt lat="62.53902" lon="6.28242">
        <ele>51.487284</ele>
        <time>2020-08-01T10:08:10.580Z</time>
      </trkpt>
      <trkpt lat="62.53912" lon="6.28262">
        <ele>51.846346</ele>
        <time>2020-08-01T10:08:13.592Z</time>
      </trkpt>
      <trkpt lat="62.53921" lon="6.28282">
        <ele>52.218295</ele>
        <time>2020-08-01T10:08:16.575Z</time>
      </trkpt>
      <trkpt lat="62.53928" lon="6.28297">
        <ele>52.479907</ele>
        <time>2020-08-01T10:08:18.581Z</time>
      </trkpt>
      <trkpt lat="62.53935" lon="6.2831">
        <ele>52.73743</ele>
        <time>2020-08-01T10:08:20.595Z</time>
      </trkpt>
      <trkpt lat="62.53944" lon="6.2833">
        <ele>53.101872</ele>
        <time>2020-08-01T10:08:23.582Z</time>
      </trkpt>
      <trkpt lat="62.53953" lon="6.28348">
        <ele>53.444132</ele>
        <time>2020-08-01T10:08:26.581Z</time>
      </trkpt>
      <trkpt lat="62.5396" lon="6.28361">
        <ele>53.692822</ele>
        <time>2020-08-01T10:08:28.585Z</time>
      </trkpt>
      <trkpt lat="62.5397" lon="6.28378">
        <ele>53.886613</ele>
        <time>2020-08-01T10:08:31.577Z</time>
      </trkpt>
      <trkpt lat="62.53979" lon="6.28396">
        <ele>53.968644</ele>
        <time>2020-08-01T10:08:34.585Z</time>
      </trkpt>
      <trkpt lat="62.53988" lon="6.28412">
        <ele>54.049212</ele>
        <time>2020-08-01T10:08:37.626Z</time>
      </trkpt>
      <trkpt lat="62.53997" lon="6.28428">
        <ele>54.126691</ele>
        <time>2020-08-01T10:08:40.577Z</time>
      </trkpt>
      <trkpt lat="62.54006" lon="6.28446">
        <ele>54.210292</ele>
        <time>2020-08-01T10:08:43.577Z</time>
      </trkpt>
      <trkpt lat="62.54014" lon="6.28465">
        <ele>54.294327</ele>
        <time>2020-08-01T10:08:46.588Z</time>
      </trkpt>
      <trkpt lat="62.54023" lon="6.28484">
        <ele>54.379012</ele>
        <time>2020-08-01T10:08:49.581Z</time>
      </trkpt>
      <trkpt lat="62.54031" lon="6.28504">
        <ele>54.463465</ele>
        <time>2020-08-01T10:08:52.575Z</time>
      </trkpt>
      <trkpt lat="62.54039" lon="6.28524">
        <ele>54.548748</ele>
        <time>2020-08-01T10:08:55.574Z</time>
      </trkpt>
      <trkpt lat="62.54046" lon="6.28546">
        <ele>54.633063</ele>
        <time>2020-08-01T10:08:58.576Z</time>
      </trkpt>
      <trkpt lat="62.54054" lon="6.28566">
        <ele>54.71604</ele>
        <time>2020-08-01T10:09:01.572Z</time>
      </trkpt>
      <trkpt lat="62.54061" lon="6.28586">
        <ele>54.794854</ele>
        <time>2020-08-01T10:09:04.582Z</time>
      </trkpt>
      <trkpt lat="62.54068" lon="6.28605">
        <ele>54.872005</ele>
        <time>2020-08-01T10:09:07.588Z</time>
      </trkpt>
      <trkpt lat="62.54075" lon="6.28624">
        <ele>54.9514</ele>
        <time>2020-08-01T10:09:10.592Z</time>
      </trkpt>
      <trkpt lat="62.54083" lon="6.28642">
        <ele>55.030733</ele>
        <time>2020-08-01T10:09:13.571Z</time>
      </trkpt>
      <trkpt lat="62.54091" lon="6.2866">
        <ele>55.224039</ele>
        <time>2020-08-01T10:09:16.573Z</time>
      </trkpt>
      <trkpt lat="62.541" lon="6.28677">
        <ele>55.532374</ele>
        <time>2020-08-01T10:09:19.594Z</time>
      </trkpt>
      <trkpt lat="62.54109" lon="6.28693">
        <ele>55.852133</ele>
        <time>2020-08-01T10:09:22.575Z</time>
      </trkpt>
      <trkpt lat="62.54118" lon="6.28711">
        <ele>56.175748</ele>
        <time>2020-08-01T10:09:25.582Z</time>
      </trkpt>
      <trkpt lat="62.54124" lon="6.28731">
        <ele>56.462745</ele>
        <time>2020-08-01T10:09:28.576Z</time>
      </trkpt>
      <trkpt lat="62.54128" lon="6.2875">
        <ele>56.719095</ele>
        <time>2020-08-01T10:09:31.571Z</time>
      </trkpt>
      <trkpt lat="62.54131" lon="6.28769">
        <ele>56.971266</ele>
        <time>2020-08-01T10:09:34.578Z</time>
      </trkpt>
      <trkpt lat="62.54135" lon="6.28792">
        <ele>57.25956</ele>
        <time>2020-08-01T10:09:38.575Z</time>
      </trkpt>
      <trkpt lat="62.54139" lon="6.28813">
        <ele>57.54787</ele>
        <time>2020-08-01T10:09:42.575Z</time>
      </trkpt>
      <trkpt lat="62.54143" lon="6.28837">
        <ele>57.850385</ele>
        <time>2020-08-01T10:09:46.582Z</time>
      </trkpt>
      <trkpt lat="62.54147" lon="6.28859">
        <ele>58.142376</ele>
        <time>2020-08-01T10:09:50.578Z</time>
      </trkpt>
      <trkpt lat="62.5415" lon="6.28878">
        <ele>58.39279</ele>
        <time>2020-08-01T10:09:54.578Z</time>
      </trkpt>
      <trkpt lat="62.54155" lon="6.28899">
        <ele>58.689972</ele>
        <time>2020-08-01T10:09:59.580Z</time>
      </trkpt>
      <trkpt lat="62.54159" lon="6.28917">
        <ele>58.929353</ele>
        <time>2020-08-01T10:10:03.573Z</time>
      </trkpt>
      <trkpt lat="62.54164" lon="6.28936">
        <ele>59.205908</ele>
        <time>2020-08-01T10:10:08.584Z</time>
      </trkpt>
      <trkpt lat="62.5417" lon="6.28957">
        <ele>59.497919</ele>
        <time>2020-08-01T10:10:13.580Z</time>
      </trkpt>
      <trkpt lat="62.54175" lon="6.28976">
        <ele>59.760347</ele>
        <time>2020-08-01T10:10:17.581Z</time>
      </trkpt>
      <trkpt lat="62.5418" lon="6.28996">
        <ele>59.766825</ele>
        <time>2020-08-01T10:10:21.578Z</time>
      </trkpt>
      <trkpt lat="62.54185" lon="6.29016">
        <ele>59.648261</ele>
        <time>2020-08-01T10:10:25.579Z</time>
      </trkpt>
      <trkpt lat="62.54192" lon="6.29035">
        <ele>59.530308</ele>
        <time>2020-08-01T10:10:29.576Z</time>
      </trkpt>
      <trkpt lat="62.54199" lon="6.29052">
        <ele>59.413536</ele>
        <time>2020-08-01T10:10:33.578Z</time>
      </trkpt>
      <trkpt lat="62.54207" lon="6.29068">
        <ele>59.296692</ele>
        <time>2020-08-01T10:10:37.573Z</time>
      </trkpt>
      <trkpt lat="62.54215" lon="6.29079">
        <ele>59.19098</ele>
        <time>2020-08-01T10:10:41.582Z</time>
      </trkpt>
      <trkpt lat="62.54224" lon="6.29087">
        <ele>59.083018</ele>
        <time>2020-08-01T10:10:45.591Z</time>
      </trkpt>
      <trkpt lat="62.54233" lon="6.29086">
        <ele>58.985465</ele>
        <time>2020-08-01T10:10:48.578Z</time>
      </trkpt>
      <trkpt lat="62.54244" lon="6.29082">
        <ele>58.865966</ele>
        <time>2020-08-01T10:10:51.581Z</time>
      </trkpt>
      <trkpt lat="62.54256" lon="6.29076">
        <ele>58.737909</ele>
        <time>2020-08-01T10:10:54.572Z</time>
      </trkpt>
      <trkpt lat="62.54269" lon="6.29071">
        <ele>58.588855</ele>
        <time>2020-08-01T10:10:57.579Z</time>
      </trkpt>
      <trkpt lat="62.5428" lon="6.29067">
        <ele>58.470196</ele>
        <time>2020-08-01T10:10:59.576Z</time>
      </trkpt>
      <trkpt lat="62.5429" lon="6.29062">
        <ele>58.356553</ele>
        <time>2020-08-01T10:11:01.581Z</time>
      </trkpt>
      <trkpt lat="62.54301" lon="6.29052">
        <ele>58.219926</ele>
        <time>2020-08-01T10:11:04.570Z</time>
      </trkpt>
      <trkpt lat="62.54311" lon="6.29044">
        <ele>58.111527</ele>
        <time>2020-08-01T10:11:07.577Z</time>
      </trkpt>
      <trkpt lat="62.5432" lon="6.29038">
        <ele>58.007464</ele>
        <time>2020-08-01T10:11:10.581Z</time>
      </trkpt>
      <trkpt lat="62.54329" lon="6.2903">
        <ele>57.901701</ele>
        <time>2020-08-01T10:11:13.582Z</time>
      </trkpt>
      <trkpt lat="62.54339" lon="6.29023">
        <ele>58.152896</ele>
        <time>2020-08-01T10:11:16.596Z</time>
      </trkpt>
      <trkpt lat="62.54349" lon="6.29015">
        <ele>58.492297</ele>
        <time>2020-08-01T10:11:19.579Z</time>
      </trkpt>
      <trkpt lat="62.54358" lon="6.29006">
        <ele>58.817144</ele>
        <time>2020-08-01T10:11:22.576Z</time>
      </trkpt>
      <trkpt lat="62.54367" lon="6.28999">
        <ele>59.110977</ele>
        <time>2020-08-01T10:11:25.578Z</time>
      </trkpt>
      <trkpt lat="62.54376" lon="6.28991">
        <ele>59.401906</ele>
        <time>2020-08-01T10:11:28.586Z</time>
      </trkpt>
      <trkpt lat="62.54386" lon="6.28981">
        <ele>59.750941</ele>
        <time>2020-08-01T10:11:32.579Z</time>
      </trkpt>
      <trkpt lat="62.54396" lon="6.2897">
        <ele>60.099421</ele>
        <time>2020-08-01T10:11:36.577Z</time>
      </trkpt>
      <trkpt lat="62.54405" lon="6.28956">
        <ele>60.446601</ele>
        <time>2020-08-01T10:11:40.570Z</time>
      </trkpt>
      <trkpt lat="62.54414" lon="6.28943">
        <ele>60.781953</ele>
        <time>2020-08-01T10:11:44.570Z</time>
      </trkpt>
      <trkpt lat="62.54422" lon="6.28929">
        <ele>61.105242</ele>
        <time>2020-08-01T10:11:48.580Z</time>
      </trkpt>
      <trkpt lat="62.5443" lon="6.28916">
        <ele>61.419432</ele>
        <time>2020-08-01T10:11:52.584Z</time>
      </trkpt>
      <trkpt lat="62.54438" lon="6.289">
        <ele>61.754135</ele>
        <time>2020-08-01T10:11:57.575Z</time>
      </trkpt>
      <trkpt lat="62.54444" lon="6.28884">
        <ele>62.073759</ele>
        <time>2020-08-01T10:12:03.580Z</time>
      </trkpt>
      <trkpt lat="62.54451" lon="6.28869">
        <ele>62.368068</ele>
        <time>2020-08-01T10:12:09.571Z</time>
      </trkpt>
      <trkpt lat="62.54458" lon="6.28854">
        <ele>62.665404</ele>
        <time>2020-08-01T10:12:15.569Z</time>
      </trkpt>
      <trkpt lat="62.54465" lon="6.28837">
        <ele>63.006397</ele>
        <time>2020-08-01T10:12:21.578Z</time>
      </trkpt>
      <trkpt lat="62.54473" lon="6.28819">
        <ele>63.360057</ele>
        <time>2020-08-01T10:12:26.579Z</time>
      </trkpt>
      <trkpt lat="62.54479" lon="6.28803">
        <ele>63.581156</ele>
        <time>2020-08-01T10:12:30.580Z</time>
      </trkpt>
      <trkpt lat="62.54486" lon="6.28787">
        <ele>63.710819</ele>
        <time>2020-08-01T10:12:34.595Z</time>
      </trkpt>
      <trkpt lat="62.54492" lon="6.28769">
        <ele>63.848227</ele>
        <time>2020-08-01T10:12:38.609Z</time>
      </trkpt>
      <trkpt lat="62.54497" lon="6.2875">
        <ele>63.981849</ele>
        <time>2020-08-01T10:12:42.570Z</time>
      </trkpt>
      <trkpt lat="62.54503" lon="6.2873">
        <ele>64.132684</ele>
        <time>2020-08-01T10:12:46.580Z</time>
      </trkpt>
      <trkpt lat="62.54511" lon="6.2871">
        <ele>64.289705</ele>
        <time>2020-08-01T10:12:50.576Z</time>
      </trkpt>
      <trkpt lat="62.54518" lon="6.28696">
        <ele>64.413984</ele>
        <time>2020-08-01T10:12:53.579Z</time>
      </trkpt>
      <trkpt lat="62.54525" lon="6.28681">
        <ele>64.541908</ele>
        <time>2020-08-01T10:12:56.595Z</time>
      </trkpt>
      <trkpt lat="62.54531" lon="6.28665">
        <ele>64.672027</ele>
        <time>2020-08-01T10:12:59.573Z</time>
      </trkpt>
      <trkpt lat="62.54537" lon="6.2865">
        <ele>64.794527</ele>
        <time>2020-08-01T10:13:02.585Z</time>
      </trkpt>
      <trkpt lat="62.54544" lon="6.28632">
        <ele>64.938603</ele>
        <time>2020-08-01T10:13:06.579Z</time>
      </trkpt>
      <trkpt lat="62.5455" lon="6.28614">
        <ele>65.073858</ele>
        <time>2020-08-01T10:13:10.577Z</time>
      </trkpt>
      <trkpt lat="62.54557" lon="6.28594">
        <ele>65.218916</ele>
        <time>2020-08-01T10:13:14.583Z</time>
      </trkpt>
      <trkpt lat="62.54562" lon="6.28578">
        <ele>65.338859</ele>
        <time>2020-08-01T10:13:17.584Z</time>
      </trkpt>
      <trkpt lat="62.54567" lon="6.28562">
        <ele>65.46564</ele>
        <time>2020-08-01T10:13:20.585Z</time>
      </trkpt>
      <trkpt lat="62.54574" lon="6.28544">
        <ele>65.601947</ele>
        <time>2020-08-01T10:13:23.589Z</time>
      </trkpt>
      <trkpt lat="62.54579" lon="6.28524">
        <ele>65.741427</ele>
        <time>2020-08-01T10:13:26.580Z</time>
      </trkpt>
      <trkpt lat="62.54583" lon="6.28502">
        <ele>65.886151</ele>
        <time>2020-08-01T10:13:29.570Z</time>
      </trkpt>
      <trkpt lat="62.54587" lon="6.28476">
        <ele>66.073648</ele>
        <time>2020-08-01T10:13:32.572Z</time>
      </trkpt>
      <trkpt lat="62.54588" lon="6.28457">
        <ele>66.21031</ele>
        <time>2020-08-01T10:13:34.587Z</time>
      </trkpt>
      <trkpt lat="62.5459" lon="6.28437">
        <ele>66.352713</ele>
        <time>2020-08-01T10:13:36.577Z</time>
      </trkpt>
      <trkpt lat="62.54592" lon="6.28416">
        <ele>66.497461</ele>
        <time>2020-08-01T10:13:38.576Z</time>
      </trkpt>
      <trkpt lat="62.54594" lon="6.28395">
        <ele>66.643575</ele>
        <time>2020-08-01T10:13:40.580Z</time>
      </trkpt>
      <trkpt lat="62.54596" lon="6.28376">
        <ele>66.779911</ele>
        <time>2020-08-01T10:13:42.571Z</time>
      </trkpt>
      <trkpt lat="62.546" lon="6.28349">
        <ele>66.979841</ele>
        <time>2020-08-01T10:13:45.589Z</time>
      </trkpt>
      <trkpt lat="62.54604" lon="6.2833">
        <ele>67.124831</ele>
        <time>2020-08-01T10:13:47.570Z</time>
      </trkpt>
      <trkpt lat="62.54611" lon="6.28305">
        <ele>67.325843</ele>
        <time>2020-08-01T10:13:50.582Z</time>
      </trkpt>
      <trkpt lat="62.54615" lon="6.28287">
        <ele>67.46138</ele>
        <time>2020-08-01T10:13:52.584Z</time>
      </trkpt>
      <trkpt lat="62.54618" lon="6.28268">
        <ele>67.602569</ele>
        <time>2020-08-01T10:13:54.576Z</time>
      </trkpt>
      <trkpt lat="62.54621" lon="6.28249">
        <ele>67.746944</ele>
        <time>2020-08-01T10:13:56.595Z</time>
      </trkpt>
      <trkpt lat="62.54625" lon="6.28229">
        <ele>67.894577</ele>
        <time>2020-08-01T10:13:58.576Z</time>
      </trkpt>
      <trkpt lat="62.54629" lon="6.28209">
        <ele>68.045644</ele>
        <time>2020-08-01T10:14:00.584Z</time>
      </trkpt>
      <trkpt lat="62.54633" lon="6.2819">
        <ele>68.188086</ele>
        <time>2020-08-01T10:14:02.588Z</time>
      </trkpt>
      <trkpt lat="62.54638" lon="6.28164">
        <ele>68.382385</ele>
        <time>2020-08-01T10:14:05.592Z</time>
      </trkpt>
      <trkpt lat="62.54643" lon="6.28143">
        <ele>68.550979</ele>
        <time>2020-08-01T10:14:08.593Z</time>
      </trkpt>
      <trkpt lat="62.54648" lon="6.28124">
        <ele>68.613476</ele>
        <time>2020-08-01T10:14:11.579Z</time>
      </trkpt>
      <trkpt lat="62.54652" lon="6.28106">
        <ele>68.626993</ele>
        <time>2020-08-01T10:14:14.581Z</time>
      </trkpt>
      <trkpt lat="62.54656" lon="6.28087">
        <ele>68.641203</ele>
        <time>2020-08-01T10:14:17.586Z</time>
      </trkpt>
      <trkpt lat="62.5466" lon="6.28068">
        <ele>68.655581</ele>
        <time>2020-08-01T10:14:20.574Z</time>
      </trkpt>
      <trkpt lat="62.54665" lon="6.28052">
        <ele>68.669047</ele>
        <time>2020-08-01T10:14:23.580Z</time>
      </trkpt>
      <trkpt lat="62.54672" lon="6.28035">
        <ele>68.683706</ele>
        <time>2020-08-01T10:14:26.573Z</time>
      </trkpt>
      <trkpt lat="62.54679" lon="6.28019">
        <ele>68.698392</ele>
        <time>2020-08-01T10:14:29.588Z</time>
      </trkpt>
      <trkpt lat="62.54686" lon="6.28002">
        <ele>68.714923</ele>
        <time>2020-08-01T10:14:33.570Z</time>
      </trkpt>
      <trkpt lat="62.54693" lon="6.27988">
        <ele>68.729126</ele>
        <time>2020-08-01T10:14:37.586Z</time>
      </trkpt>
      <trkpt lat="62.54701" lon="6.27972">
        <ele>68.744998</ele>
        <time>2020-08-01T10:14:42.573Z</time>
      </trkpt>
      <trkpt lat="62.54709" lon="6.27956">
        <ele>68.760338</ele>
        <time>2020-08-01T10:14:47.594Z</time>
      </trkpt>
      <trkpt lat="62.54717" lon="6.2794">
        <ele>68.776064</ele>
        <time>2020-08-01T10:14:52.576Z</time>
      </trkpt>
      <trkpt lat="62.54725" lon="6.27929">
        <ele>68.791399</ele>
        <time>2020-08-01T10:14:55.575Z</time>
      </trkpt>
      <trkpt lat="62.54736" lon="6.27924">
        <ele>68.807542</ele>
        <time>2020-08-01T10:14:57.617Z</time>
      </trkpt>
      <trkpt lat="62.54748" lon="6.27924">
        <ele>68.824499</ele>
        <time>2020-08-01T10:14:59.576Z</time>
      </trkpt>
      <trkpt lat="62.5476" lon="6.27927">
        <ele>68.84255</ele>
        <time>2020-08-01T10:15:01.571Z</time>
      </trkpt>
      <trkpt lat="62.54771" lon="6.27931">
        <ele>68.85884</ele>
        <time>2020-08-01T10:15:03.581Z</time>
      </trkpt>
      <trkpt lat="62.54781" lon="6.27931">
        <ele>68.7458</ele>
        <time>2020-08-01T10:15:05.580Z</time>
      </trkpt>
      <trkpt lat="62.5479" lon="6.2793">
        <ele>68.415721</ele>
        <time>2020-08-01T10:15:07.589Z</time>
      </trkpt>
      <trkpt lat="62.54803" lon="6.27929">
        <ele>67.961538</ele>
        <time>2020-08-01T10:15:10.590Z</time>
      </trkpt>
      <trkpt lat="62.54815" lon="6.2793">
        <ele>67.539254</ele>
        <time>2020-08-01T10:15:13.596Z</time>
      </trkpt>
      <trkpt lat="62.54827" lon="6.27931">
        <ele>67.13456</ele>
        <time>2020-08-01T10:15:16.580Z</time>
      </trkpt>
      <trkpt lat="62.54838" lon="6.27932">
        <ele>66.726165</ele>
        <time>2020-08-01T10:15:19.576Z</time>
      </trkpt>
      <trkpt lat="62.5485" lon="6.27932">
        <ele>66.300579</ele>
        <time>2020-08-01T10:15:22.580Z</time>
      </trkpt>
      <trkpt lat="62.54862" lon="6.27931">
        <ele>65.864118</ele>
        <time>2020-08-01T10:15:25.582Z</time>
      </trkpt>
      <trkpt lat="62.54875" lon="6.27931">
        <ele>65.410067</ele>
        <time>2020-08-01T10:15:28.582Z</time>
      </trkpt>
      <trkpt lat="62.54888" lon="6.27929">
        <ele>64.951732</ele>
        <time>2020-08-01T10:15:31.576Z</time>
      </trkpt>
      <trkpt lat="62.54897" lon="6.27927">
        <ele>64.63441</ele>
        <time>2020-08-01T10:15:33.579Z</time>
      </trkpt>
      <trkpt lat="62.54907" lon="6.27925">
        <ele>64.289284</ele>
        <time>2020-08-01T10:15:35.577Z</time>
      </trkpt>
      <trkpt lat="62.54917" lon="6.27924">
        <ele>63.916473</ele>
        <time>2020-08-01T10:15:37.577Z</time>
      </trkpt>
      <trkpt lat="62.54929" lon="6.27922">
        <ele>63.510723</ele>
        <time>2020-08-01T10:15:39.583Z</time>
      </trkpt>
      <trkpt lat="62.5494" lon="6.27921">
        <ele>63.095467</ele>
        <time>2020-08-01T10:15:41.577Z</time>
      </trkpt>
      <trkpt lat="62.54952" lon="6.2792">
        <ele>62.665821</ele>
        <time>2020-08-01T10:15:43.610Z</time>
      </trkpt>
      <trkpt lat="62.54964" lon="6.27917">
        <ele>62.426732</ele>
        <time>2020-08-01T10:15:45.579Z</time>
      </trkpt>
      <trkpt lat="62.54976" lon="6.27913">
        <ele>62.318622</ele>
        <time>2020-08-01T10:15:47.585Z</time>
      </trkpt>
      <trkpt lat="62.54987" lon="6.27906">
        <ele>62.214883</ele>
        <time>2020-08-01T10:15:49.573Z</time>
      </trkpt>
      <trkpt lat="62.54997" lon="6.27901">
        <ele>62.113187</ele>
        <time>2020-08-01T10:15:51.593Z</time>
      </trkpt>
      <trkpt lat="62.55008" lon="6.27895">
        <ele>62.011303</ele>
        <time>2020-08-01T10:15:53.576Z</time>
      </trkpt>
      <trkpt lat="62.55018" lon="6.27889">
        <ele>61.914371</ele>
        <time>2020-08-01T10:15:55.570Z</time>
      </trkpt>
      <trkpt lat="62.55029" lon="6.27884">
        <ele>61.812487</ele>
        <time>2020-08-01T10:15:57.604Z</time>
      </trkpt>
      <trkpt lat="62.55039" lon="6.27878">
        <ele>61.715766</ele>
        <time>2020-08-01T10:15:59.579Z</time>
      </trkpt>
      <trkpt lat="62.5505" lon="6.27872">
        <ele>61.61539</ele>
        <time>2020-08-01T10:16:01.592Z</time>
      </trkpt>
      <trkpt lat="62.55061" lon="6.27866">
        <ele>61.514306</ele>
        <time>2020-08-01T10:16:03.575Z</time>
      </trkpt>
      <trkpt lat="62.55071" lon="6.2786">
        <ele>61.414046</ele>
        <time>2020-08-01T10:16:05.583Z</time>
      </trkpt>
      <trkpt lat="62.55082" lon="6.27853">
        <ele>61.31367</ele>
        <time>2020-08-01T10:16:07.596Z</time>
      </trkpt>
      <trkpt lat="62.55092" lon="6.27846">
        <ele>61.213795</ele>
        <time>2020-08-01T10:16:09.582Z</time>
      </trkpt>
      <trkpt lat="62.55102" lon="6.27839">
        <ele>61.114186</ele>
        <time>2020-08-01T10:16:11.570Z</time>
      </trkpt>
      <trkpt lat="62.55112" lon="6.27831">
        <ele>61.017329</ele>
        <time>2020-08-01T10:16:13.603Z</time>
      </trkpt>
      <trkpt lat="62.55122" lon="6.27823">
        <ele>60.921475</ele>
        <time>2020-08-01T10:16:15.580Z</time>
      </trkpt>
      <trkpt lat="62.55132" lon="6.27815">
        <ele>60.833978</ele>
        <time>2020-08-01T10:16:17.606Z</time>
      </trkpt>
      <trkpt lat="62.55141" lon="6.27807">
        <ele>60.809027</ele>
        <time>2020-08-01T10:16:19.572Z</time>
      </trkpt>
      <trkpt lat="62.55151" lon="6.27798">
        <ele>60.783438</ele>
        <time>2020-08-01T10:16:21.570Z</time>
      </trkpt>
      <trkpt lat="62.55161" lon="6.27788">
        <ele>60.756835</ele>
        <time>2020-08-01T10:16:23.583Z</time>
      </trkpt>
      <trkpt lat="62.55171" lon="6.27778">
        <ele>60.730058</ele>
        <time>2020-08-01T10:16:25.574Z</time>
      </trkpt>
      <trkpt lat="62.55181" lon="6.27769">
        <ele>60.703412</ele>
        <time>2020-08-01T10:16:27.578Z</time>
      </trkpt>
      <trkpt lat="62.55191" lon="6.27759">
        <ele>60.677914</ele>
        <time>2020-08-01T10:16:29.569Z</time>
      </trkpt>
      <trkpt lat="62.552" lon="6.27749">
        <ele>60.653396</ele>
        <time>2020-08-01T10:16:31.581Z</time>
      </trkpt>
      <trkpt lat="62.55209" lon="6.2774">
        <ele>60.629568</ele>
        <time>2020-08-01T10:16:33.570Z</time>
      </trkpt>
      <trkpt lat="62.55218" lon="6.27731">
        <ele>60.605552</ele>
        <time>2020-08-01T10:16:35.579Z</time>
      </trkpt>
      <trkpt lat="62.55227" lon="6.2772">
        <ele>60.581033</ele>
        <time>2020-08-01T10:16:37.598Z</time>
      </trkpt>
      <trkpt lat="62.55236" lon="6.2771">
        <ele>60.557233</ele>
        <time>2020-08-01T10:16:39.577Z</time>
      </trkpt>
      <trkpt lat="62.55245" lon="6.277">
        <ele>60.532177</ele>
        <time>2020-08-01T10:16:41.580Z</time>
      </trkpt>
      <trkpt lat="62.55255" lon="6.27689">
        <ele>60.505124</ele>
        <time>2020-08-01T10:16:43.582Z</time>
      </trkpt>
      <trkpt lat="62.55265" lon="6.27677">
        <ele>60.478331</ele>
        <time>2020-08-01T10:16:45.581Z</time>
      </trkpt>
      <trkpt lat="62.55274" lon="6.27664">
        <ele>60.451994</ele>
        <time>2020-08-01T10:16:47.578Z</time>
      </trkpt>
      <trkpt lat="62.55284" lon="6.27652">
        <ele>60.425921</ele>
        <time>2020-08-01T10:16:49.586Z</time>
      </trkpt>
      <trkpt lat="62.55293" lon="6.2764">
        <ele>60.362837</ele>
        <time>2020-08-01T10:16:51.606Z</time>
      </trkpt>
      <trkpt lat="62.55302" lon="6.27626">
        <ele>60.095988</ele>
        <time>2020-08-01T10:16:53.574Z</time>
      </trkpt>
      <trkpt lat="62.55312" lon="6.27613">
        <ele>59.822675</ele>
        <time>2020-08-01T10:16:55.582Z</time>
      </trkpt>
      <trkpt lat="62.55322" lon="6.276">
        <ele>59.541043</ele>
        <time>2020-08-01T10:16:57.577Z</time>
      </trkpt>
      <trkpt lat="62.55332" lon="6.27586">
        <ele>59.252617</ele>
        <time>2020-08-01T10:16:59.575Z</time>
      </trkpt>
      <trkpt lat="62.55342" lon="6.27574">
        <ele>58.982</ele>
        <time>2020-08-01T10:17:01.571Z</time>
      </trkpt>
      <trkpt lat="62.55352" lon="6.27562">
        <ele>58.712437</ele>
        <time>2020-08-01T10:17:03.572Z</time>
      </trkpt>
      <trkpt lat="62.55362" lon="6.2755">
        <ele>58.443346</ele>
        <time>2020-08-01T10:17:05.577Z</time>
      </trkpt>
      <trkpt lat="62.55372" lon="6.27538">
        <ele>58.169603</ele>
        <time>2020-08-01T10:17:07.581Z</time>
      </trkpt>
      <trkpt lat="62.55382" lon="6.27525">
        <ele>57.894636</ele>
        <time>2020-08-01T10:17:09.572Z</time>
      </trkpt>
      <trkpt lat="62.55393" lon="6.27513">
        <ele>57.622957</ele>
        <time>2020-08-01T10:17:11.603Z</time>
      </trkpt>
      <trkpt lat="62.55403" lon="6.27501">
        <ele>57.350267</ele>
        <time>2020-08-01T10:17:13.608Z</time>
      </trkpt>
      <trkpt lat="62.55413" lon="6.2749">
        <ele>57.080684</ele>
        <time>2020-08-01T10:17:15.577Z</time>
      </trkpt>
      <trkpt lat="62.55423" lon="6.27478">
        <ele>56.807483</ele>
        <time>2020-08-01T10:17:17.578Z</time>
      </trkpt>
      <trkpt lat="62.55433" lon="6.27467">
        <ele>56.534695</ele>
        <time>2020-08-01T10:17:19.572Z</time>
      </trkpt>
      <trkpt lat="62.55444" lon="6.27457">
        <ele>56.269317</ele>
        <time>2020-08-01T10:17:21.578Z</time>
      </trkpt>
      <trkpt lat="62.55453" lon="6.27449">
        <ele>56.020265</ele>
        <time>2020-08-01T10:17:23.582Z</time>
      </trkpt>
      <trkpt lat="62.55463" lon="6.2744">
        <ele>55.770569</ele>
        <time>2020-08-01T10:17:25.571Z</time>
      </trkpt>
      <trkpt lat="62.55473" lon="6.27432">
        <ele>55.515208</ele>
        <time>2020-08-01T10:17:27.589Z</time>
      </trkpt>
      <trkpt lat="62.55483" lon="6.27427">
        <ele>55.263912</ele>
        <time>2020-08-01T10:17:29.583Z</time>
      </trkpt>
      <trkpt lat="62.55493" lon="6.27422">
        <ele>55.035125</ele>
        <time>2020-08-01T10:17:31.576Z</time>
      </trkpt>
      <trkpt lat="62.55505" lon="6.27414">
        <ele>54.723186</ele>
        <time>2020-08-01T10:17:34.572Z</time>
      </trkpt>
      <trkpt lat="62.55517" lon="6.27409">
        <ele>54.432125</ele>
        <time>2020-08-01T10:17:37.588Z</time>
      </trkpt>
      <trkpt lat="62.55529" lon="6.27403">
        <ele>54.134742</ele>
        <time>2020-08-01T10:17:40.598Z</time>
      </trkpt>
      <trkpt lat="62.55541" lon="6.27399">
        <ele>53.842413</ele>
        <time>2020-08-01T10:17:43.573Z</time>
      </trkpt>
      <trkpt lat="62.55553" lon="6.27394">
        <ele>53.560961</ele>
        <time>2020-08-01T10:17:46.586Z</time>
      </trkpt>
      <trkpt lat="62.55564" lon="6.27389">
        <ele>53.284198</ele>
        <time>2020-08-01T10:17:49.574Z</time>
      </trkpt>
      <trkpt lat="62.55575" lon="6.27384">
        <ele>53.007885</ele>
        <time>2020-08-01T10:17:52.581Z</time>
      </trkpt>
      <trkpt lat="62.55586" lon="6.27379">
        <ele>52.746319</ele>
        <time>2020-08-01T10:17:55.577Z</time>
      </trkpt>
      <trkpt lat="62.55596" lon="6.27375">
        <ele>52.490304</ele>
        <time>2020-08-01T10:17:58.582Z</time>
      </trkpt>
      <trkpt lat="62.55607" lon="6.27369">
        <ele>52.229174</ele>
        <time>2020-08-01T10:18:01.574Z</time>
      </trkpt>
      <trkpt lat="62.55618" lon="6.27364">
        <ele>51.959439</ele>
        <time>2020-08-01T10:18:04.574Z</time>
      </trkpt>
      <trkpt lat="62.55629" lon="6.27359">
        <ele>52.149681</ele>
        <time>2020-08-01T10:18:07.593Z</time>
      </trkpt>
      <trkpt lat="62.55639" lon="6.27354">
        <ele>52.670945</ele>
        <time>2020-08-01T10:18:10.571Z</time>
      </trkpt>
      <trkpt lat="62.5565" lon="6.27349">
        <ele>53.224942</ele>
        <time>2020-08-01T10:18:13.586Z</time>
      </trkpt>
      <trkpt lat="62.55662" lon="6.27344">
        <ele>53.787079</ele>
        <time>2020-08-01T10:18:16.598Z</time>
      </trkpt>
      <trkpt lat="62.55673" lon="6.2734">
        <ele>54.327093</ele>
        <time>2020-08-01T10:18:19.600Z</time>
      </trkpt>
      <trkpt lat="62.55683" lon="6.27336">
        <ele>54.837128</ele>
        <time>2020-08-01T10:18:22.576Z</time>
      </trkpt>
      <trkpt lat="62.55693" lon="6.27331">
        <ele>55.348394</ele>
        <time>2020-08-01T10:18:25.580Z</time>
      </trkpt>
      <trkpt lat="62.55704" lon="6.27329">
        <ele>55.857952</ele>
        <time>2020-08-01T10:18:28.584Z</time>
      </trkpt>
      <trkpt lat="62.55715" lon="6.27333">
        <ele>56.425658</ele>
        <time>2020-08-01T10:18:31.589Z</time>
      </trkpt>
      <trkpt lat="62.55725" lon="6.27343">
        <ele>56.971189</ele>
        <time>2020-08-01T10:18:34.571Z</time>
      </trkpt>
      <trkpt lat="62.55735" lon="6.2735">
        <ele>57.458003</ele>
        <time>2020-08-01T10:18:38.587Z</time>
      </trkpt>
      <trkpt lat="62.55744" lon="6.27354">
        <ele>57.901028</ele>
        <time>2020-08-01T10:18:47.576Z</time>
      </trkpt>
      <trkpt lat="62.55753" lon="6.27357">
        <ele>58.36212</ele>
        <time>2020-08-01T10:18:55.582Z</time>
      </trkpt>
      <trkpt lat="62.55763" lon="6.27358">
        <ele>58.869768</ele>
        <time>2020-08-01T10:19:02.578Z</time>
      </trkpt>
      <trkpt lat="62.55772" lon="6.27362">
        <ele>59.316687</ele>
        <time>2020-08-01T10:19:08.587Z</time>
      </trkpt>
      <trkpt lat="62.55782" lon="6.27363">
        <ele>59.786002</ele>
        <time>2020-08-01T10:19:16.577Z</time>
      </trkpt>
      <trkpt lat="62.55792" lon="6.27365">
        <ele>60.279176</ele>
        <time>2020-08-01T10:19:24.579Z</time>
      </trkpt>
      <trkpt lat="62.55801" lon="6.2737">
        <ele>60.685405</ele>
        <time>2020-08-01T10:19:30.580Z</time>
      </trkpt>
      <trkpt lat="62.55811" lon="6.27374">
        <ele>60.974828</ele>
        <time>2020-08-01T10:19:36.571Z</time>
      </trkpt>
      <trkpt lat="62.55821" lon="6.27378">
        <ele>61.263002</ele>
        <time>2020-08-01T10:19:44.584Z</time>
      </trkpt>
      <trkpt lat="62.55829" lon="6.2739">
        <ele>61.555405</ele>
        <time>2020-08-01T10:19:51.568Z</time>
      </trkpt>
      <trkpt lat="62.55835" lon="6.27407">
        <ele>61.822754</ele>
        <time>2020-08-01T10:19:57.589Z</time>
      </trkpt>
      <trkpt lat="62.55843" lon="6.27418">
        <ele>62.113781</ele>
        <time>2020-08-01T10:20:01.579Z</time>
      </trkpt>
      <trkpt lat="62.55852" lon="6.27431">
        <ele>62.410902</ele>
        <time>2020-08-01T10:20:04.587Z</time>
      </trkpt>
      <trkpt lat="62.5586" lon="6.27445">
        <ele>62.722113</ele>
        <time>2020-08-01T10:20:07.596Z</time>
      </trkpt>
      <trkpt lat="62.55868" lon="6.27458">
        <ele>63.017763</ele>
        <time>2020-08-01T10:20:10.572Z</time>
      </trkpt>
      <trkpt lat="62.55875" lon="6.27472">
        <ele>63.292122</ele>
        <time>2020-08-01T10:20:13.573Z</time>
      </trkpt>
      <trkpt lat="62.55885" lon="6.27488">
        <ele>63.637126</ele>
        <time>2020-08-01T10:20:17.580Z</time>
      </trkpt>
      <trkpt lat="62.55892" lon="6.27501">
        <ele>63.911895</ele>
        <time>2020-08-01T10:20:20.580Z</time>
      </trkpt>
      <trkpt lat="62.55901" lon="6.27517">
        <ele>64.246163</ele>
        <time>2020-08-01T10:20:24.610Z</time>
      </trkpt>
      <trkpt lat="62.55909" lon="6.27533">
        <ele>64.558702</ele>
        <time>2020-08-01T10:20:28.574Z</time>
      </trkpt>
      <trkpt lat="62.55915" lon="6.27549">
        <ele>64.842186</ele>
        <time>2020-08-01T10:20:32.573Z</time>
      </trkpt>
      <trkpt lat="62.55922" lon="6.27566">
        <ele>65.140756</ele>
        <time>2020-08-01T10:20:36.574Z</time>
      </trkpt>
      <trkpt lat="62.55929" lon="6.27586">
        <ele>65.486351</ele>
        <time>2020-08-01T10:20:40.579Z</time>
      </trkpt>
      <trkpt lat="62.55936" lon="6.27602">
        <ele>65.778831</ele>
        <time>2020-08-01T10:20:43.571Z</time>
      </trkpt>
      <trkpt lat="62.55942" lon="6.27617">
        <ele>65.67071</ele>
        <time>2020-08-01T10:20:46.577Z</time>
      </trkpt>
      <trkpt lat="62.55949" lon="6.27637">
        <ele>65.454051</ele>
        <time>2020-08-01T10:20:50.574Z</time>
      </trkpt>
      <trkpt lat="62.55955" lon="6.27653">
        <ele>65.276811</ele>
        <time>2020-08-01T10:20:53.585Z</time>
      </trkpt>
      <trkpt lat="62.55962" lon="6.2767">
        <ele>65.080341</ele>
        <time>2020-08-01T10:20:56.593Z</time>
      </trkpt>
      <trkpt lat="62.55969" lon="6.27691">
        <ele>64.854309</ele>
        <time>2020-08-01T10:20:59.580Z</time>
      </trkpt>
      <trkpt lat="62.55976" lon="6.27706">
        <ele>64.680905</ele>
        <time>2020-08-01T10:21:01.578Z</time>
      </trkpt>
      <trkpt lat="62.55982" lon="6.27723">
        <ele>64.485861</ele>
        <time>2020-08-01T10:21:03.598Z</time>
      </trkpt>
      <trkpt lat="62.5599" lon="6.27741">
        <ele>64.278203</ele>
        <time>2020-08-01T10:21:05.580Z</time>
      </trkpt>
      <trkpt lat="62.55998" lon="6.2776">
        <ele>64.054671</ele>
        <time>2020-08-01T10:21:07.588Z</time>
      </trkpt>
      <trkpt lat="62.56007" lon="6.27782">
        <ele>63.802523</ele>
        <time>2020-08-01T10:21:09.577Z</time>
      </trkpt>
      <trkpt lat="62.56016" lon="6.27804">
        <ele>63.552184</ele>
        <time>2020-08-01T10:21:11.571Z</time>
      </trkpt>
      <trkpt lat="62.56024" lon="6.27826">
        <ele>63.305591</ele>
        <time>2020-08-01T10:21:13.584Z</time>
      </trkpt>
      <trkpt lat="62.56033" lon="6.27846">
        <ele>63.064921</ele>
        <time>2020-08-01T10:21:15.579Z</time>
      </trkpt>
      <trkpt lat="62.56041" lon="6.27867">
        <ele>62.833043</ele>
        <time>2020-08-01T10:21:17.579Z</time>
      </trkpt>
      <trkpt lat="62.56048" lon="6.27886">
        <ele>62.611292</ele>
        <time>2020-08-01T10:21:19.579Z</time>
      </trkpt>
      <trkpt lat="62.56056" lon="6.27903">
        <ele>62.471575</ele>
        <time>2020-08-01T10:21:21.580Z</time>
      </trkpt>
      <trkpt lat="62.56063" lon="6.27915">
        <ele>62.605748</ele>
        <time>2020-08-01T10:21:23.585Z</time>
      </trkpt>
      <trkpt lat="62.56073" lon="6.27928">
        <ele>62.773424</ele>
        <time>2020-08-01T10:21:26.582Z</time>
      </trkpt>
      <trkpt lat="62.56083" lon="6.2794">
        <ele>62.932505</ele>
        <time>2020-08-01T10:21:29.591Z</time>
      </trkpt>
      <trkpt lat="62.56092" lon="6.27952">
        <ele>63.08722</ele>
        <time>2020-08-01T10:21:32.577Z</time>
      </trkpt>
      <trkpt lat="62.56102" lon="6.27964">
        <ele>63.240975</ele>
        <time>2020-08-01T10:21:35.584Z</time>
      </trkpt>
      <trkpt lat="62.56111" lon="6.27971">
        <ele>63.380062</ele>
        <time>2020-08-01T10:21:38.579Z</time>
      </trkpt>
      <trkpt lat="62.56121" lon="6.27975">
        <ele>63.525042</ele>
        <time>2020-08-01T10:21:41.580Z</time>
      </trkpt>
      <trkpt lat="62.56131" lon="6.27977">
        <ele>63.66339</ele>
        <time>2020-08-01T10:21:44.572Z</time>
      </trkpt>
      <trkpt lat="62.56142" lon="6.27978">
        <ele>63.828693</ele>
        <time>2020-08-01T10:21:48.570Z</time>
      </trkpt>
      <trkpt lat="62.56153" lon="6.27979">
        <ele>63.979477</ele>
        <time>2020-08-01T10:21:52.576Z</time>
      </trkpt>
      <trkpt lat="62.56163" lon="6.27978">
        <ele>64.127394</ele>
        <time>2020-08-01T10:21:56.574Z</time>
      </trkpt>
      <trkpt lat="62.56174" lon="6.27977">
        <ele>64.279706</ele>
        <time>2020-08-01T10:22:00.576Z</time>
      </trkpt>
      <trkpt lat="62.56184" lon="6.27976">
        <ele>64.426399</ele>
        <time>2020-08-01T10:22:04.585Z</time>
      </trkpt>
      <trkpt lat="62.56195" lon="6.27975">
        <ele>64.573059</ele>
        <time>2020-08-01T10:22:08.579Z</time>
      </trkpt>
      <trkpt lat="62.56205" lon="6.27973">
        <ele>64.723211</ele>
        <time>2020-08-01T10:22:12.607Z</time>
      </trkpt>
      <trkpt lat="62.56216" lon="6.27967">
        <ele>64.880713</ele>
        <time>2020-08-01T10:22:16.569Z</time>
      </trkpt>
      <trkpt lat="62.56224" lon="6.27959">
        <ele>65.003695</ele>
        <time>2020-08-01T10:22:19.577Z</time>
      </trkpt>
      <trkpt lat="62.56233" lon="6.27951">
        <ele>64.981071</ele>
        <time>2020-08-01T10:22:22.580Z</time>
      </trkpt>
      <trkpt lat="62.56243" lon="6.2794">
        <ele>64.954666</ele>
        <time>2020-08-01T10:22:26.586Z</time>
      </trkpt>
      <trkpt lat="62.56251" lon="6.2793">
        <ele>64.931719</ele>
        <time>2020-08-01T10:22:29.591Z</time>
      </trkpt>
      <trkpt lat="62.56259" lon="6.27919">
        <ele>64.907667</ele>
        <time>2020-08-01T10:22:32.571Z</time>
      </trkpt>
      <trkpt lat="62.56269" lon="6.27909">
        <ele>64.881175</ele>
        <time>2020-08-01T10:22:35.582Z</time>
      </trkpt>
      <trkpt lat="62.56279" lon="6.27898">
        <ele>64.852924</ele>
        <time>2020-08-01T10:22:38.577Z</time>
      </trkpt>
      <trkpt lat="62.5629" lon="6.27888">
        <ele>64.824789</ele>
        <time>2020-08-01T10:22:41.576Z</time>
      </trkpt>
      <trkpt lat="62.56301" lon="6.27878">
        <ele>64.795569</ele>
        <time>2020-08-01T10:22:44.573Z</time>
      </trkpt>
      <trkpt lat="62.56312" lon="6.2787">
        <ele>64.76724</ele>
        <time>2020-08-01T10:22:47.571Z</time>
      </trkpt>
      <trkpt lat="62.56323" lon="6.27862">
        <ele>64.739909</ele>
        <time>2020-08-01T10:22:50.579Z</time>
      </trkpt>
      <trkpt lat="62.56333" lon="6.27854">
        <ele>64.711856</ele>
        <time>2020-08-01T10:22:53.581Z</time>
      </trkpt>
      <trkpt lat="62.56344" lon="6.27845">
        <ele>64.683037</ele>
        <time>2020-08-01T10:22:56.569Z</time>
      </trkpt>
      <trkpt lat="62.56355" lon="6.27835">
        <ele>64.653602</ele>
        <time>2020-08-01T10:22:59.584Z</time>
      </trkpt>
      <trkpt lat="62.56366" lon="6.27824">
        <ele>64.624526</ele>
        <time>2020-08-01T10:23:02.576Z</time>
      </trkpt>
      <trkpt lat="62.56376" lon="6.27814">
        <ele>64.598928</ele>
        <time>2020-08-01T10:23:05.574Z</time>
      </trkpt>
      <trkpt lat="62.56384" lon="6.27801">
        <ele>64.573855</ele>
        <time>2020-08-01T10:23:08.600Z</time>
      </trkpt>
      <trkpt lat="62.56393" lon="6.27787">
        <ele>64.589315</ele>
        <time>2020-08-01T10:23:11.572Z</time>
      </trkpt>
      <trkpt lat="62.564" lon="6.2777">
        <ele>64.624893</ele>
        <time>2020-08-01T10:23:14.580Z</time>
      </trkpt>
      <trkpt lat="62.56409" lon="6.27752">
        <ele>64.661553</ele>
        <time>2020-08-01T10:23:17.580Z</time>
      </trkpt>
      <trkpt lat="62.56417" lon="6.27734">
        <ele>64.699442</ele>
        <time>2020-08-01T10:23:20.574Z</time>
      </trkpt>
      <trkpt lat="62.56426" lon="6.2772">
        <ele>64.73294</ele>
        <time>2020-08-01T10:23:23.581Z</time>
      </trkpt>
      <trkpt lat="62.56433" lon="6.27707">
        <ele>64.764307</ele>
        <time>2020-08-01T10:23:26.578Z</time>
      </trkpt>
      <trkpt lat="62.56441" lon="6.27695">
        <ele>64.795083</ele>
        <time>2020-08-01T10:23:29.577Z</time>
      </trkpt>
      <trkpt lat="62.56451" lon="6.27684">
        <ele>64.830354</ele>
        <time>2020-08-01T10:23:33.575Z</time>
      </trkpt>
      <trkpt lat="62.56461" lon="6.27676">
        <ele>64.861784</ele>
        <time>2020-08-01T10:23:37.571Z</time>
      </trkpt>
      <trkpt lat="62.56469" lon="6.2767">
        <ele>64.890734</ele>
        <time>2020-08-01T10:23:41.584Z</time>
      </trkpt>
      <trkpt lat="62.5648" lon="6.27667">
        <ele>64.924634</ele>
        <time>2020-08-01T10:23:46.582Z</time>
      </trkpt>
      <trkpt lat="62.56491" lon="6.27666">
        <ele>64.958937</ele>
        <time>2020-08-01T10:23:50.574Z</time>
      </trkpt>
      <trkpt lat="62.56502" lon="6.27667">
        <ele>64.993881</ele>
        <time>2020-08-01T10:23:53.575Z</time>
      </trkpt>
      <trkpt lat="62.56515" lon="6.27673">
        <ele>65.036168</ele>
        <time>2020-08-01T10:23:56.574Z</time>
      </trkpt>
      <trkpt lat="62.56524" lon="6.27677">
        <ele>65.066417</ele>
        <time>2020-08-01T10:23:58.579Z</time>
      </trkpt>
      <trkpt lat="62.56534" lon="6.27682">
        <ele>65.098555</ele>
        <time>2020-08-01T10:24:00.575Z</time>
      </trkpt>
      <trkpt lat="62.56544" lon="6.27684">
        <ele>65.131303</ele>
        <time>2020-08-01T10:24:02.578Z</time>
      </trkpt>
      <trkpt lat="62.56555" lon="6.27683">
        <ele>65.096616</ele>
        <time>2020-08-01T10:24:04.574Z</time>
      </trkpt>
      <trkpt lat="62.56565" lon="6.27679">
        <ele>65.05022</ele>
        <time>2020-08-01T10:24:06.582Z</time>
      </trkpt>
      <trkpt lat="62.56576" lon="6.27673">
        <ele>65.002759</ele>
        <time>2020-08-01T10:24:08.590Z</time>
      </trkpt>
      <trkpt lat="62.56586" lon="6.27667">
        <ele>64.956232</ele>
        <time>2020-08-01T10:24:10.577Z</time>
      </trkpt>
      <trkpt lat="62.56596" lon="6.27659">
        <ele>64.90837</ele>
        <time>2020-08-01T10:24:12.581Z</time>
      </trkpt>
      <trkpt lat="62.56605" lon="6.27651">
        <ele>64.863963</ele>
        <time>2020-08-01T10:24:14.580Z</time>
      </trkpt>
      <trkpt lat="62.56615" lon="6.27642">
        <ele>64.819348</ele>
        <time>2020-08-01T10:24:16.584Z</time>
      </trkpt>
      <trkpt lat="62.56624" lon="6.27632">
        <ele>64.771686</ele>
        <time>2020-08-01T10:24:18.581Z</time>
      </trkpt>
      <trkpt lat="62.56634" lon="6.27619">
        <ele>64.721127</ele>
        <time>2020-08-01T10:24:20.581Z</time>
      </trkpt>
      <trkpt lat="62.56644" lon="6.27606">
        <ele>64.671214</ele>
        <time>2020-08-01T10:24:22.573Z</time>
      </trkpt>
      <trkpt lat="62.56654" lon="6.27594">
        <ele>64.621842</ele>
        <time>2020-08-01T10:24:24.579Z</time>
      </trkpt>
      <trkpt lat="62.56663" lon="6.27584">
        <ele>64.574089</ele>
        <time>2020-08-01T10:24:26.569Z</time>
      </trkpt>
      <trkpt lat="62.56673" lon="6.27574">
        <ele>64.528009</ele>
        <time>2020-08-01T10:24:28.577Z</time>
      </trkpt>
      <trkpt lat="62.56682" lon="6.27566">
        <ele>64.485575</ele>
        <time>2020-08-01T10:24:30.589Z</time>
      </trkpt>
      <trkpt lat="62.56691" lon="6.2756">
        <ele>64.444397</ele>
        <time>2020-08-01T10:24:32.586Z</time>
      </trkpt>
      <trkpt lat="62.567" lon="6.27554">
        <ele>64.403037</ele>
        <time>2020-08-01T10:24:34.573Z</time>
      </trkpt>
      <trkpt lat="62.56709" lon="6.27548">
        <ele>64.360039</ele>
        <time>2020-08-01T10:24:36.575Z</time>
      </trkpt>
      <trkpt lat="62.56718" lon="6.27542">
        <ele>64.20892</ele>
        <time>2020-08-01T10:24:38.608Z</time>
      </trkpt>
      <trkpt lat="62.56727" lon="6.27536">
        <ele>64.001111</ele>
        <time>2020-08-01T10:24:40.602Z</time>
      </trkpt>
      <trkpt lat="62.56736" lon="6.27531">
        <ele>63.797805</ele>
        <time>2020-08-01T10:24:42.614Z</time>
      </trkpt>
      <trkpt lat="62.56747" lon="6.27513">
        <ele>63.499608</ele>
        <time>2020-08-01T10:24:45.598Z</time>
      </trkpt>
      <trkpt lat="62.56751" lon="6.27493">
        <ele>63.280812</ele>
        <time>2020-08-01T10:24:47.619Z</time>
      </trkpt>
      <trkpt lat="62.5676" lon="6.27476">
        <ele>63.027797</ele>
        <time>2020-08-01T10:24:50.625Z</time>
      </trkpt>
      <trkpt lat="62.56768" lon="6.2747">
        <ele>62.826321</ele>
        <time>2020-08-01T10:24:52.622Z</time>
      </trkpt>
      <trkpt lat="62.56778" lon="6.27467">
        <ele>62.617431</ele>
        <time>2020-08-01T10:24:54.608Z</time>
      </trkpt>
      <trkpt lat="62.56787" lon="6.27464">
        <ele>62.408834</ele>
        <time>2020-08-01T10:24:56.602Z</time>
      </trkpt>
      <trkpt lat="62.56798" lon="6.27461">
        <ele>62.158841</ele>
        <time>2020-08-01T10:24:59.593Z</time>
      </trkpt>
      <trkpt lat="62.56811" lon="6.27457">
        <ele>61.88761</ele>
        <time>2020-08-01T10:25:02.590Z</time>
      </trkpt>
      <trkpt lat="62.56822" lon="6.27454">
        <ele>61.630576</ele>
        <time>2020-08-01T10:25:05.586Z</time>
      </trkpt>
      <trkpt lat="62.56834" lon="6.27452">
        <ele>61.370191</ele>
        <time>2020-08-01T10:25:08.605Z</time>
      </trkpt>
      <trkpt lat="62.56846" lon="6.27449">
        <ele>61.098867</ele>
        <time>2020-08-01T10:25:11.629Z</time>
      </trkpt>
      <trkpt lat="62.56859" lon="6.27446">
        <ele>60.818409</ele>
        <time>2020-08-01T10:25:14.627Z</time>
      </trkpt>
      <trkpt lat="62.56868" lon="6.27445">
        <ele>60.617651</ele>
        <time>2020-08-01T10:25:16.614Z</time>
      </trkpt>
      <trkpt lat="62.56881" lon="6.27442">
        <ele>60.363291</ele>
        <time>2020-08-01T10:25:19.611Z</time>
      </trkpt>
      <trkpt lat="62.56894" lon="6.27439">
        <ele>60.222246</ele>
        <time>2020-08-01T10:25:22.601Z</time>
      </trkpt>
      <trkpt lat="62.56903" lon="6.27438">
        <ele>60.120686</ele>
        <time>2020-08-01T10:25:24.598Z</time>
      </trkpt>
      <trkpt lat="62.56912" lon="6.27437">
        <ele>60.018014</ele>
        <time>2020-08-01T10:25:26.621Z</time>
      </trkpt>
      <trkpt lat="62.56925" lon="6.27433">
        <ele>59.875055</ele>
        <time>2020-08-01T10:25:29.609Z</time>
      </trkpt>
      <trkpt lat="62.56933" lon="6.27421">
        <ele>59.759674</ele>
        <time>2020-08-01T10:25:33.601Z</time>
      </trkpt>
      <trkpt lat="62.56945" lon="6.27415">
        <ele>59.622722</ele>
        <time>2020-08-01T10:25:37.651Z</time>
      </trkpt>
      <trkpt lat="62.56958" lon="6.27412">
        <ele>59.484528</ele>
        <time>2020-08-01T10:25:40.599Z</time>
      </trkpt>
      <trkpt lat="62.5697" lon="6.27409">
        <ele>59.344314</ele>
        <time>2020-08-01T10:25:43.592Z</time>
      </trkpt>
      <trkpt lat="62.56984" lon="6.27406">
        <ele>59.194139</ele>
        <time>2020-08-01T10:25:46.599Z</time>
      </trkpt>
      <trkpt lat="62.56993" lon="6.27403">
        <ele>59.088817</ele>
        <time>2020-08-01T10:25:48.639Z</time>
      </trkpt>
      <trkpt lat="62.57003" lon="6.27401">
        <ele>58.980223</ele>
        <time>2020-08-01T10:25:50.596Z</time>
      </trkpt>
      <trkpt lat="62.57013" lon="6.27399">
        <ele>58.866179</ele>
        <time>2020-08-01T10:25:52.629Z</time>
      </trkpt>
      <trkpt lat="62.57024" lon="6.27396">
        <ele>58.745925</ele>
        <time>2020-08-01T10:25:54.606Z</time>
      </trkpt>
      <trkpt lat="62.57034" lon="6.27393">
        <ele>58.628013</ele>
        <time>2020-08-01T10:25:56.609Z</time>
      </trkpt>
      <trkpt lat="62.57045" lon="6.27391">
        <ele>58.508181</ele>
        <time>2020-08-01T10:25:58.585Z</time>
      </trkpt>
      <trkpt lat="62.57055" lon="6.27389">
        <ele>58.391673</ele>
        <time>2020-08-01T10:26:00.642Z</time>
      </trkpt>
      <trkpt lat="62.57065" lon="6.27386">
        <ele>58.328229</ele>
        <time>2020-08-01T10:26:02.592Z</time>
      </trkpt>
      <trkpt lat="62.57076" lon="6.27385">
        <ele>58.265754</ele>
        <time>2020-08-01T10:26:04.581Z</time>
      </trkpt>
      <trkpt lat="62.57086" lon="6.27382">
        <ele>58.201783</ele>
        <time>2020-08-01T10:26:06.595Z</time>
      </trkpt>
      <trkpt lat="62.57097" lon="6.27379">
        <ele>58.138345</ele>
        <time>2020-08-01T10:26:08.609Z</time>
      </trkpt>
      <trkpt lat="62.57107" lon="6.27376">
        <ele>58.074907</ele>
        <time>2020-08-01T10:26:10.621Z</time>
      </trkpt>
      <trkpt lat="62.57118" lon="6.27374">
        <ele>58.010368</ele>
        <time>2020-08-01T10:26:12.619Z</time>
      </trkpt>
      <trkpt lat="62.57128" lon="6.27371">
        <ele>57.94573</ele>
        <time>2020-08-01T10:26:14.610Z</time>
      </trkpt>
      <trkpt lat="62.57139" lon="6.27368">
        <ele>57.881251</ele>
        <time>2020-08-01T10:26:16.606Z</time>
      </trkpt>
      <trkpt lat="62.57149" lon="6.27366">
        <ele>57.816772</ele>
        <time>2020-08-01T10:26:18.614Z</time>
      </trkpt>
      <trkpt lat="62.5716" lon="6.27363">
        <ele>57.749796</ele>
        <time>2020-08-01T10:26:20.616Z</time>
      </trkpt>
      <trkpt lat="62.57171" lon="6.27361">
        <ele>57.684218</ele>
        <time>2020-08-01T10:26:22.622Z</time>
      </trkpt>
      <trkpt lat="62.57182" lon="6.27358">
        <ele>57.617778</ele>
        <time>2020-08-01T10:26:24.590Z</time>
      </trkpt>
      <trkpt lat="62.57193" lon="6.27356">
        <ele>57.551521</ele>
        <time>2020-08-01T10:26:26.638Z</time>
      </trkpt>
      <trkpt lat="62.57204" lon="6.27353">
        <ele>57.487518</ele>
        <time>2020-08-01T10:26:28.597Z</time>
      </trkpt>
      <trkpt lat="62.57214" lon="6.27351">
        <ele>57.424873</ele>
        <time>2020-08-01T10:26:30.624Z</time>
      </trkpt>
      <trkpt lat="62.57224" lon="6.27349">
        <ele>57.361705</ele>
        <time>2020-08-01T10:26:32.588Z</time>
      </trkpt>
      <trkpt lat="62.57234" lon="6.27346">
        <ele>57.300772</ele>
        <time>2020-08-01T10:26:34.608Z</time>
      </trkpt>
      <trkpt lat="62.57244" lon="6.27344">
        <ele>57.269059</ele>
        <time>2020-08-01T10:26:36.602Z</time>
      </trkpt>
      <trkpt lat="62.57253" lon="6.27343">
        <ele>57.239234</ele>
        <time>2020-08-01T10:26:38.598Z</time>
      </trkpt>
      <trkpt lat="62.57266" lon="6.27341">
        <ele>57.19528</ele>
        <time>2020-08-01T10:26:41.613Z</time>
      </trkpt>
      <trkpt lat="62.5728" lon="6.27339">
        <ele>57.151606</ele>
        <time>2020-08-01T10:26:44.632Z</time>
      </trkpt>
      <trkpt lat="62.57293" lon="6.27336">
        <ele>57.108232</ele>
        <time>2020-08-01T10:26:47.592Z</time>
      </trkpt>
      <trkpt lat="62.57306" lon="6.27334">
        <ele>57.065836</ele>
        <time>2020-08-01T10:26:50.618Z</time>
      </trkpt>
      <trkpt lat="62.57318" lon="6.27331">
        <ele>57.024046</ele>
        <time>2020-08-01T10:26:53.592Z</time>
      </trkpt>
      <trkpt lat="62.57332" lon="6.27329">
        <ele>56.980783</ele>
        <time>2020-08-01T10:26:56.591Z</time>
      </trkpt>
      <trkpt lat="62.57345" lon="6.27327">
        <ele>56.937109</ele>
        <time>2020-08-01T10:26:59.590Z</time>
      </trkpt>
      <trkpt lat="62.57358" lon="6.27323">
        <ele>56.893285</ele>
        <time>2020-08-01T10:27:02.605Z</time>
      </trkpt>
      <trkpt lat="62.57367" lon="6.27321">
        <ele>56.863338</ele>
        <time>2020-08-01T10:27:04.618Z</time>
      </trkpt>
      <trkpt lat="62.57381" lon="6.27319">
        <ele>56.819699</ele>
        <time>2020-08-01T10:27:07.647Z</time>
      </trkpt>
      <trkpt lat="62.57394" lon="6.27317">
        <ele>56.77704</ele>
        <time>2020-08-01T10:27:10.602Z</time>
      </trkpt>
      <trkpt lat="62.57407" lon="6.27313">
        <ele>56.734458</ele>
        <time>2020-08-01T10:27:13.616Z</time>
      </trkpt>
      <trkpt lat="62.57416" lon="6.27313">
        <ele>56.725494</ele>
        <time>2020-08-01T10:27:15.594Z</time>
      </trkpt>
      <trkpt lat="62.57425" lon="6.27312">
        <ele>56.783748</ele>
        <time>2020-08-01T10:27:17.618Z</time>
      </trkpt>
      <trkpt lat="62.57438" lon="6.2731">
        <ele>56.867136</ele>
        <time>2020-08-01T10:27:20.601Z</time>
      </trkpt>
      <trkpt lat="62.57451" lon="6.27308">
        <ele>56.947957</ele>
        <time>2020-08-01T10:27:23.607Z</time>
      </trkpt>
      <trkpt lat="62.57464" lon="6.27306">
        <ele>57.026372</ele>
        <time>2020-08-01T10:27:26.606Z</time>
      </trkpt>
      <trkpt lat="62.57476" lon="6.27304">
        <ele>57.104257</ele>
        <time>2020-08-01T10:27:29.640Z</time>
      </trkpt>
      <trkpt lat="62.57489" lon="6.27301">
        <ele>57.187776</ele>
        <time>2020-08-01T10:27:32.585Z</time>
      </trkpt>
      <trkpt lat="62.57499" lon="6.27299">
        <ele>57.246244</ele>
        <time>2020-08-01T10:27:34.630Z</time>
      </trkpt>
      <trkpt lat="62.57508" lon="6.27297">
        <ele>57.303009</ele>
        <time>2020-08-01T10:27:36.656Z</time>
      </trkpt>
      <trkpt lat="62.57521" lon="6.27293">
        <ele>57.385515</ele>
        <time>2020-08-01T10:27:39.590Z</time>
      </trkpt>
      <trkpt lat="62.57534" lon="6.2729">
        <ele>57.466302</ele>
        <time>2020-08-01T10:27:42.605Z</time>
      </trkpt>
      <trkpt lat="62.57546" lon="6.27285">
        <ele>57.545718</ele>
        <time>2020-08-01T10:27:45.580Z</time>
      </trkpt>
      <trkpt lat="62.57558" lon="6.27281">
        <ele>57.624325</ele>
        <time>2020-08-01T10:27:48.591Z</time>
      </trkpt>
      <trkpt lat="62.57571" lon="6.27275">
        <ele>57.703504</ele>
        <time>2020-08-01T10:27:51.631Z</time>
      </trkpt>
      <trkpt lat="62.57583" lon="6.27269">
        <ele>57.784085</ele>
        <time>2020-08-01T10:27:54.630Z</time>
      </trkpt>
      <trkpt lat="62.57592" lon="6.27265">
        <ele>57.844096</ele>
        <time>2020-08-01T10:27:56.599Z</time>
      </trkpt>
      <trkpt lat="62.57602" lon="6.27261">
        <ele>57.930628</ele>
        <time>2020-08-01T10:27:58.589Z</time>
      </trkpt>
      <trkpt lat="62.5761" lon="6.27256">
        <ele>58.015527</ele>
        <time>2020-08-01T10:28:00.612Z</time>
      </trkpt>
      <trkpt lat="62.57623" lon="6.27249">
        <ele>58.133581</ele>
        <time>2020-08-01T10:28:03.583Z</time>
      </trkpt>
      <trkpt lat="62.57635" lon="6.27243">
        <ele>58.24872</ele>
        <time>2020-08-01T10:28:06.597Z</time>
      </trkpt>
      <trkpt lat="62.57646" lon="6.27235">
        <ele>58.361296</ele>
        <time>2020-08-01T10:28:09.618Z</time>
      </trkpt>
      <trkpt lat="62.57658" lon="6.27228">
        <ele>58.471582</ele>
        <time>2020-08-01T10:28:12.588Z</time>
      </trkpt>
      <trkpt lat="62.57669" lon="6.27219">
        <ele>58.583693</ele>
        <time>2020-08-01T10:28:15.597Z</time>
      </trkpt>
      <trkpt lat="62.57681" lon="6.2721">
        <ele>58.700748</ele>
        <time>2020-08-01T10:28:18.626Z</time>
      </trkpt>
      <trkpt lat="62.57693" lon="6.272">
        <ele>58.820718</ele>
        <time>2020-08-01T10:28:21.625Z</time>
      </trkpt>
      <trkpt lat="62.57705" lon="6.2719">
        <ele>58.942581</ele>
        <time>2020-08-01T10:28:24.591Z</time>
      </trkpt>
      <trkpt lat="62.57717" lon="6.27181">
        <ele>59.055851</ele>
        <time>2020-08-01T10:28:27.626Z</time>
      </trkpt>
      <trkpt lat="62.57728" lon="6.27171">
        <ele>59.172096</ele>
        <time>2020-08-01T10:28:30.603Z</time>
      </trkpt>
      <trkpt lat="62.57737" lon="6.27163">
        <ele>59.258263</ele>
        <time>2020-08-01T10:28:32.608Z</time>
      </trkpt>
      <trkpt lat="62.57749" lon="6.2715">
        <ele>59.381872</ele>
        <time>2020-08-01T10:28:35.617Z</time>
      </trkpt>
      <trkpt lat="62.57757" lon="6.27142">
        <ele>59.469275</ele>
        <time>2020-08-01T10:28:37.604Z</time>
      </trkpt>
      <trkpt lat="62.57766" lon="6.27132">
        <ele>59.524103</ele>
        <time>2020-08-01T10:28:39.602Z</time>
      </trkpt>
      <trkpt lat="62.57774" lon="6.27123">
        <ele>59.550313</ele>
        <time>2020-08-01T10:28:41.608Z</time>
      </trkpt>
      <trkpt lat="62.57782" lon="6.27113">
        <ele>59.57689</ele>
        <time>2020-08-01T10:28:43.600Z</time>
      </trkpt>
      <trkpt lat="62.5779" lon="6.27103">
        <ele>59.603106</ele>
        <time>2020-08-01T10:28:45.601Z</time>
      </trkpt>
      <trkpt lat="62.57799" lon="6.27093">
        <ele>59.629866</ele>
        <time>2020-08-01T10:28:47.609Z</time>
      </trkpt>
      <trkpt lat="62.57807" lon="6.27082">
        <ele>59.656279</ele>
        <time>2020-08-01T10:28:49.608Z</time>
      </trkpt>
      <trkpt lat="62.57815" lon="6.27072">
        <ele>59.683289</ele>
        <time>2020-08-01T10:28:51.629Z</time>
      </trkpt>
      <trkpt lat="62.57823" lon="6.27061">
        <ele>59.710081</ele>
        <time>2020-08-01T10:28:53.599Z</time>
      </trkpt>
      <trkpt lat="62.57831" lon="6.27049">
        <ele>59.737107</ele>
        <time>2020-08-01T10:28:55.630Z</time>
      </trkpt>
      <trkpt lat="62.57839" lon="6.27037">
        <ele>59.763954</ele>
        <time>2020-08-01T10:28:57.585Z</time>
      </trkpt>
      <trkpt lat="62.57847" lon="6.27025">
        <ele>59.790948</ele>
        <time>2020-08-01T10:28:59.599Z</time>
      </trkpt>
      <trkpt lat="62.57855" lon="6.27014">
        <ele>59.817491</ele>
        <time>2020-08-01T10:29:01.588Z</time>
      </trkpt>
      <trkpt lat="62.57863" lon="6.27002">
        <ele>59.844179</ele>
        <time>2020-08-01T10:29:03.609Z</time>
      </trkpt>
      <trkpt lat="62.5787" lon="6.2699">
        <ele>59.869436</ele>
        <time>2020-08-01T10:29:05.604Z</time>
      </trkpt>
      <trkpt lat="62.57877" lon="6.26977">
        <ele>59.894947</ele>
        <time>2020-08-01T10:29:07.587Z</time>
      </trkpt>
      <trkpt lat="62.57885" lon="6.26963">
        <ele>59.924233</ele>
        <time>2020-08-01T10:29:09.631Z</time>
      </trkpt>
      <trkpt lat="62.57893" lon="6.26948">
        <ele>59.954633</ele>
        <time>2020-08-01T10:29:11.590Z</time>
      </trkpt>
      <trkpt lat="62.57901" lon="6.26933">
        <ele>59.983762</ele>
        <time>2020-08-01T10:29:13.594Z</time>
      </trkpt>
      <trkpt lat="62.57909" lon="6.26919">
        <ele>60.012088</ele>
        <time>2020-08-01T10:29:15.621Z</time>
      </trkpt>
      <trkpt lat="62.57917" lon="6.26904">
        <ele>59.996355</ele>
        <time>2020-08-01T10:29:17.602Z</time>
      </trkpt>
      <trkpt lat="62.57924" lon="6.2689">
        <ele>59.978806</ele>
        <time>2020-08-01T10:29:19.582Z</time>
      </trkpt>
      <trkpt lat="62.57931" lon="6.26876">
        <ele>59.961899</ele>
        <time>2020-08-01T10:29:21.606Z</time>
      </trkpt>
      <trkpt lat="62.57938" lon="6.26863">
        <ele>59.945018</ele>
        <time>2020-08-01T10:29:23.596Z</time>
      </trkpt>
      <trkpt lat="62.57945" lon="6.26849">
        <ele>59.929066</ele>
        <time>2020-08-01T10:29:25.601Z</time>
      </trkpt>
      <trkpt lat="62.57952" lon="6.26836">
        <ele>59.912213</ele>
        <time>2020-08-01T10:29:27.608Z</time>
      </trkpt>
      <trkpt lat="62.57959" lon="6.26822">
        <ele>59.895413</ele>
        <time>2020-08-01T10:29:29.627Z</time>
      </trkpt>
      <trkpt lat="62.5797" lon="6.26804">
        <ele>59.871784</ele>
        <time>2020-08-01T10:29:32.607Z</time>
      </trkpt>
      <trkpt lat="62.5798" lon="6.26786">
        <ele>59.84898</ele>
        <time>2020-08-01T10:29:35.583Z</time>
      </trkpt>
      <trkpt lat="62.5799" lon="6.26768">
        <ele>59.825469</ele>
        <time>2020-08-01T10:29:38.647Z</time>
      </trkpt>
      <trkpt lat="62.57997" lon="6.26756">
        <ele>59.809199</ele>
        <time>2020-08-01T10:29:40.603Z</time>
      </trkpt>
      <trkpt lat="62.58005" lon="6.26744">
        <ele>59.792489</ele>
        <time>2020-08-01T10:29:42.639Z</time>
      </trkpt>
      <trkpt lat="62.58013" lon="6.26732">
        <ele>59.77565</ele>
        <time>2020-08-01T10:29:44.595Z</time>
      </trkpt>
      <trkpt lat="62.5802" lon="6.2672">
        <ele>59.758617</ele>
        <time>2020-08-01T10:29:46.588Z</time>
      </trkpt>
      <trkpt lat="62.58031" lon="6.26704">
        <ele>59.735161</ele>
        <time>2020-08-01T10:29:49.596Z</time>
      </trkpt>
      <trkpt lat="62.58039" lon="6.26693">
        <ele>59.719096</ele>
        <time>2020-08-01T10:29:51.595Z</time>
      </trkpt>
      <trkpt lat="62.58047" lon="6.26683">
        <ele>59.702299</ele>
        <time>2020-08-01T10:29:53.622Z</time>
      </trkpt>
      <trkpt lat="62.58056" lon="6.26672">
        <ele>59.622626</ele>
        <time>2020-08-01T10:29:55.625Z</time>
      </trkpt>
      <trkpt lat="62.58063" lon="6.26662">
        <ele>59.502926</ele>
        <time>2020-08-01T10:29:57.617Z</time>
      </trkpt>
      <trkpt lat="62.58072" lon="6.26652">
        <ele>59.379611</ele>
        <time>2020-08-01T10:29:59.603Z</time>
      </trkpt>
      <trkpt lat="62.58083" lon="6.26638">
        <ele>59.204451</ele>
        <time>2020-08-01T10:30:02.616Z</time>
      </trkpt>
      <trkpt lat="62.58095" lon="6.26625">
        <ele>59.031382</ele>
        <time>2020-08-01T10:30:05.588Z</time>
      </trkpt>
      <trkpt lat="62.58107" lon="6.26613">
        <ele>58.860533</ele>
        <time>2020-08-01T10:30:08.585Z</time>
      </trkpt>
      <trkpt lat="62.58118" lon="6.26602">
        <ele>58.70249</ele>
        <time>2020-08-01T10:30:11.594Z</time>
      </trkpt>
      <trkpt lat="62.58129" lon="6.26592">
        <ele>58.544451</ele>
        <time>2020-08-01T10:30:14.624Z</time>
      </trkpt>
      <trkpt lat="62.5814" lon="6.26582">
        <ele>58.382781</ele>
        <time>2020-08-01T10:30:17.599Z</time>
      </trkpt>
      <trkpt lat="62.58152" lon="6.26572">
        <ele>58.217129</ele>
        <time>2020-08-01T10:30:20.616Z</time>
      </trkpt>
      <trkpt lat="62.58164" lon="6.26563">
        <ele>58.050063</ele>
        <time>2020-08-01T10:30:23.599Z</time>
      </trkpt>
      <trkpt lat="62.58177" lon="6.26555">
        <ele>57.879924</ele>
        <time>2020-08-01T10:30:26.586Z</time>
      </trkpt>
      <trkpt lat="62.58188" lon="6.26548">
        <ele>57.721571</ele>
        <time>2020-08-01T10:30:29.580Z</time>
      </trkpt>
      <trkpt lat="62.582" lon="6.26542">
        <ele>57.563513</ele>
        <time>2020-08-01T10:30:32.608Z</time>
      </trkpt>
      <trkpt lat="62.58211" lon="6.26536">
        <ele>57.41523</ele>
        <time>2020-08-01T10:30:35.612Z</time>
      </trkpt>
      <trkpt lat="62.58222" lon="6.26531">
        <ele>57.303538</ele>
        <time>2020-08-01T10:30:38.594Z</time>
      </trkpt>
      <trkpt lat="62.58233" lon="6.26526">
        <ele>57.226029</ele>
        <time>2020-08-01T10:30:41.593Z</time>
      </trkpt>
      <trkpt lat="62.58246" lon="6.2652">
        <ele>57.136162</ele>
        <time>2020-08-01T10:30:44.591Z</time>
      </trkpt>
      <trkpt lat="62.58255" lon="6.26516">
        <ele>57.074307</ele>
        <time>2020-08-01T10:30:46.628Z</time>
      </trkpt>
      <trkpt lat="62.58265" lon="6.26513">
        <ele>57.008445</ele>
        <time>2020-08-01T10:30:48.597Z</time>
      </trkpt>
      <trkpt lat="62.58274" lon="6.2651">
        <ele>56.942704</ele>
        <time>2020-08-01T10:30:50.597Z</time>
      </trkpt>
      <trkpt lat="62.58284" lon="6.26509">
        <ele>56.87588</ele>
        <time>2020-08-01T10:30:52.586Z</time>
      </trkpt>
      <trkpt lat="62.58295" lon="6.26507">
        <ele>56.805119</ele>
        <time>2020-08-01T10:30:54.629Z</time>
      </trkpt>
      <trkpt lat="62.58305" lon="6.26506">
        <ele>56.738387</ele>
        <time>2020-08-01T10:30:56.600Z</time>
      </trkpt>
      <trkpt lat="62.58314" lon="6.26506">
        <ele>56.676466</ele>
        <time>2020-08-01T10:30:58.585Z</time>
      </trkpt>
      <trkpt lat="62.58327" lon="6.26508">
        <ele>56.590288</ele>
        <time>2020-08-01T10:31:01.601Z</time>
      </trkpt>
      <trkpt lat="62.58339" lon="6.26509">
        <ele>56.505453</ele>
        <time>2020-08-01T10:31:04.608Z</time>
      </trkpt>
      <trkpt lat="62.58352" lon="6.26513">
        <ele>56.419929</ele>
        <time>2020-08-01T10:31:07.586Z</time>
      </trkpt>
      <trkpt lat="62.58364" lon="6.26517">
        <ele>56.335924</ele>
        <time>2020-08-01T10:31:10.589Z</time>
      </trkpt>
      <trkpt lat="62.58376" lon="6.26522">
        <ele>56.252413</ele>
        <time>2020-08-01T10:31:13.596Z</time>
      </trkpt>
      <trkpt lat="62.58388" lon="6.26529">
        <ele>56.170604</ele>
        <time>2020-08-01T10:31:16.592Z</time>
      </trkpt>
      <trkpt lat="62.584" lon="6.26537">
        <ele>56.023357</ele>
        <time>2020-08-01T10:31:19.605Z</time>
      </trkpt>
      <trkpt lat="62.58412" lon="6.26547">
        <ele>55.791073</ele>
        <time>2020-08-01T10:31:22.598Z</time>
      </trkpt>
      <trkpt lat="62.58424" lon="6.26557">
        <ele>55.5589</ele>
        <time>2020-08-01T10:31:25.624Z</time>
      </trkpt>
      <trkpt lat="62.58436" lon="6.26569">
        <ele>55.314483</ele>
        <time>2020-08-01T10:31:28.631Z</time>
      </trkpt>
      <trkpt lat="62.58444" lon="6.26579">
        <ele>55.14648</ele>
        <time>2020-08-01T10:31:30.605Z</time>
      </trkpt>
      <trkpt lat="62.58453" lon="6.2659">
        <ele>54.970292</ele>
        <time>2020-08-01T10:31:32.602Z</time>
      </trkpt>
      <trkpt lat="62.58461" lon="6.26601">
        <ele>54.792562</ele>
        <time>2020-08-01T10:31:34.588Z</time>
      </trkpt>
      <trkpt lat="62.5847" lon="6.26614">
        <ele>54.604466</ele>
        <time>2020-08-01T10:31:36.626Z</time>
      </trkpt>
      <trkpt lat="62.58478" lon="6.26627">
        <ele>54.410711</ele>
        <time>2020-08-01T10:31:38.616Z</time>
      </trkpt>
      <trkpt lat="62.58487" lon="6.26642">
        <ele>54.214935</ele>
        <time>2020-08-01T10:31:40.586Z</time>
      </trkpt>
      <trkpt lat="62.58495" lon="6.26657">
        <ele>54.018369</ele>
        <time>2020-08-01T10:31:42.615Z</time>
      </trkpt>
      <trkpt lat="62.58503" lon="6.26672">
        <ele>53.822917</ele>
        <time>2020-08-01T10:31:44.596Z</time>
      </trkpt>
      <trkpt lat="62.58511" lon="6.26689">
        <ele>53.631271</ele>
        <time>2020-08-01T10:31:46.620Z</time>
      </trkpt>
      <trkpt lat="62.58518" lon="6.26705">
        <ele>53.445766</ele>
        <time>2020-08-01T10:31:48.607Z</time>
      </trkpt>
      <trkpt lat="62.58524" lon="6.26722">
        <ele>53.26186</ele>
        <time>2020-08-01T10:31:50.634Z</time>
      </trkpt>
      <trkpt lat="62.5853" lon="6.26739">
        <ele>53.083144</ele>
        <time>2020-08-01T10:31:52.588Z</time>
      </trkpt>
      <trkpt lat="62.58536" lon="6.26757">
        <ele>52.908818</ele>
        <time>2020-08-01T10:31:54.620Z</time>
      </trkpt>
      <trkpt lat="62.58541" lon="6.26774">
        <ele>52.788432</ele>
        <time>2020-08-01T10:31:56.606Z</time>
      </trkpt>
      <trkpt lat="62.58545" lon="6.26791">
        <ele>52.680459</ele>
        <time>2020-08-01T10:31:58.589Z</time>
      </trkpt>
      <trkpt lat="62.58551" lon="6.26816">
        <ele>52.528593</ele>
        <time>2020-08-01T10:32:01.594Z</time>
      </trkpt>
      <trkpt lat="62.58557" lon="6.26841">
        <ele>52.378833</ele>
        <time>2020-08-01T10:32:04.617Z</time>
      </trkpt>
      <trkpt lat="62.58562" lon="6.26867">
        <ele>52.226598</ele>
        <time>2020-08-01T10:32:07.584Z</time>
      </trkpt>
      <trkpt lat="62.58566" lon="6.26893">
        <ele>52.07656</ele>
        <time>2020-08-01T10:32:10.612Z</time>
      </trkpt>
      <trkpt lat="62.5857" lon="6.26919">
        <ele>51.930132</ele>
        <time>2020-08-01T10:32:13.605Z</time>
      </trkpt>
      <trkpt lat="62.58574" lon="6.26946">
        <ele>51.781481</ele>
        <time>2020-08-01T10:32:16.627Z</time>
      </trkpt>
      <trkpt lat="62.58577" lon="6.26971">
        <ele>51.640975</ele>
        <time>2020-08-01T10:32:19.606Z</time>
      </trkpt>
      <trkpt lat="62.58579" lon="6.26995">
        <ele>51.506814</ele>
        <time>2020-08-01T10:32:22.643Z</time>
      </trkpt>
      <trkpt lat="62.58581" lon="6.2702">
        <ele>51.370324</ele>
        <time>2020-08-01T10:32:25.593Z</time>
      </trkpt>
      <trkpt lat="62.58583" lon="6.27045">
        <ele>51.235085</ele>
        <time>2020-08-01T10:32:28.618Z</time>
      </trkpt>
      <trkpt lat="62.58584" lon="6.2707">
        <ele>51.101521</ele>
        <time>2020-08-01T10:32:31.610Z</time>
      </trkpt>
      <trkpt lat="62.58585" lon="6.27094">
        <ele>50.968139</ele>
        <time>2020-08-01T10:32:34.597Z</time>
      </trkpt>
      <trkpt lat="62.58586" lon="6.2712">
        <ele>50.830818</ele>
        <time>2020-08-01T10:32:37.607Z</time>
      </trkpt>
      <trkpt lat="62.58587" lon="6.27145">
        <ele>50.749043</ele>
        <time>2020-08-01T10:32:40.610Z</time>
      </trkpt>
      <trkpt lat="62.58588" lon="6.2717">
        <ele>50.710707</ele>
        <time>2020-08-01T10:32:43.608Z</time>
      </trkpt>
      <trkpt lat="62.58589" lon="6.27195">
        <ele>50.672139</ele>
        <time>2020-08-01T10:32:46.586Z</time>
      </trkpt>
      <trkpt lat="62.58589" lon="6.27221">
        <ele>50.632193</ele>
        <time>2020-08-01T10:32:49.603Z</time>
      </trkpt>
      <trkpt lat="62.5859" lon="6.27247">
        <ele>50.592839</ele>
        <time>2020-08-01T10:32:52.590Z</time>
      </trkpt>
      <trkpt lat="62.58591" lon="6.27272">
        <ele>50.553766</ele>
        <time>2020-08-01T10:32:55.597Z</time>
      </trkpt>
      <trkpt lat="62.58592" lon="6.27297">
        <ele>50.514972</ele>
        <time>2020-08-01T10:32:58.608Z</time>
      </trkpt>
      <trkpt lat="62.58593" lon="6.27322">
        <ele>50.476842</ele>
        <time>2020-08-01T10:33:01.601Z</time>
      </trkpt>
      <trkpt lat="62.58594" lon="6.27347">
        <ele>50.439358</ele>
        <time>2020-08-01T10:33:04.594Z</time>
      </trkpt>
      <trkpt lat="62.58595" lon="6.27371">
        <ele>50.401481</ele>
        <time>2020-08-01T10:33:07.606Z</time>
      </trkpt>
      <trkpt lat="62.58596" lon="6.27397">
        <ele>50.361973</ele>
        <time>2020-08-01T10:33:10.593Z</time>
      </trkpt>
      <trkpt lat="62.58597" lon="6.27422">
        <ele>50.322811</ele>
        <time>2020-08-01T10:33:13.644Z</time>
      </trkpt>
      <trkpt lat="62.58598" lon="6.27447">
        <ele>50.28524</ele>
        <time>2020-08-01T10:33:16.628Z</time>
      </trkpt>
      <trkpt lat="62.58599" lon="6.27472">
        <ele>50.24562</ele>
        <time>2020-08-01T10:33:19.591Z</time>
      </trkpt>
      <trkpt lat="62.586" lon="6.27498">
        <ele>50.206796</ele>
        <time>2020-08-01T10:33:22.599Z</time>
      </trkpt>
      <trkpt lat="62.58602" lon="6.27522">
        <ele>50.213069</ele>
        <time>2020-08-01T10:33:25.625Z</time>
      </trkpt>
      <trkpt lat="62.58604" lon="6.27548">
        <ele>50.604684</ele>
        <time>2020-08-01T10:33:28.601Z</time>
      </trkpt>
      <trkpt lat="62.58606" lon="6.27571">
        <ele>50.976795</ele>
        <time>2020-08-01T10:33:31.583Z</time>
      </trkpt>
      <trkpt lat="62.58608" lon="6.27595">
        <ele>51.353847</ele>
        <time>2020-08-01T10:33:34.596Z</time>
      </trkpt>
      <trkpt lat="62.58611" lon="6.27618">
        <ele>51.718272</ele>
        <time>2020-08-01T10:33:37.643Z</time>
      </trkpt>
      <trkpt lat="62.58615" lon="6.2764">
        <ele>52.075196</ele>
        <time>2020-08-01T10:33:40.675Z</time>
      </trkpt>
      <trkpt lat="62.58618" lon="6.27659">
        <ele>52.395214</ele>
        <time>2020-08-01T10:33:43.611Z</time>
      </trkpt>
      <trkpt lat="62.58624" lon="6.27683">
        <ele>52.803593</ele>
        <time>2020-08-01T10:33:47.596Z</time>
      </trkpt>
      <trkpt lat="62.58629" lon="6.27705">
        <ele>53.205876</ele>
        <time>2020-08-01T10:33:51.622Z</time>
      </trkpt>
      <trkpt lat="62.58636" lon="6.27727">
        <ele>53.605546</ele>
        <time>2020-08-01T10:33:55.599Z</time>
      </trkpt>
      <trkpt lat="62.58641" lon="6.27744">
        <ele>53.911203</ele>
        <time>2020-08-01T10:33:58.598Z</time>
      </trkpt>
      <trkpt lat="62.58647" lon="6.2776">
        <ele>54.228539</ele>
        <time>2020-08-01T10:34:01.592Z</time>
      </trkpt>
      <trkpt lat="62.58653" lon="6.27774">
        <ele>54.529618</ele>
        <time>2020-08-01T10:34:04.597Z</time>
      </trkpt>
      <trkpt lat="62.5866" lon="6.27794">
        <ele>54.909929</ele>
        <time>2020-08-01T10:34:08.606Z</time>
      </trkpt>
      <trkpt lat="62.58667" lon="6.2781">
        <ele>55.27275</ele>
        <time>2020-08-01T10:34:12.583Z</time>
      </trkpt>
      <trkpt lat="62.58676" lon="6.27827">
        <ele>55.654721</ele>
        <time>2020-08-01T10:34:16.597Z</time>
      </trkpt>
      <trkpt lat="62.58683" lon="6.27839">
        <ele>55.956735</ele>
        <time>2020-08-01T10:34:19.600Z</time>
      </trkpt>
      <trkpt lat="62.58691" lon="6.27853">
        <ele>56.267417</ele>
        <time>2020-08-01T10:34:23.611Z</time>
      </trkpt>
      <trkpt lat="62.587" lon="6.27867">
        <ele>56.496598</ele>
        <time>2020-08-01T10:34:27.623Z</time>
      </trkpt>
      <trkpt lat="62.5871" lon="6.2788">
        <ele>56.744211</ele>
        <time>2020-08-01T10:34:31.623Z</time>
      </trkpt>
      <trkpt lat="62.58718" lon="6.2789">
        <ele>56.936783</ele>
        <time>2020-08-01T10:34:34.591Z</time>
      </trkpt>
      <trkpt lat="62.58728" lon="6.27902">
        <ele>57.179294</ele>
        <time>2020-08-01T10:34:38.619Z</time>
      </trkpt>
      <trkpt lat="62.58736" lon="6.27912">
        <ele>57.376884</ele>
        <time>2020-08-01T10:34:41.593Z</time>
      </trkpt>
      <trkpt lat="62.58745" lon="6.27921">
        <ele>57.574577</ele>
        <time>2020-08-01T10:34:44.611Z</time>
      </trkpt>
      <trkpt lat="62.58753" lon="6.2793">
        <ele>57.776797</ele>
        <time>2020-08-01T10:34:47.606Z</time>
      </trkpt>
      <trkpt lat="62.58761" lon="6.27939">
        <ele>57.97279</ele>
        <time>2020-08-01T10:34:50.586Z</time>
      </trkpt>
      <trkpt lat="62.5877" lon="6.27948">
        <ele>58.180657</ele>
        <time>2020-08-01T10:34:53.591Z</time>
      </trkpt>
      <trkpt lat="62.5878" lon="6.27958">
        <ele>58.405964</ele>
        <time>2020-08-01T10:34:56.613Z</time>
      </trkpt>
      <trkpt lat="62.58789" lon="6.27968">
        <ele>58.623896</ele>
        <time>2020-08-01T10:34:59.636Z</time>
      </trkpt>
      <trkpt lat="62.58798" lon="6.27978">
        <ele>58.838853</ele>
        <time>2020-08-01T10:35:02.633Z</time>
      </trkpt>
      <trkpt lat="62.58807" lon="6.27987">
        <ele>59.04793</ele>
        <time>2020-08-01T10:35:05.592Z</time>
      </trkpt>
      <trkpt lat="62.58816" lon="6.27997">
        <ele>59.245513</ele>
        <time>2020-08-01T10:35:08.587Z</time>
      </trkpt>
      <trkpt lat="62.58826" lon="6.28007">
        <ele>59.476281</ele>
        <time>2020-08-01T10:35:11.605Z</time>
      </trkpt>
      <trkpt lat="62.58836" lon="6.28018">
        <ele>59.712102</ele>
        <time>2020-08-01T10:35:14.600Z</time>
      </trkpt>
      <trkpt lat="62.58845" lon="6.28028">
        <ele>59.937819</ele>
        <time>2020-08-01T10:35:17.602Z</time>
      </trkpt>
      <trkpt lat="62.58855" lon="6.28037">
        <ele>60.055184</ele>
        <time>2020-08-01T10:35:20.640Z</time>
      </trkpt>
      <trkpt lat="62.58865" lon="6.28048">
        <ele>60.139488</ele>
        <time>2020-08-01T10:35:23.600Z</time>
      </trkpt>
      <trkpt lat="62.58875" lon="6.28059">
        <ele>60.226526</ele>
        <time>2020-08-01T10:35:26.613Z</time>
      </trkpt>
      <trkpt lat="62.58883" lon="6.28069">
        <ele>60.303005</ele>
        <time>2020-08-01T10:35:29.599Z</time>
      </trkpt>
      <trkpt lat="62.58892" lon="6.28078">
        <ele>60.3805</ele>
        <time>2020-08-01T10:35:32.622Z</time>
      </trkpt>
      <trkpt lat="62.58902" lon="6.28088">
        <ele>60.46402</ele>
        <time>2020-08-01T10:35:35.606Z</time>
      </trkpt>
      <trkpt lat="62.58911" lon="6.28098">
        <ele>60.546612</ele>
        <time>2020-08-01T10:35:38.650Z</time>
      </trkpt>
      <trkpt lat="62.58921" lon="6.28108">
        <ele>60.63214</ele>
        <time>2020-08-01T10:35:41.614Z</time>
      </trkpt>
      <trkpt lat="62.58931" lon="6.28118">
        <ele>60.712979</ele>
        <time>2020-08-01T10:35:44.614Z</time>
      </trkpt>
      <trkpt lat="62.5894" lon="6.28128">
        <ele>60.795229</ele>
        <time>2020-08-01T10:35:47.592Z</time>
      </trkpt>
      <trkpt lat="62.5895" lon="6.28138">
        <ele>60.877005</ele>
        <time>2020-08-01T10:35:50.604Z</time>
      </trkpt>
      <trkpt lat="62.58959" lon="6.28147">
        <ele>60.956684</ele>
        <time>2020-08-01T10:35:53.629Z</time>
      </trkpt>
      <trkpt lat="62.58968" lon="6.28157">
        <ele>61.035892</ele>
        <time>2020-08-01T10:35:56.604Z</time>
      </trkpt>
      <trkpt lat="62.58977" lon="6.28167">
        <ele>61.114374</ele>
        <time>2020-08-01T10:35:59.591Z</time>
      </trkpt>
      <trkpt lat="62.58987" lon="6.28177">
        <ele>61.198188</ele>
        <time>2020-08-01T10:36:02.601Z</time>
      </trkpt>
      <trkpt lat="62.58997" lon="6.28188">
        <ele>61.28689</ele>
        <time>2020-08-01T10:36:05.594Z</time>
      </trkpt>
      <trkpt lat="62.59008" lon="6.28198">
        <ele>61.378162</ele>
        <time>2020-08-01T10:36:08.618Z</time>
      </trkpt>
      <trkpt lat="62.59019" lon="6.2821">
        <ele>61.324312</ele>
        <time>2020-08-01T10:36:11.628Z</time>
      </trkpt>
      <trkpt lat="62.5903" lon="6.28222">
        <ele>61.239019</ele>
        <time>2020-08-01T10:36:14.593Z</time>
      </trkpt>
      <trkpt lat="62.59042" lon="6.28233">
        <ele>61.152984</ele>
        <time>2020-08-01T10:36:17.590Z</time>
      </trkpt>
      <trkpt lat="62.59054" lon="6.28245">
        <ele>61.064853</ele>
        <time>2020-08-01T10:36:20.598Z</time>
      </trkpt>
      <trkpt lat="62.59065" lon="6.28258">
        <ele>60.978078</ele>
        <time>2020-08-01T10:36:23.603Z</time>
      </trkpt>
      <trkpt lat="62.59076" lon="6.2827">
        <ele>60.895339</ele>
        <time>2020-08-01T10:36:26.619Z</time>
      </trkpt>
      <trkpt lat="62.59087" lon="6.28282">
        <ele>60.816115</ele>
        <time>2020-08-01T10:36:29.586Z</time>
      </trkpt>
      <trkpt lat="62.59097" lon="6.28294">
        <ele>60.733505</ele>
        <time>2020-08-01T10:36:32.614Z</time>
      </trkpt>
      <trkpt lat="62.59108" lon="6.28306">
        <ele>60.655341</ele>
        <time>2020-08-01T10:36:35.604Z</time>
      </trkpt>
      <trkpt lat="62.59117" lon="6.28317">
        <ele>60.58311</ele>
        <time>2020-08-01T10:36:38.587Z</time>
      </trkpt>
      <trkpt lat="62.59126" lon="6.28328">
        <ele>60.514081</ele>
        <time>2020-08-01T10:36:41.622Z</time>
      </trkpt>
      <trkpt lat="62.59135" lon="6.28339">
        <ele>60.44361</ele>
        <time>2020-08-01T10:36:44.589Z</time>
      </trkpt>
      <trkpt lat="62.59145" lon="6.28349">
        <ele>60.372563</ele>
        <time>2020-08-01T10:36:47.585Z</time>
      </trkpt>
      <trkpt lat="62.59154" lon="6.28362">
        <ele>60.299046</ele>
        <time>2020-08-01T10:36:50.601Z</time>
      </trkpt>
      <trkpt lat="62.59163" lon="6.28376">
        <ele>60.224106</ele>
        <time>2020-08-01T10:36:53.601Z</time>
      </trkpt>
      <trkpt lat="62.59172" lon="6.28391">
        <ele>60.122639</ele>
        <time>2020-08-01T10:36:56.629Z</time>
      </trkpt>
      <trkpt lat="62.5918" lon="6.28407">
        <ele>59.992217</ele>
        <time>2020-08-01T10:36:59.636Z</time>
      </trkpt>
      <trkpt lat="62.59189" lon="6.28423">
        <ele>59.865101</ele>
        <time>2020-08-01T10:37:02.611Z</time>
      </trkpt>
      <trkpt lat="62.59196" lon="6.28439">
        <ele>59.740668</ele>
        <time>2020-08-01T10:37:05.590Z</time>
      </trkpt>
      <trkpt lat="62.59204" lon="6.28456">
        <ele>59.612442</ele>
        <time>2020-08-01T10:37:08.587Z</time>
      </trkpt>
      <trkpt lat="62.59213" lon="6.28474">
        <ele>59.477931</ele>
        <time>2020-08-01T10:37:11.622Z</time>
      </trkpt>
      <trkpt lat="62.59221" lon="6.28491">
        <ele>59.344992</ele>
        <time>2020-08-01T10:37:14.595Z</time>
      </trkpt>
      <trkpt lat="62.59228" lon="6.28509">
        <ele>59.218845</ele>
        <time>2020-08-01T10:37:17.586Z</time>
      </trkpt>
      <trkpt lat="62.59235" lon="6.28528">
        <ele>59.090118</ele>
        <time>2020-08-01T10:37:20.621Z</time>
      </trkpt>
      <trkpt lat="62.59242" lon="6.28547">
        <ele>58.961854</ele>
        <time>2020-08-01T10:37:23.578Z</time>
      </trkpt>
      <trkpt lat="62.59247" lon="6.28567">
        <ele>58.838286</ele>
        <time>2020-08-01T10:37:26.599Z</time>
      </trkpt>
      <trkpt lat="62.59252" lon="6.28587">
        <ele>58.717873</ele>
        <time>2020-08-01T10:37:29.614Z</time>
      </trkpt>
      <trkpt lat="62.59255" lon="6.28611">
        <ele>58.584863</ele>
        <time>2020-08-01T10:37:32.625Z</time>
      </trkpt>
      <trkpt lat="62.59259" lon="6.28637">
        <ele>58.441485</ele>
        <time>2020-08-01T10:37:35.597Z</time>
      </trkpt>
      <trkpt lat="62.59263" lon="6.2866">
        <ele>58.310316</ele>
        <time>2020-08-01T10:37:38.588Z</time>
      </trkpt>
      <trkpt lat="62.59267" lon="6.28681">
        <ele>58.184099</ele>
        <time>2020-08-01T10:37:41.596Z</time>
      </trkpt>
      <trkpt lat="62.59273" lon="6.28703">
        <ele>58.106322</ele>
        <time>2020-08-01T10:37:44.587Z</time>
      </trkpt>
      <trkpt lat="62.59278" lon="6.28725">
        <ele>58.120233</ele>
        <time>2020-08-01T10:37:47.619Z</time>
      </trkpt>
      <trkpt lat="62.59284" lon="6.28747">
        <ele>58.134123</ele>
        <time>2020-08-01T10:37:50.600Z</time>
      </trkpt>
      <trkpt lat="62.59289" lon="6.28767">
        <ele>58.146722</ele>
        <time>2020-08-01T10:37:53.609Z</time>
      </trkpt>
      <trkpt lat="62.59294" lon="6.28787">
        <ele>58.159599</ele>
        <time>2020-08-01T10:37:56.588Z</time>
      </trkpt>
      <trkpt lat="62.59299" lon="6.28809">
        <ele>58.173269</ele>
        <time>2020-08-01T10:37:59.599Z</time>
      </trkpt>
      <trkpt lat="62.59305" lon="6.28831">
        <ele>58.187325</ele>
        <time>2020-08-01T10:38:02.616Z</time>
      </trkpt>
      <trkpt lat="62.59311" lon="6.28853">
        <ele>58.201769</ele>
        <time>2020-08-01T10:38:05.630Z</time>
      </trkpt>
      <trkpt lat="62.59319" lon="6.28875">
        <ele>58.217005</ele>
        <time>2020-08-01T10:38:08.584Z</time>
      </trkpt>
      <trkpt lat="62.59326" lon="6.28897">
        <ele>58.232172</ele>
        <time>2020-08-01T10:38:11.602Z</time>
      </trkpt>
      <trkpt lat="62.59332" lon="6.28919">
        <ele>58.246607</ele>
        <time>2020-08-01T10:38:14.626Z</time>
      </trkpt>
      <trkpt lat="62.59338" lon="6.28939">
        <ele>58.260058</ele>
        <time>2020-08-01T10:38:17.588Z</time>
      </trkpt>
      <trkpt lat="62.59344" lon="6.28962">
        <ele>58.274088</ele>
        <time>2020-08-01T10:38:20.624Z</time>
      </trkpt>
      <trkpt lat="62.59349" lon="6.28984">
        <ele>58.288111</ele>
        <time>2020-08-01T10:38:23.586Z</time>
      </trkpt>
      <trkpt lat="62.59353" lon="6.29004">
        <ele>58.300351</ele>
        <time>2020-08-01T10:38:26.619Z</time>
      </trkpt>
      <trkpt lat="62.59358" lon="6.29024">
        <ele>58.312794</ele>
        <time>2020-08-01T10:38:29.596Z</time>
      </trkpt>
      <trkpt lat="62.59363" lon="6.29046">
        <ele>58.376955</ele>
        <time>2020-08-01T10:38:32.594Z</time>
      </trkpt>
      <trkpt lat="62.59369" lon="6.29069">
        <ele>58.492255</ele>
        <time>2020-08-01T10:38:35.587Z</time>
      </trkpt>
      <trkpt lat="62.59375" lon="6.29093">
        <ele>58.606236</ele>
        <time>2020-08-01T10:38:38.607Z</time>
      </trkpt>
      <trkpt lat="62.5938" lon="6.29119">
        <ele>58.723639</ele>
        <time>2020-08-01T10:38:41.582Z</time>
      </trkpt>
      <trkpt lat="62.59384" lon="6.29144">
        <ele>58.840539</ele>
        <time>2020-08-01T10:38:44.587Z</time>
      </trkpt>
      <trkpt lat="62.59389" lon="6.29171">
        <ele>58.959292</ele>
        <time>2020-08-01T10:38:47.587Z</time>
      </trkpt>
      <trkpt lat="62.59392" lon="6.29198">
        <ele>59.078954</ele>
        <time>2020-08-01T10:38:50.615Z</time>
      </trkpt>
      <trkpt lat="62.59395" lon="6.29224">
        <ele>59.194786</ele>
        <time>2020-08-01T10:38:53.601Z</time>
      </trkpt>
      <trkpt lat="62.59397" lon="6.29248">
        <ele>59.298318</ele>
        <time>2020-08-01T10:38:56.579Z</time>
      </trkpt>
      <trkpt lat="62.59399" lon="6.29273">
        <ele>59.407034</ele>
        <time>2020-08-01T10:38:59.605Z</time>
      </trkpt>
      <trkpt lat="62.59401" lon="6.29296">
        <ele>59.507139</ele>
        <time>2020-08-01T10:39:02.593Z</time>
      </trkpt>
      <trkpt lat="62.59404" lon="6.29316">
        <ele>59.594118</ele>
        <time>2020-08-01T10:39:05.591Z</time>
      </trkpt>
      <trkpt lat="62.59407" lon="6.29338">
        <ele>59.694185</ele>
        <time>2020-08-01T10:39:09.598Z</time>
      </trkpt>
      <trkpt lat="62.59412" lon="6.2936">
        <ele>59.796562</ele>
        <time>2020-08-01T10:39:13.606Z</time>
      </trkpt>
      <trkpt lat="62.59416" lon="6.29377">
        <ele>59.880044</ele>
        <time>2020-08-01T10:39:16.588Z</time>
      </trkpt>
      <trkpt lat="62.59421" lon="6.29399">
        <ele>59.983374</ele>
        <time>2020-08-01T10:39:20.600Z</time>
      </trkpt>
      <trkpt lat="62.59424" lon="6.2942">
        <ele>60.081391</ele>
        <time>2020-08-01T10:39:24.610Z</time>
      </trkpt>
      <trkpt lat="62.59427" lon="6.29439">
        <ele>60.173013</ele>
        <time>2020-08-01T10:39:27.592Z</time>
      </trkpt>
      <trkpt lat="62.59429" lon="6.29458">
        <ele>60.263439</ele>
        <time>2020-08-01T10:39:30.578Z</time>
      </trkpt>
      <trkpt lat="62.59431" lon="6.29478">
        <ele>60.356519</ele>
        <time>2020-08-01T10:39:33.584Z</time>
      </trkpt>
      <trkpt lat="62.59433" lon="6.29503">
        <ele>60.470044</ele>
        <time>2020-08-01T10:39:37.582Z</time>
      </trkpt>
      <trkpt lat="62.59437" lon="6.29521">
        <ele>60.559794</ele>
        <time>2020-08-01T10:39:40.588Z</time>
      </trkpt>
      <trkpt lat="62.59442" lon="6.29542">
        <ele>60.664504</ele>
        <time>2020-08-01T10:39:43.614Z</time>
      </trkpt>
      <trkpt lat="62.59448" lon="6.29563">
        <ele>60.776913</ele>
        <time>2020-08-01T10:39:46.604Z</time>
      </trkpt>
      <trkpt lat="62.59454" lon="6.29586">
        <ele>60.900313</ele>
        <time>2020-08-01T10:39:49.598Z</time>
      </trkpt>
      <trkpt lat="62.59461" lon="6.2961">
        <ele>61.02824</ele>
        <time>2020-08-01T10:39:52.632Z</time>
      </trkpt>
      <trkpt lat="62.59467" lon="6.29635">
        <ele>61.157845</ele>
        <time>2020-08-01T10:39:55.623Z</time>
      </trkpt>
      <trkpt lat="62.59473" lon="6.29659">
        <ele>61.283545</ele>
        <time>2020-08-01T10:39:58.598Z</time>
      </trkpt>
      <trkpt lat="62.59478" lon="6.29682">
        <ele>61.399224</ele>
        <time>2020-08-01T10:40:01.599Z</time>
      </trkpt>
      <trkpt lat="62.59483" lon="6.29704">
        <ele>61.507963</ele>
        <time>2020-08-01T10:40:04.632Z</time>
      </trkpt>
      <trkpt lat="62.59488" lon="6.29727">
        <ele>61.623224</ele>
        <time>2020-08-01T10:40:07.623Z</time>
      </trkpt>
      <trkpt lat="62.59493" lon="6.29752">
        <ele>61.74886</ele>
        <time>2020-08-01T10:40:10.625Z</time>
      </trkpt>
      <trkpt lat="62.59497" lon="6.29769">
        <ele>61.649646</ele>
        <time>2020-08-01T10:40:12.582Z</time>
      </trkpt>
      <trkpt lat="62.59502" lon="6.29787">
        <ele>61.52226</ele>
        <time>2020-08-01T10:40:14.634Z</time>
      </trkpt>
      <trkpt lat="62.59508" lon="6.29806">
        <ele>61.384304</ele>
        <time>2020-08-01T10:40:16.628Z</time>
      </trkpt>
      <trkpt lat="62.59514" lon="6.29825">
        <ele>61.241355</ele>
        <time>2020-08-01T10:40:18.586Z</time>
      </trkpt>
      <trkpt lat="62.59521" lon="6.29843">
        <ele>61.09479</ele>
        <time>2020-08-01T10:40:20.612Z</time>
      </trkpt>
      <trkpt lat="62.59528" lon="6.2986">
        <ele>60.956491</ele>
        <time>2020-08-01T10:40:22.605Z</time>
      </trkpt>
      <trkpt lat="62.59536" lon="6.29874">
        <ele>60.824988</ele>
        <time>2020-08-01T10:40:24.610Z</time>
      </trkpt>
      <trkpt lat="62.59544" lon="6.29887">
        <ele>60.695436</ele>
        <time>2020-08-01T10:40:26.629Z</time>
      </trkpt>
      <trkpt lat="62.59551" lon="6.29898">
        <ele>60.575208</ele>
        <time>2020-08-01T10:40:28.603Z</time>
      </trkpt>
      <trkpt lat="62.59558" lon="6.2991">
        <ele>60.456028</ele>
        <time>2020-08-01T10:40:30.587Z</time>
      </trkpt>
      <trkpt lat="62.59566" lon="6.2992">
        <ele>60.334233</ele>
        <time>2020-08-01T10:40:32.609Z</time>
      </trkpt>
      <trkpt lat="62.59578" lon="6.29933">
        <ele>60.159434</ele>
        <time>2020-08-01T10:40:35.594Z</time>
      </trkpt>
      <trkpt lat="62.5959" lon="6.29943">
        <ele>59.98775</ele>
        <time>2020-08-01T10:40:38.611Z</time>
      </trkpt>
      <trkpt lat="62.59602" lon="6.29955">
        <ele>59.819966</ele>
        <time>2020-08-01T10:40:41.580Z</time>
      </trkpt>
      <trkpt lat="62.59613" lon="6.29965">
        <ele>59.655138</ele>
        <time>2020-08-01T10:40:44.619Z</time>
      </trkpt>
      <trkpt lat="62.59623" lon="6.29977">
        <ele>59.503669</ele>
        <time>2020-08-01T10:40:47.588Z</time>
      </trkpt>
      <trkpt lat="62.59633" lon="6.29988">
        <ele>59.370398</ele>
        <time>2020-08-01T10:40:50.618Z</time>
      </trkpt>
      <trkpt lat="62.59643" lon="6.29999">
        <ele>59.343839</ele>
        <time>2020-08-01T10:40:53.590Z</time>
      </trkpt>
      <trkpt lat="62.59651" lon="6.30009">
        <ele>59.319719</ele>
        <time>2020-08-01T10:40:56.587Z</time>
      </trkpt>
      <trkpt lat="62.5966" lon="6.30016">
        <ele>59.296427</ele>
        <time>2020-08-01T10:40:59.611Z</time>
      </trkpt>
      <trkpt lat="62.59669" lon="6.30026">
        <ele>59.271068</ele>
        <time>2020-08-01T10:41:02.594Z</time>
      </trkpt>
      <trkpt lat="62.59679" lon="6.30033">
        <ele>59.245321</ele>
        <time>2020-08-01T10:41:05.611Z</time>
      </trkpt>
      <trkpt lat="62.59689" lon="6.3004">
        <ele>59.220164</ele>
        <time>2020-08-01T10:41:08.588Z</time>
      </trkpt>
      <trkpt lat="62.59699" lon="6.3005">
        <ele>59.193686</ele>
        <time>2020-08-01T10:41:11.626Z</time>
      </trkpt>
      <trkpt lat="62.59709" lon="6.30059">
        <ele>59.168197</ele>
        <time>2020-08-01T10:41:14.592Z</time>
      </trkpt>
      <trkpt lat="62.59718" lon="6.30069">
        <ele>59.142782</ele>
        <time>2020-08-01T10:41:17.587Z</time>
      </trkpt>
      <trkpt lat="62.59726" lon="6.3008">
        <ele>59.118985</ele>
        <time>2020-08-01T10:41:20.607Z</time>
      </trkpt>
      <trkpt lat="62.59734" lon="6.30092">
        <ele>59.095894</ele>
        <time>2020-08-01T10:41:23.599Z</time>
      </trkpt>
      <trkpt lat="62.59741" lon="6.30104">
        <ele>59.072737</ele>
        <time>2020-08-01T10:41:26.586Z</time>
      </trkpt>
      <trkpt lat="62.59749" lon="6.30117">
        <ele>59.048908</ele>
        <time>2020-08-01T10:41:29.611Z</time>
      </trkpt>
      <trkpt lat="62.59756" lon="6.30131">
        <ele>59.025528</ele>
        <time>2020-08-01T10:41:32.597Z</time>
      </trkpt>
      <trkpt lat="62.59762" lon="6.30147">
        <ele>59.002676</ele>
        <time>2020-08-01T10:41:35.607Z</time>
      </trkpt>
      <trkpt lat="62.59767" lon="6.30166">
        <ele>58.977968</ele>
        <time>2020-08-01T10:41:38.603Z</time>
      </trkpt>
      <trkpt lat="62.59773" lon="6.30187">
        <ele>58.950144</ele>
        <time>2020-08-01T10:41:41.584Z</time>
      </trkpt>
      <trkpt lat="62.59777" lon="6.30213">
        <ele>58.917819</ele>
        <time>2020-08-01T10:41:44.629Z</time>
      </trkpt>
      <trkpt lat="62.59781" lon="6.30239">
        <ele>58.883484</ele>
        <time>2020-08-01T10:41:47.607Z</time>
      </trkpt>
      <trkpt lat="62.59786" lon="6.30264">
        <ele>58.849411</ele>
        <time>2020-08-01T10:41:50.589Z</time>
      </trkpt>
      <trkpt lat="62.5979" lon="6.3029">
        <ele>58.815845</ele>
        <time>2020-08-01T10:41:53.613Z</time>
      </trkpt>
      <trkpt lat="62.59793" lon="6.30314">
        <ele>58.784208</ele>
        <time>2020-08-01T10:41:56.592Z</time>
      </trkpt>
      <trkpt lat="62.59796" lon="6.30338">
        <ele>58.752318</ele>
        <time>2020-08-01T10:41:59.633Z</time>
      </trkpt>
      <trkpt lat="62.598" lon="6.30362">
        <ele>58.721837</ele>
        <time>2020-08-01T10:42:02.623Z</time>
      </trkpt>
      <trkpt lat="62.59803" lon="6.30385">
        <ele>58.69143</ele>
        <time>2020-08-01T10:42:05.586Z</time>
      </trkpt>
      <trkpt lat="62.59807" lon="6.3041">
        <ele>58.65863</ele>
        <time>2020-08-01T10:42:08.601Z</time>
      </trkpt>
      <trkpt lat="62.5981" lon="6.30436">
        <ele>58.623992</ele>
        <time>2020-08-01T10:42:11.608Z</time>
      </trkpt>
      <trkpt lat="62.59814" lon="6.30464">
        <ele>58.588559</ele>
        <time>2020-08-01T10:42:14.654Z</time>
      </trkpt>
      <trkpt lat="62.59818" lon="6.30491">
        <ele>58.553137</ele>
        <time>2020-08-01T10:42:17.614Z</time>
      </trkpt>
      <trkpt lat="62.59821" lon="6.30517">
        <ele>58.518471</ele>
        <time>2020-08-01T10:42:20.592Z</time>
      </trkpt>
      <trkpt lat="62.59824" lon="6.30542">
        <ele>58.486869</ele>
        <time>2020-08-01T10:42:23.584Z</time>
      </trkpt>
      <trkpt lat="62.59827" lon="6.30564">
        <ele>58.458015</ele>
        <time>2020-08-01T10:42:26.586Z</time>
      </trkpt>
      <trkpt lat="62.5983" lon="6.30587">
        <ele>58.445364</ele>
        <time>2020-08-01T10:42:29.615Z</time>
      </trkpt>
      <trkpt lat="62.59832" lon="6.30609">
        <ele>58.447852</ele>
        <time>2020-08-01T10:42:32.590Z</time>
      </trkpt>
      <trkpt lat="62.59834" lon="6.3063">
        <ele>58.450228</ele>
        <time>2020-08-01T10:42:35.612Z</time>
      </trkpt>
      <trkpt lat="62.59836" lon="6.30656">
        <ele>58.453058</ele>
        <time>2020-08-01T10:42:39.587Z</time>
      </trkpt>
      <trkpt lat="62.59836" lon="6.30677">
        <ele>58.455388</ele>
        <time>2020-08-01T10:42:42.584Z</time>
      </trkpt>
      <trkpt lat="62.59836" lon="6.30699">
        <ele>58.457823</ele>
        <time>2020-08-01T10:42:45.579Z</time>
      </trkpt>
      <trkpt lat="62.59836" lon="6.30721">
        <ele>58.460274</ele>
        <time>2020-08-01T10:42:48.584Z</time>
      </trkpt>
      <trkpt lat="62.59835" lon="6.30744">
        <ele>58.462828</ele>
        <time>2020-08-01T10:42:51.613Z</time>
      </trkpt>
      <trkpt lat="62.59833" lon="6.30766">
        <ele>58.465294</ele>
        <time>2020-08-01T10:42:54.595Z</time>
      </trkpt>
      <trkpt lat="62.59832" lon="6.3079">
        <ele>58.468008</ele>
        <time>2020-08-01T10:42:57.600Z</time>
      </trkpt>
      <trkpt lat="62.59831" lon="6.30815">
        <ele>58.470745</ele>
        <time>2020-08-01T10:43:00.591Z</time>
      </trkpt>
      <trkpt lat="62.5983" lon="6.30839">
        <ele>58.473437</ele>
        <time>2020-08-01T10:43:03.590Z</time>
      </trkpt>
      <trkpt lat="62.5983" lon="6.30865">
        <ele>58.476316</ele>
        <time>2020-08-01T10:43:06.594Z</time>
      </trkpt>
      <trkpt lat="62.5983" lon="6.30891">
        <ele>58.479185</ele>
        <time>2020-08-01T10:43:09.624Z</time>
      </trkpt>
      <trkpt lat="62.59831" lon="6.30915">
        <ele>58.48189</ele>
        <time>2020-08-01T10:43:12.593Z</time>
      </trkpt>
      <trkpt lat="62.59832" lon="6.30939">
        <ele>58.484536</ele>
        <time>2020-08-01T10:43:15.600Z</time>
      </trkpt>
      <trkpt lat="62.59835" lon="6.30963">
        <ele>58.488452</ele>
        <time>2020-08-01T10:43:18.589Z</time>
      </trkpt>
      <trkpt lat="62.59837" lon="6.30987">
        <ele>58.544511</ele>
        <time>2020-08-01T10:43:21.605Z</time>
      </trkpt>
      <trkpt lat="62.5984" lon="6.31011">
        <ele>58.600747</ele>
        <time>2020-08-01T10:43:24.597Z</time>
      </trkpt>
      <trkpt lat="62.59844" lon="6.31033">
        <ele>58.653678</ele>
        <time>2020-08-01T10:43:27.591Z</time>
      </trkpt>
      <trkpt lat="62.59848" lon="6.31053">
        <ele>58.703263</ele>
        <time>2020-08-01T10:43:30.595Z</time>
      </trkpt>
      <trkpt lat="62.59852" lon="6.31072">
        <ele>58.749153</ele>
        <time>2020-08-01T10:43:33.584Z</time>
      </trkpt>
      <trkpt lat="62.59858" lon="6.31089">
        <ele>58.799414</ele>
        <time>2020-08-01T10:43:36.587Z</time>
      </trkpt>
      <trkpt lat="62.59864" lon="6.31106">
        <ele>58.848233</ele>
        <time>2020-08-01T10:43:39.604Z</time>
      </trkpt>
      <trkpt lat="62.5987" lon="6.31123">
        <ele>58.896124</ele>
        <time>2020-08-01T10:43:42.598Z</time>
      </trkpt>
      <trkpt lat="62.59877" lon="6.31138">
        <ele>58.943284</ele>
        <time>2020-08-01T10:43:45.587Z</time>
      </trkpt>
      <trkpt lat="62.59883" lon="6.31153">
        <ele>58.990623</ele>
        <time>2020-08-01T10:43:48.609Z</time>
      </trkpt>
      <trkpt lat="62.5989" lon="6.31168">
        <ele>59.038175</ele>
        <time>2020-08-01T10:43:51.609Z</time>
      </trkpt>
      <trkpt lat="62.59898" lon="6.31182">
        <ele>59.086831</ele>
        <time>2020-08-01T10:43:54.604Z</time>
      </trkpt>
      <trkpt lat="62.59906" lon="6.31196">
        <ele>59.136615</ele>
        <time>2020-08-01T10:43:57.598Z</time>
      </trkpt>
      <trkpt lat="62.59914" lon="6.31212">
        <ele>59.193144</ele>
        <time>2020-08-01T10:44:00.598Z</time>
      </trkpt>
      <trkpt lat="62.59923" lon="6.31228">
        <ele>59.249754</ele>
        <time>2020-08-01T10:44:03.590Z</time>
      </trkpt>
      <trkpt lat="62.59931" lon="6.31243">
        <ele>59.300946</ele>
        <time>2020-08-01T10:44:06.607Z</time>
      </trkpt>
      <trkpt lat="62.5994" lon="6.31261">
        <ele>59.361715</ele>
        <time>2020-08-01T10:44:09.599Z</time>
      </trkpt>
      <trkpt lat="62.59947" lon="6.31275">
        <ele>59.335547</ele>
        <time>2020-08-01T10:44:11.624Z</time>
      </trkpt>
      <trkpt lat="62.59955" lon="6.3129">
        <ele>59.284947</ele>
        <time>2020-08-01T10:44:13.616Z</time>
      </trkpt>
      <trkpt lat="62.59962" lon="6.31306">
        <ele>59.231553</ele>
        <time>2020-08-01T10:44:15.586Z</time>
      </trkpt>
      <trkpt lat="62.5997" lon="6.31323">
        <ele>59.176338</ele>
        <time>2020-08-01T10:44:17.648Z</time>
      </trkpt>
      <trkpt lat="62.59977" lon="6.31341">
        <ele>59.121989</ele>
        <time>2020-08-01T10:44:19.589Z</time>
      </trkpt>
      <trkpt lat="62.59984" lon="6.31359">
        <ele>59.068261</ele>
        <time>2020-08-01T10:44:21.584Z</time>
      </trkpt>
      <trkpt lat="62.5999" lon="6.31378">
        <ele>59.014188</ele>
        <time>2020-08-01T10:44:23.590Z</time>
      </trkpt>
      <trkpt lat="62.59996" lon="6.31397">
        <ele>58.962464</ele>
        <time>2020-08-01T10:44:25.600Z</time>
      </trkpt>
      <trkpt lat="62.60001" lon="6.31414">
        <ele>58.914259</ele>
        <time>2020-08-01T10:44:27.604Z</time>
      </trkpt>
      <trkpt lat="62.60008" lon="6.31438">
        <ele>58.850714</ele>
        <time>2020-08-01T10:44:30.589Z</time>
      </trkpt>
      <trkpt lat="62.60014" lon="6.31459">
        <ele>58.792526</ele>
        <time>2020-08-01T10:44:33.599Z</time>
      </trkpt>
      <trkpt lat="62.6002" lon="6.3148">
        <ele>58.734844</ele>
        <time>2020-08-01T10:44:36.613Z</time>
      </trkpt>
      <trkpt lat="62.60026" lon="6.31501">
        <ele>58.678489</ele>
        <time>2020-08-01T10:44:39.631Z</time>
      </trkpt>
      <trkpt lat="62.60032" lon="6.3152">
        <ele>58.626122</ele>
        <time>2020-08-01T10:44:42.609Z</time>
      </trkpt>
      <trkpt lat="62.60039" lon="6.31537">
        <ele>58.574553</ele>
        <time>2020-08-01T10:44:45.613Z</time>
      </trkpt>
      <trkpt lat="62.60046" lon="6.31554">
        <ele>58.521892</ele>
        <time>2020-08-01T10:44:48.587Z</time>
      </trkpt>
      <trkpt lat="62.60053" lon="6.31571">
        <ele>58.472691</ele>
        <time>2020-08-01T10:44:51.595Z</time>
      </trkpt>
      <trkpt lat="62.60061" lon="6.31588">
        <ele>58.468875</ele>
        <time>2020-08-01T10:44:54.596Z</time>
      </trkpt>
      <trkpt lat="62.60069" lon="6.31605">
        <ele>58.464885</ele>
        <time>2020-08-01T10:44:57.626Z</time>
      </trkpt>
      <trkpt lat="62.60078" lon="6.31622">
        <ele>58.460693</ele>
        <time>2020-08-01T10:45:00.602Z</time>
      </trkpt>
      <trkpt lat="62.60087" lon="6.31642">
        <ele>58.456226</ele>
        <time>2020-08-01T10:45:03.613Z</time>
      </trkpt>
      <trkpt lat="62.60096" lon="6.3166">
        <ele>58.451913</ele>
        <time>2020-08-01T10:45:06.624Z</time>
      </trkpt>
      <trkpt lat="62.60105" lon="6.31677">
        <ele>58.447669</ele>
        <time>2020-08-01T10:45:09.607Z</time>
      </trkpt>
      <trkpt lat="62.60114" lon="6.31695">
        <ele>58.443352</ele>
        <time>2020-08-01T10:45:12.602Z</time>
      </trkpt>
      <trkpt lat="62.60123" lon="6.31713">
        <ele>58.439203</ele>
        <time>2020-08-01T10:45:15.606Z</time>
      </trkpt>
      <trkpt lat="62.60132" lon="6.3173">
        <ele>58.434996</ele>
        <time>2020-08-01T10:45:18.634Z</time>
      </trkpt>
      <trkpt lat="62.60141" lon="6.31745">
        <ele>58.431003</ele>
        <time>2020-08-01T10:45:21.624Z</time>
      </trkpt>
      <trkpt lat="62.6015" lon="6.31759">
        <ele>58.427085</ele>
        <time>2020-08-01T10:45:24.607Z</time>
      </trkpt>
      <trkpt lat="62.60159" lon="6.31772">
        <ele>58.423205</ele>
        <time>2020-08-01T10:45:27.610Z</time>
      </trkpt>
      <trkpt lat="62.60169" lon="6.31784">
        <ele>58.419397</ele>
        <time>2020-08-01T10:45:30.597Z</time>
      </trkpt>
      <trkpt lat="62.60178" lon="6.31796">
        <ele>58.415653</ele>
        <time>2020-08-01T10:45:33.609Z</time>
      </trkpt>
      <trkpt lat="62.60187" lon="6.31808">
        <ele>58.41184</ele>
        <time>2020-08-01T10:45:36.617Z</time>
      </trkpt>
      <trkpt lat="62.60197" lon="6.31822">
        <ele>58.523285</ele>
        <time>2020-08-01T10:45:39.623Z</time>
      </trkpt>
      <trkpt lat="62.60207" lon="6.31835">
        <ele>58.720032</ele>
        <time>2020-08-01T10:45:42.590Z</time>
      </trkpt>
      <trkpt lat="62.60216" lon="6.31849">
        <ele>58.918098</ele>
        <time>2020-08-01T10:45:45.620Z</time>
      </trkpt>
      <trkpt lat="62.60225" lon="6.3186">
        <ele>59.097078</ele>
        <time>2020-08-01T10:45:48.615Z</time>
      </trkpt>
      <trkpt lat="62.60234" lon="6.31871">
        <ele>59.273377</ele>
        <time>2020-08-01T10:45:51.601Z</time>
      </trkpt>
      <trkpt lat="62.60246" lon="6.31883">
        <ele>59.495792</ele>
        <time>2020-08-01T10:45:54.598Z</time>
      </trkpt>
      <trkpt lat="62.60254" lon="6.3189">
        <ele>59.65279</ele>
        <time>2020-08-01T10:45:56.601Z</time>
      </trkpt>
      <trkpt lat="62.60266" lon="6.31899">
        <ele>59.862753</ele>
        <time>2020-08-01T10:45:59.600Z</time>
      </trkpt>
      <trkpt lat="62.60274" lon="6.31905">
        <ele>60.018678</ele>
        <time>2020-08-01T10:46:01.604Z</time>
      </trkpt>
      <trkpt lat="62.60283" lon="6.31911">
        <ele>60.176888</ele>
        <time>2020-08-01T10:46:03.629Z</time>
      </trkpt>
      <trkpt lat="62.60294" lon="6.31922">
        <ele>60.394036</ele>
        <time>2020-08-01T10:46:06.610Z</time>
      </trkpt>
      <trkpt lat="62.60305" lon="6.31933">
        <ele>60.592139</ele>
        <time>2020-08-01T10:46:09.600Z</time>
      </trkpt>
      <trkpt lat="62.60315" lon="6.31944">
        <ele>60.791417</ele>
        <time>2020-08-01T10:46:12.620Z</time>
      </trkpt>
      <trkpt lat="62.60326" lon="6.31955">
        <ele>60.997129</ele>
        <time>2020-08-01T10:46:15.603Z</time>
      </trkpt>
      <trkpt lat="62.60337" lon="6.31967">
        <ele>61.213926</ele>
        <time>2020-08-01T10:46:18.613Z</time>
      </trkpt>
      <trkpt lat="62.60349" lon="6.31981">
        <ele>61.448475</ele>
        <time>2020-08-01T10:46:21.602Z</time>
      </trkpt>
      <trkpt lat="62.60356" lon="6.31991">
        <ele>61.483225</ele>
        <time>2020-08-01T10:46:23.611Z</time>
      </trkpt>
      <trkpt lat="62.60367" lon="6.32006">
        <ele>61.355921</ele>
        <time>2020-08-01T10:46:26.605Z</time>
      </trkpt>
      <trkpt lat="62.60378" lon="6.32021">
        <ele>61.227135</ele>
        <time>2020-08-01T10:46:29.586Z</time>
      </trkpt>
      <trkpt lat="62.60388" lon="6.32038">
        <ele>61.100944</ele>
        <time>2020-08-01T10:46:32.593Z</time>
      </trkpt>
      <trkpt lat="62.60398" lon="6.32052">
        <ele>60.986317</ele>
        <time>2020-08-01T10:46:35.623Z</time>
      </trkpt>
      <trkpt lat="62.60405" lon="6.32064">
        <ele>60.890398</ele>
        <time>2020-08-01T10:46:38.598Z</time>
      </trkpt>
      <trkpt lat="62.60413" lon="6.32074">
        <ele>60.798921</ele>
        <time>2020-08-01T10:46:41.644Z</time>
      </trkpt>
      <trkpt lat="62.60423" lon="6.32087">
        <ele>60.68588</ele>
        <time>2020-08-01T10:46:45.597Z</time>
      </trkpt>
      <trkpt lat="62.60434" lon="6.32098">
        <ele>60.565097</ele>
        <time>2020-08-01T10:46:49.599Z</time>
      </trkpt>
      <trkpt lat="62.60442" lon="6.32107">
        <ele>60.470054</ele>
        <time>2020-08-01T10:46:52.600Z</time>
      </trkpt>
      <trkpt lat="62.60451" lon="6.32118">
        <ele>60.367814</ele>
        <time>2020-08-01T10:46:55.631Z</time>
      </trkpt>
      <trkpt lat="62.6046" lon="6.3213">
        <ele>60.262494</ele>
        <time>2020-08-01T10:46:58.595Z</time>
      </trkpt>
      <trkpt lat="62.60469" lon="6.32142">
        <ele>60.158267</ele>
        <time>2020-08-01T10:47:01.592Z</time>
      </trkpt>
      <trkpt lat="62.60477" lon="6.32155">
        <ele>60.056058</ele>
        <time>2020-08-01T10:47:04.589Z</time>
      </trkpt>
      <trkpt lat="62.60486" lon="6.32167">
        <ele>59.95311</ele>
        <time>2020-08-01T10:47:07.605Z</time>
      </trkpt>
      <trkpt lat="62.60494" lon="6.3218">
        <ele>59.855303</ele>
        <time>2020-08-01T10:47:10.590Z</time>
      </trkpt>
      <trkpt lat="62.60502" lon="6.32192">
        <ele>59.756401</ele>
        <time>2020-08-01T10:47:13.589Z</time>
      </trkpt>
      <trkpt lat="62.6051" lon="6.32205">
        <ele>59.703233</ele>
        <time>2020-08-01T10:47:16.596Z</time>
      </trkpt>
      <trkpt lat="62.60519" lon="6.32219">
        <ele>59.670221</ele>
        <time>2020-08-01T10:47:19.631Z</time>
      </trkpt>
      <trkpt lat="62.60526" lon="6.32231">
        <ele>59.640272</ele>
        <time>2020-08-01T10:47:22.583Z</time>
      </trkpt>
      <trkpt lat="62.60534" lon="6.32243">
        <ele>59.609932</ele>
        <time>2020-08-01T10:47:25.618Z</time>
      </trkpt>
      <trkpt lat="62.60542" lon="6.32255">
        <ele>59.579241</ele>
        <time>2020-08-01T10:47:28.609Z</time>
      </trkpt>
      <trkpt lat="62.60551" lon="6.32269">
        <ele>59.544418</ele>
        <time>2020-08-01T10:47:31.601Z</time>
      </trkpt>
      <trkpt lat="62.60559" lon="6.32285">
        <ele>59.508498</ele>
        <time>2020-08-01T10:47:34.622Z</time>
      </trkpt>
      <trkpt lat="62.60567" lon="6.323">
        <ele>59.474232</ele>
        <time>2020-08-01T10:47:37.594Z</time>
      </trkpt>
      <trkpt lat="62.60575" lon="6.32318">
        <ele>59.437908</ele>
        <time>2020-08-01T10:47:40.620Z</time>
      </trkpt>
      <trkpt lat="62.60583" lon="6.32338">
        <ele>59.39937</ele>
        <time>2020-08-01T10:47:43.616Z</time>
      </trkpt>
      <trkpt lat="62.6059" lon="6.32359">
        <ele>59.362101</ele>
        <time>2020-08-01T10:47:46.605Z</time>
      </trkpt>
      <trkpt lat="62.60596" lon="6.3238">
        <ele>59.32485</ele>
        <time>2020-08-01T10:47:49.592Z</time>
      </trkpt>
      <trkpt lat="62.60602" lon="6.32401">
        <ele>59.288952</ele>
        <time>2020-08-01T10:47:52.606Z</time>
      </trkpt>
      <trkpt lat="62.60606" lon="6.32422">
        <ele>59.254645</ele>
        <time>2020-08-01T10:47:55.585Z</time>
      </trkpt>
      <trkpt lat="62.60611" lon="6.32443">
        <ele>59.220344</ele>
        <time>2020-08-01T10:47:58.584Z</time>
      </trkpt>
      <trkpt lat="62.60615" lon="6.32466">
        <ele>59.184244</ele>
        <time>2020-08-01T10:48:01.588Z</time>
      </trkpt>
      <trkpt lat="62.60618" lon="6.32487">
        <ele>59.152931</ele>
        <time>2020-08-01T10:48:04.619Z</time>
      </trkpt>
      <trkpt lat="62.60621" lon="6.3251">
        <ele>59.146675</ele>
        <time>2020-08-01T10:48:08.620Z</time>
      </trkpt>
      <trkpt lat="62.60623" lon="6.3253">
        <ele>59.141578</ele>
        <time>2020-08-01T10:48:11.591Z</time>
      </trkpt>
      <trkpt lat="62.60625" lon="6.32551">
        <ele>59.136208</ele>
        <time>2020-08-01T10:48:14.626Z</time>
      </trkpt>
      <trkpt lat="62.60628" lon="6.32572">
        <ele>59.130497</ele>
        <time>2020-08-01T10:48:17.620Z</time>
      </trkpt>
      <trkpt lat="62.60631" lon="6.32594">
        <ele>59.124827</ele>
        <time>2020-08-01T10:48:20.589Z</time>
      </trkpt>
      <trkpt lat="62.60633" lon="6.32616">
        <ele>59.118822</ele>
        <time>2020-08-01T10:48:23.610Z</time>
      </trkpt>
      <trkpt lat="62.60637" lon="6.32639">
        <ele>59.112794</ele>
        <time>2020-08-01T10:48:26.620Z</time>
      </trkpt>
      <trkpt lat="62.60641" lon="6.32661">
        <ele>59.106695</ele>
        <time>2020-08-01T10:48:29.619Z</time>
      </trkpt>
      <trkpt lat="62.60644" lon="6.32684">
        <ele>59.100674</ele>
        <time>2020-08-01T10:48:32.586Z</time>
      </trkpt>
      <trkpt lat="62.60648" lon="6.32708">
        <ele>59.094106</ele>
        <time>2020-08-01T10:48:35.605Z</time>
      </trkpt>
      <trkpt lat="62.60652" lon="6.32727">
        <ele>59.088855</ele>
        <time>2020-08-01T10:48:37.592Z</time>
      </trkpt>
      <trkpt lat="62.60657" lon="6.32747">
        <ele>59.083024</ele>
        <time>2020-08-01T10:48:39.590Z</time>
      </trkpt>
      <trkpt lat="62.60662" lon="6.32767">
        <ele>59.07708</ele>
        <time>2020-08-01T10:48:41.608Z</time>
      </trkpt>
      <trkpt lat="62.6067" lon="6.32786">
        <ele>59.070741</ele>
        <time>2020-08-01T10:48:43.590Z</time>
      </trkpt>
      <trkpt lat="62.60677" lon="6.32802">
        <ele>59.065016</ele>
        <time>2020-08-01T10:48:45.629Z</time>
      </trkpt>
      <trkpt lat="62.60684" lon="6.32815">
        <ele>59.05978</ele>
        <time>2020-08-01T10:48:47.603Z</time>
      </trkpt>
      <trkpt lat="62.60695" lon="6.32828">
        <ele>59.056511</ele>
        <time>2020-08-01T10:48:50.616Z</time>
      </trkpt>
      <trkpt lat="62.60705" lon="6.32837">
        <ele>59.130426</ele>
        <time>2020-08-01T10:48:53.599Z</time>
      </trkpt>
      <trkpt lat="62.60717" lon="6.32846">
        <ele>59.209739</ele>
        <time>2020-08-01T10:48:56.625Z</time>
      </trkpt>
      <trkpt lat="62.60728" lon="6.32852">
        <ele>59.283947</ele>
        <time>2020-08-01T10:48:59.622Z</time>
      </trkpt>
      <trkpt lat="62.6074" lon="6.3286">
        <ele>59.359678</ele>
        <time>2020-08-01T10:49:02.639Z</time>
      </trkpt>
      <trkpt lat="62.60751" lon="6.32867">
        <ele>59.438055</ele>
        <time>2020-08-01T10:49:05.586Z</time>
      </trkpt>
      <trkpt lat="62.60763" lon="6.32875">
        <ele>59.514484</ele>
        <time>2020-08-01T10:49:08.623Z</time>
      </trkpt>
      <trkpt lat="62.60774" lon="6.32882">
        <ele>59.590239</ele>
        <time>2020-08-01T10:49:11.587Z</time>
      </trkpt>
      <trkpt lat="62.60784" lon="6.3289">
        <ele>59.656481</ele>
        <time>2020-08-01T10:49:14.591Z</time>
      </trkpt>
      <trkpt lat="62.60794" lon="6.32898">
        <ele>59.723635</ele>
        <time>2020-08-01T10:49:17.587Z</time>
      </trkpt>
      <trkpt lat="62.60802" lon="6.32908">
        <ele>59.786434</ele>
        <time>2020-08-01T10:49:20.592Z</time>
      </trkpt>
      <trkpt lat="62.60811" lon="6.3292">
        <ele>59.852484</ele>
        <time>2020-08-01T10:49:23.618Z</time>
      </trkpt>
      <trkpt lat="62.60819" lon="6.32934">
        <ele>59.918445</ele>
        <time>2020-08-01T10:49:26.606Z</time>
      </trkpt>
      <trkpt lat="62.60827" lon="6.32949">
        <ele>59.985046</ele>
        <time>2020-08-01T10:49:29.606Z</time>
      </trkpt>
      <trkpt lat="62.60835" lon="6.32965">
        <ele>60.0545</ele>
        <time>2020-08-01T10:49:32.589Z</time>
      </trkpt>
      <trkpt lat="62.60843" lon="6.32982">
        <ele>60.127969</ele>
        <time>2020-08-01T10:49:35.588Z</time>
      </trkpt>
      <trkpt lat="62.60851" lon="6.32997">
        <ele>60.196503</ele>
        <time>2020-08-01T10:49:38.620Z</time>
      </trkpt>
      <trkpt lat="62.60859" lon="6.33011">
        <ele>60.168647</ele>
        <time>2020-08-01T10:49:41.600Z</time>
      </trkpt>
      <trkpt lat="62.60866" lon="6.33025">
        <ele>60.131837</ele>
        <time>2020-08-01T10:49:44.597Z</time>
      </trkpt>
      <trkpt lat="62.60872" lon="6.33041">
        <ele>60.091543</ele>
        <time>2020-08-01T10:49:47.608Z</time>
      </trkpt>
      <trkpt lat="62.6088" lon="6.3306">
        <ele>60.045066</ele>
        <time>2020-08-01T10:49:50.586Z</time>
      </trkpt>
      <trkpt lat="62.60887" lon="6.33081">
        <ele>59.994227</ele>
        <time>2020-08-01T10:49:53.595Z</time>
      </trkpt>
      <trkpt lat="62.60895" lon="6.33104">
        <ele>59.941812</ele>
        <time>2020-08-01T10:49:56.628Z</time>
      </trkpt>
      <trkpt lat="62.60902" lon="6.33125">
        <ele>59.892748</ele>
        <time>2020-08-01T10:49:59.586Z</time>
      </trkpt>
      <trkpt lat="62.6091" lon="6.33144">
        <ele>59.845419</ele>
        <time>2020-08-01T10:50:02.600Z</time>
      </trkpt>
      <trkpt lat="62.60918" lon="6.33164">
        <ele>59.797021</ele>
        <time>2020-08-01T10:50:05.594Z</time>
      </trkpt>
      <trkpt lat="62.60925" lon="6.33184">
        <ele>59.748317</ele>
        <time>2020-08-01T10:50:08.607Z</time>
      </trkpt>
      <trkpt lat="62.60933" lon="6.33203">
        <ele>59.699943</ele>
        <time>2020-08-01T10:50:11.592Z</time>
      </trkpt>
      <trkpt lat="62.60941" lon="6.33222">
        <ele>59.651983</ele>
        <time>2020-08-01T10:50:14.609Z</time>
      </trkpt>
      <trkpt lat="62.60949" lon="6.33241">
        <ele>59.606352</ele>
        <time>2020-08-01T10:50:17.621Z</time>
      </trkpt>
      <trkpt lat="62.60956" lon="6.33258">
        <ele>59.562218</ele>
        <time>2020-08-01T10:50:20.613Z</time>
      </trkpt>
      <trkpt lat="62.60963" lon="6.33275">
        <ele>59.519054</ele>
        <time>2020-08-01T10:50:23.606Z</time>
      </trkpt>
      <trkpt lat="62.60971" lon="6.33295">
        <ele>59.476778</ele>
        <time>2020-08-01T10:50:26.587Z</time>
      </trkpt>
      <trkpt lat="62.60979" lon="6.33314">
        <ele>59.492978</ele>
        <time>2020-08-01T10:50:29.600Z</time>
      </trkpt>
      <trkpt lat="62.60987" lon="6.33333">
        <ele>59.509272</ele>
        <time>2020-08-01T10:50:32.607Z</time>
      </trkpt>
      <trkpt lat="62.60996" lon="6.33351">
        <ele>59.525094</ele>
        <time>2020-08-01T10:50:35.610Z</time>
      </trkpt>
      <trkpt lat="62.61004" lon="6.33367">
        <ele>59.540248</ele>
        <time>2020-08-01T10:50:38.587Z</time>
      </trkpt>
      <trkpt lat="62.61013" lon="6.33383">
        <ele>59.555733</ele>
        <time>2020-08-01T10:50:41.602Z</time>
      </trkpt>
      <trkpt lat="62.61022" lon="6.33396">
        <ele>59.570833</ele>
        <time>2020-08-01T10:50:44.614Z</time>
      </trkpt>
      <trkpt lat="62.61032" lon="6.3341">
        <ele>59.586039</ele>
        <time>2020-08-01T10:50:47.594Z</time>
      </trkpt>
      <trkpt lat="62.61042" lon="6.33424">
        <ele>59.602367</ele>
        <time>2020-08-01T10:50:50.584Z</time>
      </trkpt>
      <trkpt lat="62.61053" lon="6.33438">
        <ele>59.618943</ele>
        <time>2020-08-01T10:50:53.607Z</time>
      </trkpt>
      <trkpt lat="62.61063" lon="6.33452">
        <ele>59.635909</ele>
        <time>2020-08-01T10:50:56.601Z</time>
      </trkpt>
      <trkpt lat="62.61074" lon="6.33468">
        <ele>59.652818</ele>
        <time>2020-08-01T10:50:59.593Z</time>
      </trkpt>
      <trkpt lat="62.61084" lon="6.33486">
        <ele>59.670023</ele>
        <time>2020-08-01T10:51:02.608Z</time>
      </trkpt>
      <trkpt lat="62.61092" lon="6.33507">
        <ele>59.687096</ele>
        <time>2020-08-01T10:51:05.579Z</time>
      </trkpt>
      <trkpt lat="62.61099" lon="6.33528">
        <ele>59.703561</ele>
        <time>2020-08-01T10:51:08.603Z</time>
      </trkpt>
      <trkpt lat="62.61104" lon="6.3355">
        <ele>59.721014</ele>
        <time>2020-08-01T10:51:11.586Z</time>
      </trkpt>
      <trkpt lat="62.61107" lon="6.33572">
        <ele>59.774811</ele>
        <time>2020-08-01T10:51:14.590Z</time>
      </trkpt>
      <trkpt lat="62.61109" lon="6.33591">
        <ele>59.821227</ele>
        <time>2020-08-01T10:51:17.588Z</time>
      </trkpt>
      <trkpt lat="62.61111" lon="6.33615">
        <ele>59.881082</ele>
        <time>2020-08-01T10:51:21.601Z</time>
      </trkpt>
      <trkpt lat="62.61112" lon="6.33639">
        <ele>59.937418</ele>
        <time>2020-08-01T10:51:25.625Z</time>
      </trkpt>
      <trkpt lat="62.61114" lon="6.3366">
        <ele>59.988718</ele>
        <time>2020-08-01T10:51:29.628Z</time>
      </trkpt>
      <trkpt lat="62.61115" lon="6.33687">
        <ele>60.052931</ele>
        <time>2020-08-01T10:51:33.598Z</time>
      </trkpt>
      <trkpt lat="62.61115" lon="6.33707">
        <ele>60.101021</ele>
        <time>2020-08-01T10:51:35.613Z</time>
      </trkpt>
      <trkpt lat="62.61114" lon="6.33731">
        <ele>60.159067</ele>
        <time>2020-08-01T10:51:37.580Z</time>
      </trkpt>
      <trkpt lat="62.61111" lon="6.33755">
        <ele>60.218244</ele>
        <time>2020-08-01T10:51:39.609Z</time>
      </trkpt>
      <trkpt lat="62.61107" lon="6.33778">
        <ele>60.276825</ele>
        <time>2020-08-01T10:51:41.592Z</time>
      </trkpt>
      <trkpt lat="62.61102" lon="6.338">
        <ele>60.333505</ele>
        <time>2020-08-01T10:51:43.582Z</time>
      </trkpt>
      <trkpt lat="62.61097" lon="6.33819">
        <ele>60.385155</ele>
        <time>2020-08-01T10:51:45.606Z</time>
      </trkpt>
      <trkpt lat="62.61092" lon="6.33835">
        <ele>60.432967</ele>
        <time>2020-08-01T10:51:47.619Z</time>
      </trkpt>
      <trkpt lat="62.61085" lon="6.33859">
        <ele>60.499339</ele>
        <time>2020-08-01T10:51:50.587Z</time>
      </trkpt>
      <trkpt lat="62.61079" lon="6.33881">
        <ele>60.561914</ele>
        <time>2020-08-01T10:51:53.589Z</time>
      </trkpt>
      <trkpt lat="62.61073" lon="6.33903">
        <ele>60.622025</ele>
        <time>2020-08-01T10:51:56.595Z</time>
      </trkpt>
      <trkpt lat="62.61066" lon="6.33926">
        <ele>60.593711</ele>
        <time>2020-08-01T10:51:59.611Z</time>
      </trkpt>
      <trkpt lat="62.61059" lon="6.33949">
        <ele>60.496943</ele>
        <time>2020-08-01T10:52:02.625Z</time>
      </trkpt>
      <trkpt lat="62.61052" lon="6.33973">
        <ele>60.400072</ele>
        <time>2020-08-01T10:52:05.600Z</time>
      </trkpt>
      <trkpt lat="62.61046" lon="6.33997">
        <ele>60.305698</ele>
        <time>2020-08-01T10:52:08.609Z</time>
      </trkpt>
      <trkpt lat="62.6104" lon="6.34021">
        <ele>60.214688</ele>
        <time>2020-08-01T10:52:11.616Z</time>
      </trkpt>
      <trkpt lat="62.61034" lon="6.34044">
        <ele>60.123422</ele>
        <time>2020-08-01T10:52:14.593Z</time>
      </trkpt>
      <trkpt lat="62.61029" lon="6.3407">
        <ele>60.028242</ele>
        <time>2020-08-01T10:52:17.617Z</time>
      </trkpt>
      <trkpt lat="62.61023" lon="6.34096">
        <ele>59.929029</ele>
        <time>2020-08-01T10:52:20.626Z</time>
      </trkpt>
      <trkpt lat="62.61018" lon="6.34123">
        <ele>59.830053</ele>
        <time>2020-08-01T10:52:23.580Z</time>
      </trkpt>
      <trkpt lat="62.61013" lon="6.34149">
        <ele>59.731991</ele>
        <time>2020-08-01T10:52:26.590Z</time>
      </trkpt>
      <trkpt lat="62.61008" lon="6.34177">
        <ele>59.63257</ele>
        <time>2020-08-01T10:52:29.595Z</time>
      </trkpt>
      <trkpt lat="62.61005" lon="6.34195">
        <ele>59.565174</ele>
        <time>2020-08-01T10:52:31.607Z</time>
      </trkpt>
      <trkpt lat="62.61" lon="6.34222">
        <ele>59.467427</ele>
        <time>2020-08-01T10:52:34.602Z</time>
      </trkpt>
      <trkpt lat="62.60995" lon="6.34246">
        <ele>59.37563</ele>
        <time>2020-08-01T10:52:37.601Z</time>
      </trkpt>
      <trkpt lat="62.6099" lon="6.3427">
        <ele>59.353693</ele>
        <time>2020-08-01T10:52:40.625Z</time>
      </trkpt>
      <trkpt lat="62.60986" lon="6.34291">
        <ele>59.480724</ele>
        <time>2020-08-01T10:52:43.639Z</time>
      </trkpt>
      <trkpt lat="62.60981" lon="6.34312">
        <ele>59.60337</ele>
        <time>2020-08-01T10:52:46.582Z</time>
      </trkpt>
      <trkpt lat="62.60976" lon="6.34333">
        <ele>59.730655</ele>
        <time>2020-08-01T10:52:49.610Z</time>
      </trkpt>
      <trkpt lat="62.60971" lon="6.34354">
        <ele>59.862438</ele>
        <time>2020-08-01T10:52:52.581Z</time>
      </trkpt>
      <trkpt lat="62.60965" lon="6.34375">
        <ele>59.992274</ele>
        <time>2020-08-01T10:52:55.617Z</time>
      </trkpt>
      <trkpt lat="62.60958" lon="6.34396">
        <ele>60.128736</ele>
        <time>2020-08-01T10:52:58.618Z</time>
      </trkpt>
      <trkpt lat="62.60951" lon="6.34417">
        <ele>60.269388</ele>
        <time>2020-08-01T10:53:01.619Z</time>
      </trkpt>
      <trkpt lat="62.60943" lon="6.34439">
        <ele>60.419192</ele>
        <time>2020-08-01T10:53:04.617Z</time>
      </trkpt>
      <trkpt lat="62.60934" lon="6.34458">
        <ele>60.563185</ele>
        <time>2020-08-01T10:53:07.598Z</time>
      </trkpt>
      <trkpt lat="62.60924" lon="6.34472">
        <ele>60.707893</ele>
        <time>2020-08-01T10:53:10.604Z</time>
      </trkpt>
      <trkpt lat="62.60912" lon="6.34483">
        <ele>60.852127</ele>
        <time>2020-08-01T10:53:13.580Z</time>
      </trkpt>
      <trkpt lat="62.60902" lon="6.34491">
        <ele>60.977859</ele>
        <time>2020-08-01T10:53:16.586Z</time>
      </trkpt>
      <trkpt lat="62.60892" lon="6.345">
        <ele>61.108517</ele>
        <time>2020-08-01T10:53:19.599Z</time>
      </trkpt>
      <trkpt lat="62.60882" lon="6.34511">
        <ele>61.240165</ele>
        <time>2020-08-01T10:53:22.582Z</time>
      </trkpt>
      <trkpt lat="62.60871" lon="6.34517">
        <ele>61.362972</ele>
        <time>2020-08-01T10:53:25.589Z</time>
      </trkpt>
      <trkpt lat="62.60863" lon="6.34527">
        <ele>61.360897</ele>
        <time>2020-08-01T10:53:28.593Z</time>
      </trkpt>
      <trkpt lat="62.60852" lon="6.34538">
        <ele>61.270415</ele>
        <time>2020-08-01T10:53:31.618Z</time>
      </trkpt>
      <trkpt lat="62.60843" lon="6.34552">
        <ele>61.178537</ele>
        <time>2020-08-01T10:53:34.594Z</time>
      </trkpt>
      <trkpt lat="62.60833" lon="6.34566">
        <ele>61.08706</ele>
        <time>2020-08-01T10:53:37.615Z</time>
      </trkpt>
      <trkpt lat="62.60825" lon="6.34582">
        <ele>60.999902</ele>
        <time>2020-08-01T10:53:40.586Z</time>
      </trkpt>
      <trkpt lat="62.60818" lon="6.34599">
        <ele>60.919841</ele>
        <time>2020-08-01T10:53:43.605Z</time>
      </trkpt>
      <trkpt lat="62.60811" lon="6.34619">
        <ele>60.832672</ele>
        <time>2020-08-01T10:53:46.611Z</time>
      </trkpt>
      <trkpt lat="62.60807" lon="6.3464">
        <ele>60.745624</ele>
        <time>2020-08-01T10:53:49.591Z</time>
      </trkpt>
      <trkpt lat="62.60802" lon="6.34664">
        <ele>60.654162</ele>
        <time>2020-08-01T10:53:52.590Z</time>
      </trkpt>
      <trkpt lat="62.60797" lon="6.34688">
        <ele>60.558914</ele>
        <time>2020-08-01T10:53:55.589Z</time>
      </trkpt>
      <trkpt lat="62.60791" lon="6.34711">
        <ele>60.461137</ele>
        <time>2020-08-01T10:53:58.599Z</time>
      </trkpt>
      <trkpt lat="62.60784" lon="6.34734">
        <ele>60.359692</ele>
        <time>2020-08-01T10:54:01.601Z</time>
      </trkpt>
      <trkpt lat="62.60776" lon="6.34755">
        <ele>60.262201</ele>
        <time>2020-08-01T10:54:04.598Z</time>
      </trkpt>
      <trkpt lat="62.60768" lon="6.34774">
        <ele>60.169366</ele>
        <time>2020-08-01T10:54:07.610Z</time>
      </trkpt>
      <trkpt lat="62.6076" lon="6.34793">
        <ele>60.077056</ele>
        <time>2020-08-01T10:54:10.589Z</time>
      </trkpt>
      <trkpt lat="62.60752" lon="6.34811">
        <ele>59.993653</ele>
        <time>2020-08-01T10:54:13.584Z</time>
      </trkpt>
      <trkpt lat="62.60744" lon="6.34831">
        <ele>59.977168</ele>
        <time>2020-08-01T10:54:16.606Z</time>
      </trkpt>
      <trkpt lat="62.60736" lon="6.34851">
        <ele>59.960586</ele>
        <time>2020-08-01T10:54:19.634Z</time>
      </trkpt>
      <trkpt lat="62.60729" lon="6.34872">
        <ele>59.944507</ele>
        <time>2020-08-01T10:54:22.605Z</time>
      </trkpt>
      <trkpt lat="62.60722" lon="6.34892">
        <ele>59.928376</ele>
        <time>2020-08-01T10:54:25.621Z</time>
      </trkpt>
      <trkpt lat="62.60716" lon="6.34912">
        <ele>59.913055</ele>
        <time>2020-08-01T10:54:28.629Z</time>
      </trkpt>
      <trkpt lat="62.6071" lon="6.34933">
        <ele>59.898021</ele>
        <time>2020-08-01T10:54:31.635Z</time>
      </trkpt>
      <trkpt lat="62.60705" lon="6.34955">
        <ele>59.882711</ele>
        <time>2020-08-01T10:54:34.602Z</time>
      </trkpt>
      <trkpt lat="62.60701" lon="6.34977">
        <ele>59.8674</ele>
        <time>2020-08-01T10:54:37.591Z</time>
      </trkpt>
      <trkpt lat="62.60698" lon="6.35">
        <ele>59.852105</ele>
        <time>2020-08-01T10:54:40.601Z</time>
      </trkpt>
      <trkpt lat="62.60694" lon="6.35024">
        <ele>59.836589</ele>
        <time>2020-08-01T10:54:43.619Z</time>
      </trkpt>
      <trkpt lat="62.60691" lon="6.35048">
        <ele>59.820688</ele>
        <time>2020-08-01T10:54:46.602Z</time>
      </trkpt>
      <trkpt lat="62.60689" lon="6.35074">
        <ele>59.803594</ele>
        <time>2020-08-01T10:54:49.584Z</time>
      </trkpt>
      <trkpt lat="62.60687" lon="6.351">
        <ele>59.787033</ele>
        <time>2020-08-01T10:54:52.621Z</time>
      </trkpt>
      <trkpt lat="62.60686" lon="6.35125">
        <ele>59.771442</ele>
        <time>2020-08-01T10:54:55.589Z</time>
      </trkpt>
      <trkpt lat="62.60687" lon="6.35148">
        <ele>59.757095</ele>
        <time>2020-08-01T10:54:58.608Z</time>
      </trkpt>
      <trkpt lat="62.60689" lon="6.3517">
        <ele>59.80086</ele>
        <time>2020-08-01T10:55:01.588Z</time>
      </trkpt>
      <trkpt lat="62.60691" lon="6.35193">
        <ele>59.935526</ele>
        <time>2020-08-01T10:55:04.604Z</time>
      </trkpt>
      <trkpt lat="62.60694" lon="6.3522">
        <ele>60.090876</ele>
        <time>2020-08-01T10:55:07.588Z</time>
      </trkpt>
      <trkpt lat="62.60696" lon="6.35239">
        <ele>60.201594</ele>
        <time>2020-08-01T10:55:09.586Z</time>
      </trkpt>
      <trkpt lat="62.60698" lon="6.35258">
        <ele>60.314466</ele>
        <time>2020-08-01T10:55:11.621Z</time>
      </trkpt>
      <trkpt lat="62.607" lon="6.35287">
        <ele>60.478383</ele>
        <time>2020-08-01T10:55:14.598Z</time>
      </trkpt>
      <trkpt lat="62.60703" lon="6.35314">
        <ele>60.637996</ele>
        <time>2020-08-01T10:55:17.599Z</time>
      </trkpt>
      <trkpt lat="62.60704" lon="6.35342">
        <ele>60.793685</ele>
        <time>2020-08-01T10:55:20.619Z</time>
      </trkpt>
      <trkpt lat="62.60705" lon="6.35367">
        <ele>60.937141</ele>
        <time>2020-08-01T10:55:23.612Z</time>
      </trkpt>
      <trkpt lat="62.60705" lon="6.35392">
        <ele>61.079295</ele>
        <time>2020-08-01T10:55:26.617Z</time>
      </trkpt>
      <trkpt lat="62.60704" lon="6.35417">
        <ele>61.221204</ele>
        <time>2020-08-01T10:55:29.611Z</time>
      </trkpt>
      <trkpt lat="62.60703" lon="6.35441">
        <ele>61.357217</ele>
        <time>2020-08-01T10:55:32.607Z</time>
      </trkpt>
      <trkpt lat="62.60703" lon="6.35466">
        <ele>61.497107</ele>
        <time>2020-08-01T10:55:35.596Z</time>
      </trkpt>
      <trkpt lat="62.60702" lon="6.35491">
        <ele>61.643899</ele>
        <time>2020-08-01T10:55:38.618Z</time>
      </trkpt>
      <trkpt lat="62.60702" lon="6.35517">
        <ele>61.790126</ele>
        <time>2020-08-01T10:55:41.615Z</time>
      </trkpt>
      <trkpt lat="62.60701" lon="6.35542">
        <ele>61.928317</ele>
        <time>2020-08-01T10:55:44.596Z</time>
      </trkpt>
      <trkpt lat="62.60701" lon="6.35566">
        <ele>62.039991</ele>
        <time>2020-08-01T10:55:47.601Z</time>
      </trkpt>
      <trkpt lat="62.60701" lon="6.35586">
        <ele>62.126434</ele>
        <time>2020-08-01T10:55:50.590Z</time>
      </trkpt>
      <trkpt lat="62.60701" lon="6.35609">
        <ele>62.228652</ele>
        <time>2020-08-01T10:55:54.598Z</time>
      </trkpt>
      <trkpt lat="62.60701" lon="6.35634">
        <ele>62.333927</ele>
        <time>2020-08-01T10:55:58.591Z</time>
      </trkpt>
      <trkpt lat="62.607" lon="6.35654">
        <ele>62.420512</ele>
        <time>2020-08-01T10:56:01.589Z</time>
      </trkpt>
      <trkpt lat="62.60699" lon="6.35676">
        <ele>62.516919</ele>
        <time>2020-08-01T10:56:04.602Z</time>
      </trkpt>
      <trkpt lat="62.60697" lon="6.35697">
        <ele>62.610257</ele>
        <time>2020-08-01T10:56:07.588Z</time>
      </trkpt>
      <trkpt lat="62.60694" lon="6.35718">
        <ele>62.702347</ele>
        <time>2020-08-01T10:56:10.579Z</time>
      </trkpt>
      <trkpt lat="62.60691" lon="6.35737">
        <ele>62.791275</ele>
        <time>2020-08-01T10:56:13.599Z</time>
      </trkpt>
      <trkpt lat="62.60687" lon="6.35756">
        <ele>62.881055</ele>
        <time>2020-08-01T10:56:16.620Z</time>
      </trkpt>
      <trkpt lat="62.60683" lon="6.35775">
        <ele>62.970014</ele>
        <time>2020-08-01T10:56:19.647Z</time>
      </trkpt>
      <trkpt lat="62.6068" lon="6.35795">
        <ele>63.061351</ele>
        <time>2020-08-01T10:56:22.585Z</time>
      </trkpt>
      <trkpt lat="62.60676" lon="6.35815">
        <ele>63.153238</ele>
        <time>2020-08-01T10:56:25.584Z</time>
      </trkpt>
      <trkpt lat="62.60673" lon="6.35836">
        <ele>63.24877</ele>
        <time>2020-08-01T10:56:28.593Z</time>
      </trkpt>
      <trkpt lat="62.6067" lon="6.35857">
        <ele>63.345535</ele>
        <time>2020-08-01T10:56:31.618Z</time>
      </trkpt>
      <trkpt lat="62.60667" lon="6.35881">
        <ele>63.453985</ele>
        <time>2020-08-01T10:56:35.596Z</time>
      </trkpt>
      <trkpt lat="62.60663" lon="6.35904">
        <ele>63.558091</ele>
        <time>2020-08-01T10:56:39.607Z</time>
      </trkpt>
      <trkpt lat="62.60659" lon="6.35926">
        <ele>63.631644</ele>
        <time>2020-08-01T10:56:43.586Z</time>
      </trkpt>
      <trkpt lat="62.60655" lon="6.3595">
        <ele>63.441034</ele>
        <time>2020-08-01T10:56:47.588Z</time>
      </trkpt>
      <trkpt lat="62.60652" lon="6.35968">
        <ele>63.291005</ele>
        <time>2020-08-01T10:56:50.603Z</time>
      </trkpt>
      <trkpt lat="62.60647" lon="6.35989">
        <ele>63.117199</ele>
        <time>2020-08-01T10:56:53.615Z</time>
      </trkpt>
      <trkpt lat="62.60642" lon="6.36013">
        <ele>62.925038</ele>
        <time>2020-08-01T10:56:56.598Z</time>
      </trkpt>
      <trkpt lat="62.60637" lon="6.36035">
        <ele>62.734781</ele>
        <time>2020-08-01T10:56:59.598Z</time>
      </trkpt>
      <trkpt lat="62.60632" lon="6.36059">
        <ele>62.537696</ele>
        <time>2020-08-01T10:57:02.601Z</time>
      </trkpt>
      <trkpt lat="62.60625" lon="6.36081">
        <ele>62.339699</ele>
        <time>2020-08-01T10:57:05.616Z</time>
      </trkpt>
      <trkpt lat="62.60618" lon="6.36102">
        <ele>62.142668</ele>
        <time>2020-08-01T10:57:08.573Z</time>
      </trkpt>
      <trkpt lat="62.6061" lon="6.36121">
        <ele>61.95168</ele>
        <time>2020-08-01T10:57:11.591Z</time>
      </trkpt>
      <trkpt lat="62.60602" lon="6.36139">
        <ele>61.767335</ele>
        <time>2020-08-01T10:57:14.624Z</time>
      </trkpt>
      <trkpt lat="62.60594" lon="6.36157">
        <ele>61.572452</ele>
        <time>2020-08-01T10:57:17.580Z</time>
      </trkpt>
      <trkpt lat="62.60585" lon="6.36177">
        <ele>61.368722</ele>
        <time>2020-08-01T10:57:20.595Z</time>
      </trkpt>
      <trkpt lat="62.60577" lon="6.36198">
        <ele>61.156676</ele>
        <time>2020-08-01T10:57:23.599Z</time>
      </trkpt>
      <trkpt lat="62.60568" lon="6.3622">
        <ele>60.94406</ele>
        <time>2020-08-01T10:57:26.667Z</time>
      </trkpt>
      <trkpt lat="62.6056" lon="6.36241">
        <ele>60.730875</ele>
        <time>2020-08-01T10:57:29.584Z</time>
      </trkpt>
      <trkpt lat="62.60551" lon="6.36263">
        <ele>60.799649</ele>
        <time>2020-08-01T10:57:32.628Z</time>
      </trkpt>
      <trkpt lat="62.60543" lon="6.36283">
        <ele>60.886386</ele>
        <time>2020-08-01T10:57:35.620Z</time>
      </trkpt>
      <trkpt lat="62.60534" lon="6.36305">
        <ele>60.976356</ele>
        <time>2020-08-01T10:57:38.605Z</time>
      </trkpt>
      <trkpt lat="62.60525" lon="6.36326">
        <ele>61.06492</ele>
        <time>2020-08-01T10:57:41.629Z</time>
      </trkpt>
      <trkpt lat="62.60516" lon="6.36346">
        <ele>61.150524</ele>
        <time>2020-08-01T10:57:44.604Z</time>
      </trkpt>
      <trkpt lat="62.60508" lon="6.36365">
        <ele>61.235905</ele>
        <time>2020-08-01T10:57:47.595Z</time>
      </trkpt>
      <trkpt lat="62.605" lon="6.36386">
        <ele>61.320193</ele>
        <time>2020-08-01T10:57:50.623Z</time>
      </trkpt>
      <trkpt lat="62.60493" lon="6.36406">
        <ele>61.399002</ele>
        <time>2020-08-01T10:57:53.600Z</time>
      </trkpt>
      <trkpt lat="62.60488" lon="6.36426">
        <ele>61.471</ele>
        <time>2020-08-01T10:57:56.595Z</time>
      </trkpt>
      <trkpt lat="62.60484" lon="6.36448">
        <ele>61.543069</ele>
        <time>2020-08-01T10:58:00.597Z</time>
      </trkpt>
      <trkpt lat="62.60482" lon="6.3647">
        <ele>61.612711</ele>
        <time>2020-08-01T10:58:04.583Z</time>
      </trkpt>
      <trkpt lat="62.60479" lon="6.36494">
        <ele>61.691365</ele>
        <time>2020-08-01T10:58:08.617Z</time>
      </trkpt>
      <trkpt lat="62.60477" lon="6.36514">
        <ele>61.754143</ele>
        <time>2020-08-01T10:58:11.617Z</time>
      </trkpt>
      <trkpt lat="62.60476" lon="6.36534">
        <ele>61.819245</ele>
        <time>2020-08-01T10:58:14.625Z</time>
      </trkpt>
      <trkpt lat="62.60473" lon="6.36553">
        <ele>61.882387</ele>
        <time>2020-08-01T10:58:17.595Z</time>
      </trkpt>
      <trkpt lat="62.6047" lon="6.36577">
        <ele>61.987022</ele>
        <time>2020-08-01T10:58:21.605Z</time>
      </trkpt>
      <trkpt lat="62.60465" lon="6.366">
        <ele>62.165534</ele>
        <time>2020-08-01T10:58:25.594Z</time>
      </trkpt>
      <trkpt lat="62.6046" lon="6.3662">
        <ele>62.327916</ele>
        <time>2020-08-01T10:58:29.621Z</time>
      </trkpt>
      <trkpt lat="62.60456" lon="6.36639">
        <ele>62.473336</ele>
        <time>2020-08-01T10:58:33.610Z</time>
      </trkpt>
      <trkpt lat="62.60452" lon="6.36656">
        <ele>62.612581</ele>
        <time>2020-08-01T10:58:37.624Z</time>
      </trkpt>
      <trkpt lat="62.60447" lon="6.36676">
        <ele>62.774489</ele>
        <time>2020-08-01T10:58:42.615Z</time>
      </trkpt>
      <trkpt lat="62.60443" lon="6.36696">
        <ele>62.932903</ele>
        <time>2020-08-01T10:58:47.629Z</time>
      </trkpt>
      <trkpt lat="62.60439" lon="6.36718">
        <ele>63.098455</ele>
        <time>2020-08-01T10:58:52.595Z</time>
      </trkpt>
      <trkpt lat="62.60436" lon="6.36737">
        <ele>63.245571</ele>
        <time>2020-08-01T10:58:57.616Z</time>
      </trkpt>
      <trkpt lat="62.60434" lon="6.3676">
        <ele>63.410723</ele>
        <time>2020-08-01T10:59:02.604Z</time>
      </trkpt>
      <trkpt lat="62.60432" lon="6.3678">
        <ele>63.5574</ele>
        <time>2020-08-01T10:59:06.618Z</time>
      </trkpt>
      <trkpt lat="62.60431" lon="6.36803">
        <ele>63.719439</ele>
        <time>2020-08-01T10:59:10.576Z</time>
      </trkpt>
      <trkpt lat="62.6043" lon="6.36824">
        <ele>63.874905</ele>
        <time>2020-08-01T10:59:14.589Z</time>
      </trkpt>
      <trkpt lat="62.60428" lon="6.36846">
        <ele>64.03406</ele>
        <time>2020-08-01T10:59:18.585Z</time>
      </trkpt>
      <trkpt lat="62.60426" lon="6.36869">
        <ele>64.203374</ele>
        <time>2020-08-01T10:59:22.585Z</time>
      </trkpt>
      <trkpt lat="62.60422" lon="6.36891">
        <ele>64.369952</ele>
        <time>2020-08-01T10:59:26.641Z</time>
      </trkpt>
      <trkpt lat="62.60419" lon="6.36915">
        <ele>64.545759</ele>
        <time>2020-08-01T10:59:30.596Z</time>
      </trkpt>
      <trkpt lat="62.60417" lon="6.36939">
        <ele>64.723079</ele>
        <time>2020-08-01T10:59:34.628Z</time>
      </trkpt>
      <trkpt lat="62.60417" lon="6.36965">
        <ele>64.775997</ele>
        <time>2020-08-01T10:59:38.618Z</time>
      </trkpt>
      <trkpt lat="62.60418" lon="6.36985">
        <ele>64.810465</ele>
        <time>2020-08-01T10:59:41.585Z</time>
      </trkpt>
      <trkpt lat="62.6042" lon="6.3701">
        <ele>64.854868</ele>
        <time>2020-08-01T10:59:45.609Z</time>
      </trkpt>
      <trkpt lat="62.60422" lon="6.3703">
        <ele>64.889721</ele>
        <time>2020-08-01T10:59:48.613Z</time>
      </trkpt>
      <trkpt lat="62.60424" lon="6.37051">
        <ele>64.926936</ele>
        <time>2020-08-01T10:59:51.622Z</time>
      </trkpt>
      <trkpt lat="62.60426" lon="6.37074">
        <ele>64.966271</ele>
        <time>2020-08-01T10:59:54.592Z</time>
      </trkpt>
      <trkpt lat="62.60425" lon="6.37097">
        <ele>65.005895</ele>
        <time>2020-08-01T10:59:57.617Z</time>
      </trkpt>
      <trkpt lat="62.60425" lon="6.3712">
        <ele>65.045238</ele>
        <time>2020-08-01T11:00:00.614Z</time>
      </trkpt>
      <trkpt lat="62.60424" lon="6.37142">
        <ele>65.08384</ele>
        <time>2020-08-01T11:00:03.588Z</time>
      </trkpt>
      <trkpt lat="62.60423" lon="6.37163">
        <ele>65.119796</ele>
        <time>2020-08-01T11:00:06.589Z</time>
      </trkpt>
      <trkpt lat="62.60422" lon="6.37186">
        <ele>65.158569</ele>
        <time>2020-08-01T11:00:09.601Z</time>
      </trkpt>
      <trkpt lat="62.60421" lon="6.37207">
        <ele>65.195797</ele>
        <time>2020-08-01T11:00:12.617Z</time>
      </trkpt>
      <trkpt lat="62.60421" lon="6.37231">
        <ele>65.236622</ele>
        <time>2020-08-01T11:00:15.582Z</time>
      </trkpt>
      <trkpt lat="62.60422" lon="6.37254">
        <ele>65.275737</ele>
        <time>2020-08-01T11:00:18.601Z</time>
      </trkpt>
      <trkpt lat="62.60422" lon="6.37276">
        <ele>65.313932</ele>
        <time>2020-08-01T11:00:21.600Z</time>
      </trkpt>
      <trkpt lat="62.60423" lon="6.37298">
        <ele>65.352158</ele>
        <time>2020-08-01T11:00:24.607Z</time>
      </trkpt>
      <trkpt lat="62.60424" lon="6.37321">
        <ele>65.39148</ele>
        <time>2020-08-01T11:00:27.594Z</time>
      </trkpt>
      <trkpt lat="62.60425" lon="6.37344">
        <ele>65.418786</ele>
        <time>2020-08-01T11:00:30.600Z</time>
      </trkpt>
      <trkpt lat="62.60426" lon="6.37365">
        <ele>65.438832</ele>
        <time>2020-08-01T11:00:33.622Z</time>
      </trkpt>
      <trkpt lat="62.60426" lon="6.37388">
        <ele>65.459644</ele>
        <time>2020-08-01T11:00:36.603Z</time>
      </trkpt>
      <trkpt lat="62.60427" lon="6.3741">
        <ele>65.479917</ele>
        <time>2020-08-01T11:00:39.580Z</time>
      </trkpt>
      <trkpt lat="62.60428" lon="6.3743">
        <ele>65.498953</ele>
        <time>2020-08-01T11:00:42.595Z</time>
      </trkpt>
      <trkpt lat="62.60429" lon="6.3745">
        <ele>65.51753</ele>
        <time>2020-08-01T11:00:45.589Z</time>
      </trkpt>
      <trkpt lat="62.60431" lon="6.3747">
        <ele>65.535724</ele>
        <time>2020-08-01T11:00:48.578Z</time>
      </trkpt>
      <trkpt lat="62.60432" lon="6.3749">
        <ele>65.55471</ele>
        <time>2020-08-01T11:00:51.598Z</time>
      </trkpt>
      <trkpt lat="62.60434" lon="6.37511">
        <ele>65.574072</ele>
        <time>2020-08-01T11:00:54.601Z</time>
      </trkpt>
      <trkpt lat="62.60436" lon="6.37532">
        <ele>65.594501</ele>
        <time>2020-08-01T11:00:57.602Z</time>
      </trkpt>
      <trkpt lat="62.60438" lon="6.37555">
        <ele>65.616015</ele>
        <time>2020-08-01T11:01:00.593Z</time>
      </trkpt>
      <trkpt lat="62.60439" lon="6.3758">
        <ele>65.639064</ele>
        <time>2020-08-01T11:01:03.592Z</time>
      </trkpt>
      <trkpt lat="62.60439" lon="6.37603">
        <ele>65.659849</ele>
        <time>2020-08-01T11:01:06.588Z</time>
      </trkpt>
      <trkpt lat="62.6044" lon="6.37625">
        <ele>65.680996</ele>
        <time>2020-08-01T11:01:09.596Z</time>
      </trkpt>
      <trkpt lat="62.60439" lon="6.37649">
        <ele>65.70242</ele>
        <time>2020-08-01T11:01:12.620Z</time>
      </trkpt>
      <trkpt lat="62.60439" lon="6.37673">
        <ele>65.724492</ele>
        <time>2020-08-01T11:01:15.584Z</time>
      </trkpt>
      <trkpt lat="62.60439" lon="6.37698">
        <ele>65.747855</ele>
        <time>2020-08-01T11:01:18.626Z</time>
      </trkpt>
      <trkpt lat="62.60439" lon="6.37724">
        <ele>65.757343</ele>
        <time>2020-08-01T11:01:21.608Z</time>
      </trkpt>
      <trkpt lat="62.6044" lon="6.37749">
        <ele>65.720334</ele>
        <time>2020-08-01T11:01:24.603Z</time>
      </trkpt>
      <trkpt lat="62.6044" lon="6.37775">
        <ele>65.683184</ele>
        <time>2020-08-01T11:01:27.649Z</time>
      </trkpt>
      <trkpt lat="62.60439" lon="6.37798">
        <ele>65.649447</ele>
        <time>2020-08-01T11:01:30.584Z</time>
      </trkpt>
      <trkpt lat="62.60438" lon="6.37823">
        <ele>65.612723</ele>
        <time>2020-08-01T11:01:33.611Z</time>
      </trkpt>
      <trkpt lat="62.60438" lon="6.37848">
        <ele>65.575421</ele>
        <time>2020-08-01T11:01:36.585Z</time>
      </trkpt>
      <trkpt lat="62.60437" lon="6.37876">
        <ele>65.534368</ele>
        <time>2020-08-01T11:01:39.631Z</time>
      </trkpt>
      <trkpt lat="62.60436" lon="6.37896">
        <ele>65.505779</ele>
        <time>2020-08-01T11:01:41.603Z</time>
      </trkpt>
      <trkpt lat="62.60435" lon="6.37916">
        <ele>65.475367</ele>
        <time>2020-08-01T11:01:43.620Z</time>
      </trkpt>
      <trkpt lat="62.60432" lon="6.37935">
        <ele>65.446182</ele>
        <time>2020-08-01T11:01:45.616Z</time>
      </trkpt>
      <trkpt lat="62.60429" lon="6.37954">
        <ele>65.416973</ele>
        <time>2020-08-01T11:01:47.600Z</time>
      </trkpt>
      <trkpt lat="62.60424" lon="6.37981">
        <ele>65.373651</ele>
        <time>2020-08-01T11:01:50.625Z</time>
      </trkpt>
      <trkpt lat="62.60419" lon="6.38">
        <ele>65.343486</ele>
        <time>2020-08-01T11:01:52.610Z</time>
      </trkpt>
      <trkpt lat="62.60416" lon="6.38018">
        <ele>65.313987</ele>
        <time>2020-08-01T11:01:54.639Z</time>
      </trkpt>
      <trkpt lat="62.60412" lon="6.38036">
        <ele>65.284742</ele>
        <time>2020-08-01T11:01:56.612Z</time>
      </trkpt>
      <trkpt lat="62.60407" lon="6.38054">
        <ele>65.255889</ele>
        <time>2020-08-01T11:01:58.586Z</time>
      </trkpt>
      <trkpt lat="62.60402" lon="6.3808">
        <ele>65.213618</ele>
        <time>2020-08-01T11:02:01.579Z</time>
      </trkpt>
      <trkpt lat="62.60397" lon="6.38097">
        <ele>65.194973</ele>
        <time>2020-08-01T11:02:03.595Z</time>
      </trkpt>
      <trkpt lat="62.60393" lon="6.38115">
        <ele>65.195977</ele>
        <time>2020-08-01T11:02:05.591Z</time>
      </trkpt>
      <trkpt lat="62.60387" lon="6.3814">
        <ele>65.19735</ele>
        <time>2020-08-01T11:02:08.610Z</time>
      </trkpt>
      <trkpt lat="62.60382" lon="6.38164">
        <ele>65.198692</ele>
        <time>2020-08-01T11:02:11.632Z</time>
      </trkpt>
      <trkpt lat="62.60377" lon="6.38187">
        <ele>65.199938</ele>
        <time>2020-08-01T11:02:14.619Z</time>
      </trkpt>
      <trkpt lat="62.60372" lon="6.38208">
        <ele>65.201121</ele>
        <time>2020-08-01T11:02:17.597Z</time>
      </trkpt>
      <trkpt lat="62.60368" lon="6.38228">
        <ele>65.202223</ele>
        <time>2020-08-01T11:02:20.598Z</time>
      </trkpt>
      <trkpt lat="62.60363" lon="6.38249">
        <ele>65.203352</ele>
        <time>2020-08-01T11:02:23.596Z</time>
      </trkpt>
      <trkpt lat="62.60359" lon="6.38271">
        <ele>65.204522</ele>
        <time>2020-08-01T11:02:26.621Z</time>
      </trkpt>
      <trkpt lat="62.60355" lon="6.38292">
        <ele>65.205656</ele>
        <time>2020-08-01T11:02:29.607Z</time>
      </trkpt>
      <trkpt lat="62.60351" lon="6.38313">
        <ele>65.206809</ele>
        <time>2020-08-01T11:02:32.600Z</time>
      </trkpt>
      <trkpt lat="62.60348" lon="6.38335">
        <ele>65.207937</ele>
        <time>2020-08-01T11:02:35.590Z</time>
      </trkpt>
      <trkpt lat="62.60345" lon="6.38358">
        <ele>65.209144</ele>
        <time>2020-08-01T11:02:38.613Z</time>
      </trkpt>
      <trkpt lat="62.60343" lon="6.38382">
        <ele>65.210342</ele>
        <time>2020-08-01T11:02:41.601Z</time>
      </trkpt>
      <trkpt lat="62.60342" lon="6.38405">
        <ele>65.211511</ele>
        <time>2020-08-01T11:02:44.638Z</time>
      </trkpt>
      <trkpt lat="62.60341" lon="6.38429">
        <ele>65.212675</ele>
        <time>2020-08-01T11:02:47.579Z</time>
      </trkpt>
      <trkpt lat="62.60341" lon="6.38449">
        <ele>65.213679</ele>
        <time>2020-08-01T11:02:50.588Z</time>
      </trkpt>
      <trkpt lat="62.60341" lon="6.38469">
        <ele>65.457302</ele>
        <time>2020-08-01T11:02:53.581Z</time>
      </trkpt>
      <trkpt lat="62.60341" lon="6.38489">
        <ele>65.858236</ele>
        <time>2020-08-01T11:02:56.607Z</time>
      </trkpt>
      <trkpt lat="62.60341" lon="6.38511">
        <ele>66.285015</ele>
        <time>2020-08-01T11:02:59.582Z</time>
      </trkpt>
      <trkpt lat="62.60341" lon="6.38531">
        <ele>66.687993</ele>
        <time>2020-08-01T11:03:02.591Z</time>
      </trkpt>
      <trkpt lat="62.60341" lon="6.38554">
        <ele>67.133098</ele>
        <time>2020-08-01T11:03:06.610Z</time>
      </trkpt>
      <trkpt lat="62.60342" lon="6.38575">
        <ele>67.548188</ele>
        <time>2020-08-01T11:03:11.585Z</time>
      </trkpt>
      <trkpt lat="62.60342" lon="6.38595">
        <ele>67.957089</ele>
        <time>2020-08-01T11:03:16.601Z</time>
      </trkpt>
      <trkpt lat="62.60342" lon="6.38617">
        <ele>68.384213</ele>
        <time>2020-08-01T11:03:21.600Z</time>
      </trkpt>
      <trkpt lat="62.60343" lon="6.38638">
        <ele>68.807044</ele>
        <time>2020-08-01T11:03:26.583Z</time>
      </trkpt>
      <trkpt lat="62.60344" lon="6.38661">
        <ele>69.248013</ele>
        <time>2020-08-01T11:03:31.591Z</time>
      </trkpt>
      <trkpt lat="62.60344" lon="6.38681">
        <ele>69.661331</ele>
        <time>2020-08-01T11:03:36.608Z</time>
      </trkpt>
      <trkpt lat="62.60345" lon="6.38705">
        <ele>70.127419</ele>
        <time>2020-08-01T11:03:41.589Z</time>
      </trkpt>
      <trkpt lat="62.60347" lon="6.38728">
        <ele>70.580389</ele>
        <time>2020-08-01T11:03:46.596Z</time>
      </trkpt>
      <trkpt lat="62.6035" lon="6.38749">
        <ele>71.023238</ele>
        <time>2020-08-01T11:03:51.613Z</time>
      </trkpt>
      <trkpt lat="62.60354" lon="6.38769">
        <ele>71.439533</ele>
        <time>2020-08-01T11:03:56.602Z</time>
      </trkpt>
      <trkpt lat="62.60357" lon="6.38786">
        <ele>71.823474</ele>
        <time>2020-08-01T11:04:01.590Z</time>
      </trkpt>
      <trkpt lat="62.60362" lon="6.38805">
        <ele>72.23633</ele>
        <time>2020-08-01T11:04:06.600Z</time>
      </trkpt>
      <trkpt lat="62.60367" lon="6.38823">
        <ele>72.661409</ele>
        <time>2020-08-01T11:04:11.623Z</time>
      </trkpt>
      <trkpt lat="62.60373" lon="6.38842">
        <ele>72.941917</ele>
        <time>2020-08-01T11:04:16.588Z</time>
      </trkpt>
      <trkpt lat="62.60379" lon="6.38861">
        <ele>72.961609</ele>
        <time>2020-08-01T11:04:21.614Z</time>
      </trkpt>
      <trkpt lat="62.60386" lon="6.3888">
        <ele>72.982248</ele>
        <time>2020-08-01T11:04:26.603Z</time>
      </trkpt>
      <trkpt lat="62.60392" lon="6.38896">
        <ele>73.000106</ele>
        <time>2020-08-01T11:04:30.606Z</time>
      </trkpt>
      <trkpt lat="62.60399" lon="6.38915">
        <ele>73.020958</ele>
        <time>2020-08-01T11:04:35.616Z</time>
      </trkpt>
      <trkpt lat="62.60404" lon="6.38931">
        <ele>73.038497</ele>
        <time>2020-08-01T11:04:39.642Z</time>
      </trkpt>
      <trkpt lat="62.60411" lon="6.38951">
        <ele>73.059359</ele>
        <time>2020-08-01T11:04:44.614Z</time>
      </trkpt>
      <trkpt lat="62.60415" lon="6.38969">
        <ele>73.077054</ele>
        <time>2020-08-01T11:04:48.589Z</time>
      </trkpt>
      <trkpt lat="62.6042" lon="6.38987">
        <ele>73.094293</ele>
        <time>2020-08-01T11:04:52.606Z</time>
      </trkpt>
      <trkpt lat="62.60423" lon="6.39008">
        <ele>73.113334</ele>
        <time>2020-08-01T11:04:56.615Z</time>
      </trkpt>
      <trkpt lat="62.60425" lon="6.39028">
        <ele>73.131273</ele>
        <time>2020-08-01T11:04:59.583Z</time>
      </trkpt>
      <trkpt lat="62.60426" lon="6.39052">
        <ele>73.152109</ele>
        <time>2020-08-01T11:05:02.629Z</time>
      </trkpt>
      <trkpt lat="62.60427" lon="6.39078">
        <ele>73.174363</ele>
        <time>2020-08-01T11:05:05.605Z</time>
      </trkpt>
      <trkpt lat="62.60427" lon="6.39101">
        <ele>73.194632</ele>
        <time>2020-08-01T11:05:08.613Z</time>
      </trkpt>
      <trkpt lat="62.60427" lon="6.39124">
        <ele>73.214379</ele>
        <time>2020-08-01T11:05:11.596Z</time>
      </trkpt>
      <trkpt lat="62.60427" lon="6.39146">
        <ele>73.233183</ele>
        <time>2020-08-01T11:05:14.600Z</time>
      </trkpt>
      <trkpt lat="62.60427" lon="6.39166">
        <ele>73.250601</ele>
        <time>2020-08-01T11:05:17.613Z</time>
      </trkpt>
      <trkpt lat="62.60426" lon="6.39187">
        <ele>73.268801</ele>
        <time>2020-08-01T11:05:20.609Z</time>
      </trkpt>
      <trkpt lat="62.60427" lon="6.3921">
        <ele>73.265309</ele>
        <time>2020-08-01T11:05:23.637Z</time>
      </trkpt>
      <trkpt lat="62.60428" lon="6.39234">
        <ele>73.258962</ele>
        <time>2020-08-01T11:05:26.640Z</time>
      </trkpt>
      <trkpt lat="62.60429" lon="6.39257">
        <ele>73.252718</ele>
        <time>2020-08-01T11:05:29.601Z</time>
      </trkpt>
      <trkpt lat="62.60432" lon="6.39278">
        <ele>73.246762</ele>
        <time>2020-08-01T11:05:32.577Z</time>
      </trkpt>
      <trkpt lat="62.60435" lon="6.39302">
        <ele>73.240173</ele>
        <time>2020-08-01T11:05:35.600Z</time>
      </trkpt>
      <trkpt lat="62.60438" lon="6.39324">
        <ele>73.233955</ele>
        <time>2020-08-01T11:05:38.592Z</time>
      </trkpt>
      <trkpt lat="62.60441" lon="6.39345">
        <ele>73.228127</ele>
        <time>2020-08-01T11:05:41.646Z</time>
      </trkpt>
      <trkpt lat="62.60445" lon="6.39365">
        <ele>73.222349</ele>
        <time>2020-08-01T11:05:44.584Z</time>
      </trkpt>
      <trkpt lat="62.60448" lon="6.39385">
        <ele>73.216534</ele>
        <time>2020-08-01T11:05:47.594Z</time>
      </trkpt>
      <trkpt lat="62.60452" lon="6.39405">
        <ele>73.210811</ele>
        <time>2020-08-01T11:05:50.601Z</time>
      </trkpt>
      <trkpt lat="62.60455" lon="6.39426">
        <ele>73.204717</ele>
        <time>2020-08-01T11:05:53.588Z</time>
      </trkpt>
      <trkpt lat="62.60459" lon="6.39447">
        <ele>73.198718</ele>
        <time>2020-08-01T11:05:56.603Z</time>
      </trkpt>
      <trkpt lat="62.60464" lon="6.39466">
        <ele>73.193072</ele>
        <time>2020-08-01T11:05:59.621Z</time>
      </trkpt>
      <trkpt lat="62.60468" lon="6.39484">
        <ele>73.187585</ele>
        <time>2020-08-01T11:06:02.621Z</time>
      </trkpt>
      <trkpt lat="62.60472" lon="6.39502">
        <ele>73.182326</ele>
        <time>2020-08-01T11:06:05.592Z</time>
      </trkpt>
      <trkpt lat="62.60477" lon="6.39525">
        <ele>73.175458</ele>
        <time>2020-08-01T11:06:09.593Z</time>
      </trkpt>
      <trkpt lat="62.60481" lon="6.39542">
        <ele>73.170192</ele>
        <time>2020-08-01T11:06:12.604Z</time>
      </trkpt>
      <trkpt lat="62.60485" lon="6.39561">
        <ele>73.100408</ele>
        <time>2020-08-01T11:06:15.609Z</time>
      </trkpt>
      <trkpt lat="62.60488" lon="6.3958">
        <ele>72.795613</ele>
        <time>2020-08-01T11:06:18.587Z</time>
      </trkpt>
      <trkpt lat="62.60491" lon="6.396">
        <ele>72.472298</ele>
        <time>2020-08-01T11:06:21.606Z</time>
      </trkpt>
      <trkpt lat="62.60493" lon="6.3962">
        <ele>72.160642</ele>
        <time>2020-08-01T11:06:24.597Z</time>
      </trkpt>
      <trkpt lat="62.60496" lon="6.39639">
        <ele>71.86117</ele>
        <time>2020-08-01T11:06:27.598Z</time>
      </trkpt>
      <trkpt lat="62.60498" lon="6.39661">
        <ele>71.530438</ele>
        <time>2020-08-01T11:06:30.608Z</time>
      </trkpt>
      <trkpt lat="62.60501" lon="6.39682">
        <ele>71.199444</ele>
        <time>2020-08-01T11:06:33.646Z</time>
      </trkpt>
      <trkpt lat="62.60505" lon="6.39702">
        <ele>70.874909</ele>
        <time>2020-08-01T11:06:36.583Z</time>
      </trkpt>
      <trkpt lat="62.60509" lon="6.39723">
        <ele>70.52839</ele>
        <time>2020-08-01T11:06:39.613Z</time>
      </trkpt>
      <trkpt lat="62.60514" lon="6.39748">
        <ele>70.117822</ele>
        <time>2020-08-01T11:06:42.599Z</time>
      </trkpt>
      <trkpt lat="62.60519" lon="6.39767">
        <ele>69.797764</ele>
        <time>2020-08-01T11:06:44.598Z</time>
      </trkpt>
      <trkpt lat="62.60525" lon="6.39787">
        <ele>69.439021</ele>
        <time>2020-08-01T11:06:46.620Z</time>
      </trkpt>
      <trkpt lat="62.60531" lon="6.3981">
        <ele>69.046703</ele>
        <time>2020-08-01T11:06:48.621Z</time>
      </trkpt>
      <trkpt lat="62.60538" lon="6.39833">
        <ele>68.62298</ele>
        <time>2020-08-01T11:06:50.589Z</time>
      </trkpt>
      <trkpt lat="62.60546" lon="6.39858">
        <ele>68.16534</ele>
        <time>2020-08-01T11:06:52.600Z</time>
      </trkpt>
      <trkpt lat="62.60554" lon="6.39885">
        <ele>67.697973</ele>
        <time>2020-08-01T11:06:54.600Z</time>
      </trkpt>
      <trkpt lat="62.60562" lon="6.39912">
        <ele>67.256593</ele>
        <time>2020-08-01T11:06:56.644Z</time>
      </trkpt>
      <trkpt lat="62.6057" lon="6.39939">
        <ele>67.03978</ele>
        <time>2020-08-01T11:06:58.611Z</time>
      </trkpt>
      <trkpt lat="62.60579" lon="6.39966">
        <ele>66.819974</ele>
        <time>2020-08-01T11:07:00.627Z</time>
      </trkpt>
      <trkpt lat="62.60587" lon="6.39991">
        <ele>66.611798</ele>
        <time>2020-08-01T11:07:02.586Z</time>
      </trkpt>
      <trkpt lat="62.60594" lon="6.40015">
        <ele>66.423493</ele>
        <time>2020-08-01T11:07:04.597Z</time>
      </trkpt>
      <trkpt lat="62.60601" lon="6.4003">
        <ele>66.27484</ele>
        <time>2020-08-01T11:07:06.588Z</time>
      </trkpt>
      <trkpt lat="62.6061" lon="6.40039">
        <ele>66.142655</ele>
        <time>2020-08-01T11:07:08.588Z</time>
      </trkpt>
      <trkpt lat="62.60616" lon="6.40063">
        <ele>65.960462</ele>
        <time>2020-08-01T11:07:11.594Z</time>
      </trkpt>
      <trkpt lat="62.6062" lon="6.40082">
        <ele>65.815144</ele>
        <time>2020-08-01T11:07:13.600Z</time>
      </trkpt>
      <trkpt lat="62.60625" lon="6.401">
        <ele>65.676873</ele>
        <time>2020-08-01T11:07:15.585Z</time>
      </trkpt>
      <trkpt lat="62.60629" lon="6.40122">
        <ele>65.512851</ele>
        <time>2020-08-01T11:07:18.620Z</time>
      </trkpt>
      <trkpt lat="62.60633" lon="6.40142">
        <ele>65.364694</ele>
        <time>2020-08-01T11:07:21.601Z</time>
      </trkpt>
      <trkpt lat="62.60639" lon="6.40179">
        <ele>65.102916</ele>
        <time>2020-08-01T11:09:28.608Z</time>
      </trkpt>
      <trkpt lat="62.60642" lon="6.402">
        <ele>64.953864</ele>
        <time>2020-08-01T11:09:33.585Z</time>
      </trkpt>
      <trkpt lat="62.60645" lon="6.40223">
        <ele>64.797989</ele>
        <time>2020-08-01T11:09:39.590Z</time>
      </trkpt>
      <trkpt lat="62.60648" lon="6.40245">
        <ele>64.772465</ele>
        <time>2020-08-01T11:09:43.620Z</time>
      </trkpt>
      <trkpt lat="62.60652" lon="6.40269">
        <ele>65.237555</ele>
        <time>2020-08-01T11:09:46.612Z</time>
      </trkpt>
      <trkpt lat="62.60656" lon="6.40294">
        <ele>65.748376</ele>
        <time>2020-08-01T11:09:49.623Z</time>
      </trkpt>
      <trkpt lat="62.6066" lon="6.40319">
        <ele>66.236145</ele>
        <time>2020-08-01T11:09:52.595Z</time>
      </trkpt>
      <trkpt lat="62.60663" lon="6.4034">
        <ele>66.660067</ele>
        <time>2020-08-01T11:09:55.590Z</time>
      </trkpt>
      <trkpt lat="62.60666" lon="6.40362">
        <ele>67.080774</ele>
        <time>2020-08-01T11:09:58.592Z</time>
      </trkpt>
      <trkpt lat="62.60668" lon="6.40383">
        <ele>67.488087</ele>
        <time>2020-08-01T11:10:01.603Z</time>
      </trkpt>
      <trkpt lat="62.60671" lon="6.40407">
        <ele>67.958447</ele>
        <time>2020-08-01T11:10:05.649Z</time>
      </trkpt>
      <trkpt lat="62.60673" lon="6.40431">
        <ele>68.401402</ele>
        <time>2020-08-01T11:10:09.599Z</time>
      </trkpt>
      <trkpt lat="62.60675" lon="6.40451">
        <ele>68.794072</ele>
        <time>2020-08-01T11:10:12.584Z</time>
      </trkpt>
      <trkpt lat="62.60676" lon="6.40473">
        <ele>69.205449</ele>
        <time>2020-08-01T11:10:15.626Z</time>
      </trkpt>
      <trkpt lat="62.60676" lon="6.40494">
        <ele>69.608611</ele>
        <time>2020-08-01T11:10:18.632Z</time>
      </trkpt>
      <trkpt lat="62.60678" lon="6.40515">
        <ele>70.005295</ele>
        <time>2020-08-01T11:10:21.596Z</time>
      </trkpt>
      <trkpt lat="62.6068" lon="6.40535">
        <ele>70.382779</ele>
        <time>2020-08-01T11:10:24.582Z</time>
      </trkpt>
      <trkpt lat="62.60682" lon="6.40556">
        <ele>70.792692</ele>
        <time>2020-08-01T11:10:28.584Z</time>
      </trkpt>
      <trkpt lat="62.60684" lon="6.40575">
        <ele>71.160931</ele>
        <time>2020-08-01T11:10:34.609Z</time>
      </trkpt>
      <trkpt lat="62.60685" lon="6.40595">
        <ele>71.528469</ele>
        <time>2020-08-01T11:10:41.609Z</time>
      </trkpt>
      <trkpt lat="62.60687" lon="6.40616">
        <ele>71.939952</ele>
        <time>2020-08-01T11:10:49.601Z</time>
      </trkpt>
      <trkpt lat="62.60688" lon="6.40636">
        <ele>72.212375</ele>
        <time>2020-08-01T11:10:56.589Z</time>
      </trkpt>
      <trkpt lat="62.6069" lon="6.40656">
        <ele>72.458735</ele>
        <time>2020-08-01T11:11:03.601Z</time>
      </trkpt>
      <trkpt lat="62.60692" lon="6.40676">
        <ele>72.711008</ele>
        <time>2020-08-01T11:11:10.581Z</time>
      </trkpt>
      <trkpt lat="62.60693" lon="6.40699">
        <ele>72.983884</ele>
        <time>2020-08-01T11:11:17.596Z</time>
      </trkpt>
      <trkpt lat="62.60694" lon="6.4072">
        <ele>73.240061</ele>
        <time>2020-08-01T11:11:24.591Z</time>
      </trkpt>
      <trkpt lat="62.60695" lon="6.40742">
        <ele>73.5167</ele>
        <time>2020-08-01T11:11:30.588Z</time>
      </trkpt>
      <trkpt lat="62.60696" lon="6.40765">
        <ele>73.795375</ele>
        <time>2020-08-01T11:11:37.584Z</time>
      </trkpt>
      <trkpt lat="62.60697" lon="6.40787">
        <ele>74.062696</ele>
        <time>2020-08-01T11:11:43.621Z</time>
      </trkpt>
      <trkpt lat="62.60699" lon="6.40806">
        <ele>74.300631</ele>
        <time>2020-08-01T11:11:48.604Z</time>
      </trkpt>
      <trkpt lat="62.607" lon="6.40828">
        <ele>74.572295</ele>
        <time>2020-08-01T11:11:54.612Z</time>
      </trkpt>
      <trkpt lat="62.60701" lon="6.40851">
        <ele>74.848783</ele>
        <time>2020-08-01T11:11:58.590Z</time>
      </trkpt>
      <trkpt lat="62.60703" lon="6.40873">
        <ele>75.130243</ele>
        <time>2020-08-01T11:12:01.590Z</time>
      </trkpt>
      <trkpt lat="62.60705" lon="6.40897">
        <ele>75.420359</ele>
        <time>2020-08-01T11:12:04.600Z</time>
      </trkpt>
      <trkpt lat="62.60706" lon="6.40916">
        <ele>75.661194</ele>
        <time>2020-08-01T11:12:07.590Z</time>
      </trkpt>
      <trkpt lat="62.60707" lon="6.40936">
        <ele>75.902738</ele>
        <time>2020-08-01T11:12:10.613Z</time>
      </trkpt>
      <trkpt lat="62.60709" lon="6.40961">
        <ele>76.206496</ele>
        <time>2020-08-01T11:12:14.605Z</time>
      </trkpt>
      <trkpt lat="62.60711" lon="6.40982">
        <ele>76.470519</ele>
        <time>2020-08-01T11:12:18.592Z</time>
      </trkpt>
      <trkpt lat="62.60712" lon="6.41003">
        <ele>76.724186</ele>
        <time>2020-08-01T11:12:23.607Z</time>
      </trkpt>
      <trkpt lat="62.60713" lon="6.41023">
        <ele>76.748948</ele>
        <time>2020-08-01T11:12:28.604Z</time>
      </trkpt>
      <trkpt lat="62.60715" lon="6.41043">
        <ele>76.710555</ele>
        <time>2020-08-01T11:12:33.585Z</time>
      </trkpt>
      <trkpt lat="62.60716" lon="6.41065">
        <ele>76.670411</ele>
        <time>2020-08-01T11:12:37.593Z</time>
      </trkpt>
      <trkpt lat="62.60719" lon="6.41084">
        <ele>76.634095</ele>
        <time>2020-08-01T11:12:40.610Z</time>
      </trkpt>
      <trkpt lat="62.60723" lon="6.41107">
        <ele>76.58796</ele>
        <time>2020-08-01T11:12:43.623Z</time>
      </trkpt>
      <trkpt lat="62.60726" lon="6.41127">
        <ele>76.549741</ele>
        <time>2020-08-01T11:12:45.584Z</time>
      </trkpt>
      <trkpt lat="62.60729" lon="6.4115">
        <ele>76.505028</ele>
        <time>2020-08-01T11:12:47.610Z</time>
      </trkpt>
      <trkpt lat="62.60733" lon="6.41175">
        <ele>76.457006</ele>
        <time>2020-08-01T11:12:49.607Z</time>
      </trkpt>
      <trkpt lat="62.60737" lon="6.412">
        <ele>76.408474</ele>
        <time>2020-08-01T11:12:51.608Z</time>
      </trkpt>
      <trkpt lat="62.60742" lon="6.4123">
        <ele>76.350183</ele>
        <time>2020-08-01T11:12:53.585Z</time>
      </trkpt>
      <trkpt lat="62.60748" lon="6.41267">
        <ele>76.278524</ele>
        <time>2020-08-01T11:12:55.646Z</time>
      </trkpt>
      <trkpt lat="62.6075" lon="6.41286">
        <ele>76.241252</ele>
        <time>2020-08-01T11:12:56.610Z</time>
      </trkpt>
      <trkpt lat="62.60753" lon="6.41306">
        <ele>76.202594</ele>
        <time>2020-08-01T11:12:57.599Z</time>
      </trkpt>
      <trkpt lat="62.60756" lon="6.41328">
        <ele>76.161418</ele>
        <time>2020-08-01T11:12:58.610Z</time>
      </trkpt>
      <trkpt lat="62.6076" lon="6.41349">
        <ele>76.119812</ele>
        <time>2020-08-01T11:12:59.590Z</time>
      </trkpt>
      <trkpt lat="62.60763" lon="6.4137">
        <ele>76.078248</ele>
        <time>2020-08-01T11:13:00.585Z</time>
      </trkpt>
      <trkpt lat="62.60769" lon="6.41393">
        <ele>75.741134</ele>
        <time>2020-08-01T11:13:01.609Z</time>
      </trkpt>
      <trkpt lat="62.60774" lon="6.41413">
        <ele>75.242564</ele>
        <time>2020-08-01T11:13:02.617Z</time>
      </trkpt>
      <trkpt lat="62.60779" lon="6.41433">
        <ele>74.763599</ele>
        <time>2020-08-01T11:13:03.590Z</time>
      </trkpt>
      <trkpt lat="62.60784" lon="6.41453">
        <ele>74.284635</ele>
        <time>2020-08-01T11:13:04.605Z</time>
      </trkpt>
      <trkpt lat="62.60789" lon="6.41472">
        <ele>73.809845</ele>
        <time>2020-08-01T11:13:05.580Z</time>
      </trkpt>
      <trkpt lat="62.60795" lon="6.41491">
        <ele>73.341034</ele>
        <time>2020-08-01T11:13:06.616Z</time>
      </trkpt>
      <trkpt lat="62.60799" lon="6.41509">
        <ele>72.902866</ele>
        <time>2020-08-01T11:13:07.581Z</time>
      </trkpt>
      <trkpt lat="62.60804" lon="6.41527">
        <ele>72.487506</ele>
        <time>2020-08-01T11:13:08.611Z</time>
      </trkpt>
      <trkpt lat="62.60811" lon="6.41561">
        <ele>71.692951</ele>
        <time>2020-08-01T11:13:10.607Z</time>
      </trkpt>
      <trkpt lat="62.60815" lon="6.41595">
        <ele>70.943031</ele>
        <time>2020-08-01T11:13:12.627Z</time>
      </trkpt>
      <trkpt lat="62.60819" lon="6.4163">
        <ele>70.187386</ele>
        <time>2020-08-01T11:13:14.608Z</time>
      </trkpt>
      <trkpt lat="62.60824" lon="6.41666">
        <ele>69.395782</ele>
        <time>2020-08-01T11:13:16.587Z</time>
      </trkpt>
      <trkpt lat="62.60826" lon="6.41685">
        <ele>68.983968</ele>
        <time>2020-08-01T11:13:17.608Z</time>
      </trkpt>
      <trkpt lat="62.6083" lon="6.41721">
        <ele>68.20166</ele>
        <time>2020-08-01T11:13:19.575Z</time>
      </trkpt>
      <trkpt lat="62.60834" lon="6.41755">
        <ele>67.558218</ele>
        <time>2020-08-01T11:13:21.620Z</time>
      </trkpt>
      <trkpt lat="62.60838" lon="6.41787">
        <ele>67.060685</ele>
        <time>2020-08-01T11:13:23.620Z</time>
      </trkpt>
      <trkpt lat="62.60843" lon="6.41818">
        <ele>66.574956</ele>
        <time>2020-08-01T11:13:25.585Z</time>
      </trkpt>
      <trkpt lat="62.60848" lon="6.41848">
        <ele>66.106182</ele>
        <time>2020-08-01T11:13:27.579Z</time>
      </trkpt>
      <trkpt lat="62.60852" lon="6.41876">
        <ele>65.66659</ele>
        <time>2020-08-01T11:13:29.611Z</time>
      </trkpt>
      <trkpt lat="62.60857" lon="6.41901">
        <ele>65.26605</ele>
        <time>2020-08-01T11:13:31.586Z</time>
      </trkpt>
      <trkpt lat="62.6086" lon="6.41927">
        <ele>64.862482</ele>
        <time>2020-08-01T11:13:33.606Z</time>
      </trkpt>
      <trkpt lat="62.60861" lon="6.41955">
        <ele>64.444596</ele>
        <time>2020-08-01T11:13:35.593Z</time>
      </trkpt>
      <trkpt lat="62.60864" lon="6.41987">
        <ele>63.970371</ele>
        <time>2020-08-01T11:13:37.594Z</time>
      </trkpt>
      <trkpt lat="62.60866" lon="6.4202">
        <ele>63.464799</ele>
        <time>2020-08-01T11:13:39.634Z</time>
      </trkpt>
      <trkpt lat="62.60869" lon="6.42055">
        <ele>62.947131</ele>
        <time>2020-08-01T11:13:41.602Z</time>
      </trkpt>
      <trkpt lat="62.60873" lon="6.42087">
        <ele>62.447942</ele>
        <time>2020-08-01T11:13:43.598Z</time>
      </trkpt>
      <trkpt lat="62.60876" lon="6.42119">
        <ele>61.966277</ele>
        <time>2020-08-01T11:13:45.638Z</time>
      </trkpt>
      <trkpt lat="62.6088" lon="6.42147">
        <ele>61.562455</ele>
        <time>2020-08-01T11:13:47.597Z</time>
      </trkpt>
      <trkpt lat="62.60885" lon="6.42172">
        <ele>61.184133</ele>
        <time>2020-08-01T11:13:49.593Z</time>
      </trkpt>
      <trkpt lat="62.6089" lon="6.42194">
        <ele>60.847879</ele>
        <time>2020-08-01T11:13:51.584Z</time>
      </trkpt>
      <trkpt lat="62.60895" lon="6.42213">
        <ele>60.555701</ele>
        <time>2020-08-01T11:13:53.613Z</time>
      </trkpt>
      <trkpt lat="62.60899" lon="6.42231">
        <ele>60.276721</ele>
        <time>2020-08-01T11:13:55.625Z</time>
      </trkpt>
      <trkpt lat="62.60904" lon="6.42247">
        <ele>60.00581</ele>
        <time>2020-08-01T11:13:57.626Z</time>
      </trkpt>
      <trkpt lat="62.60909" lon="6.42264">
        <ele>59.727684</ele>
        <time>2020-08-01T11:13:59.589Z</time>
      </trkpt>
      <trkpt lat="62.60916" lon="6.42286">
        <ele>59.353473</ele>
        <time>2020-08-01T11:14:02.589Z</time>
      </trkpt>
      <trkpt lat="62.60923" lon="6.42307">
        <ele>59.005685</ele>
        <time>2020-08-01T11:14:05.588Z</time>
      </trkpt>
      <trkpt lat="62.60931" lon="6.42329">
        <ele>58.619401</ele>
        <time>2020-08-01T11:14:08.591Z</time>
      </trkpt>
      <trkpt lat="62.60937" lon="6.42347">
        <ele>58.325372</ele>
        <time>2020-08-01T11:14:10.595Z</time>
      </trkpt>
      <trkpt lat="62.60943" lon="6.42366">
        <ele>58.01109</ele>
        <time>2020-08-01T11:14:12.604Z</time>
      </trkpt>
      <trkpt lat="62.60949" lon="6.42385">
        <ele>57.687162</ele>
        <time>2020-08-01T11:14:14.582Z</time>
      </trkpt>
      <trkpt lat="62.60956" lon="6.42405">
        <ele>57.345571</ele>
        <time>2020-08-01T11:14:16.625Z</time>
      </trkpt>
      <trkpt lat="62.60963" lon="6.42424">
        <ele>57.012373</ele>
        <time>2020-08-01T11:14:18.603Z</time>
      </trkpt>
      <trkpt lat="62.60969" lon="6.42443">
        <ele>56.684943</ele>
        <time>2020-08-01T11:14:20.592Z</time>
      </trkpt>
      <trkpt lat="62.60975" lon="6.42463">
        <ele>56.538063</ele>
        <time>2020-08-01T11:14:22.598Z</time>
      </trkpt>
      <trkpt lat="62.60982" lon="6.42483">
        <ele>56.43426</ele>
        <time>2020-08-01T11:14:24.587Z</time>
      </trkpt>
      <trkpt lat="62.60987" lon="6.42505">
        <ele>56.3311</ele>
        <time>2020-08-01T11:14:26.605Z</time>
      </trkpt>
      <trkpt lat="62.60992" lon="6.42527">
        <ele>56.228162</ele>
        <time>2020-08-01T11:14:28.618Z</time>
      </trkpt>
      <trkpt lat="62.60995" lon="6.4255">
        <ele>56.127992</ele>
        <time>2020-08-01T11:14:30.599Z</time>
      </trkpt>
      <trkpt lat="62.60998" lon="6.42572">
        <ele>56.031568</ele>
        <time>2020-08-01T11:14:32.601Z</time>
      </trkpt>
      <trkpt lat="62.61002" lon="6.42593">
        <ele>55.937051</ele>
        <time>2020-08-01T11:14:34.617Z</time>
      </trkpt>
      <trkpt lat="62.61005" lon="6.42613">
        <ele>55.848101</ele>
        <time>2020-08-01T11:14:36.621Z</time>
      </trkpt>
      <trkpt lat="62.61008" lon="6.42632">
        <ele>55.765228</ele>
        <time>2020-08-01T11:14:38.597Z</time>
      </trkpt>
      <trkpt lat="62.61013" lon="6.42657">
        <ele>55.65</ele>
        <time>2020-08-01T11:14:41.605Z</time>
      </trkpt>
      <trkpt lat="62.61017" lon="6.42681">
        <ele>55.542176</ele>
        <time>2020-08-01T11:14:44.626Z</time>
      </trkpt>
      <trkpt lat="62.61021" lon="6.42708">
        <ele>55.424213</ele>
        <time>2020-08-01T11:14:47.595Z</time>
      </trkpt>
      <trkpt lat="62.61021" lon="6.42729">
        <ele>55.336491</ele>
        <time>2020-08-01T11:14:49.608Z</time>
      </trkpt>
      <trkpt lat="62.61018" lon="6.4275">
        <ele>55.244059</ele>
        <time>2020-08-01T11:14:51.592Z</time>
      </trkpt>
      <trkpt lat="62.61013" lon="6.42772">
        <ele>55.141841</ele>
        <time>2020-08-01T11:14:53.600Z</time>
      </trkpt>
      <trkpt lat="62.61007" lon="6.42792">
        <ele>55.043305</ele>
        <time>2020-08-01T11:14:55.602Z</time>
      </trkpt>
      <trkpt lat="62.61003" lon="6.42814">
        <ele>55.165332</ele>
        <time>2020-08-01T11:14:57.588Z</time>
      </trkpt>
      <trkpt lat="62.60998" lon="6.42832">
        <ele>55.652968</ele>
        <time>2020-08-01T11:14:59.601Z</time>
      </trkpt>
      <trkpt lat="62.60994" lon="6.42855">
        <ele>56.225896</ele>
        <time>2020-08-01T11:15:02.621Z</time>
      </trkpt>
      <trkpt lat="62.6099" lon="6.42878">
        <ele>56.79448</ele>
        <time>2020-08-01T11:15:05.609Z</time>
      </trkpt>
      <trkpt lat="62.60985" lon="6.429">
        <ele>57.362231</ele>
        <time>2020-08-01T11:15:08.580Z</time>
      </trkpt>
      <trkpt lat="62.60982" lon="6.42921">
        <ele>57.885921</ele>
        <time>2020-08-01T11:15:11.624Z</time>
      </trkpt>
      <trkpt lat="62.60978" lon="6.42943">
        <ele>58.431639</ele>
        <time>2020-08-01T11:15:15.605Z</time>
      </trkpt>
      <trkpt lat="62.60975" lon="6.42965">
        <ele>58.975089</ele>
        <time>2020-08-01T11:15:20.598Z</time>
      </trkpt>
      <trkpt lat="62.60974" lon="6.42985">
        <ele>59.430636</ele>
        <time>2020-08-01T11:15:25.597Z</time>
      </trkpt>
      <trkpt lat="62.60974" lon="6.43006">
        <ele>59.929586</ele>
        <time>2020-08-01T11:15:30.624Z</time>
      </trkpt>
      <trkpt lat="62.60974" lon="6.43027">
        <ele>60.430969</ele>
        <time>2020-08-01T11:15:35.598Z</time>
      </trkpt>
      <trkpt lat="62.60975" lon="6.4305">
        <ele>60.95713</ele>
        <time>2020-08-01T11:15:41.621Z</time>
      </trkpt>
      <trkpt lat="62.60975" lon="6.43072">
        <ele>61.46348</ele>
        <time>2020-08-01T11:15:47.631Z</time>
      </trkpt>
      <trkpt lat="62.60976" lon="6.43094">
        <ele>61.974992</ele>
        <time>2020-08-01T11:15:53.592Z</time>
      </trkpt>
      <trkpt lat="62.60976" lon="6.43114">
        <ele>62.46231</ele>
        <time>2020-08-01T11:15:59.593Z</time>
      </trkpt>
      <trkpt lat="62.60976" lon="6.43134">
        <ele>62.924955</ele>
        <time>2020-08-01T11:16:04.611Z</time>
      </trkpt>
      <trkpt lat="62.60977" lon="6.43156">
        <ele>63.432141</ele>
        <time>2020-08-01T11:16:10.603Z</time>
      </trkpt>
      <trkpt lat="62.60978" lon="6.43178">
        <ele>63.938297</ele>
        <time>2020-08-01T11:16:16.634Z</time>
      </trkpt>
      <trkpt lat="62.60978" lon="6.43198">
        <ele>64.489497</ele>
        <time>2020-08-01T11:16:22.626Z</time>
      </trkpt>
      <trkpt lat="62.60979" lon="6.43218">
        <ele>65.078314</ele>
        <time>2020-08-01T11:16:28.580Z</time>
      </trkpt>
      <trkpt lat="62.60979" lon="6.43241">
        <ele>65.730775</ele>
        <time>2020-08-01T11:16:34.597Z</time>
      </trkpt>
      <trkpt lat="62.6098" lon="6.43265">
        <ele>66.435394</ele>
        <time>2020-08-01T11:16:39.604Z</time>
      </trkpt>
      <trkpt lat="62.60981" lon="6.43286">
        <ele>67.044334</ele>
        <time>2020-08-01T11:16:43.629Z</time>
      </trkpt>
      <trkpt lat="62.60981" lon="6.43308">
        <ele>67.670932</ele>
        <time>2020-08-01T11:16:49.671Z</time>
      </trkpt>
      <trkpt lat="62.60982" lon="6.43329">
        <ele>68.277417</ele>
        <time>2020-08-01T11:16:55.646Z</time>
      </trkpt>
      <trkpt lat="62.60983" lon="6.4335">
        <ele>68.886965</ele>
        <time>2020-08-01T11:17:02.617Z</time>
      </trkpt>
      <trkpt lat="62.60984" lon="6.43372">
        <ele>69.50418</ele>
        <time>2020-08-01T11:17:10.588Z</time>
      </trkpt>
      <trkpt lat="62.60984" lon="6.43393">
        <ele>70.118009</ele>
        <time>2020-08-01T11:17:18.597Z</time>
      </trkpt>
      <trkpt lat="62.60983" lon="6.43413">
        <ele>70.708638</ele>
        <time>2020-08-01T11:17:25.611Z</time>
      </trkpt>
      <trkpt lat="62.60983" lon="6.43435">
        <ele>71.329962</ele>
        <time>2020-08-01T11:17:32.588Z</time>
      </trkpt>
      <trkpt lat="62.60982" lon="6.43456">
        <ele>71.936932</ele>
        <time>2020-08-01T11:17:39.624Z</time>
      </trkpt>
      <trkpt lat="62.60982" lon="6.43477">
        <ele>72.556361</ele>
        <time>2020-08-01T11:17:46.584Z</time>
      </trkpt>
      <trkpt lat="62.6098" lon="6.435">
        <ele>73.21987</ele>
        <time>2020-08-01T11:17:53.632Z</time>
      </trkpt>
      <trkpt lat="62.60979" lon="6.43521">
        <ele>73.827367</ele>
        <time>2020-08-01T11:17:59.578Z</time>
      </trkpt>
      <trkpt lat="62.60977" lon="6.43541">
        <ele>74.399699</ele>
        <time>2020-08-01T11:18:05.580Z</time>
      </trkpt>
      <trkpt lat="62.60976" lon="6.43562">
        <ele>75.013769</ele>
        <time>2020-08-01T11:18:12.618Z</time>
      </trkpt>
      <trkpt lat="62.60973" lon="6.43582">
        <ele>75.363272</ele>
        <time>2020-08-01T11:18:19.605Z</time>
      </trkpt>
      <trkpt lat="62.60971" lon="6.43601">
        <ele>75.380955</ele>
        <time>2020-08-01T11:18:24.586Z</time>
      </trkpt>
      <trkpt lat="62.60966" lon="6.43623">
        <ele>75.401721</ele>
        <time>2020-08-01T11:18:29.593Z</time>
      </trkpt>
      <trkpt lat="62.60963" lon="6.43641">
        <ele>75.418977</ele>
        <time>2020-08-01T11:18:33.585Z</time>
      </trkpt>
      <trkpt lat="62.60961" lon="6.43661">
        <ele>75.436987</ele>
        <time>2020-08-01T11:18:37.593Z</time>
      </trkpt>
      <trkpt lat="62.60958" lon="6.43685">
        <ele>75.458717</ele>
        <time>2020-08-01T11:18:41.593Z</time>
      </trkpt>
      <trkpt lat="62.60953" lon="6.43702">
        <ele>75.476419</ele>
        <time>2020-08-01T11:18:44.601Z</time>
      </trkpt>
      <trkpt lat="62.60947" lon="6.43721">
        <ele>75.496167</ele>
        <time>2020-08-01T11:18:47.600Z</time>
      </trkpt>
      <trkpt lat="62.60942" lon="6.43739">
        <ele>75.514617</ele>
        <time>2020-08-01T11:18:50.617Z</time>
      </trkpt>
      <trkpt lat="62.60936" lon="6.4376">
        <ele>75.5367</ele>
        <time>2020-08-01T11:18:54.585Z</time>
      </trkpt>
      <trkpt lat="62.60931" lon="6.43777">
        <ele>75.554778</ele>
        <time>2020-08-01T11:18:58.589Z</time>
      </trkpt>
      <trkpt lat="62.60925" lon="6.43796">
        <ele>75.575326</ele>
        <time>2020-08-01T11:19:02.587Z</time>
      </trkpt>
      <trkpt lat="62.60918" lon="6.43812">
        <ele>75.594995</ele>
        <time>2020-08-01T11:19:05.585Z</time>
      </trkpt>
      <trkpt lat="62.60907" lon="6.43829">
        <ele>75.619792</ele>
        <time>2020-08-01T11:19:08.599Z</time>
      </trkpt>
      <trkpt lat="62.60895" lon="6.43839">
        <ele>75.64443</ele>
        <time>2020-08-01T11:19:11.587Z</time>
      </trkpt>
      <trkpt lat="62.60883" lon="6.43842">
        <ele>75.668362</ele>
        <time>2020-08-01T11:19:14.593Z</time>
      </trkpt>
      <trkpt lat="62.60871" lon="6.43848">
        <ele>75.692572</ele>
        <time>2020-08-01T11:19:17.596Z</time>
      </trkpt>
      <trkpt lat="62.60861" lon="6.43856">
        <ele>75.288016</ele>
        <time>2020-08-01T11:19:19.605Z</time>
      </trkpt>
      <trkpt lat="62.60847" lon="6.43864">
        <ele>74.459605</ele>
        <time>2020-08-01T11:19:21.591Z</time>
      </trkpt>
      <trkpt lat="62.60831" lon="6.43872">
        <ele>73.522818</ele>
        <time>2020-08-01T11:19:23.587Z</time>
      </trkpt>
      <trkpt lat="62.60814" lon="6.43881">
        <ele>72.487998</ele>
        <time>2020-08-01T11:19:25.576Z</time>
      </trkpt>
      <trkpt lat="62.60804" lon="6.43886">
        <ele>71.905063</ele>
        <time>2020-08-01T11:19:26.611Z</time>
      </trkpt>
      <trkpt lat="62.60794" lon="6.43892">
        <ele>71.296878</ele>
        <time>2020-08-01T11:19:27.608Z</time>
      </trkpt>
      <trkpt lat="62.60784" lon="6.43897">
        <ele>70.683037</ele>
        <time>2020-08-01T11:19:28.636Z</time>
      </trkpt>
      <trkpt lat="62.60773" lon="6.43903">
        <ele>70.050243</ele>
        <time>2020-08-01T11:19:29.600Z</time>
      </trkpt>
      <trkpt lat="62.60763" lon="6.4391">
        <ele>69.425184</ele>
        <time>2020-08-01T11:19:30.584Z</time>
      </trkpt>
      <trkpt lat="62.60753" lon="6.43916">
        <ele>68.812818</ele>
        <time>2020-08-01T11:19:31.593Z</time>
      </trkpt>
      <trkpt lat="62.60744" lon="6.43922">
        <ele>68.238865</ele>
        <time>2020-08-01T11:19:32.589Z</time>
      </trkpt>
      <trkpt lat="62.60735" lon="6.43927">
        <ele>67.701134</ele>
        <time>2020-08-01T11:19:33.593Z</time>
      </trkpt>
      <trkpt lat="62.60719" lon="6.43932">
        <ele>66.763743</ele>
        <time>2020-08-01T11:19:35.583Z</time>
      </trkpt>
      <trkpt lat="62.60706" lon="6.43934">
        <ele>66.003683</ele>
        <time>2020-08-01T11:19:37.593Z</time>
      </trkpt>
      <trkpt lat="62.60696" lon="6.43935">
        <ele>65.454556</ele>
        <time>2020-08-01T11:19:39.623Z</time>
      </trkpt>
      <trkpt lat="62.60686" lon="6.43935">
        <ele>64.868058</ele>
        <time>2020-08-01T11:19:42.587Z</time>
      </trkpt>
      <trkpt lat="62.6066" lon="6.43946">
        <ele>63.4044</ele>
        <time>2020-08-01T11:20:14.603Z</time>
      </trkpt>
      <trkpt lat="62.60651" lon="6.43952">
        <ele>62.865309</ele>
        <time>2020-08-01T11:20:16.627Z</time>
      </trkpt>
      <trkpt lat="62.6064" lon="6.43962">
        <ele>62.185736</ele>
        <time>2020-08-01T11:20:19.589Z</time>
      </trkpt>
      <trkpt lat="62.60631" lon="6.43965">
        <ele>61.677897</ele>
        <time>2020-08-01T11:20:21.585Z</time>
      </trkpt>
      <trkpt lat="62.60619" lon="6.43966">
        <ele>60.98383</ele>
        <time>2020-08-01T11:20:24.600Z</time>
      </trkpt>
      <trkpt lat="62.60609" lon="6.4397">
        <ele>60.450902</ele>
        <time>2020-08-01T11:20:26.633Z</time>
      </trkpt>
      <trkpt lat="62.60599" lon="6.43972">
        <ele>59.872246</ele>
        <time>2020-08-01T11:20:28.598Z</time>
      </trkpt>
      <trkpt lat="62.60588" lon="6.43977">
        <ele>59.233211</ele>
        <time>2020-08-01T11:20:30.599Z</time>
      </trkpt>
      <trkpt lat="62.60579" lon="6.43986">
        <ele>58.672011</ele>
        <time>2020-08-01T11:20:33.589Z</time>
      </trkpt>
      <trkpt lat="62.60573" lon="6.44007">
        <ele>58.04387</ele>
        <time>2020-08-01T11:20:37.592Z</time>
      </trkpt>
      <trkpt lat="62.60569" lon="6.44026">
        <ele>57.512125</ele>
        <time>2020-08-01T11:20:40.624Z</time>
      </trkpt>
      <trkpt lat="62.60563" lon="6.44041">
        <ele>56.994399</ele>
        <time>2020-08-01T11:20:42.610Z</time>
      </trkpt>
      <trkpt lat="62.60556" lon="6.44057">
        <ele>56.4433</ele>
        <time>2020-08-01T11:20:44.585Z</time>
      </trkpt>
      <trkpt lat="62.60547" lon="6.44073">
        <ele>55.777747</ele>
        <time>2020-08-01T11:20:47.587Z</time>
      </trkpt>
      <trkpt lat="62.60535" lon="6.44077">
        <ele>55.152518</ele>
        <time>2020-08-01T11:20:51.579Z</time>
      </trkpt>
      <trkpt lat="62.60524" lon="6.44077">
        <ele>55.471426</ele>
        <time>2020-08-01T11:20:55.646Z</time>
      </trkpt>
      <trkpt lat="62.60514" lon="6.44078">
        <ele>55.754639</ele>
        <time>2020-08-01T11:20:58.586Z</time>
      </trkpt>
      <trkpt lat="62.60504" lon="6.44081">
        <ele>56.018152</ele>
        <time>2020-08-01T11:21:01.597Z</time>
      </trkpt>
      <trkpt lat="62.60496" lon="6.44098">
        <ele>56.325689</ele>
        <time>2020-08-01T11:21:05.616Z</time>
      </trkpt>
      <trkpt lat="62.60506" lon="6.44108">
        <ele>56.633978</ele>
        <time>2020-08-01T11:21:09.596Z</time>
      </trkpt>
      <trkpt lat="62.60515" lon="6.44104">
        <ele>56.88917</ele>
        <time>2020-08-01T11:21:12.590Z</time>
      </trkpt>
      <trkpt lat="62.60526" lon="6.44101">
        <ele>57.177881</ele>
        <time>2020-08-01T11:21:15.584Z</time>
      </trkpt>
      <trkpt lat="62.60536" lon="6.44099">
        <ele>57.475426</ele>
        <time>2020-08-01T11:21:18.594Z</time>
      </trkpt>
      <trkpt lat="62.60547" lon="6.44099">
        <ele>57.753273</ele>
        <time>2020-08-01T11:21:21.612Z</time>
      </trkpt>
      <trkpt lat="62.60555" lon="6.44098">
        <ele>57.997934</ele>
        <time>2020-08-01T11:21:24.579Z</time>
      </trkpt>
      <trkpt lat="62.60565" lon="6.44098">
        <ele>58.248142</ele>
        <time>2020-08-01T11:21:27.594Z</time>
      </trkpt>
      <trkpt lat="62.60576" lon="6.44101">
        <ele>58.555291</ele>
        <time>2020-08-01T11:21:31.597Z</time>
      </trkpt>
      <trkpt lat="62.60585" lon="6.44102">
        <ele>58.822678</ele>
        <time>2020-08-01T11:21:34.582Z</time>
      </trkpt>
      <trkpt lat="62.60596" lon="6.44107">
        <ele>59.113044</ele>
        <time>2020-08-01T11:21:37.585Z</time>
      </trkpt>
      <trkpt lat="62.60606" lon="6.44114">
        <ele>59.417554</ele>
        <time>2020-08-01T11:21:40.614Z</time>
      </trkpt>
      <trkpt lat="62.60617" lon="6.44122">
        <ele>59.725158</ele>
        <time>2020-08-01T11:21:43.596Z</time>
      </trkpt>
      <trkpt lat="62.60627" lon="6.4413">
        <ele>60.016366</ele>
        <time>2020-08-01T11:21:46.587Z</time>
      </trkpt>
      <trkpt lat="62.60636" lon="6.44141">
        <ele>60.284619</ele>
        <time>2020-08-01T11:21:49.607Z</time>
      </trkpt>
      <trkpt lat="62.60645" lon="6.44153">
        <ele>60.554705</ele>
        <time>2020-08-01T11:21:52.604Z</time>
      </trkpt>
      <trkpt lat="62.60655" lon="6.44167">
        <ele>60.841693</ele>
        <time>2020-08-01T11:21:55.587Z</time>
      </trkpt>
      <trkpt lat="62.60664" lon="6.44182">
        <ele>61.123841</ele>
        <time>2020-08-01T11:21:58.583Z</time>
      </trkpt>
      <trkpt lat="62.60674" lon="6.44202">
        <ele>61.461979</ele>
        <time>2020-08-01T11:22:01.642Z</time>
      </trkpt>
      <trkpt lat="62.60681" lon="6.44216">
        <ele>61.686653</ele>
        <time>2020-08-01T11:22:03.590Z</time>
      </trkpt>
      <trkpt lat="62.60688" lon="6.44232">
        <ele>61.937254</ele>
        <time>2020-08-01T11:22:05.582Z</time>
      </trkpt>
      <trkpt lat="62.60694" lon="6.44249">
        <ele>62.17922</ele>
        <time>2020-08-01T11:22:07.599Z</time>
      </trkpt>
      <trkpt lat="62.607" lon="6.44266">
        <ele>62.427185</ele>
        <time>2020-08-01T11:22:09.599Z</time>
      </trkpt>
      <trkpt lat="62.60706" lon="6.44284">
        <ele>62.679825</ele>
        <time>2020-08-01T11:22:11.588Z</time>
      </trkpt>
      <trkpt lat="62.60711" lon="6.44304">
        <ele>62.93974</ele>
        <time>2020-08-01T11:22:13.586Z</time>
      </trkpt>
      <trkpt lat="62.60716" lon="6.44326">
        <ele>63.219112</ele>
        <time>2020-08-01T11:22:15.620Z</time>
      </trkpt>
      <trkpt lat="62.6072" lon="6.44351">
        <ele>63.521434</ele>
        <time>2020-08-01T11:22:17.594Z</time>
      </trkpt>
      <trkpt lat="62.60724" lon="6.44375">
        <ele>63.819668</ele>
        <time>2020-08-01T11:22:19.607Z</time>
      </trkpt>
      <trkpt lat="62.60727" lon="6.444">
        <ele>64.11566</ele>
        <time>2020-08-01T11:22:21.584Z</time>
      </trkpt>
      <trkpt lat="62.60731" lon="6.44427">
        <ele>64.428801</ele>
        <time>2020-08-01T11:22:23.591Z</time>
      </trkpt>
      <trkpt lat="62.60734" lon="6.44455">
        <ele>63.796429</ele>
        <time>2020-08-01T11:22:25.610Z</time>
      </trkpt>
      <trkpt lat="62.60738" lon="6.44484">
        <ele>62.659441</ele>
        <time>2020-08-01T11:22:27.602Z</time>
      </trkpt>
      <trkpt lat="62.60741" lon="6.44513">
        <ele>61.500147</ele>
        <time>2020-08-01T11:22:29.593Z</time>
      </trkpt>
      <trkpt lat="62.60744" lon="6.44541">
        <ele>60.394963</ele>
        <time>2020-08-01T11:22:31.600Z</time>
      </trkpt>
      <trkpt lat="62.60747" lon="6.44569">
        <ele>59.292004</ele>
        <time>2020-08-01T11:22:33.592Z</time>
      </trkpt>
      <trkpt lat="62.6075" lon="6.44597">
        <ele>58.203079</ele>
        <time>2020-08-01T11:22:35.603Z</time>
      </trkpt>
      <trkpt lat="62.60752" lon="6.44624">
        <ele>57.133615</ele>
        <time>2020-08-01T11:22:37.613Z</time>
      </trkpt>
      <trkpt lat="62.60754" lon="6.44648">
        <ele>56.212976</ele>
        <time>2020-08-01T11:22:39.614Z</time>
      </trkpt>
      <trkpt lat="62.60755" lon="6.44675">
        <ele>55.163841</ele>
        <time>2020-08-01T11:22:41.592Z</time>
      </trkpt>
      <trkpt lat="62.60756" lon="6.44699">
        <ele>54.236212</ele>
        <time>2020-08-01T11:22:43.593Z</time>
      </trkpt>
      <trkpt lat="62.60758" lon="6.44722">
        <ele>53.369015</ele>
        <time>2020-08-01T11:22:45.598Z</time>
      </trkpt>
      <trkpt lat="62.6076" lon="6.44747">
        <ele>52.378944</ele>
        <time>2020-08-01T11:22:48.599Z</time>
      </trkpt>
      <trkpt lat="62.60763" lon="6.44771">
        <ele>51.431357</ele>
        <time>2020-08-01T11:22:52.604Z</time>
      </trkpt>
      <trkpt lat="62.60769" lon="6.4479">
        <ele>50.54408</ele>
        <time>2020-08-01T11:22:56.605Z</time>
      </trkpt>
      <trkpt lat="62.60775" lon="6.4481">
        <ele>49.612495</ele>
        <time>2020-08-01T11:23:00.610Z</time>
      </trkpt>
      <trkpt lat="62.60783" lon="6.44838">
        <ele>49.704735</ele>
        <time>2020-08-01T11:24:45.595Z</time>
      </trkpt>
      <trkpt lat="62.60782" lon="6.44818">
        <ele>49.810782</ele>
        <time>2020-08-01T11:26:07.584Z</time>
      </trkpt>
      <trkpt lat="62.6078" lon="6.44799">
        <ele>49.912389</ele>
        <time>2020-08-01T11:26:20.617Z</time>
      </trkpt>
      <trkpt lat="62.60783" lon="6.44818">
        <ele>50.015129</ele>
        <time>2020-08-01T11:28:45.594Z</time>
      </trkpt>
      <trkpt lat="62.60795" lon="6.44807">
        <ele>50.166393</ele>
        <time>2020-08-01T11:54:46.930Z</time>
      </trkpt>
      <trkpt lat="62.6079" lon="6.44826">
        <ele>50.284179</ele>
        <time>2020-08-01T11:54:49.919Z</time>
      </trkpt>
      <trkpt lat="62.60786" lon="6.44845">
        <ele>50.389056</ele>
        <time>2020-08-01T11:54:55.922Z</time>
      </trkpt>
      <trkpt lat="62.60786" lon="6.44866">
        <ele>50.502411</ele>
        <time>2020-08-01T11:55:08.932Z</time>
      </trkpt>
      <trkpt lat="62.60789" lon="6.44888">
        <ele>50.618829</ele>
        <time>2020-08-01T11:55:14.934Z</time>
      </trkpt>
      <trkpt lat="62.60793" lon="6.44906">
        <ele>50.723248</ele>
        <time>2020-08-01T11:55:18.921Z</time>
      </trkpt>
      <trkpt lat="62.608" lon="6.4492">
        <ele>50.827207</ele>
        <time>2020-08-01T11:55:34.927Z</time>
      </trkpt>
      <trkpt lat="62.63825" lon="6.52897">
        <ele>48.424593</ele>
        <time>2020-08-01T12:15:57.385Z</time>
      </trkpt>
      <trkpt lat="62.63828" lon="6.52861">
        <ele>48.653605</ele>
        <time>2020-08-01T12:16:00.541Z</time>
      </trkpt>
      <trkpt lat="62.6384" lon="6.52867">
        <ele>48.827381</ele>
        <time>2020-08-01T12:16:01.513Z</time>
      </trkpt>
      <trkpt lat="62.63849" lon="6.52856">
        <ele>48.966453</ele>
        <time>2020-08-01T12:16:04.515Z</time>
      </trkpt>
      <trkpt lat="62.63858" lon="6.52847">
        <ele>49.105429</ele>
        <time>2020-08-01T12:16:07.518Z</time>
      </trkpt>
      <trkpt lat="62.63867" lon="6.52833">
        <ele>49.250597</ele>
        <time>2020-08-01T12:16:10.510Z</time>
      </trkpt>
      <trkpt lat="62.63873" lon="6.52818">
        <ele>49.377641</ele>
        <time>2020-08-01T12:16:13.510Z</time>
      </trkpt>
      <trkpt lat="62.6388" lon="6.52804">
        <ele>49.506395</ele>
        <time>2020-08-01T12:16:17.524Z</time>
      </trkpt>
      <trkpt lat="62.63886" lon="6.52787">
        <ele>49.642514</ele>
        <time>2020-08-01T12:16:21.525Z</time>
      </trkpt>
      <trkpt lat="62.63893" lon="6.52771">
        <ele>49.777362</ele>
        <time>2020-08-01T12:16:25.513Z</time>
      </trkpt>
      <trkpt lat="62.639" lon="6.52758">
        <ele>49.905308</ele>
        <time>2020-08-01T12:16:29.519Z</time>
      </trkpt>
      <trkpt lat="62.63907" lon="6.52742">
        <ele>50.038778</ele>
        <time>2020-08-01T12:16:33.523Z</time>
      </trkpt>
      <trkpt lat="62.63911" lon="6.52726">
        <ele>50.162851</ele>
        <time>2020-08-01T12:16:37.506Z</time>
      </trkpt>
      <trkpt lat="62.63915" lon="6.52703">
        <ele>50.311244</ele>
        <time>2020-08-01T12:16:42.549Z</time>
      </trkpt>
      <trkpt lat="62.63919" lon="6.52681">
        <ele>50.458653</ele>
        <time>2020-08-01T12:16:46.511Z</time>
      </trkpt>
      <trkpt lat="62.63924" lon="6.52661">
        <ele>50.600902</ele>
        <time>2020-08-01T12:16:50.525Z</time>
      </trkpt>
      <trkpt lat="62.63928" lon="6.52641">
        <ele>50.667331</ele>
        <time>2020-08-01T12:16:59.524Z</time>
      </trkpt>
      <trkpt lat="62.63934" lon="6.52623">
        <ele>50.498315</ele>
        <time>2020-08-01T12:17:05.524Z</time>
      </trkpt>
      <trkpt lat="62.63935" lon="6.52601">
        <ele>50.325153</ele>
        <time>2020-08-01T12:17:11.513Z</time>
      </trkpt>
      <trkpt lat="62.63936" lon="6.52581">
        <ele>50.173735</ele>
        <time>2020-08-01T12:17:17.508Z</time>
      </trkpt>
      <trkpt lat="62.63938" lon="6.52558">
        <ele>49.993199</ele>
        <time>2020-08-01T12:17:23.508Z</time>
      </trkpt>
      <trkpt lat="62.63941" lon="6.52534">
        <ele>49.80141</ele>
        <time>2020-08-01T12:17:28.498Z</time>
      </trkpt>
      <trkpt lat="62.63946" lon="6.52511">
        <ele>49.600133</ele>
        <time>2020-08-01T12:17:32.525Z</time>
      </trkpt>
      <trkpt lat="62.63952" lon="6.52494">
        <ele>49.43007</ele>
        <time>2020-08-01T12:17:36.576Z</time>
      </trkpt>
      <trkpt lat="62.63958" lon="6.52478">
        <ele>49.270111</ele>
        <time>2020-08-01T12:17:43.545Z</time>
      </trkpt>
      <trkpt lat="62.63963" lon="6.52458">
        <ele>49.103224</ele>
        <time>2020-08-01T12:17:50.527Z</time>
      </trkpt>
      <trkpt lat="62.63966" lon="6.52437">
        <ele>48.933013</ele>
        <time>2020-08-01T12:17:57.529Z</time>
      </trkpt>
      <trkpt lat="62.63972" lon="6.52422">
        <ele>48.774485</ele>
        <time>2020-08-01T12:18:03.506Z</time>
      </trkpt>
      <trkpt lat="62.63979" lon="6.52407">
        <ele>48.615343</ele>
        <time>2020-08-01T12:18:08.537Z</time>
      </trkpt>
      <trkpt lat="62.63984" lon="6.52391">
        <ele>48.465037</ele>
        <time>2020-08-01T12:18:17.569Z</time>
      </trkpt>
      <trkpt lat="62.63983" lon="6.52344">
        <ele>48.105108</ele>
        <time>2020-08-01T12:20:27.543Z</time>
      </trkpt>
      <trkpt lat="62.63985" lon="6.52324">
        <ele>47.944155</ele>
        <time>2020-08-01T12:20:30.546Z</time>
      </trkpt>
      <trkpt lat="62.63995" lon="6.52327">
        <ele>47.769225</ele>
        <time>2020-08-01T12:20:35.520Z</time>
      </trkpt>
      <trkpt lat="62.63998" lon="6.52345">
        <ele>47.837045</ele>
        <time>2020-08-01T12:20:39.532Z</time>
      </trkpt>
      <trkpt lat="62.64001" lon="6.52371">
        <ele>48.264282</ele>
        <time>2020-08-01T12:20:43.525Z</time>
      </trkpt>
      <trkpt lat="62.64003" lon="6.52392">
        <ele>48.618317</ele>
        <time>2020-08-01T12:20:46.547Z</time>
      </trkpt>
      <trkpt lat="62.64006" lon="6.52414">
        <ele>48.992852</ele>
        <time>2020-08-01T12:20:49.523Z</time>
      </trkpt>
      <trkpt lat="62.64011" lon="6.52436">
        <ele>49.39942</ele>
        <time>2020-08-01T12:20:52.535Z</time>
      </trkpt>
      <trkpt lat="62.64015" lon="6.52461">
        <ele>49.831661</ele>
        <time>2020-08-01T12:20:55.523Z</time>
      </trkpt>
      <trkpt lat="62.64019" lon="6.52487">
        <ele>50.28172</ele>
        <time>2020-08-01T12:20:58.547Z</time>
      </trkpt>
      <trkpt lat="62.64023" lon="6.52512">
        <ele>50.706585</ele>
        <time>2020-08-01T12:21:01.546Z</time>
      </trkpt>
      <trkpt lat="62.64026" lon="6.52538">
        <ele>51.14577</ele>
        <time>2020-08-01T12:21:04.538Z</time>
      </trkpt>
      <trkpt lat="62.6403" lon="6.52563">
        <ele>51.583155</ele>
        <time>2020-08-01T12:21:07.530Z</time>
      </trkpt>
      <trkpt lat="62.64034" lon="6.52589">
        <ele>52.025499</ele>
        <time>2020-08-01T12:21:10.575Z</time>
      </trkpt>
      <trkpt lat="62.64039" lon="6.52615">
        <ele>52.482177</ele>
        <time>2020-08-01T12:21:13.537Z</time>
      </trkpt>
      <trkpt lat="62.64043" lon="6.5264">
        <ele>52.924415</ele>
        <time>2020-08-01T12:21:16.523Z</time>
      </trkpt>
      <trkpt lat="62.64049" lon="6.52664">
        <ele>53.353114</ele>
        <time>2020-08-01T12:21:19.562Z</time>
      </trkpt>
      <trkpt lat="62.64051" lon="6.52683">
        <ele>53.675983</ele>
        <time>2020-08-01T12:21:21.543Z</time>
      </trkpt>
      <trkpt lat="62.64053" lon="6.52702">
        <ele>54.000392</ele>
        <time>2020-08-01T12:21:23.546Z</time>
      </trkpt>
      <trkpt lat="62.64056" lon="6.52729">
        <ele>54.194931</ele>
        <time>2020-08-01T12:21:26.526Z</time>
      </trkpt>
      <trkpt lat="62.6406" lon="6.52753">
        <ele>54.33215</ele>
        <time>2020-08-01T12:21:29.536Z</time>
      </trkpt>
      <trkpt lat="62.64065" lon="6.52779">
        <ele>54.476219</ele>
        <time>2020-08-01T12:21:32.561Z</time>
      </trkpt>
      <trkpt lat="62.64069" lon="6.52804">
        <ele>54.617164</ele>
        <time>2020-08-01T12:21:35.524Z</time>
      </trkpt>
      <trkpt lat="62.64072" lon="6.52829">
        <ele>54.754609</ele>
        <time>2020-08-01T12:21:38.524Z</time>
      </trkpt>
      <trkpt lat="62.64076" lon="6.52853">
        <ele>54.889449</ele>
        <time>2020-08-01T12:21:41.538Z</time>
      </trkpt>
      <trkpt lat="62.6408" lon="6.52876">
        <ele>55.015704</ele>
        <time>2020-08-01T12:21:44.556Z</time>
      </trkpt>
      <trkpt lat="62.64084" lon="6.52898">
        <ele>55.14222</ele>
        <time>2020-08-01T12:21:47.537Z</time>
      </trkpt>
      <trkpt lat="62.64087" lon="6.5292">
        <ele>55.265958</ele>
        <time>2020-08-01T12:21:50.522Z</time>
      </trkpt>
      <trkpt lat="62.6409" lon="6.52943">
        <ele>55.392377</ele>
        <time>2020-08-01T12:21:53.525Z</time>
      </trkpt>
      <trkpt lat="62.64094" lon="6.52965">
        <ele>55.515443</ele>
        <time>2020-08-01T12:21:56.560Z</time>
      </trkpt>
      <trkpt lat="62.64098" lon="6.52987">
        <ele>55.641683</ele>
        <time>2020-08-01T12:21:59.529Z</time>
      </trkpt>
      <trkpt lat="62.64103" lon="6.53008">
        <ele>55.766981</ele>
        <time>2020-08-01T12:22:02.529Z</time>
      </trkpt>
      <trkpt lat="62.64109" lon="6.53029">
        <ele>55.895343</ele>
        <time>2020-08-01T12:22:05.527Z</time>
      </trkpt>
      <trkpt lat="62.64114" lon="6.5305">
        <ele>56.019693</ele>
        <time>2020-08-01T12:22:08.524Z</time>
      </trkpt>
      <trkpt lat="62.64118" lon="6.53071">
        <ele>56.140161</ele>
        <time>2020-08-01T12:22:11.534Z</time>
      </trkpt>
      <trkpt lat="62.64122" lon="6.5309">
        <ele>56.153508</ele>
        <time>2020-08-01T12:22:14.543Z</time>
      </trkpt>
      <trkpt lat="62.64127" lon="6.53109">
        <ele>56.165766</ele>
        <time>2020-08-01T12:22:17.540Z</time>
      </trkpt>
      <trkpt lat="62.64132" lon="6.53128">
        <ele>56.177759</ele>
        <time>2020-08-01T12:22:20.553Z</time>
      </trkpt>
      <trkpt lat="62.64136" lon="6.53151">
        <ele>56.191625</ele>
        <time>2020-08-01T12:22:23.519Z</time>
      </trkpt>
      <trkpt lat="62.64141" lon="6.53172">
        <ele>56.205189</ele>
        <time>2020-08-01T12:22:26.561Z</time>
      </trkpt>
      <trkpt lat="62.64146" lon="6.53194">
        <ele>56.218814</ele>
        <time>2020-08-01T12:22:29.547Z</time>
      </trkpt>
      <trkpt lat="62.6415" lon="6.53215">
        <ele>56.231979</ele>
        <time>2020-08-01T12:22:32.537Z</time>
      </trkpt>
      <trkpt lat="62.64155" lon="6.53238">
        <ele>56.245745</ele>
        <time>2020-08-01T12:22:35.543Z</time>
      </trkpt>
      <trkpt lat="62.6416" lon="6.53258">
        <ele>56.258557</ele>
        <time>2020-08-01T12:22:38.541Z</time>
      </trkpt>
      <trkpt lat="62.64165" lon="6.53279">
        <ele>56.271775</ele>
        <time>2020-08-01T12:22:41.556Z</time>
      </trkpt>
      <trkpt lat="62.6417" lon="6.53299">
        <ele>56.284753</ele>
        <time>2020-08-01T12:22:44.551Z</time>
      </trkpt>
      <trkpt lat="62.64175" lon="6.5332">
        <ele>56.297864</ele>
        <time>2020-08-01T12:22:47.538Z</time>
      </trkpt>
      <trkpt lat="62.6418" lon="6.5334">
        <ele>56.311197</ele>
        <time>2020-08-01T12:22:50.546Z</time>
      </trkpt>
      <trkpt lat="62.64185" lon="6.5336">
        <ele>56.324067</ele>
        <time>2020-08-01T12:22:53.538Z</time>
      </trkpt>
      <trkpt lat="62.6419" lon="6.5338">
        <ele>56.336603</ele>
        <time>2020-08-01T12:22:56.562Z</time>
      </trkpt>
      <trkpt lat="62.64195" lon="6.53399">
        <ele>56.348993</ele>
        <time>2020-08-01T12:22:59.558Z</time>
      </trkpt>
      <trkpt lat="62.64201" lon="6.53418">
        <ele>56.361733</ele>
        <time>2020-08-01T12:23:02.562Z</time>
      </trkpt>
      <trkpt lat="62.64207" lon="6.53437">
        <ele>56.312476</ele>
        <time>2020-08-01T12:23:05.545Z</time>
      </trkpt>
      <trkpt lat="62.64213" lon="6.53455">
        <ele>56.263781</ele>
        <time>2020-08-01T12:23:08.541Z</time>
      </trkpt>
      <trkpt lat="62.64218" lon="6.53473">
        <ele>56.216978</ele>
        <time>2020-08-01T12:23:11.525Z</time>
      </trkpt>
      <trkpt lat="62.64224" lon="6.53491">
        <ele>56.16853</ele>
        <time>2020-08-01T12:23:14.552Z</time>
      </trkpt>
      <trkpt lat="62.6423" lon="6.53511">
        <ele>56.116218</ele>
        <time>2020-08-01T12:23:17.564Z</time>
      </trkpt>
      <trkpt lat="62.64236" lon="6.53531">
        <ele>56.062924</ele>
        <time>2020-08-01T12:23:20.518Z</time>
      </trkpt>
      <trkpt lat="62.64242" lon="6.53551">
        <ele>56.012543</ele>
        <time>2020-08-01T12:23:23.542Z</time>
      </trkpt>
      <trkpt lat="62.64247" lon="6.53571">
        <ele>55.960492</ele>
        <time>2020-08-01T12:23:26.569Z</time>
      </trkpt>
      <trkpt lat="62.64254" lon="6.53592">
        <ele>55.905936</ele>
        <time>2020-08-01T12:23:29.531Z</time>
      </trkpt>
      <trkpt lat="62.6426" lon="6.53613">
        <ele>55.848946</ele>
        <time>2020-08-01T12:23:32.565Z</time>
      </trkpt>
      <trkpt lat="62.64267" lon="6.53635">
        <ele>55.791213</ele>
        <time>2020-08-01T12:23:35.527Z</time>
      </trkpt>
      <trkpt lat="62.64275" lon="6.53657">
        <ele>55.731211</ele>
        <time>2020-08-01T12:23:38.531Z</time>
      </trkpt>
      <trkpt lat="62.64282" lon="6.53681">
        <ele>55.666723</ele>
        <time>2020-08-01T12:23:41.535Z</time>
      </trkpt>
      <trkpt lat="62.64288" lon="6.53698">
        <ele>55.621183</ele>
        <time>2020-08-01T12:23:43.563Z</time>
      </trkpt>
      <trkpt lat="62.64294" lon="6.53717">
        <ele>55.571925</ele>
        <time>2020-08-01T12:23:45.522Z</time>
      </trkpt>
      <trkpt lat="62.64299" lon="6.53737">
        <ele>55.519867</ele>
        <time>2020-08-01T12:23:47.563Z</time>
      </trkpt>
      <trkpt lat="62.64305" lon="6.53758">
        <ele>55.386353</ele>
        <time>2020-08-01T12:23:49.538Z</time>
      </trkpt>
      <trkpt lat="62.6431" lon="6.5378">
        <ele>55.223878</ele>
        <time>2020-08-01T12:23:51.526Z</time>
      </trkpt>
      <trkpt lat="62.64316" lon="6.53802">
        <ele>55.053366</ele>
        <time>2020-08-01T12:23:53.531Z</time>
      </trkpt>
      <trkpt lat="62.64322" lon="6.53824">
        <ele>54.887632</ele>
        <time>2020-08-01T12:23:55.541Z</time>
      </trkpt>
      <trkpt lat="62.64328" lon="6.53845">
        <ele>54.721609</ele>
        <time>2020-08-01T12:23:57.541Z</time>
      </trkpt>
      <trkpt lat="62.64333" lon="6.53868">
        <ele>54.551796</ele>
        <time>2020-08-01T12:23:59.583Z</time>
      </trkpt>
      <trkpt lat="62.64338" lon="6.53889">
        <ele>54.391263</ele>
        <time>2020-08-01T12:24:01.523Z</time>
      </trkpt>
      <trkpt lat="62.64343" lon="6.5391">
        <ele>54.233679</ele>
        <time>2020-08-01T12:24:03.541Z</time>
      </trkpt>
      <trkpt lat="62.64349" lon="6.53931">
        <ele>54.07459</ele>
        <time>2020-08-01T12:24:05.569Z</time>
      </trkpt>
      <trkpt lat="62.64354" lon="6.5395">
        <ele>53.929038</ele>
        <time>2020-08-01T12:24:07.526Z</time>
      </trkpt>
      <trkpt lat="62.64359" lon="6.53968">
        <ele>53.788719</ele>
        <time>2020-08-01T12:24:09.540Z</time>
      </trkpt>
      <trkpt lat="62.64364" lon="6.53987">
        <ele>53.646663</ele>
        <time>2020-08-01T12:24:11.554Z</time>
      </trkpt>
      <trkpt lat="62.64368" lon="6.54005">
        <ele>53.508536</ele>
        <time>2020-08-01T12:24:13.573Z</time>
      </trkpt>
      <trkpt lat="62.64372" lon="6.54023">
        <ele>53.37535</ele>
        <time>2020-08-01T12:24:15.538Z</time>
      </trkpt>
      <trkpt lat="62.64376" lon="6.54041">
        <ele>53.241341</ele>
        <time>2020-08-01T12:24:17.530Z</time>
      </trkpt>
      <trkpt lat="62.64383" lon="6.54065">
        <ele>53.05275</ele>
        <time>2020-08-01T12:24:20.546Z</time>
      </trkpt>
      <trkpt lat="62.64389" lon="6.5409">
        <ele>52.890922</ele>
        <time>2020-08-01T12:24:23.519Z</time>
      </trkpt>
      <trkpt lat="62.64394" lon="6.54107">
        <ele>52.865676</ele>
        <time>2020-08-01T12:24:25.541Z</time>
      </trkpt>
      <trkpt lat="62.644" lon="6.54133">
        <ele>52.827939</ele>
        <time>2020-08-01T12:24:28.573Z</time>
      </trkpt>
      <trkpt lat="62.64407" lon="6.54157">
        <ele>52.791715</ele>
        <time>2020-08-01T12:24:31.560Z</time>
      </trkpt>
      <trkpt lat="62.64412" lon="6.54182">
        <ele>52.755329</ele>
        <time>2020-08-01T12:24:34.563Z</time>
      </trkpt>
      <trkpt lat="62.64419" lon="6.54206">
        <ele>52.719445</ele>
        <time>2020-08-01T12:24:37.532Z</time>
      </trkpt>
      <trkpt lat="62.64424" lon="6.54231">
        <ele>52.683774</ele>
        <time>2020-08-01T12:24:40.530Z</time>
      </trkpt>
      <trkpt lat="62.64431" lon="6.54256">
        <ele>52.646208</ele>
        <time>2020-08-01T12:24:43.526Z</time>
      </trkpt>
      <trkpt lat="62.64435" lon="6.54274">
        <ele>52.620049</ele>
        <time>2020-08-01T12:24:45.532Z</time>
      </trkpt>
      <trkpt lat="62.64439" lon="6.54293">
        <ele>52.592955</ele>
        <time>2020-08-01T12:24:47.531Z</time>
      </trkpt>
      <trkpt lat="62.64444" lon="6.54311">
        <ele>52.566189</ele>
        <time>2020-08-01T12:24:49.543Z</time>
      </trkpt>
      <trkpt lat="62.64448" lon="6.54329">
        <ele>52.539325</ele>
        <time>2020-08-01T12:24:51.530Z</time>
      </trkpt>
      <trkpt lat="62.64453" lon="6.54348">
        <ele>52.511872</ele>
        <time>2020-08-01T12:24:53.546Z</time>
      </trkpt>
      <trkpt lat="62.64457" lon="6.54366">
        <ele>52.485627</ele>
        <time>2020-08-01T12:24:55.527Z</time>
      </trkpt>
      <trkpt lat="62.64461" lon="6.54385">
        <ele>52.458746</ele>
        <time>2020-08-01T12:24:57.543Z</time>
      </trkpt>
      <trkpt lat="62.64466" lon="6.54404">
        <ele>52.430914</ele>
        <time>2020-08-01T12:24:59.564Z</time>
      </trkpt>
      <trkpt lat="62.6447" lon="6.54424">
        <ele>52.403005</ele>
        <time>2020-08-01T12:25:01.537Z</time>
      </trkpt>
      <trkpt lat="62.64474" lon="6.54444">
        <ele>52.321301</ele>
        <time>2020-08-01T12:25:03.532Z</time>
      </trkpt>
      <trkpt lat="62.64478" lon="6.54463">
        <ele>52.201547</ele>
        <time>2020-08-01T12:25:05.520Z</time>
      </trkpt>
      <trkpt lat="62.64484" lon="6.54484">
        <ele>52.07118</ele>
        <time>2020-08-01T12:25:07.540Z</time>
      </trkpt>
      <trkpt lat="62.64488" lon="6.54504">
        <ele>51.952509</ele>
        <time>2020-08-01T12:25:09.547Z</time>
      </trkpt>
      <trkpt lat="62.64492" lon="6.54524">
        <ele>51.832858</ele>
        <time>2020-08-01T12:25:11.523Z</time>
      </trkpt>
      <trkpt lat="62.64496" lon="6.54544">
        <ele>51.713198</ele>
        <time>2020-08-01T12:25:13.532Z</time>
      </trkpt>
      <trkpt lat="62.645" lon="6.54564">
        <ele>51.593547</ele>
        <time>2020-08-01T12:25:15.527Z</time>
      </trkpt>
      <trkpt lat="62.64505" lon="6.54584">
        <ele>51.472413</ele>
        <time>2020-08-01T12:25:17.559Z</time>
      </trkpt>
      <trkpt lat="62.64509" lon="6.54604">
        <ele>51.354234</ele>
        <time>2020-08-01T12:25:19.540Z</time>
      </trkpt>
      <trkpt lat="62.64513" lon="6.54623">
        <ele>51.238037</ele>
        <time>2020-08-01T12:25:21.553Z</time>
      </trkpt>
      <trkpt lat="62.64517" lon="6.54643">
        <ele>51.121842</ele>
        <time>2020-08-01T12:25:23.531Z</time>
      </trkpt>
      <trkpt lat="62.64521" lon="6.54662">
        <ele>51.005653</ele>
        <time>2020-08-01T12:25:25.577Z</time>
      </trkpt>
      <trkpt lat="62.64525" lon="6.54682">
        <ele>50.888396</ele>
        <time>2020-08-01T12:25:27.535Z</time>
      </trkpt>
      <trkpt lat="62.64528" lon="6.54701">
        <ele>50.776347</ele>
        <time>2020-08-01T12:25:29.555Z</time>
      </trkpt>
      <trkpt lat="62.64532" lon="6.5472">
        <ele>50.668367</ele>
        <time>2020-08-01T12:25:31.540Z</time>
      </trkpt>
      <trkpt lat="62.64535" lon="6.54739">
        <ele>50.557422</ele>
        <time>2020-08-01T12:25:33.538Z</time>
      </trkpt>
      <trkpt lat="62.64539" lon="6.54758">
        <ele>50.447556</ele>
        <time>2020-08-01T12:25:35.566Z</time>
      </trkpt>
      <trkpt lat="62.64543" lon="6.54776">
        <ele>50.338273</ele>
        <time>2020-08-01T12:25:37.545Z</time>
      </trkpt>
      <trkpt lat="62.64546" lon="6.54794">
        <ele>50.29325</ele>
        <time>2020-08-01T12:25:39.565Z</time>
      </trkpt>
      <trkpt lat="62.64552" lon="6.54821">
        <ele>50.445937</ele>
        <time>2020-08-01T12:25:42.562Z</time>
      </trkpt>
      <trkpt lat="62.64557" lon="6.54847">
        <ele>50.594827</ele>
        <time>2020-08-01T12:25:45.583Z</time>
      </trkpt>
      <trkpt lat="62.64563" lon="6.54873">
        <ele>50.742761</ele>
        <time>2020-08-01T12:25:48.556Z</time>
      </trkpt>
      <trkpt lat="62.64568" lon="6.54899">
        <ele>50.894082</ele>
        <time>2020-08-01T12:25:51.544Z</time>
      </trkpt>
      <trkpt lat="62.64575" lon="6.54924">
        <ele>51.046023</ele>
        <time>2020-08-01T12:25:54.534Z</time>
      </trkpt>
      <trkpt lat="62.64579" lon="6.54941">
        <ele>51.148393</ele>
        <time>2020-08-01T12:25:56.517Z</time>
      </trkpt>
      <trkpt lat="62.64584" lon="6.54958">
        <ele>51.251059</ele>
        <time>2020-08-01T12:25:58.525Z</time>
      </trkpt>
      <trkpt lat="62.64589" lon="6.54974">
        <ele>51.357731</ele>
        <time>2020-08-01T12:26:00.527Z</time>
      </trkpt>
      <trkpt lat="62.64597" lon="6.54997">
        <ele>51.501054</ele>
        <time>2020-08-01T12:26:03.570Z</time>
      </trkpt>
      <trkpt lat="62.64602" lon="6.55013">
        <ele>51.603642</ele>
        <time>2020-08-01T12:26:05.575Z</time>
      </trkpt>
      <trkpt lat="62.64609" lon="6.55035">
        <ele>51.746113</ele>
        <time>2020-08-01T12:26:08.538Z</time>
      </trkpt>
      <trkpt lat="62.64616" lon="6.55057">
        <ele>51.888408</ele>
        <time>2020-08-01T12:26:11.548Z</time>
      </trkpt>
      <trkpt lat="62.64624" lon="6.55077">
        <ele>52.022928</ele>
        <time>2020-08-01T12:26:14.551Z</time>
      </trkpt>
      <trkpt lat="62.64631" lon="6.55097">
        <ele>52.153058</ele>
        <time>2020-08-01T12:26:17.540Z</time>
      </trkpt>
      <trkpt lat="62.64638" lon="6.55115">
        <ele>52.280035</ele>
        <time>2020-08-01T12:26:20.559Z</time>
      </trkpt>
      <trkpt lat="62.64645" lon="6.55134">
        <ele>52.442104</ele>
        <time>2020-08-01T12:26:23.547Z</time>
      </trkpt>
      <trkpt lat="62.64653" lon="6.55153">
        <ele>52.622285</ele>
        <time>2020-08-01T12:26:26.535Z</time>
      </trkpt>
      <trkpt lat="62.64662" lon="6.55171">
        <ele>52.805724</ele>
        <time>2020-08-01T12:26:29.527Z</time>
      </trkpt>
      <trkpt lat="62.6467" lon="6.5519">
        <ele>52.98493</ele>
        <time>2020-08-01T12:26:32.600Z</time>
      </trkpt>
      <trkpt lat="62.64677" lon="6.55207">
        <ele>53.154735</ele>
        <time>2020-08-01T12:26:35.527Z</time>
      </trkpt>
      <trkpt lat="62.64685" lon="6.55225">
        <ele>53.322518</ele>
        <time>2020-08-01T12:26:38.533Z</time>
      </trkpt>
      <trkpt lat="62.64692" lon="6.55241">
        <ele>53.482367</ele>
        <time>2020-08-01T12:26:41.523Z</time>
      </trkpt>
      <trkpt lat="62.647" lon="6.55257">
        <ele>53.645138</ele>
        <time>2020-08-01T12:26:44.541Z</time>
      </trkpt>
      <trkpt lat="62.64707" lon="6.55272">
        <ele>53.795859</ele>
        <time>2020-08-01T12:26:47.536Z</time>
      </trkpt>
      <trkpt lat="62.64714" lon="6.55292">
        <ele>53.974207</ele>
        <time>2020-08-01T12:26:50.566Z</time>
      </trkpt>
      <trkpt lat="62.64722" lon="6.55315">
        <ele>54.175747</ele>
        <time>2020-08-01T12:26:53.539Z</time>
      </trkpt>
      <trkpt lat="62.64727" lon="6.55333">
        <ele>54.32069</ele>
        <time>2020-08-01T12:26:55.521Z</time>
      </trkpt>
      <trkpt lat="62.64732" lon="6.55351">
        <ele>54.471583</ele>
        <time>2020-08-01T12:26:57.525Z</time>
      </trkpt>
      <trkpt lat="62.64738" lon="6.5537">
        <ele>54.639816</ele>
        <time>2020-08-01T12:26:59.537Z</time>
      </trkpt>
      <trkpt lat="62.64745" lon="6.55389">
        <ele>54.806578</ele>
        <time>2020-08-01T12:27:01.542Z</time>
      </trkpt>
      <trkpt lat="62.6475" lon="6.55407">
        <ele>54.953686</ele>
        <time>2020-08-01T12:27:03.525Z</time>
      </trkpt>
      <trkpt lat="62.64755" lon="6.55424">
        <ele>55.043545</ele>
        <time>2020-08-01T12:27:05.548Z</time>
      </trkpt>
      <trkpt lat="62.6476" lon="6.55441">
        <ele>54.965776</ele>
        <time>2020-08-01T12:27:07.526Z</time>
      </trkpt>
      <trkpt lat="62.64764" lon="6.55458">
        <ele>54.887177</ele>
        <time>2020-08-01T12:27:09.539Z</time>
      </trkpt>
      <trkpt lat="62.64771" lon="6.55484">
        <ele>54.771375</ele>
        <time>2020-08-01T12:27:12.538Z</time>
      </trkpt>
      <trkpt lat="62.64777" lon="6.55509">
        <ele>54.655921</ele>
        <time>2020-08-01T12:27:15.523Z</time>
      </trkpt>
      <trkpt lat="62.64781" lon="6.55527">
        <ele>54.576413</ele>
        <time>2020-08-01T12:27:17.516Z</time>
      </trkpt>
      <trkpt lat="62.64788" lon="6.55553">
        <ele>54.457868</ele>
        <time>2020-08-01T12:27:20.540Z</time>
      </trkpt>
      <trkpt lat="62.64793" lon="6.55571">
        <ele>54.373153</ele>
        <time>2020-08-01T12:27:22.529Z</time>
      </trkpt>
      <trkpt lat="62.64798" lon="6.55592">
        <ele>54.280165</ele>
        <time>2020-08-01T12:27:24.524Z</time>
      </trkpt>
      <trkpt lat="62.64804" lon="6.55613">
        <ele>54.180497</ele>
        <time>2020-08-01T12:27:26.535Z</time>
      </trkpt>
      <trkpt lat="62.64811" lon="6.55632">
        <ele>54.086302</ele>
        <time>2020-08-01T12:27:28.547Z</time>
      </trkpt>
      <trkpt lat="62.64817" lon="6.5565">
        <ele>54.000108</ele>
        <time>2020-08-01T12:27:30.565Z</time>
      </trkpt>
      <trkpt lat="62.64822" lon="6.55667">
        <ele>53.917366</ele>
        <time>2020-08-01T12:27:32.537Z</time>
      </trkpt>
      <trkpt lat="62.64828" lon="6.55684">
        <ele>53.830454</ele>
        <time>2020-08-01T12:27:34.528Z</time>
      </trkpt>
      <trkpt lat="62.64835" lon="6.55701">
        <ele>53.742934</ele>
        <time>2020-08-01T12:27:36.550Z</time>
      </trkpt>
      <trkpt lat="62.64841" lon="6.55717">
        <ele>53.658093</ele>
        <time>2020-08-01T12:27:38.521Z</time>
      </trkpt>
      <trkpt lat="62.64847" lon="6.55734">
        <ele>53.573995</ele>
        <time>2020-08-01T12:27:40.526Z</time>
      </trkpt>
      <trkpt lat="62.64854" lon="6.5575">
        <ele>53.447545</ele>
        <time>2020-08-01T12:27:42.523Z</time>
      </trkpt>
      <trkpt lat="62.6486" lon="6.55767">
        <ele>53.165132</ele>
        <time>2020-08-01T12:27:44.539Z</time>
      </trkpt>
      <trkpt lat="62.64866" lon="6.55784">
        <ele>52.878833</ele>
        <time>2020-08-01T12:27:46.544Z</time>
      </trkpt>
      <trkpt lat="62.64872" lon="6.55801">
        <ele>52.597692</ele>
        <time>2020-08-01T12:27:48.528Z</time>
      </trkpt>
      <trkpt lat="62.64879" lon="6.55818">
        <ele>52.311272</ele>
        <time>2020-08-01T12:27:50.540Z</time>
      </trkpt>
      <trkpt lat="62.64885" lon="6.55835">
        <ele>52.037467</ele>
        <time>2020-08-01T12:27:52.535Z</time>
      </trkpt>
      <trkpt lat="62.64891" lon="6.55851">
        <ele>51.765654</ele>
        <time>2020-08-01T12:27:54.565Z</time>
      </trkpt>
      <trkpt lat="62.64898" lon="6.55866">
        <ele>51.482571</ele>
        <time>2020-08-01T12:27:56.539Z</time>
      </trkpt>
      <trkpt lat="62.64905" lon="6.55882">
        <ele>51.198337</ele>
        <time>2020-08-01T12:27:58.558Z</time>
      </trkpt>
      <trkpt lat="62.64913" lon="6.55896">
        <ele>50.918219</ele>
        <time>2020-08-01T12:28:00.537Z</time>
      </trkpt>
      <trkpt lat="62.6492" lon="6.55909">
        <ele>50.639071</ele>
        <time>2020-08-01T12:28:02.539Z</time>
      </trkpt>
      <trkpt lat="62.64929" lon="6.5592">
        <ele>50.352883</ele>
        <time>2020-08-01T12:28:04.529Z</time>
      </trkpt>
      <trkpt lat="62.64939" lon="6.55929">
        <ele>50.05274</ele>
        <time>2020-08-01T12:28:06.535Z</time>
      </trkpt>
      <trkpt lat="62.64949" lon="6.55937">
        <ele>49.751602</ele>
        <time>2020-08-01T12:28:08.532Z</time>
      </trkpt>
      <trkpt lat="62.64959" lon="6.55944">
        <ele>49.460472</ele>
        <time>2020-08-01T12:28:10.538Z</time>
      </trkpt>
      <trkpt lat="62.6497" lon="6.55947">
        <ele>49.155014</ele>
        <time>2020-08-01T12:28:12.535Z</time>
      </trkpt>
      <trkpt lat="62.6498" lon="6.55948">
        <ele>48.855224</ele>
        <time>2020-08-01T12:28:14.574Z</time>
      </trkpt>
      <trkpt lat="62.64991" lon="6.55947">
        <ele>48.549563</ele>
        <time>2020-08-01T12:28:16.572Z</time>
      </trkpt>
      <trkpt lat="62.65002" lon="6.55944">
        <ele>48.543405</ele>
        <time>2020-08-01T12:28:18.536Z</time>
      </trkpt>
      <trkpt lat="62.65014" lon="6.55941">
        <ele>48.748497</ele>
        <time>2020-08-01T12:28:20.534Z</time>
      </trkpt>
      <trkpt lat="62.65025" lon="6.55939">
        <ele>48.940524</ele>
        <time>2020-08-01T12:28:22.543Z</time>
      </trkpt>
      <trkpt lat="62.65036" lon="6.55936">
        <ele>49.134968</ele>
        <time>2020-08-01T12:28:24.556Z</time>
      </trkpt>
      <trkpt lat="62.65046" lon="6.55932">
        <ele>49.325092</ele>
        <time>2020-08-01T12:28:26.526Z</time>
      </trkpt>
      <trkpt lat="62.65057" lon="6.55929">
        <ele>49.506054</ele>
        <time>2020-08-01T12:28:28.536Z</time>
      </trkpt>
      <trkpt lat="62.65066" lon="6.55927">
        <ele>49.675537</ele>
        <time>2020-08-01T12:28:30.543Z</time>
      </trkpt>
      <trkpt lat="62.65079" lon="6.55924">
        <ele>49.906692</ele>
        <time>2020-08-01T12:28:33.534Z</time>
      </trkpt>
      <trkpt lat="62.65092" lon="6.5592">
        <ele>50.131338</ele>
        <time>2020-08-01T12:28:36.545Z</time>
      </trkpt>
      <trkpt lat="62.65105" lon="6.55917">
        <ele>50.359272</ele>
        <time>2020-08-01T12:28:39.538Z</time>
      </trkpt>
      <trkpt lat="62.65118" lon="6.55914">
        <ele>50.588517</ele>
        <time>2020-08-01T12:28:42.521Z</time>
      </trkpt>
      <trkpt lat="62.65131" lon="6.55911">
        <ele>50.818289</ele>
        <time>2020-08-01T12:28:45.539Z</time>
      </trkpt>
      <trkpt lat="62.65144" lon="6.55908">
        <ele>51.042139</ele>
        <time>2020-08-01T12:28:48.520Z</time>
      </trkpt>
      <trkpt lat="62.65156" lon="6.55907">
        <ele>51.259922</ele>
        <time>2020-08-01T12:28:51.537Z</time>
      </trkpt>
      <trkpt lat="62.65168" lon="6.55908">
        <ele>51.475842</ele>
        <time>2020-08-01T12:28:54.574Z</time>
      </trkpt>
      <trkpt lat="62.65181" lon="6.55912">
        <ele>51.715991</ele>
        <time>2020-08-01T12:28:57.546Z</time>
      </trkpt>
      <trkpt lat="62.65194" lon="6.55917">
        <ele>51.966699</ele>
        <time>2020-08-01T12:29:00.540Z</time>
      </trkpt>
      <trkpt lat="62.65206" lon="6.55925">
        <ele>52.215983</ele>
        <time>2020-08-01T12:29:03.533Z</time>
      </trkpt>
      <trkpt lat="62.65215" lon="6.55931">
        <ele>52.389279</ele>
        <time>2020-08-01T12:29:05.564Z</time>
      </trkpt>
      <trkpt lat="62.65223" lon="6.55939">
        <ele>52.563168</ele>
        <time>2020-08-01T12:29:07.566Z</time>
      </trkpt>
      <trkpt lat="62.65232" lon="6.55948">
        <ele>52.741499</ele>
        <time>2020-08-01T12:29:09.535Z</time>
      </trkpt>
      <trkpt lat="62.6524" lon="6.55957">
        <ele>52.917221</ele>
        <time>2020-08-01T12:29:11.541Z</time>
      </trkpt>
      <trkpt lat="62.65251" lon="6.55973">
        <ele>53.173325</ele>
        <time>2020-08-01T12:29:14.548Z</time>
      </trkpt>
      <trkpt lat="62.65262" lon="6.5599">
        <ele>53.427551</ele>
        <time>2020-08-01T12:29:17.525Z</time>
      </trkpt>
      <trkpt lat="62.65269" lon="6.56003">
        <ele>53.608535</ele>
        <time>2020-08-01T12:29:19.544Z</time>
      </trkpt>
      <trkpt lat="62.65276" lon="6.56017">
        <ele>53.791772</ele>
        <time>2020-08-01T12:29:21.556Z</time>
      </trkpt>
      <trkpt lat="62.65283" lon="6.56031">
        <ele>53.966618</ele>
        <time>2020-08-01T12:29:23.521Z</time>
      </trkpt>
      <trkpt lat="62.65289" lon="6.56047">
        <ele>54.152489</ele>
        <time>2020-08-01T12:29:25.521Z</time>
      </trkpt>
      <trkpt lat="62.65294" lon="6.56064">
        <ele>54.337949</ele>
        <time>2020-08-01T12:29:27.539Z</time>
      </trkpt>
      <trkpt lat="62.653" lon="6.56082">
        <ele>54.520933</ele>
        <time>2020-08-01T12:29:29.528Z</time>
      </trkpt>
      <trkpt lat="62.65304" lon="6.561">
        <ele>54.708414</ele>
        <time>2020-08-01T12:29:31.558Z</time>
      </trkpt>
      <trkpt lat="62.65309" lon="6.5612">
        <ele>54.901566</ele>
        <time>2020-08-01T12:29:33.527Z</time>
      </trkpt>
      <trkpt lat="62.65313" lon="6.5614">
        <ele>55.004014</ele>
        <time>2020-08-01T12:29:35.531Z</time>
      </trkpt>
      <trkpt lat="62.65316" lon="6.5616">
        <ele>54.92799</ele>
        <time>2020-08-01T12:29:37.528Z</time>
      </trkpt>
      <trkpt lat="62.65318" lon="6.5618">
        <ele>54.853936</ele>
        <time>2020-08-01T12:29:39.573Z</time>
      </trkpt>
      <trkpt lat="62.65321" lon="6.562">
        <ele>54.778312</ele>
        <time>2020-08-01T12:29:41.565Z</time>
      </trkpt>
      <trkpt lat="62.65323" lon="6.56219">
        <ele>54.706021</ele>
        <time>2020-08-01T12:29:43.561Z</time>
      </trkpt>
      <trkpt lat="62.65325" lon="6.56238">
        <ele>54.634199</ele>
        <time>2020-08-01T12:29:45.547Z</time>
      </trkpt>
      <trkpt lat="62.65325" lon="6.56266">
        <ele>54.534012</ele>
        <time>2020-08-01T12:29:48.543Z</time>
      </trkpt>
      <trkpt lat="62.65325" lon="6.56292">
        <ele>54.436171</ele>
        <time>2020-08-01T12:29:51.526Z</time>
      </trkpt>
      <trkpt lat="62.65325" lon="6.56319">
        <ele>54.33963</ele>
        <time>2020-08-01T12:29:54.542Z</time>
      </trkpt>
      <trkpt lat="62.65323" lon="6.56345">
        <ele>54.243155</ele>
        <time>2020-08-01T12:29:57.539Z</time>
      </trkpt>
      <trkpt lat="62.6532" lon="6.56371">
        <ele>54.146701</ele>
        <time>2020-08-01T12:30:00.547Z</time>
      </trkpt>
      <trkpt lat="62.65315" lon="6.56396">
        <ele>54.04849</ele>
        <time>2020-08-01T12:30:03.556Z</time>
      </trkpt>
      <trkpt lat="62.65312" lon="6.5642">
        <ele>53.954776</ele>
        <time>2020-08-01T12:30:06.535Z</time>
      </trkpt>
      <trkpt lat="62.65306" lon="6.56444">
        <ele>53.856907</ele>
        <time>2020-08-01T12:30:09.546Z</time>
      </trkpt>
      <trkpt lat="62.653" lon="6.56468">
        <ele>53.757257</ele>
        <time>2020-08-01T12:30:12.539Z</time>
      </trkpt>
      <trkpt lat="62.65293" lon="6.56492">
        <ele>53.652939</ele>
        <time>2020-08-01T12:30:15.538Z</time>
      </trkpt>
      <trkpt lat="62.65287" lon="6.56508">
        <ele>53.601064</ele>
        <time>2020-08-01T12:30:17.539Z</time>
      </trkpt>
      <trkpt lat="62.65282" lon="6.56525">
        <ele>53.596615</ele>
        <time>2020-08-01T12:30:19.536Z</time>
      </trkpt>
      <trkpt lat="62.65276" lon="6.56541">
        <ele>53.592391</ele>
        <time>2020-08-01T12:30:21.575Z</time>
      </trkpt>
      <trkpt lat="62.6527" lon="6.56557">
        <ele>53.587976</ele>
        <time>2020-08-01T12:30:23.529Z</time>
      </trkpt>
      <trkpt lat="62.65263" lon="6.56574">
        <ele>53.583026</ele>
        <time>2020-08-01T12:30:25.539Z</time>
      </trkpt>
      <trkpt lat="62.65256" lon="6.56592">
        <ele>53.578076</ele>
        <time>2020-08-01T12:30:27.525Z</time>
      </trkpt>
      <trkpt lat="62.65249" lon="6.5661">
        <ele>53.573006</ele>
        <time>2020-08-01T12:30:29.560Z</time>
      </trkpt>
      <trkpt lat="62.65242" lon="6.5663">
        <ele>53.567763</ele>
        <time>2020-08-01T12:30:31.541Z</time>
      </trkpt>
      <trkpt lat="62.65236" lon="6.56651">
        <ele>53.562575</ele>
        <time>2020-08-01T12:30:33.542Z</time>
      </trkpt>
      <trkpt lat="62.65229" lon="6.56672">
        <ele>53.557149</ele>
        <time>2020-08-01T12:30:35.530Z</time>
      </trkpt>
      <trkpt lat="62.65224" lon="6.56694">
        <ele>53.551858</ele>
        <time>2020-08-01T12:30:37.567Z</time>
      </trkpt>
      <trkpt lat="62.6522" lon="6.56717">
        <ele>53.546747</ele>
        <time>2020-08-01T12:30:39.547Z</time>
      </trkpt>
      <trkpt lat="62.65216" lon="6.56739">
        <ele>53.541687</ele>
        <time>2020-08-01T12:30:41.534Z</time>
      </trkpt>
      <trkpt lat="62.65212" lon="6.56761">
        <ele>53.536748</ele>
        <time>2020-08-01T12:30:43.583Z</time>
      </trkpt>
      <trkpt lat="62.6521" lon="6.56784">
        <ele>53.531865</ele>
        <time>2020-08-01T12:30:45.579Z</time>
      </trkpt>
      <trkpt lat="62.65207" lon="6.56806">
        <ele>53.52692</ele>
        <time>2020-08-01T12:30:47.530Z</time>
      </trkpt>
      <trkpt lat="62.65206" lon="6.56829">
        <ele>53.522174</ele>
        <time>2020-08-01T12:30:49.564Z</time>
      </trkpt>
      <trkpt lat="62.65205" lon="6.5685">
        <ele>53.531494</ele>
        <time>2020-08-01T12:30:51.538Z</time>
      </trkpt>
      <trkpt lat="62.65203" lon="6.56871">
        <ele>53.558069</ele>
        <time>2020-08-01T12:30:53.540Z</time>
      </trkpt>
      <trkpt lat="62.65202" lon="6.569">
        <ele>53.595402</ele>
        <time>2020-08-01T12:30:56.571Z</time>
      </trkpt>
      <trkpt lat="62.65201" lon="6.5692">
        <ele>53.620801</ele>
        <time>2020-08-01T12:30:58.523Z</time>
      </trkpt>
      <trkpt lat="62.652" lon="6.5694">
        <ele>53.646657</ele>
        <time>2020-08-01T12:31:00.525Z</time>
      </trkpt>
      <trkpt lat="62.65199" lon="6.56961">
        <ele>53.673726</ele>
        <time>2020-08-01T12:31:02.525Z</time>
      </trkpt>
      <trkpt lat="62.65198" lon="6.56982">
        <ele>53.699911</ele>
        <time>2020-08-01T12:31:04.529Z</time>
      </trkpt>
      <trkpt lat="62.65197" lon="6.57002">
        <ele>53.724991</ele>
        <time>2020-08-01T12:31:06.527Z</time>
      </trkpt>
      <trkpt lat="62.65195" lon="6.57029">
        <ele>53.759821</ele>
        <time>2020-08-01T12:31:09.520Z</time>
      </trkpt>
      <trkpt lat="62.65194" lon="6.57055">
        <ele>53.793341</ele>
        <time>2020-08-01T12:31:12.544Z</time>
      </trkpt>
      <trkpt lat="62.65194" lon="6.57081">
        <ele>53.826248</ele>
        <time>2020-08-01T12:31:15.599Z</time>
      </trkpt>
      <trkpt lat="62.65194" lon="6.57107">
        <ele>53.859537</ele>
        <time>2020-08-01T12:31:18.541Z</time>
      </trkpt>
      <trkpt lat="62.65195" lon="6.57133">
        <ele>53.89217</ele>
        <time>2020-08-01T12:31:21.522Z</time>
      </trkpt>
      <trkpt lat="62.65197" lon="6.57158">
        <ele>53.925</ele>
        <time>2020-08-01T12:31:24.530Z</time>
      </trkpt>
      <trkpt lat="62.652" lon="6.57185">
        <ele>53.959601</ele>
        <time>2020-08-01T12:31:27.571Z</time>
      </trkpt>
      <trkpt lat="62.65204" lon="6.57211">
        <ele>53.994059</ele>
        <time>2020-08-01T12:31:30.545Z</time>
      </trkpt>
      <trkpt lat="62.65209" lon="6.57236">
        <ele>54.020072</ele>
        <time>2020-08-01T12:31:33.548Z</time>
      </trkpt>
      <trkpt lat="62.65215" lon="6.57261">
        <ele>54.029415</ele>
        <time>2020-08-01T12:31:36.546Z</time>
      </trkpt>
      <trkpt lat="62.65222" lon="6.57283">
        <ele>54.03844</ele>
        <time>2020-08-01T12:31:39.534Z</time>
      </trkpt>
      <trkpt lat="62.65231" lon="6.57304">
        <ele>54.048224</ele>
        <time>2020-08-01T12:31:42.528Z</time>
      </trkpt>
      <trkpt lat="62.65236" lon="6.5732">
        <ele>54.054956</ele>
        <time>2020-08-01T12:31:44.526Z</time>
      </trkpt>
      <trkpt lat="62.65243" lon="6.57336">
        <ele>54.061935</ele>
        <time>2020-08-01T12:31:46.531Z</time>
      </trkpt>
      <trkpt lat="62.6525" lon="6.57351">
        <ele>54.069149</ele>
        <time>2020-08-01T12:31:48.550Z</time>
      </trkpt>
      <trkpt lat="62.65258" lon="6.57367">
        <ele>54.077226</ele>
        <time>2020-08-01T12:31:50.526Z</time>
      </trkpt>
      <trkpt lat="62.65267" lon="6.57385">
        <ele>54.085932</ele>
        <time>2020-08-01T12:31:52.536Z</time>
      </trkpt>
      <trkpt lat="62.65276" lon="6.57402">
        <ele>54.094538</ele>
        <time>2020-08-01T12:31:54.539Z</time>
      </trkpt>
      <trkpt lat="62.65284" lon="6.57419">
        <ele>54.1031</ele>
        <time>2020-08-01T12:31:56.528Z</time>
      </trkpt>
      <trkpt lat="62.65293" lon="6.57436">
        <ele>54.111664</ele>
        <time>2020-08-01T12:31:58.557Z</time>
      </trkpt>
      <trkpt lat="62.65302" lon="6.5745">
        <ele>54.119572</ele>
        <time>2020-08-01T12:32:00.556Z</time>
      </trkpt>
      <trkpt lat="62.6531" lon="6.57464">
        <ele>54.12732</ele>
        <time>2020-08-01T12:32:02.545Z</time>
      </trkpt>
      <trkpt lat="62.65318" lon="6.57478">
        <ele>54.134424</ele>
        <time>2020-08-01T12:32:04.542Z</time>
      </trkpt>
      <trkpt lat="62.65328" lon="6.57496">
        <ele>54.143842</ele>
        <time>2020-08-01T12:32:07.530Z</time>
      </trkpt>
      <trkpt lat="62.65337" lon="6.57512">
        <ele>54.376561</ele>
        <time>2020-08-01T12:32:10.535Z</time>
      </trkpt>
      <trkpt lat="62.65344" lon="6.57526">
        <ele>54.76525</ele>
        <time>2020-08-01T12:32:13.549Z</time>
      </trkpt>
      <trkpt lat="62.65352" lon="6.57544">
        <ele>55.209676</ele>
        <time>2020-08-01T12:32:17.544Z</time>
      </trkpt>
      <trkpt lat="62.65359" lon="6.57558">
        <ele>55.576141</ele>
        <time>2020-08-01T12:32:21.540Z</time>
      </trkpt>
      <trkpt lat="62.65367" lon="6.57572">
        <ele>55.970561</ele>
        <time>2020-08-01T12:32:26.525Z</time>
      </trkpt>
      <trkpt lat="62.65375" lon="6.57584">
        <ele>56.330259</ele>
        <time>2020-08-01T12:32:31.558Z</time>
      </trkpt>
      <trkpt lat="62.65381" lon="6.57599">
        <ele>56.690763</ele>
        <time>2020-08-01T12:32:36.559Z</time>
      </trkpt>
      <trkpt lat="62.65389" lon="6.57613">
        <ele>57.084769</ele>
        <time>2020-08-01T12:32:41.515Z</time>
      </trkpt>
      <trkpt lat="62.65395" lon="6.57628">
        <ele>57.445238</ele>
        <time>2020-08-01T12:32:46.563Z</time>
      </trkpt>
      <trkpt lat="62.65401" lon="6.57644">
        <ele>57.817541</ele>
        <time>2020-08-01T12:32:51.541Z</time>
      </trkpt>
      <trkpt lat="62.65409" lon="6.57658">
        <ele>58.205047</ele>
        <time>2020-08-01T12:32:57.537Z</time>
      </trkpt>
      <trkpt lat="62.65414" lon="6.57678">
        <ele>58.622487</ele>
        <time>2020-08-01T12:33:03.541Z</time>
      </trkpt>
      <trkpt lat="62.65419" lon="6.577">
        <ele>59.049699</ele>
        <time>2020-08-01T12:33:08.524Z</time>
      </trkpt>
      <trkpt lat="62.65424" lon="6.57717">
        <ele>59.406935</ele>
        <time>2020-08-01T12:33:12.525Z</time>
      </trkpt>
      <trkpt lat="62.65431" lon="6.57737">
        <ele>59.842259</ele>
        <time>2020-08-01T12:33:17.533Z</time>
      </trkpt>
      <trkpt lat="62.65435" lon="6.57755">
        <ele>60.216449</ele>
        <time>2020-08-01T12:33:21.552Z</time>
      </trkpt>
      <trkpt lat="62.65439" lon="6.57776">
        <ele>60.606846</ele>
        <time>2020-08-01T12:33:25.519Z</time>
      </trkpt>
      <trkpt lat="62.65443" lon="6.57798">
        <ele>61.022192</ele>
        <time>2020-08-01T12:33:30.527Z</time>
      </trkpt>
      <trkpt lat="62.65446" lon="6.5782">
        <ele>61.347501</ele>
        <time>2020-08-01T12:33:35.535Z</time>
      </trkpt>
      <trkpt lat="62.65448" lon="6.57842">
        <ele>61.635272</ele>
        <time>2020-08-01T12:33:40.520Z</time>
      </trkpt>
      <trkpt lat="62.65452" lon="6.57865">
        <ele>61.932926</ele>
        <time>2020-08-01T12:33:45.539Z</time>
      </trkpt>
      <trkpt lat="62.65455" lon="6.57885">
        <ele>62.201581</ele>
        <time>2020-08-01T12:33:49.519Z</time>
      </trkpt>
      <trkpt lat="62.65458" lon="6.57907">
        <ele>62.49441</ele>
        <time>2020-08-01T12:33:53.517Z</time>
      </trkpt>
      <trkpt lat="62.65461" lon="6.57928">
        <ele>62.777669</ele>
        <time>2020-08-01T12:33:57.539Z</time>
      </trkpt>
      <trkpt lat="62.65465" lon="6.57949">
        <ele>63.056198</ele>
        <time>2020-08-01T12:34:01.535Z</time>
      </trkpt>
      <trkpt lat="62.65468" lon="6.57969">
        <ele>63.333093</ele>
        <time>2020-08-01T12:34:05.524Z</time>
      </trkpt>
      <trkpt lat="62.65471" lon="6.5799">
        <ele>63.607032</ele>
        <time>2020-08-01T12:34:09.541Z</time>
      </trkpt>
      <trkpt lat="62.65474" lon="6.58011">
        <ele>63.887008</ele>
        <time>2020-08-01T12:34:13.539Z</time>
      </trkpt>
      <trkpt lat="62.65477" lon="6.58032">
        <ele>64.161701</ele>
        <time>2020-08-01T12:34:17.538Z</time>
      </trkpt>
      <trkpt lat="62.6548" lon="6.58053">
        <ele>64.437279</ele>
        <time>2020-08-01T12:34:21.523Z</time>
      </trkpt>
      <trkpt lat="62.65483" lon="6.58074">
        <ele>64.715602</ele>
        <time>2020-08-01T12:34:25.542Z</time>
      </trkpt>
      <trkpt lat="62.65486" lon="6.58094">
        <ele>64.983881</ele>
        <time>2020-08-01T12:34:29.539Z</time>
      </trkpt>
      <trkpt lat="62.65489" lon="6.58114">
        <ele>65.248448</ele>
        <time>2020-08-01T12:34:33.550Z</time>
      </trkpt>
      <trkpt lat="62.65492" lon="6.58135">
        <ele>65.523951</ele>
        <time>2020-08-01T12:34:37.549Z</time>
      </trkpt>
      <trkpt lat="62.65496" lon="6.58154">
        <ele>65.782809</ele>
        <time>2020-08-01T12:34:41.530Z</time>
      </trkpt>
      <trkpt lat="62.65498" lon="6.58174">
        <ele>66.046693</ele>
        <time>2020-08-01T12:34:45.527Z</time>
      </trkpt>
      <trkpt lat="62.65502" lon="6.58194">
        <ele>66.289468</ele>
        <time>2020-08-01T12:34:49.529Z</time>
      </trkpt>
      <trkpt lat="62.65504" lon="6.58215">
        <ele>66.531055</ele>
        <time>2020-08-01T12:34:53.527Z</time>
      </trkpt>
      <trkpt lat="62.65507" lon="6.58235">
        <ele>66.754904</ele>
        <time>2020-08-01T12:34:57.539Z</time>
      </trkpt>
      <trkpt lat="62.65511" lon="6.58254">
        <ele>66.98306</ele>
        <time>2020-08-01T12:35:01.530Z</time>
      </trkpt>
      <trkpt lat="62.65514" lon="6.58274">
        <ele>67.220996</ele>
        <time>2020-08-01T12:35:05.539Z</time>
      </trkpt>
      <trkpt lat="62.65517" lon="6.58295">
        <ele>67.463738</ele>
        <time>2020-08-01T12:35:09.521Z</time>
      </trkpt>
      <trkpt lat="62.65519" lon="6.58316">
        <ele>67.695104</ele>
        <time>2020-08-01T12:35:13.544Z</time>
      </trkpt>
      <trkpt lat="62.65522" lon="6.58337">
        <ele>67.936104</ele>
        <time>2020-08-01T12:35:17.570Z</time>
      </trkpt>
      <trkpt lat="62.65524" lon="6.58357">
        <ele>68.171808</ele>
        <time>2020-08-01T12:35:21.539Z</time>
      </trkpt>
      <trkpt lat="62.65528" lon="6.58377">
        <ele>68.404091</ele>
        <time>2020-08-01T12:35:25.535Z</time>
      </trkpt>
      <trkpt lat="62.6553" lon="6.58397">
        <ele>68.633513</ele>
        <time>2020-08-01T12:35:29.534Z</time>
      </trkpt>
      <trkpt lat="62.65533" lon="6.58416">
        <ele>68.856571</ele>
        <time>2020-08-01T12:35:33.528Z</time>
      </trkpt>
      <trkpt lat="62.65536" lon="6.58436">
        <ele>69.084183</ele>
        <time>2020-08-01T12:35:37.525Z</time>
      </trkpt>
      <trkpt lat="62.65539" lon="6.58455">
        <ele>69.302812</ele>
        <time>2020-08-01T12:35:41.533Z</time>
      </trkpt>
      <trkpt lat="62.65542" lon="6.58473">
        <ele>69.522483</ele>
        <time>2020-08-01T12:35:45.548Z</time>
      </trkpt>
      <trkpt lat="62.65545" lon="6.58493">
        <ele>69.748577</ele>
        <time>2020-08-01T12:35:49.567Z</time>
      </trkpt>
      <trkpt lat="62.65548" lon="6.58512">
        <ele>69.976547</ele>
        <time>2020-08-01T12:35:53.554Z</time>
      </trkpt>
      <trkpt lat="62.65551" lon="6.58532">
        <ele>70.202817</ele>
        <time>2020-08-01T12:35:57.528Z</time>
      </trkpt>
      <trkpt lat="62.65554" lon="6.58551">
        <ele>70.427344</ele>
        <time>2020-08-01T12:36:01.536Z</time>
      </trkpt>
      <trkpt lat="62.65557" lon="6.5857">
        <ele>70.642433</ele>
        <time>2020-08-01T12:36:05.528Z</time>
      </trkpt>
      <trkpt lat="62.65561" lon="6.58589">
        <ele>70.861809</ele>
        <time>2020-08-01T12:36:09.558Z</time>
      </trkpt>
      <trkpt lat="62.65564" lon="6.58608">
        <ele>71.083198</ele>
        <time>2020-08-01T12:36:13.542Z</time>
      </trkpt>
      <trkpt lat="62.65568" lon="6.58628">
        <ele>71.311838</ele>
        <time>2020-08-01T12:36:17.538Z</time>
      </trkpt>
      <trkpt lat="62.65572" lon="6.58649">
        <ele>71.558065</ele>
        <time>2020-08-01T12:36:22.528Z</time>
      </trkpt>
      <trkpt lat="62.65576" lon="6.5867">
        <ele>71.803878</ele>
        <time>2020-08-01T12:36:27.524Z</time>
      </trkpt>
      <trkpt lat="62.65579" lon="6.58689">
        <ele>72.024741</ele>
        <time>2020-08-01T12:36:31.525Z</time>
      </trkpt>
      <trkpt lat="62.65584" lon="6.5871">
        <ele>72.276792</ele>
        <time>2020-08-01T12:36:36.535Z</time>
      </trkpt>
      <trkpt lat="62.65589" lon="6.58732">
        <ele>72.541816</ele>
        <time>2020-08-01T12:36:41.560Z</time>
      </trkpt>
      <trkpt lat="62.65594" lon="6.5875">
        <ele>72.761376</ele>
        <time>2020-08-01T12:36:45.543Z</time>
      </trkpt>
      <trkpt lat="62.65598" lon="6.58772">
        <ele>73.02325</ele>
        <time>2020-08-01T12:36:50.539Z</time>
      </trkpt>
      <trkpt lat="62.65603" lon="6.58789">
        <ele>73.237474</ele>
        <time>2020-08-01T12:36:54.533Z</time>
      </trkpt>
      <trkpt lat="62.65609" lon="6.58809">
        <ele>73.491742</ele>
        <time>2020-08-01T12:36:59.540Z</time>
      </trkpt>
      <trkpt lat="62.65613" lon="6.58826">
        <ele>73.701971</ele>
        <time>2020-08-01T12:37:03.524Z</time>
      </trkpt>
      <trkpt lat="62.65617" lon="6.58845">
        <ele>73.916887</ele>
        <time>2020-08-01T12:37:07.534Z</time>
      </trkpt>
      <trkpt lat="62.65622" lon="6.58864">
        <ele>74.152825</ele>
        <time>2020-08-01T12:37:12.532Z</time>
      </trkpt>
      <trkpt lat="62.65626" lon="6.58884">
        <ele>74.394236</ele>
        <time>2020-08-01T12:37:17.539Z</time>
      </trkpt>
      <trkpt lat="62.65631" lon="6.58905">
        <ele>74.588859</ele>
        <time>2020-08-01T12:37:22.527Z</time>
      </trkpt>
      <trkpt lat="62.65636" lon="6.58927">
        <ele>74.544071</ele>
        <time>2020-08-01T12:37:27.547Z</time>
      </trkpt>
      <trkpt lat="62.65641" lon="6.58946">
        <ele>74.504381</ele>
        <time>2020-08-01T12:37:31.580Z</time>
      </trkpt>
      <trkpt lat="62.65645" lon="6.58964">
        <ele>74.466428</ele>
        <time>2020-08-01T12:37:35.541Z</time>
      </trkpt>
      <trkpt lat="62.6565" lon="6.58984">
        <ele>74.425024</ele>
        <time>2020-08-01T12:37:39.530Z</time>
      </trkpt>
      <trkpt lat="62.65655" lon="6.59004">
        <ele>74.384546</ele>
        <time>2020-08-01T12:37:43.528Z</time>
      </trkpt>
      <trkpt lat="62.6566" lon="6.59024">
        <ele>74.343745</ele>
        <time>2020-08-01T12:37:47.538Z</time>
      </trkpt>
      <trkpt lat="62.65664" lon="6.59041">
        <ele>74.308081</ele>
        <time>2020-08-01T12:37:50.608Z</time>
      </trkpt>
      <trkpt lat="62.65669" lon="6.5906">
        <ele>74.2691</ele>
        <time>2020-08-01T12:37:53.542Z</time>
      </trkpt>
      <trkpt lat="62.65673" lon="6.59081">
        <ele>74.225957</ele>
        <time>2020-08-01T12:37:56.539Z</time>
      </trkpt>
      <trkpt lat="62.65679" lon="6.59104">
        <ele>74.177712</ele>
        <time>2020-08-01T12:37:59.522Z</time>
      </trkpt>
      <trkpt lat="62.65684" lon="6.59122">
        <ele>74.141671</ele>
        <time>2020-08-01T12:38:01.566Z</time>
      </trkpt>
      <trkpt lat="62.65688" lon="6.5914">
        <ele>74.102951</ele>
        <time>2020-08-01T12:38:03.519Z</time>
      </trkpt>
      <trkpt lat="62.65693" lon="6.5916">
        <ele>74.062218</ele>
        <time>2020-08-01T12:38:05.570Z</time>
      </trkpt>
      <trkpt lat="62.65697" lon="6.5918">
        <ele>74.021081</ele>
        <time>2020-08-01T12:38:07.530Z</time>
      </trkpt>
      <trkpt lat="62.65702" lon="6.592">
        <ele>73.979545</ele>
        <time>2020-08-01T12:38:09.529Z</time>
      </trkpt>
      <trkpt lat="62.65708" lon="6.5922">
        <ele>73.937075</ele>
        <time>2020-08-01T12:38:11.523Z</time>
      </trkpt>
      <trkpt lat="62.65715" lon="6.5924">
        <ele>73.892652</ele>
        <time>2020-08-01T12:38:13.573Z</time>
      </trkpt>
      <trkpt lat="62.65722" lon="6.59259">
        <ele>73.921584</ele>
        <time>2020-08-01T12:38:15.534Z</time>
      </trkpt>
      <trkpt lat="62.65731" lon="6.59279">
        <ele>73.974498</ele>
        <time>2020-08-01T12:38:17.555Z</time>
      </trkpt>
      <trkpt lat="62.6574" lon="6.59299">
        <ele>74.02814</ele>
        <time>2020-08-01T12:38:19.552Z</time>
      </trkpt>
      <trkpt lat="62.6575" lon="6.59319">
        <ele>74.084388</ele>
        <time>2020-08-01T12:38:21.527Z</time>
      </trkpt>
      <trkpt lat="62.65761" lon="6.59338">
        <ele>74.142416</ele>
        <time>2020-08-01T12:38:23.551Z</time>
      </trkpt>
      <trkpt lat="62.65771" lon="6.59356">
        <ele>74.200025</ele>
        <time>2020-08-01T12:38:25.520Z</time>
      </trkpt>
      <trkpt lat="62.65783" lon="6.59374">
        <ele>74.258775</ele>
        <time>2020-08-01T12:38:27.525Z</time>
      </trkpt>
      <trkpt lat="62.65794" lon="6.5939">
        <ele>74.314015</ele>
        <time>2020-08-01T12:38:29.576Z</time>
      </trkpt>
      <trkpt lat="62.65805" lon="6.59406">
        <ele>74.368454</ele>
        <time>2020-08-01T12:38:31.548Z</time>
      </trkpt>
      <trkpt lat="62.65815" lon="6.59421">
        <ele>74.420855</ele>
        <time>2020-08-01T12:38:33.530Z</time>
      </trkpt>
      <trkpt lat="62.65825" lon="6.59436">
        <ele>74.472129</ele>
        <time>2020-08-01T12:38:35.526Z</time>
      </trkpt>
      <trkpt lat="62.65835" lon="6.59451">
        <ele>74.522276</ele>
        <time>2020-08-01T12:38:37.586Z</time>
      </trkpt>
      <trkpt lat="62.65844" lon="6.59466">
        <ele>74.571491</ele>
        <time>2020-08-01T12:38:39.555Z</time>
      </trkpt>
      <trkpt lat="62.65853" lon="6.59481">
        <ele>74.619143</ele>
        <time>2020-08-01T12:38:41.533Z</time>
      </trkpt>
      <trkpt lat="62.65863" lon="6.59496">
        <ele>74.312541</ele>
        <time>2020-08-01T12:38:43.539Z</time>
      </trkpt>
      <trkpt lat="62.65872" lon="6.5951">
        <ele>73.80536</ele>
        <time>2020-08-01T12:38:45.540Z</time>
      </trkpt>
      <trkpt lat="62.65881" lon="6.59522">
        <ele>73.325906</ele>
        <time>2020-08-01T12:38:47.536Z</time>
      </trkpt>
      <trkpt lat="62.6589" lon="6.59534">
        <ele>72.871656</ele>
        <time>2020-08-01T12:38:49.533Z</time>
      </trkpt>
      <trkpt lat="62.65898" lon="6.59543">
        <ele>72.462879</ele>
        <time>2020-08-01T12:38:51.533Z</time>
      </trkpt>
      <trkpt lat="62.65907" lon="6.59551">
        <ele>72.037177</ele>
        <time>2020-08-01T12:38:53.538Z</time>
      </trkpt>
      <trkpt lat="62.65917" lon="6.59558">
        <ele>71.586011</ele>
        <time>2020-08-01T12:38:55.537Z</time>
      </trkpt>
      <trkpt lat="62.65927" lon="6.59565">
        <ele>71.117253</ele>
        <time>2020-08-01T12:38:57.544Z</time>
      </trkpt>
      <trkpt lat="62.65938" lon="6.5957">
        <ele>70.633532</ele>
        <time>2020-08-01T12:38:59.562Z</time>
      </trkpt>
      <trkpt lat="62.65949" lon="6.59576">
        <ele>70.118152</ele>
        <time>2020-08-01T12:39:01.529Z</time>
      </trkpt>
      <trkpt lat="62.65961" lon="6.59582">
        <ele>69.582411</ele>
        <time>2020-08-01T12:39:03.547Z</time>
      </trkpt>
      <trkpt lat="62.65973" lon="6.59589">
        <ele>69.025629</ele>
        <time>2020-08-01T12:39:05.551Z</time>
      </trkpt>
      <trkpt lat="62.65986" lon="6.59597">
        <ele>68.432781</ele>
        <time>2020-08-01T12:39:07.539Z</time>
      </trkpt>
      <trkpt lat="62.65999" lon="6.59609">
        <ele>67.816637</ele>
        <time>2020-08-01T12:39:09.541Z</time>
      </trkpt>
      <trkpt lat="62.66012" lon="6.59623">
        <ele>67.186938</ele>
        <time>2020-08-01T12:39:11.539Z</time>
      </trkpt>
      <trkpt lat="62.66023" lon="6.5964">
        <ele>66.684443</ele>
        <time>2020-08-01T12:39:13.561Z</time>
      </trkpt>
      <trkpt lat="62.66028" lon="6.59665">
        <ele>66.683593</ele>
        <time>2020-08-01T12:39:15.566Z</time>
      </trkpt>
      <trkpt lat="62.66024" lon="6.59692">
        <ele>66.682718</ele>
        <time>2020-08-01T12:39:17.538Z</time>
      </trkpt>
      <trkpt lat="62.66016" lon="6.59713">
        <ele>66.681883</ele>
        <time>2020-08-01T12:39:19.557Z</time>
      </trkpt>
      <trkpt lat="62.6601" lon="6.59733">
        <ele>66.681138</ele>
        <time>2020-08-01T12:39:21.537Z</time>
      </trkpt>
      <trkpt lat="62.66005" lon="6.59752">
        <ele>66.680431</ele>
        <time>2020-08-01T12:39:23.521Z</time>
      </trkpt>
      <trkpt lat="62.65999" lon="6.59771">
        <ele>66.679753</ele>
        <time>2020-08-01T12:39:25.557Z</time>
      </trkpt>
      <trkpt lat="62.65994" lon="6.59789">
        <ele>66.679091</ele>
        <time>2020-08-01T12:39:27.537Z</time>
      </trkpt>
      <trkpt lat="62.65989" lon="6.59807">
        <ele>66.678442</ele>
        <time>2020-08-01T12:39:29.557Z</time>
      </trkpt>
      <trkpt lat="62.65985" lon="6.59825">
        <ele>66.677813</ele>
        <time>2020-08-01T12:39:31.557Z</time>
      </trkpt>
      <trkpt lat="62.65981" lon="6.59844">
        <ele>66.677183</ele>
        <time>2020-08-01T12:39:33.520Z</time>
      </trkpt>
      <trkpt lat="62.65979" lon="6.59864">
        <ele>66.676516</ele>
        <time>2020-08-01T12:39:35.534Z</time>
      </trkpt>
      <trkpt lat="62.65976" lon="6.59885">
        <ele>66.675839</ele>
        <time>2020-08-01T12:39:37.543Z</time>
      </trkpt>
      <trkpt lat="62.65972" lon="6.59906">
        <ele>66.675168</ele>
        <time>2020-08-01T12:39:39.545Z</time>
      </trkpt>
      <trkpt lat="62.65968" lon="6.59924">
        <ele>66.674516</ele>
        <time>2020-08-01T12:39:41.517Z</time>
      </trkpt>
      <trkpt lat="62.65963" lon="6.59941">
        <ele>66.673892</ele>
        <time>2020-08-01T12:39:43.536Z</time>
      </trkpt>
      <trkpt lat="62.65956" lon="6.59962">
        <ele>66.673094</ele>
        <time>2020-08-01T12:39:46.544Z</time>
      </trkpt>
      <trkpt lat="62.65949" lon="6.59977">
        <ele>66.67647</ele>
        <time>2020-08-01T12:39:49.530Z</time>
      </trkpt>
      <trkpt lat="62.65943" lon="6.59997">
        <ele>66.76792</ele>
        <time>2020-08-01T12:39:53.558Z</time>
      </trkpt>
      <trkpt lat="62.65937" lon="6.60018">
        <ele>66.861326</ele>
        <time>2020-08-01T12:39:57.536Z</time>
      </trkpt>
      <trkpt lat="62.65933" lon="6.60039">
        <ele>66.948247</ele>
        <time>2020-08-01T12:40:01.563Z</time>
      </trkpt>
      <trkpt lat="62.6593" lon="6.60061">
        <ele>67.035226</ele>
        <time>2020-08-01T12:40:05.528Z</time>
      </trkpt>
      <trkpt lat="62.65927" lon="6.60086">
        <ele>67.134739</ele>
        <time>2020-08-01T12:40:09.543Z</time>
      </trkpt>
      <trkpt lat="62.65924" lon="6.60109">
        <ele>67.221903</ele>
        <time>2020-08-01T12:40:12.562Z</time>
      </trkpt>
      <trkpt lat="62.65922" lon="6.60135">
        <ele>67.326411</ele>
        <time>2020-08-01T12:40:15.559Z</time>
      </trkpt>
      <trkpt lat="62.65919" lon="6.60157">
        <ele>67.412475</ele>
        <time>2020-08-01T12:40:17.546Z</time>
      </trkpt>
      <trkpt lat="62.65915" lon="6.60182">
        <ele>67.509497</ele>
        <time>2020-08-01T12:40:19.526Z</time>
      </trkpt>
      <trkpt lat="62.65911" lon="6.60206">
        <ele>67.609294</ele>
        <time>2020-08-01T12:40:21.518Z</time>
      </trkpt>
      <trkpt lat="62.65905" lon="6.60227">
        <ele>67.701558</ele>
        <time>2020-08-01T12:40:23.538Z</time>
      </trkpt>
      <trkpt lat="62.65897" lon="6.60242">
        <ele>67.789188</ele>
        <time>2020-08-01T12:40:25.542Z</time>
      </trkpt>
      <trkpt lat="62.65887" lon="6.60253">
        <ele>67.877573</ele>
        <time>2020-08-01T12:40:27.544Z</time>
      </trkpt>
      <trkpt lat="62.65878" lon="6.60261">
        <ele>67.958961</ele>
        <time>2020-08-01T12:40:29.515Z</time>
      </trkpt>
      <trkpt lat="62.65866" lon="6.60273">
        <ele>68.069592</ele>
        <time>2020-08-01T12:40:32.550Z</time>
      </trkpt>
      <trkpt lat="62.65854" lon="6.60285">
        <ele>68.235763</ele>
        <time>2020-08-01T12:40:35.527Z</time>
      </trkpt>
      <trkpt lat="62.65844" lon="6.60293">
        <ele>68.511973</ele>
        <time>2020-08-01T12:40:37.528Z</time>
      </trkpt>
      <trkpt lat="62.65834" lon="6.60304">
        <ele>68.826991</ele>
        <time>2020-08-01T12:40:39.536Z</time>
      </trkpt>
      <trkpt lat="62.65823" lon="6.60317">
        <ele>69.158297</ele>
        <time>2020-08-01T12:40:41.531Z</time>
      </trkpt>
      <trkpt lat="62.65812" lon="6.60331">
        <ele>69.508715</ele>
        <time>2020-08-01T12:40:43.548Z</time>
      </trkpt>
      <trkpt lat="62.65802" lon="6.60347">
        <ele>69.860254</ele>
        <time>2020-08-01T12:40:45.519Z</time>
      </trkpt>
      <trkpt lat="62.65794" lon="6.60367">
        <ele>70.19899</ele>
        <time>2020-08-01T12:40:47.547Z</time>
      </trkpt>
      <trkpt lat="62.65787" lon="6.60386">
        <ele>70.503184</ele>
        <time>2020-08-01T12:40:49.522Z</time>
      </trkpt>
      <trkpt lat="62.65781" lon="6.60403">
        <ele>70.766357</ele>
        <time>2020-08-01T12:40:51.527Z</time>
      </trkpt>
      <trkpt lat="62.65774" lon="6.60426">
        <ele>71.121222</ele>
        <time>2020-08-01T12:40:54.561Z</time>
      </trkpt>
      <trkpt lat="62.65767" lon="6.60447">
        <ele>71.438823</ele>
        <time>2020-08-01T12:40:57.526Z</time>
      </trkpt>
      <trkpt lat="62.65762" lon="6.60463">
        <ele>71.692056</ele>
        <time>2020-08-01T12:41:00.562Z</time>
      </trkpt>
      <trkpt lat="62.65756" lon="6.60478">
        <ele>71.944742</ele>
        <time>2020-08-01T12:41:04.552Z</time>
      </trkpt>
      <trkpt lat="62.65749" lon="6.60496">
        <ele>72.234241</ele>
        <time>2020-08-01T12:41:09.523Z</time>
      </trkpt>
      <trkpt lat="62.65743" lon="6.60514">
        <ele>72.512426</ele>
        <time>2020-08-01T12:41:15.535Z</time>
      </trkpt>
      <trkpt lat="62.65737" lon="6.60531">
        <ele>72.7886</ele>
        <time>2020-08-01T12:41:21.530Z</time>
      </trkpt>
      <trkpt lat="62.65731" lon="6.60548">
        <ele>73.051406</ele>
        <time>2020-08-01T12:41:27.535Z</time>
      </trkpt>
      <trkpt lat="62.65724" lon="6.60564">
        <ele>73.566113</ele>
        <time>2020-08-01T12:41:33.539Z</time>
      </trkpt>
      <trkpt lat="62.65716" lon="6.60576">
        <ele>74.112346</ele>
        <time>2020-08-01T12:41:40.538Z</time>
      </trkpt>
      <trkpt lat="62.65708" lon="6.60589">
        <ele>74.630176</ele>
        <time>2020-08-01T12:41:47.531Z</time>
      </trkpt>
      <trkpt lat="62.65701" lon="6.606">
        <ele>75.127142</ele>
        <time>2020-08-01T12:41:54.556Z</time>
      </trkpt>
      <trkpt lat="62.65694" lon="6.60615">
        <ele>75.643294</ele>
        <time>2020-08-01T12:42:03.547Z</time>
      </trkpt>
      <trkpt lat="62.65687" lon="6.60627">
        <ele>76.174425</ele>
        <time>2020-08-01T12:42:12.543Z</time>
      </trkpt>
      <trkpt lat="62.6568" lon="6.60641">
        <ele>76.669186</ele>
        <time>2020-08-01T12:42:20.574Z</time>
      </trkpt>
      <trkpt lat="62.65674" lon="6.60656">
        <ele>77.171744</ele>
        <time>2020-08-01T12:42:28.535Z</time>
      </trkpt>
      <trkpt lat="62.65667" lon="6.60671">
        <ele>77.703998</ele>
        <time>2020-08-01T12:42:36.544Z</time>
      </trkpt>
      <trkpt lat="62.6566" lon="6.60687">
        <ele>78.263492</ele>
        <time>2020-08-01T12:42:44.527Z</time>
      </trkpt>
      <trkpt lat="62.65656" lon="6.60707">
        <ele>78.83102</ele>
        <time>2020-08-01T12:42:52.536Z</time>
      </trkpt>
      <trkpt lat="62.65653" lon="6.60726">
        <ele>79.322238</ele>
        <time>2020-08-01T12:42:58.522Z</time>
      </trkpt>
      <trkpt lat="62.65652" lon="6.60746">
        <ele>79.836671</ele>
        <time>2020-08-01T12:43:03.523Z</time>
      </trkpt>
      <trkpt lat="62.65651" lon="6.60766">
        <ele>80.357761</ele>
        <time>2020-08-01T12:43:07.541Z</time>
      </trkpt>
      <trkpt lat="62.6565" lon="6.6079">
        <ele>80.957492</ele>
        <time>2020-08-01T12:43:11.522Z</time>
      </trkpt>
      <trkpt lat="62.6565" lon="6.60816">
        <ele>81.602244</ele>
        <time>2020-08-01T12:43:15.535Z</time>
      </trkpt>
      <trkpt lat="62.6565" lon="6.60841">
        <ele>82.229371</ele>
        <time>2020-08-01T12:43:18.523Z</time>
      </trkpt>
      <trkpt lat="62.65651" lon="6.60862">
        <ele>82.769268</ele>
        <time>2020-08-01T12:43:20.549Z</time>
      </trkpt>
      <trkpt lat="62.65652" lon="6.60887">
        <ele>82.717559</ele>
        <time>2020-08-01T12:43:22.530Z</time>
      </trkpt>
      <trkpt lat="62.65654" lon="6.60913">
        <ele>82.354588</ele>
        <time>2020-08-01T12:43:24.552Z</time>
      </trkpt>
      <trkpt lat="62.65657" lon="6.60938">
        <ele>81.994963</ele>
        <time>2020-08-01T12:43:26.585Z</time>
      </trkpt>
      <trkpt lat="62.65663" lon="6.60962">
        <ele>81.640476</ele>
        <time>2020-08-01T12:43:28.526Z</time>
      </trkpt>
      <trkpt lat="62.6567" lon="6.60983">
        <ele>81.281099</ele>
        <time>2020-08-01T12:43:30.531Z</time>
      </trkpt>
      <trkpt lat="62.65677" lon="6.61004">
        <ele>80.921633</ele>
        <time>2020-08-01T12:43:32.533Z</time>
      </trkpt>
      <trkpt lat="62.65683" lon="6.61027">
        <ele>80.565377</ele>
        <time>2020-08-01T12:43:34.542Z</time>
      </trkpt>
      <trkpt lat="62.65688" lon="6.6105">
        <ele>80.223093</ele>
        <time>2020-08-01T12:43:36.531Z</time>
      </trkpt>
      <trkpt lat="62.65694" lon="6.61075">
        <ele>79.832721</ele>
        <time>2020-08-01T12:43:38.538Z</time>
      </trkpt>
      <trkpt lat="62.65701" lon="6.61103">
        <ele>79.416781</ele>
        <time>2020-08-01T12:43:40.517Z</time>
      </trkpt>
      <trkpt lat="62.65706" lon="6.61131">
        <ele>78.999443</ele>
        <time>2020-08-01T12:43:42.562Z</time>
      </trkpt>
      <trkpt lat="62.65712" lon="6.61161">
        <ele>78.561335</ele>
        <time>2020-08-01T12:43:44.525Z</time>
      </trkpt>
      <trkpt lat="62.65717" lon="6.61193">
        <ele>78.088518</ele>
        <time>2020-08-01T12:43:46.556Z</time>
      </trkpt>
      <trkpt lat="62.65723" lon="6.61229">
        <ele>77.616988</ele>
        <time>2020-08-01T12:43:48.587Z</time>
      </trkpt>
      <trkpt lat="62.65725" lon="6.61249">
        <ele>77.516043</ele>
        <time>2020-08-01T12:43:49.526Z</time>
      </trkpt>
      <trkpt lat="62.65727" lon="6.6127">
        <ele>77.410133</ele>
        <time>2020-08-01T12:43:50.525Z</time>
      </trkpt>
      <trkpt lat="62.65727" lon="6.61292">
        <ele>77.299695</ele>
        <time>2020-08-01T12:43:51.541Z</time>
      </trkpt>
      <trkpt lat="62.65727" lon="6.61316">
        <ele>77.185864</ele>
        <time>2020-08-01T12:43:52.527Z</time>
      </trkpt>
      <trkpt lat="62.65726" lon="6.61338">
        <ele>77.076687</ele>
        <time>2020-08-01T12:43:53.575Z</time>
      </trkpt>
      <trkpt lat="62.65725" lon="6.61359">
        <ele>76.970764</ele>
        <time>2020-08-01T12:43:54.548Z</time>
      </trkpt>
      <trkpt lat="62.65724" lon="6.6138">
        <ele>76.869231</ele>
        <time>2020-08-01T12:43:55.530Z</time>
      </trkpt>
      <trkpt lat="62.65722" lon="6.61399">
        <ele>76.77156</ele>
        <time>2020-08-01T12:43:56.526Z</time>
      </trkpt>
      <trkpt lat="62.6572" lon="6.61435">
        <ele>76.592763</ele>
        <time>2020-08-01T12:43:58.546Z</time>
      </trkpt>
      <trkpt lat="62.65718" lon="6.61468">
        <ele>76.430941</ele>
        <time>2020-08-01T12:44:00.550Z</time>
      </trkpt>
      <trkpt lat="62.65715" lon="6.61498">
        <ele>76.279707</ele>
        <time>2020-08-01T12:44:02.532Z</time>
      </trkpt>
      <trkpt lat="62.65713" lon="6.61525">
        <ele>76.145848</ele>
        <time>2020-08-01T12:44:04.550Z</time>
      </trkpt>
      <trkpt lat="62.65712" lon="6.61551">
        <ele>76.020186</ele>
        <time>2020-08-01T12:44:06.561Z</time>
      </trkpt>
      <trkpt lat="62.65711" lon="6.61572">
        <ele>75.917194</ele>
        <time>2020-08-01T12:44:08.601Z</time>
      </trkpt>
      <trkpt lat="62.6571" lon="6.61598">
        <ele>75.786961</ele>
        <time>2020-08-01T12:44:11.582Z</time>
      </trkpt>
      <trkpt lat="62.65711" lon="6.61624">
        <ele>75.689342</ele>
        <time>2020-08-01T12:44:14.537Z</time>
      </trkpt>
      <trkpt lat="62.65711" lon="6.61649">
        <ele>75.634049</ele>
        <time>2020-08-01T12:44:17.544Z</time>
      </trkpt>
      <trkpt lat="62.65711" lon="6.6167">
        <ele>75.584759</ele>
        <time>2020-08-01T12:44:20.523Z</time>
      </trkpt>
      <trkpt lat="62.65711" lon="6.61696">
        <ele>75.525439</ele>
        <time>2020-08-01T12:44:24.526Z</time>
      </trkpt>
      <trkpt lat="62.65711" lon="6.61716">
        <ele>75.480037</ele>
        <time>2020-08-01T12:44:27.528Z</time>
      </trkpt>
      <trkpt lat="62.65711" lon="6.61737">
        <ele>75.432769</ele>
        <time>2020-08-01T12:44:30.534Z</time>
      </trkpt>
      <trkpt lat="62.65709" lon="6.61759">
        <ele>75.380515</ele>
        <time>2020-08-01T12:44:33.539Z</time>
      </trkpt>
      <trkpt lat="62.65706" lon="6.61786">
        <ele>75.317432</ele>
        <time>2020-08-01T12:44:36.544Z</time>
      </trkpt>
      <trkpt lat="62.65702" lon="6.61805">
        <ele>75.271151</ele>
        <time>2020-08-01T12:44:38.540Z</time>
      </trkpt>
      <trkpt lat="62.65698" lon="6.61823">
        <ele>75.222675</ele>
        <time>2020-08-01T12:44:40.524Z</time>
      </trkpt>
      <trkpt lat="62.65692" lon="6.61841">
        <ele>75.174811</ele>
        <time>2020-08-01T12:44:42.578Z</time>
      </trkpt>
      <trkpt lat="62.65686" lon="6.61859">
        <ele>75.124388</ele>
        <time>2020-08-01T12:44:44.521Z</time>
      </trkpt>
      <trkpt lat="62.6568" lon="6.61877">
        <ele>75.071789</ele>
        <time>2020-08-01T12:44:46.523Z</time>
      </trkpt>
      <trkpt lat="62.65673" lon="6.61896">
        <ele>75.017769</ele>
        <time>2020-08-01T12:44:48.590Z</time>
      </trkpt>
      <trkpt lat="62.65668" lon="6.61916">
        <ele>74.965232</ele>
        <time>2020-08-01T12:44:50.536Z</time>
      </trkpt>
      <trkpt lat="62.65665" lon="6.61938">
        <ele>74.913166</ele>
        <time>2020-08-01T12:44:52.540Z</time>
      </trkpt>
      <trkpt lat="62.65663" lon="6.6196">
        <ele>74.862183</ele>
        <time>2020-08-01T12:44:54.555Z</time>
      </trkpt>
      <trkpt lat="62.65662" lon="6.61981">
        <ele>74.77738</ele>
        <time>2020-08-01T12:44:56.545Z</time>
      </trkpt>
      <trkpt lat="62.65661" lon="6.62002">
        <ele>74.550767</ele>
        <time>2020-08-01T12:44:58.530Z</time>
      </trkpt>
      <trkpt lat="62.6566" lon="6.62023">
        <ele>74.32719</ele>
        <time>2020-08-01T12:45:00.526Z</time>
      </trkpt>
      <trkpt lat="62.65658" lon="6.62052">
        <ele>74.016052</ele>
        <time>2020-08-01T12:45:03.538Z</time>
      </trkpt>
      <trkpt lat="62.65657" lon="6.6208">
        <ele>73.711518</ele>
        <time>2020-08-01T12:45:06.544Z</time>
      </trkpt>
      <trkpt lat="62.65656" lon="6.62108">
        <ele>73.410128</ele>
        <time>2020-08-01T12:45:09.528Z</time>
      </trkpt>
      <trkpt lat="62.65654" lon="6.62136">
        <ele>73.104199</ele>
        <time>2020-08-01T12:45:12.528Z</time>
      </trkpt>
      <trkpt lat="62.65653" lon="6.62156">
        <ele>72.889654</ele>
        <time>2020-08-01T12:45:14.544Z</time>
      </trkpt>
      <trkpt lat="62.65653" lon="6.62176">
        <ele>72.675516</ele>
        <time>2020-08-01T12:45:16.543Z</time>
      </trkpt>
      <trkpt lat="62.65652" lon="6.62205">
        <ele>72.370662</ele>
        <time>2020-08-01T12:45:19.537Z</time>
      </trkpt>
      <trkpt lat="62.65653" lon="6.62233">
        <ele>72.061518</ele>
        <time>2020-08-01T12:45:22.558Z</time>
      </trkpt>
      <trkpt lat="62.65654" lon="6.62253">
        <ele>71.845665</ele>
        <time>2020-08-01T12:45:24.525Z</time>
      </trkpt>
      <trkpt lat="62.65656" lon="6.62274">
        <ele>71.618217</ele>
        <time>2020-08-01T12:45:26.560Z</time>
      </trkpt>
      <trkpt lat="62.65658" lon="6.62295">
        <ele>71.390678</ele>
        <time>2020-08-01T12:45:28.529Z</time>
      </trkpt>
      <trkpt lat="62.6566" lon="6.62316">
        <ele>71.161035</ele>
        <time>2020-08-01T12:45:30.536Z</time>
      </trkpt>
      <trkpt lat="62.65661" lon="6.62336">
        <ele>70.938585</ele>
        <time>2020-08-01T12:45:32.523Z</time>
      </trkpt>
      <trkpt lat="62.65663" lon="6.62356">
        <ele>70.72366</ele>
        <time>2020-08-01T12:45:34.531Z</time>
      </trkpt>
      <trkpt lat="62.65665" lon="6.62375">
        <ele>70.650667</ele>
        <time>2020-08-01T12:45:36.547Z</time>
      </trkpt>
      <trkpt lat="62.65668" lon="6.62404">
        <ele>70.732676</ele>
        <time>2020-08-01T12:45:39.559Z</time>
      </trkpt>
      <trkpt lat="62.6567" lon="6.62431">
        <ele>70.812715</ele>
        <time>2020-08-01T12:45:42.536Z</time>
      </trkpt>
      <trkpt lat="62.65672" lon="6.62458">
        <ele>70.890716</ele>
        <time>2020-08-01T12:45:45.527Z</time>
      </trkpt>
      <trkpt lat="62.65673" lon="6.62486">
        <ele>70.971582</ele>
        <time>2020-08-01T12:45:48.544Z</time>
      </trkpt>
      <trkpt lat="62.65675" lon="6.62512">
        <ele>71.046835</ele>
        <time>2020-08-01T12:45:51.535Z</time>
      </trkpt>
      <trkpt lat="62.65676" lon="6.62538">
        <ele>71.120966</ele>
        <time>2020-08-01T12:45:54.540Z</time>
      </trkpt>
      <trkpt lat="62.65676" lon="6.62558">
        <ele>71.178812</ele>
        <time>2020-08-01T12:45:56.534Z</time>
      </trkpt>
      <trkpt lat="62.65677" lon="6.62581">
        <ele>71.243768</ele>
        <time>2020-08-01T12:45:58.615Z</time>
      </trkpt>
      <trkpt lat="62.65677" lon="6.62604">
        <ele>71.309284</ele>
        <time>2020-08-01T12:46:00.533Z</time>
      </trkpt>
      <trkpt lat="62.65677" lon="6.62627">
        <ele>71.377229</ele>
        <time>2020-08-01T12:46:02.528Z</time>
      </trkpt>
      <trkpt lat="62.65678" lon="6.6265">
        <ele>71.443326</ele>
        <time>2020-08-01T12:46:04.551Z</time>
      </trkpt>
      <trkpt lat="62.65679" lon="6.62672">
        <ele>71.506179</ele>
        <time>2020-08-01T12:46:06.557Z</time>
      </trkpt>
      <trkpt lat="62.6568" lon="6.62692">
        <ele>71.563737</ele>
        <time>2020-08-01T12:46:08.522Z</time>
      </trkpt>
      <trkpt lat="62.65682" lon="6.6272">
        <ele>71.643316</ele>
        <time>2020-08-01T12:46:11.536Z</time>
      </trkpt>
      <trkpt lat="62.65684" lon="6.62745">
        <ele>71.717319</ele>
        <time>2020-08-01T12:46:14.570Z</time>
      </trkpt>
      <trkpt lat="62.65685" lon="6.62771">
        <ele>71.935912</ele>
        <time>2020-08-01T12:46:17.543Z</time>
      </trkpt>
      <trkpt lat="62.65685" lon="6.62796">
        <ele>72.223751</ele>
        <time>2020-08-01T12:46:20.528Z</time>
      </trkpt>
      <trkpt lat="62.65684" lon="6.62821">
        <ele>72.513509</ele>
        <time>2020-08-01T12:46:23.556Z</time>
      </trkpt>
      <trkpt lat="62.65681" lon="6.62847">
        <ele>72.809113</ele>
        <time>2020-08-01T12:46:26.547Z</time>
      </trkpt>
      <trkpt lat="62.65679" lon="6.62873">
        <ele>73.1134</ele>
        <time>2020-08-01T12:46:29.515Z</time>
      </trkpt>
      <trkpt lat="62.65676" lon="6.62901">
        <ele>73.434816</ele>
        <time>2020-08-01T12:46:32.539Z</time>
      </trkpt>
      <trkpt lat="62.65672" lon="6.62929">
        <ele>73.766942</ele>
        <time>2020-08-01T12:46:35.538Z</time>
      </trkpt>
      <trkpt lat="62.65669" lon="6.62957">
        <ele>74.094262</ele>
        <time>2020-08-01T12:46:38.545Z</time>
      </trkpt>
      <trkpt lat="62.65667" lon="6.62977">
        <ele>74.320684</ele>
        <time>2020-08-01T12:46:40.525Z</time>
      </trkpt>
      <trkpt lat="62.65664" lon="6.62996">
        <ele>74.551875</ele>
        <time>2020-08-01T12:46:42.528Z</time>
      </trkpt>
      <trkpt lat="62.65661" lon="6.63016">
        <ele>74.784922</ele>
        <time>2020-08-01T12:46:44.528Z</time>
      </trkpt>
      <trkpt lat="62.65658" lon="6.63036">
        <ele>75.0252</ele>
        <time>2020-08-01T12:46:46.549Z</time>
      </trkpt>
      <trkpt lat="62.65655" lon="6.63055">
        <ele>75.259633</ele>
        <time>2020-08-01T12:46:48.551Z</time>
      </trkpt>
      <trkpt lat="62.65652" lon="6.63075">
        <ele>75.490533</ele>
        <time>2020-08-01T12:46:50.523Z</time>
      </trkpt>
      <trkpt lat="62.65649" lon="6.63094">
        <ele>75.715275</ele>
        <time>2020-08-01T12:46:52.558Z</time>
      </trkpt>
      <trkpt lat="62.65646" lon="6.6312">
        <ele>76.024486</ele>
        <time>2020-08-01T12:46:55.555Z</time>
      </trkpt>
      <trkpt lat="62.65643" lon="6.63143">
        <ele>76.253156</ele>
        <time>2020-08-01T12:46:59.535Z</time>
      </trkpt>
      <trkpt lat="62.65642" lon="6.63163">
        <ele>76.397247</ele>
        <time>2020-08-01T12:47:04.545Z</time>
      </trkpt>
      <trkpt lat="62.6564" lon="6.63184">
        <ele>76.545201</ele>
        <time>2020-08-01T12:47:09.549Z</time>
      </trkpt>
      <trkpt lat="62.6564" lon="6.63204">
        <ele>76.693892</ele>
        <time>2020-08-01T12:47:14.535Z</time>
      </trkpt>
      <trkpt lat="62.65639" lon="6.63224">
        <ele>76.833951</ele>
        <time>2020-08-01T12:47:18.527Z</time>
      </trkpt>
      <trkpt lat="62.65639" lon="6.63244">
        <ele>76.974594</ele>
        <time>2020-08-01T12:47:22.546Z</time>
      </trkpt>
      <trkpt lat="62.65638" lon="6.63265">
        <ele>77.13032</ele>
        <time>2020-08-01T12:47:27.542Z</time>
      </trkpt>
      <trkpt lat="62.65638" lon="6.63287">
        <ele>77.287651</ele>
        <time>2020-08-01T12:47:32.533Z</time>
      </trkpt>
      <trkpt lat="62.65638" lon="6.6331">
        <ele>77.448282</ele>
        <time>2020-08-01T12:47:36.523Z</time>
      </trkpt>
      <trkpt lat="62.65637" lon="6.63333">
        <ele>77.616052</ele>
        <time>2020-08-01T12:47:41.545Z</time>
      </trkpt>
      <trkpt lat="62.65638" lon="6.63353">
        <ele>77.759243</ele>
        <time>2020-08-01T12:47:45.520Z</time>
      </trkpt>
      <trkpt lat="62.6564" lon="6.6338">
        <ele>77.950513</ele>
        <time>2020-08-01T12:47:49.522Z</time>
      </trkpt>
      <trkpt lat="62.65642" lon="6.63405">
        <ele>78.13673</ele>
        <time>2020-08-01T12:47:52.525Z</time>
      </trkpt>
      <trkpt lat="62.65643" lon="6.63426">
        <ele>78.286448</ele>
        <time>2020-08-01T12:47:54.529Z</time>
      </trkpt>
      <trkpt lat="62.65644" lon="6.63448">
        <ele>78.441279</ele>
        <time>2020-08-01T12:47:56.533Z</time>
      </trkpt>
      <trkpt lat="62.65645" lon="6.63468">
        <ele>78.588029</ele>
        <time>2020-08-01T12:47:58.524Z</time>
      </trkpt>
      <trkpt lat="62.65646" lon="6.63495">
        <ele>78.781666</ele>
        <time>2020-08-01T12:48:01.551Z</time>
      </trkpt>
      <trkpt lat="62.65647" lon="6.63518">
        <ele>78.948725</ele>
        <time>2020-08-01T12:48:04.524Z</time>
      </trkpt>
      <trkpt lat="62.65649" lon="6.6354">
        <ele>79.216671</ele>
        <time>2020-08-01T12:48:07.538Z</time>
      </trkpt>
      <trkpt lat="62.6565" lon="6.63561">
        <ele>79.490267</ele>
        <time>2020-08-01T12:48:10.558Z</time>
      </trkpt>
      <trkpt lat="62.65651" lon="6.63583">
        <ele>79.774812</ele>
        <time>2020-08-01T12:48:13.522Z</time>
      </trkpt>
      <trkpt lat="62.65652" lon="6.63606">
        <ele>80.072032</ele>
        <time>2020-08-01T12:48:16.549Z</time>
      </trkpt>
      <trkpt lat="62.65653" lon="6.63629">
        <ele>80.383846</ele>
        <time>2020-08-01T12:48:19.560Z</time>
      </trkpt>
      <trkpt lat="62.65656" lon="6.63653">
        <ele>80.693798</ele>
        <time>2020-08-01T12:48:22.544Z</time>
      </trkpt>
      <trkpt lat="62.65657" lon="6.63675">
        <ele>80.992315</ele>
        <time>2020-08-01T12:48:25.526Z</time>
      </trkpt>
      <trkpt lat="62.65658" lon="6.63696">
        <ele>81.265018</ele>
        <time>2020-08-01T12:48:28.523Z</time>
      </trkpt>
      <trkpt lat="62.6566" lon="6.63716">
        <ele>81.527976</ele>
        <time>2020-08-01T12:48:31.539Z</time>
      </trkpt>
      <trkpt lat="62.65664" lon="6.6374">
        <ele>81.852441</ele>
        <time>2020-08-01T12:48:35.550Z</time>
      </trkpt>
      <trkpt lat="62.65667" lon="6.63762">
        <ele>82.162226</ele>
        <time>2020-08-01T12:48:39.528Z</time>
      </trkpt>
      <trkpt lat="62.65672" lon="6.63782">
        <ele>82.456334</ele>
        <time>2020-08-01T12:48:43.538Z</time>
      </trkpt>
      <trkpt lat="62.65677" lon="6.63802">
        <ele>82.741788</ele>
        <time>2020-08-01T12:48:47.552Z</time>
      </trkpt>
      <trkpt lat="62.6568" lon="6.6382">
        <ele>83.004854</ele>
        <time>2020-08-01T12:48:51.529Z</time>
      </trkpt>
      <trkpt lat="62.65684" lon="6.63838">
        <ele>83.258453</ele>
        <time>2020-08-01T12:48:55.528Z</time>
      </trkpt>
      <trkpt lat="62.65689" lon="6.63857">
        <ele>83.548656</ele>
        <time>2020-08-01T12:49:00.546Z</time>
      </trkpt>
      <trkpt lat="62.65694" lon="6.63877">
        <ele>83.83883</ele>
        <time>2020-08-01T12:49:05.558Z</time>
      </trkpt>
      <trkpt lat="62.65697" lon="6.63895">
        <ele>84.097368</ele>
        <time>2020-08-01T12:49:09.535Z</time>
      </trkpt>
      <trkpt lat="62.65702" lon="6.63916">
        <ele>84.34045</ele>
        <time>2020-08-01T12:49:13.532Z</time>
      </trkpt>
      <trkpt lat="62.65706" lon="6.63936">
        <ele>84.571932</ele>
        <time>2020-08-01T12:49:17.539Z</time>
      </trkpt>
      <trkpt lat="62.65711" lon="6.63954">
        <ele>84.794447</ele>
        <time>2020-08-01T12:49:21.539Z</time>
      </trkpt>
      <trkpt lat="62.65715" lon="6.63973">
        <ele>85.015364</ele>
        <time>2020-08-01T12:49:25.535Z</time>
      </trkpt>
      <trkpt lat="62.65719" lon="6.63991">
        <ele>85.228214</ele>
        <time>2020-08-01T12:49:29.526Z</time>
      </trkpt>
      <trkpt lat="62.65724" lon="6.64007">
        <ele>85.43819</ele>
        <time>2020-08-01T12:49:33.538Z</time>
      </trkpt>
      <trkpt lat="62.65728" lon="6.64027">
        <ele>85.666798</ele>
        <time>2020-08-01T12:49:37.528Z</time>
      </trkpt>
      <trkpt lat="62.65734" lon="6.64047">
        <ele>85.913926</ele>
        <time>2020-08-01T12:49:41.559Z</time>
      </trkpt>
      <trkpt lat="62.65738" lon="6.64067">
        <ele>86.145709</ele>
        <time>2020-08-01T12:49:45.529Z</time>
      </trkpt>
      <trkpt lat="62.65742" lon="6.64087">
        <ele>86.37533</ele>
        <time>2020-08-01T12:49:49.532Z</time>
      </trkpt>
      <trkpt lat="62.65747" lon="6.64106">
        <ele>86.617387</ele>
        <time>2020-08-01T12:49:53.528Z</time>
      </trkpt>
      <trkpt lat="62.65752" lon="6.64125">
        <ele>86.846589</ele>
        <time>2020-08-01T12:49:56.560Z</time>
      </trkpt>
      <trkpt lat="62.65758" lon="6.64147">
        <ele>87.116954</ele>
        <time>2020-08-01T12:49:59.538Z</time>
      </trkpt>
      <trkpt lat="62.65764" lon="6.64171">
        <ele>87.405847</ele>
        <time>2020-08-01T12:50:02.532Z</time>
      </trkpt>
      <trkpt lat="62.65768" lon="6.64193">
        <ele>87.657587</ele>
        <time>2020-08-01T12:50:05.549Z</time>
      </trkpt>
      <trkpt lat="62.65774" lon="6.64215">
        <ele>87.92565</ele>
        <time>2020-08-01T12:50:09.548Z</time>
      </trkpt>
      <trkpt lat="62.65779" lon="6.64232">
        <ele>88.139548</ele>
        <time>2020-08-01T12:50:12.546Z</time>
      </trkpt>
      <trkpt lat="62.65784" lon="6.6425">
        <ele>88.298909</ele>
        <time>2020-08-01T12:50:15.526Z</time>
      </trkpt>
      <trkpt lat="62.65789" lon="6.64268">
        <ele>88.408714</ele>
        <time>2020-08-01T12:50:18.523Z</time>
      </trkpt>
      <trkpt lat="62.65793" lon="6.64286">
        <ele>88.515344</ele>
        <time>2020-08-01T12:50:21.544Z</time>
      </trkpt>
      <trkpt lat="62.65798" lon="6.64302">
        <ele>88.620607</ele>
        <time>2020-08-01T12:50:24.543Z</time>
      </trkpt>
      <trkpt lat="62.65804" lon="6.64324">
        <ele>88.747825</ele>
        <time>2020-08-01T12:50:28.541Z</time>
      </trkpt>
      <trkpt lat="62.65809" lon="6.64342">
        <ele>88.860195</ele>
        <time>2020-08-01T12:50:32.518Z</time>
      </trkpt>
      <trkpt lat="62.65814" lon="6.64363">
        <ele>88.985939</ele>
        <time>2020-08-01T12:50:37.542Z</time>
      </trkpt>
      <trkpt lat="62.65818" lon="6.64383">
        <ele>89.101376</ele>
        <time>2020-08-01T12:50:42.533Z</time>
      </trkpt>
      <trkpt lat="62.65821" lon="6.64405">
        <ele>89.224011</ele>
        <time>2020-08-01T12:50:47.533Z</time>
      </trkpt>
      <trkpt lat="62.65825" lon="6.64423">
        <ele>89.332779</ele>
        <time>2020-08-01T12:50:51.541Z</time>
      </trkpt>
      <trkpt lat="62.65832" lon="6.64443">
        <ele>89.462579</ele>
        <time>2020-08-01T12:50:55.573Z</time>
      </trkpt>
      <trkpt lat="62.65838" lon="6.64463">
        <ele>89.586188</ele>
        <time>2020-08-01T12:50:58.542Z</time>
      </trkpt>
      <trkpt lat="62.65843" lon="6.64486">
        <ele>89.723858</ele>
        <time>2020-08-01T12:51:01.537Z</time>
      </trkpt>
      <trkpt lat="62.65849" lon="6.64511">
        <ele>89.871128</ele>
        <time>2020-08-01T12:51:04.535Z</time>
      </trkpt>
      <trkpt lat="62.65854" lon="6.64529">
        <ele>89.976279</ele>
        <time>2020-08-01T12:51:06.541Z</time>
      </trkpt>
      <trkpt lat="62.65858" lon="6.64547">
        <ele>90.085409</ele>
        <time>2020-08-01T12:51:08.535Z</time>
      </trkpt>
      <trkpt lat="62.65863" lon="6.64565">
        <ele>90.195691</ele>
        <time>2020-08-01T12:51:10.528Z</time>
      </trkpt>
      <trkpt lat="62.65868" lon="6.64584">
        <ele>90.296901</ele>
        <time>2020-08-01T12:51:12.562Z</time>
      </trkpt>
      <trkpt lat="62.65873" lon="6.64603">
        <ele>90.285741</ele>
        <time>2020-08-01T12:51:14.518Z</time>
      </trkpt>
      <trkpt lat="62.65878" lon="6.64622">
        <ele>90.274929</ele>
        <time>2020-08-01T12:51:16.543Z</time>
      </trkpt>
      <trkpt lat="62.65882" lon="6.6464">
        <ele>90.26481</ele>
        <time>2020-08-01T12:51:18.546Z</time>
      </trkpt>
      <trkpt lat="62.65886" lon="6.64658">
        <ele>90.25463</ele>
        <time>2020-08-01T12:51:20.537Z</time>
      </trkpt>
      <trkpt lat="62.65891" lon="6.64685">
        <ele>90.240468</ele>
        <time>2020-08-01T12:51:23.532Z</time>
      </trkpt>
      <trkpt lat="62.65896" lon="6.64709">
        <ele>90.22712</ele>
        <time>2020-08-01T12:51:26.520Z</time>
      </trkpt>
      <trkpt lat="62.65901" lon="6.64731">
        <ele>90.214915</ele>
        <time>2020-08-01T12:51:29.537Z</time>
      </trkpt>
      <trkpt lat="62.65907" lon="6.64754">
        <ele>90.201857</ele>
        <time>2020-08-01T12:51:32.530Z</time>
      </trkpt>
      <trkpt lat="62.65913" lon="6.64778">
        <ele>90.188287</ele>
        <time>2020-08-01T12:51:35.520Z</time>
      </trkpt>
      <trkpt lat="62.65918" lon="6.64804">
        <ele>90.174086</ele>
        <time>2020-08-01T12:51:38.521Z</time>
      </trkpt>
      <trkpt lat="62.65924" lon="6.64828">
        <ele>90.16081</ele>
        <time>2020-08-01T12:51:41.524Z</time>
      </trkpt>
      <trkpt lat="62.65929" lon="6.64849">
        <ele>90.148855</ele>
        <time>2020-08-01T12:51:44.519Z</time>
      </trkpt>
      <trkpt lat="62.65934" lon="6.64869">
        <ele>90.137266</ele>
        <time>2020-08-01T12:51:47.527Z</time>
      </trkpt>
      <trkpt lat="62.65938" lon="6.64888">
        <ele>90.126776</ele>
        <time>2020-08-01T12:51:50.521Z</time>
      </trkpt>
      <trkpt lat="62.65942" lon="6.64907">
        <ele>90.11656</ele>
        <time>2020-08-01T12:51:53.540Z</time>
      </trkpt>
      <trkpt lat="62.65947" lon="6.64928">
        <ele>90.104535</ele>
        <time>2020-08-01T12:51:57.557Z</time>
      </trkpt>
      <trkpt lat="62.65952" lon="6.6495">
        <ele>90.616049</ele>
        <time>2020-08-01T12:52:01.539Z</time>
      </trkpt>
      <trkpt lat="62.65957" lon="6.64967">
        <ele>91.116144</ele>
        <time>2020-08-01T12:52:04.537Z</time>
      </trkpt>
      <trkpt lat="62.65963" lon="6.64984">
        <ele>91.631315</ele>
        <time>2020-08-01T12:52:07.540Z</time>
      </trkpt>
      <trkpt lat="62.65967" lon="6.65001">
        <ele>92.13352</ele>
        <time>2020-08-01T12:52:10.542Z</time>
      </trkpt>
      <trkpt lat="62.65972" lon="6.65019">
        <ele>92.64569</ele>
        <time>2020-08-01T12:52:13.544Z</time>
      </trkpt>
      <trkpt lat="62.65977" lon="6.65037">
        <ele>93.164913</ele>
        <time>2020-08-01T12:52:16.530Z</time>
      </trkpt>
      <trkpt lat="62.65982" lon="6.65059">
        <ele>93.78585</ele>
        <time>2020-08-01T12:52:20.520Z</time>
      </trkpt>
      <trkpt lat="62.65985" lon="6.65079">
        <ele>94.314834</ele>
        <time>2020-08-01T12:52:24.543Z</time>
      </trkpt>
      <trkpt lat="62.65988" lon="6.651">
        <ele>94.862599</ele>
        <time>2020-08-01T12:52:29.534Z</time>
      </trkpt>
      <trkpt lat="62.65992" lon="6.6512">
        <ele>95.385086</ele>
        <time>2020-08-01T12:52:34.536Z</time>
      </trkpt>
      <trkpt lat="62.65995" lon="6.65139">
        <ele>95.89979</ele>
        <time>2020-08-01T12:52:39.568Z</time>
      </trkpt>
      <trkpt lat="62.65999" lon="6.65158">
        <ele>96.407305</ele>
        <time>2020-08-01T12:52:44.543Z</time>
      </trkpt>
      <trkpt lat="62.66002" lon="6.65179">
        <ele>96.977502</ele>
        <time>2020-08-01T12:52:50.552Z</time>
      </trkpt>
      <trkpt lat="62.66006" lon="6.65199">
        <ele>97.502328</ele>
        <time>2020-08-01T12:52:56.519Z</time>
      </trkpt>
      <trkpt lat="62.6601" lon="6.6522">
        <ele>98.082157</ele>
        <time>2020-08-01T12:53:02.527Z</time>
      </trkpt>
      <trkpt lat="62.66014" lon="6.6524">
        <ele>98.618841</ele>
        <time>2020-08-01T12:53:08.525Z</time>
      </trkpt>
      <trkpt lat="62.66018" lon="6.65262">
        <ele>99.194603</ele>
        <time>2020-08-01T12:53:14.526Z</time>
      </trkpt>
      <trkpt lat="62.6602" lon="6.65281">
        <ele>99.702071</ele>
        <time>2020-08-01T12:53:19.535Z</time>
      </trkpt>
      <trkpt lat="62.66024" lon="6.65303">
        <ele>99.920799</ele>
        <time>2020-08-01T12:53:26.527Z</time>
      </trkpt>
      <trkpt lat="62.66029" lon="6.65323">
        <ele>99.999349</ele>
        <time>2020-08-01T12:53:31.520Z</time>
      </trkpt>
      <trkpt lat="62.66034" lon="6.65343">
        <ele>100.076615</ele>
        <time>2020-08-01T12:53:36.523Z</time>
      </trkpt>
      <trkpt lat="62.66038" lon="6.65364">
        <ele>100.158757</ele>
        <time>2020-08-01T12:53:41.555Z</time>
      </trkpt>
      <trkpt lat="62.66042" lon="6.65382">
        <ele>100.228259</ele>
        <time>2020-08-01T12:53:45.528Z</time>
      </trkpt>
      <trkpt lat="62.66046" lon="6.65401">
        <ele>100.299987</ele>
        <time>2020-08-01T12:53:49.526Z</time>
      </trkpt>
      <trkpt lat="62.66049" lon="6.65425">
        <ele>100.387199</ele>
        <time>2020-08-01T12:53:53.527Z</time>
      </trkpt>
      <trkpt lat="62.66052" lon="6.65446">
        <ele>100.461625</ele>
        <time>2020-08-01T12:53:56.518Z</time>
      </trkpt>
      <trkpt lat="62.66054" lon="6.65466">
        <ele>100.536853</ele>
        <time>2020-08-01T12:53:59.544Z</time>
      </trkpt>
      <trkpt lat="62.66058" lon="6.65488">
        <ele>100.616552</ele>
        <time>2020-08-01T12:54:02.582Z</time>
      </trkpt>
      <trkpt lat="62.66063" lon="6.65507">
        <ele>100.69443</ele>
        <time>2020-08-01T12:54:05.522Z</time>
      </trkpt>
      <trkpt lat="62.66069" lon="6.65526">
        <ele>100.772109</ele>
        <time>2020-08-01T12:54:08.573Z</time>
      </trkpt>
      <trkpt lat="62.66076" lon="6.65546">
        <ele>100.861856</ele>
        <time>2020-08-01T12:54:11.597Z</time>
      </trkpt>
      <trkpt lat="62.66084" lon="6.65566">
        <ele>100.954341</ele>
        <time>2020-08-01T12:54:14.546Z</time>
      </trkpt>
      <trkpt lat="62.66092" lon="6.65587">
        <ele>101.048267</ele>
        <time>2020-08-01T12:54:17.538Z</time>
      </trkpt>
      <trkpt lat="62.66099" lon="6.65609">
        <ele>101.145456</ele>
        <time>2020-08-01T12:54:20.573Z</time>
      </trkpt>
      <trkpt lat="62.66105" lon="6.65628">
        <ele>101.222142</ele>
        <time>2020-08-01T12:54:22.549Z</time>
      </trkpt>
      <trkpt lat="62.6611" lon="6.6565">
        <ele>100.584377</ele>
        <time>2020-08-01T12:54:24.528Z</time>
      </trkpt>
      <trkpt lat="62.66113" lon="6.65676">
        <ele>99.822324</ele>
        <time>2020-08-01T12:54:26.536Z</time>
      </trkpt>
      <trkpt lat="62.66116" lon="6.65704">
        <ele>99.013844</ele>
        <time>2020-08-01T12:54:28.527Z</time>
      </trkpt>
      <trkpt lat="62.6612" lon="6.65733">
        <ele>98.150583</ele>
        <time>2020-08-01T12:54:30.545Z</time>
      </trkpt>
      <trkpt lat="62.66124" lon="6.65764">
        <ele>97.237299</ele>
        <time>2020-08-01T12:54:32.528Z</time>
      </trkpt>
      <trkpt lat="62.66128" lon="6.65796">
        <ele>96.317429</ele>
        <time>2020-08-01T12:54:34.533Z</time>
      </trkpt>
      <trkpt lat="62.66133" lon="6.65828">
        <ele>95.357229</ele>
        <time>2020-08-01T12:54:36.530Z</time>
      </trkpt>
      <trkpt lat="62.6614" lon="6.65862">
        <ele>94.303571</ele>
        <time>2020-08-01T12:54:38.555Z</time>
      </trkpt>
      <trkpt lat="62.66144" lon="6.6588">
        <ele>93.734187</ele>
        <time>2020-08-01T12:54:39.562Z</time>
      </trkpt>
      <trkpt lat="62.66147" lon="6.659">
        <ele>93.1357</ele>
        <time>2020-08-01T12:54:40.539Z</time>
      </trkpt>
      <trkpt lat="62.6615" lon="6.65921">
        <ele>92.516142</ele>
        <time>2020-08-01T12:54:41.521Z</time>
      </trkpt>
      <trkpt lat="62.66153" lon="6.65943">
        <ele>91.87259</ele>
        <time>2020-08-01T12:54:42.523Z</time>
      </trkpt>
      <trkpt lat="62.66155" lon="6.65966">
        <ele>91.213369</ele>
        <time>2020-08-01T12:54:43.520Z</time>
      </trkpt>
      <trkpt lat="62.66157" lon="6.65991">
        <ele>90.514191</ele>
        <time>2020-08-01T12:54:44.577Z</time>
      </trkpt>
      <trkpt lat="62.66159" lon="6.66015">
        <ele>89.742498</ele>
        <time>2020-08-01T12:54:45.546Z</time>
      </trkpt>
      <trkpt lat="62.66162" lon="6.66039">
        <ele>88.912678</ele>
        <time>2020-08-01T12:54:46.525Z</time>
      </trkpt>
      <trkpt lat="62.66165" lon="6.66061">
        <ele>88.111607</ele>
        <time>2020-08-01T12:54:47.550Z</time>
      </trkpt>
      <trkpt lat="62.66169" lon="6.66084">
        <ele>87.307583</ele>
        <time>2020-08-01T12:54:48.530Z</time>
      </trkpt>
      <trkpt lat="62.66173" lon="6.66106">
        <ele>86.481336</ele>
        <time>2020-08-01T12:54:49.546Z</time>
      </trkpt>
      <trkpt lat="62.66177" lon="6.6613">
        <ele>85.632769</ele>
        <time>2020-08-01T12:54:50.556Z</time>
      </trkpt>
      <trkpt lat="62.66182" lon="6.66153">
        <ele>84.775223</ele>
        <time>2020-08-01T12:54:51.554Z</time>
      </trkpt>
      <trkpt lat="62.66186" lon="6.66178">
        <ele>83.894496</ele>
        <time>2020-08-01T12:54:52.524Z</time>
      </trkpt>
      <trkpt lat="62.6619" lon="6.66203">
        <ele>82.999525</ele>
        <time>2020-08-01T12:54:53.534Z</time>
      </trkpt>
      <trkpt lat="62.66193" lon="6.66229">
        <ele>82.092016</ele>
        <time>2020-08-01T12:54:54.568Z</time>
      </trkpt>
      <trkpt lat="62.66197" lon="6.66255">
        <ele>81.178949</ele>
        <time>2020-08-01T12:54:55.566Z</time>
      </trkpt>
      <trkpt lat="62.662" lon="6.66281">
        <ele>80.261357</ele>
        <time>2020-08-01T12:54:56.543Z</time>
      </trkpt>
      <trkpt lat="62.66204" lon="6.66307">
        <ele>79.34523</ele>
        <time>2020-08-01T12:54:57.612Z</time>
      </trkpt>
      <trkpt lat="62.66208" lon="6.66332">
        <ele>78.435596</ele>
        <time>2020-08-01T12:54:58.543Z</time>
      </trkpt>
      <trkpt lat="62.66214" lon="6.66356">
        <ele>77.519606</ele>
        <time>2020-08-01T12:54:59.538Z</time>
      </trkpt>
      <trkpt lat="62.6622" lon="6.66379">
        <ele>76.52708</ele>
        <time>2020-08-01T12:55:00.559Z</time>
      </trkpt>
      <trkpt lat="62.66227" lon="6.66401">
        <ele>75.382327</ele>
        <time>2020-08-01T12:55:01.546Z</time>
      </trkpt>
      <trkpt lat="62.66233" lon="6.66422">
        <ele>74.261537</ele>
        <time>2020-08-01T12:55:02.551Z</time>
      </trkpt>
      <trkpt lat="62.6624" lon="6.66441">
        <ele>73.224755</ele>
        <time>2020-08-01T12:55:03.559Z</time>
      </trkpt>
      <trkpt lat="62.66247" lon="6.66458">
        <ele>72.215963</ele>
        <time>2020-08-01T12:55:04.542Z</time>
      </trkpt>
      <trkpt lat="62.66256" lon="6.66471">
        <ele>71.215877</ele>
        <time>2020-08-01T12:55:05.520Z</time>
      </trkpt>
      <trkpt lat="62.66266" lon="6.6648">
        <ele>70.143796</ele>
        <time>2020-08-01T12:55:06.552Z</time>
      </trkpt>
      <trkpt lat="62.66277" lon="6.66483">
        <ele>69.076277</ele>
        <time>2020-08-01T12:55:07.547Z</time>
      </trkpt>
      <trkpt lat="62.66288" lon="6.66481">
        <ele>68.014955</ele>
        <time>2020-08-01T12:55:08.530Z</time>
      </trkpt>
      <trkpt lat="62.663" lon="6.66476">
        <ele>66.911621</ele>
        <time>2020-08-01T12:55:09.526Z</time>
      </trkpt>
      <trkpt lat="62.6631" lon="6.6647">
        <ele>65.883562</ele>
        <time>2020-08-01T12:55:10.523Z</time>
      </trkpt>
      <trkpt lat="62.6632" lon="6.66466">
        <ele>64.905357</ele>
        <time>2020-08-01T12:55:11.552Z</time>
      </trkpt>
      <trkpt lat="62.6633" lon="6.66463">
        <ele>63.945171</ele>
        <time>2020-08-01T12:55:12.539Z</time>
      </trkpt>
      <trkpt lat="62.66339" lon="6.6646">
        <ele>63.058739</ele>
        <time>2020-08-01T12:55:13.526Z</time>
      </trkpt>
      <trkpt lat="62.66355" lon="6.66461">
        <ele>61.533488</ele>
        <time>2020-08-01T12:55:15.537Z</time>
      </trkpt>
      <trkpt lat="62.66371" lon="6.66472">
        <ele>59.982673</ele>
        <time>2020-08-01T12:55:17.565Z</time>
      </trkpt>
      <trkpt lat="62.6638" lon="6.66478">
        <ele>59.535421</ele>
        <time>2020-08-01T12:55:18.527Z</time>
      </trkpt>
      <trkpt lat="62.6639" lon="6.66484">
        <ele>59.182781</ele>
        <time>2020-08-01T12:55:19.519Z</time>
      </trkpt>
      <trkpt lat="62.664" lon="6.66487">
        <ele>58.815659</ele>
        <time>2020-08-01T12:55:20.533Z</time>
      </trkpt>
      <trkpt lat="62.66411" lon="6.66484">
        <ele>58.430966</ele>
        <time>2020-08-01T12:55:21.538Z</time>
      </trkpt>
      <trkpt lat="62.66422" lon="6.66476">
        <ele>58.039291</ele>
        <time>2020-08-01T12:55:22.547Z</time>
      </trkpt>
      <trkpt lat="62.66431" lon="6.66463">
        <ele>57.658219</ele>
        <time>2020-08-01T12:55:23.539Z</time>
      </trkpt>
      <trkpt lat="62.66439" lon="6.66449">
        <ele>57.305612</ele>
        <time>2020-08-01T12:55:24.543Z</time>
      </trkpt>
      <trkpt lat="62.66446" lon="6.66434">
        <ele>56.967626</ele>
        <time>2020-08-01T12:55:25.541Z</time>
      </trkpt>
      <trkpt lat="62.66452" lon="6.66419">
        <ele>56.646563</ele>
        <time>2020-08-01T12:55:26.540Z</time>
      </trkpt>
      <trkpt lat="62.66462" lon="6.66394">
        <ele>56.115902</ele>
        <time>2020-08-01T12:55:28.529Z</time>
      </trkpt>
      <trkpt lat="62.66472" lon="6.66377">
        <ele>55.660235</ele>
        <time>2020-08-01T12:55:30.562Z</time>
      </trkpt>
      <trkpt lat="62.66479" lon="6.66363">
        <ele>55.322225</ele>
        <time>2020-08-01T12:55:32.563Z</time>
      </trkpt>
      <trkpt lat="62.66488" lon="6.66345">
        <ele>54.908462</ele>
        <time>2020-08-01T12:55:35.526Z</time>
      </trkpt>
      <trkpt lat="62.66494" lon="6.66331">
        <ele>54.577473</ele>
        <time>2020-08-01T12:55:38.537Z</time>
      </trkpt>
      <trkpt lat="62.66501" lon="6.66318">
        <ele>54.259583</ele>
        <time>2020-08-01T12:55:41.530Z</time>
      </trkpt>
      <trkpt lat="62.6651" lon="6.66302">
        <ele>53.852784</ele>
        <time>2020-08-01T12:55:45.537Z</time>
      </trkpt>
      <trkpt lat="62.66519" lon="6.6629">
        <ele>53.608369</ele>
        <time>2020-08-01T12:55:49.527Z</time>
      </trkpt>
      <trkpt lat="62.66529" lon="6.66283">
        <ele>54.583755</ele>
        <time>2020-08-01T12:55:53.537Z</time>
      </trkpt>
      <trkpt lat="62.66539" lon="6.66277">
        <ele>55.672461</ele>
        <time>2020-08-01T12:55:58.559Z</time>
      </trkpt>
      <trkpt lat="62.6655" lon="6.66274">
        <ele>56.729282</ele>
        <time>2020-08-01T12:56:04.565Z</time>
      </trkpt>
      <trkpt lat="62.66559" lon="6.66271">
        <ele>57.646911</ele>
        <time>2020-08-01T12:56:10.518Z</time>
      </trkpt>
      <trkpt lat="62.66569" lon="6.66266">
        <ele>58.628251</ele>
        <time>2020-08-01T12:56:17.529Z</time>
      </trkpt>
      <trkpt lat="62.66578" lon="6.66258">
        <ele>59.574423</ele>
        <time>2020-08-01T12:56:24.536Z</time>
      </trkpt>
      <trkpt lat="62.66586" lon="6.66251">
        <ele>60.514776</ele>
        <time>2020-08-01T12:56:31.527Z</time>
      </trkpt>
      <trkpt lat="62.66595" lon="6.6624">
        <ele>61.474067</ele>
        <time>2020-08-01T12:56:38.560Z</time>
      </trkpt>
      <trkpt lat="62.66604" lon="6.66227">
        <ele>62.506549</ele>
        <time>2020-08-01T12:56:45.569Z</time>
      </trkpt>
      <trkpt lat="62.66611" lon="6.66216">
        <ele>63.449136</ele>
        <time>2020-08-01T12:56:52.536Z</time>
      </trkpt>
      <trkpt lat="62.6662" lon="6.66208">
        <ele>64.345656</ele>
        <time>2020-08-01T12:56:59.547Z</time>
      </trkpt>
      <trkpt lat="62.66628" lon="6.66196">
        <ele>65.350582</ele>
        <time>2020-08-01T12:57:07.547Z</time>
      </trkpt>
      <trkpt lat="62.66638" lon="6.66192">
        <ele>66.287107</ele>
        <time>2020-08-01T12:57:15.541Z</time>
      </trkpt>
      <trkpt lat="62.66647" lon="6.66188">
        <ele>67.221364</ele>
        <time>2020-08-01T12:57:23.574Z</time>
      </trkpt>
      <trkpt lat="62.66656" lon="6.66185">
        <ele>68.142766</ele>
        <time>2020-08-01T12:57:31.525Z</time>
      </trkpt>
      <trkpt lat="62.66666" lon="6.6618">
        <ele>69.159288</ele>
        <time>2020-08-01T12:57:39.543Z</time>
      </trkpt>
      <trkpt lat="62.66675" lon="6.66173">
        <ele>70.063293</ele>
        <time>2020-08-01T12:57:46.513Z</time>
      </trkpt>
      <trkpt lat="62.66683" lon="6.66168">
        <ele>70.95502</ele>
        <time>2020-08-01T12:57:52.521Z</time>
      </trkpt>
      <trkpt lat="62.66692" lon="6.66161">
        <ele>71.604852</ele>
        <time>2020-08-01T12:57:58.521Z</time>
      </trkpt>
      <trkpt lat="62.66701" lon="6.66151">
        <ele>72.083221</ele>
        <time>2020-08-01T12:58:04.550Z</time>
      </trkpt>
      <trkpt lat="62.66708" lon="6.66136">
        <ele>72.52038</ele>
        <time>2020-08-01T12:58:09.517Z</time>
      </trkpt>
      <trkpt lat="62.66727" lon="6.66116">
        <ele>73.556846</ele>
        <time>2020-08-01T13:00:19.540Z</time>
      </trkpt>
      <trkpt lat="62.66737" lon="6.66105">
        <ele>74.083407</ele>
        <time>2020-08-01T13:00:24.522Z</time>
      </trkpt>
      <trkpt lat="62.66746" lon="6.66092">
        <ele>74.587515</ele>
        <time>2020-08-01T13:00:29.543Z</time>
      </trkpt>
      <trkpt lat="62.66755" lon="6.66081">
        <ele>75.081494</ele>
        <time>2020-08-01T13:00:34.539Z</time>
      </trkpt>
      <trkpt lat="62.66764" lon="6.6607">
        <ele>75.566083</ele>
        <time>2020-08-01T13:00:39.546Z</time>
      </trkpt>
      <trkpt lat="62.66772" lon="6.66062">
        <ele>76.030384</ele>
        <time>2020-08-01T13:00:44.538Z</time>
      </trkpt>
      <trkpt lat="62.66781" lon="6.66053">
        <ele>76.472257</ele>
        <time>2020-08-01T13:00:49.524Z</time>
      </trkpt>
      <trkpt lat="62.6679" lon="6.66045">
        <ele>76.960296</ele>
        <time>2020-08-01T13:00:55.542Z</time>
      </trkpt>
      <trkpt lat="62.66799" lon="6.66038">
        <ele>77.396037</ele>
        <time>2020-08-01T13:01:01.565Z</time>
      </trkpt>
      <trkpt lat="62.66808" lon="6.66032">
        <ele>77.84991</ele>
        <time>2020-08-01T13:01:08.549Z</time>
      </trkpt>
      <trkpt lat="62.66817" lon="6.66028">
        <ele>78.298137</ele>
        <time>2020-08-01T13:01:16.537Z</time>
      </trkpt>
      <trkpt lat="62.66825" lon="6.66019">
        <ele>78.740976</ele>
        <time>2020-08-01T13:01:25.559Z</time>
      </trkpt>
      <trkpt lat="62.66834" lon="6.66013">
        <ele>79.176493</ele>
        <time>2020-08-01T13:01:33.523Z</time>
      </trkpt>
      <trkpt lat="62.66843" lon="6.66007">
        <ele>79.649357</ele>
        <time>2020-08-01T13:01:42.532Z</time>
      </trkpt>
      <trkpt lat="62.66853" lon="6.66001">
        <ele>79.903562</ele>
        <time>2020-08-01T13:01:50.527Z</time>
      </trkpt>
      <trkpt lat="62.66862" lon="6.65995">
        <ele>79.852473</ele>
        <time>2020-08-01T13:01:57.524Z</time>
      </trkpt>
      <trkpt lat="62.6687" lon="6.65989">
        <ele>79.800317</ele>
        <time>2020-08-01T13:02:04.536Z</time>
      </trkpt>
      <trkpt lat="62.66879" lon="6.65984">
        <ele>79.748874</ele>
        <time>2020-08-01T13:02:11.528Z</time>
      </trkpt>
      <trkpt lat="62.66892" lon="6.6597">
        <ele>79.6708</ele>
        <time>2020-08-01T13:15:10.534Z</time>
      </trkpt>
      <trkpt lat="62.669" lon="6.65961">
        <ele>79.617203</ele>
        <time>2020-08-01T13:15:13.539Z</time>
      </trkpt>
      <trkpt lat="62.66912" lon="6.65953">
        <ele>79.551541</ele>
        <time>2020-08-01T13:15:16.537Z</time>
      </trkpt>
      <trkpt lat="62.66924" lon="6.65945">
        <ele>79.477532</ele>
        <time>2020-08-01T13:15:19.566Z</time>
      </trkpt>
      <trkpt lat="62.66937" lon="6.65937">
        <ele>79.404978</ele>
        <time>2020-08-01T13:15:22.545Z</time>
      </trkpt>
      <trkpt lat="62.66945" lon="6.65931">
        <ele>79.35511</ele>
        <time>2020-08-01T13:15:24.542Z</time>
      </trkpt>
      <trkpt lat="62.66957" lon="6.65917">
        <ele>79.281408</ele>
        <time>2020-08-01T13:15:27.517Z</time>
      </trkpt>
      <trkpt lat="62.66967" lon="6.65899">
        <ele>79.207217</ele>
        <time>2020-08-01T13:15:30.534Z</time>
      </trkpt>
      <trkpt lat="62.66974" lon="6.65883">
        <ele>79.151513</ele>
        <time>2020-08-01T13:15:32.543Z</time>
      </trkpt>
      <trkpt lat="62.66981" lon="6.65862">
        <ele>79.085418</ele>
        <time>2020-08-01T13:15:34.525Z</time>
      </trkpt>
      <trkpt lat="62.6699" lon="6.65838">
        <ele>79.008448</ele>
        <time>2020-08-01T13:15:36.527Z</time>
      </trkpt>
      <trkpt lat="62.66999" lon="6.65809">
        <ele>78.870765</ele>
        <time>2020-08-01T13:15:38.528Z</time>
      </trkpt>
      <trkpt lat="62.67005" lon="6.65793">
        <ele>78.529068</ele>
        <time>2020-08-01T13:15:39.520Z</time>
      </trkpt>
      <trkpt lat="62.6701" lon="6.65776">
        <ele>78.177509</ele>
        <time>2020-08-01T13:15:40.531Z</time>
      </trkpt>
      <trkpt lat="62.67015" lon="6.65757">
        <ele>77.808314</ele>
        <time>2020-08-01T13:15:41.549Z</time>
      </trkpt>
      <trkpt lat="62.6702" lon="6.65738">
        <ele>77.431523</ele>
        <time>2020-08-01T13:15:42.534Z</time>
      </trkpt>
      <trkpt lat="62.67024" lon="6.65718">
        <ele>77.049022</ele>
        <time>2020-08-01T13:15:43.517Z</time>
      </trkpt>
      <trkpt lat="62.67028" lon="6.65698">
        <ele>76.672785</ele>
        <time>2020-08-01T13:15:44.552Z</time>
      </trkpt>
      <trkpt lat="62.67032" lon="6.65679">
        <ele>76.312065</ele>
        <time>2020-08-01T13:15:45.519Z</time>
      </trkpt>
      <trkpt lat="62.67036" lon="6.6566">
        <ele>75.960793</ele>
        <time>2020-08-01T13:15:46.589Z</time>
      </trkpt>
      <trkpt lat="62.6704" lon="6.65642">
        <ele>75.623595</ele>
        <time>2020-08-01T13:15:47.517Z</time>
      </trkpt>
      <trkpt lat="62.67046" lon="6.65608">
        <ele>74.992677</ele>
        <time>2020-08-01T13:15:49.530Z</time>
      </trkpt>
      <trkpt lat="62.6705" lon="6.65577">
        <ele>74.438213</ele>
        <time>2020-08-01T13:15:51.545Z</time>
      </trkpt>
      <trkpt lat="62.67051" lon="6.65548">
        <ele>73.943752</ele>
        <time>2020-08-01T13:15:53.539Z</time>
      </trkpt>
      <trkpt lat="62.67052" lon="6.65521">
        <ele>73.478117</ele>
        <time>2020-08-01T13:15:55.534Z</time>
      </trkpt>
      <trkpt lat="62.67051" lon="6.65496">
        <ele>73.049819</ele>
        <time>2020-08-01T13:15:57.542Z</time>
      </trkpt>
      <trkpt lat="62.6705" lon="6.65473">
        <ele>72.645676</ele>
        <time>2020-08-01T13:15:59.527Z</time>
      </trkpt>
      <trkpt lat="62.67047" lon="6.65452">
        <ele>72.277043</ele>
        <time>2020-08-01T13:16:01.525Z</time>
      </trkpt>
      <trkpt lat="62.67044" lon="6.65433">
        <ele>71.923431</ele>
        <time>2020-08-01T13:16:03.545Z</time>
      </trkpt>
      <trkpt lat="62.67043" lon="6.65413">
        <ele>71.575151</ele>
        <time>2020-08-01T13:16:05.507Z</time>
      </trkpt>
      <trkpt lat="62.67052" lon="6.65393">
        <ele>71.087858</ele>
        <time>2020-08-01T13:16:08.539Z</time>
      </trkpt>
      <trkpt lat="62.67063" lon="6.65399">
        <ele>70.685824</ele>
        <time>2020-08-01T13:16:10.560Z</time>
      </trkpt>
      <trkpt lat="62.67071" lon="6.65413">
        <ele>70.268706</ele>
        <time>2020-08-01T13:16:12.521Z</time>
      </trkpt>
      <trkpt lat="62.6708" lon="6.6543">
        <ele>69.830874</ele>
        <time>2020-08-01T13:16:14.561Z</time>
      </trkpt>
      <trkpt lat="62.67089" lon="6.65447">
        <ele>69.38452</ele>
        <time>2020-08-01T13:16:16.531Z</time>
      </trkpt>
      <trkpt lat="62.67098" lon="6.65467">
        <ele>68.90123</ele>
        <time>2020-08-01T13:16:18.524Z</time>
      </trkpt>
      <trkpt lat="62.67105" lon="6.65493">
        <ele>68.387403</ele>
        <time>2020-08-01T13:16:20.524Z</time>
      </trkpt>
      <trkpt lat="62.67111" lon="6.65521">
        <ele>67.845965</ele>
        <time>2020-08-01T13:16:22.540Z</time>
      </trkpt>
      <trkpt lat="62.67116" lon="6.65552">
        <ele>67.266269</ele>
        <time>2020-08-01T13:16:24.527Z</time>
      </trkpt>
      <trkpt lat="62.67122" lon="6.65583">
        <ele>66.685475</ele>
        <time>2020-08-01T13:16:26.556Z</time>
      </trkpt>
      <trkpt lat="62.67129" lon="6.65616">
        <ele>66.070106</ele>
        <time>2020-08-01T13:16:28.559Z</time>
      </trkpt>
      <trkpt lat="62.67135" lon="6.65651">
        <ele>65.425752</ele>
        <time>2020-08-01T13:16:30.532Z</time>
      </trkpt>
      <trkpt lat="62.67143" lon="6.65686">
        <ele>65.099637</ele>
        <time>2020-08-01T13:16:32.528Z</time>
      </trkpt>
      <trkpt lat="62.67146" lon="6.65704">
        <ele>64.936558</ele>
        <time>2020-08-01T13:16:33.527Z</time>
      </trkpt>
      <trkpt lat="62.6715" lon="6.65722">
        <ele>64.768981</ele>
        <time>2020-08-01T13:16:34.517Z</time>
      </trkpt>
      <trkpt lat="62.67154" lon="6.65741">
        <ele>64.599144</ele>
        <time>2020-08-01T13:16:35.537Z</time>
      </trkpt>
      <trkpt lat="62.67158" lon="6.6576">
        <ele>64.431474</ele>
        <time>2020-08-01T13:16:36.522Z</time>
      </trkpt>
      <trkpt lat="62.67161" lon="6.65779">
        <ele>64.262195</ele>
        <time>2020-08-01T13:16:37.551Z</time>
      </trkpt>
      <trkpt lat="62.67165" lon="6.65799">
        <ele>64.089855</ele>
        <time>2020-08-01T13:16:38.557Z</time>
      </trkpt>
      <trkpt lat="62.67168" lon="6.65818">
        <ele>63.917754</ele>
        <time>2020-08-01T13:16:39.558Z</time>
      </trkpt>
      <trkpt lat="62.67172" lon="6.65837">
        <ele>63.747114</ele>
        <time>2020-08-01T13:16:40.529Z</time>
      </trkpt>
      <trkpt lat="62.67175" lon="6.65856">
        <ele>63.576957</ele>
        <time>2020-08-01T13:16:41.523Z</time>
      </trkpt>
      <trkpt lat="62.67179" lon="6.65875">
        <ele>63.410371</ele>
        <time>2020-08-01T13:16:42.543Z</time>
      </trkpt>
      <trkpt lat="62.67182" lon="6.65894">
        <ele>63.247494</ele>
        <time>2020-08-01T13:16:43.544Z</time>
      </trkpt>
      <trkpt lat="62.67188" lon="6.65928">
        <ele>62.944067</ele>
        <time>2020-08-01T13:16:45.536Z</time>
      </trkpt>
      <trkpt lat="62.67193" lon="6.65958">
        <ele>62.678829</ele>
        <time>2020-08-01T13:16:47.524Z</time>
      </trkpt>
      <trkpt lat="62.67198" lon="6.65985">
        <ele>62.438424</ele>
        <time>2020-08-01T13:16:49.533Z</time>
      </trkpt>
      <trkpt lat="62.67203" lon="6.66009">
        <ele>62.229316</ele>
        <time>2020-08-01T13:16:51.529Z</time>
      </trkpt>
      <trkpt lat="62.67206" lon="6.66029">
        <ele>62.116561</ele>
        <time>2020-08-01T13:16:53.530Z</time>
      </trkpt>
      <trkpt lat="62.6721" lon="6.66051">
        <ele>62.006969</ele>
        <time>2020-08-01T13:16:56.536Z</time>
      </trkpt>
      <trkpt lat="62.67214" lon="6.66069">
        <ele>61.917998</ele>
        <time>2020-08-01T13:16:59.549Z</time>
      </trkpt>
      <trkpt lat="62.67217" lon="6.66092">
        <ele>61.810862</ele>
        <time>2020-08-01T13:17:03.531Z</time>
      </trkpt>
      <trkpt lat="62.67221" lon="6.6611">
        <ele>61.72266</ele>
        <time>2020-08-01T13:17:06.557Z</time>
      </trkpt>
      <trkpt lat="62.67225" lon="6.66131">
        <ele>61.620402</ele>
        <time>2020-08-01T13:17:09.529Z</time>
      </trkpt>
      <trkpt lat="62.6723" lon="6.66155">
        <ele>61.504674</ele>
        <time>2020-08-01T13:17:12.536Z</time>
      </trkpt>
      <trkpt lat="62.67234" lon="6.66183">
        <ele>61.372294</ele>
        <time>2020-08-01T13:17:15.523Z</time>
      </trkpt>
      <trkpt lat="62.67238" lon="6.66204">
        <ele>61.26876</ele>
        <time>2020-08-01T13:17:17.516Z</time>
      </trkpt>
      <trkpt lat="62.67243" lon="6.66228">
        <ele>61.14939</ele>
        <time>2020-08-01T13:17:19.538Z</time>
      </trkpt>
      <trkpt lat="62.67249" lon="6.66256">
        <ele>61.014104</ele>
        <time>2020-08-01T13:17:21.533Z</time>
      </trkpt>
      <trkpt lat="62.67255" lon="6.66286">
        <ele>60.86939</ele>
        <time>2020-08-01T13:17:23.547Z</time>
      </trkpt>
      <trkpt lat="62.6726" lon="6.66317">
        <ele>60.7185</ele>
        <time>2020-08-01T13:17:25.522Z</time>
      </trkpt>
      <trkpt lat="62.67265" lon="6.6635">
        <ele>60.56102</ele>
        <time>2020-08-01T13:17:27.547Z</time>
      </trkpt>
      <trkpt lat="62.67269" lon="6.66387">
        <ele>60.237805</ele>
        <time>2020-08-01T13:17:29.534Z</time>
      </trkpt>
      <trkpt lat="62.67271" lon="6.66423">
        <ele>59.39328</ele>
        <time>2020-08-01T13:17:31.530Z</time>
      </trkpt>
      <trkpt lat="62.67272" lon="6.6646">
        <ele>58.567749</ele>
        <time>2020-08-01T13:17:33.524Z</time>
      </trkpt>
      <trkpt lat="62.67273" lon="6.66498">
        <ele>57.690241</ele>
        <time>2020-08-01T13:17:35.541Z</time>
      </trkpt>
      <trkpt lat="62.67274" lon="6.66518">
        <ele>57.223186</ele>
        <time>2020-08-01T13:17:36.548Z</time>
      </trkpt>
      <trkpt lat="62.67275" lon="6.66539">
        <ele>56.747496</ele>
        <time>2020-08-01T13:17:37.526Z</time>
      </trkpt>
      <trkpt lat="62.67276" lon="6.66561">
        <ele>56.26083</ele>
        <time>2020-08-01T13:17:38.528Z</time>
      </trkpt>
      <trkpt lat="62.67276" lon="6.66582">
        <ele>55.763119</ele>
        <time>2020-08-01T13:17:39.564Z</time>
      </trkpt>
      <trkpt lat="62.67277" lon="6.66605">
        <ele>55.249963</ele>
        <time>2020-08-01T13:17:40.531Z</time>
      </trkpt>
      <trkpt lat="62.67277" lon="6.66627">
        <ele>54.741143</ele>
        <time>2020-08-01T13:17:41.524Z</time>
      </trkpt>
      <trkpt lat="62.67277" lon="6.66649">
        <ele>54.239374</ele>
        <time>2020-08-01T13:17:42.542Z</time>
      </trkpt>
      <trkpt lat="62.67278" lon="6.66671">
        <ele>53.739881</ele>
        <time>2020-08-01T13:17:43.547Z</time>
      </trkpt>
      <trkpt lat="62.67278" lon="6.66693">
        <ele>53.244446</ele>
        <time>2020-08-01T13:17:44.534Z</time>
      </trkpt>
      <trkpt lat="62.67279" lon="6.66714">
        <ele>52.756112</ele>
        <time>2020-08-01T13:17:45.526Z</time>
      </trkpt>
      <trkpt lat="62.67279" lon="6.66735">
        <ele>52.27256</ele>
        <time>2020-08-01T13:17:46.525Z</time>
      </trkpt>
      <trkpt lat="62.6728" lon="6.66756">
        <ele>51.798116</ele>
        <time>2020-08-01T13:17:47.576Z</time>
      </trkpt>
      <trkpt lat="62.6728" lon="6.66777">
        <ele>51.408335</ele>
        <time>2020-08-01T13:17:48.530Z</time>
      </trkpt>
      <trkpt lat="62.6728" lon="6.66797">
        <ele>51.15304</ele>
        <time>2020-08-01T13:17:49.570Z</time>
      </trkpt>
      <trkpt lat="62.67281" lon="6.66817">
        <ele>50.90407</ele>
        <time>2020-08-01T13:17:50.579Z</time>
      </trkpt>
      <trkpt lat="62.67281" lon="6.66837">
        <ele>50.658776</ele>
        <time>2020-08-01T13:17:51.535Z</time>
      </trkpt>
      <trkpt lat="62.67282" lon="6.66874">
        <ele>50.195585</ele>
        <time>2020-08-01T13:17:53.538Z</time>
      </trkpt>
      <trkpt lat="62.67283" lon="6.66908">
        <ele>49.762127</ele>
        <time>2020-08-01T13:17:55.555Z</time>
      </trkpt>
      <trkpt lat="62.67286" lon="6.6694">
        <ele>49.356115</ele>
        <time>2020-08-01T13:17:57.536Z</time>
      </trkpt>
      <trkpt lat="62.67289" lon="6.6697">
        <ele>48.969609</ele>
        <time>2020-08-01T13:17:59.532Z</time>
      </trkpt>
      <trkpt lat="62.67292" lon="6.66998">
        <ele>48.603012</ele>
        <time>2020-08-01T13:18:01.543Z</time>
      </trkpt>
      <trkpt lat="62.67297" lon="6.67025">
        <ele>48.255602</ele>
        <time>2020-08-01T13:18:03.559Z</time>
      </trkpt>
      <trkpt lat="62.67301" lon="6.67049">
        <ele>47.928203</ele>
        <time>2020-08-01T13:18:05.532Z</time>
      </trkpt>
      <trkpt lat="62.67307" lon="6.6707">
        <ele>47.614559</ele>
        <time>2020-08-01T13:18:07.555Z</time>
      </trkpt>
      <trkpt lat="62.67313" lon="6.6709">
        <ele>47.317812</ele>
        <time>2020-08-01T13:18:09.543Z</time>
      </trkpt>
      <trkpt lat="62.6732" lon="6.67112">
        <ele>46.992673</ele>
        <time>2020-08-01T13:18:11.553Z</time>
      </trkpt>
      <trkpt lat="62.67326" lon="6.67132">
        <ele>46.686661</ele>
        <time>2020-08-01T13:18:13.521Z</time>
      </trkpt>
      <trkpt lat="62.67333" lon="6.67152">
        <ele>46.763438</ele>
        <time>2020-08-01T13:18:15.531Z</time>
      </trkpt>
      <trkpt lat="62.67339" lon="6.67169">
        <ele>46.964737</ele>
        <time>2020-08-01T13:18:17.539Z</time>
      </trkpt>
      <trkpt lat="62.67344" lon="6.67185">
        <ele>47.148584</ele>
        <time>2020-08-01T13:18:19.537Z</time>
      </trkpt>
      <trkpt lat="62.67353" lon="6.67206">
        <ele>47.404193</ele>
        <time>2020-08-01T13:18:22.565Z</time>
      </trkpt>
      <trkpt lat="62.6736" lon="6.67227">
        <ele>47.648842</ele>
        <time>2020-08-01T13:18:25.542Z</time>
      </trkpt>
      <trkpt lat="62.67368" lon="6.67248">
        <ele>47.889595</ele>
        <time>2020-08-01T13:18:28.541Z</time>
      </trkpt>
      <trkpt lat="62.67374" lon="6.6727">
        <ele>48.12057</ele>
        <time>2020-08-01T13:18:31.541Z</time>
      </trkpt>
      <trkpt lat="62.67379" lon="6.67291">
        <ele>48.339984</ele>
        <time>2020-08-01T13:18:34.544Z</time>
      </trkpt>
      <trkpt lat="62.67384" lon="6.67315">
        <ele>48.582774</ele>
        <time>2020-08-01T13:18:37.546Z</time>
      </trkpt>
      <trkpt lat="62.6739" lon="6.67341">
        <ele>48.84385</ele>
        <time>2020-08-01T13:18:40.552Z</time>
      </trkpt>
      <trkpt lat="62.67395" lon="6.67365">
        <ele>49.085856</ele>
        <time>2020-08-01T13:18:43.528Z</time>
      </trkpt>
      <trkpt lat="62.67401" lon="6.67381">
        <ele>49.277923</ele>
        <time>2020-08-01T13:18:46.538Z</time>
      </trkpt>
      <trkpt lat="62.67412" lon="6.67379">
        <ele>49.505855</ele>
        <time>2020-08-01T13:18:50.511Z</time>
      </trkpt>
      <trkpt lat="62.67407" lon="6.67362">
        <ele>49.69105</ele>
        <time>2020-08-01T13:18:55.535Z</time>
      </trkpt>
      <trkpt lat="62.67406" lon="6.67338">
        <ele>49.915776</ele>
        <time>2020-08-01T13:22:25.538Z</time>
      </trkpt>
      <trkpt lat="62.67424" lon="6.67344">
        <ele>50.358057</ele>
        <time>2020-08-01T13:25:13.539Z</time>
      </trkpt>
      <trkpt lat="62.67425" lon="6.67319">
        <ele>50.836024</ele>
        <time>2020-08-01T13:26:58.544Z</time>
      </trkpt>
      <trkpt lat="62.67416" lon="6.67316">
        <ele>51.213586</ele>
        <time>2020-08-01T13:33:38.520Z</time>
      </trkpt>
      <trkpt lat="62.67407" lon="6.67332">
        <ele>51.702326</ele>
        <time>2020-08-01T13:40:41.525Z</time>
      </trkpt>
      <trkpt lat="62.67412" lon="6.67354">
        <ele>52.163175</ele>
        <time>2020-08-01T13:42:18.532Z</time>
      </trkpt>
      <trkpt lat="62.67392" lon="6.67398">
        <ele>53.351919</ele>
        <time>2020-08-01T13:50:26.567Z</time>
      </trkpt>
      <trkpt lat="62.67384" lon="6.67414">
        <ele>53.803125</ele>
        <time>2020-08-01T13:50:31.536Z</time>
      </trkpt>
      <trkpt lat="62.67377" lon="6.67428">
        <ele>54.180095</ele>
        <time>2020-08-01T13:50:36.564Z</time>
      </trkpt>
      <trkpt lat="62.67369" lon="6.67441">
        <ele>54.61871</ele>
        <time>2020-08-01T13:50:42.537Z</time>
      </trkpt>
      <trkpt lat="62.67361" lon="6.67455">
        <ele>55.051782</ele>
        <time>2020-08-01T13:50:48.527Z</time>
      </trkpt>
      <trkpt lat="62.67353" lon="6.67466">
        <ele>55.438962</ele>
        <time>2020-08-01T13:50:54.571Z</time>
      </trkpt>
      <trkpt lat="62.67344" lon="6.67477">
        <ele>55.848537</ele>
        <time>2020-08-01T13:51:01.534Z</time>
      </trkpt>
      <trkpt lat="62.67335" lon="6.67482">
        <ele>56.265446</ele>
        <time>2020-08-01T13:51:09.532Z</time>
      </trkpt>
      <trkpt lat="62.67325" lon="6.67488">
        <ele>56.668814</ele>
        <time>2020-08-01T13:51:15.546Z</time>
      </trkpt>
      <trkpt lat="62.67317" lon="6.67497">
        <ele>57.045241</ele>
        <time>2020-08-01T13:51:21.550Z</time>
      </trkpt>
      <trkpt lat="62.67309" lon="6.67507">
        <ele>57.441781</ele>
        <time>2020-08-01T13:51:27.535Z</time>
      </trkpt>
      <trkpt lat="62.67302" lon="6.67522">
        <ele>58.071377</ele>
        <time>2020-08-01T13:51:34.519Z</time>
      </trkpt>
      <trkpt lat="62.67297" lon="6.67539">
        <ele>59.047857</ele>
        <time>2020-08-01T13:51:42.520Z</time>
      </trkpt>
      <trkpt lat="62.67293" lon="6.67558">
        <ele>59.982231</ele>
        <time>2020-08-01T13:51:49.568Z</time>
      </trkpt>
      <trkpt lat="62.67288" lon="6.67576">
        <ele>60.971957</ele>
        <time>2020-08-01T13:51:56.524Z</time>
      </trkpt>
      <trkpt lat="62.67284" lon="6.67597">
        <ele>62.001937</ele>
        <time>2020-08-01T13:52:04.565Z</time>
      </trkpt>
      <trkpt lat="62.6728" lon="6.67615">
        <ele>62.923894</ele>
        <time>2020-08-01T13:52:11.540Z</time>
      </trkpt>
      <trkpt lat="62.67275" lon="6.67631">
        <ele>63.849375</ele>
        <time>2020-08-01T13:52:18.521Z</time>
      </trkpt>
      <trkpt lat="62.6727" lon="6.67649">
        <ele>64.795113</ele>
        <time>2020-08-01T13:52:25.580Z</time>
      </trkpt>
      <trkpt lat="62.67266" lon="6.67667">
        <ele>65.725381</ele>
        <time>2020-08-01T13:52:32.567Z</time>
      </trkpt>
      <trkpt lat="62.67262" lon="6.67686">
        <ele>66.672642</ele>
        <time>2020-08-01T13:52:40.539Z</time>
      </trkpt>
      <trkpt lat="62.67257" lon="6.67705">
        <ele>67.729318</ele>
        <time>2020-08-01T13:52:48.556Z</time>
      </trkpt>
      <trkpt lat="62.67253" lon="6.67724">
        <ele>68.672342</ele>
        <time>2020-08-01T13:52:55.545Z</time>
      </trkpt>
      <trkpt lat="62.67251" lon="6.67744">
        <ele>69.596082</ele>
        <time>2020-08-01T13:53:02.546Z</time>
      </trkpt>
      <trkpt lat="62.67252" lon="6.67764">
        <ele>70.552205</ele>
        <time>2020-08-01T13:53:10.545Z</time>
      </trkpt>
      <trkpt lat="62.67252" lon="6.67785">
        <ele>71.525442</ele>
        <time>2020-08-01T13:53:18.548Z</time>
      </trkpt>
      <trkpt lat="62.67254" lon="6.67805">
        <ele>72.459913</ele>
        <time>2020-08-01T13:53:25.555Z</time>
      </trkpt>
      <trkpt lat="62.67256" lon="6.67826">
        <ele>73.45923</ele>
        <time>2020-08-01T13:53:33.522Z</time>
      </trkpt>
      <trkpt lat="62.67261" lon="6.67844">
        <ele>74.383154</ele>
        <time>2020-08-01T13:53:40.524Z</time>
      </trkpt>
      <trkpt lat="62.67263" lon="6.67864">
        <ele>75.327271</ele>
        <time>2020-08-01T13:53:49.542Z</time>
      </trkpt>
      <trkpt lat="62.67271" lon="6.6788">
        <ele>75.951624</ele>
        <time>2020-08-01T13:53:56.532Z</time>
      </trkpt>
      <trkpt lat="62.6728" lon="6.67888">
        <ele>76.266997</ele>
        <time>2020-08-01T13:54:00.532Z</time>
      </trkpt>
      <trkpt lat="62.67289" lon="6.67895">
        <ele>76.59757</ele>
        <time>2020-08-01T13:54:03.529Z</time>
      </trkpt>
      <trkpt lat="62.67301" lon="6.67901">
        <ele>77.00126</ele>
        <time>2020-08-01T13:54:06.547Z</time>
      </trkpt>
      <trkpt lat="62.67314" lon="6.67905">
        <ele>77.429059</ele>
        <time>2020-08-01T13:54:09.535Z</time>
      </trkpt>
      <trkpt lat="62.67327" lon="6.67907">
        <ele>77.860214</ele>
        <time>2020-08-01T13:54:12.553Z</time>
      </trkpt>
      <trkpt lat="62.67339" lon="6.67906">
        <ele>78.238563</ele>
        <time>2020-08-01T13:54:15.534Z</time>
      </trkpt>
      <trkpt lat="62.67349" lon="6.67904">
        <ele>78.574257</ele>
        <time>2020-08-01T13:54:18.531Z</time>
      </trkpt>
      <trkpt lat="62.67359" lon="6.67901">
        <ele>78.922173</ele>
        <time>2020-08-01T13:54:21.532Z</time>
      </trkpt>
      <trkpt lat="62.67371" lon="6.67899">
        <ele>79.294463</ele>
        <time>2020-08-01T13:54:24.525Z</time>
      </trkpt>
      <trkpt lat="62.67383" lon="6.67896">
        <ele>79.712416</ele>
        <time>2020-08-01T13:54:27.524Z</time>
      </trkpt>
      <trkpt lat="62.67397" lon="6.67893">
        <ele>80.149149</ele>
        <time>2020-08-01T13:54:30.535Z</time>
      </trkpt>
      <trkpt lat="62.67406" lon="6.67889">
        <ele>80.461592</ele>
        <time>2020-08-01T13:54:32.527Z</time>
      </trkpt>
      <trkpt lat="62.67416" lon="6.67884">
        <ele>80.78869</ele>
        <time>2020-08-01T13:54:34.575Z</time>
      </trkpt>
      <trkpt lat="62.67426" lon="6.6788">
        <ele>81.144277</ele>
        <time>2020-08-01T13:54:36.519Z</time>
      </trkpt>
      <trkpt lat="62.67437" lon="6.67875">
        <ele>81.494329</ele>
        <time>2020-08-01T13:54:38.543Z</time>
      </trkpt>
      <trkpt lat="62.67448" lon="6.67873">
        <ele>81.508466</ele>
        <time>2020-08-01T13:54:40.538Z</time>
      </trkpt>
      <trkpt lat="62.67458" lon="6.67868">
        <ele>81.332817</ele>
        <time>2020-08-01T13:54:42.564Z</time>
      </trkpt>
      <trkpt lat="62.67467" lon="6.67863">
        <ele>81.154916</ele>
        <time>2020-08-01T13:54:44.540Z</time>
      </trkpt>
      <trkpt lat="62.67477" lon="6.67858">
        <ele>80.9789</ele>
        <time>2020-08-01T13:54:46.566Z</time>
      </trkpt>
      <trkpt lat="62.67487" lon="6.67854">
        <ele>80.799115</ele>
        <time>2020-08-01T13:54:48.513Z</time>
      </trkpt>
      <trkpt lat="62.67497" lon="6.6785">
        <ele>80.626449</ele>
        <time>2020-08-01T13:54:50.532Z</time>
      </trkpt>
      <trkpt lat="62.67506" lon="6.67847">
        <ele>80.464941</ele>
        <time>2020-08-01T13:54:52.531Z</time>
      </trkpt>
      <trkpt lat="62.67518" lon="6.67843">
        <ele>80.235919</ele>
        <time>2020-08-01T13:54:55.555Z</time>
      </trkpt>
      <trkpt lat="62.6753" lon="6.67837">
        <ele>80.028581</ele>
        <time>2020-08-01T13:54:58.532Z</time>
      </trkpt>
      <trkpt lat="62.67544" lon="6.6783">
        <ele>79.77648</ele>
        <time>2020-08-01T13:55:01.522Z</time>
      </trkpt>
      <trkpt lat="62.67555" lon="6.67828">
        <ele>79.573984</ele>
        <time>2020-08-01T13:55:03.562Z</time>
      </trkpt>
      <trkpt lat="62.67566" lon="6.67823">
        <ele>79.369074</ele>
        <time>2020-08-01T13:55:05.538Z</time>
      </trkpt>
      <trkpt lat="62.67578" lon="6.67818">
        <ele>79.164994</ele>
        <time>2020-08-01T13:55:07.549Z</time>
      </trkpt>
      <trkpt lat="62.67589" lon="6.67815">
        <ele>78.958377</ele>
        <time>2020-08-01T13:55:09.526Z</time>
      </trkpt>
      <trkpt lat="62.676" lon="6.67812">
        <ele>78.758712</ele>
        <time>2020-08-01T13:55:11.539Z</time>
      </trkpt>
      <trkpt lat="62.67612" lon="6.67809">
        <ele>78.544964</ele>
        <time>2020-08-01T13:55:13.543Z</time>
      </trkpt>
      <trkpt lat="62.67625" lon="6.67807">
        <ele>78.611375</ele>
        <time>2020-08-01T13:55:15.543Z</time>
      </trkpt>
      <trkpt lat="62.67637" lon="6.67805">
        <ele>78.881339</ele>
        <time>2020-08-01T13:55:17.563Z</time>
      </trkpt>
      <trkpt lat="62.67647" lon="6.678">
        <ele>79.12332</ele>
        <time>2020-08-01T13:55:19.536Z</time>
      </trkpt>
      <trkpt lat="62.67656" lon="6.67796">
        <ele>79.333265</ele>
        <time>2020-08-01T13:55:21.537Z</time>
      </trkpt>
      <trkpt lat="62.67664" lon="6.67791">
        <ele>79.545168</ele>
        <time>2020-08-01T13:55:23.525Z</time>
      </trkpt>
      <trkpt lat="62.67676" lon="6.67785">
        <ele>79.826341</ele>
        <time>2020-08-01T13:55:26.523Z</time>
      </trkpt>
      <trkpt lat="62.67686" lon="6.6778">
        <ele>80.075042</ele>
        <time>2020-08-01T13:55:29.529Z</time>
      </trkpt>
      <trkpt lat="62.67697" lon="6.67774">
        <ele>80.336561</ele>
        <time>2020-08-01T13:55:33.527Z</time>
      </trkpt>
      <trkpt lat="62.67707" lon="6.6777">
        <ele>80.574155</ele>
        <time>2020-08-01T13:55:38.542Z</time>
      </trkpt>
      <trkpt lat="62.67717" lon="6.67765">
        <ele>80.816526</ele>
        <time>2020-08-01T13:55:43.523Z</time>
      </trkpt>
      <trkpt lat="62.67728" lon="6.67756">
        <ele>81.07583</ele>
        <time>2020-08-01T13:55:48.527Z</time>
      </trkpt>
      <trkpt lat="62.67736" lon="6.67749">
        <ele>81.286033</ele>
        <time>2020-08-01T13:55:52.547Z</time>
      </trkpt>
      <trkpt lat="62.67745" lon="6.67742">
        <ele>81.496236</ele>
        <time>2020-08-01T13:55:56.543Z</time>
      </trkpt>
      <trkpt lat="62.67754" lon="6.67735">
        <ele>81.730202</ele>
        <time>2020-08-01T13:56:01.523Z</time>
      </trkpt>
      <trkpt lat="62.67763" lon="6.67729">
        <ele>81.944694</ele>
        <time>2020-08-01T13:56:06.570Z</time>
      </trkpt>
      <trkpt lat="62.67771" lon="6.67719">
        <ele>82.159308</ele>
        <time>2020-08-01T13:56:12.527Z</time>
      </trkpt>
      <trkpt lat="62.6778" lon="6.67718">
        <ele>82.374466</ele>
        <time>2020-08-01T13:56:17.534Z</time>
      </trkpt>
      <trkpt lat="62.6779" lon="6.67716">
        <ele>82.599782</ele>
        <time>2020-08-01T13:56:22.580Z</time>
      </trkpt>
      <trkpt lat="62.678" lon="6.67711">
        <ele>82.781105</ele>
        <time>2020-08-01T13:56:28.587Z</time>
      </trkpt>
      <trkpt lat="62.6781" lon="6.67709">
        <ele>82.92841</ele>
        <time>2020-08-01T13:56:33.519Z</time>
      </trkpt>
      <trkpt lat="62.67819" lon="6.67703">
        <ele>83.077073</ele>
        <time>2020-08-01T13:56:39.526Z</time>
      </trkpt>
      <trkpt lat="62.67829" lon="6.67699">
        <ele>83.241244</ele>
        <time>2020-08-01T13:56:45.522Z</time>
      </trkpt>
      <trkpt lat="62.6784" lon="6.67692">
        <ele>83.41371</ele>
        <time>2020-08-01T13:56:50.526Z</time>
      </trkpt>
      <trkpt lat="62.67848" lon="6.67683">
        <ele>83.56005</ele>
        <time>2020-08-01T13:56:54.585Z</time>
      </trkpt>
      <trkpt lat="62.67856" lon="6.67672">
        <ele>83.71298</ele>
        <time>2020-08-01T13:56:58.529Z</time>
      </trkpt>
      <trkpt lat="62.67864" lon="6.67656">
        <ele>83.886201</ele>
        <time>2020-08-01T13:57:02.530Z</time>
      </trkpt>
      <trkpt lat="62.67872" lon="6.67641">
        <ele>84.043042</ele>
        <time>2020-08-01T13:57:05.526Z</time>
      </trkpt>
      <trkpt lat="62.67879" lon="6.67622">
        <ele>84.216699</ele>
        <time>2020-08-01T13:57:09.523Z</time>
      </trkpt>
      <trkpt lat="62.67884" lon="6.67607">
        <ele>84.357847</ele>
        <time>2020-08-01T13:57:12.519Z</time>
      </trkpt>
      <trkpt lat="62.67892" lon="6.67589">
        <ele>84.532287</ele>
        <time>2020-08-01T13:57:15.554Z</time>
      </trkpt>
      <trkpt lat="62.67901" lon="6.67569">
        <ele>84.731728</ele>
        <time>2020-08-01T13:57:18.550Z</time>
      </trkpt>
      <trkpt lat="62.67911" lon="6.67553">
        <ele>84.929702</ele>
        <time>2020-08-01T13:57:21.515Z</time>
      </trkpt>
      <trkpt lat="62.67923" lon="6.67543">
        <ele>85.135111</ele>
        <time>2020-08-01T13:57:24.530Z</time>
      </trkpt>
      <trkpt lat="62.67935" lon="6.67538">
        <ele>85.326409</ele>
        <time>2020-08-01T13:57:27.544Z</time>
      </trkpt>
      <trkpt lat="62.67946" lon="6.67535">
        <ele>85.422279</ele>
        <time>2020-08-01T13:57:30.527Z</time>
      </trkpt>
      <trkpt lat="62.67957" lon="6.67533">
        <ele>85.242898</ele>
        <time>2020-08-01T13:57:33.567Z</time>
      </trkpt>
      <trkpt lat="62.67967" lon="6.67531">
        <ele>85.073603</ele>
        <time>2020-08-01T13:57:36.529Z</time>
      </trkpt>
      <trkpt lat="62.67976" lon="6.67529">
        <ele>84.907609</ele>
        <time>2020-08-01T13:57:39.534Z</time>
      </trkpt>
      <trkpt lat="62.67986" lon="6.67526">
        <ele>84.734088</ele>
        <time>2020-08-01T13:57:42.551Z</time>
      </trkpt>
      <trkpt lat="62.67997" lon="6.67521">
        <ele>84.55596</ele>
        <time>2020-08-01T13:57:45.526Z</time>
      </trkpt>
      <trkpt lat="62.68007" lon="6.67518">
        <ele>84.373077</ele>
        <time>2020-08-01T13:57:48.528Z</time>
      </trkpt>
      <trkpt lat="62.68018" lon="6.67512">
        <ele>84.193382</ele>
        <time>2020-08-01T13:57:51.559Z</time>
      </trkpt>
      <trkpt lat="62.68029" lon="6.67504">
        <ele>83.98195</ele>
        <time>2020-08-01T13:57:54.538Z</time>
      </trkpt>
      <trkpt lat="62.68041" lon="6.67493">
        <ele>83.774523</ele>
        <time>2020-08-01T13:57:57.519Z</time>
      </trkpt>
      <trkpt lat="62.68052" lon="6.67482">
        <ele>83.570165</ele>
        <time>2020-08-01T13:58:00.544Z</time>
      </trkpt>
      <trkpt lat="62.6806" lon="6.67475">
        <ele>83.415728</ele>
        <time>2020-08-01T13:58:02.528Z</time>
      </trkpt>
      <trkpt lat="62.68068" lon="6.67465">
        <ele>83.25251</ele>
        <time>2020-08-01T13:58:04.532Z</time>
      </trkpt>
      <trkpt lat="62.68077" lon="6.67455">
        <ele>83.088532</ele>
        <time>2020-08-01T13:58:06.528Z</time>
      </trkpt>
      <trkpt lat="62.68085" lon="6.67445">
        <ele>82.922273</ele>
        <time>2020-08-01T13:58:08.519Z</time>
      </trkpt>
      <trkpt lat="62.68095" lon="6.67434">
        <ele>82.743367</ele>
        <time>2020-08-01T13:58:10.528Z</time>
      </trkpt>
      <trkpt lat="62.68104" lon="6.67422">
        <ele>82.557334</ele>
        <time>2020-08-01T13:58:12.529Z</time>
      </trkpt>
      <trkpt lat="62.68113" lon="6.6741">
        <ele>82.406195</ele>
        <time>2020-08-01T13:58:14.532Z</time>
      </trkpt>
      <trkpt lat="62.68122" lon="6.67398">
        <ele>82.431682</ele>
        <time>2020-08-01T13:58:16.516Z</time>
      </trkpt>
      <trkpt lat="62.68131" lon="6.67387">
        <ele>82.456208</ele>
        <time>2020-08-01T13:58:18.552Z</time>
      </trkpt>
      <trkpt lat="62.68139" lon="6.67377">
        <ele>82.479435</ele>
        <time>2020-08-01T13:58:20.518Z</time>
      </trkpt>
      <trkpt lat="62.68148" lon="6.67366">
        <ele>82.502532</ele>
        <time>2020-08-01T13:58:22.565Z</time>
      </trkpt>
      <trkpt lat="62.68158" lon="6.67353">
        <ele>82.531626</ele>
        <time>2020-08-01T13:58:25.576Z</time>
      </trkpt>
      <trkpt lat="62.68168" lon="6.67339">
        <ele>82.560323</ele>
        <time>2020-08-01T13:58:28.567Z</time>
      </trkpt>
      <trkpt lat="62.68179" lon="6.67326">
        <ele>82.589112</ele>
        <time>2020-08-01T13:58:31.550Z</time>
      </trkpt>
      <trkpt lat="62.68189" lon="6.67312">
        <ele>82.61909</ele>
        <time>2020-08-01T13:58:34.558Z</time>
      </trkpt>
      <trkpt lat="62.68199" lon="6.67297">
        <ele>82.64834</ele>
        <time>2020-08-01T13:58:37.531Z</time>
      </trkpt>
      <trkpt lat="62.68209" lon="6.67284">
        <ele>82.675373</ele>
        <time>2020-08-01T13:58:40.557Z</time>
      </trkpt>
      <trkpt lat="62.68219" lon="6.67271">
        <ele>82.703777</ele>
        <time>2020-08-01T13:58:43.547Z</time>
      </trkpt>
      <trkpt lat="62.68229" lon="6.67257">
        <ele>82.732416</ele>
        <time>2020-08-01T13:58:46.542Z</time>
      </trkpt>
      <trkpt lat="62.68239" lon="6.67244">
        <ele>82.759688</ele>
        <time>2020-08-01T13:58:49.547Z</time>
      </trkpt>
      <trkpt lat="62.68246" lon="6.67233">
        <ele>82.781472</ele>
        <time>2020-08-01T13:58:52.524Z</time>
      </trkpt>
      <trkpt lat="62.68256" lon="6.67221">
        <ele>82.808293</ele>
        <time>2020-08-01T13:58:56.525Z</time>
      </trkpt>
      <trkpt lat="62.68264" lon="6.67212">
        <ele>82.830253</ele>
        <time>2020-08-01T13:58:59.542Z</time>
      </trkpt>
      <trkpt lat="62.68273" lon="6.67203">
        <ele>83.016901</ele>
        <time>2020-08-01T13:59:02.540Z</time>
      </trkpt>
      <trkpt lat="62.68283" lon="6.67196">
        <ele>83.249429</ele>
        <time>2020-08-01T13:59:05.528Z</time>
      </trkpt>
      <trkpt lat="62.68293" lon="6.67189">
        <ele>83.488255</ele>
        <time>2020-08-01T13:59:08.520Z</time>
      </trkpt>
      <trkpt lat="62.68303" lon="6.67183">
        <ele>83.738623</ele>
        <time>2020-08-01T13:59:11.551Z</time>
      </trkpt>
      <trkpt lat="62.68314" lon="6.67179">
        <ele>83.993145</ele>
        <time>2020-08-01T13:59:14.588Z</time>
      </trkpt>
      <trkpt lat="62.68326" lon="6.67177">
        <ele>84.271889</ele>
        <time>2020-08-01T13:59:17.554Z</time>
      </trkpt>
      <trkpt lat="62.68339" lon="6.67178">
        <ele>84.559151</ele>
        <time>2020-08-01T13:59:20.550Z</time>
      </trkpt>
      <trkpt lat="62.68351" lon="6.6718">
        <ele>84.838523</ele>
        <time>2020-08-01T13:59:23.539Z</time>
      </trkpt>
      <trkpt lat="62.68362" lon="6.67187">
        <ele>85.1004</ele>
        <time>2020-08-01T13:59:26.531Z</time>
      </trkpt>
      <trkpt lat="62.68372" lon="6.67191">
        <ele>85.325177</ele>
        <time>2020-08-01T13:59:29.565Z</time>
      </trkpt>
      <trkpt lat="62.68381" lon="6.67196">
        <ele>85.552218</ele>
        <time>2020-08-01T13:59:32.550Z</time>
      </trkpt>
      <trkpt lat="62.68391" lon="6.67203">
        <ele>85.792362</ele>
        <time>2020-08-01T13:59:35.528Z</time>
      </trkpt>
      <trkpt lat="62.68402" lon="6.67215">
        <ele>86.067907</ele>
        <time>2020-08-01T13:59:38.546Z</time>
      </trkpt>
      <trkpt lat="62.68413" lon="6.67227">
        <ele>86.351223</ele>
        <time>2020-08-01T13:59:41.585Z</time>
      </trkpt>
      <trkpt lat="62.68424" lon="6.67237">
        <ele>86.62933</ele>
        <time>2020-08-01T13:59:44.537Z</time>
      </trkpt>
      <trkpt lat="62.68433" lon="6.67249">
        <ele>86.866192</ele>
        <time>2020-08-01T13:59:47.578Z</time>
      </trkpt>
      <trkpt lat="62.68442" lon="6.67244">
        <ele>86.933517</ele>
        <time>2020-08-01T13:59:50.567Z</time>
      </trkpt>
      <trkpt lat="62.68453" lon="6.67237">
        <ele>86.855051</ele>
        <time>2020-08-01T13:59:53.531Z</time>
      </trkpt>
      <trkpt lat="62.68462" lon="6.67246">
        <ele>86.788669</ele>
        <time>2020-08-01T13:59:55.521Z</time>
      </trkpt>
      <trkpt lat="62.68469" lon="6.67259">
        <ele>86.721527</ele>
        <time>2020-08-01T13:59:57.531Z</time>
      </trkpt>
      <trkpt lat="62.68477" lon="6.67272">
        <ele>86.652833</ele>
        <time>2020-08-01T13:59:59.535Z</time>
      </trkpt>
      <trkpt lat="62.68484" lon="6.67285">
        <ele>86.587893</ele>
        <time>2020-08-01T14:00:01.551Z</time>
      </trkpt>
      <trkpt lat="62.68495" lon="6.673">
        <ele>86.499531</ele>
        <time>2020-08-01T14:00:04.546Z</time>
      </trkpt>
      <trkpt lat="62.68504" lon="6.67314">
        <ele>86.420518</ele>
        <time>2020-08-01T14:00:07.546Z</time>
      </trkpt>
      <trkpt lat="62.68514" lon="6.67328">
        <ele>86.338835</ele>
        <time>2020-08-01T14:00:10.547Z</time>
      </trkpt>
      <trkpt lat="62.68524" lon="6.67341">
        <ele>86.261616</ele>
        <time>2020-08-01T14:00:13.529Z</time>
      </trkpt>
      <trkpt lat="62.68531" lon="6.67353">
        <ele>86.198746</ele>
        <time>2020-08-01T14:00:16.533Z</time>
      </trkpt>
      <trkpt lat="62.6854" lon="6.67364">
        <ele>86.125962</ele>
        <time>2020-08-01T14:00:20.536Z</time>
      </trkpt>
      <trkpt lat="62.68549" lon="6.67376">
        <ele>86.055717</ele>
        <time>2020-08-01T14:00:23.523Z</time>
      </trkpt>
      <trkpt lat="62.68556" lon="6.67389">
        <ele>85.990045</ele>
        <time>2020-08-01T14:00:26.525Z</time>
      </trkpt>
      <trkpt lat="62.68564" lon="6.674">
        <ele>85.921672</ele>
        <time>2020-08-01T14:00:30.525Z</time>
      </trkpt>
      <trkpt lat="62.68573" lon="6.67408">
        <ele>85.859317</ele>
        <time>2020-08-01T14:00:33.557Z</time>
      </trkpt>
      <trkpt lat="62.68582" lon="6.67422">
        <ele>85.779489</ele>
        <time>2020-08-01T14:00:37.520Z</time>
      </trkpt>
      <trkpt lat="62.6859" lon="6.67432">
        <ele>85.702942</ele>
        <time>2020-08-01T14:00:41.549Z</time>
      </trkpt>
      <trkpt lat="62.68601" lon="6.67442">
        <ele>85.461652</ele>
        <time>2020-08-01T14:00:45.545Z</time>
      </trkpt>
      <trkpt lat="62.68611" lon="6.67454">
        <ele>85.23109</ele>
        <time>2020-08-01T14:00:49.548Z</time>
      </trkpt>
      <trkpt lat="62.68619" lon="6.67466">
        <ele>85.029421</ele>
        <time>2020-08-01T14:00:53.521Z</time>
      </trkpt>
      <trkpt lat="62.68628" lon="6.67476">
        <ele>84.813633</ele>
        <time>2020-08-01T14:00:56.529Z</time>
      </trkpt>
      <trkpt lat="62.68636" lon="6.67487">
        <ele>84.623247</ele>
        <time>2020-08-01T14:00:58.551Z</time>
      </trkpt>
      <trkpt lat="62.68643" lon="6.67502">
        <ele>84.405647</ele>
        <time>2020-08-01T14:01:00.529Z</time>
      </trkpt>
      <trkpt lat="62.68651" lon="6.67516">
        <ele>84.205687</ele>
        <time>2020-08-01T14:01:02.526Z</time>
      </trkpt>
      <trkpt lat="62.68657" lon="6.6753">
        <ele>84.017042</ele>
        <time>2020-08-01T14:01:04.532Z</time>
      </trkpt>
      <trkpt lat="62.68666" lon="6.67551">
        <ele>83.738962</ele>
        <time>2020-08-01T14:01:07.528Z</time>
      </trkpt>
      <trkpt lat="62.68672" lon="6.67566">
        <ele>83.549609</ele>
        <time>2020-08-01T14:01:09.548Z</time>
      </trkpt>
      <trkpt lat="62.68679" lon="6.6758">
        <ele>83.357846</ele>
        <time>2020-08-01T14:01:11.537Z</time>
      </trkpt>
      <trkpt lat="62.68685" lon="6.67594">
        <ele>83.167569</ele>
        <time>2020-08-01T14:01:13.524Z</time>
      </trkpt>
      <trkpt lat="62.68695" lon="6.67614">
        <ele>82.889885</ele>
        <time>2020-08-01T14:01:16.524Z</time>
      </trkpt>
      <trkpt lat="62.68703" lon="6.67634">
        <ele>82.630842</ele>
        <time>2020-08-01T14:01:19.529Z</time>
      </trkpt>
      <trkpt lat="62.6871" lon="6.67654">
        <ele>82.385941</ele>
        <time>2020-08-01T14:01:22.574Z</time>
      </trkpt>
      <trkpt lat="62.68718" lon="6.67674">
        <ele>82.138853</ele>
        <time>2020-08-01T14:01:25.531Z</time>
      </trkpt>
      <trkpt lat="62.68727" lon="6.67693">
        <ele>81.985647</ele>
        <time>2020-08-01T14:01:28.539Z</time>
      </trkpt>
      <trkpt lat="62.68735" lon="6.6771">
        <ele>82.01153</ele>
        <time>2020-08-01T14:01:31.539Z</time>
      </trkpt>
      <trkpt lat="62.68745" lon="6.67727">
        <ele>82.038865</ele>
        <time>2020-08-01T14:01:34.547Z</time>
      </trkpt>
      <trkpt lat="62.68756" lon="6.67745">
        <ele>82.069092</ele>
        <time>2020-08-01T14:01:37.542Z</time>
      </trkpt>
      <trkpt lat="62.68764" lon="6.67755">
        <ele>82.089642</ele>
        <time>2020-08-01T14:01:39.550Z</time>
      </trkpt>
      <trkpt lat="62.68772" lon="6.67765">
        <ele>82.109601</ele>
        <time>2020-08-01T14:01:41.526Z</time>
      </trkpt>
      <trkpt lat="62.68783" lon="6.67778">
        <ele>82.138448</ele>
        <time>2020-08-01T14:01:44.552Z</time>
      </trkpt>
      <trkpt lat="62.68794" lon="6.67792">
        <ele>82.166604</ele>
        <time>2020-08-01T14:01:47.568Z</time>
      </trkpt>
      <trkpt lat="62.68806" lon="6.67803">
        <ele>82.194589</ele>
        <time>2020-08-01T14:01:50.528Z</time>
      </trkpt>
      <trkpt lat="62.68818" lon="6.67812">
        <ele>82.222667</ele>
        <time>2020-08-01T14:01:53.525Z</time>
      </trkpt>
      <trkpt lat="62.6883" lon="6.67821">
        <ele>82.25081</ele>
        <time>2020-08-01T14:01:56.524Z</time>
      </trkpt>
      <trkpt lat="62.68841" lon="6.6783">
        <ele>82.276002</ele>
        <time>2020-08-01T14:01:59.528Z</time>
      </trkpt>
      <trkpt lat="62.68851" lon="6.67837">
        <ele>82.300994</ele>
        <time>2020-08-01T14:02:02.523Z</time>
      </trkpt>
      <trkpt lat="62.68862" lon="6.67847">
        <ele>82.326579</ele>
        <time>2020-08-01T14:02:05.547Z</time>
      </trkpt>
      <trkpt lat="62.68875" lon="6.67856">
        <ele>82.356037</ele>
        <time>2020-08-01T14:02:08.557Z</time>
      </trkpt>
      <trkpt lat="62.68887" lon="6.67865">
        <ele>82.321044</ele>
        <time>2020-08-01T14:02:11.555Z</time>
      </trkpt>
      <trkpt lat="62.68896" lon="6.67869">
        <ele>82.2225</ele>
        <time>2020-08-01T14:02:13.525Z</time>
      </trkpt>
      <trkpt lat="62.68908" lon="6.67879">
        <ele>82.080894</ele>
        <time>2020-08-01T14:02:16.528Z</time>
      </trkpt>
      <trkpt lat="62.68921" lon="6.67887">
        <ele>81.939373</ele>
        <time>2020-08-01T14:02:19.547Z</time>
      </trkpt>
      <trkpt lat="62.68933" lon="6.67896">
        <ele>81.806813</ele>
        <time>2020-08-01T14:02:22.576Z</time>
      </trkpt>
      <trkpt lat="62.68944" lon="6.67904">
        <ele>81.673677</ele>
        <time>2020-08-01T14:02:25.538Z</time>
      </trkpt>
      <trkpt lat="62.68957" lon="6.67912">
        <ele>81.535984</ele>
        <time>2020-08-01T14:02:28.553Z</time>
      </trkpt>
      <trkpt lat="62.68969" lon="6.67917">
        <ele>81.394557</ele>
        <time>2020-08-01T14:02:31.551Z</time>
      </trkpt>
      <trkpt lat="62.68983" lon="6.67923">
        <ele>81.250734</ele>
        <time>2020-08-01T14:02:34.529Z</time>
      </trkpt>
      <trkpt lat="62.68992" lon="6.67927">
        <ele>81.150912</ele>
        <time>2020-08-01T14:02:36.548Z</time>
      </trkpt>
      <trkpt lat="62.69001" lon="6.67931">
        <ele>81.045422</ele>
        <time>2020-08-01T14:02:38.547Z</time>
      </trkpt>
      <trkpt lat="62.69011" lon="6.67934">
        <ele>80.936383</ele>
        <time>2020-08-01T14:02:40.544Z</time>
      </trkpt>
      <trkpt lat="62.69022" lon="6.67938">
        <ele>80.824075</ele>
        <time>2020-08-01T14:02:42.518Z</time>
      </trkpt>
      <trkpt lat="62.69032" lon="6.67943">
        <ele>80.709942</ele>
        <time>2020-08-01T14:02:44.527Z</time>
      </trkpt>
      <trkpt lat="62.69042" lon="6.67951">
        <ele>80.593996</ele>
        <time>2020-08-01T14:02:46.538Z</time>
      </trkpt>
      <trkpt lat="62.69052" lon="6.67963">
        <ele>80.474319</ele>
        <time>2020-08-01T14:02:48.547Z</time>
      </trkpt>
      <trkpt lat="62.69062" lon="6.67974">
        <ele>80.410376</ele>
        <time>2020-08-01T14:02:50.565Z</time>
      </trkpt>
      <trkpt lat="62.69074" lon="6.67984">
        <ele>80.372318</ele>
        <time>2020-08-01T14:02:52.536Z</time>
      </trkpt>
      <trkpt lat="62.69085" lon="6.67992">
        <ele>80.333916</ele>
        <time>2020-08-01T14:02:54.552Z</time>
      </trkpt>
      <trkpt lat="62.69096" lon="6.68">
        <ele>80.297342</ele>
        <time>2020-08-01T14:02:56.533Z</time>
      </trkpt>
      <trkpt lat="62.69107" lon="6.68007">
        <ele>80.262527</ele>
        <time>2020-08-01T14:02:58.524Z</time>
      </trkpt>
      <trkpt lat="62.69117" lon="6.68014">
        <ele>80.227587</ele>
        <time>2020-08-01T14:03:00.579Z</time>
      </trkpt>
      <trkpt lat="62.69128" lon="6.6802">
        <ele>80.193385</ele>
        <time>2020-08-01T14:03:02.519Z</time>
      </trkpt>
      <trkpt lat="62.69138" lon="6.68024">
        <ele>80.159439</ele>
        <time>2020-08-01T14:03:04.538Z</time>
      </trkpt>
      <trkpt lat="62.69149" lon="6.68029">
        <ele>80.125267</ele>
        <time>2020-08-01T14:03:06.522Z</time>
      </trkpt>
      <trkpt lat="62.69159" lon="6.68034">
        <ele>80.092194</ele>
        <time>2020-08-01T14:03:08.556Z</time>
      </trkpt>
      <trkpt lat="62.69168" lon="6.68041">
        <ele>80.062665</ele>
        <time>2020-08-01T14:03:10.522Z</time>
      </trkpt>
      <trkpt lat="62.69176" lon="6.68049">
        <ele>80.034055</ele>
        <time>2020-08-01T14:03:12.550Z</time>
      </trkpt>
      <trkpt lat="62.69186" lon="6.68064">
        <ele>79.996158</ele>
        <time>2020-08-01T14:03:15.534Z</time>
      </trkpt>
      <trkpt lat="62.69194" lon="6.68079">
        <ele>79.964514</ele>
        <time>2020-08-01T14:03:18.544Z</time>
      </trkpt>
      <trkpt lat="62.69199" lon="6.68099">
        <ele>79.930921</ele>
        <time>2020-08-01T14:03:22.574Z</time>
      </trkpt>
      <trkpt lat="62.69205" lon="6.68116">
        <ele>79.899841</ele>
        <time>2020-08-01T14:03:26.543Z</time>
      </trkpt>
      <trkpt lat="62.69207" lon="6.68142">
        <ele>79.853741</ele>
        <time>2020-08-01T14:03:30.527Z</time>
      </trkpt>
      <trkpt lat="62.69201" lon="6.68162">
        <ele>79.781295</ele>
        <time>2020-08-01T14:03:33.544Z</time>
      </trkpt>
      <trkpt lat="62.69202" lon="6.68187">
        <ele>79.702318</ele>
        <time>2020-08-01T14:03:36.548Z</time>
      </trkpt>
      <trkpt lat="62.69206" lon="6.68205">
        <ele>79.638677</ele>
        <time>2020-08-01T14:03:38.534Z</time>
      </trkpt>
      <trkpt lat="62.69213" lon="6.68229">
        <ele>79.55139</ele>
        <time>2020-08-01T14:03:41.526Z</time>
      </trkpt>
      <trkpt lat="62.69218" lon="6.68253">
        <ele>79.468323</ele>
        <time>2020-08-01T14:03:44.536Z</time>
      </trkpt>
      <trkpt lat="62.69222" lon="6.68278">
        <ele>79.382222</ele>
        <time>2020-08-01T14:03:47.524Z</time>
      </trkpt>
      <trkpt lat="62.69227" lon="6.68304">
        <ele>79.296661</ele>
        <time>2020-08-01T14:03:50.536Z</time>
      </trkpt>
      <trkpt lat="62.69231" lon="6.6833">
        <ele>79.211268</ele>
        <time>2020-08-01T14:03:53.526Z</time>
      </trkpt>
      <trkpt lat="62.69233" lon="6.68355">
        <ele>79.128638</ele>
        <time>2020-08-01T14:03:56.527Z</time>
      </trkpt>
      <trkpt lat="62.69236" lon="6.68381">
        <ele>79.045373</ele>
        <time>2020-08-01T14:03:59.543Z</time>
      </trkpt>
      <trkpt lat="62.69239" lon="6.68406">
        <ele>78.964581</ele>
        <time>2020-08-01T14:04:02.567Z</time>
      </trkpt>
      <trkpt lat="62.69243" lon="6.6843">
        <ele>78.883314</ele>
        <time>2020-08-01T14:04:05.516Z</time>
      </trkpt>
      <trkpt lat="62.69247" lon="6.68456">
        <ele>78.798008</ele>
        <time>2020-08-01T14:04:08.557Z</time>
      </trkpt>
      <trkpt lat="62.6925" lon="6.68482">
        <ele>78.713112</ele>
        <time>2020-08-01T14:04:11.532Z</time>
      </trkpt>
      <trkpt lat="62.69253" lon="6.6851">
        <ele>78.586253</ele>
        <time>2020-08-01T14:04:14.533Z</time>
      </trkpt>
      <trkpt lat="62.69256" lon="6.6853">
        <ele>78.330057</ele>
        <time>2020-08-01T14:04:16.547Z</time>
      </trkpt>
      <trkpt lat="62.69258" lon="6.68551">
        <ele>78.067245</ele>
        <time>2020-08-01T14:04:18.524Z</time>
      </trkpt>
      <trkpt lat="62.69261" lon="6.68571">
        <ele>77.811707</ele>
        <time>2020-08-01T14:04:20.519Z</time>
      </trkpt>
      <trkpt lat="62.69263" lon="6.68591">
        <ele>77.551444</ele>
        <time>2020-08-01T14:04:22.527Z</time>
      </trkpt>
      <trkpt lat="62.69266" lon="6.68613">
        <ele>77.271129</ele>
        <time>2020-08-01T14:04:24.543Z</time>
      </trkpt>
      <trkpt lat="62.69269" lon="6.68635">
        <ele>76.99695</ele>
        <time>2020-08-01T14:04:26.530Z</time>
      </trkpt>
      <trkpt lat="62.69272" lon="6.68657">
        <ele>76.710716</ele>
        <time>2020-08-01T14:04:28.531Z</time>
      </trkpt>
      <trkpt lat="62.69275" lon="6.6868">
        <ele>76.417568</ele>
        <time>2020-08-01T14:04:30.542Z</time>
      </trkpt>
      <trkpt lat="62.69279" lon="6.68704">
        <ele>76.101511</ele>
        <time>2020-08-01T14:04:32.544Z</time>
      </trkpt>
      <trkpt lat="62.69285" lon="6.68728">
        <ele>75.763567</ele>
        <time>2020-08-01T14:04:34.529Z</time>
      </trkpt>
      <trkpt lat="62.69292" lon="6.68753">
        <ele>75.413675</ele>
        <time>2020-08-01T14:04:36.552Z</time>
      </trkpt>
      <trkpt lat="62.693" lon="6.68779">
        <ele>75.029834</ele>
        <time>2020-08-01T14:04:38.552Z</time>
      </trkpt>
      <trkpt lat="62.6931" lon="6.68806">
        <ele>74.607816</ele>
        <time>2020-08-01T14:04:40.526Z</time>
      </trkpt>
      <trkpt lat="62.69321" lon="6.68832">
        <ele>74.161648</ele>
        <time>2020-08-01T14:04:42.514Z</time>
      </trkpt>
      <trkpt lat="62.69335" lon="6.68856">
        <ele>73.650951</ele>
        <time>2020-08-01T14:04:44.536Z</time>
      </trkpt>
      <trkpt lat="62.69342" lon="6.68867">
        <ele>73.31502</ele>
        <time>2020-08-01T14:04:45.555Z</time>
      </trkpt>
      <trkpt lat="62.6935" lon="6.68878">
        <ele>72.969991</ele>
        <time>2020-08-01T14:04:46.533Z</time>
      </trkpt>
      <trkpt lat="62.69358" lon="6.68889">
        <ele>72.613979</ele>
        <time>2020-08-01T14:04:47.544Z</time>
      </trkpt>
      <trkpt lat="62.69367" lon="6.689">
        <ele>72.253951</ele>
        <time>2020-08-01T14:04:48.534Z</time>
      </trkpt>
      <trkpt lat="62.69375" lon="6.68912">
        <ele>71.886395</ele>
        <time>2020-08-01T14:04:49.531Z</time>
      </trkpt>
      <trkpt lat="62.69384" lon="6.68923">
        <ele>71.507982</ele>
        <time>2020-08-01T14:04:50.554Z</time>
      </trkpt>
      <trkpt lat="62.69393" lon="6.68934">
        <ele>71.128717</ele>
        <time>2020-08-01T14:04:51.524Z</time>
      </trkpt>
      <trkpt lat="62.69402" lon="6.68946">
        <ele>70.745994</ele>
        <time>2020-08-01T14:04:52.531Z</time>
      </trkpt>
      <trkpt lat="62.69411" lon="6.68958">
        <ele>70.361508</ele>
        <time>2020-08-01T14:04:53.539Z</time>
      </trkpt>
      <trkpt lat="62.6942" lon="6.6897">
        <ele>69.972123</ele>
        <time>2020-08-01T14:04:54.591Z</time>
      </trkpt>
      <trkpt lat="62.69429" lon="6.68983">
        <ele>69.582224</ele>
        <time>2020-08-01T14:04:55.529Z</time>
      </trkpt>
      <trkpt lat="62.69438" lon="6.68996">
        <ele>69.192324</ele>
        <time>2020-08-01T14:04:56.560Z</time>
      </trkpt>
      <trkpt lat="62.69446" lon="6.69008">
        <ele>68.808254</ele>
        <time>2020-08-01T14:04:57.537Z</time>
      </trkpt>
      <trkpt lat="62.69455" lon="6.6902">
        <ele>68.427272</ele>
        <time>2020-08-01T14:04:58.532Z</time>
      </trkpt>
      <trkpt lat="62.69464" lon="6.69033">
        <ele>68.051499</ele>
        <time>2020-08-01T14:04:59.534Z</time>
      </trkpt>
      <trkpt lat="62.69472" lon="6.69045">
        <ele>67.681586</ele>
        <time>2020-08-01T14:05:00.541Z</time>
      </trkpt>
      <trkpt lat="62.6948" lon="6.69057">
        <ele>67.317519</ele>
        <time>2020-08-01T14:05:01.529Z</time>
      </trkpt>
      <trkpt lat="62.69489" lon="6.69068">
        <ele>67.033307</ele>
        <time>2020-08-01T14:05:02.539Z</time>
      </trkpt>
      <trkpt lat="62.69497" lon="6.6908">
        <ele>66.783764</ele>
        <time>2020-08-01T14:05:03.554Z</time>
      </trkpt>
      <trkpt lat="62.69505" lon="6.69092">
        <ele>66.53613</ele>
        <time>2020-08-01T14:05:04.531Z</time>
      </trkpt>
      <trkpt lat="62.69513" lon="6.69103">
        <ele>66.291262</ele>
        <time>2020-08-01T14:05:05.574Z</time>
      </trkpt>
      <trkpt lat="62.69521" lon="6.69115">
        <ele>66.052108</ele>
        <time>2020-08-01T14:05:06.533Z</time>
      </trkpt>
      <trkpt lat="62.69529" lon="6.69126">
        <ele>65.810847</ele>
        <time>2020-08-01T14:05:07.516Z</time>
      </trkpt>
      <trkpt lat="62.69537" lon="6.69138">
        <ele>65.571694</ele>
        <time>2020-08-01T14:05:08.536Z</time>
      </trkpt>
      <trkpt lat="62.69544" lon="6.69149">
        <ele>65.338052</ele>
        <time>2020-08-01T14:05:09.524Z</time>
      </trkpt>
      <trkpt lat="62.69552" lon="6.6916">
        <ele>65.106566</ele>
        <time>2020-08-01T14:05:10.526Z</time>
      </trkpt>
      <trkpt lat="62.69559" lon="6.69173">
        <ele>64.877681</ele>
        <time>2020-08-01T14:05:11.526Z</time>
      </trkpt>
      <trkpt lat="62.69566" lon="6.69185">
        <ele>64.648605</ele>
        <time>2020-08-01T14:05:12.547Z</time>
      </trkpt>
      <trkpt lat="62.69579" lon="6.69211">
        <ele>64.20101</ele>
        <time>2020-08-01T14:05:14.542Z</time>
      </trkpt>
      <trkpt lat="62.69591" lon="6.69238">
        <ele>63.76051</ele>
        <time>2020-08-01T14:05:16.528Z</time>
      </trkpt>
      <trkpt lat="62.69602" lon="6.69267">
        <ele>63.327834</ele>
        <time>2020-08-01T14:05:18.522Z</time>
      </trkpt>
      <trkpt lat="62.69611" lon="6.69296">
        <ele>62.908416</ele>
        <time>2020-08-01T14:05:20.529Z</time>
      </trkpt>
      <trkpt lat="62.6962" lon="6.69327">
        <ele>62.389791</ele>
        <time>2020-08-01T14:05:22.538Z</time>
      </trkpt>
      <trkpt lat="62.69629" lon="6.69358">
        <ele>61.712894</ele>
        <time>2020-08-01T14:05:24.532Z</time>
      </trkpt>
      <trkpt lat="62.69638" lon="6.69389">
        <ele>61.03042</ele>
        <time>2020-08-01T14:05:26.518Z</time>
      </trkpt>
      <trkpt lat="62.69648" lon="6.69419">
        <ele>60.353689</ele>
        <time>2020-08-01T14:05:28.550Z</time>
      </trkpt>
      <trkpt lat="62.69657" lon="6.6945">
        <ele>59.681164</ele>
        <time>2020-08-01T14:05:30.527Z</time>
      </trkpt>
      <trkpt lat="62.69666" lon="6.69481">
        <ele>59.001372</ele>
        <time>2020-08-01T14:05:32.538Z</time>
      </trkpt>
      <trkpt lat="62.69675" lon="6.69511">
        <ele>58.329111</ele>
        <time>2020-08-01T14:05:34.548Z</time>
      </trkpt>
      <trkpt lat="62.69685" lon="6.69542">
        <ele>57.652223</ele>
        <time>2020-08-01T14:05:36.575Z</time>
      </trkpt>
      <trkpt lat="62.69695" lon="6.69572">
        <ele>56.946845</ele>
        <time>2020-08-01T14:05:38.534Z</time>
      </trkpt>
      <trkpt lat="62.697" lon="6.69588">
        <ele>56.578694</ele>
        <time>2020-08-01T14:05:39.548Z</time>
      </trkpt>
      <trkpt lat="62.69706" lon="6.69605">
        <ele>56.195945</ele>
        <time>2020-08-01T14:05:40.530Z</time>
      </trkpt>
      <trkpt lat="62.69712" lon="6.69622">
        <ele>55.802776</ele>
        <time>2020-08-01T14:05:41.548Z</time>
      </trkpt>
      <trkpt lat="62.69718" lon="6.69641">
        <ele>55.393364</ele>
        <time>2020-08-01T14:05:42.538Z</time>
      </trkpt>
      <trkpt lat="62.69724" lon="6.69659">
        <ele>55.072218</ele>
        <time>2020-08-01T14:05:43.561Z</time>
      </trkpt>
      <trkpt lat="62.69731" lon="6.69678">
        <ele>54.744406</ele>
        <time>2020-08-01T14:05:44.535Z</time>
      </trkpt>
      <trkpt lat="62.69737" lon="6.69698">
        <ele>54.409233</ele>
        <time>2020-08-01T14:05:45.534Z</time>
      </trkpt>
      <trkpt lat="62.69744" lon="6.69717">
        <ele>54.076682</ele>
        <time>2020-08-01T14:05:46.526Z</time>
      </trkpt>
      <trkpt lat="62.69751" lon="6.69735">
        <ele>53.750325</ele>
        <time>2020-08-01T14:05:47.538Z</time>
      </trkpt>
      <trkpt lat="62.69757" lon="6.69754">
        <ele>53.427712</ele>
        <time>2020-08-01T14:05:48.540Z</time>
      </trkpt>
      <trkpt lat="62.69764" lon="6.69771">
        <ele>53.116702</ele>
        <time>2020-08-01T14:05:49.565Z</time>
      </trkpt>
      <trkpt lat="62.6977" lon="6.69788">
        <ele>52.812947</ele>
        <time>2020-08-01T14:05:50.546Z</time>
      </trkpt>
      <trkpt lat="62.69776" lon="6.69805">
        <ele>52.517012</ele>
        <time>2020-08-01T14:05:51.527Z</time>
      </trkpt>
      <trkpt lat="62.69782" lon="6.69821">
        <ele>52.230993</ele>
        <time>2020-08-01T14:05:52.541Z</time>
      </trkpt>
      <trkpt lat="62.69788" lon="6.69838">
        <ele>51.951648</ele>
        <time>2020-08-01T14:05:53.561Z</time>
      </trkpt>
      <trkpt lat="62.69798" lon="6.69868">
        <ele>51.42569</ele>
        <time>2020-08-01T14:05:55.526Z</time>
      </trkpt>
      <trkpt lat="62.69808" lon="6.69897">
        <ele>50.931924</ele>
        <time>2020-08-01T14:05:57.569Z</time>
      </trkpt>
      <trkpt lat="62.69818" lon="6.69922">
        <ele>50.460448</ele>
        <time>2020-08-01T14:05:59.526Z</time>
      </trkpt>
      <trkpt lat="62.69828" lon="6.69947">
        <ele>50.007538</ele>
        <time>2020-08-01T14:06:01.559Z</time>
      </trkpt>
      <trkpt lat="62.69838" lon="6.69972">
        <ele>49.990201</ele>
        <time>2020-08-01T14:06:03.539Z</time>
      </trkpt>
      <trkpt lat="62.69846" lon="6.69996">
        <ele>49.990201</ele>
        <time>2020-08-01T14:06:05.525Z</time>
      </trkpt>
      <trkpt lat="62.69855" lon="6.70019">
        <ele>49.990201</ele>
        <time>2020-08-01T14:06:07.527Z</time>
      </trkpt>
      <trkpt lat="62.69861" lon="6.70038">
        <ele>49.990201</ele>
        <time>2020-08-01T14:06:09.526Z</time>
      </trkpt>
      <trkpt lat="62.69869" lon="6.70052">
        <ele>49.990201</ele>
        <time>2020-08-01T14:06:12.551Z</time>
      </trkpt>
      <trkpt lat="62.69878" lon="6.70044">
        <ele>49.990201</ele>
        <time>2020-08-01T14:06:16.530Z</time>
      </trkpt>
      <trkpt lat="62.69886" lon="6.70028">
        <ele>49.990201</ele>
        <time>2020-08-01T14:06:20.547Z</time>
      </trkpt>
      <trkpt lat="62.69893" lon="6.70011">
        <ele>49.990201</ele>
        <time>2020-08-01T14:06:24.543Z</time>
      </trkpt>
      <trkpt lat="62.69903" lon="6.69976">
        <ele>49.990201</ele>
        <time>2020-08-01T14:10:18.538Z</time>
      </trkpt>
      <trkpt lat="62.69906" lon="6.69957">
        <ele>49.990201</ele>
        <time>2020-08-01T14:10:29.531Z</time>
      </trkpt>
      <trkpt lat="62.69906" lon="6.69936">
        <ele>49.990201</ele>
        <time>2020-08-01T14:10:39.549Z</time>
      </trkpt>
      <trkpt lat="62.69907" lon="6.69915">
        <ele>49.990201</ele>
        <time>2020-08-01T14:10:50.522Z</time>
      </trkpt>
      <trkpt lat="62.6991" lon="6.69896">
        <ele>49.990201</ele>
        <time>2020-08-01T14:11:01.529Z</time>
      </trkpt>
      <trkpt lat="62.69912" lon="6.69876">
        <ele>49.990201</ele>
        <time>2020-08-01T14:11:16.555Z</time>
      </trkpt>
      <trkpt lat="62.69915" lon="6.69855">
        <ele>49.990201</ele>
        <time>2020-08-01T14:11:26.534Z</time>
      </trkpt>
      <trkpt lat="62.69915" lon="6.69834">
        <ele>49.990201</ele>
        <time>2020-08-01T14:11:38.525Z</time>
      </trkpt>
      <trkpt lat="62.69915" lon="6.69813">
        <ele>49.990201</ele>
        <time>2020-08-01T14:11:48.564Z</time>
      </trkpt>
      <trkpt lat="62.69912" lon="6.69833">
        <ele>49.990201</ele>
        <time>2020-08-01T14:12:41.532Z</time>
      </trkpt>
      <trkpt lat="62.69911" lon="6.69853">
        <ele>49.990201</ele>
        <time>2020-08-01T14:12:55.516Z</time>
      </trkpt>
      <trkpt lat="62.69922" lon="6.69866">
        <ele>49.990201</ele>
        <time>2020-08-01T14:13:25.536Z</time>
      </trkpt>
      <trkpt lat="62.69929" lon="6.69871">
        <ele>49.990201</ele>
        <time>2020-08-01T14:17:08.291Z</time>
      </trkpt>
    </trkseg>
  </trk>
</gpx>